<?xml version="1.0" encoding="UTF-8" standalone="no" ?>
<gpx xmlns="http://www.topografix.com/GPX/1/1" xmlns:xsi="http://www.w3.org/2001/XMLSchema-instance" xsi:schemaLocation="http://www.topografix.com/GPX/1/1 http://www.topografix.com/GPX/1/1/gpx.xsd" version="1.1" creator="VisuGPX - https://www.visugpx.com">
  <metadata>
    <name>Saint-Dalmas-le-Selvage Ascension</name>
    <desc><![CDATA[dernière sortie CAFSL   le dimanche 9 mai 2021]]></desc>
  </metadata>
  <trk>
    <name><![CDATA[Saint-Dalmas-le-Selvage Ascension]]></name>
    <trkseg>
      <trkpt lat="44.34013" lon="6.84982">
        <ele>2396.6000976562</ele>
        <time>2021-05-09T06:35:46.000Z</time>
      </trkpt>
      <trkpt lat="44.34014" lon="6.84981">
        <ele>2396.6000976562</ele>
        <time>2021-05-09T06:35:47.000Z</time>
      </trkpt>
      <trkpt lat="44.34009" lon="6.8499">
        <ele>2396.1999511719</ele>
        <time>2021-05-09T06:35:53.000Z</time>
      </trkpt>
      <trkpt lat="44.34009" lon="6.8499">
        <ele>2396.1999511719</ele>
        <time>2021-05-09T06:35:55.000Z</time>
      </trkpt>
      <trkpt lat="44.34009" lon="6.84991">
        <ele>2396.1999511719</ele>
        <time>2021-05-09T06:35:56.000Z</time>
      </trkpt>
      <trkpt lat="44.34009" lon="6.8499">
        <ele>2396.3999023438</ele>
        <time>2021-05-09T06:36:00.000Z</time>
      </trkpt>
      <trkpt lat="44.3401" lon="6.84991">
        <ele>2396.3999023438</ele>
        <time>2021-05-09T06:36:05.000Z</time>
      </trkpt>
      <trkpt lat="44.34011" lon="6.8499">
        <ele>2396.3999023438</ele>
        <time>2021-05-09T06:36:07.000Z</time>
      </trkpt>
      <trkpt lat="44.34011" lon="6.8499">
        <ele>2396.3999023438</ele>
        <time>2021-05-09T06:36:10.000Z</time>
      </trkpt>
      <trkpt lat="44.34011" lon="6.84991">
        <ele>2396.3999023438</ele>
        <time>2021-05-09T06:36:12.000Z</time>
      </trkpt>
      <trkpt lat="44.34026" lon="6.84991">
        <ele>2396.3999023438</ele>
        <time>2021-05-09T06:36:20.000Z</time>
      </trkpt>
      <trkpt lat="44.34032" lon="6.84988">
        <ele>2396.3999023438</ele>
        <time>2021-05-09T06:36:23.000Z</time>
      </trkpt>
      <trkpt lat="44.34036" lon="6.84982">
        <ele>2397.6000976562</ele>
        <time>2021-05-09T06:36:32.000Z</time>
      </trkpt>
      <trkpt lat="44.34035" lon="6.84982">
        <ele>2397.8000488281</ele>
        <time>2021-05-09T06:36:38.000Z</time>
      </trkpt>
      <trkpt lat="44.34036" lon="6.84981">
        <ele>2398</ele>
        <time>2021-05-09T06:36:41.000Z</time>
      </trkpt>
      <trkpt lat="44.34036" lon="6.84981">
        <ele>2398</ele>
        <time>2021-05-09T06:36:46.000Z</time>
      </trkpt>
      <trkpt lat="44.34035" lon="6.84981">
        <ele>2397.8000488281</ele>
        <time>2021-05-09T06:36:51.000Z</time>
      </trkpt>
      <trkpt lat="44.34034" lon="6.84981">
        <ele>2397.8000488281</ele>
        <time>2021-05-09T06:36:53.000Z</time>
      </trkpt>
      <trkpt lat="44.34034" lon="6.84981">
        <ele>2397.8000488281</ele>
        <time>2021-05-09T06:36:56.000Z</time>
      </trkpt>
      <trkpt lat="44.34034" lon="6.84981">
        <ele>2397.8000488281</ele>
        <time>2021-05-09T06:36:57.000Z</time>
      </trkpt>
      <trkpt lat="44.34034" lon="6.84981">
        <ele>2397.8000488281</ele>
        <time>2021-05-09T06:36:59.000Z</time>
      </trkpt>
      <trkpt lat="44.34034" lon="6.84981">
        <ele>2397.8000488281</ele>
        <time>2021-05-09T06:37:00.000Z</time>
      </trkpt>
      <trkpt lat="44.34034" lon="6.84981">
        <ele>2397.8000488281</ele>
        <time>2021-05-09T06:37:01.000Z</time>
      </trkpt>
      <trkpt lat="44.34035" lon="6.84981">
        <ele>2397.8000488281</ele>
        <time>2021-05-09T06:37:04.000Z</time>
      </trkpt>
      <trkpt lat="44.34035" lon="6.8498">
        <ele>2397.8000488281</ele>
        <time>2021-05-09T06:37:06.000Z</time>
      </trkpt>
      <trkpt lat="44.34036" lon="6.8498">
        <ele>2397.8000488281</ele>
        <time>2021-05-09T06:37:08.000Z</time>
      </trkpt>
      <trkpt lat="44.34036" lon="6.8498">
        <ele>2397.8000488281</ele>
        <time>2021-05-09T06:37:09.000Z</time>
      </trkpt>
      <trkpt lat="44.34036" lon="6.8498">
        <ele>2397.8000488281</ele>
        <time>2021-05-09T06:37:10.000Z</time>
      </trkpt>
      <trkpt lat="44.34037" lon="6.8498">
        <ele>2397.8000488281</ele>
        <time>2021-05-09T06:37:14.000Z</time>
      </trkpt>
      <trkpt lat="44.34037" lon="6.8498">
        <ele>2397.8000488281</ele>
        <time>2021-05-09T06:37:16.000Z</time>
      </trkpt>
      <trkpt lat="44.34038" lon="6.8498">
        <ele>2398</ele>
        <time>2021-05-09T06:37:20.000Z</time>
      </trkpt>
      <trkpt lat="44.34038" lon="6.8498">
        <ele>2398</ele>
        <time>2021-05-09T06:37:27.000Z</time>
      </trkpt>
      <trkpt lat="44.34039" lon="6.84979">
        <ele>2398</ele>
        <time>2021-05-09T06:37:30.000Z</time>
      </trkpt>
      <trkpt lat="44.34039" lon="6.84977">
        <ele>2398</ele>
        <time>2021-05-09T06:37:41.000Z</time>
      </trkpt>
      <trkpt lat="44.34039" lon="6.84975">
        <ele>2398</ele>
        <time>2021-05-09T06:37:44.000Z</time>
      </trkpt>
      <trkpt lat="44.3404" lon="6.84975">
        <ele>2398</ele>
        <time>2021-05-09T06:37:45.000Z</time>
      </trkpt>
      <trkpt lat="44.3404" lon="6.84972">
        <ele>2398</ele>
        <time>2021-05-09T06:37:57.000Z</time>
      </trkpt>
      <trkpt lat="44.34039" lon="6.84968">
        <ele>2398</ele>
        <time>2021-05-09T06:38:02.000Z</time>
      </trkpt>
      <trkpt lat="44.34038" lon="6.84964">
        <ele>2398</ele>
        <time>2021-05-09T06:38:14.000Z</time>
      </trkpt>
      <trkpt lat="44.34038" lon="6.84964">
        <ele>2398</ele>
        <time>2021-05-09T06:38:26.000Z</time>
      </trkpt>
      <trkpt lat="44.34038" lon="6.84963">
        <ele>2398</ele>
        <time>2021-05-09T06:38:38.000Z</time>
      </trkpt>
      <trkpt lat="44.34038" lon="6.84963">
        <ele>2398</ele>
        <time>2021-05-09T06:38:40.000Z</time>
      </trkpt>
      <trkpt lat="44.34038" lon="6.8496">
        <ele>2398</ele>
        <time>2021-05-09T06:38:50.000Z</time>
      </trkpt>
      <trkpt lat="44.34038" lon="6.84959">
        <ele>2398</ele>
        <time>2021-05-09T06:38:51.000Z</time>
      </trkpt>
      <trkpt lat="44.34038" lon="6.84959">
        <ele>2398</ele>
        <time>2021-05-09T06:38:52.000Z</time>
      </trkpt>
      <trkpt lat="44.34039" lon="6.84959">
        <ele>2398</ele>
        <time>2021-05-09T06:38:54.000Z</time>
      </trkpt>
      <trkpt lat="44.34039" lon="6.84959">
        <ele>2398</ele>
        <time>2021-05-09T06:38:56.000Z</time>
      </trkpt>
      <trkpt lat="44.3404" lon="6.84955">
        <ele>2398</ele>
        <time>2021-05-09T06:39:00.000Z</time>
      </trkpt>
      <trkpt lat="44.34041" lon="6.84953">
        <ele>2398</ele>
        <time>2021-05-09T06:39:02.000Z</time>
      </trkpt>
      <trkpt lat="44.34042" lon="6.84951">
        <ele>2398</ele>
        <time>2021-05-09T06:39:04.000Z</time>
      </trkpt>
      <trkpt lat="44.34043" lon="6.84949">
        <ele>2399</ele>
        <time>2021-05-09T06:39:06.000Z</time>
      </trkpt>
      <trkpt lat="44.34043" lon="6.84949">
        <ele>2400</ele>
        <time>2021-05-09T06:39:07.000Z</time>
      </trkpt>
      <trkpt lat="44.34044" lon="6.84948">
        <ele>2400.1999511719</ele>
        <time>2021-05-09T06:39:08.000Z</time>
      </trkpt>
      <trkpt lat="44.34044" lon="6.84947">
        <ele>2400.8000488281</ele>
        <time>2021-05-09T06:39:10.000Z</time>
      </trkpt>
      <trkpt lat="44.34045" lon="6.84947">
        <ele>2401.1999511719</ele>
        <time>2021-05-09T06:39:11.000Z</time>
      </trkpt>
      <trkpt lat="44.34046" lon="6.84946">
        <ele>2401</ele>
        <time>2021-05-09T06:39:12.000Z</time>
      </trkpt>
      <trkpt lat="44.34046" lon="6.84946">
        <ele>2401.1999511719</ele>
        <time>2021-05-09T06:39:13.000Z</time>
      </trkpt>
      <trkpt lat="44.34047" lon="6.84945">
        <ele>2401.1999511719</ele>
        <time>2021-05-09T06:39:14.000Z</time>
      </trkpt>
      <trkpt lat="44.3405" lon="6.84942">
        <ele>2402.3999023438</ele>
        <time>2021-05-09T06:39:19.000Z</time>
      </trkpt>
      <trkpt lat="44.34054" lon="6.84941">
        <ele>2403.3999023438</ele>
        <time>2021-05-09T06:39:28.000Z</time>
      </trkpt>
      <trkpt lat="44.34056" lon="6.84939">
        <ele>2403.8000488281</ele>
        <time>2021-05-09T06:39:32.000Z</time>
      </trkpt>
      <trkpt lat="44.34058" lon="6.84938">
        <ele>2404.3999023438</ele>
        <time>2021-05-09T06:39:36.000Z</time>
      </trkpt>
      <trkpt lat="44.34061" lon="6.84936">
        <ele>2405.3999023438</ele>
        <time>2021-05-09T06:39:41.000Z</time>
      </trkpt>
      <trkpt lat="44.34061" lon="6.84936">
        <ele>2405.6000976562</ele>
        <time>2021-05-09T06:39:42.000Z</time>
      </trkpt>
      <trkpt lat="44.34062" lon="6.84937">
        <ele>2405.8000488281</ele>
        <time>2021-05-09T06:39:44.000Z</time>
      </trkpt>
      <trkpt lat="44.34064" lon="6.8494">
        <ele>2406.6000976562</ele>
        <time>2021-05-09T06:39:50.000Z</time>
      </trkpt>
      <trkpt lat="44.34066" lon="6.84945">
        <ele>2407.8000488281</ele>
        <time>2021-05-09T06:39:59.000Z</time>
      </trkpt>
      <trkpt lat="44.34068" lon="6.84946">
        <ele>2408.8000488281</ele>
        <time>2021-05-09T06:40:06.000Z</time>
      </trkpt>
      <trkpt lat="44.34072" lon="6.84944">
        <ele>2410</ele>
        <time>2021-05-09T06:40:13.000Z</time>
      </trkpt>
      <trkpt lat="44.34074" lon="6.84944">
        <ele>2410.3999023438</ele>
        <time>2021-05-09T06:40:16.000Z</time>
      </trkpt>
      <trkpt lat="44.34074" lon="6.84943">
        <ele>2410.6000976562</ele>
        <time>2021-05-09T06:40:17.000Z</time>
      </trkpt>
      <trkpt lat="44.34076" lon="6.84942">
        <ele>2411</ele>
        <time>2021-05-09T06:40:20.000Z</time>
      </trkpt>
      <trkpt lat="44.34079" lon="6.8494">
        <ele>2411.6000976562</ele>
        <time>2021-05-09T06:40:24.000Z</time>
      </trkpt>
      <trkpt lat="44.34081" lon="6.8494">
        <ele>2412</ele>
        <time>2021-05-09T06:40:28.000Z</time>
      </trkpt>
      <trkpt lat="44.34082" lon="6.8494">
        <ele>2412.1999511719</ele>
        <time>2021-05-09T06:40:29.000Z</time>
      </trkpt>
      <trkpt lat="44.34084" lon="6.84938">
        <ele>2412.6000976562</ele>
        <time>2021-05-09T06:40:33.000Z</time>
      </trkpt>
      <trkpt lat="44.34085" lon="6.84935">
        <ele>2413.1999511719</ele>
        <time>2021-05-09T06:40:36.000Z</time>
      </trkpt>
      <trkpt lat="44.34087" lon="6.84934">
        <ele>2413.6000976562</ele>
        <time>2021-05-09T06:40:39.000Z</time>
      </trkpt>
      <trkpt lat="44.34089" lon="6.84931">
        <ele>2414.3999023438</ele>
        <time>2021-05-09T06:40:44.000Z</time>
      </trkpt>
      <trkpt lat="44.34093" lon="6.84929">
        <ele>2415.3999023438</ele>
        <time>2021-05-09T06:40:51.000Z</time>
      </trkpt>
      <trkpt lat="44.34097" lon="6.84927">
        <ele>2416.3999023438</ele>
        <time>2021-05-09T06:40:59.000Z</time>
      </trkpt>
      <trkpt lat="44.34101" lon="6.84925">
        <ele>2417.3999023438</ele>
        <time>2021-05-09T06:41:07.000Z</time>
      </trkpt>
      <trkpt lat="44.34105" lon="6.84924">
        <ele>2418.3999023438</ele>
        <time>2021-05-09T06:41:13.000Z</time>
      </trkpt>
      <trkpt lat="44.34107" lon="6.84924">
        <ele>2418.6000976562</ele>
        <time>2021-05-09T06:41:16.000Z</time>
      </trkpt>
      <trkpt lat="44.34111" lon="6.84924">
        <ele>2419.6000976562</ele>
        <time>2021-05-09T06:41:23.000Z</time>
      </trkpt>
      <trkpt lat="44.34115" lon="6.84925">
        <ele>2420.8000488281</ele>
        <time>2021-05-09T06:41:30.000Z</time>
      </trkpt>
      <trkpt lat="44.34123" lon="6.84926">
        <ele>2421.8000488281</ele>
        <time>2021-05-09T06:41:40.000Z</time>
      </trkpt>
      <trkpt lat="44.34127" lon="6.84928">
        <ele>2422.8000488281</ele>
        <time>2021-05-09T06:41:50.000Z</time>
      </trkpt>
      <trkpt lat="44.3413" lon="6.84928">
        <ele>2423.1999511719</ele>
        <time>2021-05-09T06:41:53.000Z</time>
      </trkpt>
      <trkpt lat="44.34131" lon="6.84928">
        <ele>2423.3999023438</ele>
        <time>2021-05-09T06:41:56.000Z</time>
      </trkpt>
      <trkpt lat="44.34132" lon="6.84928">
        <ele>2423.3999023438</ele>
        <time>2021-05-09T06:41:57.000Z</time>
      </trkpt>
      <trkpt lat="44.34135" lon="6.84928">
        <ele>2423.8000488281</ele>
        <time>2021-05-09T06:42:01.000Z</time>
      </trkpt>
      <trkpt lat="44.34136" lon="6.84928">
        <ele>2424.1999511719</ele>
        <time>2021-05-09T06:42:03.000Z</time>
      </trkpt>
      <trkpt lat="44.34138" lon="6.84927">
        <ele>2424.8000488281</ele>
        <time>2021-05-09T06:42:07.000Z</time>
      </trkpt>
      <trkpt lat="44.34138" lon="6.84927">
        <ele>2425</ele>
        <time>2021-05-09T06:42:08.000Z</time>
      </trkpt>
      <trkpt lat="44.34144" lon="6.84927">
        <ele>2426</ele>
        <time>2021-05-09T06:42:18.000Z</time>
      </trkpt>
      <trkpt lat="44.34146" lon="6.84927">
        <ele>2426.3999023438</ele>
        <time>2021-05-09T06:42:20.000Z</time>
      </trkpt>
      <trkpt lat="44.3415" lon="6.84927">
        <ele>2427</ele>
        <time>2021-05-09T06:42:26.000Z</time>
      </trkpt>
      <trkpt lat="44.34152" lon="6.84927">
        <ele>2427.3999023438</ele>
        <time>2021-05-09T06:42:29.000Z</time>
      </trkpt>
      <trkpt lat="44.34158" lon="6.84929">
        <ele>2428.1999511719</ele>
        <time>2021-05-09T06:42:38.000Z</time>
      </trkpt>
      <trkpt lat="44.34164" lon="6.84932">
        <ele>2429.1999511719</ele>
        <time>2021-05-09T06:42:47.000Z</time>
      </trkpt>
      <trkpt lat="44.34166" lon="6.84933">
        <ele>2429.8000488281</ele>
        <time>2021-05-09T06:42:51.000Z</time>
      </trkpt>
      <trkpt lat="44.34166" lon="6.84933">
        <ele>2430</ele>
        <time>2021-05-09T06:42:52.000Z</time>
      </trkpt>
      <trkpt lat="44.34168" lon="6.84934">
        <ele>2430.3999023438</ele>
        <time>2021-05-09T06:42:56.000Z</time>
      </trkpt>
      <trkpt lat="44.34173" lon="6.84935">
        <ele>2431.3999023438</ele>
        <time>2021-05-09T06:43:03.000Z</time>
      </trkpt>
      <trkpt lat="44.34179" lon="6.84939">
        <ele>2432.3999023438</ele>
        <time>2021-05-09T06:43:17.000Z</time>
      </trkpt>
      <trkpt lat="44.34182" lon="6.84941">
        <ele>2433</ele>
        <time>2021-05-09T06:43:24.000Z</time>
      </trkpt>
      <trkpt lat="44.34182" lon="6.84942">
        <ele>2433.1999511719</ele>
        <time>2021-05-09T06:43:25.000Z</time>
      </trkpt>
      <trkpt lat="44.34183" lon="6.84943">
        <ele>2433.3999023438</ele>
        <time>2021-05-09T06:43:28.000Z</time>
      </trkpt>
      <trkpt lat="44.34188" lon="6.84946">
        <ele>2434.1999511719</ele>
        <time>2021-05-09T06:43:35.000Z</time>
      </trkpt>
      <trkpt lat="44.3419" lon="6.84948">
        <ele>2434.6000976562</ele>
        <time>2021-05-09T06:43:37.000Z</time>
      </trkpt>
      <trkpt lat="44.34197" lon="6.84953">
        <ele>2435.3999023438</ele>
        <time>2021-05-09T06:43:48.000Z</time>
      </trkpt>
      <trkpt lat="44.34199" lon="6.84954">
        <ele>2435.6000976562</ele>
        <time>2021-05-09T06:43:49.000Z</time>
      </trkpt>
      <trkpt lat="44.34205" lon="6.84956">
        <ele>2436.6000976562</ele>
        <time>2021-05-09T06:43:57.000Z</time>
      </trkpt>
      <trkpt lat="44.34206" lon="6.84956">
        <ele>2437</ele>
        <time>2021-05-09T06:44:00.000Z</time>
      </trkpt>
      <trkpt lat="44.34209" lon="6.84958">
        <ele>2437.3999023438</ele>
        <time>2021-05-09T06:44:06.000Z</time>
      </trkpt>
      <trkpt lat="44.3421" lon="6.84958">
        <ele>2437.6000976562</ele>
        <time>2021-05-09T06:44:09.000Z</time>
      </trkpt>
      <trkpt lat="44.34219" lon="6.84962">
        <ele>2438.6000976562</ele>
        <time>2021-05-09T06:44:21.000Z</time>
      </trkpt>
      <trkpt lat="44.34226" lon="6.84965">
        <ele>2439.8000488281</ele>
        <time>2021-05-09T06:44:31.000Z</time>
      </trkpt>
      <trkpt lat="44.3423" lon="6.84969">
        <ele>2440.1999511719</ele>
        <time>2021-05-09T06:44:37.000Z</time>
      </trkpt>
      <trkpt lat="44.34231" lon="6.8497">
        <ele>2440.8000488281</ele>
        <time>2021-05-09T06:44:42.000Z</time>
      </trkpt>
      <trkpt lat="44.34235" lon="6.8497">
        <ele>2441.8000488281</ele>
        <time>2021-05-09T06:44:52.000Z</time>
      </trkpt>
      <trkpt lat="44.3424" lon="6.84972">
        <ele>2442.6000976562</ele>
        <time>2021-05-09T06:45:00.000Z</time>
      </trkpt>
      <trkpt lat="44.34242" lon="6.84974">
        <ele>2442.8000488281</ele>
        <time>2021-05-09T06:45:03.000Z</time>
      </trkpt>
      <trkpt lat="44.34248" lon="6.84979">
        <ele>2444</ele>
        <time>2021-05-09T06:45:13.000Z</time>
      </trkpt>
      <trkpt lat="44.34252" lon="6.8498">
        <ele>2444.6000976562</ele>
        <time>2021-05-09T06:45:19.000Z</time>
      </trkpt>
      <trkpt lat="44.34252" lon="6.8498">
        <ele>2444.8000488281</ele>
        <time>2021-05-09T06:45:21.000Z</time>
      </trkpt>
      <trkpt lat="44.34253" lon="6.8498">
        <ele>2445.1999511719</ele>
        <time>2021-05-09T06:45:23.000Z</time>
      </trkpt>
      <trkpt lat="44.34257" lon="6.84982">
        <ele>2445.8000488281</ele>
        <time>2021-05-09T06:45:30.000Z</time>
      </trkpt>
      <trkpt lat="44.34258" lon="6.84983">
        <ele>2446.1999511719</ele>
        <time>2021-05-09T06:45:32.000Z</time>
      </trkpt>
      <trkpt lat="44.34259" lon="6.84984">
        <ele>2446.3999023438</ele>
        <time>2021-05-09T06:45:34.000Z</time>
      </trkpt>
      <trkpt lat="44.3426" lon="6.84985">
        <ele>2447.3999023438</ele>
        <time>2021-05-09T06:45:39.000Z</time>
      </trkpt>
      <trkpt lat="44.34266" lon="6.84986">
        <ele>2448.3999023438</ele>
        <time>2021-05-09T06:45:50.000Z</time>
      </trkpt>
      <trkpt lat="44.3427" lon="6.84987">
        <ele>2449.3999023438</ele>
        <time>2021-05-09T06:45:57.000Z</time>
      </trkpt>
      <trkpt lat="44.34276" lon="6.84989">
        <ele>2450.6000976562</ele>
        <time>2021-05-09T06:46:07.000Z</time>
      </trkpt>
      <trkpt lat="44.34282" lon="6.84991">
        <ele>2451.6000976562</ele>
        <time>2021-05-09T06:46:16.000Z</time>
      </trkpt>
      <trkpt lat="44.34283" lon="6.84995">
        <ele>2452.6000976562</ele>
        <time>2021-05-09T06:46:24.000Z</time>
      </trkpt>
      <trkpt lat="44.34291" lon="6.84997">
        <ele>2453.8000488281</ele>
        <time>2021-05-09T06:46:35.000Z</time>
      </trkpt>
      <trkpt lat="44.34295" lon="6.85">
        <ele>2454.3999023438</ele>
        <time>2021-05-09T06:46:44.000Z</time>
      </trkpt>
      <trkpt lat="44.34294" lon="6.85">
        <ele>2454.8000488281</ele>
        <time>2021-05-09T06:46:50.000Z</time>
      </trkpt>
      <trkpt lat="44.34294" lon="6.85">
        <ele>2454.8000488281</ele>
        <time>2021-05-09T06:46:56.000Z</time>
      </trkpt>
      <trkpt lat="44.34294" lon="6.84998">
        <ele>2454.8000488281</ele>
        <time>2021-05-09T06:47:02.000Z</time>
      </trkpt>
      <trkpt lat="44.34291" lon="6.84997">
        <ele>2454.6000976562</ele>
        <time>2021-05-09T06:47:07.000Z</time>
      </trkpt>
      <trkpt lat="44.34291" lon="6.84997">
        <ele>2454.6000976562</ele>
        <time>2021-05-09T06:47:09.000Z</time>
      </trkpt>
      <trkpt lat="44.34291" lon="6.84997">
        <ele>2454.6000976562</ele>
        <time>2021-05-09T06:47:13.000Z</time>
      </trkpt>
      <trkpt lat="44.34291" lon="6.84997">
        <ele>2454.6000976562</ele>
        <time>2021-05-09T06:47:17.000Z</time>
      </trkpt>
      <trkpt lat="44.34292" lon="6.84995">
        <ele>2454.3999023438</ele>
        <time>2021-05-09T06:47:20.000Z</time>
      </trkpt>
      <trkpt lat="44.34295" lon="6.84995">
        <ele>2454.6000976562</ele>
        <time>2021-05-09T06:47:34.000Z</time>
      </trkpt>
      <trkpt lat="44.34296" lon="6.84996">
        <ele>2455.1999511719</ele>
        <time>2021-05-09T06:47:41.000Z</time>
      </trkpt>
      <trkpt lat="44.34297" lon="6.84997">
        <ele>2455.3999023438</ele>
        <time>2021-05-09T06:47:46.000Z</time>
      </trkpt>
      <trkpt lat="44.34301" lon="6.84998">
        <ele>2455.3999023438</ele>
        <time>2021-05-09T06:47:55.000Z</time>
      </trkpt>
      <trkpt lat="44.34302" lon="6.84997">
        <ele>2455.3999023438</ele>
        <time>2021-05-09T06:47:57.000Z</time>
      </trkpt>
      <trkpt lat="44.34305" lon="6.84996">
        <ele>2455.3999023438</ele>
        <time>2021-05-09T06:48:00.000Z</time>
      </trkpt>
      <trkpt lat="44.34305" lon="6.84996">
        <ele>2455.3999023438</ele>
        <time>2021-05-09T06:48:01.000Z</time>
      </trkpt>
      <trkpt lat="44.34306" lon="6.84996">
        <ele>2455.6000976562</ele>
        <time>2021-05-09T06:48:02.000Z</time>
      </trkpt>
      <trkpt lat="44.34307" lon="6.84996">
        <ele>2455.6000976562</ele>
        <time>2021-05-09T06:48:03.000Z</time>
      </trkpt>
      <trkpt lat="44.3431" lon="6.84995">
        <ele>2455.8000488281</ele>
        <time>2021-05-09T06:48:06.000Z</time>
      </trkpt>
      <trkpt lat="44.34311" lon="6.84994">
        <ele>2456</ele>
        <time>2021-05-09T06:48:08.000Z</time>
      </trkpt>
      <trkpt lat="44.34313" lon="6.84993">
        <ele>2456.3999023438</ele>
        <time>2021-05-09T06:48:11.000Z</time>
      </trkpt>
      <trkpt lat="44.34313" lon="6.84992">
        <ele>2456.3999023438</ele>
        <time>2021-05-09T06:48:12.000Z</time>
      </trkpt>
      <trkpt lat="44.34316" lon="6.84991">
        <ele>2457</ele>
        <time>2021-05-09T06:48:15.000Z</time>
      </trkpt>
      <trkpt lat="44.34321" lon="6.8499">
        <ele>2458</ele>
        <time>2021-05-09T06:48:21.000Z</time>
      </trkpt>
      <trkpt lat="44.34322" lon="6.8499">
        <ele>2458.1999511719</ele>
        <time>2021-05-09T06:48:22.000Z</time>
      </trkpt>
      <trkpt lat="44.34324" lon="6.84987">
        <ele>2458.8000488281</ele>
        <time>2021-05-09T06:48:26.000Z</time>
      </trkpt>
      <trkpt lat="44.34325" lon="6.84986">
        <ele>2459.1999511719</ele>
        <time>2021-05-09T06:48:28.000Z</time>
      </trkpt>
      <trkpt lat="44.34326" lon="6.84985">
        <ele>2459.3999023438</ele>
        <time>2021-05-09T06:48:29.000Z</time>
      </trkpt>
      <trkpt lat="44.34326" lon="6.84985">
        <ele>2459.3999023438</ele>
        <time>2021-05-09T06:48:30.000Z</time>
      </trkpt>
      <trkpt lat="44.34328" lon="6.84983">
        <ele>2460.3999023438</ele>
        <time>2021-05-09T06:48:38.000Z</time>
      </trkpt>
      <trkpt lat="44.34332" lon="6.84982">
        <ele>2461.1999511719</ele>
        <time>2021-05-09T06:48:48.000Z</time>
      </trkpt>
      <trkpt lat="44.34333" lon="6.84981">
        <ele>2461.3999023438</ele>
        <time>2021-05-09T06:48:50.000Z</time>
      </trkpt>
      <trkpt lat="44.34334" lon="6.84981">
        <ele>2462.6000976562</ele>
        <time>2021-05-09T06:48:55.000Z</time>
      </trkpt>
      <trkpt lat="44.34335" lon="6.84984">
        <ele>2463.3999023438</ele>
        <time>2021-05-09T06:49:01.000Z</time>
      </trkpt>
      <trkpt lat="44.34335" lon="6.84984">
        <ele>2463.8000488281</ele>
        <time>2021-05-09T06:49:03.000Z</time>
      </trkpt>
      <trkpt lat="44.34338" lon="6.8499">
        <ele>2464.8000488281</ele>
        <time>2021-05-09T06:49:14.000Z</time>
      </trkpt>
      <trkpt lat="44.3434" lon="6.84989">
        <ele>2465.8000488281</ele>
        <time>2021-05-09T06:49:22.000Z</time>
      </trkpt>
      <trkpt lat="44.34341" lon="6.84984">
        <ele>2467</ele>
        <time>2021-05-09T06:49:31.000Z</time>
      </trkpt>
      <trkpt lat="44.34341" lon="6.8498">
        <ele>2467.8000488281</ele>
        <time>2021-05-09T06:49:49.000Z</time>
      </trkpt>
      <trkpt lat="44.34341" lon="6.8498">
        <ele>2468</ele>
        <time>2021-05-09T06:49:50.000Z</time>
      </trkpt>
      <trkpt lat="44.34341" lon="6.84977">
        <ele>2468.1999511719</ele>
        <time>2021-05-09T06:49:56.000Z</time>
      </trkpt>
      <trkpt lat="44.34341" lon="6.84977">
        <ele>2468.3999023438</ele>
        <time>2021-05-09T06:49:57.000Z</time>
      </trkpt>
      <trkpt lat="44.34343" lon="6.84981">
        <ele>2468.8000488281</ele>
        <time>2021-05-09T06:50:06.000Z</time>
      </trkpt>
      <trkpt lat="44.34345" lon="6.84984">
        <ele>2469</ele>
        <time>2021-05-09T06:50:10.000Z</time>
      </trkpt>
      <trkpt lat="44.34347" lon="6.84988">
        <ele>2470</ele>
        <time>2021-05-09T06:50:15.000Z</time>
      </trkpt>
      <trkpt lat="44.34351" lon="6.84993">
        <ele>2471.1999511719</ele>
        <time>2021-05-09T06:50:21.000Z</time>
      </trkpt>
      <trkpt lat="44.34351" lon="6.84995">
        <ele>2471.3999023438</ele>
        <time>2021-05-09T06:50:23.000Z</time>
      </trkpt>
      <trkpt lat="44.34352" lon="6.84999">
        <ele>2472.1999511719</ele>
        <time>2021-05-09T06:50:28.000Z</time>
      </trkpt>
      <trkpt lat="44.34354" lon="6.85002">
        <ele>2473.1999511719</ele>
        <time>2021-05-09T06:50:32.000Z</time>
      </trkpt>
      <trkpt lat="44.34356" lon="6.85007">
        <ele>2474.3999023438</ele>
        <time>2021-05-09T06:50:39.000Z</time>
      </trkpt>
      <trkpt lat="44.34359" lon="6.8501">
        <ele>2475.3999023438</ele>
        <time>2021-05-09T06:50:48.000Z</time>
      </trkpt>
      <trkpt lat="44.34363" lon="6.85013">
        <ele>2476.3999023438</ele>
        <time>2021-05-09T06:50:57.000Z</time>
      </trkpt>
      <trkpt lat="44.34365" lon="6.85016">
        <ele>2477.6000976562</ele>
        <time>2021-05-09T06:51:04.000Z</time>
      </trkpt>
      <trkpt lat="44.34366" lon="6.8502">
        <ele>2478.6000976562</ele>
        <time>2021-05-09T06:51:11.000Z</time>
      </trkpt>
      <trkpt lat="44.34369" lon="6.85016">
        <ele>2479.6000976562</ele>
        <time>2021-05-09T06:51:20.000Z</time>
      </trkpt>
      <trkpt lat="44.3437" lon="6.85014">
        <ele>2480.1999511719</ele>
        <time>2021-05-09T06:51:24.000Z</time>
      </trkpt>
      <trkpt lat="44.3437" lon="6.85013">
        <ele>2480.3999023438</ele>
        <time>2021-05-09T06:51:25.000Z</time>
      </trkpt>
      <trkpt lat="44.34372" lon="6.85011">
        <ele>2480.8000488281</ele>
        <time>2021-05-09T06:51:29.000Z</time>
      </trkpt>
      <trkpt lat="44.34372" lon="6.85011">
        <ele>2480.8000488281</ele>
        <time>2021-05-09T06:51:30.000Z</time>
      </trkpt>
      <trkpt lat="44.34374" lon="6.85008">
        <ele>2481.6000976562</ele>
        <time>2021-05-09T06:51:36.000Z</time>
      </trkpt>
      <trkpt lat="44.34375" lon="6.85006">
        <ele>2481.8000488281</ele>
        <time>2021-05-09T06:51:39.000Z</time>
      </trkpt>
      <trkpt lat="44.34379" lon="6.85003">
        <ele>2482.8000488281</ele>
        <time>2021-05-09T06:51:47.000Z</time>
      </trkpt>
      <trkpt lat="44.34381" lon="6.85002">
        <ele>2483.3999023438</ele>
        <time>2021-05-09T06:51:53.000Z</time>
      </trkpt>
      <trkpt lat="44.34382" lon="6.85002">
        <ele>2483.8000488281</ele>
        <time>2021-05-09T06:51:56.000Z</time>
      </trkpt>
      <trkpt lat="44.34384" lon="6.85">
        <ele>2485</ele>
        <time>2021-05-09T06:52:02.000Z</time>
      </trkpt>
      <trkpt lat="44.34387" lon="6.84999">
        <ele>2485.6000976562</ele>
        <time>2021-05-09T06:52:07.000Z</time>
      </trkpt>
      <trkpt lat="44.34387" lon="6.84998">
        <ele>2486</ele>
        <time>2021-05-09T06:52:11.000Z</time>
      </trkpt>
      <trkpt lat="44.34391" lon="6.84996">
        <ele>2486.6000976562</ele>
        <time>2021-05-09T06:52:21.000Z</time>
      </trkpt>
      <trkpt lat="44.34392" lon="6.84995">
        <ele>2487</ele>
        <time>2021-05-09T06:52:24.000Z</time>
      </trkpt>
      <trkpt lat="44.34393" lon="6.84995">
        <ele>2487</ele>
        <time>2021-05-09T06:52:25.000Z</time>
      </trkpt>
      <trkpt lat="44.34393" lon="6.84995">
        <ele>2487.1999511719</ele>
        <time>2021-05-09T06:52:26.000Z</time>
      </trkpt>
      <trkpt lat="44.34396" lon="6.84994">
        <ele>2488</ele>
        <time>2021-05-09T06:52:33.000Z</time>
      </trkpt>
      <trkpt lat="44.34398" lon="6.84994">
        <ele>2488</ele>
        <time>2021-05-09T06:52:37.000Z</time>
      </trkpt>
      <trkpt lat="44.34398" lon="6.84994">
        <ele>2488</ele>
        <time>2021-05-09T06:52:38.000Z</time>
      </trkpt>
      <trkpt lat="44.34399" lon="6.84994">
        <ele>2488.1999511719</ele>
        <time>2021-05-09T06:52:39.000Z</time>
      </trkpt>
      <trkpt lat="44.344" lon="6.84994">
        <ele>2488.1999511719</ele>
        <time>2021-05-09T06:52:40.000Z</time>
      </trkpt>
      <trkpt lat="44.344" lon="6.84995">
        <ele>2488.6000976562</ele>
        <time>2021-05-09T06:52:42.000Z</time>
      </trkpt>
      <trkpt lat="44.34402" lon="6.84997">
        <ele>2489.1999511719</ele>
        <time>2021-05-09T06:52:47.000Z</time>
      </trkpt>
      <trkpt lat="44.34407" lon="6.85001">
        <ele>2490.1999511719</ele>
        <time>2021-05-09T06:52:54.000Z</time>
      </trkpt>
      <trkpt lat="44.3441" lon="6.85002">
        <ele>2490.8000488281</ele>
        <time>2021-05-09T06:52:59.000Z</time>
      </trkpt>
      <trkpt lat="44.34415" lon="6.85004">
        <ele>2491.1999511719</ele>
        <time>2021-05-09T06:53:06.000Z</time>
      </trkpt>
      <trkpt lat="44.34417" lon="6.85005">
        <ele>2491.1999511719</ele>
        <time>2021-05-09T06:53:09.000Z</time>
      </trkpt>
      <trkpt lat="44.34419" lon="6.85005">
        <ele>2491.3999023438</ele>
        <time>2021-05-09T06:53:11.000Z</time>
      </trkpt>
      <trkpt lat="44.34426" lon="6.8501">
        <ele>2491.6000976562</ele>
        <time>2021-05-09T06:53:21.000Z</time>
      </trkpt>
      <trkpt lat="44.34435" lon="6.85011">
        <ele>2492.1999511719</ele>
        <time>2021-05-09T06:53:31.000Z</time>
      </trkpt>
      <trkpt lat="44.3444" lon="6.85013">
        <ele>2493.3999023438</ele>
        <time>2021-05-09T06:53:40.000Z</time>
      </trkpt>
      <trkpt lat="44.34446" lon="6.85017">
        <ele>2494.3999023438</ele>
        <time>2021-05-09T06:53:52.000Z</time>
      </trkpt>
      <trkpt lat="44.34452" lon="6.85018">
        <ele>2495.3999023438</ele>
        <time>2021-05-09T06:54:02.000Z</time>
      </trkpt>
      <trkpt lat="44.34457" lon="6.85019">
        <ele>2496.3999023438</ele>
        <time>2021-05-09T06:54:10.000Z</time>
      </trkpt>
      <trkpt lat="44.34464" lon="6.85019">
        <ele>2497.6000976562</ele>
        <time>2021-05-09T06:54:19.000Z</time>
      </trkpt>
      <trkpt lat="44.34467" lon="6.8502">
        <ele>2498.3999023438</ele>
        <time>2021-05-09T06:54:25.000Z</time>
      </trkpt>
      <trkpt lat="44.34469" lon="6.8502">
        <ele>2498.6000976562</ele>
        <time>2021-05-09T06:54:27.000Z</time>
      </trkpt>
      <trkpt lat="44.34474" lon="6.8502">
        <ele>2499.8000488281</ele>
        <time>2021-05-09T06:54:35.000Z</time>
      </trkpt>
      <trkpt lat="44.34476" lon="6.8502">
        <ele>2500</ele>
        <time>2021-05-09T06:54:37.000Z</time>
      </trkpt>
      <trkpt lat="44.3448" lon="6.85021">
        <ele>2500.8000488281</ele>
        <time>2021-05-09T06:54:45.000Z</time>
      </trkpt>
      <trkpt lat="44.34487" lon="6.85022">
        <ele>2501.8000488281</ele>
        <time>2021-05-09T06:54:55.000Z</time>
      </trkpt>
      <trkpt lat="44.34492" lon="6.85025">
        <ele>2502.8000488281</ele>
        <time>2021-05-09T06:55:04.000Z</time>
      </trkpt>
      <trkpt lat="44.34498" lon="6.85025">
        <ele>2504</ele>
        <time>2021-05-09T06:55:13.000Z</time>
      </trkpt>
      <trkpt lat="44.34503" lon="6.85026">
        <ele>2505</ele>
        <time>2021-05-09T06:55:22.000Z</time>
      </trkpt>
      <trkpt lat="44.34508" lon="6.85026">
        <ele>2506</ele>
        <time>2021-05-09T06:55:31.000Z</time>
      </trkpt>
      <trkpt lat="44.34512" lon="6.85026">
        <ele>2506.6000976562</ele>
        <time>2021-05-09T06:55:37.000Z</time>
      </trkpt>
      <trkpt lat="44.34514" lon="6.85026">
        <ele>2507.1999511719</ele>
        <time>2021-05-09T06:55:41.000Z</time>
      </trkpt>
      <trkpt lat="44.3452" lon="6.85025">
        <ele>2508.1999511719</ele>
        <time>2021-05-09T06:55:51.000Z</time>
      </trkpt>
      <trkpt lat="44.34524" lon="6.85023">
        <ele>2509.1999511719</ele>
        <time>2021-05-09T06:55:58.000Z</time>
      </trkpt>
      <trkpt lat="44.34529" lon="6.85019">
        <ele>2510.1999511719</ele>
        <time>2021-05-09T06:56:08.000Z</time>
      </trkpt>
      <trkpt lat="44.34532" lon="6.85019">
        <ele>2511.3999023438</ele>
        <time>2021-05-09T06:56:14.000Z</time>
      </trkpt>
      <trkpt lat="44.34536" lon="6.85018">
        <ele>2512.6000976562</ele>
        <time>2021-05-09T06:56:23.000Z</time>
      </trkpt>
      <trkpt lat="44.34538" lon="6.85017">
        <ele>2513.6000976562</ele>
        <time>2021-05-09T06:56:30.000Z</time>
      </trkpt>
      <trkpt lat="44.34542" lon="6.85017">
        <ele>2514.6000976562</ele>
        <time>2021-05-09T06:56:38.000Z</time>
      </trkpt>
      <trkpt lat="44.34546" lon="6.85013">
        <ele>2515.6000976562</ele>
        <time>2021-05-09T06:56:46.000Z</time>
      </trkpt>
      <trkpt lat="44.34549" lon="6.85003">
        <ele>2516.8000488281</ele>
        <time>2021-05-09T06:56:57.000Z</time>
      </trkpt>
      <trkpt lat="44.34551" lon="6.84999">
        <ele>2518</ele>
        <time>2021-05-09T06:57:03.000Z</time>
      </trkpt>
      <trkpt lat="44.34554" lon="6.84996">
        <ele>2519.1999511719</ele>
        <time>2021-05-09T06:57:10.000Z</time>
      </trkpt>
      <trkpt lat="44.34558" lon="6.84994">
        <ele>2520.1999511719</ele>
        <time>2021-05-09T06:57:17.000Z</time>
      </trkpt>
      <trkpt lat="44.34565" lon="6.84986">
        <ele>2521.1999511719</ele>
        <time>2021-05-09T06:57:31.000Z</time>
      </trkpt>
      <trkpt lat="44.34567" lon="6.84985">
        <ele>2521.6000976562</ele>
        <time>2021-05-09T06:57:35.000Z</time>
      </trkpt>
      <trkpt lat="44.34574" lon="6.84976">
        <ele>2522.3999023438</ele>
        <time>2021-05-09T06:57:48.000Z</time>
      </trkpt>
      <trkpt lat="44.34584" lon="6.84966">
        <ele>2523.3999023438</ele>
        <time>2021-05-09T06:58:04.000Z</time>
      </trkpt>
      <trkpt lat="44.34598" lon="6.84952">
        <ele>2523.8000488281</ele>
        <time>2021-05-09T06:58:21.000Z</time>
      </trkpt>
      <trkpt lat="44.34603" lon="6.84949">
        <ele>2523.6000976562</ele>
        <time>2021-05-09T06:58:28.000Z</time>
      </trkpt>
      <trkpt lat="44.34601" lon="6.84949">
        <ele>2523.8000488281</ele>
        <time>2021-05-09T06:58:42.000Z</time>
      </trkpt>
      <trkpt lat="44.34602" lon="6.84948">
        <ele>2523.8000488281</ele>
        <time>2021-05-09T06:58:46.000Z</time>
      </trkpt>
      <trkpt lat="44.34602" lon="6.84948">
        <ele>2523.6000976562</ele>
        <time>2021-05-09T06:58:51.000Z</time>
      </trkpt>
      <trkpt lat="44.34602" lon="6.84948">
        <ele>2523.3999023438</ele>
        <time>2021-05-09T06:58:53.000Z</time>
      </trkpt>
      <trkpt lat="44.34602" lon="6.84948">
        <ele>2523.6000976562</ele>
        <time>2021-05-09T06:58:55.000Z</time>
      </trkpt>
      <trkpt lat="44.34602" lon="6.84949">
        <ele>2523.6000976562</ele>
        <time>2021-05-09T06:58:57.000Z</time>
      </trkpt>
      <trkpt lat="44.34602" lon="6.84949">
        <ele>2523.6000976562</ele>
        <time>2021-05-09T06:58:58.000Z</time>
      </trkpt>
      <trkpt lat="44.34602" lon="6.84949">
        <ele>2523.6000976562</ele>
        <time>2021-05-09T06:59:05.000Z</time>
      </trkpt>
      <trkpt lat="44.34602" lon="6.84949">
        <ele>2523.6000976562</ele>
        <time>2021-05-09T06:59:19.000Z</time>
      </trkpt>
      <trkpt lat="44.34602" lon="6.84949">
        <ele>2523.6000976562</ele>
        <time>2021-05-09T06:59:21.000Z</time>
      </trkpt>
      <trkpt lat="44.34601" lon="6.84951">
        <ele>2523.6000976562</ele>
        <time>2021-05-09T06:59:31.000Z</time>
      </trkpt>
      <trkpt lat="44.34601" lon="6.84951">
        <ele>2523.6000976562</ele>
        <time>2021-05-09T06:59:35.000Z</time>
      </trkpt>
      <trkpt lat="44.34601" lon="6.84951">
        <ele>2523.6000976562</ele>
        <time>2021-05-09T06:59:37.000Z</time>
      </trkpt>
      <trkpt lat="44.34601" lon="6.84951">
        <ele>2523.6000976562</ele>
        <time>2021-05-09T06:59:45.000Z</time>
      </trkpt>
      <trkpt lat="44.34602" lon="6.84951">
        <ele>2523.3999023438</ele>
        <time>2021-05-09T06:59:48.000Z</time>
      </trkpt>
      <trkpt lat="44.34602" lon="6.84951">
        <ele>2523.3999023438</ele>
        <time>2021-05-09T06:59:50.000Z</time>
      </trkpt>
      <trkpt lat="44.34602" lon="6.84951">
        <ele>2523.6000976562</ele>
        <time>2021-05-09T06:59:53.000Z</time>
      </trkpt>
      <trkpt lat="44.34602" lon="6.84951">
        <ele>2523.6000976562</ele>
        <time>2021-05-09T06:59:56.000Z</time>
      </trkpt>
      <trkpt lat="44.34602" lon="6.84951">
        <ele>2523.6000976562</ele>
        <time>2021-05-09T07:00:01.000Z</time>
      </trkpt>
      <trkpt lat="44.34602" lon="6.84951">
        <ele>2523.6000976562</ele>
        <time>2021-05-09T07:00:05.000Z</time>
      </trkpt>
      <trkpt lat="44.34602" lon="6.84951">
        <ele>2523.6000976562</ele>
        <time>2021-05-09T07:00:07.000Z</time>
      </trkpt>
      <trkpt lat="44.34602" lon="6.84951">
        <ele>2523.6000976562</ele>
        <time>2021-05-09T07:00:10.000Z</time>
      </trkpt>
      <trkpt lat="44.34602" lon="6.8495">
        <ele>2523.6000976562</ele>
        <time>2021-05-09T07:00:12.000Z</time>
      </trkpt>
      <trkpt lat="44.34602" lon="6.84951">
        <ele>2523.6000976562</ele>
        <time>2021-05-09T07:00:16.000Z</time>
      </trkpt>
      <trkpt lat="44.34603" lon="6.84951">
        <ele>2523.8000488281</ele>
        <time>2021-05-09T07:00:18.000Z</time>
      </trkpt>
      <trkpt lat="44.34603" lon="6.8495">
        <ele>2523.8000488281</ele>
        <time>2021-05-09T07:00:22.000Z</time>
      </trkpt>
      <trkpt lat="44.34603" lon="6.8495">
        <ele>2523.8000488281</ele>
        <time>2021-05-09T07:00:23.000Z</time>
      </trkpt>
      <trkpt lat="44.34603" lon="6.8495">
        <ele>2523.8000488281</ele>
        <time>2021-05-09T07:00:25.000Z</time>
      </trkpt>
      <trkpt lat="44.34602" lon="6.84949">
        <ele>2523.8000488281</ele>
        <time>2021-05-09T07:00:32.000Z</time>
      </trkpt>
      <trkpt lat="44.34603" lon="6.84949">
        <ele>2523.8000488281</ele>
        <time>2021-05-09T07:00:34.000Z</time>
      </trkpt>
      <trkpt lat="44.34602" lon="6.8495">
        <ele>2524</ele>
        <time>2021-05-09T07:00:36.000Z</time>
      </trkpt>
      <trkpt lat="44.34602" lon="6.84949">
        <ele>2524.1999511719</ele>
        <time>2021-05-09T07:00:38.000Z</time>
      </trkpt>
      <trkpt lat="44.34602" lon="6.84949">
        <ele>2523.1999511719</ele>
        <time>2021-05-09T07:00:58.000Z</time>
      </trkpt>
      <trkpt lat="44.34602" lon="6.8495">
        <ele>2523.1999511719</ele>
        <time>2021-05-09T07:01:08.000Z</time>
      </trkpt>
      <trkpt lat="44.34602" lon="6.8495">
        <ele>2523.1999511719</ele>
        <time>2021-05-09T07:01:19.000Z</time>
      </trkpt>
      <trkpt lat="44.34602" lon="6.8495">
        <ele>2523.1999511719</ele>
        <time>2021-05-09T07:01:23.000Z</time>
      </trkpt>
      <trkpt lat="44.34601" lon="6.8495">
        <ele>2523.1999511719</ele>
        <time>2021-05-09T07:01:26.000Z</time>
      </trkpt>
      <trkpt lat="44.34601" lon="6.8495">
        <ele>2523.1999511719</ele>
        <time>2021-05-09T07:01:28.000Z</time>
      </trkpt>
      <trkpt lat="44.346" lon="6.84949">
        <ele>2523.1999511719</ele>
        <time>2021-05-09T07:01:36.000Z</time>
      </trkpt>
      <trkpt lat="44.346" lon="6.8495">
        <ele>2523.1999511719</ele>
        <time>2021-05-09T07:01:48.000Z</time>
      </trkpt>
      <trkpt lat="44.346" lon="6.8495">
        <ele>2523.1999511719</ele>
        <time>2021-05-09T07:01:50.000Z</time>
      </trkpt>
      <trkpt lat="44.34601" lon="6.84951">
        <ele>2523.1999511719</ele>
        <time>2021-05-09T07:01:52.000Z</time>
      </trkpt>
      <trkpt lat="44.34601" lon="6.84951">
        <ele>2523.1999511719</ele>
        <time>2021-05-09T07:01:53.000Z</time>
      </trkpt>
      <trkpt lat="44.34601" lon="6.84952">
        <ele>2523.1999511719</ele>
        <time>2021-05-09T07:01:55.000Z</time>
      </trkpt>
      <trkpt lat="44.34601" lon="6.84951">
        <ele>2523.1999511719</ele>
        <time>2021-05-09T07:01:57.000Z</time>
      </trkpt>
      <trkpt lat="44.34601" lon="6.84951">
        <ele>2523.1999511719</ele>
        <time>2021-05-09T07:02:00.000Z</time>
      </trkpt>
      <trkpt lat="44.34601" lon="6.84951">
        <ele>2523.1999511719</ele>
        <time>2021-05-09T07:02:02.000Z</time>
      </trkpt>
      <trkpt lat="44.34601" lon="6.84951">
        <ele>2523.1999511719</ele>
        <time>2021-05-09T07:02:05.000Z</time>
      </trkpt>
      <trkpt lat="44.34601" lon="6.84951">
        <ele>2523.1999511719</ele>
        <time>2021-05-09T07:02:18.000Z</time>
      </trkpt>
      <trkpt lat="44.34601" lon="6.84951">
        <ele>2523.1999511719</ele>
        <time>2021-05-09T07:02:22.000Z</time>
      </trkpt>
      <trkpt lat="44.34602" lon="6.84951">
        <ele>2523.1999511719</ele>
        <time>2021-05-09T07:02:27.000Z</time>
      </trkpt>
      <trkpt lat="44.34603" lon="6.84951">
        <ele>2523.1999511719</ele>
        <time>2021-05-09T07:02:34.000Z</time>
      </trkpt>
      <trkpt lat="44.34603" lon="6.8495">
        <ele>2523.1999511719</ele>
        <time>2021-05-09T07:02:37.000Z</time>
      </trkpt>
      <trkpt lat="44.34603" lon="6.8495">
        <ele>2523.1999511719</ele>
        <time>2021-05-09T07:02:43.000Z</time>
      </trkpt>
      <trkpt lat="44.34603" lon="6.8495">
        <ele>2523.1999511719</ele>
        <time>2021-05-09T07:02:45.000Z</time>
      </trkpt>
      <trkpt lat="44.34603" lon="6.8495">
        <ele>2523.1999511719</ele>
        <time>2021-05-09T07:02:50.000Z</time>
      </trkpt>
      <trkpt lat="44.34602" lon="6.8495">
        <ele>2523.1999511719</ele>
        <time>2021-05-09T07:03:04.000Z</time>
      </trkpt>
      <trkpt lat="44.34603" lon="6.8495">
        <ele>2523.1999511719</ele>
        <time>2021-05-09T07:03:06.000Z</time>
      </trkpt>
      <trkpt lat="44.34603" lon="6.8495">
        <ele>2523.1999511719</ele>
        <time>2021-05-09T07:03:09.000Z</time>
      </trkpt>
      <trkpt lat="44.34603" lon="6.84951">
        <ele>2523.1999511719</ele>
        <time>2021-05-09T07:03:14.000Z</time>
      </trkpt>
      <trkpt lat="44.34604" lon="6.84949">
        <ele>2523.1999511719</ele>
        <time>2021-05-09T07:03:39.000Z</time>
      </trkpt>
      <trkpt lat="44.34604" lon="6.84948">
        <ele>2523.1999511719</ele>
        <time>2021-05-09T07:03:44.000Z</time>
      </trkpt>
      <trkpt lat="44.34603" lon="6.84948">
        <ele>2523.1999511719</ele>
        <time>2021-05-09T07:03:49.000Z</time>
      </trkpt>
      <trkpt lat="44.34603" lon="6.84948">
        <ele>2523.1999511719</ele>
        <time>2021-05-09T07:03:50.000Z</time>
      </trkpt>
      <trkpt lat="44.34603" lon="6.84948">
        <ele>2523.1999511719</ele>
        <time>2021-05-09T07:03:51.000Z</time>
      </trkpt>
      <trkpt lat="44.34604" lon="6.84948">
        <ele>2523.1999511719</ele>
        <time>2021-05-09T07:03:54.000Z</time>
      </trkpt>
      <trkpt lat="44.34604" lon="6.84949">
        <ele>2523.1999511719</ele>
        <time>2021-05-09T07:03:58.000Z</time>
      </trkpt>
      <trkpt lat="44.34604" lon="6.8495">
        <ele>2523.1999511719</ele>
        <time>2021-05-09T07:04:17.000Z</time>
      </trkpt>
      <trkpt lat="44.34605" lon="6.84949">
        <ele>2523.1999511719</ele>
        <time>2021-05-09T07:04:20.000Z</time>
      </trkpt>
      <trkpt lat="44.34606" lon="6.84948">
        <ele>2523.1999511719</ele>
        <time>2021-05-09T07:04:22.000Z</time>
      </trkpt>
      <trkpt lat="44.34606" lon="6.84948">
        <ele>2523.1999511719</ele>
        <time>2021-05-09T07:04:24.000Z</time>
      </trkpt>
      <trkpt lat="44.34606" lon="6.84949">
        <ele>2523.1999511719</ele>
        <time>2021-05-09T07:04:25.000Z</time>
      </trkpt>
      <trkpt lat="44.34606" lon="6.84949">
        <ele>2523.1999511719</ele>
        <time>2021-05-09T07:04:28.000Z</time>
      </trkpt>
      <trkpt lat="44.34605" lon="6.8495">
        <ele>2523.1999511719</ele>
        <time>2021-05-09T07:04:36.000Z</time>
      </trkpt>
      <trkpt lat="44.34598" lon="6.84952">
        <ele>2523.1999511719</ele>
        <time>2021-05-09T07:04:40.000Z</time>
      </trkpt>
      <trkpt lat="44.34597" lon="6.84953">
        <ele>2523.1999511719</ele>
        <time>2021-05-09T07:04:44.000Z</time>
      </trkpt>
      <trkpt lat="44.34597" lon="6.84953">
        <ele>2523.1999511719</ele>
        <time>2021-05-09T07:04:46.000Z</time>
      </trkpt>
      <trkpt lat="44.34597" lon="6.84953">
        <ele>2523.1999511719</ele>
        <time>2021-05-09T07:04:49.000Z</time>
      </trkpt>
      <trkpt lat="44.34599" lon="6.84951">
        <ele>2523.1999511719</ele>
        <time>2021-05-09T07:04:54.000Z</time>
      </trkpt>
      <trkpt lat="44.346" lon="6.84951">
        <ele>2523.1999511719</ele>
        <time>2021-05-09T07:04:55.000Z</time>
      </trkpt>
      <trkpt lat="44.34601" lon="6.8495">
        <ele>2523.1999511719</ele>
        <time>2021-05-09T07:04:57.000Z</time>
      </trkpt>
      <trkpt lat="44.34602" lon="6.8495">
        <ele>2523.1999511719</ele>
        <time>2021-05-09T07:05:14.000Z</time>
      </trkpt>
      <trkpt lat="44.34602" lon="6.8495">
        <ele>2523.1999511719</ele>
        <time>2021-05-09T07:05:15.000Z</time>
      </trkpt>
      <trkpt lat="44.34602" lon="6.8495">
        <ele>2523.1999511719</ele>
        <time>2021-05-09T07:05:16.000Z</time>
      </trkpt>
      <trkpt lat="44.34602" lon="6.8495">
        <ele>2523.1999511719</ele>
        <time>2021-05-09T07:05:19.000Z</time>
      </trkpt>
      <trkpt lat="44.34601" lon="6.8495">
        <ele>2523.1999511719</ele>
        <time>2021-05-09T07:05:20.000Z</time>
      </trkpt>
      <trkpt lat="44.34602" lon="6.84949">
        <ele>2523.1999511719</ele>
        <time>2021-05-09T07:05:22.000Z</time>
      </trkpt>
      <trkpt lat="44.34601" lon="6.84949">
        <ele>2523.1999511719</ele>
        <time>2021-05-09T07:05:25.000Z</time>
      </trkpt>
      <trkpt lat="44.34602" lon="6.84948">
        <ele>2523.1999511719</ele>
        <time>2021-05-09T07:05:30.000Z</time>
      </trkpt>
      <trkpt lat="44.34603" lon="6.84948">
        <ele>2523.1999511719</ele>
        <time>2021-05-09T07:05:35.000Z</time>
      </trkpt>
      <trkpt lat="44.34603" lon="6.84949">
        <ele>2523.1999511719</ele>
        <time>2021-05-09T07:05:42.000Z</time>
      </trkpt>
      <trkpt lat="44.34604" lon="6.84948">
        <ele>2523.1999511719</ele>
        <time>2021-05-09T07:05:48.000Z</time>
      </trkpt>
      <trkpt lat="44.34604" lon="6.84948">
        <ele>2523.1999511719</ele>
        <time>2021-05-09T07:05:50.000Z</time>
      </trkpt>
      <trkpt lat="44.34605" lon="6.84948">
        <ele>2523.1999511719</ele>
        <time>2021-05-09T07:05:52.000Z</time>
      </trkpt>
      <trkpt lat="44.34607" lon="6.84948">
        <ele>2523.1999511719</ele>
        <time>2021-05-09T07:05:55.000Z</time>
      </trkpt>
      <trkpt lat="44.34606" lon="6.84948">
        <ele>2523.1999511719</ele>
        <time>2021-05-09T07:06:00.000Z</time>
      </trkpt>
      <trkpt lat="44.34606" lon="6.84948">
        <ele>2523.1999511719</ele>
        <time>2021-05-09T07:06:01.000Z</time>
      </trkpt>
      <trkpt lat="44.34606" lon="6.84948">
        <ele>2523.1999511719</ele>
        <time>2021-05-09T07:06:03.000Z</time>
      </trkpt>
      <trkpt lat="44.34607" lon="6.84949">
        <ele>2523.1999511719</ele>
        <time>2021-05-09T07:06:07.000Z</time>
      </trkpt>
      <trkpt lat="44.34607" lon="6.84949">
        <ele>2523.1999511719</ele>
        <time>2021-05-09T07:06:10.000Z</time>
      </trkpt>
      <trkpt lat="44.34607" lon="6.84947">
        <ele>2523.1999511719</ele>
        <time>2021-05-09T07:06:12.000Z</time>
      </trkpt>
      <trkpt lat="44.34609" lon="6.84946">
        <ele>2523.1999511719</ele>
        <time>2021-05-09T07:06:14.000Z</time>
      </trkpt>
      <trkpt lat="44.34609" lon="6.84947">
        <ele>2523.1999511719</ele>
        <time>2021-05-09T07:06:15.000Z</time>
      </trkpt>
      <trkpt lat="44.34607" lon="6.84948">
        <ele>2523.1999511719</ele>
        <time>2021-05-09T07:06:29.000Z</time>
      </trkpt>
      <trkpt lat="44.34607" lon="6.84948">
        <ele>2523.1999511719</ele>
        <time>2021-05-09T07:06:30.000Z</time>
      </trkpt>
      <trkpt lat="44.34607" lon="6.84947">
        <ele>2523.1999511719</ele>
        <time>2021-05-09T07:06:36.000Z</time>
      </trkpt>
      <trkpt lat="44.34607" lon="6.84947">
        <ele>2523.1999511719</ele>
        <time>2021-05-09T07:06:47.000Z</time>
      </trkpt>
      <trkpt lat="44.34607" lon="6.84947">
        <ele>2523.1999511719</ele>
        <time>2021-05-09T07:06:49.000Z</time>
      </trkpt>
      <trkpt lat="44.34607" lon="6.84946">
        <ele>2523.1999511719</ele>
        <time>2021-05-09T07:06:53.000Z</time>
      </trkpt>
      <trkpt lat="44.34607" lon="6.84947">
        <ele>2523.1999511719</ele>
        <time>2021-05-09T07:06:56.000Z</time>
      </trkpt>
      <trkpt lat="44.34607" lon="6.84947">
        <ele>2523.1999511719</ele>
        <time>2021-05-09T07:06:57.000Z</time>
      </trkpt>
      <trkpt lat="44.34607" lon="6.84947">
        <ele>2523.1999511719</ele>
        <time>2021-05-09T07:06:58.000Z</time>
      </trkpt>
      <trkpt lat="44.34608" lon="6.84947">
        <ele>2523.1999511719</ele>
        <time>2021-05-09T07:07:00.000Z</time>
      </trkpt>
      <trkpt lat="44.34608" lon="6.84948">
        <ele>2523.1999511719</ele>
        <time>2021-05-09T07:07:01.000Z</time>
      </trkpt>
      <trkpt lat="44.34608" lon="6.84948">
        <ele>2523.1999511719</ele>
        <time>2021-05-09T07:07:02.000Z</time>
      </trkpt>
      <trkpt lat="44.34607" lon="6.84948">
        <ele>2523.1999511719</ele>
        <time>2021-05-09T07:07:06.000Z</time>
      </trkpt>
      <trkpt lat="44.34611" lon="6.84949">
        <ele>2523.1999511719</ele>
        <time>2021-05-09T07:07:18.000Z</time>
      </trkpt>
      <trkpt lat="44.34611" lon="6.84949">
        <ele>2523.1999511719</ele>
        <time>2021-05-09T07:07:19.000Z</time>
      </trkpt>
      <trkpt lat="44.34612" lon="6.84948">
        <ele>2523.1999511719</ele>
        <time>2021-05-09T07:07:21.000Z</time>
      </trkpt>
      <trkpt lat="44.34612" lon="6.84948">
        <ele>2523.1999511719</ele>
        <time>2021-05-09T07:07:22.000Z</time>
      </trkpt>
      <trkpt lat="44.34612" lon="6.84948">
        <ele>2523.1999511719</ele>
        <time>2021-05-09T07:07:23.000Z</time>
      </trkpt>
      <trkpt lat="44.3461" lon="6.84948">
        <ele>2523.1999511719</ele>
        <time>2021-05-09T07:07:26.000Z</time>
      </trkpt>
      <trkpt lat="44.34609" lon="6.84948">
        <ele>2523.1999511719</ele>
        <time>2021-05-09T07:07:30.000Z</time>
      </trkpt>
      <trkpt lat="44.34609" lon="6.84948">
        <ele>2523.1999511719</ele>
        <time>2021-05-09T07:07:31.000Z</time>
      </trkpt>
      <trkpt lat="44.34608" lon="6.84948">
        <ele>2523.1999511719</ele>
        <time>2021-05-09T07:07:35.000Z</time>
      </trkpt>
      <trkpt lat="44.34608" lon="6.84948">
        <ele>2523.1999511719</ele>
        <time>2021-05-09T07:07:37.000Z</time>
      </trkpt>
      <trkpt lat="44.34608" lon="6.84948">
        <ele>2523.1999511719</ele>
        <time>2021-05-09T07:07:38.000Z</time>
      </trkpt>
      <trkpt lat="44.34607" lon="6.84948">
        <ele>2523.1999511719</ele>
        <time>2021-05-09T07:07:40.000Z</time>
      </trkpt>
      <trkpt lat="44.34606" lon="6.8495">
        <ele>2523.1999511719</ele>
        <time>2021-05-09T07:07:44.000Z</time>
      </trkpt>
      <trkpt lat="44.34605" lon="6.84953">
        <ele>2523.1999511719</ele>
        <time>2021-05-09T07:07:49.000Z</time>
      </trkpt>
      <trkpt lat="44.34606" lon="6.84953">
        <ele>2523.1999511719</ele>
        <time>2021-05-09T07:07:52.000Z</time>
      </trkpt>
      <trkpt lat="44.34605" lon="6.84953">
        <ele>2523.1999511719</ele>
        <time>2021-05-09T07:07:55.000Z</time>
      </trkpt>
      <trkpt lat="44.34605" lon="6.84953">
        <ele>2523.1999511719</ele>
        <time>2021-05-09T07:07:56.000Z</time>
      </trkpt>
      <trkpt lat="44.34605" lon="6.84953">
        <ele>2523.1999511719</ele>
        <time>2021-05-09T07:07:57.000Z</time>
      </trkpt>
      <trkpt lat="44.34608" lon="6.84945">
        <ele>2523.1999511719</ele>
        <time>2021-05-09T07:08:02.000Z</time>
      </trkpt>
      <trkpt lat="44.34609" lon="6.84945">
        <ele>2523.1999511719</ele>
        <time>2021-05-09T07:08:03.000Z</time>
      </trkpt>
      <trkpt lat="44.34609" lon="6.84945">
        <ele>2523.1999511719</ele>
        <time>2021-05-09T07:08:05.000Z</time>
      </trkpt>
      <trkpt lat="44.34608" lon="6.84946">
        <ele>2523.1999511719</ele>
        <time>2021-05-09T07:08:09.000Z</time>
      </trkpt>
      <trkpt lat="44.34605" lon="6.84948">
        <ele>2523.1999511719</ele>
        <time>2021-05-09T07:08:24.000Z</time>
      </trkpt>
      <trkpt lat="44.34605" lon="6.84947">
        <ele>2523.1999511719</ele>
        <time>2021-05-09T07:08:26.000Z</time>
      </trkpt>
      <trkpt lat="44.34605" lon="6.84947">
        <ele>2523.1999511719</ele>
        <time>2021-05-09T07:08:27.000Z</time>
      </trkpt>
      <trkpt lat="44.34605" lon="6.84948">
        <ele>2523.1999511719</ele>
        <time>2021-05-09T07:08:30.000Z</time>
      </trkpt>
      <trkpt lat="44.34605" lon="6.84948">
        <ele>2523.1999511719</ele>
        <time>2021-05-09T07:08:31.000Z</time>
      </trkpt>
      <trkpt lat="44.34606" lon="6.84948">
        <ele>2523.1999511719</ele>
        <time>2021-05-09T07:08:33.000Z</time>
      </trkpt>
      <trkpt lat="44.34606" lon="6.84949">
        <ele>2523.1999511719</ele>
        <time>2021-05-09T07:08:36.000Z</time>
      </trkpt>
      <trkpt lat="44.34606" lon="6.84949">
        <ele>2523.1999511719</ele>
        <time>2021-05-09T07:08:37.000Z</time>
      </trkpt>
      <trkpt lat="44.34606" lon="6.84949">
        <ele>2523.1999511719</ele>
        <time>2021-05-09T07:08:38.000Z</time>
      </trkpt>
      <trkpt lat="44.34606" lon="6.84949">
        <ele>2523.1999511719</ele>
        <time>2021-05-09T07:08:39.000Z</time>
      </trkpt>
      <trkpt lat="44.34607" lon="6.84949">
        <ele>2523.1999511719</ele>
        <time>2021-05-09T07:08:41.000Z</time>
      </trkpt>
      <trkpt lat="44.34608" lon="6.84948">
        <ele>2523.1999511719</ele>
        <time>2021-05-09T07:08:45.000Z</time>
      </trkpt>
      <trkpt lat="44.34608" lon="6.84949">
        <ele>2523.1999511719</ele>
        <time>2021-05-09T07:08:51.000Z</time>
      </trkpt>
      <trkpt lat="44.34608" lon="6.84949">
        <ele>2523.1999511719</ele>
        <time>2021-05-09T07:08:52.000Z</time>
      </trkpt>
      <trkpt lat="44.34608" lon="6.84949">
        <ele>2523.1999511719</ele>
        <time>2021-05-09T07:08:54.000Z</time>
      </trkpt>
      <trkpt lat="44.34608" lon="6.84949">
        <ele>2523.1999511719</ele>
        <time>2021-05-09T07:08:56.000Z</time>
      </trkpt>
      <trkpt lat="44.34609" lon="6.84949">
        <ele>2523.1999511719</ele>
        <time>2021-05-09T07:08:57.000Z</time>
      </trkpt>
      <trkpt lat="44.34614" lon="6.84948">
        <ele>2523.1999511719</ele>
        <time>2021-05-09T07:09:00.000Z</time>
      </trkpt>
      <trkpt lat="44.34617" lon="6.84947">
        <ele>2523.1999511719</ele>
        <time>2021-05-09T07:09:01.000Z</time>
      </trkpt>
      <trkpt lat="44.34619" lon="6.84945">
        <ele>2523.1999511719</ele>
        <time>2021-05-09T07:09:02.000Z</time>
      </trkpt>
      <trkpt lat="44.3462" lon="6.84941">
        <ele>2521.6000976562</ele>
        <time>2021-05-09T07:09:03.000Z</time>
      </trkpt>
      <trkpt lat="44.34621" lon="6.84937">
        <ele>2520.1999511719</ele>
        <time>2021-05-09T07:09:04.000Z</time>
      </trkpt>
      <trkpt lat="44.34627" lon="6.84935">
        <ele>2518.8000488281</ele>
        <time>2021-05-09T07:09:06.000Z</time>
      </trkpt>
      <trkpt lat="44.34632" lon="6.84934">
        <ele>2517.1999511719</ele>
        <time>2021-05-09T07:09:08.000Z</time>
      </trkpt>
      <trkpt lat="44.34635" lon="6.84919">
        <ele>2517.1999511719</ele>
        <time>2021-05-09T07:09:11.000Z</time>
      </trkpt>
      <trkpt lat="44.34638" lon="6.84915">
        <ele>2516.6000976562</ele>
        <time>2021-05-09T07:09:12.000Z</time>
      </trkpt>
      <trkpt lat="44.34642" lon="6.84915">
        <ele>2515.8000488281</ele>
        <time>2021-05-09T07:09:13.000Z</time>
      </trkpt>
      <trkpt lat="44.34646" lon="6.84916">
        <ele>2514.8000488281</ele>
        <time>2021-05-09T07:09:14.000Z</time>
      </trkpt>
      <trkpt lat="44.34649" lon="6.84914">
        <ele>2513.6000976562</ele>
        <time>2021-05-09T07:09:15.000Z</time>
      </trkpt>
      <trkpt lat="44.34654" lon="6.84904">
        <ele>2511.8000488281</ele>
        <time>2021-05-09T07:09:17.000Z</time>
      </trkpt>
      <trkpt lat="44.34657" lon="6.849">
        <ele>2510.8000488281</ele>
        <time>2021-05-09T07:09:18.000Z</time>
      </trkpt>
      <trkpt lat="44.34661" lon="6.84899">
        <ele>2509.8000488281</ele>
        <time>2021-05-09T07:09:19.000Z</time>
      </trkpt>
      <trkpt lat="44.34665" lon="6.84899">
        <ele>2508.3999023438</ele>
        <time>2021-05-09T07:09:20.000Z</time>
      </trkpt>
      <trkpt lat="44.34669" lon="6.84898">
        <ele>2507.1999511719</ele>
        <time>2021-05-09T07:09:21.000Z</time>
      </trkpt>
      <trkpt lat="44.34671" lon="6.84893">
        <ele>2506.1999511719</ele>
        <time>2021-05-09T07:09:22.000Z</time>
      </trkpt>
      <trkpt lat="44.34679" lon="6.84886">
        <ele>2504.1999511719</ele>
        <time>2021-05-09T07:09:24.000Z</time>
      </trkpt>
      <trkpt lat="44.34684" lon="6.84887">
        <ele>2503</ele>
        <time>2021-05-09T07:09:25.000Z</time>
      </trkpt>
      <trkpt lat="44.3469" lon="6.84888">
        <ele>2501.8000488281</ele>
        <time>2021-05-09T07:09:26.000Z</time>
      </trkpt>
      <trkpt lat="44.34694" lon="6.84886">
        <ele>2500.6000976562</ele>
        <time>2021-05-09T07:09:27.000Z</time>
      </trkpt>
      <trkpt lat="44.34699" lon="6.84883">
        <ele>2499.3999023438</ele>
        <time>2021-05-09T07:09:28.000Z</time>
      </trkpt>
      <trkpt lat="44.34704" lon="6.84878">
        <ele>2498</ele>
        <time>2021-05-09T07:09:29.000Z</time>
      </trkpt>
      <trkpt lat="44.34709" lon="6.84875">
        <ele>2496.8000488281</ele>
        <time>2021-05-09T07:09:30.000Z</time>
      </trkpt>
      <trkpt lat="44.34715" lon="6.84876">
        <ele>2495.8000488281</ele>
        <time>2021-05-09T07:09:31.000Z</time>
      </trkpt>
      <trkpt lat="44.34726" lon="6.8488">
        <ele>2493.8000488281</ele>
        <time>2021-05-09T07:09:33.000Z</time>
      </trkpt>
      <trkpt lat="44.34731" lon="6.8488">
        <ele>2492.3999023438</ele>
        <time>2021-05-09T07:09:34.000Z</time>
      </trkpt>
      <trkpt lat="44.34736" lon="6.84879">
        <ele>2491</ele>
        <time>2021-05-09T07:09:35.000Z</time>
      </trkpt>
      <trkpt lat="44.34742" lon="6.84879">
        <ele>2489.8000488281</ele>
        <time>2021-05-09T07:09:36.000Z</time>
      </trkpt>
      <trkpt lat="44.34752" lon="6.84878">
        <ele>2487.8000488281</ele>
        <time>2021-05-09T07:09:38.000Z</time>
      </trkpt>
      <trkpt lat="44.3476" lon="6.84871">
        <ele>2486.1999511719</ele>
        <time>2021-05-09T07:09:40.000Z</time>
      </trkpt>
      <trkpt lat="44.34765" lon="6.8487">
        <ele>2485</ele>
        <time>2021-05-09T07:09:42.000Z</time>
      </trkpt>
      <trkpt lat="44.34765" lon="6.8487">
        <ele>2484</ele>
        <time>2021-05-09T07:09:45.000Z</time>
      </trkpt>
      <trkpt lat="44.34764" lon="6.84872">
        <ele>2483.8000488281</ele>
        <time>2021-05-09T07:09:49.000Z</time>
      </trkpt>
      <trkpt lat="44.34763" lon="6.84872">
        <ele>2483.6000976562</ele>
        <time>2021-05-09T07:09:59.000Z</time>
      </trkpt>
      <trkpt lat="44.34764" lon="6.84871">
        <ele>2483.6000976562</ele>
        <time>2021-05-09T07:10:04.000Z</time>
      </trkpt>
      <trkpt lat="44.34763" lon="6.84871">
        <ele>2483.6000976562</ele>
        <time>2021-05-09T07:10:06.000Z</time>
      </trkpt>
      <trkpt lat="44.34764" lon="6.84872">
        <ele>2483.6000976562</ele>
        <time>2021-05-09T07:10:10.000Z</time>
      </trkpt>
      <trkpt lat="44.34763" lon="6.84872">
        <ele>2483.3999023438</ele>
        <time>2021-05-09T07:10:13.000Z</time>
      </trkpt>
      <trkpt lat="44.34763" lon="6.84872">
        <ele>2483.6000976562</ele>
        <time>2021-05-09T07:10:16.000Z</time>
      </trkpt>
      <trkpt lat="44.34763" lon="6.84872">
        <ele>2483.6000976562</ele>
        <time>2021-05-09T07:10:18.000Z</time>
      </trkpt>
      <trkpt lat="44.34763" lon="6.84872">
        <ele>2483.6000976562</ele>
        <time>2021-05-09T07:10:19.000Z</time>
      </trkpt>
      <trkpt lat="44.34764" lon="6.84873">
        <ele>2483.8000488281</ele>
        <time>2021-05-09T07:10:22.000Z</time>
      </trkpt>
      <trkpt lat="44.34764" lon="6.84873">
        <ele>2483.8000488281</ele>
        <time>2021-05-09T07:10:24.000Z</time>
      </trkpt>
      <trkpt lat="44.34764" lon="6.84873">
        <ele>2483.8000488281</ele>
        <time>2021-05-09T07:10:25.000Z</time>
      </trkpt>
      <trkpt lat="44.34764" lon="6.84873">
        <ele>2483.8000488281</ele>
        <time>2021-05-09T07:10:26.000Z</time>
      </trkpt>
      <trkpt lat="44.34764" lon="6.84873">
        <ele>2483.8000488281</ele>
        <time>2021-05-09T07:10:27.000Z</time>
      </trkpt>
      <trkpt lat="44.34767" lon="6.84876">
        <ele>2483.6000976562</ele>
        <time>2021-05-09T07:10:32.000Z</time>
      </trkpt>
      <trkpt lat="44.34768" lon="6.84876">
        <ele>2483.6000976562</ele>
        <time>2021-05-09T07:10:33.000Z</time>
      </trkpt>
      <trkpt lat="44.3477" lon="6.84877">
        <ele>2483.3999023438</ele>
        <time>2021-05-09T07:10:34.000Z</time>
      </trkpt>
      <trkpt lat="44.34776" lon="6.84869">
        <ele>2482.8000488281</ele>
        <time>2021-05-09T07:10:37.000Z</time>
      </trkpt>
      <trkpt lat="44.34779" lon="6.84867">
        <ele>2482.1999511719</ele>
        <time>2021-05-09T07:10:38.000Z</time>
      </trkpt>
      <trkpt lat="44.34786" lon="6.84871">
        <ele>2481.1999511719</ele>
        <time>2021-05-09T07:10:40.000Z</time>
      </trkpt>
      <trkpt lat="44.34789" lon="6.84874">
        <ele>2480.6000976562</ele>
        <time>2021-05-09T07:10:41.000Z</time>
      </trkpt>
      <trkpt lat="44.34793" lon="6.84877">
        <ele>2480</ele>
        <time>2021-05-09T07:10:42.000Z</time>
      </trkpt>
      <trkpt lat="44.34796" lon="6.84878">
        <ele>2479.3999023438</ele>
        <time>2021-05-09T07:10:43.000Z</time>
      </trkpt>
      <trkpt lat="44.34799" lon="6.84875">
        <ele>2478.3999023438</ele>
        <time>2021-05-09T07:10:44.000Z</time>
      </trkpt>
      <trkpt lat="44.34802" lon="6.8487">
        <ele>2477.1999511719</ele>
        <time>2021-05-09T07:10:45.000Z</time>
      </trkpt>
      <trkpt lat="44.34805" lon="6.84862">
        <ele>2476</ele>
        <time>2021-05-09T07:10:46.000Z</time>
      </trkpt>
      <trkpt lat="44.34809" lon="6.84858">
        <ele>2474.6000976562</ele>
        <time>2021-05-09T07:10:47.000Z</time>
      </trkpt>
      <trkpt lat="44.34813" lon="6.84856">
        <ele>2473.3999023438</ele>
        <time>2021-05-09T07:10:48.000Z</time>
      </trkpt>
      <trkpt lat="44.34816" lon="6.84854">
        <ele>2472.1999511719</ele>
        <time>2021-05-09T07:10:49.000Z</time>
      </trkpt>
      <trkpt lat="44.34819" lon="6.84851">
        <ele>2471.1999511719</ele>
        <time>2021-05-09T07:10:50.000Z</time>
      </trkpt>
      <trkpt lat="44.34821" lon="6.84847">
        <ele>2470.3999023438</ele>
        <time>2021-05-09T07:10:51.000Z</time>
      </trkpt>
      <trkpt lat="44.34827" lon="6.84839">
        <ele>2469.1999511719</ele>
        <time>2021-05-09T07:10:53.000Z</time>
      </trkpt>
      <trkpt lat="44.34836" lon="6.84837">
        <ele>2468.1999511719</ele>
        <time>2021-05-09T07:10:55.000Z</time>
      </trkpt>
      <trkpt lat="44.3484" lon="6.84833">
        <ele>2467.3999023438</ele>
        <time>2021-05-09T07:10:56.000Z</time>
      </trkpt>
      <trkpt lat="44.34843" lon="6.84826">
        <ele>2466.6000976562</ele>
        <time>2021-05-09T07:10:57.000Z</time>
      </trkpt>
      <trkpt lat="44.34847" lon="6.8482">
        <ele>2465.8000488281</ele>
        <time>2021-05-09T07:10:58.000Z</time>
      </trkpt>
      <trkpt lat="44.34851" lon="6.84815">
        <ele>2465</ele>
        <time>2021-05-09T07:10:59.000Z</time>
      </trkpt>
      <trkpt lat="44.34855" lon="6.84812">
        <ele>2464.3999023438</ele>
        <time>2021-05-09T07:11:00.000Z</time>
      </trkpt>
      <trkpt lat="44.34864" lon="6.84808">
        <ele>2463.8000488281</ele>
        <time>2021-05-09T07:11:02.000Z</time>
      </trkpt>
      <trkpt lat="44.34878" lon="6.84795">
        <ele>2462.8000488281</ele>
        <time>2021-05-09T07:11:05.000Z</time>
      </trkpt>
      <trkpt lat="44.34883" lon="6.84788">
        <ele>2462.1999511719</ele>
        <time>2021-05-09T07:11:06.000Z</time>
      </trkpt>
      <trkpt lat="44.34887" lon="6.84781">
        <ele>2461.6000976562</ele>
        <time>2021-05-09T07:11:07.000Z</time>
      </trkpt>
      <trkpt lat="44.34892" lon="6.84778">
        <ele>2460.8000488281</ele>
        <time>2021-05-09T07:11:08.000Z</time>
      </trkpt>
      <trkpt lat="44.34896" lon="6.84779">
        <ele>2459.8000488281</ele>
        <time>2021-05-09T07:11:09.000Z</time>
      </trkpt>
      <trkpt lat="44.34899" lon="6.84781">
        <ele>2458.8000488281</ele>
        <time>2021-05-09T07:11:10.000Z</time>
      </trkpt>
      <trkpt lat="44.34905" lon="6.84782">
        <ele>2457.3999023438</ele>
        <time>2021-05-09T07:11:12.000Z</time>
      </trkpt>
      <trkpt lat="44.34908" lon="6.8478">
        <ele>2456.3999023438</ele>
        <time>2021-05-09T07:11:14.000Z</time>
      </trkpt>
      <trkpt lat="44.34907" lon="6.8478">
        <ele>2456</ele>
        <time>2021-05-09T07:11:15.000Z</time>
      </trkpt>
      <trkpt lat="44.34907" lon="6.84779">
        <ele>2455.3999023438</ele>
        <time>2021-05-09T07:11:16.000Z</time>
      </trkpt>
      <trkpt lat="44.34906" lon="6.84777">
        <ele>2455</ele>
        <time>2021-05-09T07:11:37.000Z</time>
      </trkpt>
      <trkpt lat="44.34906" lon="6.84776">
        <ele>2455</ele>
        <time>2021-05-09T07:11:39.000Z</time>
      </trkpt>
      <trkpt lat="44.34906" lon="6.84776">
        <ele>2455</ele>
        <time>2021-05-09T07:11:41.000Z</time>
      </trkpt>
      <trkpt lat="44.34906" lon="6.84777">
        <ele>2455</ele>
        <time>2021-05-09T07:11:48.000Z</time>
      </trkpt>
      <trkpt lat="44.34906" lon="6.84777">
        <ele>2454.6000976562</ele>
        <time>2021-05-09T07:12:02.000Z</time>
      </trkpt>
      <trkpt lat="44.34906" lon="6.84777">
        <ele>2454.6000976562</ele>
        <time>2021-05-09T07:12:03.000Z</time>
      </trkpt>
      <trkpt lat="44.34907" lon="6.84778">
        <ele>2454.8000488281</ele>
        <time>2021-05-09T07:12:16.000Z</time>
      </trkpt>
      <trkpt lat="44.34907" lon="6.84777">
        <ele>2454.8000488281</ele>
        <time>2021-05-09T07:12:18.000Z</time>
      </trkpt>
      <trkpt lat="44.34907" lon="6.84777">
        <ele>2454.8000488281</ele>
        <time>2021-05-09T07:12:19.000Z</time>
      </trkpt>
      <trkpt lat="44.34909" lon="6.84777">
        <ele>2454.8000488281</ele>
        <time>2021-05-09T07:12:20.000Z</time>
      </trkpt>
      <trkpt lat="44.34912" lon="6.84778">
        <ele>2454.3999023438</ele>
        <time>2021-05-09T07:12:22.000Z</time>
      </trkpt>
      <trkpt lat="44.34915" lon="6.84778">
        <ele>2454.1999511719</ele>
        <time>2021-05-09T07:12:23.000Z</time>
      </trkpt>
      <trkpt lat="44.34923" lon="6.84776">
        <ele>2453.1999511719</ele>
        <time>2021-05-09T07:12:26.000Z</time>
      </trkpt>
      <trkpt lat="44.34928" lon="6.84773">
        <ele>2452</ele>
        <time>2021-05-09T07:12:28.000Z</time>
      </trkpt>
      <trkpt lat="44.34934" lon="6.8477">
        <ele>2451</ele>
        <time>2021-05-09T07:12:30.000Z</time>
      </trkpt>
      <trkpt lat="44.34939" lon="6.84766">
        <ele>2449.8000488281</ele>
        <time>2021-05-09T07:12:32.000Z</time>
      </trkpt>
      <trkpt lat="44.34945" lon="6.84762">
        <ele>2448.8000488281</ele>
        <time>2021-05-09T07:12:34.000Z</time>
      </trkpt>
      <trkpt lat="44.34948" lon="6.84762">
        <ele>2448.3999023438</ele>
        <time>2021-05-09T07:12:35.000Z</time>
      </trkpt>
      <trkpt lat="44.34953" lon="6.84767">
        <ele>2447.3999023438</ele>
        <time>2021-05-09T07:12:37.000Z</time>
      </trkpt>
      <trkpt lat="44.34958" lon="6.84771">
        <ele>2445.6000976562</ele>
        <time>2021-05-09T07:12:39.000Z</time>
      </trkpt>
      <trkpt lat="44.34961" lon="6.84769">
        <ele>2444.1999511719</ele>
        <time>2021-05-09T07:12:40.000Z</time>
      </trkpt>
      <trkpt lat="44.34965" lon="6.84766">
        <ele>2443</ele>
        <time>2021-05-09T07:12:41.000Z</time>
      </trkpt>
      <trkpt lat="44.34969" lon="6.84764">
        <ele>2441.8000488281</ele>
        <time>2021-05-09T07:12:42.000Z</time>
      </trkpt>
      <trkpt lat="44.34972" lon="6.84766">
        <ele>2440.6000976562</ele>
        <time>2021-05-09T07:12:43.000Z</time>
      </trkpt>
      <trkpt lat="44.34975" lon="6.84768">
        <ele>2439.3999023438</ele>
        <time>2021-05-09T07:12:44.000Z</time>
      </trkpt>
      <trkpt lat="44.34979" lon="6.8477">
        <ele>2438.1999511719</ele>
        <time>2021-05-09T07:12:45.000Z</time>
      </trkpt>
      <trkpt lat="44.34983" lon="6.84768">
        <ele>2437</ele>
        <time>2021-05-09T07:12:46.000Z</time>
      </trkpt>
      <trkpt lat="44.34987" lon="6.84765">
        <ele>2436</ele>
        <time>2021-05-09T07:12:47.000Z</time>
      </trkpt>
      <trkpt lat="44.3499" lon="6.84763">
        <ele>2434.8000488281</ele>
        <time>2021-05-09T07:12:48.000Z</time>
      </trkpt>
      <trkpt lat="44.34994" lon="6.8476">
        <ele>2433.3999023438</ele>
        <time>2021-05-09T07:12:49.000Z</time>
      </trkpt>
      <trkpt lat="44.34996" lon="6.84757">
        <ele>2432.1999511719</ele>
        <time>2021-05-09T07:12:50.000Z</time>
      </trkpt>
      <trkpt lat="44.34999" lon="6.84753">
        <ele>2431</ele>
        <time>2021-05-09T07:12:51.000Z</time>
      </trkpt>
      <trkpt lat="44.35002" lon="6.8475">
        <ele>2430</ele>
        <time>2021-05-09T07:12:52.000Z</time>
      </trkpt>
      <trkpt lat="44.35005" lon="6.84749">
        <ele>2429</ele>
        <time>2021-05-09T07:12:53.000Z</time>
      </trkpt>
      <trkpt lat="44.35007" lon="6.84752">
        <ele>2428</ele>
        <time>2021-05-09T07:12:54.000Z</time>
      </trkpt>
      <trkpt lat="44.35009" lon="6.84755">
        <ele>2426.8000488281</ele>
        <time>2021-05-09T07:12:55.000Z</time>
      </trkpt>
      <trkpt lat="44.3501" lon="6.84759">
        <ele>2425.3999023438</ele>
        <time>2021-05-09T07:12:56.000Z</time>
      </trkpt>
      <trkpt lat="44.35011" lon="6.84762">
        <ele>2424</ele>
        <time>2021-05-09T07:12:57.000Z</time>
      </trkpt>
      <trkpt lat="44.35013" lon="6.8477">
        <ele>2422.1999511719</ele>
        <time>2021-05-09T07:12:59.000Z</time>
      </trkpt>
      <trkpt lat="44.35012" lon="6.84774">
        <ele>2420.6000976562</ele>
        <time>2021-05-09T07:13:01.000Z</time>
      </trkpt>
      <trkpt lat="44.35012" lon="6.84774">
        <ele>2419.8000488281</ele>
        <time>2021-05-09T07:13:02.000Z</time>
      </trkpt>
      <trkpt lat="44.35012" lon="6.84775">
        <ele>2419.6000976562</ele>
        <time>2021-05-09T07:13:03.000Z</time>
      </trkpt>
      <trkpt lat="44.35012" lon="6.84774">
        <ele>2419.1999511719</ele>
        <time>2021-05-09T07:13:08.000Z</time>
      </trkpt>
      <trkpt lat="44.35012" lon="6.84776">
        <ele>2419.1999511719</ele>
        <time>2021-05-09T07:13:17.000Z</time>
      </trkpt>
      <trkpt lat="44.35011" lon="6.84776">
        <ele>2419.1999511719</ele>
        <time>2021-05-09T07:13:21.000Z</time>
      </trkpt>
      <trkpt lat="44.35011" lon="6.84776">
        <ele>2419.1999511719</ele>
        <time>2021-05-09T07:13:23.000Z</time>
      </trkpt>
      <trkpt lat="44.35011" lon="6.84777">
        <ele>2419.1999511719</ele>
        <time>2021-05-09T07:13:31.000Z</time>
      </trkpt>
      <trkpt lat="44.35011" lon="6.84777">
        <ele>2419.1999511719</ele>
        <time>2021-05-09T07:13:33.000Z</time>
      </trkpt>
      <trkpt lat="44.35012" lon="6.84778">
        <ele>2419.1999511719</ele>
        <time>2021-05-09T07:13:38.000Z</time>
      </trkpt>
      <trkpt lat="44.35013" lon="6.84779">
        <ele>2419.1999511719</ele>
        <time>2021-05-09T07:13:39.000Z</time>
      </trkpt>
      <trkpt lat="44.35018" lon="6.84777">
        <ele>2418.6000976562</ele>
        <time>2021-05-09T07:13:41.000Z</time>
      </trkpt>
      <trkpt lat="44.35021" lon="6.84773">
        <ele>2418</ele>
        <time>2021-05-09T07:13:42.000Z</time>
      </trkpt>
      <trkpt lat="44.35031" lon="6.84765">
        <ele>2416.1999511719</ele>
        <time>2021-05-09T07:13:44.000Z</time>
      </trkpt>
      <trkpt lat="44.35036" lon="6.84766">
        <ele>2414.8000488281</ele>
        <time>2021-05-09T07:13:45.000Z</time>
      </trkpt>
      <trkpt lat="44.35039" lon="6.8477">
        <ele>2413.3999023438</ele>
        <time>2021-05-09T07:13:46.000Z</time>
      </trkpt>
      <trkpt lat="44.35043" lon="6.84774">
        <ele>2411.6000976562</ele>
        <time>2021-05-09T07:13:47.000Z</time>
      </trkpt>
      <trkpt lat="44.35048" lon="6.84777">
        <ele>2410.1999511719</ele>
        <time>2021-05-09T07:13:48.000Z</time>
      </trkpt>
      <trkpt lat="44.35052" lon="6.84775">
        <ele>2409</ele>
        <time>2021-05-09T07:13:49.000Z</time>
      </trkpt>
      <trkpt lat="44.35056" lon="6.8477">
        <ele>2407.8000488281</ele>
        <time>2021-05-09T07:13:50.000Z</time>
      </trkpt>
      <trkpt lat="44.35061" lon="6.84767">
        <ele>2406.6000976562</ele>
        <time>2021-05-09T07:13:51.000Z</time>
      </trkpt>
      <trkpt lat="44.35066" lon="6.84768">
        <ele>2405.1999511719</ele>
        <time>2021-05-09T07:13:52.000Z</time>
      </trkpt>
      <trkpt lat="44.3507" lon="6.8477">
        <ele>2404</ele>
        <time>2021-05-09T07:13:53.000Z</time>
      </trkpt>
      <trkpt lat="44.35074" lon="6.84769">
        <ele>2402.6000976562</ele>
        <time>2021-05-09T07:13:54.000Z</time>
      </trkpt>
      <trkpt lat="44.35079" lon="6.84766">
        <ele>2401.3999023438</ele>
        <time>2021-05-09T07:13:55.000Z</time>
      </trkpt>
      <trkpt lat="44.35085" lon="6.84762">
        <ele>2400.1999511719</ele>
        <time>2021-05-09T07:13:56.000Z</time>
      </trkpt>
      <trkpt lat="44.35091" lon="6.84761">
        <ele>2399.1999511719</ele>
        <time>2021-05-09T07:13:57.000Z</time>
      </trkpt>
      <trkpt lat="44.35094" lon="6.84766">
        <ele>2397.3999023438</ele>
        <time>2021-05-09T07:13:59.000Z</time>
      </trkpt>
      <trkpt lat="44.35093" lon="6.84769">
        <ele>2396.3999023438</ele>
        <time>2021-05-09T07:14:00.000Z</time>
      </trkpt>
      <trkpt lat="44.35095" lon="6.84773">
        <ele>2395.3999023438</ele>
        <time>2021-05-09T07:14:01.000Z</time>
      </trkpt>
      <trkpt lat="44.35097" lon="6.84776">
        <ele>2394.8000488281</ele>
        <time>2021-05-09T07:14:02.000Z</time>
      </trkpt>
      <trkpt lat="44.35098" lon="6.8478">
        <ele>2394</ele>
        <time>2021-05-09T07:14:03.000Z</time>
      </trkpt>
      <trkpt lat="44.35098" lon="6.84783">
        <ele>2393.1999511719</ele>
        <time>2021-05-09T07:14:04.000Z</time>
      </trkpt>
      <trkpt lat="44.35097" lon="6.84784">
        <ele>2391.8000488281</ele>
        <time>2021-05-09T07:14:06.000Z</time>
      </trkpt>
      <trkpt lat="44.35097" lon="6.84784">
        <ele>2391.1999511719</ele>
        <time>2021-05-09T07:14:15.000Z</time>
      </trkpt>
      <trkpt lat="44.351" lon="6.84783">
        <ele>2391.1999511719</ele>
        <time>2021-05-09T07:14:21.000Z</time>
      </trkpt>
      <trkpt lat="44.351" lon="6.84782">
        <ele>2391</ele>
        <time>2021-05-09T07:14:27.000Z</time>
      </trkpt>
      <trkpt lat="44.351" lon="6.84782">
        <ele>2391</ele>
        <time>2021-05-09T07:14:30.000Z</time>
      </trkpt>
      <trkpt lat="44.351" lon="6.84782">
        <ele>2391</ele>
        <time>2021-05-09T07:14:32.000Z</time>
      </trkpt>
      <trkpt lat="44.35098" lon="6.8478">
        <ele>2391</ele>
        <time>2021-05-09T07:14:39.000Z</time>
      </trkpt>
      <trkpt lat="44.35097" lon="6.84779">
        <ele>2391</ele>
        <time>2021-05-09T07:14:41.000Z</time>
      </trkpt>
      <trkpt lat="44.35097" lon="6.84779">
        <ele>2391</ele>
        <time>2021-05-09T07:14:42.000Z</time>
      </trkpt>
      <trkpt lat="44.35096" lon="6.84778">
        <ele>2391</ele>
        <time>2021-05-09T07:14:43.000Z</time>
      </trkpt>
      <trkpt lat="44.35096" lon="6.84777">
        <ele>2391</ele>
        <time>2021-05-09T07:14:45.000Z</time>
      </trkpt>
      <trkpt lat="44.35095" lon="6.84777">
        <ele>2391</ele>
        <time>2021-05-09T07:14:47.000Z</time>
      </trkpt>
      <trkpt lat="44.35095" lon="6.84777">
        <ele>2391</ele>
        <time>2021-05-09T07:14:50.000Z</time>
      </trkpt>
      <trkpt lat="44.35095" lon="6.84777">
        <ele>2391</ele>
        <time>2021-05-09T07:14:51.000Z</time>
      </trkpt>
      <trkpt lat="44.35095" lon="6.84777">
        <ele>2391</ele>
        <time>2021-05-09T07:14:52.000Z</time>
      </trkpt>
      <trkpt lat="44.35095" lon="6.84777">
        <ele>2391</ele>
        <time>2021-05-09T07:14:53.000Z</time>
      </trkpt>
      <trkpt lat="44.35095" lon="6.84777">
        <ele>2391</ele>
        <time>2021-05-09T07:14:55.000Z</time>
      </trkpt>
      <trkpt lat="44.35095" lon="6.84778">
        <ele>2391</ele>
        <time>2021-05-09T07:14:57.000Z</time>
      </trkpt>
      <trkpt lat="44.35095" lon="6.84777">
        <ele>2391</ele>
        <time>2021-05-09T07:14:58.000Z</time>
      </trkpt>
      <trkpt lat="44.35096" lon="6.84777">
        <ele>2391</ele>
        <time>2021-05-09T07:15:00.000Z</time>
      </trkpt>
      <trkpt lat="44.35096" lon="6.84777">
        <ele>2391</ele>
        <time>2021-05-09T07:15:02.000Z</time>
      </trkpt>
      <trkpt lat="44.35096" lon="6.84777">
        <ele>2391</ele>
        <time>2021-05-09T07:15:04.000Z</time>
      </trkpt>
      <trkpt lat="44.35095" lon="6.84779">
        <ele>2391</ele>
        <time>2021-05-09T07:15:08.000Z</time>
      </trkpt>
      <trkpt lat="44.35094" lon="6.84781">
        <ele>2391</ele>
        <time>2021-05-09T07:15:10.000Z</time>
      </trkpt>
      <trkpt lat="44.35093" lon="6.84784">
        <ele>2391</ele>
        <time>2021-05-09T07:15:13.000Z</time>
      </trkpt>
      <trkpt lat="44.35093" lon="6.84785">
        <ele>2391.1999511719</ele>
        <time>2021-05-09T07:15:16.000Z</time>
      </trkpt>
      <trkpt lat="44.35093" lon="6.84788">
        <ele>2391.1999511719</ele>
        <time>2021-05-09T07:15:24.000Z</time>
      </trkpt>
      <trkpt lat="44.35092" lon="6.8479">
        <ele>2391.1999511719</ele>
        <time>2021-05-09T07:15:26.000Z</time>
      </trkpt>
      <trkpt lat="44.35091" lon="6.8479">
        <ele>2391.1999511719</ele>
        <time>2021-05-09T07:15:27.000Z</time>
      </trkpt>
      <trkpt lat="44.3509" lon="6.8479">
        <ele>2391.1999511719</ele>
        <time>2021-05-09T07:15:29.000Z</time>
      </trkpt>
      <trkpt lat="44.35088" lon="6.84792">
        <ele>2391.1999511719</ele>
        <time>2021-05-09T07:15:32.000Z</time>
      </trkpt>
      <trkpt lat="44.35086" lon="6.84793">
        <ele>2391.1999511719</ele>
        <time>2021-05-09T07:15:34.000Z</time>
      </trkpt>
      <trkpt lat="44.35081" lon="6.84798">
        <ele>2391.3999023438</ele>
        <time>2021-05-09T07:15:39.000Z</time>
      </trkpt>
      <trkpt lat="44.35078" lon="6.848">
        <ele>2390.8000488281</ele>
        <time>2021-05-09T07:15:42.000Z</time>
      </trkpt>
      <trkpt lat="44.35065" lon="6.84816">
        <ele>2389.8000488281</ele>
        <time>2021-05-09T07:15:54.000Z</time>
      </trkpt>
      <trkpt lat="44.35053" lon="6.84824">
        <ele>2388.8000488281</ele>
        <time>2021-05-09T07:16:02.000Z</time>
      </trkpt>
      <trkpt lat="44.35047" lon="6.84829">
        <ele>2387.3999023438</ele>
        <time>2021-05-09T07:16:05.000Z</time>
      </trkpt>
      <trkpt lat="44.35045" lon="6.84833">
        <ele>2386.3999023438</ele>
        <time>2021-05-09T07:16:08.000Z</time>
      </trkpt>
      <trkpt lat="44.35044" lon="6.84833">
        <ele>2386.1999511719</ele>
        <time>2021-05-09T07:16:09.000Z</time>
      </trkpt>
      <trkpt lat="44.35039" lon="6.8484">
        <ele>2385.1999511719</ele>
        <time>2021-05-09T07:16:14.000Z</time>
      </trkpt>
      <trkpt lat="44.35046" lon="6.84845">
        <ele>2385</ele>
        <time>2021-05-09T07:16:31.000Z</time>
      </trkpt>
      <trkpt lat="44.35046" lon="6.84845">
        <ele>2385</ele>
        <time>2021-05-09T07:16:32.000Z</time>
      </trkpt>
      <trkpt lat="44.35042" lon="6.84843">
        <ele>2385</ele>
        <time>2021-05-09T07:16:35.000Z</time>
      </trkpt>
      <trkpt lat="44.35046" lon="6.84844">
        <ele>2385</ele>
        <time>2021-05-09T07:16:38.000Z</time>
      </trkpt>
      <trkpt lat="44.35048" lon="6.84845">
        <ele>2385</ele>
        <time>2021-05-09T07:16:39.000Z</time>
      </trkpt>
      <trkpt lat="44.35048" lon="6.84846">
        <ele>2385</ele>
        <time>2021-05-09T07:16:40.000Z</time>
      </trkpt>
      <trkpt lat="44.35048" lon="6.84846">
        <ele>2385</ele>
        <time>2021-05-09T07:16:47.000Z</time>
      </trkpt>
      <trkpt lat="44.35042" lon="6.84846">
        <ele>2385</ele>
        <time>2021-05-09T07:16:48.000Z</time>
      </trkpt>
      <trkpt lat="44.35039" lon="6.84847">
        <ele>2385</ele>
        <time>2021-05-09T07:16:51.000Z</time>
      </trkpt>
      <trkpt lat="44.35038" lon="6.84845">
        <ele>2384.8000488281</ele>
        <time>2021-05-09T07:16:56.000Z</time>
      </trkpt>
      <trkpt lat="44.35037" lon="6.84845">
        <ele>2384.8000488281</ele>
        <time>2021-05-09T07:16:57.000Z</time>
      </trkpt>
      <trkpt lat="44.35037" lon="6.84844">
        <ele>2384.8000488281</ele>
        <time>2021-05-09T07:16:59.000Z</time>
      </trkpt>
      <trkpt lat="44.35033" lon="6.84844">
        <ele>2384.8000488281</ele>
        <time>2021-05-09T07:17:01.000Z</time>
      </trkpt>
      <trkpt lat="44.35042" lon="6.84843">
        <ele>2384.8000488281</ele>
        <time>2021-05-09T07:17:03.000Z</time>
      </trkpt>
      <trkpt lat="44.35042" lon="6.84843">
        <ele>2384.8000488281</ele>
        <time>2021-05-09T07:17:05.000Z</time>
      </trkpt>
      <trkpt lat="44.35042" lon="6.84843">
        <ele>2384.8000488281</ele>
        <time>2021-05-09T07:17:06.000Z</time>
      </trkpt>
      <trkpt lat="44.35041" lon="6.84843">
        <ele>2384.8000488281</ele>
        <time>2021-05-09T07:17:10.000Z</time>
      </trkpt>
      <trkpt lat="44.35041" lon="6.84844">
        <ele>2385</ele>
        <time>2021-05-09T07:17:13.000Z</time>
      </trkpt>
      <trkpt lat="44.35043" lon="6.84848">
        <ele>2385</ele>
        <time>2021-05-09T07:17:15.000Z</time>
      </trkpt>
      <trkpt lat="44.35041" lon="6.84847">
        <ele>2384.8000488281</ele>
        <time>2021-05-09T07:17:19.000Z</time>
      </trkpt>
      <trkpt lat="44.35039" lon="6.84849">
        <ele>2384.8000488281</ele>
        <time>2021-05-09T07:17:22.000Z</time>
      </trkpt>
      <trkpt lat="44.35039" lon="6.84849">
        <ele>2384.8000488281</ele>
        <time>2021-05-09T07:17:24.000Z</time>
      </trkpt>
      <trkpt lat="44.35039" lon="6.84849">
        <ele>2384.8000488281</ele>
        <time>2021-05-09T07:17:27.000Z</time>
      </trkpt>
      <trkpt lat="44.35039" lon="6.84852">
        <ele>2384.8000488281</ele>
        <time>2021-05-09T07:17:32.000Z</time>
      </trkpt>
      <trkpt lat="44.3504" lon="6.84852">
        <ele>2384.8000488281</ele>
        <time>2021-05-09T07:17:34.000Z</time>
      </trkpt>
      <trkpt lat="44.35042" lon="6.84852">
        <ele>2384.8000488281</ele>
        <time>2021-05-09T07:17:36.000Z</time>
      </trkpt>
      <trkpt lat="44.35043" lon="6.84851">
        <ele>2384.8000488281</ele>
        <time>2021-05-09T07:17:38.000Z</time>
      </trkpt>
      <trkpt lat="44.35045" lon="6.84848">
        <ele>2384.8000488281</ele>
        <time>2021-05-09T07:17:43.000Z</time>
      </trkpt>
      <trkpt lat="44.35051" lon="6.84846">
        <ele>2385</ele>
        <time>2021-05-09T07:17:49.000Z</time>
      </trkpt>
      <trkpt lat="44.35048" lon="6.84846">
        <ele>2384.8000488281</ele>
        <time>2021-05-09T07:17:53.000Z</time>
      </trkpt>
      <trkpt lat="44.35048" lon="6.84847">
        <ele>2384.8000488281</ele>
        <time>2021-05-09T07:17:55.000Z</time>
      </trkpt>
      <trkpt lat="44.35043" lon="6.84847">
        <ele>2384.8000488281</ele>
        <time>2021-05-09T07:18:01.000Z</time>
      </trkpt>
      <trkpt lat="44.35043" lon="6.84847">
        <ele>2384.8000488281</ele>
        <time>2021-05-09T07:18:04.000Z</time>
      </trkpt>
      <trkpt lat="44.35043" lon="6.84847">
        <ele>2384.8000488281</ele>
        <time>2021-05-09T07:18:07.000Z</time>
      </trkpt>
      <trkpt lat="44.35042" lon="6.84846">
        <ele>2384.8000488281</ele>
        <time>2021-05-09T07:18:13.000Z</time>
      </trkpt>
      <trkpt lat="44.35042" lon="6.84846">
        <ele>2384.8000488281</ele>
        <time>2021-05-09T07:18:15.000Z</time>
      </trkpt>
      <trkpt lat="44.35041" lon="6.84846">
        <ele>2384.8000488281</ele>
        <time>2021-05-09T07:18:16.000Z</time>
      </trkpt>
      <trkpt lat="44.35034" lon="6.84841">
        <ele>2384.8000488281</ele>
        <time>2021-05-09T07:18:20.000Z</time>
      </trkpt>
      <trkpt lat="44.35033" lon="6.84841">
        <ele>2384.8000488281</ele>
        <time>2021-05-09T07:18:21.000Z</time>
      </trkpt>
      <trkpt lat="44.35032" lon="6.84843">
        <ele>2384.8000488281</ele>
        <time>2021-05-09T07:18:23.000Z</time>
      </trkpt>
      <trkpt lat="44.35032" lon="6.84844">
        <ele>2384.8000488281</ele>
        <time>2021-05-09T07:18:24.000Z</time>
      </trkpt>
      <trkpt lat="44.35035" lon="6.84846">
        <ele>2384.8000488281</ele>
        <time>2021-05-09T07:18:28.000Z</time>
      </trkpt>
      <trkpt lat="44.35036" lon="6.84846">
        <ele>2384.8000488281</ele>
        <time>2021-05-09T07:18:31.000Z</time>
      </trkpt>
      <trkpt lat="44.35035" lon="6.84845">
        <ele>2384.8000488281</ele>
        <time>2021-05-09T07:18:32.000Z</time>
      </trkpt>
      <trkpt lat="44.35034" lon="6.84843">
        <ele>2384.8000488281</ele>
        <time>2021-05-09T07:18:35.000Z</time>
      </trkpt>
      <trkpt lat="44.35035" lon="6.84845">
        <ele>2385</ele>
        <time>2021-05-09T07:18:39.000Z</time>
      </trkpt>
      <trkpt lat="44.35036" lon="6.84846">
        <ele>2385</ele>
        <time>2021-05-09T07:18:40.000Z</time>
      </trkpt>
      <trkpt lat="44.35036" lon="6.84847">
        <ele>2385</ele>
        <time>2021-05-09T07:18:41.000Z</time>
      </trkpt>
      <trkpt lat="44.35035" lon="6.84848">
        <ele>2385</ele>
        <time>2021-05-09T07:18:44.000Z</time>
      </trkpt>
      <trkpt lat="44.35035" lon="6.84848">
        <ele>2385</ele>
        <time>2021-05-09T07:18:45.000Z</time>
      </trkpt>
      <trkpt lat="44.35035" lon="6.84848">
        <ele>2385</ele>
        <time>2021-05-09T07:18:46.000Z</time>
      </trkpt>
      <trkpt lat="44.35035" lon="6.84847">
        <ele>2384.8000488281</ele>
        <time>2021-05-09T07:18:49.000Z</time>
      </trkpt>
      <trkpt lat="44.35034" lon="6.84847">
        <ele>2384.8000488281</ele>
        <time>2021-05-09T07:18:50.000Z</time>
      </trkpt>
      <trkpt lat="44.35034" lon="6.84847">
        <ele>2385</ele>
        <time>2021-05-09T07:18:53.000Z</time>
      </trkpt>
      <trkpt lat="44.35035" lon="6.84848">
        <ele>2385</ele>
        <time>2021-05-09T07:19:00.000Z</time>
      </trkpt>
      <trkpt lat="44.35035" lon="6.84849">
        <ele>2385</ele>
        <time>2021-05-09T07:19:06.000Z</time>
      </trkpt>
      <trkpt lat="44.35035" lon="6.84849">
        <ele>2385</ele>
        <time>2021-05-09T07:19:07.000Z</time>
      </trkpt>
      <trkpt lat="44.35035" lon="6.84849">
        <ele>2385</ele>
        <time>2021-05-09T07:19:10.000Z</time>
      </trkpt>
      <trkpt lat="44.35034" lon="6.84848">
        <ele>2385</ele>
        <time>2021-05-09T07:19:11.000Z</time>
      </trkpt>
      <trkpt lat="44.35033" lon="6.84846">
        <ele>2385</ele>
        <time>2021-05-09T07:19:13.000Z</time>
      </trkpt>
      <trkpt lat="44.35031" lon="6.84844">
        <ele>2385</ele>
        <time>2021-05-09T07:19:16.000Z</time>
      </trkpt>
      <trkpt lat="44.35032" lon="6.84844">
        <ele>2385</ele>
        <time>2021-05-09T07:19:17.000Z</time>
      </trkpt>
      <trkpt lat="44.35032" lon="6.84845">
        <ele>2385</ele>
        <time>2021-05-09T07:19:18.000Z</time>
      </trkpt>
      <trkpt lat="44.35033" lon="6.84844">
        <ele>2385</ele>
        <time>2021-05-09T07:19:19.000Z</time>
      </trkpt>
      <trkpt lat="44.35033" lon="6.84844">
        <ele>2385</ele>
        <time>2021-05-09T07:19:20.000Z</time>
      </trkpt>
      <trkpt lat="44.35033" lon="6.84844">
        <ele>2385</ele>
        <time>2021-05-09T07:19:21.000Z</time>
      </trkpt>
      <trkpt lat="44.35026" lon="6.84841">
        <ele>2384.8000488281</ele>
        <time>2021-05-09T07:19:30.000Z</time>
      </trkpt>
      <trkpt lat="44.35028" lon="6.84841">
        <ele>2384.6000976562</ele>
        <time>2021-05-09T07:19:32.000Z</time>
      </trkpt>
      <trkpt lat="44.35025" lon="6.84848">
        <ele>2384.3999023438</ele>
        <time>2021-05-09T07:19:38.000Z</time>
      </trkpt>
      <trkpt lat="44.35025" lon="6.84853">
        <ele>2384</ele>
        <time>2021-05-09T07:19:41.000Z</time>
      </trkpt>
      <trkpt lat="44.35022" lon="6.84864">
        <ele>2383.1999511719</ele>
        <time>2021-05-09T07:19:46.000Z</time>
      </trkpt>
      <trkpt lat="44.35022" lon="6.84868">
        <ele>2383</ele>
        <time>2021-05-09T07:19:48.000Z</time>
      </trkpt>
      <trkpt lat="44.3502" lon="6.84874">
        <ele>2382.6000976562</ele>
        <time>2021-05-09T07:19:52.000Z</time>
      </trkpt>
      <trkpt lat="44.35019" lon="6.84881">
        <ele>2382.1999511719</ele>
        <time>2021-05-09T07:19:55.000Z</time>
      </trkpt>
      <trkpt lat="44.35018" lon="6.84884">
        <ele>2382</ele>
        <time>2021-05-09T07:19:56.000Z</time>
      </trkpt>
      <trkpt lat="44.35017" lon="6.84894">
        <ele>2380.8000488281</ele>
        <time>2021-05-09T07:19:59.000Z</time>
      </trkpt>
      <trkpt lat="44.35017" lon="6.84903">
        <ele>2379.6000976562</ele>
        <time>2021-05-09T07:20:01.000Z</time>
      </trkpt>
      <trkpt lat="44.35017" lon="6.8491">
        <ele>2378</ele>
        <time>2021-05-09T07:20:03.000Z</time>
      </trkpt>
      <trkpt lat="44.35018" lon="6.84916">
        <ele>2376.8000488281</ele>
        <time>2021-05-09T07:20:05.000Z</time>
      </trkpt>
      <trkpt lat="44.35018" lon="6.84923">
        <ele>2375.8000488281</ele>
        <time>2021-05-09T07:20:08.000Z</time>
      </trkpt>
      <trkpt lat="44.35017" lon="6.84929">
        <ele>2375.6000976562</ele>
        <time>2021-05-09T07:20:09.000Z</time>
      </trkpt>
      <trkpt lat="44.35014" lon="6.84939">
        <ele>2374.3999023438</ele>
        <time>2021-05-09T07:20:13.000Z</time>
      </trkpt>
      <trkpt lat="44.35014" lon="6.84943">
        <ele>2373.3999023438</ele>
        <time>2021-05-09T07:20:17.000Z</time>
      </trkpt>
      <trkpt lat="44.35038" lon="6.84957">
        <ele>2372.3999023438</ele>
        <time>2021-05-09T07:20:35.000Z</time>
      </trkpt>
      <trkpt lat="44.3504" lon="6.84959">
        <ele>2372.1999511719</ele>
        <time>2021-05-09T07:20:36.000Z</time>
      </trkpt>
      <trkpt lat="44.35044" lon="6.84964">
        <ele>2371.1999511719</ele>
        <time>2021-05-09T07:20:41.000Z</time>
      </trkpt>
      <trkpt lat="44.35041" lon="6.84963">
        <ele>2371.1999511719</ele>
        <time>2021-05-09T07:20:42.000Z</time>
      </trkpt>
      <trkpt lat="44.35026" lon="6.84973">
        <ele>2370.6000976562</ele>
        <time>2021-05-09T07:20:49.000Z</time>
      </trkpt>
      <trkpt lat="44.35028" lon="6.84979">
        <ele>2370.1999511719</ele>
        <time>2021-05-09T07:20:51.000Z</time>
      </trkpt>
      <trkpt lat="44.35026" lon="6.84987">
        <ele>2369</ele>
        <time>2021-05-09T07:20:54.000Z</time>
      </trkpt>
      <trkpt lat="44.3502" lon="6.85006">
        <ele>2367.8000488281</ele>
        <time>2021-05-09T07:20:58.000Z</time>
      </trkpt>
      <trkpt lat="44.35022" lon="6.8501">
        <ele>2366.6000976562</ele>
        <time>2021-05-09T07:21:00.000Z</time>
      </trkpt>
      <trkpt lat="44.35022" lon="6.8501">
        <ele>2365.6000976562</ele>
        <time>2021-05-09T07:21:02.000Z</time>
      </trkpt>
      <trkpt lat="44.35023" lon="6.8501">
        <ele>2365.3999023438</ele>
        <time>2021-05-09T07:21:03.000Z</time>
      </trkpt>
      <trkpt lat="44.35033" lon="6.85019">
        <ele>2365</ele>
        <time>2021-05-09T07:21:07.000Z</time>
      </trkpt>
      <trkpt lat="44.35032" lon="6.8503">
        <ele>2364.1999511719</ele>
        <time>2021-05-09T07:21:09.000Z</time>
      </trkpt>
      <trkpt lat="44.35036" lon="6.85039">
        <ele>2362.8000488281</ele>
        <time>2021-05-09T07:21:11.000Z</time>
      </trkpt>
      <trkpt lat="44.35039" lon="6.85045">
        <ele>2361.6000976562</ele>
        <time>2021-05-09T07:21:13.000Z</time>
      </trkpt>
      <trkpt lat="44.3504" lon="6.85046">
        <ele>2360.6000976562</ele>
        <time>2021-05-09T07:21:15.000Z</time>
      </trkpt>
      <trkpt lat="44.3504" lon="6.85046">
        <ele>2360.3999023438</ele>
        <time>2021-05-09T07:21:16.000Z</time>
      </trkpt>
      <trkpt lat="44.35046" lon="6.85055">
        <ele>2359.6000976562</ele>
        <time>2021-05-09T07:21:20.000Z</time>
      </trkpt>
      <trkpt lat="44.35009" lon="6.8506">
        <ele>2359.3999023438</ele>
        <time>2021-05-09T07:21:21.000Z</time>
      </trkpt>
      <trkpt lat="44.3501" lon="6.85064">
        <ele>2358.8000488281</ele>
        <time>2021-05-09T07:21:22.000Z</time>
      </trkpt>
      <trkpt lat="44.35014" lon="6.85073">
        <ele>2357.6000976562</ele>
        <time>2021-05-09T07:21:25.000Z</time>
      </trkpt>
      <trkpt lat="44.35016" lon="6.85087">
        <ele>2356.3999023438</ele>
        <time>2021-05-09T07:21:29.000Z</time>
      </trkpt>
      <trkpt lat="44.35017" lon="6.85101">
        <ele>2355.1999511719</ele>
        <time>2021-05-09T07:21:33.000Z</time>
      </trkpt>
      <trkpt lat="44.35016" lon="6.85102">
        <ele>2354.8000488281</ele>
        <time>2021-05-09T07:21:34.000Z</time>
      </trkpt>
      <trkpt lat="44.35014" lon="6.85103">
        <ele>2354.1999511719</ele>
        <time>2021-05-09T07:21:35.000Z</time>
      </trkpt>
      <trkpt lat="44.35011" lon="6.85105">
        <ele>2353.1999511719</ele>
        <time>2021-05-09T07:21:37.000Z</time>
      </trkpt>
      <trkpt lat="44.35011" lon="6.85106">
        <ele>2353</ele>
        <time>2021-05-09T07:21:38.000Z</time>
      </trkpt>
      <trkpt lat="44.35012" lon="6.85108">
        <ele>2352.8000488281</ele>
        <time>2021-05-09T07:21:39.000Z</time>
      </trkpt>
      <trkpt lat="44.35015" lon="6.85115">
        <ele>2352.3999023438</ele>
        <time>2021-05-09T07:21:41.000Z</time>
      </trkpt>
      <trkpt lat="44.35016" lon="6.85124">
        <ele>2351.6000976562</ele>
        <time>2021-05-09T07:21:43.000Z</time>
      </trkpt>
      <trkpt lat="44.35019" lon="6.85134">
        <ele>2350.3999023438</ele>
        <time>2021-05-09T07:21:46.000Z</time>
      </trkpt>
      <trkpt lat="44.3502" lon="6.85138">
        <ele>2349</ele>
        <time>2021-05-09T07:21:49.000Z</time>
      </trkpt>
      <trkpt lat="44.35025" lon="6.85151">
        <ele>2347.8000488281</ele>
        <time>2021-05-09T07:21:53.000Z</time>
      </trkpt>
      <trkpt lat="44.35028" lon="6.85167">
        <ele>2346.6000976562</ele>
        <time>2021-05-09T07:21:56.000Z</time>
      </trkpt>
      <trkpt lat="44.35032" lon="6.85174">
        <ele>2345.3999023438</ele>
        <time>2021-05-09T07:21:58.000Z</time>
      </trkpt>
      <trkpt lat="44.35034" lon="6.85179">
        <ele>2344.3999023438</ele>
        <time>2021-05-09T07:22:00.000Z</time>
      </trkpt>
      <trkpt lat="44.35036" lon="6.85181">
        <ele>2343.1999511719</ele>
        <time>2021-05-09T07:22:05.000Z</time>
      </trkpt>
      <trkpt lat="44.3504" lon="6.8519">
        <ele>2343.3999023438</ele>
        <time>2021-05-09T07:22:11.000Z</time>
      </trkpt>
      <trkpt lat="44.35046" lon="6.85194">
        <ele>2343.3999023438</ele>
        <time>2021-05-09T07:22:16.000Z</time>
      </trkpt>
      <trkpt lat="44.35045" lon="6.85196">
        <ele>2343.3999023438</ele>
        <time>2021-05-09T07:22:19.000Z</time>
      </trkpt>
      <trkpt lat="44.35049" lon="6.85193">
        <ele>2343.3999023438</ele>
        <time>2021-05-09T07:22:24.000Z</time>
      </trkpt>
      <trkpt lat="44.35049" lon="6.85192">
        <ele>2343.1999511719</ele>
        <time>2021-05-09T07:22:25.000Z</time>
      </trkpt>
      <trkpt lat="44.35049" lon="6.85192">
        <ele>2343.3999023438</ele>
        <time>2021-05-09T07:22:34.000Z</time>
      </trkpt>
      <trkpt lat="44.35037" lon="6.85196">
        <ele>2343.3999023438</ele>
        <time>2021-05-09T07:22:44.000Z</time>
      </trkpt>
      <trkpt lat="44.35037" lon="6.85197">
        <ele>2343.3999023438</ele>
        <time>2021-05-09T07:22:45.000Z</time>
      </trkpt>
      <trkpt lat="44.35047" lon="6.85193">
        <ele>2343.3999023438</ele>
        <time>2021-05-09T07:23:03.000Z</time>
      </trkpt>
      <trkpt lat="44.3505" lon="6.85195">
        <ele>2343.3999023438</ele>
        <time>2021-05-09T07:23:06.000Z</time>
      </trkpt>
      <trkpt lat="44.35051" lon="6.85195">
        <ele>2343.3999023438</ele>
        <time>2021-05-09T07:23:07.000Z</time>
      </trkpt>
      <trkpt lat="44.35052" lon="6.85197">
        <ele>2343.6000976562</ele>
        <time>2021-05-09T07:23:09.000Z</time>
      </trkpt>
      <trkpt lat="44.35054" lon="6.85199">
        <ele>2343.8000488281</ele>
        <time>2021-05-09T07:23:12.000Z</time>
      </trkpt>
      <trkpt lat="44.35056" lon="6.85202">
        <ele>2344</ele>
        <time>2021-05-09T07:23:16.000Z</time>
      </trkpt>
      <trkpt lat="44.3506" lon="6.85208">
        <ele>2344.1999511719</ele>
        <time>2021-05-09T07:23:23.000Z</time>
      </trkpt>
      <trkpt lat="44.35062" lon="6.85215">
        <ele>2344.1999511719</ele>
        <time>2021-05-09T07:23:28.000Z</time>
      </trkpt>
      <trkpt lat="44.35064" lon="6.85218">
        <ele>2344</ele>
        <time>2021-05-09T07:23:32.000Z</time>
      </trkpt>
      <trkpt lat="44.35062" lon="6.85221">
        <ele>2344</ele>
        <time>2021-05-09T07:23:35.000Z</time>
      </trkpt>
      <trkpt lat="44.35063" lon="6.85225">
        <ele>2344.3999023438</ele>
        <time>2021-05-09T07:23:46.000Z</time>
      </trkpt>
      <trkpt lat="44.35057" lon="6.85227">
        <ele>2344</ele>
        <time>2021-05-09T07:24:12.000Z</time>
      </trkpt>
      <trkpt lat="44.35062" lon="6.85225">
        <ele>2344</ele>
        <time>2021-05-09T07:24:15.000Z</time>
      </trkpt>
      <trkpt lat="44.35065" lon="6.85223">
        <ele>2344</ele>
        <time>2021-05-09T07:24:16.000Z</time>
      </trkpt>
      <trkpt lat="44.35079" lon="6.85209">
        <ele>2343.8000488281</ele>
        <time>2021-05-09T07:24:19.000Z</time>
      </trkpt>
      <trkpt lat="44.35077" lon="6.85211">
        <ele>2343.8000488281</ele>
        <time>2021-05-09T07:24:21.000Z</time>
      </trkpt>
      <trkpt lat="44.35072" lon="6.85216">
        <ele>2344</ele>
        <time>2021-05-09T07:24:30.000Z</time>
      </trkpt>
      <trkpt lat="44.35067" lon="6.85222">
        <ele>2344</ele>
        <time>2021-05-09T07:24:43.000Z</time>
      </trkpt>
      <trkpt lat="44.35065" lon="6.85223">
        <ele>2344.6000976562</ele>
        <time>2021-05-09T07:24:49.000Z</time>
      </trkpt>
      <trkpt lat="44.35061" lon="6.85223">
        <ele>2344.1999511719</ele>
        <time>2021-05-09T07:24:56.000Z</time>
      </trkpt>
      <trkpt lat="44.35059" lon="6.85223">
        <ele>2344.1999511719</ele>
        <time>2021-05-09T07:25:00.000Z</time>
      </trkpt>
      <trkpt lat="44.35055" lon="6.85227">
        <ele>2344.1999511719</ele>
        <time>2021-05-09T07:25:04.000Z</time>
      </trkpt>
      <trkpt lat="44.35094" lon="6.85214">
        <ele>2344</ele>
        <time>2021-05-09T07:25:16.000Z</time>
      </trkpt>
      <trkpt lat="44.35116" lon="6.85193">
        <ele>2343.8000488281</ele>
        <time>2021-05-09T07:25:20.000Z</time>
      </trkpt>
      <trkpt lat="44.35107" lon="6.85198">
        <ele>2343.8000488281</ele>
        <time>2021-05-09T07:25:22.000Z</time>
      </trkpt>
      <trkpt lat="44.35094" lon="6.85204">
        <ele>2343.8000488281</ele>
        <time>2021-05-09T07:25:24.000Z</time>
      </trkpt>
      <trkpt lat="44.35088" lon="6.85208">
        <ele>2343.8000488281</ele>
        <time>2021-05-09T07:25:25.000Z</time>
      </trkpt>
      <trkpt lat="44.35073" lon="6.85216">
        <ele>2344</ele>
        <time>2021-05-09T07:25:28.000Z</time>
      </trkpt>
      <trkpt lat="44.35069" lon="6.85216">
        <ele>2344.1999511719</ele>
        <time>2021-05-09T07:25:33.000Z</time>
      </trkpt>
      <trkpt lat="44.35063" lon="6.8522">
        <ele>2344</ele>
        <time>2021-05-09T07:25:42.000Z</time>
      </trkpt>
      <trkpt lat="44.35062" lon="6.8522">
        <ele>2344.1999511719</ele>
        <time>2021-05-09T07:25:45.000Z</time>
      </trkpt>
      <trkpt lat="44.35071" lon="6.85212">
        <ele>2343.8000488281</ele>
        <time>2021-05-09T07:25:48.000Z</time>
      </trkpt>
      <trkpt lat="44.35072" lon="6.85212">
        <ele>2343.8000488281</ele>
        <time>2021-05-09T07:25:52.000Z</time>
      </trkpt>
      <trkpt lat="44.35069" lon="6.85215">
        <ele>2343.8000488281</ele>
        <time>2021-05-09T07:25:56.000Z</time>
      </trkpt>
      <trkpt lat="44.35069" lon="6.85216">
        <ele>2343.8000488281</ele>
        <time>2021-05-09T07:25:59.000Z</time>
      </trkpt>
      <trkpt lat="44.35066" lon="6.85217">
        <ele>2343.6000976562</ele>
        <time>2021-05-09T07:26:09.000Z</time>
      </trkpt>
      <trkpt lat="44.35066" lon="6.85217">
        <ele>2343.6000976562</ele>
        <time>2021-05-09T07:26:11.000Z</time>
      </trkpt>
      <trkpt lat="44.35066" lon="6.85218">
        <ele>2343.6000976562</ele>
        <time>2021-05-09T07:26:16.000Z</time>
      </trkpt>
      <trkpt lat="44.35066" lon="6.85218">
        <ele>2343.6000976562</ele>
        <time>2021-05-09T07:26:18.000Z</time>
      </trkpt>
      <trkpt lat="44.35066" lon="6.8522">
        <ele>2343.8000488281</ele>
        <time>2021-05-09T07:26:21.000Z</time>
      </trkpt>
      <trkpt lat="44.35068" lon="6.85218">
        <ele>2343.8000488281</ele>
        <time>2021-05-09T07:26:24.000Z</time>
      </trkpt>
      <trkpt lat="44.35069" lon="6.85219">
        <ele>2343.8000488281</ele>
        <time>2021-05-09T07:26:27.000Z</time>
      </trkpt>
      <trkpt lat="44.35067" lon="6.8522">
        <ele>2343.8000488281</ele>
        <time>2021-05-09T07:26:30.000Z</time>
      </trkpt>
      <trkpt lat="44.35066" lon="6.85221">
        <ele>2343.8000488281</ele>
        <time>2021-05-09T07:26:33.000Z</time>
      </trkpt>
      <trkpt lat="44.35064" lon="6.85222">
        <ele>2343.8000488281</ele>
        <time>2021-05-09T07:26:34.000Z</time>
      </trkpt>
      <trkpt lat="44.35059" lon="6.85222">
        <ele>2343.8000488281</ele>
        <time>2021-05-09T07:26:38.000Z</time>
      </trkpt>
      <trkpt lat="44.35059" lon="6.85223">
        <ele>2343.8000488281</ele>
        <time>2021-05-09T07:26:39.000Z</time>
      </trkpt>
      <trkpt lat="44.35058" lon="6.85223">
        <ele>2343.8000488281</ele>
        <time>2021-05-09T07:26:40.000Z</time>
      </trkpt>
      <trkpt lat="44.35055" lon="6.85226">
        <ele>2343.8000488281</ele>
        <time>2021-05-09T07:26:42.000Z</time>
      </trkpt>
      <trkpt lat="44.35058" lon="6.85224">
        <ele>2343.8000488281</ele>
        <time>2021-05-09T07:26:43.000Z</time>
      </trkpt>
      <trkpt lat="44.35061" lon="6.85222">
        <ele>2343.8000488281</ele>
        <time>2021-05-09T07:26:49.000Z</time>
      </trkpt>
      <trkpt lat="44.35062" lon="6.85222">
        <ele>2343.8000488281</ele>
        <time>2021-05-09T07:26:50.000Z</time>
      </trkpt>
      <trkpt lat="44.35062" lon="6.85222">
        <ele>2343.8000488281</ele>
        <time>2021-05-09T07:26:51.000Z</time>
      </trkpt>
      <trkpt lat="44.35056" lon="6.85227">
        <ele>2343.8000488281</ele>
        <time>2021-05-09T07:26:52.000Z</time>
      </trkpt>
      <trkpt lat="44.35034" lon="6.85238">
        <ele>2343.8000488281</ele>
        <time>2021-05-09T07:26:53.000Z</time>
      </trkpt>
      <trkpt lat="44.35032" lon="6.8524">
        <ele>2343.8000488281</ele>
        <time>2021-05-09T07:26:54.000Z</time>
      </trkpt>
      <trkpt lat="44.35043" lon="6.85236">
        <ele>2343.8000488281</ele>
        <time>2021-05-09T07:26:58.000Z</time>
      </trkpt>
      <trkpt lat="44.35043" lon="6.85235">
        <ele>2343.8000488281</ele>
        <time>2021-05-09T07:26:59.000Z</time>
      </trkpt>
      <trkpt lat="44.35048" lon="6.85232">
        <ele>2343.8000488281</ele>
        <time>2021-05-09T07:27:03.000Z</time>
      </trkpt>
      <trkpt lat="44.35052" lon="6.8523">
        <ele>2343.8000488281</ele>
        <time>2021-05-09T07:27:08.000Z</time>
      </trkpt>
      <trkpt lat="44.35076" lon="6.85209">
        <ele>2344</ele>
        <time>2021-05-09T07:27:32.000Z</time>
      </trkpt>
      <trkpt lat="44.35101" lon="6.85197">
        <ele>2344</ele>
        <time>2021-05-09T07:27:37.000Z</time>
      </trkpt>
      <trkpt lat="44.35085" lon="6.85209">
        <ele>2344</ele>
        <time>2021-05-09T07:27:44.000Z</time>
      </trkpt>
      <trkpt lat="44.35077" lon="6.85213">
        <ele>2344</ele>
        <time>2021-05-09T07:27:52.000Z</time>
      </trkpt>
      <trkpt lat="44.35077" lon="6.85214">
        <ele>2344</ele>
        <time>2021-05-09T07:27:53.000Z</time>
      </trkpt>
      <trkpt lat="44.35076" lon="6.85214">
        <ele>2344</ele>
        <time>2021-05-09T07:27:54.000Z</time>
      </trkpt>
      <trkpt lat="44.35076" lon="6.85213">
        <ele>2344</ele>
        <time>2021-05-09T07:27:58.000Z</time>
      </trkpt>
      <trkpt lat="44.35076" lon="6.85214">
        <ele>2344</ele>
        <time>2021-05-09T07:27:59.000Z</time>
      </trkpt>
      <trkpt lat="44.35076" lon="6.85214">
        <ele>2344</ele>
        <time>2021-05-09T07:28:02.000Z</time>
      </trkpt>
      <trkpt lat="44.35074" lon="6.85217">
        <ele>2344</ele>
        <time>2021-05-09T07:28:07.000Z</time>
      </trkpt>
      <trkpt lat="44.35068" lon="6.85223">
        <ele>2344</ele>
        <time>2021-05-09T07:28:17.000Z</time>
      </trkpt>
      <trkpt lat="44.35067" lon="6.85225">
        <ele>2344.1999511719</ele>
        <time>2021-05-09T07:28:30.000Z</time>
      </trkpt>
      <trkpt lat="44.35068" lon="6.85224">
        <ele>2344.1999511719</ele>
        <time>2021-05-09T07:28:33.000Z</time>
      </trkpt>
      <trkpt lat="44.35069" lon="6.85223">
        <ele>2344.1999511719</ele>
        <time>2021-05-09T07:28:34.000Z</time>
      </trkpt>
      <trkpt lat="44.3507" lon="6.85221">
        <ele>2344.1999511719</ele>
        <time>2021-05-09T07:28:35.000Z</time>
      </trkpt>
      <trkpt lat="44.35071" lon="6.85221">
        <ele>2344.1999511719</ele>
        <time>2021-05-09T07:28:36.000Z</time>
      </trkpt>
      <trkpt lat="44.35072" lon="6.8522">
        <ele>2344.1999511719</ele>
        <time>2021-05-09T07:28:39.000Z</time>
      </trkpt>
      <trkpt lat="44.35072" lon="6.85221">
        <ele>2344.1999511719</ele>
        <time>2021-05-09T07:28:44.000Z</time>
      </trkpt>
      <trkpt lat="44.35072" lon="6.85222">
        <ele>2344.1999511719</ele>
        <time>2021-05-09T07:28:46.000Z</time>
      </trkpt>
      <trkpt lat="44.35072" lon="6.85222">
        <ele>2344.1999511719</ele>
        <time>2021-05-09T07:28:47.000Z</time>
      </trkpt>
      <trkpt lat="44.3507" lon="6.85222">
        <ele>2344.1999511719</ele>
        <time>2021-05-09T07:28:49.000Z</time>
      </trkpt>
      <trkpt lat="44.3507" lon="6.85221">
        <ele>2344.3999023438</ele>
        <time>2021-05-09T07:28:50.000Z</time>
      </trkpt>
      <trkpt lat="44.3507" lon="6.8522">
        <ele>2344.3999023438</ele>
        <time>2021-05-09T07:28:51.000Z</time>
      </trkpt>
      <trkpt lat="44.35068" lon="6.85221">
        <ele>2344.3999023438</ele>
        <time>2021-05-09T07:28:52.000Z</time>
      </trkpt>
      <trkpt lat="44.35052" lon="6.85233">
        <ele>2344.3999023438</ele>
        <time>2021-05-09T07:28:59.000Z</time>
      </trkpt>
      <trkpt lat="44.3505" lon="6.85235">
        <ele>2344.3999023438</ele>
        <time>2021-05-09T07:29:01.000Z</time>
      </trkpt>
      <trkpt lat="44.35048" lon="6.85236">
        <ele>2344.3999023438</ele>
        <time>2021-05-09T07:29:02.000Z</time>
      </trkpt>
      <trkpt lat="44.35048" lon="6.85233">
        <ele>2344.3999023438</ele>
        <time>2021-05-09T07:29:05.000Z</time>
      </trkpt>
      <trkpt lat="44.35057" lon="6.85226">
        <ele>2344.3999023438</ele>
        <time>2021-05-09T07:29:11.000Z</time>
      </trkpt>
      <trkpt lat="44.35058" lon="6.85225">
        <ele>2344.3999023438</ele>
        <time>2021-05-09T07:29:12.000Z</time>
      </trkpt>
      <trkpt lat="44.35065" lon="6.8522">
        <ele>2344.6000976562</ele>
        <time>2021-05-09T07:29:16.000Z</time>
      </trkpt>
      <trkpt lat="44.35062" lon="6.85221">
        <ele>2344.3999023438</ele>
        <time>2021-05-09T07:29:22.000Z</time>
      </trkpt>
      <trkpt lat="44.35063" lon="6.85222">
        <ele>2344.3999023438</ele>
        <time>2021-05-09T07:29:25.000Z</time>
      </trkpt>
      <trkpt lat="44.35062" lon="6.85224">
        <ele>2344.3999023438</ele>
        <time>2021-05-09T07:29:36.000Z</time>
      </trkpt>
      <trkpt lat="44.35062" lon="6.85224">
        <ele>2344.3999023438</ele>
        <time>2021-05-09T07:29:37.000Z</time>
      </trkpt>
      <trkpt lat="44.35063" lon="6.85224">
        <ele>2344.3999023438</ele>
        <time>2021-05-09T07:29:40.000Z</time>
      </trkpt>
      <trkpt lat="44.35064" lon="6.85224">
        <ele>2344.3999023438</ele>
        <time>2021-05-09T07:29:47.000Z</time>
      </trkpt>
      <trkpt lat="44.35065" lon="6.85224">
        <ele>2344.6000976562</ele>
        <time>2021-05-09T07:29:56.000Z</time>
      </trkpt>
      <trkpt lat="44.35066" lon="6.85223">
        <ele>2344.6000976562</ele>
        <time>2021-05-09T07:30:01.000Z</time>
      </trkpt>
      <trkpt lat="44.35066" lon="6.85223">
        <ele>2344.6000976562</ele>
        <time>2021-05-09T07:30:02.000Z</time>
      </trkpt>
      <trkpt lat="44.35066" lon="6.85223">
        <ele>2345</ele>
        <time>2021-05-09T07:30:09.000Z</time>
      </trkpt>
      <trkpt lat="44.35068" lon="6.85222">
        <ele>2344.8000488281</ele>
        <time>2021-05-09T07:30:12.000Z</time>
      </trkpt>
      <trkpt lat="44.35069" lon="6.85222">
        <ele>2345</ele>
        <time>2021-05-09T07:30:33.000Z</time>
      </trkpt>
      <trkpt lat="44.3507" lon="6.8522">
        <ele>2345</ele>
        <time>2021-05-09T07:30:42.000Z</time>
      </trkpt>
      <trkpt lat="44.35071" lon="6.85221">
        <ele>2345</ele>
        <time>2021-05-09T07:30:46.000Z</time>
      </trkpt>
      <trkpt lat="44.35071" lon="6.85221">
        <ele>2345</ele>
        <time>2021-05-09T07:30:47.000Z</time>
      </trkpt>
      <trkpt lat="44.35068" lon="6.8522">
        <ele>2345</ele>
        <time>2021-05-09T07:30:55.000Z</time>
      </trkpt>
      <trkpt lat="44.35067" lon="6.85225">
        <ele>2345</ele>
        <time>2021-05-09T07:30:57.000Z</time>
      </trkpt>
      <trkpt lat="44.35067" lon="6.85226">
        <ele>2345</ele>
        <time>2021-05-09T07:30:59.000Z</time>
      </trkpt>
      <trkpt lat="44.35066" lon="6.85227">
        <ele>2345</ele>
        <time>2021-05-09T07:31:01.000Z</time>
      </trkpt>
      <trkpt lat="44.35067" lon="6.85227">
        <ele>2345</ele>
        <time>2021-05-09T07:31:04.000Z</time>
      </trkpt>
      <trkpt lat="44.35066" lon="6.85227">
        <ele>2345</ele>
        <time>2021-05-09T07:31:06.000Z</time>
      </trkpt>
      <trkpt lat="44.35065" lon="6.85224">
        <ele>2345</ele>
        <time>2021-05-09T07:31:19.000Z</time>
      </trkpt>
      <trkpt lat="44.35065" lon="6.85223">
        <ele>2345</ele>
        <time>2021-05-09T07:31:21.000Z</time>
      </trkpt>
      <trkpt lat="44.35064" lon="6.85222">
        <ele>2345</ele>
        <time>2021-05-09T07:31:23.000Z</time>
      </trkpt>
      <trkpt lat="44.35061" lon="6.85223">
        <ele>2345</ele>
        <time>2021-05-09T07:31:29.000Z</time>
      </trkpt>
      <trkpt lat="44.35064" lon="6.85223">
        <ele>2345</ele>
        <time>2021-05-09T07:31:37.000Z</time>
      </trkpt>
      <trkpt lat="44.35065" lon="6.85223">
        <ele>2345</ele>
        <time>2021-05-09T07:31:45.000Z</time>
      </trkpt>
      <trkpt lat="44.35065" lon="6.85224">
        <ele>2345</ele>
        <time>2021-05-09T07:31:51.000Z</time>
      </trkpt>
      <trkpt lat="44.35065" lon="6.85223">
        <ele>2345</ele>
        <time>2021-05-09T07:31:53.000Z</time>
      </trkpt>
      <trkpt lat="44.35065" lon="6.85223">
        <ele>2345</ele>
        <time>2021-05-09T07:31:54.000Z</time>
      </trkpt>
      <trkpt lat="44.35065" lon="6.85223">
        <ele>2345</ele>
        <time>2021-05-09T07:31:59.000Z</time>
      </trkpt>
      <trkpt lat="44.35065" lon="6.85224">
        <ele>2345</ele>
        <time>2021-05-09T07:32:01.000Z</time>
      </trkpt>
      <trkpt lat="44.35064" lon="6.85224">
        <ele>2345</ele>
        <time>2021-05-09T07:32:03.000Z</time>
      </trkpt>
      <trkpt lat="44.35067" lon="6.85224">
        <ele>2345</ele>
        <time>2021-05-09T07:32:06.000Z</time>
      </trkpt>
      <trkpt lat="44.35068" lon="6.85226">
        <ele>2345</ele>
        <time>2021-05-09T07:32:09.000Z</time>
      </trkpt>
      <trkpt lat="44.35069" lon="6.85224">
        <ele>2345</ele>
        <time>2021-05-09T07:32:11.000Z</time>
      </trkpt>
      <trkpt lat="44.3507" lon="6.85222">
        <ele>2345</ele>
        <time>2021-05-09T07:32:14.000Z</time>
      </trkpt>
      <trkpt lat="44.3507" lon="6.85222">
        <ele>2345</ele>
        <time>2021-05-09T07:32:15.000Z</time>
      </trkpt>
      <trkpt lat="44.35071" lon="6.85224">
        <ele>2345</ele>
        <time>2021-05-09T07:32:24.000Z</time>
      </trkpt>
      <trkpt lat="44.35071" lon="6.85223">
        <ele>2345</ele>
        <time>2021-05-09T07:32:32.000Z</time>
      </trkpt>
      <trkpt lat="44.3507" lon="6.85222">
        <ele>2345.1999511719</ele>
        <time>2021-05-09T07:32:34.000Z</time>
      </trkpt>
      <trkpt lat="44.35069" lon="6.85221">
        <ele>2345</ele>
        <time>2021-05-09T07:32:36.000Z</time>
      </trkpt>
      <trkpt lat="44.35065" lon="6.85221">
        <ele>2345</ele>
        <time>2021-05-09T07:32:44.000Z</time>
      </trkpt>
      <trkpt lat="44.35068" lon="6.85222">
        <ele>2345.1999511719</ele>
        <time>2021-05-09T07:32:47.000Z</time>
      </trkpt>
      <trkpt lat="44.35069" lon="6.85223">
        <ele>2345.1999511719</ele>
        <time>2021-05-09T07:32:48.000Z</time>
      </trkpt>
      <trkpt lat="44.35068" lon="6.85223">
        <ele>2345</ele>
        <time>2021-05-09T07:32:52.000Z</time>
      </trkpt>
      <trkpt lat="44.35063" lon="6.85221">
        <ele>2345.1999511719</ele>
        <time>2021-05-09T07:32:59.000Z</time>
      </trkpt>
      <trkpt lat="44.35063" lon="6.85222">
        <ele>2345.1999511719</ele>
        <time>2021-05-09T07:33:02.000Z</time>
      </trkpt>
      <trkpt lat="44.35069" lon="6.85219">
        <ele>2343.6000976562</ele>
        <time>2021-05-09T07:33:17.000Z</time>
      </trkpt>
      <trkpt lat="44.35074" lon="6.85221">
        <ele>2343.6000976562</ele>
        <time>2021-05-09T07:33:25.000Z</time>
      </trkpt>
      <trkpt lat="44.35066" lon="6.85224">
        <ele>2343.6000976562</ele>
        <time>2021-05-09T07:33:35.000Z</time>
      </trkpt>
      <trkpt lat="44.35059" lon="6.85224">
        <ele>2343.6000976562</ele>
        <time>2021-05-09T07:33:38.000Z</time>
      </trkpt>
      <trkpt lat="44.3506" lon="6.85224">
        <ele>2343.8000488281</ele>
        <time>2021-05-09T07:33:40.000Z</time>
      </trkpt>
      <trkpt lat="44.3506" lon="6.85224">
        <ele>2343.8000488281</ele>
        <time>2021-05-09T07:33:44.000Z</time>
      </trkpt>
      <trkpt lat="44.3506" lon="6.85224">
        <ele>2343.6000976562</ele>
        <time>2021-05-09T07:33:45.000Z</time>
      </trkpt>
      <trkpt lat="44.35059" lon="6.85224">
        <ele>2343.6000976562</ele>
        <time>2021-05-09T07:33:46.000Z</time>
      </trkpt>
      <trkpt lat="44.35059" lon="6.85225">
        <ele>2343.6000976562</ele>
        <time>2021-05-09T07:33:51.000Z</time>
      </trkpt>
      <trkpt lat="44.35064" lon="6.85225">
        <ele>2343.6000976562</ele>
        <time>2021-05-09T07:33:53.000Z</time>
      </trkpt>
      <trkpt lat="44.35052" lon="6.85232">
        <ele>2343.6000976562</ele>
        <time>2021-05-09T07:33:56.000Z</time>
      </trkpt>
      <trkpt lat="44.3507" lon="6.85223">
        <ele>2345</ele>
        <time>2021-05-09T07:34:01.000Z</time>
      </trkpt>
      <trkpt lat="44.35074" lon="6.85221">
        <ele>2344.8000488281</ele>
        <time>2021-05-09T07:34:03.000Z</time>
      </trkpt>
      <trkpt lat="44.3508" lon="6.85222">
        <ele>2345</ele>
        <time>2021-05-09T07:34:09.000Z</time>
      </trkpt>
      <trkpt lat="44.35076" lon="6.85223">
        <ele>2345</ele>
        <time>2021-05-09T07:34:21.000Z</time>
      </trkpt>
      <trkpt lat="44.35082" lon="6.85222">
        <ele>2344.8000488281</ele>
        <time>2021-05-09T07:34:24.000Z</time>
      </trkpt>
      <trkpt lat="44.35074" lon="6.85225">
        <ele>2345</ele>
        <time>2021-05-09T07:34:34.000Z</time>
      </trkpt>
      <trkpt lat="44.35073" lon="6.85225">
        <ele>2345</ele>
        <time>2021-05-09T07:34:35.000Z</time>
      </trkpt>
      <trkpt lat="44.35071" lon="6.85226">
        <ele>2345</ele>
        <time>2021-05-09T07:34:37.000Z</time>
      </trkpt>
      <trkpt lat="44.35071" lon="6.85226">
        <ele>2345</ele>
        <time>2021-05-09T07:34:40.000Z</time>
      </trkpt>
      <trkpt lat="44.35068" lon="6.85224">
        <ele>2345</ele>
        <time>2021-05-09T07:34:42.000Z</time>
      </trkpt>
      <trkpt lat="44.35066" lon="6.85224">
        <ele>2344.8000488281</ele>
        <time>2021-05-09T07:34:46.000Z</time>
      </trkpt>
      <trkpt lat="44.35068" lon="6.85225">
        <ele>2344.8000488281</ele>
        <time>2021-05-09T07:34:48.000Z</time>
      </trkpt>
      <trkpt lat="44.3507" lon="6.85223">
        <ele>2344.8000488281</ele>
        <time>2021-05-09T07:34:53.000Z</time>
      </trkpt>
      <trkpt lat="44.35068" lon="6.85223">
        <ele>2344.8000488281</ele>
        <time>2021-05-09T07:34:57.000Z</time>
      </trkpt>
      <trkpt lat="44.35068" lon="6.85223">
        <ele>2344.8000488281</ele>
        <time>2021-05-09T07:35:04.000Z</time>
      </trkpt>
      <trkpt lat="44.35068" lon="6.85224">
        <ele>2344.8000488281</ele>
        <time>2021-05-09T07:35:07.000Z</time>
      </trkpt>
      <trkpt lat="44.35068" lon="6.85223">
        <ele>2344.8000488281</ele>
        <time>2021-05-09T07:35:10.000Z</time>
      </trkpt>
      <trkpt lat="44.35068" lon="6.85223">
        <ele>2344.8000488281</ele>
        <time>2021-05-09T07:35:11.000Z</time>
      </trkpt>
      <trkpt lat="44.35068" lon="6.85223">
        <ele>2344.8000488281</ele>
        <time>2021-05-09T07:35:12.000Z</time>
      </trkpt>
      <trkpt lat="44.35068" lon="6.85223">
        <ele>2344.8000488281</ele>
        <time>2021-05-09T07:35:13.000Z</time>
      </trkpt>
      <trkpt lat="44.35067" lon="6.85224">
        <ele>2344.6000976562</ele>
        <time>2021-05-09T07:35:24.000Z</time>
      </trkpt>
      <trkpt lat="44.35067" lon="6.85225">
        <ele>2344.6000976562</ele>
        <time>2021-05-09T07:35:26.000Z</time>
      </trkpt>
      <trkpt lat="44.3506" lon="6.85223">
        <ele>2344.6000976562</ele>
        <time>2021-05-09T07:35:28.000Z</time>
      </trkpt>
      <trkpt lat="44.35059" lon="6.85222">
        <ele>2344.6000976562</ele>
        <time>2021-05-09T07:35:32.000Z</time>
      </trkpt>
      <trkpt lat="44.35059" lon="6.85222">
        <ele>2344.6000976562</ele>
        <time>2021-05-09T07:35:33.000Z</time>
      </trkpt>
      <trkpt lat="44.35056" lon="6.85219">
        <ele>2344.6000976562</ele>
        <time>2021-05-09T07:35:36.000Z</time>
      </trkpt>
      <trkpt lat="44.35057" lon="6.85218">
        <ele>2344.6000976562</ele>
        <time>2021-05-09T07:35:37.000Z</time>
      </trkpt>
      <trkpt lat="44.35065" lon="6.85218">
        <ele>2344.6000976562</ele>
        <time>2021-05-09T07:35:41.000Z</time>
      </trkpt>
      <trkpt lat="44.35069" lon="6.85218">
        <ele>2344.6000976562</ele>
        <time>2021-05-09T07:35:42.000Z</time>
      </trkpt>
      <trkpt lat="44.35076" lon="6.85219">
        <ele>2344.8000488281</ele>
        <time>2021-05-09T07:35:47.000Z</time>
      </trkpt>
      <trkpt lat="44.35075" lon="6.8522">
        <ele>2344.6000976562</ele>
        <time>2021-05-09T07:35:51.000Z</time>
      </trkpt>
      <trkpt lat="44.35074" lon="6.85221">
        <ele>2344.6000976562</ele>
        <time>2021-05-09T07:35:53.000Z</time>
      </trkpt>
      <trkpt lat="44.3507" lon="6.85223">
        <ele>2344.6000976562</ele>
        <time>2021-05-09T07:36:06.000Z</time>
      </trkpt>
      <trkpt lat="44.3506" lon="6.85221">
        <ele>2344.6000976562</ele>
        <time>2021-05-09T07:36:14.000Z</time>
      </trkpt>
      <trkpt lat="44.35059" lon="6.85221">
        <ele>2344.6000976562</ele>
        <time>2021-05-09T07:36:16.000Z</time>
      </trkpt>
      <trkpt lat="44.3506" lon="6.85223">
        <ele>2344.6000976562</ele>
        <time>2021-05-09T07:36:23.000Z</time>
      </trkpt>
      <trkpt lat="44.35062" lon="6.85224">
        <ele>2344.6000976562</ele>
        <time>2021-05-09T07:36:26.000Z</time>
      </trkpt>
      <trkpt lat="44.35063" lon="6.85224">
        <ele>2344.6000976562</ele>
        <time>2021-05-09T07:36:27.000Z</time>
      </trkpt>
      <trkpt lat="44.35062" lon="6.85224">
        <ele>2344.6000976562</ele>
        <time>2021-05-09T07:36:28.000Z</time>
      </trkpt>
      <trkpt lat="44.35061" lon="6.85223">
        <ele>2344.6000976562</ele>
        <time>2021-05-09T07:36:30.000Z</time>
      </trkpt>
      <trkpt lat="44.35062" lon="6.85222">
        <ele>2344.6000976562</ele>
        <time>2021-05-09T07:36:32.000Z</time>
      </trkpt>
      <trkpt lat="44.35063" lon="6.85223">
        <ele>2344.6000976562</ele>
        <time>2021-05-09T07:36:34.000Z</time>
      </trkpt>
      <trkpt lat="44.35063" lon="6.85223">
        <ele>2344.6000976562</ele>
        <time>2021-05-09T07:36:35.000Z</time>
      </trkpt>
      <trkpt lat="44.35064" lon="6.85223">
        <ele>2344.8000488281</ele>
        <time>2021-05-09T07:36:36.000Z</time>
      </trkpt>
      <trkpt lat="44.35064" lon="6.85223">
        <ele>2344.8000488281</ele>
        <time>2021-05-09T07:36:37.000Z</time>
      </trkpt>
      <trkpt lat="44.35063" lon="6.85225">
        <ele>2345.1999511719</ele>
        <time>2021-05-09T07:36:39.000Z</time>
      </trkpt>
      <trkpt lat="44.35064" lon="6.85226">
        <ele>2345.1999511719</ele>
        <time>2021-05-09T07:36:41.000Z</time>
      </trkpt>
      <trkpt lat="44.35065" lon="6.85227">
        <ele>2345.1999511719</ele>
        <time>2021-05-09T07:36:43.000Z</time>
      </trkpt>
      <trkpt lat="44.35065" lon="6.85229">
        <ele>2345.3999023438</ele>
        <time>2021-05-09T07:36:45.000Z</time>
      </trkpt>
      <trkpt lat="44.35065" lon="6.85231">
        <ele>2345.6000976562</ele>
        <time>2021-05-09T07:36:47.000Z</time>
      </trkpt>
      <trkpt lat="44.35064" lon="6.85234">
        <ele>2345.8000488281</ele>
        <time>2021-05-09T07:36:50.000Z</time>
      </trkpt>
      <trkpt lat="44.35063" lon="6.85236">
        <ele>2346.1999511719</ele>
        <time>2021-05-09T07:36:52.000Z</time>
      </trkpt>
      <trkpt lat="44.35062" lon="6.85237">
        <ele>2346.3999023438</ele>
        <time>2021-05-09T07:36:54.000Z</time>
      </trkpt>
      <trkpt lat="44.35059" lon="6.85235">
        <ele>2347.3999023438</ele>
        <time>2021-05-09T07:36:59.000Z</time>
      </trkpt>
      <trkpt lat="44.35056" lon="6.85233">
        <ele>2348.1999511719</ele>
        <time>2021-05-09T07:37:07.000Z</time>
      </trkpt>
      <trkpt lat="44.35055" lon="6.85232">
        <ele>2348.3999023438</ele>
        <time>2021-05-09T07:37:08.000Z</time>
      </trkpt>
      <trkpt lat="44.35052" lon="6.85231">
        <ele>2349</ele>
        <time>2021-05-09T07:37:12.000Z</time>
      </trkpt>
      <trkpt lat="44.3505" lon="6.85232">
        <ele>2349.3999023438</ele>
        <time>2021-05-09T07:37:16.000Z</time>
      </trkpt>
      <trkpt lat="44.35048" lon="6.85232">
        <ele>2350.6000976562</ele>
        <time>2021-05-09T07:37:22.000Z</time>
      </trkpt>
      <trkpt lat="44.35046" lon="6.85233">
        <ele>2351.1999511719</ele>
        <time>2021-05-09T07:37:26.000Z</time>
      </trkpt>
      <trkpt lat="44.35041" lon="6.85233">
        <ele>2351.8000488281</ele>
        <time>2021-05-09T07:37:31.000Z</time>
      </trkpt>
      <trkpt lat="44.35039" lon="6.85233">
        <ele>2352.8000488281</ele>
        <time>2021-05-09T07:37:37.000Z</time>
      </trkpt>
      <trkpt lat="44.3504" lon="6.85238">
        <ele>2353.8000488281</ele>
        <time>2021-05-09T07:37:45.000Z</time>
      </trkpt>
      <trkpt lat="44.35041" lon="6.85244">
        <ele>2355</ele>
        <time>2021-05-09T07:37:50.000Z</time>
      </trkpt>
      <trkpt lat="44.35042" lon="6.85247">
        <ele>2355.3999023438</ele>
        <time>2021-05-09T07:37:53.000Z</time>
      </trkpt>
      <trkpt lat="44.35043" lon="6.85253">
        <ele>2356</ele>
        <time>2021-05-09T07:37:58.000Z</time>
      </trkpt>
      <trkpt lat="44.35043" lon="6.85259">
        <ele>2356.6000976562</ele>
        <time>2021-05-09T07:38:04.000Z</time>
      </trkpt>
      <trkpt lat="44.35044" lon="6.85261">
        <ele>2357</ele>
        <time>2021-05-09T07:38:07.000Z</time>
      </trkpt>
      <trkpt lat="44.35043" lon="6.85267">
        <ele>2358.1999511719</ele>
        <time>2021-05-09T07:38:16.000Z</time>
      </trkpt>
      <trkpt lat="44.35044" lon="6.85269">
        <ele>2358.8000488281</ele>
        <time>2021-05-09T07:38:19.000Z</time>
      </trkpt>
      <trkpt lat="44.35044" lon="6.85271">
        <ele>2359.3999023438</ele>
        <time>2021-05-09T07:38:22.000Z</time>
      </trkpt>
      <trkpt lat="44.35045" lon="6.85277">
        <ele>2360.3999023438</ele>
        <time>2021-05-09T07:38:27.000Z</time>
      </trkpt>
      <trkpt lat="44.35045" lon="6.85278">
        <ele>2360.3999023438</ele>
        <time>2021-05-09T07:38:28.000Z</time>
      </trkpt>
      <trkpt lat="44.35045" lon="6.85281">
        <ele>2360.8000488281</ele>
        <time>2021-05-09T07:38:30.000Z</time>
      </trkpt>
      <trkpt lat="44.35045" lon="6.85284">
        <ele>2361.1999511719</ele>
        <time>2021-05-09T07:38:32.000Z</time>
      </trkpt>
      <trkpt lat="44.35045" lon="6.85287">
        <ele>2361.6000976562</ele>
        <time>2021-05-09T07:38:35.000Z</time>
      </trkpt>
      <trkpt lat="44.35046" lon="6.85292">
        <ele>2362</ele>
        <time>2021-05-09T07:38:40.000Z</time>
      </trkpt>
      <trkpt lat="44.35047" lon="6.85299">
        <ele>2362.6000976562</ele>
        <time>2021-05-09T07:38:47.000Z</time>
      </trkpt>
      <trkpt lat="44.35047" lon="6.853">
        <ele>2362.8000488281</ele>
        <time>2021-05-09T07:38:48.000Z</time>
      </trkpt>
      <trkpt lat="44.35047" lon="6.85302">
        <ele>2362.8000488281</ele>
        <time>2021-05-09T07:38:50.000Z</time>
      </trkpt>
      <trkpt lat="44.35048" lon="6.8531">
        <ele>2363.1999511719</ele>
        <time>2021-05-09T07:39:01.000Z</time>
      </trkpt>
      <trkpt lat="44.35051" lon="6.85317">
        <ele>2363.6000976562</ele>
        <time>2021-05-09T07:39:08.000Z</time>
      </trkpt>
      <trkpt lat="44.35052" lon="6.85322">
        <ele>2363.6000976562</ele>
        <time>2021-05-09T07:39:12.000Z</time>
      </trkpt>
      <trkpt lat="44.35052" lon="6.85326">
        <ele>2364.1999511719</ele>
        <time>2021-05-09T07:39:17.000Z</time>
      </trkpt>
      <trkpt lat="44.35049" lon="6.85335">
        <ele>2364.3999023438</ele>
        <time>2021-05-09T07:39:29.000Z</time>
      </trkpt>
      <trkpt lat="44.35049" lon="6.8534">
        <ele>2364.3999023438</ele>
        <time>2021-05-09T07:39:36.000Z</time>
      </trkpt>
      <trkpt lat="44.35051" lon="6.85347">
        <ele>2364.8000488281</ele>
        <time>2021-05-09T07:39:44.000Z</time>
      </trkpt>
      <trkpt lat="44.35049" lon="6.85355">
        <ele>2365</ele>
        <time>2021-05-09T07:39:53.000Z</time>
      </trkpt>
      <trkpt lat="44.35047" lon="6.85362">
        <ele>2365.1999511719</ele>
        <time>2021-05-09T07:39:59.000Z</time>
      </trkpt>
      <trkpt lat="44.35039" lon="6.85388">
        <ele>2365.1999511719</ele>
        <time>2021-05-09T07:40:27.000Z</time>
      </trkpt>
      <trkpt lat="44.35037" lon="6.854">
        <ele>2365.8000488281</ele>
        <time>2021-05-09T07:40:38.000Z</time>
      </trkpt>
      <trkpt lat="44.35037" lon="6.85405">
        <ele>2365.8000488281</ele>
        <time>2021-05-09T07:40:42.000Z</time>
      </trkpt>
      <trkpt lat="44.35037" lon="6.85408">
        <ele>2365.8000488281</ele>
        <time>2021-05-09T07:40:44.000Z</time>
      </trkpt>
      <trkpt lat="44.35037" lon="6.85413">
        <ele>2366</ele>
        <time>2021-05-09T07:40:47.000Z</time>
      </trkpt>
      <trkpt lat="44.35036" lon="6.85416">
        <ele>2366.1999511719</ele>
        <time>2021-05-09T07:40:50.000Z</time>
      </trkpt>
      <trkpt lat="44.35036" lon="6.85419">
        <ele>2366.3999023438</ele>
        <time>2021-05-09T07:40:53.000Z</time>
      </trkpt>
      <trkpt lat="44.35035" lon="6.85421">
        <ele>2366.8000488281</ele>
        <time>2021-05-09T07:40:56.000Z</time>
      </trkpt>
      <trkpt lat="44.35035" lon="6.85421">
        <ele>2366.8000488281</ele>
        <time>2021-05-09T07:40:57.000Z</time>
      </trkpt>
      <trkpt lat="44.35034" lon="6.85424">
        <ele>2366.8000488281</ele>
        <time>2021-05-09T07:40:59.000Z</time>
      </trkpt>
      <trkpt lat="44.35027" lon="6.85441">
        <ele>2367.8000488281</ele>
        <time>2021-05-09T07:41:21.000Z</time>
      </trkpt>
      <trkpt lat="44.35027" lon="6.85452">
        <ele>2368.8000488281</ele>
        <time>2021-05-09T07:41:31.000Z</time>
      </trkpt>
      <trkpt lat="44.35027" lon="6.85458">
        <ele>2369.1999511719</ele>
        <time>2021-05-09T07:41:35.000Z</time>
      </trkpt>
      <trkpt lat="44.35026" lon="6.85469">
        <ele>2370</ele>
        <time>2021-05-09T07:41:44.000Z</time>
      </trkpt>
      <trkpt lat="44.35025" lon="6.85471">
        <ele>2370.1999511719</ele>
        <time>2021-05-09T07:41:47.000Z</time>
      </trkpt>
      <trkpt lat="44.35024" lon="6.85473">
        <ele>2370.3999023438</ele>
        <time>2021-05-09T07:41:50.000Z</time>
      </trkpt>
      <trkpt lat="44.35024" lon="6.85475">
        <ele>2370.6000976562</ele>
        <time>2021-05-09T07:41:52.000Z</time>
      </trkpt>
      <trkpt lat="44.35022" lon="6.85478">
        <ele>2371</ele>
        <time>2021-05-09T07:41:56.000Z</time>
      </trkpt>
      <trkpt lat="44.35022" lon="6.85485">
        <ele>2372</ele>
        <time>2021-05-09T07:42:02.000Z</time>
      </trkpt>
      <trkpt lat="44.35021" lon="6.85492">
        <ele>2372.3999023438</ele>
        <time>2021-05-09T07:42:07.000Z</time>
      </trkpt>
      <trkpt lat="44.3502" lon="6.85501">
        <ele>2373</ele>
        <time>2021-05-09T07:42:14.000Z</time>
      </trkpt>
      <trkpt lat="44.35019" lon="6.85503">
        <ele>2373.1999511719</ele>
        <time>2021-05-09T07:42:16.000Z</time>
      </trkpt>
      <trkpt lat="44.35018" lon="6.85505">
        <ele>2373.3999023438</ele>
        <time>2021-05-09T07:42:18.000Z</time>
      </trkpt>
      <trkpt lat="44.35016" lon="6.8551">
        <ele>2373.8000488281</ele>
        <time>2021-05-09T07:42:23.000Z</time>
      </trkpt>
      <trkpt lat="44.35016" lon="6.85512">
        <ele>2374</ele>
        <time>2021-05-09T07:42:25.000Z</time>
      </trkpt>
      <trkpt lat="44.35015" lon="6.85527">
        <ele>2375</ele>
        <time>2021-05-09T07:42:39.000Z</time>
      </trkpt>
      <trkpt lat="44.35015" lon="6.85528">
        <ele>2375</ele>
        <time>2021-05-09T07:42:40.000Z</time>
      </trkpt>
      <trkpt lat="44.35014" lon="6.85534">
        <ele>2375.3999023438</ele>
        <time>2021-05-09T07:42:46.000Z</time>
      </trkpt>
      <trkpt lat="44.35013" lon="6.85537">
        <ele>2375.3999023438</ele>
        <time>2021-05-09T07:42:48.000Z</time>
      </trkpt>
      <trkpt lat="44.35013" lon="6.85539">
        <ele>2375.8000488281</ele>
        <time>2021-05-09T07:42:51.000Z</time>
      </trkpt>
      <trkpt lat="44.35011" lon="6.85548">
        <ele>2376.1999511719</ele>
        <time>2021-05-09T07:43:00.000Z</time>
      </trkpt>
      <trkpt lat="44.35012" lon="6.85567">
        <ele>2376.8000488281</ele>
        <time>2021-05-09T07:43:17.000Z</time>
      </trkpt>
      <trkpt lat="44.35012" lon="6.85569">
        <ele>2377</ele>
        <time>2021-05-09T07:43:19.000Z</time>
      </trkpt>
      <trkpt lat="44.35013" lon="6.8557">
        <ele>2377.1999511719</ele>
        <time>2021-05-09T07:43:21.000Z</time>
      </trkpt>
      <trkpt lat="44.35013" lon="6.85571">
        <ele>2377.1999511719</ele>
        <time>2021-05-09T07:43:22.000Z</time>
      </trkpt>
      <trkpt lat="44.35014" lon="6.85574">
        <ele>2377.6000976562</ele>
        <time>2021-05-09T07:43:24.000Z</time>
      </trkpt>
      <trkpt lat="44.35012" lon="6.85586">
        <ele>2378.1999511719</ele>
        <time>2021-05-09T07:43:35.000Z</time>
      </trkpt>
      <trkpt lat="44.35012" lon="6.85589">
        <ele>2378.3999023438</ele>
        <time>2021-05-09T07:43:37.000Z</time>
      </trkpt>
      <trkpt lat="44.35012" lon="6.85603">
        <ele>2379</ele>
        <time>2021-05-09T07:43:51.000Z</time>
      </trkpt>
      <trkpt lat="44.35011" lon="6.85604">
        <ele>2379</ele>
        <time>2021-05-09T07:43:52.000Z</time>
      </trkpt>
      <trkpt lat="44.35011" lon="6.85605">
        <ele>2379.1999511719</ele>
        <time>2021-05-09T07:43:54.000Z</time>
      </trkpt>
      <trkpt lat="44.35011" lon="6.85619">
        <ele>2380.1999511719</ele>
        <time>2021-05-09T07:44:08.000Z</time>
      </trkpt>
      <trkpt lat="44.35011" lon="6.85625">
        <ele>2381.1999511719</ele>
        <time>2021-05-09T07:44:14.000Z</time>
      </trkpt>
      <trkpt lat="44.35011" lon="6.85629">
        <ele>2382</ele>
        <time>2021-05-09T07:44:18.000Z</time>
      </trkpt>
      <trkpt lat="44.35015" lon="6.85639">
        <ele>2382.3999023438</ele>
        <time>2021-05-09T07:44:26.000Z</time>
      </trkpt>
      <trkpt lat="44.35012" lon="6.85651">
        <ele>2383.3999023438</ele>
        <time>2021-05-09T07:44:39.000Z</time>
      </trkpt>
      <trkpt lat="44.35008" lon="6.85659">
        <ele>2384.3999023438</ele>
        <time>2021-05-09T07:44:49.000Z</time>
      </trkpt>
      <trkpt lat="44.35004" lon="6.85664">
        <ele>2385.6000976562</ele>
        <time>2021-05-09T07:44:56.000Z</time>
      </trkpt>
      <trkpt lat="44.35005" lon="6.85673">
        <ele>2386.6000976562</ele>
        <time>2021-05-09T07:45:05.000Z</time>
      </trkpt>
      <trkpt lat="44.35006" lon="6.85675">
        <ele>2387.3999023438</ele>
        <time>2021-05-09T07:45:09.000Z</time>
      </trkpt>
      <trkpt lat="44.35007" lon="6.85676">
        <ele>2388</ele>
        <time>2021-05-09T07:45:11.000Z</time>
      </trkpt>
      <trkpt lat="44.35008" lon="6.85684">
        <ele>2389</ele>
        <time>2021-05-09T07:45:21.000Z</time>
      </trkpt>
      <trkpt lat="44.35009" lon="6.85693">
        <ele>2390.1999511719</ele>
        <time>2021-05-09T07:45:30.000Z</time>
      </trkpt>
      <trkpt lat="44.35011" lon="6.85701">
        <ele>2391.1999511719</ele>
        <time>2021-05-09T07:45:38.000Z</time>
      </trkpt>
      <trkpt lat="44.35012" lon="6.85707">
        <ele>2392.1999511719</ele>
        <time>2021-05-09T07:45:43.000Z</time>
      </trkpt>
      <trkpt lat="44.35008" lon="6.85713">
        <ele>2393.1999511719</ele>
        <time>2021-05-09T07:45:49.000Z</time>
      </trkpt>
      <trkpt lat="44.35008" lon="6.85724">
        <ele>2394.3999023438</ele>
        <time>2021-05-09T07:45:58.000Z</time>
      </trkpt>
      <trkpt lat="44.35008" lon="6.85735">
        <ele>2395.6000976562</ele>
        <time>2021-05-09T07:46:08.000Z</time>
      </trkpt>
      <trkpt lat="44.35005" lon="6.8575">
        <ele>2394.8000488281</ele>
        <time>2021-05-09T07:46:23.000Z</time>
      </trkpt>
      <trkpt lat="44.35004" lon="6.85753">
        <ele>2394.3999023438</ele>
        <time>2021-05-09T07:46:24.000Z</time>
      </trkpt>
      <trkpt lat="44.35003" lon="6.85755">
        <ele>2393.1999511719</ele>
        <time>2021-05-09T07:46:29.000Z</time>
      </trkpt>
      <trkpt lat="44.35003" lon="6.85758">
        <ele>2393.3999023438</ele>
        <time>2021-05-09T07:46:33.000Z</time>
      </trkpt>
      <trkpt lat="44.35003" lon="6.8576">
        <ele>2393.6000976562</ele>
        <time>2021-05-09T07:46:35.000Z</time>
      </trkpt>
      <trkpt lat="44.35006" lon="6.85762">
        <ele>2394.3999023438</ele>
        <time>2021-05-09T07:46:39.000Z</time>
      </trkpt>
      <trkpt lat="44.35009" lon="6.85763">
        <ele>2394.8000488281</ele>
        <time>2021-05-09T07:46:42.000Z</time>
      </trkpt>
      <trkpt lat="44.35008" lon="6.85763">
        <ele>2395.3999023438</ele>
        <time>2021-05-09T07:46:46.000Z</time>
      </trkpt>
      <trkpt lat="44.35008" lon="6.85763">
        <ele>2395.6000976562</ele>
        <time>2021-05-09T07:46:47.000Z</time>
      </trkpt>
      <trkpt lat="44.3501" lon="6.85765">
        <ele>2396</ele>
        <time>2021-05-09T07:46:50.000Z</time>
      </trkpt>
      <trkpt lat="44.35011" lon="6.85766">
        <ele>2396.6000976562</ele>
        <time>2021-05-09T07:46:52.000Z</time>
      </trkpt>
      <trkpt lat="44.35011" lon="6.85767">
        <ele>2396.8000488281</ele>
        <time>2021-05-09T07:46:53.000Z</time>
      </trkpt>
      <trkpt lat="44.35014" lon="6.85769">
        <ele>2397.3999023438</ele>
        <time>2021-05-09T07:47:00.000Z</time>
      </trkpt>
      <trkpt lat="44.35015" lon="6.8577">
        <ele>2397.8000488281</ele>
        <time>2021-05-09T07:47:02.000Z</time>
      </trkpt>
      <trkpt lat="44.35017" lon="6.85777">
        <ele>2398.3999023438</ele>
        <time>2021-05-09T07:47:09.000Z</time>
      </trkpt>
      <trkpt lat="44.35018" lon="6.85779">
        <ele>2398.6000976562</ele>
        <time>2021-05-09T07:47:11.000Z</time>
      </trkpt>
      <trkpt lat="44.35019" lon="6.85779">
        <ele>2398.8000488281</ele>
        <time>2021-05-09T07:47:12.000Z</time>
      </trkpt>
      <trkpt lat="44.35021" lon="6.85782">
        <ele>2399.3999023438</ele>
        <time>2021-05-09T07:47:16.000Z</time>
      </trkpt>
      <trkpt lat="44.35022" lon="6.85784">
        <ele>2399.8000488281</ele>
        <time>2021-05-09T07:47:18.000Z</time>
      </trkpt>
      <trkpt lat="44.35023" lon="6.85789">
        <ele>2400.3999023438</ele>
        <time>2021-05-09T07:47:24.000Z</time>
      </trkpt>
      <trkpt lat="44.35024" lon="6.85789">
        <ele>2400.1999511719</ele>
        <time>2021-05-09T07:47:28.000Z</time>
      </trkpt>
      <trkpt lat="44.35023" lon="6.85788">
        <ele>2400</ele>
        <time>2021-05-09T07:47:32.000Z</time>
      </trkpt>
      <trkpt lat="44.35025" lon="6.85788">
        <ele>2400.3999023438</ele>
        <time>2021-05-09T07:47:38.000Z</time>
      </trkpt>
      <trkpt lat="44.35028" lon="6.85787">
        <ele>2400.3999023438</ele>
        <time>2021-05-09T07:47:42.000Z</time>
      </trkpt>
      <trkpt lat="44.35034" lon="6.85791">
        <ele>2400.6000976562</ele>
        <time>2021-05-09T07:47:45.000Z</time>
      </trkpt>
      <trkpt lat="44.35033" lon="6.85793">
        <ele>2400.3999023438</ele>
        <time>2021-05-09T07:47:52.000Z</time>
      </trkpt>
      <trkpt lat="44.35032" lon="6.85794">
        <ele>2400.3999023438</ele>
        <time>2021-05-09T07:47:54.000Z</time>
      </trkpt>
      <trkpt lat="44.35032" lon="6.85796">
        <ele>2400.8000488281</ele>
        <time>2021-05-09T07:47:57.000Z</time>
      </trkpt>
      <trkpt lat="44.35031" lon="6.85796">
        <ele>2401</ele>
        <time>2021-05-09T07:47:58.000Z</time>
      </trkpt>
      <trkpt lat="44.35029" lon="6.85797">
        <ele>2401.1999511719</ele>
        <time>2021-05-09T07:47:59.000Z</time>
      </trkpt>
      <trkpt lat="44.35026" lon="6.85799">
        <ele>2401.3999023438</ele>
        <time>2021-05-09T07:48:03.000Z</time>
      </trkpt>
      <trkpt lat="44.35022" lon="6.858">
        <ele>2402</ele>
        <time>2021-05-09T07:48:08.000Z</time>
      </trkpt>
      <trkpt lat="44.35021" lon="6.85808">
        <ele>2403</ele>
        <time>2021-05-09T07:48:17.000Z</time>
      </trkpt>
      <trkpt lat="44.35024" lon="6.85811">
        <ele>2403.3999023438</ele>
        <time>2021-05-09T07:48:20.000Z</time>
      </trkpt>
      <trkpt lat="44.35025" lon="6.85814">
        <ele>2403.8000488281</ele>
        <time>2021-05-09T07:48:23.000Z</time>
      </trkpt>
      <trkpt lat="44.35026" lon="6.85818">
        <ele>2404.1999511719</ele>
        <time>2021-05-09T07:48:27.000Z</time>
      </trkpt>
      <trkpt lat="44.35028" lon="6.85824">
        <ele>2405.3999023438</ele>
        <time>2021-05-09T07:48:34.000Z</time>
      </trkpt>
      <trkpt lat="44.35027" lon="6.85833">
        <ele>2406.3999023438</ele>
        <time>2021-05-09T07:48:45.000Z</time>
      </trkpt>
      <trkpt lat="44.35027" lon="6.85838">
        <ele>2406.8000488281</ele>
        <time>2021-05-09T07:48:49.000Z</time>
      </trkpt>
      <trkpt lat="44.35031" lon="6.85845">
        <ele>2407.6000976562</ele>
        <time>2021-05-09T07:48:55.000Z</time>
      </trkpt>
      <trkpt lat="44.35032" lon="6.8585">
        <ele>2408.8000488281</ele>
        <time>2021-05-09T07:49:02.000Z</time>
      </trkpt>
      <trkpt lat="44.35035" lon="6.85853">
        <ele>2409.1999511719</ele>
        <time>2021-05-09T07:49:05.000Z</time>
      </trkpt>
      <trkpt lat="44.35037" lon="6.85855">
        <ele>2409.8000488281</ele>
        <time>2021-05-09T07:49:09.000Z</time>
      </trkpt>
      <trkpt lat="44.35039" lon="6.85861">
        <ele>2410.8000488281</ele>
        <time>2021-05-09T07:49:16.000Z</time>
      </trkpt>
      <trkpt lat="44.35039" lon="6.85862">
        <ele>2410.8000488281</ele>
        <time>2021-05-09T07:49:17.000Z</time>
      </trkpt>
      <trkpt lat="44.35029" lon="6.8586">
        <ele>2411.3999023438</ele>
        <time>2021-05-09T07:49:40.000Z</time>
      </trkpt>
      <trkpt lat="44.35029" lon="6.85862">
        <ele>2411.3999023438</ele>
        <time>2021-05-09T07:49:42.000Z</time>
      </trkpt>
      <trkpt lat="44.35035" lon="6.85871">
        <ele>2411.8000488281</ele>
        <time>2021-05-09T07:49:50.000Z</time>
      </trkpt>
      <trkpt lat="44.35034" lon="6.85873">
        <ele>2411.8000488281</ele>
        <time>2021-05-09T07:49:51.000Z</time>
      </trkpt>
      <trkpt lat="44.35035" lon="6.85874">
        <ele>2412</ele>
        <time>2021-05-09T07:49:52.000Z</time>
      </trkpt>
      <trkpt lat="44.35037" lon="6.85879">
        <ele>2413</ele>
        <time>2021-05-09T07:49:58.000Z</time>
      </trkpt>
      <trkpt lat="44.35037" lon="6.8588">
        <ele>2413</ele>
        <time>2021-05-09T07:49:59.000Z</time>
      </trkpt>
      <trkpt lat="44.35037" lon="6.85882">
        <ele>2413.1999511719</ele>
        <time>2021-05-09T07:50:01.000Z</time>
      </trkpt>
      <trkpt lat="44.35038" lon="6.85883">
        <ele>2413.6000976562</ele>
        <time>2021-05-09T07:50:03.000Z</time>
      </trkpt>
      <trkpt lat="44.3504" lon="6.85887">
        <ele>2414</ele>
        <time>2021-05-09T07:50:06.000Z</time>
      </trkpt>
      <trkpt lat="44.35041" lon="6.85889">
        <ele>2414.3999023438</ele>
        <time>2021-05-09T07:50:08.000Z</time>
      </trkpt>
      <trkpt lat="44.35042" lon="6.85893">
        <ele>2414.6000976562</ele>
        <time>2021-05-09T07:50:12.000Z</time>
      </trkpt>
      <trkpt lat="44.35042" lon="6.85896">
        <ele>2415.1999511719</ele>
        <time>2021-05-09T07:50:15.000Z</time>
      </trkpt>
      <trkpt lat="44.35037" lon="6.85901">
        <ele>2416.3999023438</ele>
        <time>2021-05-09T07:50:23.000Z</time>
      </trkpt>
      <trkpt lat="44.35036" lon="6.85903">
        <ele>2416.8000488281</ele>
        <time>2021-05-09T07:50:26.000Z</time>
      </trkpt>
      <trkpt lat="44.35037" lon="6.85906">
        <ele>2416.8000488281</ele>
        <time>2021-05-09T07:50:29.000Z</time>
      </trkpt>
      <trkpt lat="44.35039" lon="6.85909">
        <ele>2417</ele>
        <time>2021-05-09T07:50:33.000Z</time>
      </trkpt>
      <trkpt lat="44.3504" lon="6.85914">
        <ele>2417.1999511719</ele>
        <time>2021-05-09T07:50:36.000Z</time>
      </trkpt>
      <trkpt lat="44.3504" lon="6.85917">
        <ele>2417.3999023438</ele>
        <time>2021-05-09T07:50:40.000Z</time>
      </trkpt>
      <trkpt lat="44.35039" lon="6.85921">
        <ele>2417.6000976562</ele>
        <time>2021-05-09T07:50:44.000Z</time>
      </trkpt>
      <trkpt lat="44.35034" lon="6.85926">
        <ele>2418</ele>
        <time>2021-05-09T07:50:51.000Z</time>
      </trkpt>
      <trkpt lat="44.35033" lon="6.85928">
        <ele>2418</ele>
        <time>2021-05-09T07:50:53.000Z</time>
      </trkpt>
      <trkpt lat="44.35031" lon="6.8593">
        <ele>2418.3999023438</ele>
        <time>2021-05-09T07:50:56.000Z</time>
      </trkpt>
      <trkpt lat="44.3503" lon="6.85932">
        <ele>2418.6000976562</ele>
        <time>2021-05-09T07:50:58.000Z</time>
      </trkpt>
      <trkpt lat="44.35031" lon="6.85933">
        <ele>2418.8000488281</ele>
        <time>2021-05-09T07:51:00.000Z</time>
      </trkpt>
      <trkpt lat="44.35029" lon="6.85937">
        <ele>2419.1999511719</ele>
        <time>2021-05-09T07:51:04.000Z</time>
      </trkpt>
      <trkpt lat="44.35029" lon="6.85939">
        <ele>2419.3999023438</ele>
        <time>2021-05-09T07:51:06.000Z</time>
      </trkpt>
      <trkpt lat="44.35033" lon="6.85956">
        <ele>2420.3999023438</ele>
        <time>2021-05-09T07:51:20.000Z</time>
      </trkpt>
      <trkpt lat="44.35032" lon="6.8596">
        <ele>2421</ele>
        <time>2021-05-09T07:51:24.000Z</time>
      </trkpt>
      <trkpt lat="44.35031" lon="6.85963">
        <ele>2421</ele>
        <time>2021-05-09T07:51:26.000Z</time>
      </trkpt>
      <trkpt lat="44.35032" lon="6.8597">
        <ele>2421</ele>
        <time>2021-05-09T07:51:34.000Z</time>
      </trkpt>
      <trkpt lat="44.35031" lon="6.85974">
        <ele>2421</ele>
        <time>2021-05-09T07:51:38.000Z</time>
      </trkpt>
      <trkpt lat="44.3503" lon="6.85978">
        <ele>2420.8000488281</ele>
        <time>2021-05-09T07:51:40.000Z</time>
      </trkpt>
      <trkpt lat="44.35029" lon="6.8598">
        <ele>2420.8000488281</ele>
        <time>2021-05-09T07:51:42.000Z</time>
      </trkpt>
      <trkpt lat="44.35026" lon="6.85986">
        <ele>2420.3999023438</ele>
        <time>2021-05-09T07:51:47.000Z</time>
      </trkpt>
      <trkpt lat="44.35022" lon="6.85998">
        <ele>2419.1999511719</ele>
        <time>2021-05-09T07:51:53.000Z</time>
      </trkpt>
      <trkpt lat="44.35024" lon="6.86002">
        <ele>2418.8000488281</ele>
        <time>2021-05-09T07:51:55.000Z</time>
      </trkpt>
      <trkpt lat="44.35021" lon="6.86009">
        <ele>2418.3999023438</ele>
        <time>2021-05-09T07:52:02.000Z</time>
      </trkpt>
      <trkpt lat="44.3502" lon="6.86013">
        <ele>2418.3999023438</ele>
        <time>2021-05-09T07:52:06.000Z</time>
      </trkpt>
      <trkpt lat="44.3502" lon="6.86014">
        <ele>2418.6000976562</ele>
        <time>2021-05-09T07:52:08.000Z</time>
      </trkpt>
      <trkpt lat="44.35019" lon="6.86015">
        <ele>2418.6000976562</ele>
        <time>2021-05-09T07:52:09.000Z</time>
      </trkpt>
      <trkpt lat="44.35018" lon="6.86018">
        <ele>2419</ele>
        <time>2021-05-09T07:52:12.000Z</time>
      </trkpt>
      <trkpt lat="44.35019" lon="6.8602">
        <ele>2419</ele>
        <time>2021-05-09T07:52:13.000Z</time>
      </trkpt>
      <trkpt lat="44.35019" lon="6.86021">
        <ele>2419</ele>
        <time>2021-05-09T07:52:15.000Z</time>
      </trkpt>
      <trkpt lat="44.35019" lon="6.86023">
        <ele>2419</ele>
        <time>2021-05-09T07:52:17.000Z</time>
      </trkpt>
      <trkpt lat="44.35021" lon="6.86026">
        <ele>2419.1999511719</ele>
        <time>2021-05-09T07:52:19.000Z</time>
      </trkpt>
      <trkpt lat="44.35018" lon="6.86031">
        <ele>2419.1999511719</ele>
        <time>2021-05-09T07:52:24.000Z</time>
      </trkpt>
      <trkpt lat="44.35018" lon="6.86033">
        <ele>2419.3999023438</ele>
        <time>2021-05-09T07:52:27.000Z</time>
      </trkpt>
      <trkpt lat="44.35018" lon="6.86037">
        <ele>2420</ele>
        <time>2021-05-09T07:52:32.000Z</time>
      </trkpt>
      <trkpt lat="44.35018" lon="6.86037">
        <ele>2420</ele>
        <time>2021-05-09T07:52:33.000Z</time>
      </trkpt>
      <trkpt lat="44.3502" lon="6.86039">
        <ele>2420.3999023438</ele>
        <time>2021-05-09T07:52:36.000Z</time>
      </trkpt>
      <trkpt lat="44.35021" lon="6.86043">
        <ele>2421.6000976562</ele>
        <time>2021-05-09T07:52:41.000Z</time>
      </trkpt>
      <trkpt lat="44.35019" lon="6.86046">
        <ele>2422.3999023438</ele>
        <time>2021-05-09T07:52:49.000Z</time>
      </trkpt>
      <trkpt lat="44.35019" lon="6.86047">
        <ele>2422.6000976562</ele>
        <time>2021-05-09T07:52:50.000Z</time>
      </trkpt>
      <trkpt lat="44.35019" lon="6.86049">
        <ele>2423</ele>
        <time>2021-05-09T07:52:54.000Z</time>
      </trkpt>
      <trkpt lat="44.35016" lon="6.8605">
        <ele>2423.3999023438</ele>
        <time>2021-05-09T07:52:58.000Z</time>
      </trkpt>
      <trkpt lat="44.35016" lon="6.8605">
        <ele>2423.6000976562</ele>
        <time>2021-05-09T07:52:59.000Z</time>
      </trkpt>
      <trkpt lat="44.35015" lon="6.86066">
        <ele>2424.3999023438</ele>
        <time>2021-05-09T07:53:11.000Z</time>
      </trkpt>
      <trkpt lat="44.35015" lon="6.86073">
        <ele>2424.6000976562</ele>
        <time>2021-05-09T07:53:19.000Z</time>
      </trkpt>
      <trkpt lat="44.35019" lon="6.86083">
        <ele>2425.3999023438</ele>
        <time>2021-05-09T07:53:28.000Z</time>
      </trkpt>
      <trkpt lat="44.35021" lon="6.86086">
        <ele>2425.6000976562</ele>
        <time>2021-05-09T07:53:31.000Z</time>
      </trkpt>
      <trkpt lat="44.35022" lon="6.86094">
        <ele>2426.1999511719</ele>
        <time>2021-05-09T07:53:38.000Z</time>
      </trkpt>
      <trkpt lat="44.35022" lon="6.86098">
        <ele>2426.8000488281</ele>
        <time>2021-05-09T07:53:42.000Z</time>
      </trkpt>
      <trkpt lat="44.35028" lon="6.86106">
        <ele>2427.1999511719</ele>
        <time>2021-05-09T07:53:48.000Z</time>
      </trkpt>
      <trkpt lat="44.35032" lon="6.86109">
        <ele>2427.8000488281</ele>
        <time>2021-05-09T07:53:53.000Z</time>
      </trkpt>
      <trkpt lat="44.35033" lon="6.86109">
        <ele>2427.8000488281</ele>
        <time>2021-05-09T07:53:54.000Z</time>
      </trkpt>
      <trkpt lat="44.3503" lon="6.86102">
        <ele>2428.1999511719</ele>
        <time>2021-05-09T07:54:01.000Z</time>
      </trkpt>
      <trkpt lat="44.35029" lon="6.86103">
        <ele>2428.1999511719</ele>
        <time>2021-05-09T07:54:03.000Z</time>
      </trkpt>
      <trkpt lat="44.35031" lon="6.86106">
        <ele>2428.8000488281</ele>
        <time>2021-05-09T07:54:08.000Z</time>
      </trkpt>
      <trkpt lat="44.35031" lon="6.86107">
        <ele>2429</ele>
        <time>2021-05-09T07:54:09.000Z</time>
      </trkpt>
      <trkpt lat="44.35032" lon="6.86108">
        <ele>2429</ele>
        <time>2021-05-09T07:54:10.000Z</time>
      </trkpt>
      <trkpt lat="44.35033" lon="6.86109">
        <ele>2429.1999511719</ele>
        <time>2021-05-09T07:54:11.000Z</time>
      </trkpt>
      <trkpt lat="44.35033" lon="6.86111">
        <ele>2429.3999023438</ele>
        <time>2021-05-09T07:54:12.000Z</time>
      </trkpt>
      <trkpt lat="44.35036" lon="6.86116">
        <ele>2430</ele>
        <time>2021-05-09T07:54:15.000Z</time>
      </trkpt>
      <trkpt lat="44.35038" lon="6.86117">
        <ele>2430.1999511719</ele>
        <time>2021-05-09T07:54:17.000Z</time>
      </trkpt>
      <trkpt lat="44.3504" lon="6.8612">
        <ele>2430.3999023438</ele>
        <time>2021-05-09T07:54:19.000Z</time>
      </trkpt>
      <trkpt lat="44.35043" lon="6.86123">
        <ele>2430.8000488281</ele>
        <time>2021-05-09T07:54:21.000Z</time>
      </trkpt>
      <trkpt lat="44.35046" lon="6.86127">
        <ele>2431</ele>
        <time>2021-05-09T07:54:24.000Z</time>
      </trkpt>
      <trkpt lat="44.35045" lon="6.86128">
        <ele>2431.1999511719</ele>
        <time>2021-05-09T07:54:25.000Z</time>
      </trkpt>
      <trkpt lat="44.35037" lon="6.8613">
        <ele>2432</ele>
        <time>2021-05-09T07:54:35.000Z</time>
      </trkpt>
      <trkpt lat="44.3504" lon="6.86135">
        <ele>2433</ele>
        <time>2021-05-09T07:54:44.000Z</time>
      </trkpt>
      <trkpt lat="44.35045" lon="6.86141">
        <ele>2433.6000976562</ele>
        <time>2021-05-09T07:54:50.000Z</time>
      </trkpt>
      <trkpt lat="44.35051" lon="6.86151">
        <ele>2434.1999511719</ele>
        <time>2021-05-09T07:54:58.000Z</time>
      </trkpt>
      <trkpt lat="44.35056" lon="6.86156">
        <ele>2435</ele>
        <time>2021-05-09T07:55:05.000Z</time>
      </trkpt>
      <trkpt lat="44.35056" lon="6.86156">
        <ele>2435.1999511719</ele>
        <time>2021-05-09T07:55:06.000Z</time>
      </trkpt>
      <trkpt lat="44.35058" lon="6.86157">
        <ele>2435.3999023438</ele>
        <time>2021-05-09T07:55:08.000Z</time>
      </trkpt>
      <trkpt lat="44.35059" lon="6.86158">
        <ele>2435.6000976562</ele>
        <time>2021-05-09T07:55:10.000Z</time>
      </trkpt>
      <trkpt lat="44.3506" lon="6.86159">
        <ele>2435.8000488281</ele>
        <time>2021-05-09T07:55:12.000Z</time>
      </trkpt>
      <trkpt lat="44.35061" lon="6.86163">
        <ele>2436.3999023438</ele>
        <time>2021-05-09T07:55:18.000Z</time>
      </trkpt>
      <trkpt lat="44.35063" lon="6.86167">
        <ele>2436.8000488281</ele>
        <time>2021-05-09T07:55:21.000Z</time>
      </trkpt>
      <trkpt lat="44.35062" lon="6.86171">
        <ele>2437.6000976562</ele>
        <time>2021-05-09T07:55:25.000Z</time>
      </trkpt>
      <trkpt lat="44.35055" lon="6.8617">
        <ele>2438.6000976562</ele>
        <time>2021-05-09T07:55:31.000Z</time>
      </trkpt>
      <trkpt lat="44.35053" lon="6.8617">
        <ele>2438.8000488281</ele>
        <time>2021-05-09T07:55:33.000Z</time>
      </trkpt>
      <trkpt lat="44.35051" lon="6.8617">
        <ele>2439.1999511719</ele>
        <time>2021-05-09T07:55:35.000Z</time>
      </trkpt>
      <trkpt lat="44.3505" lon="6.8617">
        <ele>2439.3999023438</ele>
        <time>2021-05-09T07:55:36.000Z</time>
      </trkpt>
      <trkpt lat="44.35049" lon="6.8617">
        <ele>2439.6000976562</ele>
        <time>2021-05-09T07:55:37.000Z</time>
      </trkpt>
      <trkpt lat="44.35052" lon="6.86173">
        <ele>2440</ele>
        <time>2021-05-09T07:55:40.000Z</time>
      </trkpt>
      <trkpt lat="44.35054" lon="6.86177">
        <ele>2440</ele>
        <time>2021-05-09T07:55:42.000Z</time>
      </trkpt>
      <trkpt lat="44.35054" lon="6.86178">
        <ele>2440.3999023438</ele>
        <time>2021-05-09T07:55:44.000Z</time>
      </trkpt>
      <trkpt lat="44.35055" lon="6.86179">
        <ele>2440.8000488281</ele>
        <time>2021-05-09T07:55:46.000Z</time>
      </trkpt>
      <trkpt lat="44.35056" lon="6.8618">
        <ele>2441</ele>
        <time>2021-05-09T07:55:47.000Z</time>
      </trkpt>
      <trkpt lat="44.35057" lon="6.86181">
        <ele>2441.3999023438</ele>
        <time>2021-05-09T07:55:49.000Z</time>
      </trkpt>
      <trkpt lat="44.35057" lon="6.86181">
        <ele>2441.8000488281</ele>
        <time>2021-05-09T07:55:50.000Z</time>
      </trkpt>
      <trkpt lat="44.35061" lon="6.86183">
        <ele>2442.6000976562</ele>
        <time>2021-05-09T07:55:58.000Z</time>
      </trkpt>
      <trkpt lat="44.35062" lon="6.86183">
        <ele>2442.8000488281</ele>
        <time>2021-05-09T07:56:00.000Z</time>
      </trkpt>
      <trkpt lat="44.35066" lon="6.86186">
        <ele>2443.8000488281</ele>
        <time>2021-05-09T07:56:07.000Z</time>
      </trkpt>
      <trkpt lat="44.3507" lon="6.86193">
        <ele>2444.8000488281</ele>
        <time>2021-05-09T07:56:18.000Z</time>
      </trkpt>
      <trkpt lat="44.35073" lon="6.86195">
        <ele>2446</ele>
        <time>2021-05-09T07:56:24.000Z</time>
      </trkpt>
      <trkpt lat="44.35075" lon="6.86195">
        <ele>2446.3999023438</ele>
        <time>2021-05-09T07:56:29.000Z</time>
      </trkpt>
      <trkpt lat="44.35077" lon="6.86195">
        <ele>2447</ele>
        <time>2021-05-09T07:56:32.000Z</time>
      </trkpt>
      <trkpt lat="44.35084" lon="6.86197">
        <ele>2447.8000488281</ele>
        <time>2021-05-09T07:56:37.000Z</time>
      </trkpt>
      <trkpt lat="44.35086" lon="6.862">
        <ele>2448</ele>
        <time>2021-05-09T07:56:41.000Z</time>
      </trkpt>
      <trkpt lat="44.35092" lon="6.86206">
        <ele>2448.3999023438</ele>
        <time>2021-05-09T07:56:49.000Z</time>
      </trkpt>
      <trkpt lat="44.35093" lon="6.86208">
        <ele>2448.6000976562</ele>
        <time>2021-05-09T07:56:50.000Z</time>
      </trkpt>
      <trkpt lat="44.35092" lon="6.86209">
        <ele>2448.6000976562</ele>
        <time>2021-05-09T07:56:51.000Z</time>
      </trkpt>
      <trkpt lat="44.35093" lon="6.8621">
        <ele>2448.8000488281</ele>
        <time>2021-05-09T07:56:52.000Z</time>
      </trkpt>
      <trkpt lat="44.35093" lon="6.86212">
        <ele>2449.1999511719</ele>
        <time>2021-05-09T07:56:54.000Z</time>
      </trkpt>
      <trkpt lat="44.35091" lon="6.86217">
        <ele>2450</ele>
        <time>2021-05-09T07:56:59.000Z</time>
      </trkpt>
      <trkpt lat="44.3509" lon="6.86218">
        <ele>2450.1999511719</ele>
        <time>2021-05-09T07:57:00.000Z</time>
      </trkpt>
      <trkpt lat="44.35087" lon="6.86217">
        <ele>2450.1999511719</ele>
        <time>2021-05-09T07:57:02.000Z</time>
      </trkpt>
      <trkpt lat="44.35087" lon="6.86223">
        <ele>2450.8000488281</ele>
        <time>2021-05-09T07:57:09.000Z</time>
      </trkpt>
      <trkpt lat="44.35088" lon="6.86224">
        <ele>2451</ele>
        <time>2021-05-09T07:57:10.000Z</time>
      </trkpt>
      <trkpt lat="44.35089" lon="6.86226">
        <ele>2451.1999511719</ele>
        <time>2021-05-09T07:57:12.000Z</time>
      </trkpt>
      <trkpt lat="44.35091" lon="6.86229">
        <ele>2452.3999023438</ele>
        <time>2021-05-09T07:57:18.000Z</time>
      </trkpt>
      <trkpt lat="44.35095" lon="6.86234">
        <ele>2452.8000488281</ele>
        <time>2021-05-09T07:57:21.000Z</time>
      </trkpt>
      <trkpt lat="44.35099" lon="6.86238">
        <ele>2453</ele>
        <time>2021-05-09T07:57:23.000Z</time>
      </trkpt>
      <trkpt lat="44.35101" lon="6.86239">
        <ele>2453</ele>
        <time>2021-05-09T07:57:27.000Z</time>
      </trkpt>
      <trkpt lat="44.35098" lon="6.86238">
        <ele>2453.1999511719</ele>
        <time>2021-05-09T07:57:31.000Z</time>
      </trkpt>
      <trkpt lat="44.35096" lon="6.86233">
        <ele>2453.1999511719</ele>
        <time>2021-05-09T07:57:41.000Z</time>
      </trkpt>
      <trkpt lat="44.35095" lon="6.8623">
        <ele>2453.1999511719</ele>
        <time>2021-05-09T07:57:54.000Z</time>
      </trkpt>
      <trkpt lat="44.35096" lon="6.86231">
        <ele>2453.1999511719</ele>
        <time>2021-05-09T07:57:55.000Z</time>
      </trkpt>
      <trkpt lat="44.35096" lon="6.86231">
        <ele>2453.1999511719</ele>
        <time>2021-05-09T07:57:56.000Z</time>
      </trkpt>
      <trkpt lat="44.35098" lon="6.8623">
        <ele>2453.1999511719</ele>
        <time>2021-05-09T07:57:59.000Z</time>
      </trkpt>
      <trkpt lat="44.35098" lon="6.8623">
        <ele>2453.1999511719</ele>
        <time>2021-05-09T07:58:00.000Z</time>
      </trkpt>
      <trkpt lat="44.35096" lon="6.86232">
        <ele>2453.1999511719</ele>
        <time>2021-05-09T07:58:08.000Z</time>
      </trkpt>
      <trkpt lat="44.35097" lon="6.86236">
        <ele>2453.1999511719</ele>
        <time>2021-05-09T07:58:11.000Z</time>
      </trkpt>
      <trkpt lat="44.35098" lon="6.86236">
        <ele>2453.3999023438</ele>
        <time>2021-05-09T07:58:13.000Z</time>
      </trkpt>
      <trkpt lat="44.35101" lon="6.86228">
        <ele>2453.3999023438</ele>
        <time>2021-05-09T07:58:15.000Z</time>
      </trkpt>
      <trkpt lat="44.351" lon="6.86224">
        <ele>2453.3999023438</ele>
        <time>2021-05-09T07:58:20.000Z</time>
      </trkpt>
      <trkpt lat="44.35092" lon="6.86225">
        <ele>2453.1999511719</ele>
        <time>2021-05-09T07:58:31.000Z</time>
      </trkpt>
      <trkpt lat="44.35092" lon="6.86225">
        <ele>2453.1999511719</ele>
        <time>2021-05-09T07:58:33.000Z</time>
      </trkpt>
      <trkpt lat="44.35091" lon="6.86225">
        <ele>2453.1999511719</ele>
        <time>2021-05-09T07:58:34.000Z</time>
      </trkpt>
      <trkpt lat="44.35089" lon="6.86227">
        <ele>2453.1999511719</ele>
        <time>2021-05-09T07:58:39.000Z</time>
      </trkpt>
      <trkpt lat="44.3509" lon="6.8623">
        <ele>2453.1999511719</ele>
        <time>2021-05-09T07:58:41.000Z</time>
      </trkpt>
      <trkpt lat="44.35091" lon="6.86231">
        <ele>2453.1999511719</ele>
        <time>2021-05-09T07:58:45.000Z</time>
      </trkpt>
      <trkpt lat="44.35091" lon="6.86232">
        <ele>2453.1999511719</ele>
        <time>2021-05-09T07:58:48.000Z</time>
      </trkpt>
      <trkpt lat="44.35092" lon="6.86231">
        <ele>2453.1999511719</ele>
        <time>2021-05-09T07:58:52.000Z</time>
      </trkpt>
      <trkpt lat="44.35092" lon="6.8623">
        <ele>2453.1999511719</ele>
        <time>2021-05-09T07:58:53.000Z</time>
      </trkpt>
      <trkpt lat="44.35092" lon="6.8623">
        <ele>2453.1999511719</ele>
        <time>2021-05-09T07:58:55.000Z</time>
      </trkpt>
      <trkpt lat="44.35092" lon="6.8623">
        <ele>2453.1999511719</ele>
        <time>2021-05-09T07:59:00.000Z</time>
      </trkpt>
      <trkpt lat="44.35093" lon="6.86231">
        <ele>2453.1999511719</ele>
        <time>2021-05-09T07:59:08.000Z</time>
      </trkpt>
      <trkpt lat="44.35093" lon="6.86231">
        <ele>2453.1999511719</ele>
        <time>2021-05-09T07:59:09.000Z</time>
      </trkpt>
      <trkpt lat="44.35094" lon="6.8623">
        <ele>2453.1999511719</ele>
        <time>2021-05-09T07:59:21.000Z</time>
      </trkpt>
      <trkpt lat="44.35096" lon="6.86229">
        <ele>2453.1999511719</ele>
        <time>2021-05-09T07:59:25.000Z</time>
      </trkpt>
      <trkpt lat="44.35097" lon="6.86229">
        <ele>2453.1999511719</ele>
        <time>2021-05-09T07:59:27.000Z</time>
      </trkpt>
      <trkpt lat="44.35097" lon="6.86229">
        <ele>2453.1999511719</ele>
        <time>2021-05-09T07:59:28.000Z</time>
      </trkpt>
      <trkpt lat="44.35097" lon="6.86228">
        <ele>2453.1999511719</ele>
        <time>2021-05-09T07:59:30.000Z</time>
      </trkpt>
      <trkpt lat="44.35097" lon="6.86227">
        <ele>2453.1999511719</ele>
        <time>2021-05-09T07:59:31.000Z</time>
      </trkpt>
      <trkpt lat="44.35096" lon="6.86227">
        <ele>2453.1999511719</ele>
        <time>2021-05-09T07:59:33.000Z</time>
      </trkpt>
      <trkpt lat="44.35096" lon="6.86227">
        <ele>2453.1999511719</ele>
        <time>2021-05-09T07:59:34.000Z</time>
      </trkpt>
      <trkpt lat="44.35096" lon="6.86227">
        <ele>2453.1999511719</ele>
        <time>2021-05-09T07:59:35.000Z</time>
      </trkpt>
      <trkpt lat="44.35095" lon="6.86228">
        <ele>2453.1999511719</ele>
        <time>2021-05-09T07:59:44.000Z</time>
      </trkpt>
      <trkpt lat="44.35095" lon="6.86228">
        <ele>2453.1999511719</ele>
        <time>2021-05-09T07:59:49.000Z</time>
      </trkpt>
      <trkpt lat="44.35095" lon="6.86229">
        <ele>2453.1999511719</ele>
        <time>2021-05-09T07:59:53.000Z</time>
      </trkpt>
      <trkpt lat="44.35095" lon="6.86229">
        <ele>2453.1999511719</ele>
        <time>2021-05-09T08:00:02.000Z</time>
      </trkpt>
      <trkpt lat="44.35095" lon="6.8623">
        <ele>2453.1999511719</ele>
        <time>2021-05-09T08:00:09.000Z</time>
      </trkpt>
      <trkpt lat="44.35094" lon="6.8623">
        <ele>2453.1999511719</ele>
        <time>2021-05-09T08:00:10.000Z</time>
      </trkpt>
      <trkpt lat="44.35094" lon="6.8623">
        <ele>2453.1999511719</ele>
        <time>2021-05-09T08:00:11.000Z</time>
      </trkpt>
      <trkpt lat="44.35094" lon="6.8623">
        <ele>2453.1999511719</ele>
        <time>2021-05-09T08:00:14.000Z</time>
      </trkpt>
      <trkpt lat="44.35095" lon="6.8623">
        <ele>2453.1999511719</ele>
        <time>2021-05-09T08:00:19.000Z</time>
      </trkpt>
      <trkpt lat="44.35095" lon="6.8623">
        <ele>2453.1999511719</ele>
        <time>2021-05-09T08:00:20.000Z</time>
      </trkpt>
      <trkpt lat="44.35095" lon="6.86231">
        <ele>2453.1999511719</ele>
        <time>2021-05-09T08:00:21.000Z</time>
      </trkpt>
      <trkpt lat="44.35094" lon="6.86232">
        <ele>2453.1999511719</ele>
        <time>2021-05-09T08:00:24.000Z</time>
      </trkpt>
      <trkpt lat="44.35094" lon="6.86233">
        <ele>2453.1999511719</ele>
        <time>2021-05-09T08:00:26.000Z</time>
      </trkpt>
      <trkpt lat="44.35094" lon="6.86234">
        <ele>2453.1999511719</ele>
        <time>2021-05-09T08:00:29.000Z</time>
      </trkpt>
      <trkpt lat="44.35095" lon="6.86234">
        <ele>2453.1999511719</ele>
        <time>2021-05-09T08:00:32.000Z</time>
      </trkpt>
      <trkpt lat="44.35093" lon="6.86237">
        <ele>2453.1999511719</ele>
        <time>2021-05-09T08:00:40.000Z</time>
      </trkpt>
      <trkpt lat="44.35092" lon="6.86235">
        <ele>2453.1999511719</ele>
        <time>2021-05-09T08:00:44.000Z</time>
      </trkpt>
      <trkpt lat="44.35091" lon="6.86235">
        <ele>2453.1999511719</ele>
        <time>2021-05-09T08:00:46.000Z</time>
      </trkpt>
      <trkpt lat="44.35091" lon="6.86233">
        <ele>2453.1999511719</ele>
        <time>2021-05-09T08:00:51.000Z</time>
      </trkpt>
      <trkpt lat="44.35089" lon="6.8623">
        <ele>2453.1999511719</ele>
        <time>2021-05-09T08:00:53.000Z</time>
      </trkpt>
      <trkpt lat="44.35088" lon="6.86227">
        <ele>2453.1999511719</ele>
        <time>2021-05-09T08:00:56.000Z</time>
      </trkpt>
      <trkpt lat="44.35089" lon="6.86227">
        <ele>2453.1999511719</ele>
        <time>2021-05-09T08:00:59.000Z</time>
      </trkpt>
      <trkpt lat="44.35093" lon="6.86228">
        <ele>2453.1999511719</ele>
        <time>2021-05-09T08:01:03.000Z</time>
      </trkpt>
      <trkpt lat="44.35095" lon="6.86231">
        <ele>2453.1999511719</ele>
        <time>2021-05-09T08:01:08.000Z</time>
      </trkpt>
      <trkpt lat="44.35095" lon="6.86231">
        <ele>2453.1999511719</ele>
        <time>2021-05-09T08:01:09.000Z</time>
      </trkpt>
      <trkpt lat="44.35095" lon="6.86231">
        <ele>2453.1999511719</ele>
        <time>2021-05-09T08:01:11.000Z</time>
      </trkpt>
      <trkpt lat="44.35098" lon="6.8623">
        <ele>2453.1999511719</ele>
        <time>2021-05-09T08:01:16.000Z</time>
      </trkpt>
      <trkpt lat="44.35098" lon="6.86229">
        <ele>2453.1999511719</ele>
        <time>2021-05-09T08:01:17.000Z</time>
      </trkpt>
      <trkpt lat="44.35099" lon="6.86228">
        <ele>2453.1999511719</ele>
        <time>2021-05-09T08:01:20.000Z</time>
      </trkpt>
      <trkpt lat="44.35099" lon="6.86228">
        <ele>2453.1999511719</ele>
        <time>2021-05-09T08:01:21.000Z</time>
      </trkpt>
      <trkpt lat="44.35099" lon="6.86228">
        <ele>2453.1999511719</ele>
        <time>2021-05-09T08:01:25.000Z</time>
      </trkpt>
      <trkpt lat="44.35099" lon="6.86228">
        <ele>2453.1999511719</ele>
        <time>2021-05-09T08:01:29.000Z</time>
      </trkpt>
      <trkpt lat="44.35099" lon="6.86229">
        <ele>2453.1999511719</ele>
        <time>2021-05-09T08:01:31.000Z</time>
      </trkpt>
      <trkpt lat="44.351" lon="6.86228">
        <ele>2453.1999511719</ele>
        <time>2021-05-09T08:01:36.000Z</time>
      </trkpt>
      <trkpt lat="44.35099" lon="6.86227">
        <ele>2453.1999511719</ele>
        <time>2021-05-09T08:01:38.000Z</time>
      </trkpt>
      <trkpt lat="44.35099" lon="6.86226">
        <ele>2453.1999511719</ele>
        <time>2021-05-09T08:01:40.000Z</time>
      </trkpt>
      <trkpt lat="44.35098" lon="6.86225">
        <ele>2453.1999511719</ele>
        <time>2021-05-09T08:01:45.000Z</time>
      </trkpt>
      <trkpt lat="44.35099" lon="6.86227">
        <ele>2453.1999511719</ele>
        <time>2021-05-09T08:01:54.000Z</time>
      </trkpt>
      <trkpt lat="44.35099" lon="6.86228">
        <ele>2453.1999511719</ele>
        <time>2021-05-09T08:01:55.000Z</time>
      </trkpt>
      <trkpt lat="44.35093" lon="6.86222">
        <ele>2453.1999511719</ele>
        <time>2021-05-09T08:02:05.000Z</time>
      </trkpt>
      <trkpt lat="44.35091" lon="6.86223">
        <ele>2453.1999511719</ele>
        <time>2021-05-09T08:02:15.000Z</time>
      </trkpt>
      <trkpt lat="44.35091" lon="6.86223">
        <ele>2453.1999511719</ele>
        <time>2021-05-09T08:02:16.000Z</time>
      </trkpt>
      <trkpt lat="44.35087" lon="6.86221">
        <ele>2453.1999511719</ele>
        <time>2021-05-09T08:02:22.000Z</time>
      </trkpt>
      <trkpt lat="44.35094" lon="6.86222">
        <ele>2453.1999511719</ele>
        <time>2021-05-09T08:02:27.000Z</time>
      </trkpt>
      <trkpt lat="44.35093" lon="6.86222">
        <ele>2453.1999511719</ele>
        <time>2021-05-09T08:02:28.000Z</time>
      </trkpt>
      <trkpt lat="44.35092" lon="6.86222">
        <ele>2453.1999511719</ele>
        <time>2021-05-09T08:02:29.000Z</time>
      </trkpt>
      <trkpt lat="44.35093" lon="6.86224">
        <ele>2453.1999511719</ele>
        <time>2021-05-09T08:02:31.000Z</time>
      </trkpt>
      <trkpt lat="44.3509" lon="6.86221">
        <ele>2453.1999511719</ele>
        <time>2021-05-09T08:02:38.000Z</time>
      </trkpt>
      <trkpt lat="44.35089" lon="6.8622">
        <ele>2453.1999511719</ele>
        <time>2021-05-09T08:02:43.000Z</time>
      </trkpt>
      <trkpt lat="44.35089" lon="6.8622">
        <ele>2453.1999511719</ele>
        <time>2021-05-09T08:02:44.000Z</time>
      </trkpt>
      <trkpt lat="44.35088" lon="6.8622">
        <ele>2453.1999511719</ele>
        <time>2021-05-09T08:02:45.000Z</time>
      </trkpt>
      <trkpt lat="44.35088" lon="6.86221">
        <ele>2453.1999511719</ele>
        <time>2021-05-09T08:02:47.000Z</time>
      </trkpt>
      <trkpt lat="44.35088" lon="6.86221">
        <ele>2453.1999511719</ele>
        <time>2021-05-09T08:02:51.000Z</time>
      </trkpt>
      <trkpt lat="44.35087" lon="6.86221">
        <ele>2453.1999511719</ele>
        <time>2021-05-09T08:02:52.000Z</time>
      </trkpt>
      <trkpt lat="44.35087" lon="6.86221">
        <ele>2453.1999511719</ele>
        <time>2021-05-09T08:02:55.000Z</time>
      </trkpt>
      <trkpt lat="44.35088" lon="6.86223">
        <ele>2453.1999511719</ele>
        <time>2021-05-09T08:02:58.000Z</time>
      </trkpt>
      <trkpt lat="44.35089" lon="6.86224">
        <ele>2453.1999511719</ele>
        <time>2021-05-09T08:03:00.000Z</time>
      </trkpt>
      <trkpt lat="44.35089" lon="6.86226">
        <ele>2453.1999511719</ele>
        <time>2021-05-09T08:03:01.000Z</time>
      </trkpt>
      <trkpt lat="44.3509" lon="6.86228">
        <ele>2453.1999511719</ele>
        <time>2021-05-09T08:03:03.000Z</time>
      </trkpt>
      <trkpt lat="44.35094" lon="6.86237">
        <ele>2453</ele>
        <time>2021-05-09T08:03:09.000Z</time>
      </trkpt>
      <trkpt lat="44.35099" lon="6.86244">
        <ele>2453.1999511719</ele>
        <time>2021-05-09T08:03:13.000Z</time>
      </trkpt>
      <trkpt lat="44.35102" lon="6.86248">
        <ele>2453.1999511719</ele>
        <time>2021-05-09T08:03:15.000Z</time>
      </trkpt>
      <trkpt lat="44.35105" lon="6.86252">
        <ele>2453.8000488281</ele>
        <time>2021-05-09T08:03:20.000Z</time>
      </trkpt>
      <trkpt lat="44.35106" lon="6.86255">
        <ele>2454</ele>
        <time>2021-05-09T08:03:23.000Z</time>
      </trkpt>
      <trkpt lat="44.35106" lon="6.86256">
        <ele>2454.1999511719</ele>
        <time>2021-05-09T08:03:24.000Z</time>
      </trkpt>
      <trkpt lat="44.35106" lon="6.86259">
        <ele>2454.1999511719</ele>
        <time>2021-05-09T08:03:27.000Z</time>
      </trkpt>
      <trkpt lat="44.35108" lon="6.86262">
        <ele>2454.3999023438</ele>
        <time>2021-05-09T08:03:29.000Z</time>
      </trkpt>
      <trkpt lat="44.3511" lon="6.86264">
        <ele>2454.6000976562</ele>
        <time>2021-05-09T08:03:30.000Z</time>
      </trkpt>
      <trkpt lat="44.35111" lon="6.86266">
        <ele>2454.8000488281</ele>
        <time>2021-05-09T08:03:32.000Z</time>
      </trkpt>
      <trkpt lat="44.35112" lon="6.86268">
        <ele>2455</ele>
        <time>2021-05-09T08:03:34.000Z</time>
      </trkpt>
      <trkpt lat="44.35114" lon="6.86272">
        <ele>2455.6000976562</ele>
        <time>2021-05-09T08:03:38.000Z</time>
      </trkpt>
      <trkpt lat="44.35115" lon="6.86275">
        <ele>2455.8000488281</ele>
        <time>2021-05-09T08:03:41.000Z</time>
      </trkpt>
      <trkpt lat="44.35116" lon="6.86276">
        <ele>2455.8000488281</ele>
        <time>2021-05-09T08:03:44.000Z</time>
      </trkpt>
      <trkpt lat="44.35118" lon="6.86279">
        <ele>2456.6000976562</ele>
        <time>2021-05-09T08:03:51.000Z</time>
      </trkpt>
      <trkpt lat="44.35119" lon="6.8628">
        <ele>2457</ele>
        <time>2021-05-09T08:03:55.000Z</time>
      </trkpt>
      <trkpt lat="44.35119" lon="6.86281">
        <ele>2457.3999023438</ele>
        <time>2021-05-09T08:03:57.000Z</time>
      </trkpt>
      <trkpt lat="44.35119" lon="6.86282">
        <ele>2457.6000976562</ele>
        <time>2021-05-09T08:03:58.000Z</time>
      </trkpt>
      <trkpt lat="44.35118" lon="6.86282">
        <ele>2458.1999511719</ele>
        <time>2021-05-09T08:04:02.000Z</time>
      </trkpt>
      <trkpt lat="44.35117" lon="6.86281">
        <ele>2458.1999511719</ele>
        <time>2021-05-09T08:04:04.000Z</time>
      </trkpt>
      <trkpt lat="44.35116" lon="6.8628">
        <ele>2458.8000488281</ele>
        <time>2021-05-09T08:04:09.000Z</time>
      </trkpt>
      <trkpt lat="44.35125" lon="6.8629">
        <ele>2458.8000488281</ele>
        <time>2021-05-09T08:04:13.000Z</time>
      </trkpt>
      <trkpt lat="44.35124" lon="6.8629">
        <ele>2458.8000488281</ele>
        <time>2021-05-09T08:04:15.000Z</time>
      </trkpt>
      <trkpt lat="44.35124" lon="6.86291">
        <ele>2459</ele>
        <time>2021-05-09T08:04:17.000Z</time>
      </trkpt>
      <trkpt lat="44.35125" lon="6.86292">
        <ele>2459.3999023438</ele>
        <time>2021-05-09T08:04:19.000Z</time>
      </trkpt>
      <trkpt lat="44.35126" lon="6.86293">
        <ele>2459.8000488281</ele>
        <time>2021-05-09T08:04:23.000Z</time>
      </trkpt>
      <trkpt lat="44.3513" lon="6.86296">
        <ele>2461</ele>
        <time>2021-05-09T08:04:28.000Z</time>
      </trkpt>
      <trkpt lat="44.35129" lon="6.86295">
        <ele>2462</ele>
        <time>2021-05-09T08:04:33.000Z</time>
      </trkpt>
      <trkpt lat="44.3513" lon="6.86296">
        <ele>2462.1999511719</ele>
        <time>2021-05-09T08:04:34.000Z</time>
      </trkpt>
      <trkpt lat="44.3513" lon="6.86297">
        <ele>2463</ele>
        <time>2021-05-09T08:04:39.000Z</time>
      </trkpt>
      <trkpt lat="44.35132" lon="6.863">
        <ele>2463.3999023438</ele>
        <time>2021-05-09T08:04:42.000Z</time>
      </trkpt>
      <trkpt lat="44.35133" lon="6.86303">
        <ele>2463.6000976562</ele>
        <time>2021-05-09T08:04:45.000Z</time>
      </trkpt>
      <trkpt lat="44.35134" lon="6.86304">
        <ele>2464.1999511719</ele>
        <time>2021-05-09T08:04:48.000Z</time>
      </trkpt>
      <trkpt lat="44.3514" lon="6.86309">
        <ele>2464.8000488281</ele>
        <time>2021-05-09T08:04:52.000Z</time>
      </trkpt>
      <trkpt lat="44.35142" lon="6.86311">
        <ele>2465</ele>
        <time>2021-05-09T08:04:55.000Z</time>
      </trkpt>
      <trkpt lat="44.35142" lon="6.86313">
        <ele>2465.1999511719</ele>
        <time>2021-05-09T08:04:57.000Z</time>
      </trkpt>
      <trkpt lat="44.35142" lon="6.86315">
        <ele>2465.3999023438</ele>
        <time>2021-05-09T08:04:58.000Z</time>
      </trkpt>
      <trkpt lat="44.35136" lon="6.86314">
        <ele>2466</ele>
        <time>2021-05-09T08:05:05.000Z</time>
      </trkpt>
      <trkpt lat="44.35135" lon="6.86313">
        <ele>2466</ele>
        <time>2021-05-09T08:05:07.000Z</time>
      </trkpt>
      <trkpt lat="44.35134" lon="6.86315">
        <ele>2466.3999023438</ele>
        <time>2021-05-09T08:05:11.000Z</time>
      </trkpt>
      <trkpt lat="44.35147" lon="6.86326">
        <ele>2467.1999511719</ele>
        <time>2021-05-09T08:05:27.000Z</time>
      </trkpt>
      <trkpt lat="44.3515" lon="6.86327">
        <ele>2467.3999023438</ele>
        <time>2021-05-09T08:05:30.000Z</time>
      </trkpt>
      <trkpt lat="44.35153" lon="6.86325">
        <ele>2468.3999023438</ele>
        <time>2021-05-09T08:05:39.000Z</time>
      </trkpt>
      <trkpt lat="44.35157" lon="6.86325">
        <ele>2469.3999023438</ele>
        <time>2021-05-09T08:05:48.000Z</time>
      </trkpt>
      <trkpt lat="44.35161" lon="6.86328">
        <ele>2470.6000976562</ele>
        <time>2021-05-09T08:05:56.000Z</time>
      </trkpt>
      <trkpt lat="44.35166" lon="6.86332">
        <ele>2471.6000976562</ele>
        <time>2021-05-09T08:06:06.000Z</time>
      </trkpt>
      <trkpt lat="44.35173" lon="6.86329">
        <ele>2472.8000488281</ele>
        <time>2021-05-09T08:06:18.000Z</time>
      </trkpt>
      <trkpt lat="44.35176" lon="6.86327">
        <ele>2473.6000976562</ele>
        <time>2021-05-09T08:06:23.000Z</time>
      </trkpt>
      <trkpt lat="44.35178" lon="6.86327">
        <ele>2473.8000488281</ele>
        <time>2021-05-09T08:06:26.000Z</time>
      </trkpt>
      <trkpt lat="44.35179" lon="6.86327">
        <ele>2474.8000488281</ele>
        <time>2021-05-09T08:06:32.000Z</time>
      </trkpt>
      <trkpt lat="44.35179" lon="6.86326">
        <ele>2475.8000488281</ele>
        <time>2021-05-09T08:06:42.000Z</time>
      </trkpt>
      <trkpt lat="44.35183" lon="6.86325">
        <ele>2475.8000488281</ele>
        <time>2021-05-09T08:06:57.000Z</time>
      </trkpt>
      <trkpt lat="44.35185" lon="6.86323">
        <ele>2476</ele>
        <time>2021-05-09T08:06:59.000Z</time>
      </trkpt>
      <trkpt lat="44.35188" lon="6.86323">
        <ele>2476</ele>
        <time>2021-05-09T08:07:02.000Z</time>
      </trkpt>
      <trkpt lat="44.3519" lon="6.86323">
        <ele>2476</ele>
        <time>2021-05-09T08:07:04.000Z</time>
      </trkpt>
      <trkpt lat="44.35191" lon="6.86324">
        <ele>2476</ele>
        <time>2021-05-09T08:07:06.000Z</time>
      </trkpt>
      <trkpt lat="44.35188" lon="6.86332">
        <ele>2476</ele>
        <time>2021-05-09T08:07:10.000Z</time>
      </trkpt>
      <trkpt lat="44.35188" lon="6.86332">
        <ele>2476</ele>
        <time>2021-05-09T08:07:11.000Z</time>
      </trkpt>
      <trkpt lat="44.35184" lon="6.86333">
        <ele>2476</ele>
        <time>2021-05-09T08:07:14.000Z</time>
      </trkpt>
      <trkpt lat="44.35183" lon="6.86333">
        <ele>2476</ele>
        <time>2021-05-09T08:07:18.000Z</time>
      </trkpt>
      <trkpt lat="44.35183" lon="6.86332">
        <ele>2476.1999511719</ele>
        <time>2021-05-09T08:07:22.000Z</time>
      </trkpt>
      <trkpt lat="44.35184" lon="6.86331">
        <ele>2476.3999023438</ele>
        <time>2021-05-09T08:07:25.000Z</time>
      </trkpt>
      <trkpt lat="44.35188" lon="6.8633">
        <ele>2477</ele>
        <time>2021-05-09T08:07:29.000Z</time>
      </trkpt>
      <trkpt lat="44.3519" lon="6.86329">
        <ele>2478</ele>
        <time>2021-05-09T08:07:34.000Z</time>
      </trkpt>
      <trkpt lat="44.35191" lon="6.86329">
        <ele>2478</ele>
        <time>2021-05-09T08:07:35.000Z</time>
      </trkpt>
      <trkpt lat="44.35195" lon="6.86325">
        <ele>2479</ele>
        <time>2021-05-09T08:07:41.000Z</time>
      </trkpt>
      <trkpt lat="44.35196" lon="6.86324">
        <ele>2479.1999511719</ele>
        <time>2021-05-09T08:07:42.000Z</time>
      </trkpt>
      <trkpt lat="44.35198" lon="6.86323">
        <ele>2480.1999511719</ele>
        <time>2021-05-09T08:07:48.000Z</time>
      </trkpt>
      <trkpt lat="44.35199" lon="6.86323">
        <ele>2480.1999511719</ele>
        <time>2021-05-09T08:07:49.000Z</time>
      </trkpt>
      <trkpt lat="44.35201" lon="6.86324">
        <ele>2481.3999023438</ele>
        <time>2021-05-09T08:07:56.000Z</time>
      </trkpt>
      <trkpt lat="44.35204" lon="6.86324">
        <ele>2482.3999023438</ele>
        <time>2021-05-09T08:08:05.000Z</time>
      </trkpt>
      <trkpt lat="44.35208" lon="6.86324">
        <ele>2483.3999023438</ele>
        <time>2021-05-09T08:08:13.000Z</time>
      </trkpt>
      <trkpt lat="44.35211" lon="6.86323">
        <ele>2484.3999023438</ele>
        <time>2021-05-09T08:08:19.000Z</time>
      </trkpt>
      <trkpt lat="44.35211" lon="6.86329">
        <ele>2485.3999023438</ele>
        <time>2021-05-09T08:08:30.000Z</time>
      </trkpt>
      <trkpt lat="44.35214" lon="6.86332">
        <ele>2486</ele>
        <time>2021-05-09T08:08:34.000Z</time>
      </trkpt>
      <trkpt lat="44.35215" lon="6.86333">
        <ele>2486.1999511719</ele>
        <time>2021-05-09T08:08:35.000Z</time>
      </trkpt>
      <trkpt lat="44.35216" lon="6.86334">
        <ele>2486.3999023438</ele>
        <time>2021-05-09T08:08:36.000Z</time>
      </trkpt>
      <trkpt lat="44.35218" lon="6.86336">
        <ele>2486.3999023438</ele>
        <time>2021-05-09T08:08:37.000Z</time>
      </trkpt>
      <trkpt lat="44.35219" lon="6.86338">
        <ele>2487</ele>
        <time>2021-05-09T08:08:41.000Z</time>
      </trkpt>
      <trkpt lat="44.35217" lon="6.86339">
        <ele>2487.6000976562</ele>
        <time>2021-05-09T08:08:44.000Z</time>
      </trkpt>
      <trkpt lat="44.35217" lon="6.86341">
        <ele>2488.6000976562</ele>
        <time>2021-05-09T08:08:51.000Z</time>
      </trkpt>
      <trkpt lat="44.35223" lon="6.86341">
        <ele>2489.8000488281</ele>
        <time>2021-05-09T08:08:58.000Z</time>
      </trkpt>
      <trkpt lat="44.35227" lon="6.8634">
        <ele>2490.8000488281</ele>
        <time>2021-05-09T08:09:06.000Z</time>
      </trkpt>
      <trkpt lat="44.35229" lon="6.8634">
        <ele>2491.8000488281</ele>
        <time>2021-05-09T08:09:17.000Z</time>
      </trkpt>
      <trkpt lat="44.35232" lon="6.86339">
        <ele>2493</ele>
        <time>2021-05-09T08:09:26.000Z</time>
      </trkpt>
      <trkpt lat="44.35238" lon="6.86343">
        <ele>2494</ele>
        <time>2021-05-09T08:09:34.000Z</time>
      </trkpt>
      <trkpt lat="44.35239" lon="6.86345">
        <ele>2494.1999511719</ele>
        <time>2021-05-09T08:09:35.000Z</time>
      </trkpt>
      <trkpt lat="44.35236" lon="6.86351">
        <ele>2495</ele>
        <time>2021-05-09T08:09:41.000Z</time>
      </trkpt>
      <trkpt lat="44.35235" lon="6.86356">
        <ele>2496</ele>
        <time>2021-05-09T08:09:49.000Z</time>
      </trkpt>
      <trkpt lat="44.35231" lon="6.8636">
        <ele>2497.1999511719</ele>
        <time>2021-05-09T08:09:56.000Z</time>
      </trkpt>
      <trkpt lat="44.3523" lon="6.86362">
        <ele>2498.1999511719</ele>
        <time>2021-05-09T08:10:01.000Z</time>
      </trkpt>
      <trkpt lat="44.35227" lon="6.86366">
        <ele>2499.1999511719</ele>
        <time>2021-05-09T08:10:08.000Z</time>
      </trkpt>
      <trkpt lat="44.35227" lon="6.86373">
        <ele>2500.3999023438</ele>
        <time>2021-05-09T08:10:17.000Z</time>
      </trkpt>
      <trkpt lat="44.35229" lon="6.86375">
        <ele>2501.3999023438</ele>
        <time>2021-05-09T08:10:23.000Z</time>
      </trkpt>
      <trkpt lat="44.35234" lon="6.86377">
        <ele>2502.3999023438</ele>
        <time>2021-05-09T08:10:27.000Z</time>
      </trkpt>
      <trkpt lat="44.35239" lon="6.86377">
        <ele>2503.3999023438</ele>
        <time>2021-05-09T08:10:36.000Z</time>
      </trkpt>
      <trkpt lat="44.35241" lon="6.86377">
        <ele>2504.8000488281</ele>
        <time>2021-05-09T08:10:44.000Z</time>
      </trkpt>
      <trkpt lat="44.35243" lon="6.86377">
        <ele>2505.8000488281</ele>
        <time>2021-05-09T08:10:51.000Z</time>
      </trkpt>
      <trkpt lat="44.35249" lon="6.86387">
        <ele>2506.3999023438</ele>
        <time>2021-05-09T08:11:02.000Z</time>
      </trkpt>
      <trkpt lat="44.35249" lon="6.86388">
        <ele>2506.6000976562</ele>
        <time>2021-05-09T08:11:03.000Z</time>
      </trkpt>
      <trkpt lat="44.3525" lon="6.8639">
        <ele>2506.8000488281</ele>
        <time>2021-05-09T08:11:08.000Z</time>
      </trkpt>
      <trkpt lat="44.35247" lon="6.86395">
        <ele>2507.3999023438</ele>
        <time>2021-05-09T08:11:15.000Z</time>
      </trkpt>
      <trkpt lat="44.35247" lon="6.86396">
        <ele>2507.8000488281</ele>
        <time>2021-05-09T08:11:17.000Z</time>
      </trkpt>
      <trkpt lat="44.35242" lon="6.86403">
        <ele>2509</ele>
        <time>2021-05-09T08:11:26.000Z</time>
      </trkpt>
      <trkpt lat="44.35243" lon="6.86406">
        <ele>2510</ele>
        <time>2021-05-09T08:11:32.000Z</time>
      </trkpt>
      <trkpt lat="44.35243" lon="6.86416">
        <ele>2511</ele>
        <time>2021-05-09T08:11:44.000Z</time>
      </trkpt>
      <trkpt lat="44.35241" lon="6.86423">
        <ele>2512.1999511719</ele>
        <time>2021-05-09T08:11:56.000Z</time>
      </trkpt>
      <trkpt lat="44.3524" lon="6.86424">
        <ele>2512.1999511719</ele>
        <time>2021-05-09T08:11:58.000Z</time>
      </trkpt>
      <trkpt lat="44.35242" lon="6.86429">
        <ele>2512.8000488281</ele>
        <time>2021-05-09T08:12:09.000Z</time>
      </trkpt>
      <trkpt lat="44.35242" lon="6.86432">
        <ele>2513.1999511719</ele>
        <time>2021-05-09T08:12:12.000Z</time>
      </trkpt>
      <trkpt lat="44.35242" lon="6.86433">
        <ele>2513.1999511719</ele>
        <time>2021-05-09T08:12:14.000Z</time>
      </trkpt>
      <trkpt lat="44.35242" lon="6.86435">
        <ele>2513.6000976562</ele>
        <time>2021-05-09T08:12:18.000Z</time>
      </trkpt>
      <trkpt lat="44.35243" lon="6.86434">
        <ele>2513.6000976562</ele>
        <time>2021-05-09T08:12:31.000Z</time>
      </trkpt>
      <trkpt lat="44.35243" lon="6.86433">
        <ele>2513.6000976562</ele>
        <time>2021-05-09T08:12:33.000Z</time>
      </trkpt>
      <trkpt lat="44.35245" lon="6.86433">
        <ele>2514</ele>
        <time>2021-05-09T08:12:41.000Z</time>
      </trkpt>
      <trkpt lat="44.35245" lon="6.86433">
        <ele>2514</ele>
        <time>2021-05-09T08:12:42.000Z</time>
      </trkpt>
      <trkpt lat="44.35245" lon="6.86432">
        <ele>2513.8000488281</ele>
        <time>2021-05-09T08:12:51.000Z</time>
      </trkpt>
      <trkpt lat="44.35245" lon="6.86432">
        <ele>2513.8000488281</ele>
        <time>2021-05-09T08:12:53.000Z</time>
      </trkpt>
      <trkpt lat="44.35244" lon="6.86432">
        <ele>2513.8000488281</ele>
        <time>2021-05-09T08:13:05.000Z</time>
      </trkpt>
      <trkpt lat="44.35242" lon="6.86431">
        <ele>2513.6000976562</ele>
        <time>2021-05-09T08:13:09.000Z</time>
      </trkpt>
      <trkpt lat="44.35242" lon="6.86431">
        <ele>2513.6000976562</ele>
        <time>2021-05-09T08:13:18.000Z</time>
      </trkpt>
      <trkpt lat="44.35244" lon="6.86432">
        <ele>2513.6000976562</ele>
        <time>2021-05-09T08:13:23.000Z</time>
      </trkpt>
      <trkpt lat="44.35245" lon="6.86433">
        <ele>2513.6000976562</ele>
        <time>2021-05-09T08:13:28.000Z</time>
      </trkpt>
      <trkpt lat="44.35244" lon="6.86433">
        <ele>2513.6000976562</ele>
        <time>2021-05-09T08:13:30.000Z</time>
      </trkpt>
      <trkpt lat="44.35244" lon="6.86433">
        <ele>2513.6000976562</ele>
        <time>2021-05-09T08:13:33.000Z</time>
      </trkpt>
      <trkpt lat="44.35244" lon="6.86432">
        <ele>2513.6000976562</ele>
        <time>2021-05-09T08:13:41.000Z</time>
      </trkpt>
      <trkpt lat="44.35243" lon="6.86432">
        <ele>2513.6000976562</ele>
        <time>2021-05-09T08:13:45.000Z</time>
      </trkpt>
      <trkpt lat="44.35243" lon="6.86432">
        <ele>2513.6000976562</ele>
        <time>2021-05-09T08:13:48.000Z</time>
      </trkpt>
      <trkpt lat="44.35242" lon="6.86432">
        <ele>2513.6000976562</ele>
        <time>2021-05-09T08:13:52.000Z</time>
      </trkpt>
      <trkpt lat="44.35244" lon="6.86433">
        <ele>2513.6000976562</ele>
        <time>2021-05-09T08:14:10.000Z</time>
      </trkpt>
      <trkpt lat="44.35242" lon="6.86434">
        <ele>2513.6000976562</ele>
        <time>2021-05-09T08:14:16.000Z</time>
      </trkpt>
      <trkpt lat="44.35242" lon="6.86436">
        <ele>2513.6000976562</ele>
        <time>2021-05-09T08:14:17.000Z</time>
      </trkpt>
      <trkpt lat="44.35244" lon="6.86438">
        <ele>2513.6000976562</ele>
        <time>2021-05-09T08:14:19.000Z</time>
      </trkpt>
      <trkpt lat="44.35245" lon="6.86437">
        <ele>2513.6000976562</ele>
        <time>2021-05-09T08:14:23.000Z</time>
      </trkpt>
      <trkpt lat="44.35244" lon="6.86436">
        <ele>2513.6000976562</ele>
        <time>2021-05-09T08:14:25.000Z</time>
      </trkpt>
      <trkpt lat="44.35244" lon="6.86435">
        <ele>2513.6000976562</ele>
        <time>2021-05-09T08:14:27.000Z</time>
      </trkpt>
      <trkpt lat="44.35244" lon="6.86434">
        <ele>2513.6000976562</ele>
        <time>2021-05-09T08:14:30.000Z</time>
      </trkpt>
      <trkpt lat="44.35245" lon="6.86433">
        <ele>2513.6000976562</ele>
        <time>2021-05-09T08:14:33.000Z</time>
      </trkpt>
      <trkpt lat="44.35245" lon="6.86433">
        <ele>2513.6000976562</ele>
        <time>2021-05-09T08:14:34.000Z</time>
      </trkpt>
      <trkpt lat="44.35245" lon="6.86433">
        <ele>2513.6000976562</ele>
        <time>2021-05-09T08:14:36.000Z</time>
      </trkpt>
      <trkpt lat="44.35245" lon="6.86433">
        <ele>2513.6000976562</ele>
        <time>2021-05-09T08:14:37.000Z</time>
      </trkpt>
      <trkpt lat="44.35246" lon="6.86433">
        <ele>2513.6000976562</ele>
        <time>2021-05-09T08:14:39.000Z</time>
      </trkpt>
      <trkpt lat="44.35246" lon="6.86433">
        <ele>2513.6000976562</ele>
        <time>2021-05-09T08:14:40.000Z</time>
      </trkpt>
      <trkpt lat="44.35248" lon="6.86432">
        <ele>2513.6000976562</ele>
        <time>2021-05-09T08:14:45.000Z</time>
      </trkpt>
      <trkpt lat="44.35248" lon="6.86432">
        <ele>2513.6000976562</ele>
        <time>2021-05-09T08:14:46.000Z</time>
      </trkpt>
      <trkpt lat="44.35248" lon="6.86432">
        <ele>2513.6000976562</ele>
        <time>2021-05-09T08:14:47.000Z</time>
      </trkpt>
      <trkpt lat="44.35248" lon="6.86432">
        <ele>2513.6000976562</ele>
        <time>2021-05-09T08:14:48.000Z</time>
      </trkpt>
      <trkpt lat="44.35248" lon="6.86432">
        <ele>2513.6000976562</ele>
        <time>2021-05-09T08:14:49.000Z</time>
      </trkpt>
      <trkpt lat="44.35248" lon="6.8643">
        <ele>2513.6000976562</ele>
        <time>2021-05-09T08:14:57.000Z</time>
      </trkpt>
      <trkpt lat="44.35247" lon="6.86431">
        <ele>2513.6000976562</ele>
        <time>2021-05-09T08:14:59.000Z</time>
      </trkpt>
      <trkpt lat="44.35245" lon="6.86431">
        <ele>2513.6000976562</ele>
        <time>2021-05-09T08:15:01.000Z</time>
      </trkpt>
      <trkpt lat="44.35245" lon="6.86431">
        <ele>2513.6000976562</ele>
        <time>2021-05-09T08:15:04.000Z</time>
      </trkpt>
      <trkpt lat="44.35245" lon="6.86431">
        <ele>2513.6000976562</ele>
        <time>2021-05-09T08:15:05.000Z</time>
      </trkpt>
      <trkpt lat="44.35244" lon="6.86431">
        <ele>2513.6000976562</ele>
        <time>2021-05-09T08:15:10.000Z</time>
      </trkpt>
      <trkpt lat="44.35244" lon="6.86432">
        <ele>2513.6000976562</ele>
        <time>2021-05-09T08:15:11.000Z</time>
      </trkpt>
      <trkpt lat="44.35243" lon="6.86432">
        <ele>2513.6000976562</ele>
        <time>2021-05-09T08:15:14.000Z</time>
      </trkpt>
      <trkpt lat="44.35243" lon="6.86432">
        <ele>2513.6000976562</ele>
        <time>2021-05-09T08:15:15.000Z</time>
      </trkpt>
      <trkpt lat="44.35243" lon="6.86433">
        <ele>2513.6000976562</ele>
        <time>2021-05-09T08:15:18.000Z</time>
      </trkpt>
      <trkpt lat="44.35242" lon="6.86433">
        <ele>2513.6000976562</ele>
        <time>2021-05-09T08:15:20.000Z</time>
      </trkpt>
      <trkpt lat="44.35242" lon="6.86433">
        <ele>2513.6000976562</ele>
        <time>2021-05-09T08:15:21.000Z</time>
      </trkpt>
      <trkpt lat="44.35242" lon="6.86433">
        <ele>2513.6000976562</ele>
        <time>2021-05-09T08:15:23.000Z</time>
      </trkpt>
      <trkpt lat="44.35242" lon="6.86432">
        <ele>2513.6000976562</ele>
        <time>2021-05-09T08:15:25.000Z</time>
      </trkpt>
      <trkpt lat="44.35242" lon="6.86432">
        <ele>2513.6000976562</ele>
        <time>2021-05-09T08:15:26.000Z</time>
      </trkpt>
      <trkpt lat="44.35242" lon="6.86432">
        <ele>2513.6000976562</ele>
        <time>2021-05-09T08:15:27.000Z</time>
      </trkpt>
      <trkpt lat="44.35241" lon="6.86432">
        <ele>2513.6000976562</ele>
        <time>2021-05-09T08:15:29.000Z</time>
      </trkpt>
      <trkpt lat="44.35241" lon="6.86432">
        <ele>2513.6000976562</ele>
        <time>2021-05-09T08:15:31.000Z</time>
      </trkpt>
      <trkpt lat="44.35241" lon="6.86432">
        <ele>2513.6000976562</ele>
        <time>2021-05-09T08:15:33.000Z</time>
      </trkpt>
      <trkpt lat="44.35241" lon="6.86432">
        <ele>2513.6000976562</ele>
        <time>2021-05-09T08:15:34.000Z</time>
      </trkpt>
      <trkpt lat="44.35241" lon="6.86432">
        <ele>2513.6000976562</ele>
        <time>2021-05-09T08:15:35.000Z</time>
      </trkpt>
      <trkpt lat="44.35242" lon="6.86433">
        <ele>2513.6000976562</ele>
        <time>2021-05-09T08:15:43.000Z</time>
      </trkpt>
      <trkpt lat="44.35242" lon="6.86433">
        <ele>2513.6000976562</ele>
        <time>2021-05-09T08:15:44.000Z</time>
      </trkpt>
      <trkpt lat="44.35242" lon="6.86433">
        <ele>2513.6000976562</ele>
        <time>2021-05-09T08:15:45.000Z</time>
      </trkpt>
      <trkpt lat="44.35242" lon="6.86433">
        <ele>2513.6000976562</ele>
        <time>2021-05-09T08:15:46.000Z</time>
      </trkpt>
      <trkpt lat="44.35242" lon="6.86433">
        <ele>2513.6000976562</ele>
        <time>2021-05-09T08:15:47.000Z</time>
      </trkpt>
      <trkpt lat="44.35243" lon="6.86433">
        <ele>2513.6000976562</ele>
        <time>2021-05-09T08:15:49.000Z</time>
      </trkpt>
      <trkpt lat="44.35245" lon="6.86433">
        <ele>2513.6000976562</ele>
        <time>2021-05-09T08:15:55.000Z</time>
      </trkpt>
      <trkpt lat="44.35246" lon="6.86433">
        <ele>2513.6000976562</ele>
        <time>2021-05-09T08:15:56.000Z</time>
      </trkpt>
      <trkpt lat="44.35246" lon="6.86433">
        <ele>2513.6000976562</ele>
        <time>2021-05-09T08:15:57.000Z</time>
      </trkpt>
      <trkpt lat="44.35246" lon="6.86433">
        <ele>2513.6000976562</ele>
        <time>2021-05-09T08:15:59.000Z</time>
      </trkpt>
      <trkpt lat="44.35248" lon="6.86431">
        <ele>2513.6000976562</ele>
        <time>2021-05-09T08:16:00.000Z</time>
      </trkpt>
      <trkpt lat="44.35248" lon="6.8643">
        <ele>2513.6000976562</ele>
        <time>2021-05-09T08:16:02.000Z</time>
      </trkpt>
      <trkpt lat="44.35247" lon="6.8643">
        <ele>2513.6000976562</ele>
        <time>2021-05-09T08:16:04.000Z</time>
      </trkpt>
      <trkpt lat="44.35247" lon="6.8643">
        <ele>2513.6000976562</ele>
        <time>2021-05-09T08:16:05.000Z</time>
      </trkpt>
      <trkpt lat="44.35247" lon="6.86431">
        <ele>2513.6000976562</ele>
        <time>2021-05-09T08:16:07.000Z</time>
      </trkpt>
      <trkpt lat="44.35247" lon="6.8643">
        <ele>2513.6000976562</ele>
        <time>2021-05-09T08:16:11.000Z</time>
      </trkpt>
      <trkpt lat="44.35248" lon="6.8643">
        <ele>2513.6000976562</ele>
        <time>2021-05-09T08:16:12.000Z</time>
      </trkpt>
      <trkpt lat="44.35249" lon="6.8643">
        <ele>2513.6000976562</ele>
        <time>2021-05-09T08:16:18.000Z</time>
      </trkpt>
      <trkpt lat="44.35249" lon="6.86431">
        <ele>2513.6000976562</ele>
        <time>2021-05-09T08:16:19.000Z</time>
      </trkpt>
      <trkpt lat="44.35249" lon="6.86431">
        <ele>2513.6000976562</ele>
        <time>2021-05-09T08:16:20.000Z</time>
      </trkpt>
      <trkpt lat="44.3525" lon="6.86431">
        <ele>2513.6000976562</ele>
        <time>2021-05-09T08:16:21.000Z</time>
      </trkpt>
      <trkpt lat="44.35243" lon="6.86429">
        <ele>2513.6000976562</ele>
        <time>2021-05-09T08:16:28.000Z</time>
      </trkpt>
      <trkpt lat="44.35243" lon="6.86428">
        <ele>2513.6000976562</ele>
        <time>2021-05-09T08:16:30.000Z</time>
      </trkpt>
      <trkpt lat="44.35241" lon="6.8643">
        <ele>2513.6000976562</ele>
        <time>2021-05-09T08:16:47.000Z</time>
      </trkpt>
      <trkpt lat="44.35246" lon="6.86431">
        <ele>2513.6000976562</ele>
        <time>2021-05-09T08:16:57.000Z</time>
      </trkpt>
      <trkpt lat="44.35246" lon="6.8643">
        <ele>2513.6000976562</ele>
        <time>2021-05-09T08:16:59.000Z</time>
      </trkpt>
      <trkpt lat="44.35247" lon="6.86429">
        <ele>2513.6000976562</ele>
        <time>2021-05-09T08:17:03.000Z</time>
      </trkpt>
      <trkpt lat="44.35248" lon="6.86429">
        <ele>2513.6000976562</ele>
        <time>2021-05-09T08:17:04.000Z</time>
      </trkpt>
      <trkpt lat="44.35244" lon="6.86426">
        <ele>2513.6000976562</ele>
        <time>2021-05-09T08:17:07.000Z</time>
      </trkpt>
      <trkpt lat="44.35243" lon="6.86425">
        <ele>2513.6000976562</ele>
        <time>2021-05-09T08:17:12.000Z</time>
      </trkpt>
      <trkpt lat="44.35242" lon="6.86426">
        <ele>2513.6000976562</ele>
        <time>2021-05-09T08:17:14.000Z</time>
      </trkpt>
      <trkpt lat="44.35242" lon="6.86426">
        <ele>2513.6000976562</ele>
        <time>2021-05-09T08:17:15.000Z</time>
      </trkpt>
      <trkpt lat="44.35242" lon="6.86425">
        <ele>2513.6000976562</ele>
        <time>2021-05-09T08:17:20.000Z</time>
      </trkpt>
      <trkpt lat="44.35241" lon="6.86425">
        <ele>2513.6000976562</ele>
        <time>2021-05-09T08:17:24.000Z</time>
      </trkpt>
      <trkpt lat="44.35241" lon="6.86424">
        <ele>2513.6000976562</ele>
        <time>2021-05-09T08:17:26.000Z</time>
      </trkpt>
      <trkpt lat="44.35242" lon="6.86424">
        <ele>2513.6000976562</ele>
        <time>2021-05-09T08:17:28.000Z</time>
      </trkpt>
      <trkpt lat="44.35241" lon="6.86425">
        <ele>2513.6000976562</ele>
        <time>2021-05-09T08:17:30.000Z</time>
      </trkpt>
      <trkpt lat="44.35241" lon="6.86425">
        <ele>2513.6000976562</ele>
        <time>2021-05-09T08:17:32.000Z</time>
      </trkpt>
      <trkpt lat="44.35241" lon="6.86425">
        <ele>2513.6000976562</ele>
        <time>2021-05-09T08:17:33.000Z</time>
      </trkpt>
      <trkpt lat="44.35241" lon="6.86425">
        <ele>2513.6000976562</ele>
        <time>2021-05-09T08:17:34.000Z</time>
      </trkpt>
      <trkpt lat="44.35241" lon="6.86425">
        <ele>2513.6000976562</ele>
        <time>2021-05-09T08:17:35.000Z</time>
      </trkpt>
      <trkpt lat="44.35241" lon="6.86425">
        <ele>2513.6000976562</ele>
        <time>2021-05-09T08:17:36.000Z</time>
      </trkpt>
      <trkpt lat="44.35241" lon="6.86425">
        <ele>2513.6000976562</ele>
        <time>2021-05-09T08:17:38.000Z</time>
      </trkpt>
      <trkpt lat="44.35241" lon="6.86425">
        <ele>2513.6000976562</ele>
        <time>2021-05-09T08:17:40.000Z</time>
      </trkpt>
      <trkpt lat="44.35241" lon="6.86425">
        <ele>2513.6000976562</ele>
        <time>2021-05-09T08:17:43.000Z</time>
      </trkpt>
      <trkpt lat="44.35241" lon="6.86425">
        <ele>2513.6000976562</ele>
        <time>2021-05-09T08:17:45.000Z</time>
      </trkpt>
      <trkpt lat="44.35241" lon="6.86425">
        <ele>2513.6000976562</ele>
        <time>2021-05-09T08:17:47.000Z</time>
      </trkpt>
      <trkpt lat="44.35241" lon="6.86425">
        <ele>2513.6000976562</ele>
        <time>2021-05-09T08:17:49.000Z</time>
      </trkpt>
      <trkpt lat="44.35241" lon="6.86425">
        <ele>2513.6000976562</ele>
        <time>2021-05-09T08:17:51.000Z</time>
      </trkpt>
      <trkpt lat="44.35241" lon="6.86425">
        <ele>2513.6000976562</ele>
        <time>2021-05-09T08:17:52.000Z</time>
      </trkpt>
      <trkpt lat="44.35241" lon="6.86425">
        <ele>2513.6000976562</ele>
        <time>2021-05-09T08:17:55.000Z</time>
      </trkpt>
      <trkpt lat="44.35241" lon="6.86425">
        <ele>2513.6000976562</ele>
        <time>2021-05-09T08:17:56.000Z</time>
      </trkpt>
      <trkpt lat="44.35241" lon="6.86425">
        <ele>2513.6000976562</ele>
        <time>2021-05-09T08:17:57.000Z</time>
      </trkpt>
      <trkpt lat="44.35241" lon="6.86424">
        <ele>2513.6000976562</ele>
        <time>2021-05-09T08:17:58.000Z</time>
      </trkpt>
      <trkpt lat="44.35241" lon="6.86425">
        <ele>2513.6000976562</ele>
        <time>2021-05-09T08:17:59.000Z</time>
      </trkpt>
      <trkpt lat="44.35241" lon="6.86424">
        <ele>2513.6000976562</ele>
        <time>2021-05-09T08:18:02.000Z</time>
      </trkpt>
      <trkpt lat="44.35241" lon="6.86424">
        <ele>2513.6000976562</ele>
        <time>2021-05-09T08:18:04.000Z</time>
      </trkpt>
      <trkpt lat="44.35241" lon="6.86424">
        <ele>2513.6000976562</ele>
        <time>2021-05-09T08:18:05.000Z</time>
      </trkpt>
      <trkpt lat="44.35241" lon="6.86424">
        <ele>2513.6000976562</ele>
        <time>2021-05-09T08:18:07.000Z</time>
      </trkpt>
      <trkpt lat="44.35241" lon="6.86424">
        <ele>2513.6000976562</ele>
        <time>2021-05-09T08:18:08.000Z</time>
      </trkpt>
      <trkpt lat="44.35241" lon="6.86424">
        <ele>2513.6000976562</ele>
        <time>2021-05-09T08:18:09.000Z</time>
      </trkpt>
      <trkpt lat="44.35241" lon="6.86424">
        <ele>2513.6000976562</ele>
        <time>2021-05-09T08:18:10.000Z</time>
      </trkpt>
      <trkpt lat="44.35241" lon="6.86424">
        <ele>2513.6000976562</ele>
        <time>2021-05-09T08:18:11.000Z</time>
      </trkpt>
      <trkpt lat="44.35241" lon="6.86424">
        <ele>2513.6000976562</ele>
        <time>2021-05-09T08:18:13.000Z</time>
      </trkpt>
      <trkpt lat="44.35241" lon="6.86424">
        <ele>2513.6000976562</ele>
        <time>2021-05-09T08:18:14.000Z</time>
      </trkpt>
      <trkpt lat="44.3524" lon="6.86424">
        <ele>2513.6000976562</ele>
        <time>2021-05-09T08:18:16.000Z</time>
      </trkpt>
      <trkpt lat="44.3524" lon="6.86424">
        <ele>2513.6000976562</ele>
        <time>2021-05-09T08:18:18.000Z</time>
      </trkpt>
      <trkpt lat="44.3524" lon="6.86424">
        <ele>2513.6000976562</ele>
        <time>2021-05-09T08:18:19.000Z</time>
      </trkpt>
      <trkpt lat="44.3524" lon="6.86424">
        <ele>2513.6000976562</ele>
        <time>2021-05-09T08:18:20.000Z</time>
      </trkpt>
      <trkpt lat="44.3524" lon="6.86424">
        <ele>2513.6000976562</ele>
        <time>2021-05-09T08:18:21.000Z</time>
      </trkpt>
      <trkpt lat="44.3524" lon="6.86424">
        <ele>2513.6000976562</ele>
        <time>2021-05-09T08:18:22.000Z</time>
      </trkpt>
      <trkpt lat="44.3524" lon="6.86424">
        <ele>2513.6000976562</ele>
        <time>2021-05-09T08:18:24.000Z</time>
      </trkpt>
      <trkpt lat="44.3524" lon="6.86424">
        <ele>2513.6000976562</ele>
        <time>2021-05-09T08:18:25.000Z</time>
      </trkpt>
      <trkpt lat="44.3524" lon="6.86424">
        <ele>2513.6000976562</ele>
        <time>2021-05-09T08:18:26.000Z</time>
      </trkpt>
      <trkpt lat="44.3524" lon="6.86424">
        <ele>2513.6000976562</ele>
        <time>2021-05-09T08:18:34.000Z</time>
      </trkpt>
      <trkpt lat="44.3524" lon="6.86424">
        <ele>2513.6000976562</ele>
        <time>2021-05-09T08:18:40.000Z</time>
      </trkpt>
      <trkpt lat="44.3524" lon="6.86424">
        <ele>2513.6000976562</ele>
        <time>2021-05-09T08:18:41.000Z</time>
      </trkpt>
      <trkpt lat="44.3524" lon="6.86424">
        <ele>2513.6000976562</ele>
        <time>2021-05-09T08:18:44.000Z</time>
      </trkpt>
      <trkpt lat="44.3524" lon="6.86424">
        <ele>2513.6000976562</ele>
        <time>2021-05-09T08:18:45.000Z</time>
      </trkpt>
      <trkpt lat="44.3524" lon="6.86424">
        <ele>2513.6000976562</ele>
        <time>2021-05-09T08:18:47.000Z</time>
      </trkpt>
      <trkpt lat="44.35239" lon="6.86424">
        <ele>2513.6000976562</ele>
        <time>2021-05-09T08:18:49.000Z</time>
      </trkpt>
      <trkpt lat="44.35239" lon="6.86424">
        <ele>2513.6000976562</ele>
        <time>2021-05-09T08:18:52.000Z</time>
      </trkpt>
      <trkpt lat="44.35239" lon="6.86424">
        <ele>2513.6000976562</ele>
        <time>2021-05-09T08:18:53.000Z</time>
      </trkpt>
      <trkpt lat="44.35239" lon="6.86424">
        <ele>2513.6000976562</ele>
        <time>2021-05-09T08:18:55.000Z</time>
      </trkpt>
      <trkpt lat="44.35239" lon="6.86424">
        <ele>2513.6000976562</ele>
        <time>2021-05-09T08:18:56.000Z</time>
      </trkpt>
      <trkpt lat="44.35239" lon="6.86424">
        <ele>2513.6000976562</ele>
        <time>2021-05-09T08:18:58.000Z</time>
      </trkpt>
      <trkpt lat="44.35239" lon="6.86424">
        <ele>2513.6000976562</ele>
        <time>2021-05-09T08:19:01.000Z</time>
      </trkpt>
      <trkpt lat="44.35239" lon="6.86424">
        <ele>2513.6000976562</ele>
        <time>2021-05-09T08:19:03.000Z</time>
      </trkpt>
      <trkpt lat="44.35239" lon="6.86424">
        <ele>2513.6000976562</ele>
        <time>2021-05-09T08:19:05.000Z</time>
      </trkpt>
      <trkpt lat="44.3524" lon="6.86423">
        <ele>2513.6000976562</ele>
        <time>2021-05-09T08:19:14.000Z</time>
      </trkpt>
      <trkpt lat="44.3524" lon="6.86423">
        <ele>2513.6000976562</ele>
        <time>2021-05-09T08:19:18.000Z</time>
      </trkpt>
      <trkpt lat="44.3524" lon="6.86423">
        <ele>2513.6000976562</ele>
        <time>2021-05-09T08:19:20.000Z</time>
      </trkpt>
      <trkpt lat="44.3524" lon="6.86423">
        <ele>2513.6000976562</ele>
        <time>2021-05-09T08:19:22.000Z</time>
      </trkpt>
      <trkpt lat="44.3524" lon="6.86423">
        <ele>2513.6000976562</ele>
        <time>2021-05-09T08:19:25.000Z</time>
      </trkpt>
      <trkpt lat="44.3524" lon="6.86423">
        <ele>2513.6000976562</ele>
        <time>2021-05-09T08:19:26.000Z</time>
      </trkpt>
      <trkpt lat="44.3524" lon="6.86423">
        <ele>2513.6000976562</ele>
        <time>2021-05-09T08:19:27.000Z</time>
      </trkpt>
      <trkpt lat="44.3524" lon="6.86423">
        <ele>2513.6000976562</ele>
        <time>2021-05-09T08:19:29.000Z</time>
      </trkpt>
      <trkpt lat="44.3524" lon="6.86424">
        <ele>2513.6000976562</ele>
        <time>2021-05-09T08:19:33.000Z</time>
      </trkpt>
      <trkpt lat="44.3524" lon="6.86424">
        <ele>2513.6000976562</ele>
        <time>2021-05-09T08:19:34.000Z</time>
      </trkpt>
      <trkpt lat="44.3524" lon="6.86424">
        <ele>2513.6000976562</ele>
        <time>2021-05-09T08:19:35.000Z</time>
      </trkpt>
      <trkpt lat="44.35241" lon="6.86423">
        <ele>2513.6000976562</ele>
        <time>2021-05-09T08:19:38.000Z</time>
      </trkpt>
      <trkpt lat="44.3524" lon="6.86424">
        <ele>2513.6000976562</ele>
        <time>2021-05-09T08:19:40.000Z</time>
      </trkpt>
      <trkpt lat="44.3524" lon="6.86424">
        <ele>2513.6000976562</ele>
        <time>2021-05-09T08:19:43.000Z</time>
      </trkpt>
      <trkpt lat="44.3524" lon="6.86424">
        <ele>2513.6000976562</ele>
        <time>2021-05-09T08:19:47.000Z</time>
      </trkpt>
      <trkpt lat="44.3524" lon="6.86424">
        <ele>2513.6000976562</ele>
        <time>2021-05-09T08:19:48.000Z</time>
      </trkpt>
      <trkpt lat="44.3524" lon="6.86424">
        <ele>2513.6000976562</ele>
        <time>2021-05-09T08:19:51.000Z</time>
      </trkpt>
      <trkpt lat="44.3524" lon="6.86424">
        <ele>2513.6000976562</ele>
        <time>2021-05-09T08:19:53.000Z</time>
      </trkpt>
      <trkpt lat="44.3524" lon="6.86424">
        <ele>2513.6000976562</ele>
        <time>2021-05-09T08:19:54.000Z</time>
      </trkpt>
      <trkpt lat="44.35241" lon="6.86425">
        <ele>2513.6000976562</ele>
        <time>2021-05-09T08:19:59.000Z</time>
      </trkpt>
      <trkpt lat="44.35241" lon="6.86425">
        <ele>2513.6000976562</ele>
        <time>2021-05-09T08:20:00.000Z</time>
      </trkpt>
      <trkpt lat="44.35241" lon="6.86425">
        <ele>2513.6000976562</ele>
        <time>2021-05-09T08:20:04.000Z</time>
      </trkpt>
      <trkpt lat="44.35241" lon="6.86425">
        <ele>2513.6000976562</ele>
        <time>2021-05-09T08:20:05.000Z</time>
      </trkpt>
      <trkpt lat="44.35241" lon="6.86425">
        <ele>2513.6000976562</ele>
        <time>2021-05-09T08:20:07.000Z</time>
      </trkpt>
      <trkpt lat="44.35241" lon="6.86425">
        <ele>2513.6000976562</ele>
        <time>2021-05-09T08:20:11.000Z</time>
      </trkpt>
      <trkpt lat="44.35241" lon="6.86425">
        <ele>2513.6000976562</ele>
        <time>2021-05-09T08:20:15.000Z</time>
      </trkpt>
      <trkpt lat="44.35241" lon="6.86425">
        <ele>2513.6000976562</ele>
        <time>2021-05-09T08:20:16.000Z</time>
      </trkpt>
      <trkpt lat="44.35241" lon="6.86425">
        <ele>2513.6000976562</ele>
        <time>2021-05-09T08:20:19.000Z</time>
      </trkpt>
      <trkpt lat="44.35241" lon="6.86425">
        <ele>2513.6000976562</ele>
        <time>2021-05-09T08:20:23.000Z</time>
      </trkpt>
      <trkpt lat="44.35241" lon="6.86426">
        <ele>2513.6000976562</ele>
        <time>2021-05-09T08:20:25.000Z</time>
      </trkpt>
      <trkpt lat="44.35241" lon="6.86426">
        <ele>2513.6000976562</ele>
        <time>2021-05-09T08:20:26.000Z</time>
      </trkpt>
      <trkpt lat="44.35241" lon="6.86425">
        <ele>2513.6000976562</ele>
        <time>2021-05-09T08:20:28.000Z</time>
      </trkpt>
      <trkpt lat="44.35241" lon="6.86425">
        <ele>2513.6000976562</ele>
        <time>2021-05-09T08:20:33.000Z</time>
      </trkpt>
      <trkpt lat="44.35241" lon="6.86425">
        <ele>2513.6000976562</ele>
        <time>2021-05-09T08:20:35.000Z</time>
      </trkpt>
      <trkpt lat="44.3524" lon="6.86425">
        <ele>2513.6000976562</ele>
        <time>2021-05-09T08:20:38.000Z</time>
      </trkpt>
      <trkpt lat="44.35241" lon="6.86426">
        <ele>2513.6000976562</ele>
        <time>2021-05-09T08:20:43.000Z</time>
      </trkpt>
      <trkpt lat="44.35241" lon="6.86426">
        <ele>2513.6000976562</ele>
        <time>2021-05-09T08:20:44.000Z</time>
      </trkpt>
      <trkpt lat="44.35241" lon="6.86426">
        <ele>2513.6000976562</ele>
        <time>2021-05-09T08:20:45.000Z</time>
      </trkpt>
      <trkpt lat="44.35242" lon="6.86428">
        <ele>2513.6000976562</ele>
        <time>2021-05-09T08:20:51.000Z</time>
      </trkpt>
      <trkpt lat="44.35244" lon="6.8643">
        <ele>2513.6000976562</ele>
        <time>2021-05-09T08:20:54.000Z</time>
      </trkpt>
      <trkpt lat="44.35242" lon="6.8643">
        <ele>2513.6000976562</ele>
        <time>2021-05-09T08:20:57.000Z</time>
      </trkpt>
      <trkpt lat="44.35242" lon="6.8643">
        <ele>2513.6000976562</ele>
        <time>2021-05-09T08:21:00.000Z</time>
      </trkpt>
      <trkpt lat="44.35242" lon="6.86429">
        <ele>2513.6000976562</ele>
        <time>2021-05-09T08:21:06.000Z</time>
      </trkpt>
      <trkpt lat="44.35241" lon="6.8643">
        <ele>2513.6000976562</ele>
        <time>2021-05-09T08:21:09.000Z</time>
      </trkpt>
      <trkpt lat="44.35241" lon="6.8643">
        <ele>2513.6000976562</ele>
        <time>2021-05-09T08:21:10.000Z</time>
      </trkpt>
      <trkpt lat="44.35241" lon="6.8643">
        <ele>2513.6000976562</ele>
        <time>2021-05-09T08:21:11.000Z</time>
      </trkpt>
      <trkpt lat="44.3524" lon="6.86431">
        <ele>2513.6000976562</ele>
        <time>2021-05-09T08:21:13.000Z</time>
      </trkpt>
      <trkpt lat="44.35241" lon="6.86431">
        <ele>2513.6000976562</ele>
        <time>2021-05-09T08:21:14.000Z</time>
      </trkpt>
      <trkpt lat="44.35241" lon="6.8643">
        <ele>2513.6000976562</ele>
        <time>2021-05-09T08:21:15.000Z</time>
      </trkpt>
      <trkpt lat="44.35241" lon="6.86428">
        <ele>2513.6000976562</ele>
        <time>2021-05-09T08:21:24.000Z</time>
      </trkpt>
      <trkpt lat="44.35242" lon="6.86426">
        <ele>2513.6000976562</ele>
        <time>2021-05-09T08:21:27.000Z</time>
      </trkpt>
      <trkpt lat="44.35242" lon="6.86426">
        <ele>2513.6000976562</ele>
        <time>2021-05-09T08:21:29.000Z</time>
      </trkpt>
      <trkpt lat="44.35242" lon="6.86425">
        <ele>2513.6000976562</ele>
        <time>2021-05-09T08:21:32.000Z</time>
      </trkpt>
      <trkpt lat="44.35241" lon="6.86425">
        <ele>2513.6000976562</ele>
        <time>2021-05-09T08:21:33.000Z</time>
      </trkpt>
      <trkpt lat="44.35239" lon="6.86426">
        <ele>2513.6000976562</ele>
        <time>2021-05-09T08:21:36.000Z</time>
      </trkpt>
      <trkpt lat="44.35239" lon="6.86426">
        <ele>2513.6000976562</ele>
        <time>2021-05-09T08:21:38.000Z</time>
      </trkpt>
      <trkpt lat="44.35238" lon="6.86427">
        <ele>2513.6000976562</ele>
        <time>2021-05-09T08:21:41.000Z</time>
      </trkpt>
      <trkpt lat="44.35237" lon="6.86427">
        <ele>2513.6000976562</ele>
        <time>2021-05-09T08:21:43.000Z</time>
      </trkpt>
      <trkpt lat="44.35236" lon="6.86427">
        <ele>2513.6000976562</ele>
        <time>2021-05-09T08:21:44.000Z</time>
      </trkpt>
      <trkpt lat="44.35236" lon="6.86427">
        <ele>2513.6000976562</ele>
        <time>2021-05-09T08:21:47.000Z</time>
      </trkpt>
      <trkpt lat="44.35241" lon="6.86431">
        <ele>2513.6000976562</ele>
        <time>2021-05-09T08:22:17.000Z</time>
      </trkpt>
      <trkpt lat="44.3524" lon="6.86431">
        <ele>2513.6000976562</ele>
        <time>2021-05-09T08:22:24.000Z</time>
      </trkpt>
      <trkpt lat="44.35239" lon="6.86431">
        <ele>2513.6000976562</ele>
        <time>2021-05-09T08:22:26.000Z</time>
      </trkpt>
      <trkpt lat="44.35236" lon="6.86429">
        <ele>2513.6000976562</ele>
        <time>2021-05-09T08:22:30.000Z</time>
      </trkpt>
      <trkpt lat="44.35237" lon="6.86428">
        <ele>2513.6000976562</ele>
        <time>2021-05-09T08:22:35.000Z</time>
      </trkpt>
      <trkpt lat="44.35237" lon="6.86428">
        <ele>2513.6000976562</ele>
        <time>2021-05-09T08:22:36.000Z</time>
      </trkpt>
      <trkpt lat="44.35238" lon="6.86427">
        <ele>2513.6000976562</ele>
        <time>2021-05-09T08:22:38.000Z</time>
      </trkpt>
      <trkpt lat="44.35237" lon="6.86427">
        <ele>2513.6000976562</ele>
        <time>2021-05-09T08:22:40.000Z</time>
      </trkpt>
      <trkpt lat="44.35237" lon="6.86426">
        <ele>2513.6000976562</ele>
        <time>2021-05-09T08:22:42.000Z</time>
      </trkpt>
      <trkpt lat="44.35237" lon="6.86426">
        <ele>2513.6000976562</ele>
        <time>2021-05-09T08:22:43.000Z</time>
      </trkpt>
      <trkpt lat="44.35237" lon="6.86426">
        <ele>2513.6000976562</ele>
        <time>2021-05-09T08:22:45.000Z</time>
      </trkpt>
      <trkpt lat="44.35236" lon="6.86427">
        <ele>2513.6000976562</ele>
        <time>2021-05-09T08:22:48.000Z</time>
      </trkpt>
      <trkpt lat="44.35238" lon="6.86428">
        <ele>2513.6000976562</ele>
        <time>2021-05-09T08:22:52.000Z</time>
      </trkpt>
      <trkpt lat="44.35239" lon="6.86427">
        <ele>2513.6000976562</ele>
        <time>2021-05-09T08:22:58.000Z</time>
      </trkpt>
      <trkpt lat="44.35239" lon="6.86429">
        <ele>2513.6000976562</ele>
        <time>2021-05-09T08:23:19.000Z</time>
      </trkpt>
      <trkpt lat="44.35238" lon="6.8643">
        <ele>2513.6000976562</ele>
        <time>2021-05-09T08:23:21.000Z</time>
      </trkpt>
      <trkpt lat="44.35238" lon="6.86429">
        <ele>2513.6000976562</ele>
        <time>2021-05-09T08:23:22.000Z</time>
      </trkpt>
      <trkpt lat="44.35238" lon="6.86429">
        <ele>2513.6000976562</ele>
        <time>2021-05-09T08:23:25.000Z</time>
      </trkpt>
      <trkpt lat="44.35238" lon="6.86426">
        <ele>2513.6000976562</ele>
        <time>2021-05-09T08:23:33.000Z</time>
      </trkpt>
      <trkpt lat="44.35238" lon="6.86426">
        <ele>2513.8000488281</ele>
        <time>2021-05-09T08:23:34.000Z</time>
      </trkpt>
      <trkpt lat="44.35238" lon="6.86425">
        <ele>2513.8000488281</ele>
        <time>2021-05-09T08:23:36.000Z</time>
      </trkpt>
      <trkpt lat="44.35237" lon="6.86425">
        <ele>2513.8000488281</ele>
        <time>2021-05-09T08:23:38.000Z</time>
      </trkpt>
      <trkpt lat="44.35237" lon="6.86425">
        <ele>2513.8000488281</ele>
        <time>2021-05-09T08:23:39.000Z</time>
      </trkpt>
      <trkpt lat="44.35237" lon="6.86427">
        <ele>2513.8000488281</ele>
        <time>2021-05-09T08:23:42.000Z</time>
      </trkpt>
      <trkpt lat="44.35238" lon="6.86426">
        <ele>2513.8000488281</ele>
        <time>2021-05-09T08:23:48.000Z</time>
      </trkpt>
      <trkpt lat="44.35238" lon="6.86426">
        <ele>2513.8000488281</ele>
        <time>2021-05-09T08:23:52.000Z</time>
      </trkpt>
      <trkpt lat="44.35239" lon="6.86426">
        <ele>2514</ele>
        <time>2021-05-09T08:23:58.000Z</time>
      </trkpt>
      <trkpt lat="44.3524" lon="6.86427">
        <ele>2514.1999511719</ele>
        <time>2021-05-09T08:24:01.000Z</time>
      </trkpt>
      <trkpt lat="44.35241" lon="6.86427">
        <ele>2514.1999511719</ele>
        <time>2021-05-09T08:24:03.000Z</time>
      </trkpt>
      <trkpt lat="44.35242" lon="6.86427">
        <ele>2514.1999511719</ele>
        <time>2021-05-09T08:24:08.000Z</time>
      </trkpt>
      <trkpt lat="44.35241" lon="6.86427">
        <ele>2514.1999511719</ele>
        <time>2021-05-09T08:24:13.000Z</time>
      </trkpt>
      <trkpt lat="44.35241" lon="6.86427">
        <ele>2514.1999511719</ele>
        <time>2021-05-09T08:24:14.000Z</time>
      </trkpt>
      <trkpt lat="44.3524" lon="6.86427">
        <ele>2514.1999511719</ele>
        <time>2021-05-09T08:24:16.000Z</time>
      </trkpt>
      <trkpt lat="44.3524" lon="6.86428">
        <ele>2514.1999511719</ele>
        <time>2021-05-09T08:24:17.000Z</time>
      </trkpt>
      <trkpt lat="44.3524" lon="6.8643">
        <ele>2514.3999023438</ele>
        <time>2021-05-09T08:24:21.000Z</time>
      </trkpt>
      <trkpt lat="44.3524" lon="6.8643">
        <ele>2514.3999023438</ele>
        <time>2021-05-09T08:24:22.000Z</time>
      </trkpt>
      <trkpt lat="44.35239" lon="6.86431">
        <ele>2514.1999511719</ele>
        <time>2021-05-09T08:24:25.000Z</time>
      </trkpt>
      <trkpt lat="44.35239" lon="6.8643">
        <ele>2514.1999511719</ele>
        <time>2021-05-09T08:24:36.000Z</time>
      </trkpt>
      <trkpt lat="44.35238" lon="6.86429">
        <ele>2514.1999511719</ele>
        <time>2021-05-09T08:24:38.000Z</time>
      </trkpt>
      <trkpt lat="44.35239" lon="6.86428">
        <ele>2514.1999511719</ele>
        <time>2021-05-09T08:24:39.000Z</time>
      </trkpt>
      <trkpt lat="44.35241" lon="6.86424">
        <ele>2514.3999023438</ele>
        <time>2021-05-09T08:24:46.000Z</time>
      </trkpt>
      <trkpt lat="44.35239" lon="6.86428">
        <ele>2514.3999023438</ele>
        <time>2021-05-09T08:24:49.000Z</time>
      </trkpt>
      <trkpt lat="44.35239" lon="6.86428">
        <ele>2514.3999023438</ele>
        <time>2021-05-09T08:24:50.000Z</time>
      </trkpt>
      <trkpt lat="44.35239" lon="6.8643">
        <ele>2514.3999023438</ele>
        <time>2021-05-09T08:24:51.000Z</time>
      </trkpt>
      <trkpt lat="44.35239" lon="6.86432">
        <ele>2514.3999023438</ele>
        <time>2021-05-09T08:24:53.000Z</time>
      </trkpt>
      <trkpt lat="44.35241" lon="6.86432">
        <ele>2514.1999511719</ele>
        <time>2021-05-09T08:25:05.000Z</time>
      </trkpt>
      <trkpt lat="44.35242" lon="6.8643">
        <ele>2514.1999511719</ele>
        <time>2021-05-09T08:25:11.000Z</time>
      </trkpt>
      <trkpt lat="44.35242" lon="6.86427">
        <ele>2514.1999511719</ele>
        <time>2021-05-09T08:25:15.000Z</time>
      </trkpt>
      <trkpt lat="44.35241" lon="6.86428">
        <ele>2514.1999511719</ele>
        <time>2021-05-09T08:25:16.000Z</time>
      </trkpt>
      <trkpt lat="44.35241" lon="6.86429">
        <ele>2514.1999511719</ele>
        <time>2021-05-09T08:25:17.000Z</time>
      </trkpt>
      <trkpt lat="44.35241" lon="6.86429">
        <ele>2514.1999511719</ele>
        <time>2021-05-09T08:25:18.000Z</time>
      </trkpt>
      <trkpt lat="44.35241" lon="6.8643">
        <ele>2514</ele>
        <time>2021-05-09T08:25:20.000Z</time>
      </trkpt>
      <trkpt lat="44.3524" lon="6.8643">
        <ele>2514</ele>
        <time>2021-05-09T08:25:21.000Z</time>
      </trkpt>
      <trkpt lat="44.3524" lon="6.8643">
        <ele>2513.8000488281</ele>
        <time>2021-05-09T08:25:22.000Z</time>
      </trkpt>
      <trkpt lat="44.3524" lon="6.8643">
        <ele>2513.8000488281</ele>
        <time>2021-05-09T08:25:23.000Z</time>
      </trkpt>
      <trkpt lat="44.35238" lon="6.86428">
        <ele>2514</ele>
        <time>2021-05-09T08:25:34.000Z</time>
      </trkpt>
      <trkpt lat="44.35238" lon="6.86429">
        <ele>2514</ele>
        <time>2021-05-09T08:25:35.000Z</time>
      </trkpt>
      <trkpt lat="44.35238" lon="6.86429">
        <ele>2514</ele>
        <time>2021-05-09T08:25:36.000Z</time>
      </trkpt>
      <trkpt lat="44.35238" lon="6.86429">
        <ele>2514</ele>
        <time>2021-05-09T08:25:37.000Z</time>
      </trkpt>
      <trkpt lat="44.35238" lon="6.86429">
        <ele>2514</ele>
        <time>2021-05-09T08:25:38.000Z</time>
      </trkpt>
      <trkpt lat="44.35238" lon="6.86429">
        <ele>2514</ele>
        <time>2021-05-09T08:25:39.000Z</time>
      </trkpt>
      <trkpt lat="44.35238" lon="6.86429">
        <ele>2514</ele>
        <time>2021-05-09T08:25:45.000Z</time>
      </trkpt>
      <trkpt lat="44.35238" lon="6.86429">
        <ele>2514</ele>
        <time>2021-05-09T08:25:47.000Z</time>
      </trkpt>
      <trkpt lat="44.35238" lon="6.86429">
        <ele>2514</ele>
        <time>2021-05-09T08:25:49.000Z</time>
      </trkpt>
      <trkpt lat="44.35238" lon="6.8643">
        <ele>2514</ele>
        <time>2021-05-09T08:25:51.000Z</time>
      </trkpt>
      <trkpt lat="44.35238" lon="6.86432">
        <ele>2514</ele>
        <time>2021-05-09T08:25:54.000Z</time>
      </trkpt>
      <trkpt lat="44.35237" lon="6.86436">
        <ele>2514</ele>
        <time>2021-05-09T08:25:58.000Z</time>
      </trkpt>
      <trkpt lat="44.35235" lon="6.86438">
        <ele>2514</ele>
        <time>2021-05-09T08:26:01.000Z</time>
      </trkpt>
      <trkpt lat="44.35235" lon="6.86438">
        <ele>2514</ele>
        <time>2021-05-09T08:26:02.000Z</time>
      </trkpt>
      <trkpt lat="44.35235" lon="6.86438">
        <ele>2514</ele>
        <time>2021-05-09T08:26:03.000Z</time>
      </trkpt>
      <trkpt lat="44.35234" lon="6.86439">
        <ele>2515</ele>
        <time>2021-05-09T08:26:04.000Z</time>
      </trkpt>
      <trkpt lat="44.35234" lon="6.86439">
        <ele>2515.8000488281</ele>
        <time>2021-05-09T08:26:05.000Z</time>
      </trkpt>
      <trkpt lat="44.35232" lon="6.86441">
        <ele>2516.6000976562</ele>
        <time>2021-05-09T08:26:09.000Z</time>
      </trkpt>
      <trkpt lat="44.35232" lon="6.86442">
        <ele>2516.6000976562</ele>
        <time>2021-05-09T08:26:10.000Z</time>
      </trkpt>
      <trkpt lat="44.35231" lon="6.86442">
        <ele>2516.6000976562</ele>
        <time>2021-05-09T08:26:11.000Z</time>
      </trkpt>
      <trkpt lat="44.35231" lon="6.86442">
        <ele>2516.8000488281</ele>
        <time>2021-05-09T08:26:12.000Z</time>
      </trkpt>
      <trkpt lat="44.3523" lon="6.86444">
        <ele>2517.1999511719</ele>
        <time>2021-05-09T08:26:15.000Z</time>
      </trkpt>
      <trkpt lat="44.35231" lon="6.86445">
        <ele>2517.3999023438</ele>
        <time>2021-05-09T08:26:18.000Z</time>
      </trkpt>
      <trkpt lat="44.35231" lon="6.86446">
        <ele>2517.3999023438</ele>
        <time>2021-05-09T08:26:24.000Z</time>
      </trkpt>
      <trkpt lat="44.35232" lon="6.86449">
        <ele>2518</ele>
        <time>2021-05-09T08:26:27.000Z</time>
      </trkpt>
      <trkpt lat="44.35234" lon="6.86453">
        <ele>2519</ele>
        <time>2021-05-09T08:26:32.000Z</time>
      </trkpt>
      <trkpt lat="44.35237" lon="6.86456">
        <ele>2519.6000976562</ele>
        <time>2021-05-09T08:26:36.000Z</time>
      </trkpt>
      <trkpt lat="44.35237" lon="6.86458">
        <ele>2520</ele>
        <time>2021-05-09T08:26:38.000Z</time>
      </trkpt>
      <trkpt lat="44.35238" lon="6.86459">
        <ele>2520.1999511719</ele>
        <time>2021-05-09T08:26:39.000Z</time>
      </trkpt>
      <trkpt lat="44.3524" lon="6.86461">
        <ele>2520.8000488281</ele>
        <time>2021-05-09T08:26:46.000Z</time>
      </trkpt>
      <trkpt lat="44.35242" lon="6.86462">
        <ele>2521.1999511719</ele>
        <time>2021-05-09T08:26:51.000Z</time>
      </trkpt>
      <trkpt lat="44.35242" lon="6.86463">
        <ele>2521.3999023438</ele>
        <time>2021-05-09T08:26:53.000Z</time>
      </trkpt>
      <trkpt lat="44.35241" lon="6.86463">
        <ele>2521.6000976562</ele>
        <time>2021-05-09T08:26:55.000Z</time>
      </trkpt>
      <trkpt lat="44.35239" lon="6.86466">
        <ele>2522.3999023438</ele>
        <time>2021-05-09T08:27:01.000Z</time>
      </trkpt>
      <trkpt lat="44.35235" lon="6.8647">
        <ele>2523.3999023438</ele>
        <time>2021-05-09T08:27:11.000Z</time>
      </trkpt>
      <trkpt lat="44.35234" lon="6.86473">
        <ele>2524.3999023438</ele>
        <time>2021-05-09T08:27:17.000Z</time>
      </trkpt>
      <trkpt lat="44.35235" lon="6.86476">
        <ele>2525.6000976562</ele>
        <time>2021-05-09T08:27:23.000Z</time>
      </trkpt>
      <trkpt lat="44.35241" lon="6.86482">
        <ele>2526.6000976562</ele>
        <time>2021-05-09T08:27:32.000Z</time>
      </trkpt>
      <trkpt lat="44.35242" lon="6.86487">
        <ele>2527.8000488281</ele>
        <time>2021-05-09T08:27:40.000Z</time>
      </trkpt>
      <trkpt lat="44.35239" lon="6.86487">
        <ele>2528.6000976562</ele>
        <time>2021-05-09T08:27:45.000Z</time>
      </trkpt>
      <trkpt lat="44.35239" lon="6.86487">
        <ele>2528.8000488281</ele>
        <time>2021-05-09T08:27:48.000Z</time>
      </trkpt>
      <trkpt lat="44.35235" lon="6.86491">
        <ele>2529.8000488281</ele>
        <time>2021-05-09T08:28:10.000Z</time>
      </trkpt>
      <trkpt lat="44.35235" lon="6.86492">
        <ele>2529.8000488281</ele>
        <time>2021-05-09T08:28:12.000Z</time>
      </trkpt>
      <trkpt lat="44.35235" lon="6.86494">
        <ele>2530.1999511719</ele>
        <time>2021-05-09T08:28:15.000Z</time>
      </trkpt>
      <trkpt lat="44.35236" lon="6.86497">
        <ele>2531</ele>
        <time>2021-05-09T08:28:18.000Z</time>
      </trkpt>
      <trkpt lat="44.35236" lon="6.86501">
        <ele>2532</ele>
        <time>2021-05-09T08:28:24.000Z</time>
      </trkpt>
      <trkpt lat="44.35236" lon="6.86505">
        <ele>2533.1999511719</ele>
        <time>2021-05-09T08:28:29.000Z</time>
      </trkpt>
      <trkpt lat="44.35237" lon="6.86506">
        <ele>2533.1999511719</ele>
        <time>2021-05-09T08:28:30.000Z</time>
      </trkpt>
      <trkpt lat="44.35237" lon="6.86506">
        <ele>2533.3999023438</ele>
        <time>2021-05-09T08:28:31.000Z</time>
      </trkpt>
      <trkpt lat="44.35238" lon="6.86509">
        <ele>2534.1999511719</ele>
        <time>2021-05-09T08:28:34.000Z</time>
      </trkpt>
      <trkpt lat="44.35242" lon="6.86518">
        <ele>2535.1999511719</ele>
        <time>2021-05-09T08:28:44.000Z</time>
      </trkpt>
      <trkpt lat="44.35242" lon="6.86522">
        <ele>2536.1999511719</ele>
        <time>2021-05-09T08:28:49.000Z</time>
      </trkpt>
      <trkpt lat="44.35244" lon="6.86528">
        <ele>2537.3999023438</ele>
        <time>2021-05-09T08:28:57.000Z</time>
      </trkpt>
      <trkpt lat="44.35249" lon="6.86536">
        <ele>2538.6000976562</ele>
        <time>2021-05-09T08:29:06.000Z</time>
      </trkpt>
      <trkpt lat="44.35251" lon="6.86545">
        <ele>2539.6000976562</ele>
        <time>2021-05-09T08:29:18.000Z</time>
      </trkpt>
      <trkpt lat="44.35251" lon="6.86552">
        <ele>2540.6000976562</ele>
        <time>2021-05-09T08:29:26.000Z</time>
      </trkpt>
      <trkpt lat="44.35252" lon="6.86554">
        <ele>2541.1999511719</ele>
        <time>2021-05-09T08:29:30.000Z</time>
      </trkpt>
      <trkpt lat="44.35254" lon="6.86557">
        <ele>2541.8000488281</ele>
        <time>2021-05-09T08:29:35.000Z</time>
      </trkpt>
      <trkpt lat="44.35258" lon="6.86565">
        <ele>2542.8000488281</ele>
        <time>2021-05-09T08:29:46.000Z</time>
      </trkpt>
      <trkpt lat="44.35257" lon="6.86572">
        <ele>2544</ele>
        <time>2021-05-09T08:29:57.000Z</time>
      </trkpt>
      <trkpt lat="44.35259" lon="6.86574">
        <ele>2544</ele>
        <time>2021-05-09T08:30:01.000Z</time>
      </trkpt>
      <trkpt lat="44.35259" lon="6.86577">
        <ele>2545</ele>
        <time>2021-05-09T08:30:14.000Z</time>
      </trkpt>
      <trkpt lat="44.35252" lon="6.8657">
        <ele>2546</ele>
        <time>2021-05-09T08:30:29.000Z</time>
      </trkpt>
      <trkpt lat="44.35247" lon="6.86568">
        <ele>2547</ele>
        <time>2021-05-09T08:30:35.000Z</time>
      </trkpt>
      <trkpt lat="44.35243" lon="6.86565">
        <ele>2548.1999511719</ele>
        <time>2021-05-09T08:30:43.000Z</time>
      </trkpt>
      <trkpt lat="44.35239" lon="6.86564">
        <ele>2549.1999511719</ele>
        <time>2021-05-09T08:30:49.000Z</time>
      </trkpt>
      <trkpt lat="44.35236" lon="6.86562">
        <ele>2550.3999023438</ele>
        <time>2021-05-09T08:30:56.000Z</time>
      </trkpt>
      <trkpt lat="44.35234" lon="6.86562">
        <ele>2551.3999023438</ele>
        <time>2021-05-09T08:31:02.000Z</time>
      </trkpt>
      <trkpt lat="44.35229" lon="6.86562">
        <ele>2552.6000976562</ele>
        <time>2021-05-09T08:31:10.000Z</time>
      </trkpt>
      <trkpt lat="44.35226" lon="6.86562">
        <ele>2553.8000488281</ele>
        <time>2021-05-09T08:31:17.000Z</time>
      </trkpt>
      <trkpt lat="44.35218" lon="6.86565">
        <ele>2554.8000488281</ele>
        <time>2021-05-09T08:31:30.000Z</time>
      </trkpt>
      <trkpt lat="44.35216" lon="6.86571">
        <ele>2555.8000488281</ele>
        <time>2021-05-09T08:31:36.000Z</time>
      </trkpt>
      <trkpt lat="44.35218" lon="6.86575">
        <ele>2556.8000488281</ele>
        <time>2021-05-09T08:31:44.000Z</time>
      </trkpt>
      <trkpt lat="44.35223" lon="6.86581">
        <ele>2557.8000488281</ele>
        <time>2021-05-09T08:31:51.000Z</time>
      </trkpt>
      <trkpt lat="44.35225" lon="6.86587">
        <ele>2558.8000488281</ele>
        <time>2021-05-09T08:31:58.000Z</time>
      </trkpt>
      <trkpt lat="44.35227" lon="6.86593">
        <ele>2560</ele>
        <time>2021-05-09T08:32:06.000Z</time>
      </trkpt>
      <trkpt lat="44.35228" lon="6.86595">
        <ele>2561</ele>
        <time>2021-05-09T08:32:14.000Z</time>
      </trkpt>
      <trkpt lat="44.3523" lon="6.86603">
        <ele>2562.1999511719</ele>
        <time>2021-05-09T08:32:24.000Z</time>
      </trkpt>
      <trkpt lat="44.35227" lon="6.86612">
        <ele>2563.1999511719</ele>
        <time>2021-05-09T08:32:32.000Z</time>
      </trkpt>
      <trkpt lat="44.35228" lon="6.86616">
        <ele>2564.3999023438</ele>
        <time>2021-05-09T08:32:41.000Z</time>
      </trkpt>
      <trkpt lat="44.35231" lon="6.86617">
        <ele>2564.8000488281</ele>
        <time>2021-05-09T08:32:54.000Z</time>
      </trkpt>
      <trkpt lat="44.35232" lon="6.86615">
        <ele>2565</ele>
        <time>2021-05-09T08:32:57.000Z</time>
      </trkpt>
      <trkpt lat="44.35235" lon="6.86615">
        <ele>2565.1999511719</ele>
        <time>2021-05-09T08:33:05.000Z</time>
      </trkpt>
      <trkpt lat="44.35235" lon="6.86615">
        <ele>2565.3999023438</ele>
        <time>2021-05-09T08:33:06.000Z</time>
      </trkpt>
      <trkpt lat="44.35235" lon="6.86615">
        <ele>2565.6000976562</ele>
        <time>2021-05-09T08:33:09.000Z</time>
      </trkpt>
      <trkpt lat="44.35237" lon="6.86616">
        <ele>2566.3999023438</ele>
        <time>2021-05-09T08:33:13.000Z</time>
      </trkpt>
      <trkpt lat="44.35236" lon="6.86615">
        <ele>2566.3999023438</ele>
        <time>2021-05-09T08:33:14.000Z</time>
      </trkpt>
      <trkpt lat="44.35232" lon="6.86617">
        <ele>2567.3999023438</ele>
        <time>2021-05-09T08:33:25.000Z</time>
      </trkpt>
      <trkpt lat="44.35228" lon="6.86618">
        <ele>2568.6000976562</ele>
        <time>2021-05-09T08:33:31.000Z</time>
      </trkpt>
      <trkpt lat="44.35224" lon="6.8662">
        <ele>2569.8000488281</ele>
        <time>2021-05-09T08:33:37.000Z</time>
      </trkpt>
      <trkpt lat="44.3522" lon="6.86622">
        <ele>2570.8000488281</ele>
        <time>2021-05-09T08:33:44.000Z</time>
      </trkpt>
      <trkpt lat="44.35218" lon="6.86625">
        <ele>2571.8000488281</ele>
        <time>2021-05-09T08:33:50.000Z</time>
      </trkpt>
      <trkpt lat="44.35218" lon="6.86625">
        <ele>2572</ele>
        <time>2021-05-09T08:33:53.000Z</time>
      </trkpt>
      <trkpt lat="44.35217" lon="6.86632">
        <ele>2573</ele>
        <time>2021-05-09T08:34:02.000Z</time>
      </trkpt>
      <trkpt lat="44.35218" lon="6.86633">
        <ele>2573.1999511719</ele>
        <time>2021-05-09T08:34:03.000Z</time>
      </trkpt>
      <trkpt lat="44.35219" lon="6.86634">
        <ele>2573.8000488281</ele>
        <time>2021-05-09T08:34:06.000Z</time>
      </trkpt>
      <trkpt lat="44.35222" lon="6.86635">
        <ele>2574.1999511719</ele>
        <time>2021-05-09T08:34:08.000Z</time>
      </trkpt>
      <trkpt lat="44.35224" lon="6.86636">
        <ele>2575.1999511719</ele>
        <time>2021-05-09T08:34:13.000Z</time>
      </trkpt>
      <trkpt lat="44.35227" lon="6.8664">
        <ele>2576.3999023438</ele>
        <time>2021-05-09T08:34:18.000Z</time>
      </trkpt>
      <trkpt lat="44.35224" lon="6.86644">
        <ele>2577.3999023438</ele>
        <time>2021-05-09T08:34:24.000Z</time>
      </trkpt>
      <trkpt lat="44.35221" lon="6.86646">
        <ele>2577.8000488281</ele>
        <time>2021-05-09T08:34:31.000Z</time>
      </trkpt>
      <trkpt lat="44.3522" lon="6.86648">
        <ele>2577.8000488281</ele>
        <time>2021-05-09T08:34:34.000Z</time>
      </trkpt>
      <trkpt lat="44.35219" lon="6.86653">
        <ele>2578.6000976562</ele>
        <time>2021-05-09T08:34:39.000Z</time>
      </trkpt>
      <trkpt lat="44.35221" lon="6.86655">
        <ele>2579.8000488281</ele>
        <time>2021-05-09T08:34:44.000Z</time>
      </trkpt>
      <trkpt lat="44.35221" lon="6.86658">
        <ele>2580.8000488281</ele>
        <time>2021-05-09T08:34:58.000Z</time>
      </trkpt>
      <trkpt lat="44.35226" lon="6.86658">
        <ele>2581.1999511719</ele>
        <time>2021-05-09T08:35:09.000Z</time>
      </trkpt>
      <trkpt lat="44.35225" lon="6.86659">
        <ele>2581</ele>
        <time>2021-05-09T08:35:14.000Z</time>
      </trkpt>
      <trkpt lat="44.35225" lon="6.8666">
        <ele>2580.8000488281</ele>
        <time>2021-05-09T08:35:17.000Z</time>
      </trkpt>
      <trkpt lat="44.35225" lon="6.8666">
        <ele>2580.8000488281</ele>
        <time>2021-05-09T08:35:18.000Z</time>
      </trkpt>
      <trkpt lat="44.35226" lon="6.86661">
        <ele>2580.6000976562</ele>
        <time>2021-05-09T08:35:21.000Z</time>
      </trkpt>
      <trkpt lat="44.35226" lon="6.86661">
        <ele>2580.6000976562</ele>
        <time>2021-05-09T08:35:22.000Z</time>
      </trkpt>
      <trkpt lat="44.35226" lon="6.86661">
        <ele>2580.6000976562</ele>
        <time>2021-05-09T08:35:24.000Z</time>
      </trkpt>
      <trkpt lat="44.35225" lon="6.86661">
        <ele>2580.6000976562</ele>
        <time>2021-05-09T08:35:28.000Z</time>
      </trkpt>
      <trkpt lat="44.35225" lon="6.86661">
        <ele>2580.8000488281</ele>
        <time>2021-05-09T08:35:30.000Z</time>
      </trkpt>
      <trkpt lat="44.35221" lon="6.86663">
        <ele>2581</ele>
        <time>2021-05-09T08:35:34.000Z</time>
      </trkpt>
      <trkpt lat="44.35221" lon="6.86662">
        <ele>2581.1999511719</ele>
        <time>2021-05-09T08:35:36.000Z</time>
      </trkpt>
      <trkpt lat="44.35217" lon="6.86661">
        <ele>2581.3999023438</ele>
        <time>2021-05-09T08:35:49.000Z</time>
      </trkpt>
      <trkpt lat="44.35217" lon="6.86661">
        <ele>2581.1999511719</ele>
        <time>2021-05-09T08:35:55.000Z</time>
      </trkpt>
      <trkpt lat="44.35217" lon="6.86661">
        <ele>2581.1999511719</ele>
        <time>2021-05-09T08:35:56.000Z</time>
      </trkpt>
      <trkpt lat="44.35217" lon="6.86661">
        <ele>2581</ele>
        <time>2021-05-09T08:35:57.000Z</time>
      </trkpt>
      <trkpt lat="44.35216" lon="6.86662">
        <ele>2581</ele>
        <time>2021-05-09T08:36:01.000Z</time>
      </trkpt>
      <trkpt lat="44.35216" lon="6.86662">
        <ele>2581</ele>
        <time>2021-05-09T08:36:02.000Z</time>
      </trkpt>
      <trkpt lat="44.35216" lon="6.86662">
        <ele>2581</ele>
        <time>2021-05-09T08:36:03.000Z</time>
      </trkpt>
      <trkpt lat="44.35216" lon="6.86662">
        <ele>2581</ele>
        <time>2021-05-09T08:36:05.000Z</time>
      </trkpt>
      <trkpt lat="44.35218" lon="6.86662">
        <ele>2581</ele>
        <time>2021-05-09T08:36:07.000Z</time>
      </trkpt>
      <trkpt lat="44.35218" lon="6.86662">
        <ele>2581</ele>
        <time>2021-05-09T08:36:08.000Z</time>
      </trkpt>
      <trkpt lat="44.35219" lon="6.86663">
        <ele>2581</ele>
        <time>2021-05-09T08:36:09.000Z</time>
      </trkpt>
      <trkpt lat="44.35218" lon="6.86662">
        <ele>2581</ele>
        <time>2021-05-09T08:36:16.000Z</time>
      </trkpt>
      <trkpt lat="44.35217" lon="6.86661">
        <ele>2581</ele>
        <time>2021-05-09T08:36:18.000Z</time>
      </trkpt>
      <trkpt lat="44.35217" lon="6.8666">
        <ele>2581</ele>
        <time>2021-05-09T08:36:20.000Z</time>
      </trkpt>
      <trkpt lat="44.35217" lon="6.86659">
        <ele>2581</ele>
        <time>2021-05-09T08:36:22.000Z</time>
      </trkpt>
      <trkpt lat="44.35216" lon="6.86658">
        <ele>2581</ele>
        <time>2021-05-09T08:36:23.000Z</time>
      </trkpt>
      <trkpt lat="44.35215" lon="6.86656">
        <ele>2581</ele>
        <time>2021-05-09T08:36:24.000Z</time>
      </trkpt>
      <trkpt lat="44.35214" lon="6.86656">
        <ele>2581</ele>
        <time>2021-05-09T08:36:30.000Z</time>
      </trkpt>
      <trkpt lat="44.35214" lon="6.86656">
        <ele>2581</ele>
        <time>2021-05-09T08:36:31.000Z</time>
      </trkpt>
      <trkpt lat="44.35213" lon="6.86657">
        <ele>2581</ele>
        <time>2021-05-09T08:36:33.000Z</time>
      </trkpt>
      <trkpt lat="44.35213" lon="6.86658">
        <ele>2581</ele>
        <time>2021-05-09T08:36:35.000Z</time>
      </trkpt>
      <trkpt lat="44.35214" lon="6.86658">
        <ele>2581</ele>
        <time>2021-05-09T08:36:38.000Z</time>
      </trkpt>
      <trkpt lat="44.35214" lon="6.86659">
        <ele>2581</ele>
        <time>2021-05-09T08:36:39.000Z</time>
      </trkpt>
      <trkpt lat="44.35214" lon="6.86659">
        <ele>2581</ele>
        <time>2021-05-09T08:36:40.000Z</time>
      </trkpt>
      <trkpt lat="44.35215" lon="6.86659">
        <ele>2581</ele>
        <time>2021-05-09T08:36:44.000Z</time>
      </trkpt>
      <trkpt lat="44.35215" lon="6.86659">
        <ele>2581</ele>
        <time>2021-05-09T08:36:46.000Z</time>
      </trkpt>
      <trkpt lat="44.35215" lon="6.86658">
        <ele>2581</ele>
        <time>2021-05-09T08:36:55.000Z</time>
      </trkpt>
      <trkpt lat="44.35215" lon="6.86658">
        <ele>2581</ele>
        <time>2021-05-09T08:36:56.000Z</time>
      </trkpt>
      <trkpt lat="44.35215" lon="6.86658">
        <ele>2581</ele>
        <time>2021-05-09T08:36:59.000Z</time>
      </trkpt>
      <trkpt lat="44.35215" lon="6.86656">
        <ele>2581</ele>
        <time>2021-05-09T08:37:08.000Z</time>
      </trkpt>
      <trkpt lat="44.35215" lon="6.86657">
        <ele>2581</ele>
        <time>2021-05-09T08:37:09.000Z</time>
      </trkpt>
      <trkpt lat="44.35215" lon="6.86656">
        <ele>2581</ele>
        <time>2021-05-09T08:37:10.000Z</time>
      </trkpt>
      <trkpt lat="44.35216" lon="6.86656">
        <ele>2581</ele>
        <time>2021-05-09T08:37:13.000Z</time>
      </trkpt>
      <trkpt lat="44.35216" lon="6.86656">
        <ele>2581</ele>
        <time>2021-05-09T08:37:14.000Z</time>
      </trkpt>
      <trkpt lat="44.35215" lon="6.86658">
        <ele>2581</ele>
        <time>2021-05-09T08:37:23.000Z</time>
      </trkpt>
      <trkpt lat="44.35215" lon="6.86658">
        <ele>2581</ele>
        <time>2021-05-09T08:37:24.000Z</time>
      </trkpt>
      <trkpt lat="44.35214" lon="6.86658">
        <ele>2581</ele>
        <time>2021-05-09T08:37:26.000Z</time>
      </trkpt>
      <trkpt lat="44.35214" lon="6.86658">
        <ele>2581</ele>
        <time>2021-05-09T08:37:28.000Z</time>
      </trkpt>
      <trkpt lat="44.35215" lon="6.86658">
        <ele>2581</ele>
        <time>2021-05-09T08:37:30.000Z</time>
      </trkpt>
      <trkpt lat="44.35216" lon="6.86659">
        <ele>2581</ele>
        <time>2021-05-09T08:37:38.000Z</time>
      </trkpt>
      <trkpt lat="44.35216" lon="6.8666">
        <ele>2581</ele>
        <time>2021-05-09T08:37:43.000Z</time>
      </trkpt>
      <trkpt lat="44.35215" lon="6.86659">
        <ele>2581</ele>
        <time>2021-05-09T08:37:46.000Z</time>
      </trkpt>
      <trkpt lat="44.35213" lon="6.86659">
        <ele>2581</ele>
        <time>2021-05-09T08:37:51.000Z</time>
      </trkpt>
      <trkpt lat="44.35213" lon="6.86659">
        <ele>2581</ele>
        <time>2021-05-09T08:37:54.000Z</time>
      </trkpt>
      <trkpt lat="44.35213" lon="6.86658">
        <ele>2581</ele>
        <time>2021-05-09T08:37:58.000Z</time>
      </trkpt>
      <trkpt lat="44.35212" lon="6.86658">
        <ele>2581</ele>
        <time>2021-05-09T08:37:59.000Z</time>
      </trkpt>
      <trkpt lat="44.35212" lon="6.86658">
        <ele>2581</ele>
        <time>2021-05-09T08:38:00.000Z</time>
      </trkpt>
      <trkpt lat="44.35212" lon="6.86657">
        <ele>2581</ele>
        <time>2021-05-09T08:38:03.000Z</time>
      </trkpt>
      <trkpt lat="44.35212" lon="6.86654">
        <ele>2581</ele>
        <time>2021-05-09T08:38:13.000Z</time>
      </trkpt>
      <trkpt lat="44.35212" lon="6.86654">
        <ele>2581</ele>
        <time>2021-05-09T08:38:16.000Z</time>
      </trkpt>
      <trkpt lat="44.35211" lon="6.86654">
        <ele>2581</ele>
        <time>2021-05-09T08:38:24.000Z</time>
      </trkpt>
      <trkpt lat="44.35211" lon="6.86655">
        <ele>2581</ele>
        <time>2021-05-09T08:38:28.000Z</time>
      </trkpt>
      <trkpt lat="44.35213" lon="6.86655">
        <ele>2581</ele>
        <time>2021-05-09T08:38:36.000Z</time>
      </trkpt>
      <trkpt lat="44.35213" lon="6.86656">
        <ele>2581</ele>
        <time>2021-05-09T08:38:38.000Z</time>
      </trkpt>
      <trkpt lat="44.35213" lon="6.86656">
        <ele>2581</ele>
        <time>2021-05-09T08:38:39.000Z</time>
      </trkpt>
      <trkpt lat="44.35213" lon="6.86656">
        <ele>2581</ele>
        <time>2021-05-09T08:38:40.000Z</time>
      </trkpt>
      <trkpt lat="44.35214" lon="6.86656">
        <ele>2581</ele>
        <time>2021-05-09T08:38:42.000Z</time>
      </trkpt>
      <trkpt lat="44.35214" lon="6.86657">
        <ele>2581</ele>
        <time>2021-05-09T08:38:45.000Z</time>
      </trkpt>
      <trkpt lat="44.35214" lon="6.86657">
        <ele>2581</ele>
        <time>2021-05-09T08:38:49.000Z</time>
      </trkpt>
      <trkpt lat="44.35214" lon="6.86657">
        <ele>2581</ele>
        <time>2021-05-09T08:38:53.000Z</time>
      </trkpt>
      <trkpt lat="44.35214" lon="6.86657">
        <ele>2581</ele>
        <time>2021-05-09T08:38:54.000Z</time>
      </trkpt>
      <trkpt lat="44.35214" lon="6.86657">
        <ele>2581</ele>
        <time>2021-05-09T08:38:55.000Z</time>
      </trkpt>
      <trkpt lat="44.35215" lon="6.86657">
        <ele>2581</ele>
        <time>2021-05-09T08:38:56.000Z</time>
      </trkpt>
      <trkpt lat="44.35215" lon="6.86657">
        <ele>2581</ele>
        <time>2021-05-09T08:38:59.000Z</time>
      </trkpt>
      <trkpt lat="44.35216" lon="6.86657">
        <ele>2581</ele>
        <time>2021-05-09T08:39:00.000Z</time>
      </trkpt>
      <trkpt lat="44.35218" lon="6.86659">
        <ele>2581</ele>
        <time>2021-05-09T08:39:02.000Z</time>
      </trkpt>
      <trkpt lat="44.35219" lon="6.8666">
        <ele>2581</ele>
        <time>2021-05-09T08:39:03.000Z</time>
      </trkpt>
      <trkpt lat="44.3522" lon="6.86662">
        <ele>2581</ele>
        <time>2021-05-09T08:39:05.000Z</time>
      </trkpt>
      <trkpt lat="44.3522" lon="6.86663">
        <ele>2581</ele>
        <time>2021-05-09T08:39:06.000Z</time>
      </trkpt>
      <trkpt lat="44.35221" lon="6.86664">
        <ele>2582</ele>
        <time>2021-05-09T08:39:07.000Z</time>
      </trkpt>
      <trkpt lat="44.35221" lon="6.86666">
        <ele>2582.1999511719</ele>
        <time>2021-05-09T08:39:09.000Z</time>
      </trkpt>
      <trkpt lat="44.35222" lon="6.86667">
        <ele>2582.8000488281</ele>
        <time>2021-05-09T08:39:10.000Z</time>
      </trkpt>
      <trkpt lat="44.35222" lon="6.86669">
        <ele>2583.3999023438</ele>
        <time>2021-05-09T08:39:11.000Z</time>
      </trkpt>
      <trkpt lat="44.35223" lon="6.8667">
        <ele>2583.3999023438</ele>
        <time>2021-05-09T08:39:12.000Z</time>
      </trkpt>
      <trkpt lat="44.35223" lon="6.86671">
        <ele>2583.3999023438</ele>
        <time>2021-05-09T08:39:13.000Z</time>
      </trkpt>
      <trkpt lat="44.35224" lon="6.86675">
        <ele>2583.8000488281</ele>
        <time>2021-05-09T08:39:17.000Z</time>
      </trkpt>
      <trkpt lat="44.35226" lon="6.86679">
        <ele>2584</ele>
        <time>2021-05-09T08:39:20.000Z</time>
      </trkpt>
      <trkpt lat="44.35227" lon="6.86681">
        <ele>2584.1999511719</ele>
        <time>2021-05-09T08:39:22.000Z</time>
      </trkpt>
      <trkpt lat="44.35227" lon="6.86681">
        <ele>2584.3999023438</ele>
        <time>2021-05-09T08:39:23.000Z</time>
      </trkpt>
      <trkpt lat="44.35228" lon="6.86682">
        <ele>2584.6000976562</ele>
        <time>2021-05-09T08:39:24.000Z</time>
      </trkpt>
      <trkpt lat="44.35228" lon="6.86683">
        <ele>2584.8000488281</ele>
        <time>2021-05-09T08:39:25.000Z</time>
      </trkpt>
      <trkpt lat="44.35229" lon="6.86684">
        <ele>2585.3999023438</ele>
        <time>2021-05-09T08:39:27.000Z</time>
      </trkpt>
      <trkpt lat="44.3523" lon="6.86685">
        <ele>2585.6000976562</ele>
        <time>2021-05-09T08:39:29.000Z</time>
      </trkpt>
      <trkpt lat="44.3523" lon="6.86687">
        <ele>2585.8000488281</ele>
        <time>2021-05-09T08:39:31.000Z</time>
      </trkpt>
      <trkpt lat="44.35231" lon="6.86687">
        <ele>2586</ele>
        <time>2021-05-09T08:39:32.000Z</time>
      </trkpt>
      <trkpt lat="44.35232" lon="6.8669">
        <ele>2586.6000976562</ele>
        <time>2021-05-09T08:39:36.000Z</time>
      </trkpt>
      <trkpt lat="44.35233" lon="6.86691">
        <ele>2586.8000488281</ele>
        <time>2021-05-09T08:39:37.000Z</time>
      </trkpt>
      <trkpt lat="44.35234" lon="6.86693">
        <ele>2587.1999511719</ele>
        <time>2021-05-09T08:39:40.000Z</time>
      </trkpt>
      <trkpt lat="44.35235" lon="6.86696">
        <ele>2587.3999023438</ele>
        <time>2021-05-09T08:39:44.000Z</time>
      </trkpt>
      <trkpt lat="44.35235" lon="6.86696">
        <ele>2587.6000976562</ele>
        <time>2021-05-09T08:39:45.000Z</time>
      </trkpt>
      <trkpt lat="44.35236" lon="6.86699">
        <ele>2588.6000976562</ele>
        <time>2021-05-09T08:39:52.000Z</time>
      </trkpt>
      <trkpt lat="44.35238" lon="6.86702">
        <ele>2589.8000488281</ele>
        <time>2021-05-09T08:40:00.000Z</time>
      </trkpt>
      <trkpt lat="44.3524" lon="6.86705">
        <ele>2590.8000488281</ele>
        <time>2021-05-09T08:40:06.000Z</time>
      </trkpt>
      <trkpt lat="44.35247" lon="6.86709">
        <ele>2591.8000488281</ele>
        <time>2021-05-09T08:40:18.000Z</time>
      </trkpt>
      <trkpt lat="44.35251" lon="6.86714">
        <ele>2593</ele>
        <time>2021-05-09T08:40:26.000Z</time>
      </trkpt>
      <trkpt lat="44.3525" lon="6.86714">
        <ele>2593.3999023438</ele>
        <time>2021-05-09T08:40:38.000Z</time>
      </trkpt>
      <trkpt lat="44.35251" lon="6.86715">
        <ele>2593.6000976562</ele>
        <time>2021-05-09T08:40:40.000Z</time>
      </trkpt>
      <trkpt lat="44.35249" lon="6.86715">
        <ele>2593.8000488281</ele>
        <time>2021-05-09T08:40:46.000Z</time>
      </trkpt>
      <trkpt lat="44.3525" lon="6.86716">
        <ele>2594</ele>
        <time>2021-05-09T08:40:49.000Z</time>
      </trkpt>
      <trkpt lat="44.35251" lon="6.86716">
        <ele>2594.3999023438</ele>
        <time>2021-05-09T08:40:58.000Z</time>
      </trkpt>
      <trkpt lat="44.3525" lon="6.86716">
        <ele>2594.6000976562</ele>
        <time>2021-05-09T08:41:02.000Z</time>
      </trkpt>
      <trkpt lat="44.35249" lon="6.86716">
        <ele>2594.3999023438</ele>
        <time>2021-05-09T08:41:05.000Z</time>
      </trkpt>
      <trkpt lat="44.35253" lon="6.86715">
        <ele>2594</ele>
        <time>2021-05-09T08:41:09.000Z</time>
      </trkpt>
      <trkpt lat="44.35251" lon="6.86714">
        <ele>2593.8000488281</ele>
        <time>2021-05-09T08:41:11.000Z</time>
      </trkpt>
      <trkpt lat="44.35251" lon="6.86713">
        <ele>2593.6000976562</ele>
        <time>2021-05-09T08:41:15.000Z</time>
      </trkpt>
      <trkpt lat="44.35249" lon="6.86713">
        <ele>2593.6000976562</ele>
        <time>2021-05-09T08:41:19.000Z</time>
      </trkpt>
      <trkpt lat="44.35249" lon="6.86713">
        <ele>2593.6000976562</ele>
        <time>2021-05-09T08:41:21.000Z</time>
      </trkpt>
      <trkpt lat="44.35249" lon="6.86712">
        <ele>2594</ele>
        <time>2021-05-09T08:41:26.000Z</time>
      </trkpt>
      <trkpt lat="44.35248" lon="6.86713">
        <ele>2594.1999511719</ele>
        <time>2021-05-09T08:41:39.000Z</time>
      </trkpt>
      <trkpt lat="44.35248" lon="6.86714">
        <ele>2594</ele>
        <time>2021-05-09T08:41:41.000Z</time>
      </trkpt>
      <trkpt lat="44.35248" lon="6.86715">
        <ele>2593.8000488281</ele>
        <time>2021-05-09T08:41:46.000Z</time>
      </trkpt>
      <trkpt lat="44.3525" lon="6.86713">
        <ele>2593.8000488281</ele>
        <time>2021-05-09T08:41:51.000Z</time>
      </trkpt>
      <trkpt lat="44.35253" lon="6.86712">
        <ele>2593.8000488281</ele>
        <time>2021-05-09T08:42:12.000Z</time>
      </trkpt>
      <trkpt lat="44.35252" lon="6.86712">
        <ele>2594.1999511719</ele>
        <time>2021-05-09T08:42:15.000Z</time>
      </trkpt>
      <trkpt lat="44.35252" lon="6.86712">
        <ele>2594.6000976562</ele>
        <time>2021-05-09T08:42:18.000Z</time>
      </trkpt>
      <trkpt lat="44.35251" lon="6.86712">
        <ele>2595</ele>
        <time>2021-05-09T08:42:20.000Z</time>
      </trkpt>
      <trkpt lat="44.35249" lon="6.86712">
        <ele>2595</ele>
        <time>2021-05-09T08:42:21.000Z</time>
      </trkpt>
      <trkpt lat="44.35249" lon="6.86711">
        <ele>2595</ele>
        <time>2021-05-09T08:42:24.000Z</time>
      </trkpt>
      <trkpt lat="44.35251" lon="6.86712">
        <ele>2594.3999023438</ele>
        <time>2021-05-09T08:42:33.000Z</time>
      </trkpt>
      <trkpt lat="44.35252" lon="6.86712">
        <ele>2594.3999023438</ele>
        <time>2021-05-09T08:42:34.000Z</time>
      </trkpt>
      <trkpt lat="44.35252" lon="6.86712">
        <ele>2594.6000976562</ele>
        <time>2021-05-09T08:42:39.000Z</time>
      </trkpt>
      <trkpt lat="44.35252" lon="6.86715">
        <ele>2594</ele>
        <time>2021-05-09T08:42:47.000Z</time>
      </trkpt>
      <trkpt lat="44.35251" lon="6.86716">
        <ele>2594.3999023438</ele>
        <time>2021-05-09T08:43:00.000Z</time>
      </trkpt>
      <trkpt lat="44.35246" lon="6.86716">
        <ele>2594.6000976562</ele>
        <time>2021-05-09T08:43:05.000Z</time>
      </trkpt>
      <trkpt lat="44.35245" lon="6.86716">
        <ele>2595</ele>
        <time>2021-05-09T08:43:10.000Z</time>
      </trkpt>
      <trkpt lat="44.35246" lon="6.86716">
        <ele>2595.1999511719</ele>
        <time>2021-05-09T08:43:15.000Z</time>
      </trkpt>
      <trkpt lat="44.35246" lon="6.86716">
        <ele>2595</ele>
        <time>2021-05-09T08:43:16.000Z</time>
      </trkpt>
      <trkpt lat="44.35245" lon="6.86715">
        <ele>2594.1999511719</ele>
        <time>2021-05-09T08:43:26.000Z</time>
      </trkpt>
      <trkpt lat="44.35245" lon="6.86716">
        <ele>2594.1999511719</ele>
        <time>2021-05-09T08:43:27.000Z</time>
      </trkpt>
      <trkpt lat="44.35247" lon="6.86715">
        <ele>2594</ele>
        <time>2021-05-09T08:43:31.000Z</time>
      </trkpt>
      <trkpt lat="44.35248" lon="6.86715">
        <ele>2594</ele>
        <time>2021-05-09T08:43:32.000Z</time>
      </trkpt>
      <trkpt lat="44.35249" lon="6.86716">
        <ele>2594</ele>
        <time>2021-05-09T08:43:34.000Z</time>
      </trkpt>
      <trkpt lat="44.35249" lon="6.86715">
        <ele>2594</ele>
        <time>2021-05-09T08:43:36.000Z</time>
      </trkpt>
      <trkpt lat="44.3525" lon="6.86714">
        <ele>2594.1999511719</ele>
        <time>2021-05-09T08:43:41.000Z</time>
      </trkpt>
      <trkpt lat="44.3525" lon="6.86714">
        <ele>2594.1999511719</ele>
        <time>2021-05-09T08:43:42.000Z</time>
      </trkpt>
      <trkpt lat="44.35251" lon="6.86714">
        <ele>2594.1999511719</ele>
        <time>2021-05-09T08:43:43.000Z</time>
      </trkpt>
      <trkpt lat="44.3525" lon="6.86714">
        <ele>2594.1999511719</ele>
        <time>2021-05-09T08:43:45.000Z</time>
      </trkpt>
      <trkpt lat="44.3525" lon="6.86714">
        <ele>2594.1999511719</ele>
        <time>2021-05-09T08:43:46.000Z</time>
      </trkpt>
      <trkpt lat="44.3525" lon="6.86714">
        <ele>2594.1999511719</ele>
        <time>2021-05-09T08:43:47.000Z</time>
      </trkpt>
      <trkpt lat="44.35246" lon="6.86714">
        <ele>2594.3999023438</ele>
        <time>2021-05-09T08:43:50.000Z</time>
      </trkpt>
      <trkpt lat="44.35246" lon="6.86714">
        <ele>2594.3999023438</ele>
        <time>2021-05-09T08:43:51.000Z</time>
      </trkpt>
      <trkpt lat="44.35246" lon="6.86714">
        <ele>2594.3999023438</ele>
        <time>2021-05-09T08:43:52.000Z</time>
      </trkpt>
      <trkpt lat="44.35251" lon="6.86715">
        <ele>2594.8000488281</ele>
        <time>2021-05-09T08:43:57.000Z</time>
      </trkpt>
      <trkpt lat="44.35251" lon="6.86715">
        <ele>2595</ele>
        <time>2021-05-09T08:44:00.000Z</time>
      </trkpt>
      <trkpt lat="44.35251" lon="6.86715">
        <ele>2595.1999511719</ele>
        <time>2021-05-09T08:44:02.000Z</time>
      </trkpt>
      <trkpt lat="44.35251" lon="6.86716">
        <ele>2595</ele>
        <time>2021-05-09T08:44:06.000Z</time>
      </trkpt>
      <trkpt lat="44.35251" lon="6.86716">
        <ele>2595</ele>
        <time>2021-05-09T08:44:07.000Z</time>
      </trkpt>
      <trkpt lat="44.35253" lon="6.86716">
        <ele>2595</ele>
        <time>2021-05-09T08:44:23.000Z</time>
      </trkpt>
      <trkpt lat="44.35253" lon="6.86716">
        <ele>2595</ele>
        <time>2021-05-09T08:44:24.000Z</time>
      </trkpt>
      <trkpt lat="44.35254" lon="6.86716">
        <ele>2595</ele>
        <time>2021-05-09T08:44:26.000Z</time>
      </trkpt>
      <trkpt lat="44.35256" lon="6.86718">
        <ele>2595</ele>
        <time>2021-05-09T08:44:36.000Z</time>
      </trkpt>
      <trkpt lat="44.35252" lon="6.86716">
        <ele>2595</ele>
        <time>2021-05-09T08:44:44.000Z</time>
      </trkpt>
      <trkpt lat="44.35251" lon="6.86714">
        <ele>2595</ele>
        <time>2021-05-09T08:44:48.000Z</time>
      </trkpt>
      <trkpt lat="44.35251" lon="6.86714">
        <ele>2595</ele>
        <time>2021-05-09T08:44:49.000Z</time>
      </trkpt>
      <trkpt lat="44.3525" lon="6.86714">
        <ele>2595</ele>
        <time>2021-05-09T08:44:50.000Z</time>
      </trkpt>
      <trkpt lat="44.35249" lon="6.86711">
        <ele>2595</ele>
        <time>2021-05-09T08:44:53.000Z</time>
      </trkpt>
      <trkpt lat="44.35251" lon="6.86711">
        <ele>2595</ele>
        <time>2021-05-09T08:45:04.000Z</time>
      </trkpt>
      <trkpt lat="44.35251" lon="6.86713">
        <ele>2595</ele>
        <time>2021-05-09T08:45:06.000Z</time>
      </trkpt>
      <trkpt lat="44.35248" lon="6.86716">
        <ele>2595</ele>
        <time>2021-05-09T08:45:15.000Z</time>
      </trkpt>
      <trkpt lat="44.35248" lon="6.86716">
        <ele>2595</ele>
        <time>2021-05-09T08:45:16.000Z</time>
      </trkpt>
      <trkpt lat="44.35248" lon="6.86716">
        <ele>2595</ele>
        <time>2021-05-09T08:45:17.000Z</time>
      </trkpt>
      <trkpt lat="44.35247" lon="6.86716">
        <ele>2595</ele>
        <time>2021-05-09T08:45:19.000Z</time>
      </trkpt>
      <trkpt lat="44.35246" lon="6.86714">
        <ele>2595</ele>
        <time>2021-05-09T08:45:23.000Z</time>
      </trkpt>
      <trkpt lat="44.35246" lon="6.86714">
        <ele>2595</ele>
        <time>2021-05-09T08:45:24.000Z</time>
      </trkpt>
      <trkpt lat="44.35246" lon="6.86714">
        <ele>2595</ele>
        <time>2021-05-09T08:45:25.000Z</time>
      </trkpt>
      <trkpt lat="44.35246" lon="6.86713">
        <ele>2595</ele>
        <time>2021-05-09T08:45:28.000Z</time>
      </trkpt>
      <trkpt lat="44.35246" lon="6.86714">
        <ele>2595</ele>
        <time>2021-05-09T08:45:36.000Z</time>
      </trkpt>
      <trkpt lat="44.35247" lon="6.86721">
        <ele>2595</ele>
        <time>2021-05-09T08:45:53.000Z</time>
      </trkpt>
      <trkpt lat="44.35247" lon="6.86719">
        <ele>2595</ele>
        <time>2021-05-09T08:45:55.000Z</time>
      </trkpt>
      <trkpt lat="44.35249" lon="6.86717">
        <ele>2595</ele>
        <time>2021-05-09T08:45:57.000Z</time>
      </trkpt>
      <trkpt lat="44.35251" lon="6.86714">
        <ele>2595</ele>
        <time>2021-05-09T08:46:06.000Z</time>
      </trkpt>
      <trkpt lat="44.35253" lon="6.86709">
        <ele>2595</ele>
        <time>2021-05-09T08:46:23.000Z</time>
      </trkpt>
      <trkpt lat="44.35252" lon="6.8671">
        <ele>2595</ele>
        <time>2021-05-09T08:46:27.000Z</time>
      </trkpt>
      <trkpt lat="44.35252" lon="6.86711">
        <ele>2595</ele>
        <time>2021-05-09T08:46:29.000Z</time>
      </trkpt>
      <trkpt lat="44.35249" lon="6.86711">
        <ele>2595</ele>
        <time>2021-05-09T08:46:34.000Z</time>
      </trkpt>
      <trkpt lat="44.35249" lon="6.8671">
        <ele>2595</ele>
        <time>2021-05-09T08:46:37.000Z</time>
      </trkpt>
      <trkpt lat="44.35249" lon="6.8671">
        <ele>2595</ele>
        <time>2021-05-09T08:46:40.000Z</time>
      </trkpt>
      <trkpt lat="44.35249" lon="6.8671">
        <ele>2595</ele>
        <time>2021-05-09T08:46:42.000Z</time>
      </trkpt>
      <trkpt lat="44.35248" lon="6.86708">
        <ele>2595</ele>
        <time>2021-05-09T08:46:47.000Z</time>
      </trkpt>
      <trkpt lat="44.35248" lon="6.86708">
        <ele>2595</ele>
        <time>2021-05-09T08:46:48.000Z</time>
      </trkpt>
      <trkpt lat="44.35249" lon="6.86707">
        <ele>2595</ele>
        <time>2021-05-09T08:46:51.000Z</time>
      </trkpt>
      <trkpt lat="44.35249" lon="6.86709">
        <ele>2595</ele>
        <time>2021-05-09T08:46:58.000Z</time>
      </trkpt>
      <trkpt lat="44.35249" lon="6.8671">
        <ele>2595</ele>
        <time>2021-05-09T08:47:02.000Z</time>
      </trkpt>
      <trkpt lat="44.35249" lon="6.86711">
        <ele>2595</ele>
        <time>2021-05-09T08:47:04.000Z</time>
      </trkpt>
      <trkpt lat="44.3525" lon="6.86711">
        <ele>2595</ele>
        <time>2021-05-09T08:47:07.000Z</time>
      </trkpt>
      <trkpt lat="44.3525" lon="6.86711">
        <ele>2595</ele>
        <time>2021-05-09T08:47:08.000Z</time>
      </trkpt>
      <trkpt lat="44.3525" lon="6.86712">
        <ele>2595</ele>
        <time>2021-05-09T08:47:12.000Z</time>
      </trkpt>
      <trkpt lat="44.3525" lon="6.86712">
        <ele>2595</ele>
        <time>2021-05-09T08:47:14.000Z</time>
      </trkpt>
      <trkpt lat="44.3525" lon="6.86712">
        <ele>2595</ele>
        <time>2021-05-09T08:47:15.000Z</time>
      </trkpt>
      <trkpt lat="44.35251" lon="6.86714">
        <ele>2595</ele>
        <time>2021-05-09T08:47:20.000Z</time>
      </trkpt>
      <trkpt lat="44.35251" lon="6.86712">
        <ele>2595</ele>
        <time>2021-05-09T08:47:22.000Z</time>
      </trkpt>
      <trkpt lat="44.3525" lon="6.86711">
        <ele>2595</ele>
        <time>2021-05-09T08:47:24.000Z</time>
      </trkpt>
      <trkpt lat="44.35249" lon="6.86711">
        <ele>2595</ele>
        <time>2021-05-09T08:47:26.000Z</time>
      </trkpt>
      <trkpt lat="44.35249" lon="6.86711">
        <ele>2595</ele>
        <time>2021-05-09T08:47:27.000Z</time>
      </trkpt>
      <trkpt lat="44.35249" lon="6.86711">
        <ele>2595</ele>
        <time>2021-05-09T08:47:28.000Z</time>
      </trkpt>
      <trkpt lat="44.35249" lon="6.86711">
        <ele>2595</ele>
        <time>2021-05-09T08:47:30.000Z</time>
      </trkpt>
      <trkpt lat="44.35251" lon="6.86718">
        <ele>2595</ele>
        <time>2021-05-09T08:47:40.000Z</time>
      </trkpt>
      <trkpt lat="44.35251" lon="6.8672">
        <ele>2595</ele>
        <time>2021-05-09T08:47:44.000Z</time>
      </trkpt>
      <trkpt lat="44.35251" lon="6.86721">
        <ele>2595</ele>
        <time>2021-05-09T08:47:46.000Z</time>
      </trkpt>
      <trkpt lat="44.35252" lon="6.86721">
        <ele>2595</ele>
        <time>2021-05-09T08:47:47.000Z</time>
      </trkpt>
      <trkpt lat="44.35253" lon="6.86721">
        <ele>2595</ele>
        <time>2021-05-09T08:47:49.000Z</time>
      </trkpt>
      <trkpt lat="44.35256" lon="6.86722">
        <ele>2595</ele>
        <time>2021-05-09T08:47:52.000Z</time>
      </trkpt>
      <trkpt lat="44.35257" lon="6.86722">
        <ele>2595</ele>
        <time>2021-05-09T08:47:53.000Z</time>
      </trkpt>
      <trkpt lat="44.35257" lon="6.86723">
        <ele>2595.6000976562</ele>
        <time>2021-05-09T08:47:54.000Z</time>
      </trkpt>
      <trkpt lat="44.35258" lon="6.86724">
        <ele>2596</ele>
        <time>2021-05-09T08:47:58.000Z</time>
      </trkpt>
      <trkpt lat="44.35258" lon="6.86726">
        <ele>2596.1999511719</ele>
        <time>2021-05-09T08:48:01.000Z</time>
      </trkpt>
      <trkpt lat="44.35259" lon="6.86726">
        <ele>2596.1999511719</ele>
        <time>2021-05-09T08:48:02.000Z</time>
      </trkpt>
      <trkpt lat="44.3526" lon="6.86728">
        <ele>2596.8000488281</ele>
        <time>2021-05-09T08:48:04.000Z</time>
      </trkpt>
      <trkpt lat="44.35261" lon="6.86729">
        <ele>2597.1999511719</ele>
        <time>2021-05-09T08:48:06.000Z</time>
      </trkpt>
      <trkpt lat="44.35262" lon="6.8673">
        <ele>2597.1999511719</ele>
        <time>2021-05-09T08:48:07.000Z</time>
      </trkpt>
      <trkpt lat="44.35262" lon="6.86732">
        <ele>2597.6000976562</ele>
        <time>2021-05-09T08:48:10.000Z</time>
      </trkpt>
      <trkpt lat="44.35263" lon="6.86735">
        <ele>2598</ele>
        <time>2021-05-09T08:48:14.000Z</time>
      </trkpt>
      <trkpt lat="44.35263" lon="6.86736">
        <ele>2598.3999023438</ele>
        <time>2021-05-09T08:48:15.000Z</time>
      </trkpt>
      <trkpt lat="44.35264" lon="6.86738">
        <ele>2599.1999511719</ele>
        <time>2021-05-09T08:48:17.000Z</time>
      </trkpt>
      <trkpt lat="44.35264" lon="6.86738">
        <ele>2599.3999023438</ele>
        <time>2021-05-09T08:48:18.000Z</time>
      </trkpt>
      <trkpt lat="44.35265" lon="6.8674">
        <ele>2599.8000488281</ele>
        <time>2021-05-09T08:48:20.000Z</time>
      </trkpt>
      <trkpt lat="44.35267" lon="6.86742">
        <ele>2600.1999511719</ele>
        <time>2021-05-09T08:48:24.000Z</time>
      </trkpt>
      <trkpt lat="44.35268" lon="6.86743">
        <ele>2600.1999511719</ele>
        <time>2021-05-09T08:48:25.000Z</time>
      </trkpt>
      <trkpt lat="44.35268" lon="6.86743">
        <ele>2600.3999023438</ele>
        <time>2021-05-09T08:48:26.000Z</time>
      </trkpt>
      <trkpt lat="44.35269" lon="6.86744">
        <ele>2600.6000976562</ele>
        <time>2021-05-09T08:48:27.000Z</time>
      </trkpt>
      <trkpt lat="44.35271" lon="6.86746">
        <ele>2601</ele>
        <time>2021-05-09T08:48:30.000Z</time>
      </trkpt>
      <trkpt lat="44.35272" lon="6.86747">
        <ele>2601.6000976562</ele>
        <time>2021-05-09T08:48:32.000Z</time>
      </trkpt>
      <trkpt lat="44.35272" lon="6.86747">
        <ele>2601.6000976562</ele>
        <time>2021-05-09T08:48:33.000Z</time>
      </trkpt>
      <trkpt lat="44.35274" lon="6.86749">
        <ele>2602.3999023438</ele>
        <time>2021-05-09T08:48:38.000Z</time>
      </trkpt>
      <trkpt lat="44.35274" lon="6.86751">
        <ele>2602.8000488281</ele>
        <time>2021-05-09T08:48:41.000Z</time>
      </trkpt>
      <trkpt lat="44.35274" lon="6.8675">
        <ele>2603</ele>
        <time>2021-05-09T08:48:48.000Z</time>
      </trkpt>
      <trkpt lat="44.35274" lon="6.86753">
        <ele>2603.8000488281</ele>
        <time>2021-05-09T08:48:55.000Z</time>
      </trkpt>
      <trkpt lat="44.35276" lon="6.86754">
        <ele>2604</ele>
        <time>2021-05-09T08:48:59.000Z</time>
      </trkpt>
      <trkpt lat="44.35277" lon="6.86757">
        <ele>2604.6000976562</ele>
        <time>2021-05-09T08:49:07.000Z</time>
      </trkpt>
      <trkpt lat="44.35277" lon="6.86758">
        <ele>2604.8000488281</ele>
        <time>2021-05-09T08:49:08.000Z</time>
      </trkpt>
      <trkpt lat="44.35277" lon="6.86758">
        <ele>2604.8000488281</ele>
        <time>2021-05-09T08:49:09.000Z</time>
      </trkpt>
      <trkpt lat="44.35277" lon="6.8676">
        <ele>2605.1999511719</ele>
        <time>2021-05-09T08:49:12.000Z</time>
      </trkpt>
      <trkpt lat="44.35277" lon="6.8676">
        <ele>2605.3999023438</ele>
        <time>2021-05-09T08:49:13.000Z</time>
      </trkpt>
      <trkpt lat="44.35279" lon="6.86762">
        <ele>2605.8000488281</ele>
        <time>2021-05-09T08:49:15.000Z</time>
      </trkpt>
      <trkpt lat="44.35279" lon="6.86762">
        <ele>2606</ele>
        <time>2021-05-09T08:49:16.000Z</time>
      </trkpt>
      <trkpt lat="44.35281" lon="6.86765">
        <ele>2606.6000976562</ele>
        <time>2021-05-09T08:49:20.000Z</time>
      </trkpt>
      <trkpt lat="44.35281" lon="6.86766">
        <ele>2606.6000976562</ele>
        <time>2021-05-09T08:49:21.000Z</time>
      </trkpt>
      <trkpt lat="44.35283" lon="6.86768">
        <ele>2607.1999511719</ele>
        <time>2021-05-09T08:49:23.000Z</time>
      </trkpt>
      <trkpt lat="44.35284" lon="6.86769">
        <ele>2607.8000488281</ele>
        <time>2021-05-09T08:49:25.000Z</time>
      </trkpt>
      <trkpt lat="44.35283" lon="6.86769">
        <ele>2608.1999511719</ele>
        <time>2021-05-09T08:49:28.000Z</time>
      </trkpt>
      <trkpt lat="44.35286" lon="6.86771">
        <ele>2608.6000976562</ele>
        <time>2021-05-09T08:49:36.000Z</time>
      </trkpt>
      <trkpt lat="44.35286" lon="6.86772">
        <ele>2608.8000488281</ele>
        <time>2021-05-09T08:49:37.000Z</time>
      </trkpt>
      <trkpt lat="44.35287" lon="6.86774">
        <ele>2609.1999511719</ele>
        <time>2021-05-09T08:49:40.000Z</time>
      </trkpt>
      <trkpt lat="44.35288" lon="6.86775">
        <ele>2609.6000976562</ele>
        <time>2021-05-09T08:49:42.000Z</time>
      </trkpt>
      <trkpt lat="44.35289" lon="6.86778">
        <ele>2610</ele>
        <time>2021-05-09T08:49:54.000Z</time>
      </trkpt>
      <trkpt lat="44.35289" lon="6.86779">
        <ele>2610.1999511719</ele>
        <time>2021-05-09T08:49:56.000Z</time>
      </trkpt>
      <trkpt lat="44.3529" lon="6.8678">
        <ele>2610.3999023438</ele>
        <time>2021-05-09T08:49:57.000Z</time>
      </trkpt>
      <trkpt lat="44.3529" lon="6.86781">
        <ele>2610.3999023438</ele>
        <time>2021-05-09T08:49:58.000Z</time>
      </trkpt>
      <trkpt lat="44.3529" lon="6.86781">
        <ele>2610.6000976562</ele>
        <time>2021-05-09T08:49:59.000Z</time>
      </trkpt>
      <trkpt lat="44.35291" lon="6.86782">
        <ele>2610.8000488281</ele>
        <time>2021-05-09T08:50:01.000Z</time>
      </trkpt>
      <trkpt lat="44.35292" lon="6.86785">
        <ele>2611.3999023438</ele>
        <time>2021-05-09T08:50:04.000Z</time>
      </trkpt>
      <trkpt lat="44.35293" lon="6.86787">
        <ele>2611.8000488281</ele>
        <time>2021-05-09T08:50:06.000Z</time>
      </trkpt>
      <trkpt lat="44.35294" lon="6.86789">
        <ele>2612.6000976562</ele>
        <time>2021-05-09T08:50:09.000Z</time>
      </trkpt>
      <trkpt lat="44.35298" lon="6.86792">
        <ele>2613.3999023438</ele>
        <time>2021-05-09T08:50:15.000Z</time>
      </trkpt>
      <trkpt lat="44.35299" lon="6.86793">
        <ele>2613.6000976562</ele>
        <time>2021-05-09T08:50:16.000Z</time>
      </trkpt>
      <trkpt lat="44.35301" lon="6.86795">
        <ele>2613.8000488281</ele>
        <time>2021-05-09T08:50:19.000Z</time>
      </trkpt>
      <trkpt lat="44.35301" lon="6.86795">
        <ele>2614.6000976562</ele>
        <time>2021-05-09T08:50:23.000Z</time>
      </trkpt>
      <trkpt lat="44.35299" lon="6.86792">
        <ele>2614.1999511719</ele>
        <time>2021-05-09T08:50:39.000Z</time>
      </trkpt>
      <trkpt lat="44.353" lon="6.86795">
        <ele>2614.1999511719</ele>
        <time>2021-05-09T08:50:43.000Z</time>
      </trkpt>
      <trkpt lat="44.35303" lon="6.86795">
        <ele>2614.1999511719</ele>
        <time>2021-05-09T08:50:47.000Z</time>
      </trkpt>
      <trkpt lat="44.35303" lon="6.86795">
        <ele>2614.1999511719</ele>
        <time>2021-05-09T08:50:51.000Z</time>
      </trkpt>
      <trkpt lat="44.35302" lon="6.86795">
        <ele>2614.1999511719</ele>
        <time>2021-05-09T08:50:57.000Z</time>
      </trkpt>
      <trkpt lat="44.35297" lon="6.86794">
        <ele>2614.3999023438</ele>
        <time>2021-05-09T08:51:02.000Z</time>
      </trkpt>
      <trkpt lat="44.35291" lon="6.86794">
        <ele>2614.6000976562</ele>
        <time>2021-05-09T08:51:07.000Z</time>
      </trkpt>
      <trkpt lat="44.35291" lon="6.86794">
        <ele>2614.6000976562</ele>
        <time>2021-05-09T08:51:08.000Z</time>
      </trkpt>
      <trkpt lat="44.35291" lon="6.86794">
        <ele>2614.6000976562</ele>
        <time>2021-05-09T08:51:09.000Z</time>
      </trkpt>
      <trkpt lat="44.35293" lon="6.86793">
        <ele>2614.6000976562</ele>
        <time>2021-05-09T08:51:12.000Z</time>
      </trkpt>
      <trkpt lat="44.35293" lon="6.86793">
        <ele>2614.6000976562</ele>
        <time>2021-05-09T08:51:14.000Z</time>
      </trkpt>
      <trkpt lat="44.35293" lon="6.86794">
        <ele>2614.6000976562</ele>
        <time>2021-05-09T08:51:16.000Z</time>
      </trkpt>
      <trkpt lat="44.35293" lon="6.86794">
        <ele>2614.6000976562</ele>
        <time>2021-05-09T08:51:18.000Z</time>
      </trkpt>
      <trkpt lat="44.35294" lon="6.86795">
        <ele>2614.6000976562</ele>
        <time>2021-05-09T08:51:20.000Z</time>
      </trkpt>
      <trkpt lat="44.35294" lon="6.86795">
        <ele>2614.6000976562</ele>
        <time>2021-05-09T08:51:22.000Z</time>
      </trkpt>
      <trkpt lat="44.35294" lon="6.86795">
        <ele>2614.8000488281</ele>
        <time>2021-05-09T08:51:27.000Z</time>
      </trkpt>
      <trkpt lat="44.353" lon="6.86794">
        <ele>2614.8000488281</ele>
        <time>2021-05-09T08:51:35.000Z</time>
      </trkpt>
      <trkpt lat="44.35302" lon="6.86794">
        <ele>2614.8000488281</ele>
        <time>2021-05-09T08:51:37.000Z</time>
      </trkpt>
      <trkpt lat="44.35302" lon="6.86794">
        <ele>2615</ele>
        <time>2021-05-09T08:51:38.000Z</time>
      </trkpt>
      <trkpt lat="44.35303" lon="6.86794">
        <ele>2615</ele>
        <time>2021-05-09T08:51:41.000Z</time>
      </trkpt>
      <trkpt lat="44.35303" lon="6.86794">
        <ele>2615.3999023438</ele>
        <time>2021-05-09T08:51:47.000Z</time>
      </trkpt>
      <trkpt lat="44.35299" lon="6.86794">
        <ele>2615.6000976562</ele>
        <time>2021-05-09T08:51:52.000Z</time>
      </trkpt>
      <trkpt lat="44.35296" lon="6.86793">
        <ele>2615.6000976562</ele>
        <time>2021-05-09T08:51:54.000Z</time>
      </trkpt>
      <trkpt lat="44.35294" lon="6.86794">
        <ele>2615.3999023438</ele>
        <time>2021-05-09T08:51:55.000Z</time>
      </trkpt>
      <trkpt lat="44.35293" lon="6.86795">
        <ele>2615.6000976562</ele>
        <time>2021-05-09T08:52:01.000Z</time>
      </trkpt>
      <trkpt lat="44.35294" lon="6.86796">
        <ele>2615.8000488281</ele>
        <time>2021-05-09T08:52:03.000Z</time>
      </trkpt>
      <trkpt lat="44.35294" lon="6.86798">
        <ele>2616</ele>
        <time>2021-05-09T08:52:05.000Z</time>
      </trkpt>
      <trkpt lat="44.35295" lon="6.86799">
        <ele>2616.1999511719</ele>
        <time>2021-05-09T08:52:07.000Z</time>
      </trkpt>
      <trkpt lat="44.35296" lon="6.868">
        <ele>2616.3999023438</ele>
        <time>2021-05-09T08:52:08.000Z</time>
      </trkpt>
      <trkpt lat="44.35298" lon="6.86801">
        <ele>2616.6000976562</ele>
        <time>2021-05-09T08:52:10.000Z</time>
      </trkpt>
      <trkpt lat="44.353" lon="6.86803">
        <ele>2616.8000488281</ele>
        <time>2021-05-09T08:52:14.000Z</time>
      </trkpt>
      <trkpt lat="44.35302" lon="6.86804">
        <ele>2616.6000976562</ele>
        <time>2021-05-09T08:52:17.000Z</time>
      </trkpt>
      <trkpt lat="44.35306" lon="6.86805">
        <ele>2616.6000976562</ele>
        <time>2021-05-09T08:52:23.000Z</time>
      </trkpt>
      <trkpt lat="44.35306" lon="6.86805">
        <ele>2616.6000976562</ele>
        <time>2021-05-09T08:52:27.000Z</time>
      </trkpt>
      <trkpt lat="44.35306" lon="6.86806">
        <ele>2617</ele>
        <time>2021-05-09T08:52:29.000Z</time>
      </trkpt>
      <trkpt lat="44.35306" lon="6.86807">
        <ele>2617.1999511719</ele>
        <time>2021-05-09T08:52:31.000Z</time>
      </trkpt>
      <trkpt lat="44.35306" lon="6.86809">
        <ele>2617.6000976562</ele>
        <time>2021-05-09T08:52:33.000Z</time>
      </trkpt>
      <trkpt lat="44.35307" lon="6.86811">
        <ele>2617.6000976562</ele>
        <time>2021-05-09T08:52:35.000Z</time>
      </trkpt>
      <trkpt lat="44.3531" lon="6.86817">
        <ele>2618.8000488281</ele>
        <time>2021-05-09T08:52:46.000Z</time>
      </trkpt>
      <trkpt lat="44.3531" lon="6.8682">
        <ele>2619.3999023438</ele>
        <time>2021-05-09T08:52:52.000Z</time>
      </trkpt>
      <trkpt lat="44.35311" lon="6.86824">
        <ele>2619.8000488281</ele>
        <time>2021-05-09T08:52:56.000Z</time>
      </trkpt>
      <trkpt lat="44.35311" lon="6.86826">
        <ele>2620.3999023438</ele>
        <time>2021-05-09T08:53:01.000Z</time>
      </trkpt>
      <trkpt lat="44.35313" lon="6.86829">
        <ele>2621</ele>
        <time>2021-05-09T08:53:07.000Z</time>
      </trkpt>
      <trkpt lat="44.35313" lon="6.86835">
        <ele>2622</ele>
        <time>2021-05-09T08:53:16.000Z</time>
      </trkpt>
      <trkpt lat="44.35318" lon="6.8684">
        <ele>2623</ele>
        <time>2021-05-09T08:53:23.000Z</time>
      </trkpt>
      <trkpt lat="44.35318" lon="6.86841">
        <ele>2623.1999511719</ele>
        <time>2021-05-09T08:53:24.000Z</time>
      </trkpt>
      <trkpt lat="44.35318" lon="6.86844">
        <ele>2623.8000488281</ele>
        <time>2021-05-09T08:53:29.000Z</time>
      </trkpt>
      <trkpt lat="44.35319" lon="6.86847">
        <ele>2624</ele>
        <time>2021-05-09T08:53:35.000Z</time>
      </trkpt>
      <trkpt lat="44.3532" lon="6.86852">
        <ele>2624.8000488281</ele>
        <time>2021-05-09T08:53:43.000Z</time>
      </trkpt>
      <trkpt lat="44.35321" lon="6.86853">
        <ele>2625.1999511719</ele>
        <time>2021-05-09T08:53:45.000Z</time>
      </trkpt>
      <trkpt lat="44.35324" lon="6.86859">
        <ele>2626</ele>
        <time>2021-05-09T08:53:52.000Z</time>
      </trkpt>
      <trkpt lat="44.35326" lon="6.8686">
        <ele>2626.1999511719</ele>
        <time>2021-05-09T08:53:54.000Z</time>
      </trkpt>
      <trkpt lat="44.35327" lon="6.86861">
        <ele>2627.1999511719</ele>
        <time>2021-05-09T08:54:01.000Z</time>
      </trkpt>
      <trkpt lat="44.35326" lon="6.86861">
        <ele>2627.1999511719</ele>
        <time>2021-05-09T08:54:02.000Z</time>
      </trkpt>
      <trkpt lat="44.35316" lon="6.86855">
        <ele>2627.6000976562</ele>
        <time>2021-05-09T08:54:24.000Z</time>
      </trkpt>
      <trkpt lat="44.35315" lon="6.86854">
        <ele>2627.6000976562</ele>
        <time>2021-05-09T08:54:30.000Z</time>
      </trkpt>
      <trkpt lat="44.35315" lon="6.86854">
        <ele>2627.6000976562</ele>
        <time>2021-05-09T08:54:31.000Z</time>
      </trkpt>
      <trkpt lat="44.35315" lon="6.86859">
        <ele>2627.6000976562</ele>
        <time>2021-05-09T08:54:42.000Z</time>
      </trkpt>
      <trkpt lat="44.35318" lon="6.86865">
        <ele>2628.1999511719</ele>
        <time>2021-05-09T08:54:47.000Z</time>
      </trkpt>
      <trkpt lat="44.35322" lon="6.8687">
        <ele>2628.6000976562</ele>
        <time>2021-05-09T08:54:50.000Z</time>
      </trkpt>
      <trkpt lat="44.35322" lon="6.8687">
        <ele>2628.6000976562</ele>
        <time>2021-05-09T08:54:51.000Z</time>
      </trkpt>
      <trkpt lat="44.35322" lon="6.86871">
        <ele>2628.8000488281</ele>
        <time>2021-05-09T08:54:52.000Z</time>
      </trkpt>
      <trkpt lat="44.35325" lon="6.86874">
        <ele>2629.3999023438</ele>
        <time>2021-05-09T08:54:55.000Z</time>
      </trkpt>
      <trkpt lat="44.35326" lon="6.86875">
        <ele>2629.6000976562</ele>
        <time>2021-05-09T08:54:56.000Z</time>
      </trkpt>
      <trkpt lat="44.35327" lon="6.86876">
        <ele>2629.8000488281</ele>
        <time>2021-05-09T08:54:58.000Z</time>
      </trkpt>
      <trkpt lat="44.35328" lon="6.86879">
        <ele>2630.3999023438</ele>
        <time>2021-05-09T08:55:01.000Z</time>
      </trkpt>
      <trkpt lat="44.35329" lon="6.86881">
        <ele>2630.6000976562</ele>
        <time>2021-05-09T08:55:02.000Z</time>
      </trkpt>
      <trkpt lat="44.35331" lon="6.86882">
        <ele>2631</ele>
        <time>2021-05-09T08:55:04.000Z</time>
      </trkpt>
      <trkpt lat="44.35333" lon="6.86884">
        <ele>2631.3999023438</ele>
        <time>2021-05-09T08:55:06.000Z</time>
      </trkpt>
      <trkpt lat="44.35333" lon="6.86885">
        <ele>2631.6000976562</ele>
        <time>2021-05-09T08:55:07.000Z</time>
      </trkpt>
      <trkpt lat="44.35334" lon="6.86887">
        <ele>2632.1999511719</ele>
        <time>2021-05-09T08:55:09.000Z</time>
      </trkpt>
      <trkpt lat="44.35335" lon="6.86888">
        <ele>2632.3999023438</ele>
        <time>2021-05-09T08:55:10.000Z</time>
      </trkpt>
      <trkpt lat="44.35337" lon="6.86892">
        <ele>2632.6000976562</ele>
        <time>2021-05-09T08:55:12.000Z</time>
      </trkpt>
      <trkpt lat="44.35341" lon="6.86896">
        <ele>2633.1999511719</ele>
        <time>2021-05-09T08:55:16.000Z</time>
      </trkpt>
      <trkpt lat="44.35342" lon="6.86899">
        <ele>2633.6000976562</ele>
        <time>2021-05-09T08:55:20.000Z</time>
      </trkpt>
      <trkpt lat="44.35342" lon="6.86899">
        <ele>2634</ele>
        <time>2021-05-09T08:55:21.000Z</time>
      </trkpt>
      <trkpt lat="44.35341" lon="6.869">
        <ele>2634.6000976562</ele>
        <time>2021-05-09T08:55:23.000Z</time>
      </trkpt>
      <trkpt lat="44.35342" lon="6.869">
        <ele>2635</ele>
        <time>2021-05-09T08:55:26.000Z</time>
      </trkpt>
      <trkpt lat="44.35343" lon="6.86902">
        <ele>2635</ele>
        <time>2021-05-09T08:55:28.000Z</time>
      </trkpt>
      <trkpt lat="44.35343" lon="6.86904">
        <ele>2635.3999023438</ele>
        <time>2021-05-09T08:55:30.000Z</time>
      </trkpt>
      <trkpt lat="44.35344" lon="6.86907">
        <ele>2635.6000976562</ele>
        <time>2021-05-09T08:55:32.000Z</time>
      </trkpt>
      <trkpt lat="44.35345" lon="6.86908">
        <ele>2635.8000488281</ele>
        <time>2021-05-09T08:55:34.000Z</time>
      </trkpt>
      <trkpt lat="44.35346" lon="6.86909">
        <ele>2636</ele>
        <time>2021-05-09T08:55:35.000Z</time>
      </trkpt>
      <trkpt lat="44.35346" lon="6.86911">
        <ele>2636</ele>
        <time>2021-05-09T08:55:36.000Z</time>
      </trkpt>
      <trkpt lat="44.35347" lon="6.86913">
        <ele>2636.8000488281</ele>
        <time>2021-05-09T08:55:40.000Z</time>
      </trkpt>
      <trkpt lat="44.35347" lon="6.86913">
        <ele>2637</ele>
        <time>2021-05-09T08:55:41.000Z</time>
      </trkpt>
      <trkpt lat="44.35347" lon="6.86913">
        <ele>2637.1999511719</ele>
        <time>2021-05-09T08:55:42.000Z</time>
      </trkpt>
      <trkpt lat="44.35346" lon="6.86918">
        <ele>2638.1999511719</ele>
        <time>2021-05-09T08:55:52.000Z</time>
      </trkpt>
      <trkpt lat="44.35346" lon="6.8692">
        <ele>2638.6000976562</ele>
        <time>2021-05-09T08:55:53.000Z</time>
      </trkpt>
      <trkpt lat="44.35346" lon="6.86921">
        <ele>2638.8000488281</ele>
        <time>2021-05-09T08:55:54.000Z</time>
      </trkpt>
      <trkpt lat="44.35347" lon="6.86921">
        <ele>2639</ele>
        <time>2021-05-09T08:55:56.000Z</time>
      </trkpt>
      <trkpt lat="44.35347" lon="6.86924">
        <ele>2639.3999023438</ele>
        <time>2021-05-09T08:55:58.000Z</time>
      </trkpt>
      <trkpt lat="44.35348" lon="6.86926">
        <ele>2640.3999023438</ele>
        <time>2021-05-09T08:56:02.000Z</time>
      </trkpt>
      <trkpt lat="44.35349" lon="6.86927">
        <ele>2640.6000976562</ele>
        <time>2021-05-09T08:56:03.000Z</time>
      </trkpt>
      <trkpt lat="44.3535" lon="6.86928">
        <ele>2641.1999511719</ele>
        <time>2021-05-09T08:56:07.000Z</time>
      </trkpt>
      <trkpt lat="44.35355" lon="6.86934">
        <ele>2641.6000976562</ele>
        <time>2021-05-09T08:56:19.000Z</time>
      </trkpt>
      <trkpt lat="44.35355" lon="6.86935">
        <ele>2641.8000488281</ele>
        <time>2021-05-09T08:56:20.000Z</time>
      </trkpt>
      <trkpt lat="44.35352" lon="6.86937">
        <ele>2642.8000488281</ele>
        <time>2021-05-09T08:56:26.000Z</time>
      </trkpt>
      <trkpt lat="44.3535" lon="6.8694">
        <ele>2643.1999511719</ele>
        <time>2021-05-09T08:56:31.000Z</time>
      </trkpt>
      <trkpt lat="44.35349" lon="6.86945">
        <ele>2643.8000488281</ele>
        <time>2021-05-09T08:56:35.000Z</time>
      </trkpt>
      <trkpt lat="44.35343" lon="6.86944">
        <ele>2644</ele>
        <time>2021-05-09T08:56:36.000Z</time>
      </trkpt>
      <trkpt lat="44.35331" lon="6.86941">
        <ele>2644.6000976562</ele>
        <time>2021-05-09T08:56:42.000Z</time>
      </trkpt>
      <trkpt lat="44.35333" lon="6.86943">
        <ele>2645</ele>
        <time>2021-05-09T08:56:47.000Z</time>
      </trkpt>
      <trkpt lat="44.35334" lon="6.86945">
        <ele>2645.3999023438</ele>
        <time>2021-05-09T08:56:54.000Z</time>
      </trkpt>
      <trkpt lat="44.35339" lon="6.86945">
        <ele>2645.1999511719</ele>
        <time>2021-05-09T08:57:06.000Z</time>
      </trkpt>
      <trkpt lat="44.3534" lon="6.86945">
        <ele>2645.3999023438</ele>
        <time>2021-05-09T08:57:09.000Z</time>
      </trkpt>
      <trkpt lat="44.3534" lon="6.86945">
        <ele>2645.3999023438</ele>
        <time>2021-05-09T08:57:12.000Z</time>
      </trkpt>
      <trkpt lat="44.3534" lon="6.86945">
        <ele>2645.3999023438</ele>
        <time>2021-05-09T08:57:16.000Z</time>
      </trkpt>
      <trkpt lat="44.35341" lon="6.86945">
        <ele>2645.3999023438</ele>
        <time>2021-05-09T08:57:22.000Z</time>
      </trkpt>
      <trkpt lat="44.35339" lon="6.86944">
        <ele>2645.6000976562</ele>
        <time>2021-05-09T08:57:27.000Z</time>
      </trkpt>
      <trkpt lat="44.35336" lon="6.86941">
        <ele>2646</ele>
        <time>2021-05-09T08:57:35.000Z</time>
      </trkpt>
      <trkpt lat="44.35336" lon="6.8694">
        <ele>2646.1999511719</ele>
        <time>2021-05-09T08:57:37.000Z</time>
      </trkpt>
      <trkpt lat="44.35338" lon="6.8694">
        <ele>2646.1999511719</ele>
        <time>2021-05-09T08:57:41.000Z</time>
      </trkpt>
      <trkpt lat="44.35342" lon="6.86941">
        <ele>2645.8000488281</ele>
        <time>2021-05-09T08:57:46.000Z</time>
      </trkpt>
      <trkpt lat="44.35344" lon="6.86941">
        <ele>2646</ele>
        <time>2021-05-09T08:57:51.000Z</time>
      </trkpt>
      <trkpt lat="44.35346" lon="6.8694">
        <ele>2646</ele>
        <time>2021-05-09T08:57:54.000Z</time>
      </trkpt>
      <trkpt lat="44.35348" lon="6.8694">
        <ele>2645.8000488281</ele>
        <time>2021-05-09T08:57:57.000Z</time>
      </trkpt>
      <trkpt lat="44.35349" lon="6.8694">
        <ele>2646</ele>
        <time>2021-05-09T08:58:01.000Z</time>
      </trkpt>
      <trkpt lat="44.35348" lon="6.8694">
        <ele>2646.1999511719</ele>
        <time>2021-05-09T08:58:02.000Z</time>
      </trkpt>
      <trkpt lat="44.35345" lon="6.86939">
        <ele>2646.3999023438</ele>
        <time>2021-05-09T08:58:05.000Z</time>
      </trkpt>
      <trkpt lat="44.35345" lon="6.86939">
        <ele>2646.3999023438</ele>
        <time>2021-05-09T08:58:06.000Z</time>
      </trkpt>
      <trkpt lat="44.35345" lon="6.86939">
        <ele>2646.6000976562</ele>
        <time>2021-05-09T08:58:07.000Z</time>
      </trkpt>
      <trkpt lat="44.35345" lon="6.8694">
        <ele>2646.8000488281</ele>
        <time>2021-05-09T08:58:11.000Z</time>
      </trkpt>
      <trkpt lat="44.35345" lon="6.8694">
        <ele>2646.6000976562</ele>
        <time>2021-05-09T08:58:15.000Z</time>
      </trkpt>
      <trkpt lat="44.35346" lon="6.86942">
        <ele>2646.3999023438</ele>
        <time>2021-05-09T08:58:18.000Z</time>
      </trkpt>
      <trkpt lat="44.35347" lon="6.86943">
        <ele>2646.1999511719</ele>
        <time>2021-05-09T08:58:19.000Z</time>
      </trkpt>
      <trkpt lat="44.35346" lon="6.86943">
        <ele>2646.3999023438</ele>
        <time>2021-05-09T08:58:21.000Z</time>
      </trkpt>
      <trkpt lat="44.35347" lon="6.86945">
        <ele>2646.8000488281</ele>
        <time>2021-05-09T08:58:23.000Z</time>
      </trkpt>
      <trkpt lat="44.35346" lon="6.86946">
        <ele>2647.1999511719</ele>
        <time>2021-05-09T08:58:24.000Z</time>
      </trkpt>
      <trkpt lat="44.35346" lon="6.86948">
        <ele>2647.8000488281</ele>
        <time>2021-05-09T08:58:26.000Z</time>
      </trkpt>
      <trkpt lat="44.35345" lon="6.86949">
        <ele>2648.1999511719</ele>
        <time>2021-05-09T08:58:27.000Z</time>
      </trkpt>
      <trkpt lat="44.35345" lon="6.86952">
        <ele>2649.1999511719</ele>
        <time>2021-05-09T08:58:30.000Z</time>
      </trkpt>
      <trkpt lat="44.35343" lon="6.86953">
        <ele>2649.3999023438</ele>
        <time>2021-05-09T08:58:34.000Z</time>
      </trkpt>
      <trkpt lat="44.35341" lon="6.86952">
        <ele>2649.3999023438</ele>
        <time>2021-05-09T08:58:37.000Z</time>
      </trkpt>
      <trkpt lat="44.35342" lon="6.86948">
        <ele>2650.3999023438</ele>
        <time>2021-05-09T08:58:46.000Z</time>
      </trkpt>
      <trkpt lat="44.35343" lon="6.86946">
        <ele>2651.6000976562</ele>
        <time>2021-05-09T08:58:50.000Z</time>
      </trkpt>
      <trkpt lat="44.35345" lon="6.86943">
        <ele>2652.1999511719</ele>
        <time>2021-05-09T08:58:53.000Z</time>
      </trkpt>
      <trkpt lat="44.35348" lon="6.86939">
        <ele>2652.3999023438</ele>
        <time>2021-05-09T08:58:59.000Z</time>
      </trkpt>
      <trkpt lat="44.35348" lon="6.86938">
        <ele>2652.8000488281</ele>
        <time>2021-05-09T08:59:02.000Z</time>
      </trkpt>
      <trkpt lat="44.3535" lon="6.86935">
        <ele>2653.3999023438</ele>
        <time>2021-05-09T08:59:08.000Z</time>
      </trkpt>
      <trkpt lat="44.35353" lon="6.86931">
        <ele>2653.1999511719</ele>
        <time>2021-05-09T08:59:14.000Z</time>
      </trkpt>
      <trkpt lat="44.35356" lon="6.86926">
        <ele>2654</ele>
        <time>2021-05-09T08:59:22.000Z</time>
      </trkpt>
      <trkpt lat="44.35358" lon="6.86924">
        <ele>2655</ele>
        <time>2021-05-09T08:59:28.000Z</time>
      </trkpt>
      <trkpt lat="44.35363" lon="6.86915">
        <ele>2656</ele>
        <time>2021-05-09T08:59:41.000Z</time>
      </trkpt>
      <trkpt lat="44.35364" lon="6.86914">
        <ele>2656.1999511719</ele>
        <time>2021-05-09T08:59:42.000Z</time>
      </trkpt>
      <trkpt lat="44.35366" lon="6.86912">
        <ele>2656.6000976562</ele>
        <time>2021-05-09T08:59:45.000Z</time>
      </trkpt>
      <trkpt lat="44.35356" lon="6.86914">
        <ele>2657</ele>
        <time>2021-05-09T08:59:53.000Z</time>
      </trkpt>
      <trkpt lat="44.35356" lon="6.86913">
        <ele>2657</ele>
        <time>2021-05-09T08:59:54.000Z</time>
      </trkpt>
      <trkpt lat="44.35357" lon="6.86912">
        <ele>2657</ele>
        <time>2021-05-09T08:59:55.000Z</time>
      </trkpt>
      <trkpt lat="44.3536" lon="6.86904">
        <ele>2657.6000976562</ele>
        <time>2021-05-09T09:00:00.000Z</time>
      </trkpt>
      <trkpt lat="44.3536" lon="6.86896">
        <ele>2658.1999511719</ele>
        <time>2021-05-09T09:00:04.000Z</time>
      </trkpt>
      <trkpt lat="44.3536" lon="6.86893">
        <ele>2658.3999023438</ele>
        <time>2021-05-09T09:00:06.000Z</time>
      </trkpt>
      <trkpt lat="44.3536" lon="6.86889">
        <ele>2659.1999511719</ele>
        <time>2021-05-09T09:00:09.000Z</time>
      </trkpt>
      <trkpt lat="44.3536" lon="6.86888">
        <ele>2659.3999023438</ele>
        <time>2021-05-09T09:00:10.000Z</time>
      </trkpt>
      <trkpt lat="44.35361" lon="6.86881">
        <ele>2660.6000976562</ele>
        <time>2021-05-09T09:00:16.000Z</time>
      </trkpt>
      <trkpt lat="44.35361" lon="6.8688">
        <ele>2660.8000488281</ele>
        <time>2021-05-09T09:00:17.000Z</time>
      </trkpt>
      <trkpt lat="44.35362" lon="6.86879">
        <ele>2661</ele>
        <time>2021-05-09T09:00:19.000Z</time>
      </trkpt>
      <trkpt lat="44.35362" lon="6.86878">
        <ele>2661.3999023438</ele>
        <time>2021-05-09T09:00:21.000Z</time>
      </trkpt>
      <trkpt lat="44.35362" lon="6.86877">
        <ele>2661.6000976562</ele>
        <time>2021-05-09T09:00:23.000Z</time>
      </trkpt>
      <trkpt lat="44.35364" lon="6.86881">
        <ele>2661.8000488281</ele>
        <time>2021-05-09T09:00:40.000Z</time>
      </trkpt>
      <trkpt lat="44.35364" lon="6.8688">
        <ele>2661.8000488281</ele>
        <time>2021-05-09T09:00:43.000Z</time>
      </trkpt>
      <trkpt lat="44.35364" lon="6.8688">
        <ele>2661.8000488281</ele>
        <time>2021-05-09T09:00:45.000Z</time>
      </trkpt>
      <trkpt lat="44.35364" lon="6.8688">
        <ele>2661.8000488281</ele>
        <time>2021-05-09T09:00:48.000Z</time>
      </trkpt>
      <trkpt lat="44.35364" lon="6.86879">
        <ele>2662.1999511719</ele>
        <time>2021-05-09T09:00:54.000Z</time>
      </trkpt>
      <trkpt lat="44.35364" lon="6.86879">
        <ele>2662.1999511719</ele>
        <time>2021-05-09T09:00:55.000Z</time>
      </trkpt>
      <trkpt lat="44.35363" lon="6.86878">
        <ele>2662.1999511719</ele>
        <time>2021-05-09T09:01:04.000Z</time>
      </trkpt>
      <trkpt lat="44.35363" lon="6.86877">
        <ele>2662.3999023438</ele>
        <time>2021-05-09T09:01:06.000Z</time>
      </trkpt>
      <trkpt lat="44.35362" lon="6.86876">
        <ele>2662.3999023438</ele>
        <time>2021-05-09T09:01:08.000Z</time>
      </trkpt>
      <trkpt lat="44.35362" lon="6.86876">
        <ele>2662.3999023438</ele>
        <time>2021-05-09T09:01:10.000Z</time>
      </trkpt>
      <trkpt lat="44.35363" lon="6.86875">
        <ele>2662.8000488281</ele>
        <time>2021-05-09T09:01:12.000Z</time>
      </trkpt>
      <trkpt lat="44.35354" lon="6.86872">
        <ele>2663.8000488281</ele>
        <time>2021-05-09T09:01:21.000Z</time>
      </trkpt>
      <trkpt lat="44.35357" lon="6.86872">
        <ele>2664</ele>
        <time>2021-05-09T09:01:25.000Z</time>
      </trkpt>
      <trkpt lat="44.35357" lon="6.86872">
        <ele>2664.1999511719</ele>
        <time>2021-05-09T09:01:26.000Z</time>
      </trkpt>
      <trkpt lat="44.35357" lon="6.86872">
        <ele>2664.1999511719</ele>
        <time>2021-05-09T09:01:27.000Z</time>
      </trkpt>
      <trkpt lat="44.35359" lon="6.86874">
        <ele>2664.1999511719</ele>
        <time>2021-05-09T09:01:28.000Z</time>
      </trkpt>
      <trkpt lat="44.3536" lon="6.86875">
        <ele>2664.1999511719</ele>
        <time>2021-05-09T09:01:30.000Z</time>
      </trkpt>
      <trkpt lat="44.35361" lon="6.86875">
        <ele>2664.1999511719</ele>
        <time>2021-05-09T09:01:31.000Z</time>
      </trkpt>
      <trkpt lat="44.35365" lon="6.86878">
        <ele>2664.3999023438</ele>
        <time>2021-05-09T09:01:36.000Z</time>
      </trkpt>
      <trkpt lat="44.35366" lon="6.86878">
        <ele>2664.3999023438</ele>
        <time>2021-05-09T09:01:40.000Z</time>
      </trkpt>
      <trkpt lat="44.35367" lon="6.8688">
        <ele>2665</ele>
        <time>2021-05-09T09:01:47.000Z</time>
      </trkpt>
      <trkpt lat="44.35369" lon="6.86883">
        <ele>2665.3999023438</ele>
        <time>2021-05-09T09:01:50.000Z</time>
      </trkpt>
      <trkpt lat="44.35373" lon="6.86887">
        <ele>2666.1999511719</ele>
        <time>2021-05-09T09:01:54.000Z</time>
      </trkpt>
      <trkpt lat="44.35378" lon="6.86893">
        <ele>2666.8000488281</ele>
        <time>2021-05-09T09:02:00.000Z</time>
      </trkpt>
      <trkpt lat="44.35378" lon="6.86894">
        <ele>2666.8000488281</ele>
        <time>2021-05-09T09:02:01.000Z</time>
      </trkpt>
      <trkpt lat="44.35378" lon="6.86895">
        <ele>2667</ele>
        <time>2021-05-09T09:02:02.000Z</time>
      </trkpt>
      <trkpt lat="44.3538" lon="6.86896">
        <ele>2667</ele>
        <time>2021-05-09T09:02:04.000Z</time>
      </trkpt>
      <trkpt lat="44.3538" lon="6.86896">
        <ele>2667.1999511719</ele>
        <time>2021-05-09T09:02:05.000Z</time>
      </trkpt>
      <trkpt lat="44.35381" lon="6.86896">
        <ele>2667.1999511719</ele>
        <time>2021-05-09T09:02:06.000Z</time>
      </trkpt>
      <trkpt lat="44.35375" lon="6.86896">
        <ele>2667</ele>
        <time>2021-05-09T09:02:25.000Z</time>
      </trkpt>
      <trkpt lat="44.35375" lon="6.86895">
        <ele>2667</ele>
        <time>2021-05-09T09:02:30.000Z</time>
      </trkpt>
      <trkpt lat="44.35374" lon="6.86895">
        <ele>2667</ele>
        <time>2021-05-09T09:02:33.000Z</time>
      </trkpt>
      <trkpt lat="44.35375" lon="6.86895">
        <ele>2666.8000488281</ele>
        <time>2021-05-09T09:02:36.000Z</time>
      </trkpt>
      <trkpt lat="44.35376" lon="6.86896">
        <ele>2666.8000488281</ele>
        <time>2021-05-09T09:02:38.000Z</time>
      </trkpt>
      <trkpt lat="44.35376" lon="6.86896">
        <ele>2666.6000976562</ele>
        <time>2021-05-09T09:02:41.000Z</time>
      </trkpt>
      <trkpt lat="44.35376" lon="6.86896">
        <ele>2666.6000976562</ele>
        <time>2021-05-09T09:02:44.000Z</time>
      </trkpt>
      <trkpt lat="44.35376" lon="6.86896">
        <ele>2666.8000488281</ele>
        <time>2021-05-09T09:02:47.000Z</time>
      </trkpt>
      <trkpt lat="44.35375" lon="6.86896">
        <ele>2666.8000488281</ele>
        <time>2021-05-09T09:02:51.000Z</time>
      </trkpt>
      <trkpt lat="44.35376" lon="6.86896">
        <ele>2666.8000488281</ele>
        <time>2021-05-09T09:02:54.000Z</time>
      </trkpt>
      <trkpt lat="44.35376" lon="6.86896">
        <ele>2666.8000488281</ele>
        <time>2021-05-09T09:02:55.000Z</time>
      </trkpt>
      <trkpt lat="44.35376" lon="6.86896">
        <ele>2666.8000488281</ele>
        <time>2021-05-09T09:02:59.000Z</time>
      </trkpt>
      <trkpt lat="44.35376" lon="6.86897">
        <ele>2667</ele>
        <time>2021-05-09T09:03:05.000Z</time>
      </trkpt>
      <trkpt lat="44.35377" lon="6.86897">
        <ele>2666.8000488281</ele>
        <time>2021-05-09T09:03:06.000Z</time>
      </trkpt>
      <trkpt lat="44.35377" lon="6.86897">
        <ele>2666.8000488281</ele>
        <time>2021-05-09T09:03:07.000Z</time>
      </trkpt>
      <trkpt lat="44.35377" lon="6.86897">
        <ele>2666.8000488281</ele>
        <time>2021-05-09T09:03:09.000Z</time>
      </trkpt>
      <trkpt lat="44.35377" lon="6.86897">
        <ele>2666.8000488281</ele>
        <time>2021-05-09T09:03:10.000Z</time>
      </trkpt>
      <trkpt lat="44.35377" lon="6.86897">
        <ele>2666.8000488281</ele>
        <time>2021-05-09T09:03:13.000Z</time>
      </trkpt>
      <trkpt lat="44.35378" lon="6.86898">
        <ele>2666.8000488281</ele>
        <time>2021-05-09T09:03:15.000Z</time>
      </trkpt>
      <trkpt lat="44.35378" lon="6.86899">
        <ele>2667</ele>
        <time>2021-05-09T09:03:16.000Z</time>
      </trkpt>
      <trkpt lat="44.35379" lon="6.86901">
        <ele>2667.3999023438</ele>
        <time>2021-05-09T09:03:20.000Z</time>
      </trkpt>
      <trkpt lat="44.35379" lon="6.86903">
        <ele>2667.6000976562</ele>
        <time>2021-05-09T09:03:24.000Z</time>
      </trkpt>
      <trkpt lat="44.3538" lon="6.86904">
        <ele>2667.3999023438</ele>
        <time>2021-05-09T09:03:28.000Z</time>
      </trkpt>
      <trkpt lat="44.3538" lon="6.86903">
        <ele>2667.1999511719</ele>
        <time>2021-05-09T09:03:30.000Z</time>
      </trkpt>
      <trkpt lat="44.35379" lon="6.86904">
        <ele>2667</ele>
        <time>2021-05-09T09:03:36.000Z</time>
      </trkpt>
      <trkpt lat="44.3538" lon="6.86905">
        <ele>2667</ele>
        <time>2021-05-09T09:03:38.000Z</time>
      </trkpt>
      <trkpt lat="44.3538" lon="6.86905">
        <ele>2667.1999511719</ele>
        <time>2021-05-09T09:03:39.000Z</time>
      </trkpt>
      <trkpt lat="44.35379" lon="6.86906">
        <ele>2667.8000488281</ele>
        <time>2021-05-09T09:03:44.000Z</time>
      </trkpt>
      <trkpt lat="44.3538" lon="6.86905">
        <ele>2667.3999023438</ele>
        <time>2021-05-09T09:03:55.000Z</time>
      </trkpt>
      <trkpt lat="44.35374" lon="6.86899">
        <ele>2667.3999023438</ele>
        <time>2021-05-09T09:04:14.000Z</time>
      </trkpt>
      <trkpt lat="44.35374" lon="6.86898">
        <ele>2668</ele>
        <time>2021-05-09T09:04:22.000Z</time>
      </trkpt>
      <trkpt lat="44.35374" lon="6.86897">
        <ele>2668.3999023438</ele>
        <time>2021-05-09T09:04:26.000Z</time>
      </trkpt>
      <trkpt lat="44.35376" lon="6.86888">
        <ele>2668.3999023438</ele>
        <time>2021-05-09T09:04:42.000Z</time>
      </trkpt>
      <trkpt lat="44.35376" lon="6.86883">
        <ele>2668.3999023438</ele>
        <time>2021-05-09T09:04:47.000Z</time>
      </trkpt>
      <trkpt lat="44.35375" lon="6.86879">
        <ele>2670</ele>
        <time>2021-05-09T09:04:50.000Z</time>
      </trkpt>
      <trkpt lat="44.35375" lon="6.86877">
        <ele>2671.3999023438</ele>
        <time>2021-05-09T09:04:52.000Z</time>
      </trkpt>
      <trkpt lat="44.35376" lon="6.86874">
        <ele>2672</ele>
        <time>2021-05-09T09:04:57.000Z</time>
      </trkpt>
      <trkpt lat="44.35375" lon="6.86872">
        <ele>2672.1999511719</ele>
        <time>2021-05-09T09:04:58.000Z</time>
      </trkpt>
      <trkpt lat="44.35375" lon="6.8687">
        <ele>2672.3999023438</ele>
        <time>2021-05-09T09:05:00.000Z</time>
      </trkpt>
      <trkpt lat="44.35374" lon="6.86867">
        <ele>2673</ele>
        <time>2021-05-09T09:05:02.000Z</time>
      </trkpt>
      <trkpt lat="44.35374" lon="6.86865">
        <ele>2673.3999023438</ele>
        <time>2021-05-09T09:05:05.000Z</time>
      </trkpt>
      <trkpt lat="44.35374" lon="6.86864">
        <ele>2673.3999023438</ele>
        <time>2021-05-09T09:05:06.000Z</time>
      </trkpt>
      <trkpt lat="44.35374" lon="6.86863">
        <ele>2673.6000976562</ele>
        <time>2021-05-09T09:05:08.000Z</time>
      </trkpt>
      <trkpt lat="44.35374" lon="6.86861">
        <ele>2674</ele>
        <time>2021-05-09T09:05:10.000Z</time>
      </trkpt>
      <trkpt lat="44.35374" lon="6.86858">
        <ele>2674.6000976562</ele>
        <time>2021-05-09T09:05:12.000Z</time>
      </trkpt>
      <trkpt lat="44.35373" lon="6.86852">
        <ele>2675.8000488281</ele>
        <time>2021-05-09T09:05:17.000Z</time>
      </trkpt>
      <trkpt lat="44.35374" lon="6.86849">
        <ele>2676.1999511719</ele>
        <time>2021-05-09T09:05:20.000Z</time>
      </trkpt>
      <trkpt lat="44.35374" lon="6.86848">
        <ele>2676.8000488281</ele>
        <time>2021-05-09T09:05:24.000Z</time>
      </trkpt>
      <trkpt lat="44.35383" lon="6.8686">
        <ele>2677.3999023438</ele>
        <time>2021-05-09T09:05:58.000Z</time>
      </trkpt>
      <trkpt lat="44.35385" lon="6.86861">
        <ele>2677.8000488281</ele>
        <time>2021-05-09T09:06:14.000Z</time>
      </trkpt>
      <trkpt lat="44.35385" lon="6.86861">
        <ele>2678.1999511719</ele>
        <time>2021-05-09T09:06:24.000Z</time>
      </trkpt>
      <trkpt lat="44.35384" lon="6.8686">
        <ele>2678.1999511719</ele>
        <time>2021-05-09T09:06:28.000Z</time>
      </trkpt>
      <trkpt lat="44.35384" lon="6.86861">
        <ele>2678.1999511719</ele>
        <time>2021-05-09T09:06:32.000Z</time>
      </trkpt>
      <trkpt lat="44.35384" lon="6.86861">
        <ele>2678.1999511719</ele>
        <time>2021-05-09T09:06:35.000Z</time>
      </trkpt>
      <trkpt lat="44.35384" lon="6.86861">
        <ele>2678.1999511719</ele>
        <time>2021-05-09T09:06:37.000Z</time>
      </trkpt>
      <trkpt lat="44.35385" lon="6.8686">
        <ele>2678</ele>
        <time>2021-05-09T09:06:47.000Z</time>
      </trkpt>
      <trkpt lat="44.35385" lon="6.8686">
        <ele>2678</ele>
        <time>2021-05-09T09:06:49.000Z</time>
      </trkpt>
      <trkpt lat="44.35384" lon="6.86862">
        <ele>2677.8000488281</ele>
        <time>2021-05-09T09:06:59.000Z</time>
      </trkpt>
      <trkpt lat="44.35385" lon="6.86862">
        <ele>2677.8000488281</ele>
        <time>2021-05-09T09:07:01.000Z</time>
      </trkpt>
      <trkpt lat="44.35385" lon="6.86863">
        <ele>2677.8000488281</ele>
        <time>2021-05-09T09:07:11.000Z</time>
      </trkpt>
      <trkpt lat="44.35385" lon="6.86863">
        <ele>2677.8000488281</ele>
        <time>2021-05-09T09:07:12.000Z</time>
      </trkpt>
      <trkpt lat="44.35385" lon="6.86863">
        <ele>2678</ele>
        <time>2021-05-09T09:07:14.000Z</time>
      </trkpt>
      <trkpt lat="44.35385" lon="6.86863">
        <ele>2678</ele>
        <time>2021-05-09T09:07:16.000Z</time>
      </trkpt>
      <trkpt lat="44.35384" lon="6.86863">
        <ele>2678.1999511719</ele>
        <time>2021-05-09T09:07:27.000Z</time>
      </trkpt>
      <trkpt lat="44.35385" lon="6.86865">
        <ele>2678.1999511719</ele>
        <time>2021-05-09T09:07:35.000Z</time>
      </trkpt>
      <trkpt lat="44.35384" lon="6.86865">
        <ele>2678.1999511719</ele>
        <time>2021-05-09T09:07:44.000Z</time>
      </trkpt>
      <trkpt lat="44.35384" lon="6.86866">
        <ele>2678.3999023438</ele>
        <time>2021-05-09T09:07:47.000Z</time>
      </trkpt>
      <trkpt lat="44.35387" lon="6.86859">
        <ele>2678.3999023438</ele>
        <time>2021-05-09T09:08:00.000Z</time>
      </trkpt>
      <trkpt lat="44.35387" lon="6.86861">
        <ele>2678.8000488281</ele>
        <time>2021-05-09T09:08:02.000Z</time>
      </trkpt>
      <trkpt lat="44.35387" lon="6.86863">
        <ele>2678.8000488281</ele>
        <time>2021-05-09T09:08:03.000Z</time>
      </trkpt>
      <trkpt lat="44.35389" lon="6.86865">
        <ele>2679.1999511719</ele>
        <time>2021-05-09T09:08:05.000Z</time>
      </trkpt>
      <trkpt lat="44.35388" lon="6.86867">
        <ele>2679.3999023438</ele>
        <time>2021-05-09T09:08:09.000Z</time>
      </trkpt>
      <trkpt lat="44.35389" lon="6.86869">
        <ele>2679.8000488281</ele>
        <time>2021-05-09T09:08:13.000Z</time>
      </trkpt>
      <trkpt lat="44.35389" lon="6.86869">
        <ele>2680</ele>
        <time>2021-05-09T09:08:14.000Z</time>
      </trkpt>
      <trkpt lat="44.3539" lon="6.86871">
        <ele>2680.3999023438</ele>
        <time>2021-05-09T09:08:17.000Z</time>
      </trkpt>
      <trkpt lat="44.35395" lon="6.86873">
        <ele>2681</ele>
        <time>2021-05-09T09:08:22.000Z</time>
      </trkpt>
      <trkpt lat="44.35396" lon="6.86874">
        <ele>2681</ele>
        <time>2021-05-09T09:08:23.000Z</time>
      </trkpt>
      <trkpt lat="44.35397" lon="6.86875">
        <ele>2681.3999023438</ele>
        <time>2021-05-09T09:08:25.000Z</time>
      </trkpt>
      <trkpt lat="44.35399" lon="6.86876">
        <ele>2681.8000488281</ele>
        <time>2021-05-09T09:08:27.000Z</time>
      </trkpt>
      <trkpt lat="44.35399" lon="6.86877">
        <ele>2681.8000488281</ele>
        <time>2021-05-09T09:08:29.000Z</time>
      </trkpt>
      <trkpt lat="44.35399" lon="6.86878">
        <ele>2681.8000488281</ele>
        <time>2021-05-09T09:08:31.000Z</time>
      </trkpt>
      <trkpt lat="44.354" lon="6.86882">
        <ele>2682</ele>
        <time>2021-05-09T09:08:35.000Z</time>
      </trkpt>
      <trkpt lat="44.35402" lon="6.86886">
        <ele>2682.8000488281</ele>
        <time>2021-05-09T09:08:41.000Z</time>
      </trkpt>
      <trkpt lat="44.35401" lon="6.86889">
        <ele>2683</ele>
        <time>2021-05-09T09:08:44.000Z</time>
      </trkpt>
      <trkpt lat="44.35401" lon="6.86889">
        <ele>2683.1999511719</ele>
        <time>2021-05-09T09:08:46.000Z</time>
      </trkpt>
      <trkpt lat="44.35404" lon="6.86893">
        <ele>2684.1999511719</ele>
        <time>2021-05-09T09:08:54.000Z</time>
      </trkpt>
      <trkpt lat="44.35407" lon="6.86899">
        <ele>2685.1999511719</ele>
        <time>2021-05-09T09:09:01.000Z</time>
      </trkpt>
      <trkpt lat="44.35407" lon="6.86902">
        <ele>2686</ele>
        <time>2021-05-09T09:09:06.000Z</time>
      </trkpt>
      <trkpt lat="44.3541" lon="6.86906">
        <ele>2686.1999511719</ele>
        <time>2021-05-09T09:09:09.000Z</time>
      </trkpt>
      <trkpt lat="44.3541" lon="6.86906">
        <ele>2686.1999511719</ele>
        <time>2021-05-09T09:09:10.000Z</time>
      </trkpt>
      <trkpt lat="44.35411" lon="6.86907">
        <ele>2686.3999023438</ele>
        <time>2021-05-09T09:09:12.000Z</time>
      </trkpt>
      <trkpt lat="44.35412" lon="6.86913">
        <ele>2687.3999023438</ele>
        <time>2021-05-09T09:09:19.000Z</time>
      </trkpt>
      <trkpt lat="44.35407" lon="6.86919">
        <ele>2688.3999023438</ele>
        <time>2021-05-09T09:09:31.000Z</time>
      </trkpt>
      <trkpt lat="44.35408" lon="6.86924">
        <ele>2689.3999023438</ele>
        <time>2021-05-09T09:09:40.000Z</time>
      </trkpt>
      <trkpt lat="44.3541" lon="6.8693">
        <ele>2690.3999023438</ele>
        <time>2021-05-09T09:09:46.000Z</time>
      </trkpt>
      <trkpt lat="44.35411" lon="6.86933">
        <ele>2691</ele>
        <time>2021-05-09T09:09:49.000Z</time>
      </trkpt>
      <trkpt lat="44.35412" lon="6.86935">
        <ele>2691.6000976562</ele>
        <time>2021-05-09T09:09:52.000Z</time>
      </trkpt>
      <trkpt lat="44.35415" lon="6.86937">
        <ele>2692.8000488281</ele>
        <time>2021-05-09T09:10:01.000Z</time>
      </trkpt>
      <trkpt lat="44.35413" lon="6.86941">
        <ele>2693.6000976562</ele>
        <time>2021-05-09T09:10:05.000Z</time>
      </trkpt>
      <trkpt lat="44.35413" lon="6.86942">
        <ele>2693.8000488281</ele>
        <time>2021-05-09T09:10:06.000Z</time>
      </trkpt>
      <trkpt lat="44.35413" lon="6.86945">
        <ele>2693.8000488281</ele>
        <time>2021-05-09T09:10:07.000Z</time>
      </trkpt>
      <trkpt lat="44.3541" lon="6.86947">
        <ele>2694.3999023438</ele>
        <time>2021-05-09T09:10:12.000Z</time>
      </trkpt>
      <trkpt lat="44.35408" lon="6.8695">
        <ele>2694.8000488281</ele>
        <time>2021-05-09T09:10:17.000Z</time>
      </trkpt>
      <trkpt lat="44.35404" lon="6.86951">
        <ele>2696</ele>
        <time>2021-05-09T09:10:27.000Z</time>
      </trkpt>
      <trkpt lat="44.35402" lon="6.86953">
        <ele>2697</ele>
        <time>2021-05-09T09:10:35.000Z</time>
      </trkpt>
      <trkpt lat="44.35394" lon="6.86957">
        <ele>2697.3999023438</ele>
        <time>2021-05-09T09:10:55.000Z</time>
      </trkpt>
      <trkpt lat="44.35393" lon="6.86952">
        <ele>2697.8000488281</ele>
        <time>2021-05-09T09:11:00.000Z</time>
      </trkpt>
      <trkpt lat="44.35395" lon="6.86953">
        <ele>2698</ele>
        <time>2021-05-09T09:11:03.000Z</time>
      </trkpt>
      <trkpt lat="44.35397" lon="6.86951">
        <ele>2698</ele>
        <time>2021-05-09T09:11:13.000Z</time>
      </trkpt>
      <trkpt lat="44.35398" lon="6.8695">
        <ele>2698</ele>
        <time>2021-05-09T09:11:22.000Z</time>
      </trkpt>
      <trkpt lat="44.35397" lon="6.86948">
        <ele>2697.6000976562</ele>
        <time>2021-05-09T09:11:36.000Z</time>
      </trkpt>
      <trkpt lat="44.35399" lon="6.86948">
        <ele>2697.6000976562</ele>
        <time>2021-05-09T09:11:38.000Z</time>
      </trkpt>
      <trkpt lat="44.35394" lon="6.86945">
        <ele>2697.1999511719</ele>
        <time>2021-05-09T09:11:58.000Z</time>
      </trkpt>
      <trkpt lat="44.35394" lon="6.86945">
        <ele>2697.1999511719</ele>
        <time>2021-05-09T09:12:00.000Z</time>
      </trkpt>
      <trkpt lat="44.35396" lon="6.86942">
        <ele>2697.3999023438</ele>
        <time>2021-05-09T09:12:03.000Z</time>
      </trkpt>
      <trkpt lat="44.35398" lon="6.86941">
        <ele>2697.6000976562</ele>
        <time>2021-05-09T09:12:07.000Z</time>
      </trkpt>
      <trkpt lat="44.35402" lon="6.86942">
        <ele>2698</ele>
        <time>2021-05-09T09:12:14.000Z</time>
      </trkpt>
      <trkpt lat="44.35402" lon="6.86941">
        <ele>2698</ele>
        <time>2021-05-09T09:12:15.000Z</time>
      </trkpt>
      <trkpt lat="44.35427" lon="6.86907">
        <ele>2698.3999023438</ele>
        <time>2021-05-09T09:12:21.000Z</time>
      </trkpt>
      <trkpt lat="44.35402" lon="6.86917">
        <ele>2698.6000976562</ele>
        <time>2021-05-09T09:12:23.000Z</time>
      </trkpt>
      <trkpt lat="44.35402" lon="6.86923">
        <ele>2699.1999511719</ele>
        <time>2021-05-09T09:12:26.000Z</time>
      </trkpt>
      <trkpt lat="44.354" lon="6.8692">
        <ele>2699.3999023438</ele>
        <time>2021-05-09T09:12:28.000Z</time>
      </trkpt>
      <trkpt lat="44.35397" lon="6.86915">
        <ele>2700</ele>
        <time>2021-05-09T09:12:31.000Z</time>
      </trkpt>
      <trkpt lat="44.35398" lon="6.86913">
        <ele>2700.3999023438</ele>
        <time>2021-05-09T09:12:34.000Z</time>
      </trkpt>
      <trkpt lat="44.354" lon="6.86916">
        <ele>2700.3999023438</ele>
        <time>2021-05-09T09:12:35.000Z</time>
      </trkpt>
      <trkpt lat="44.35406" lon="6.86921">
        <ele>2701.3999023438</ele>
        <time>2021-05-09T09:12:40.000Z</time>
      </trkpt>
      <trkpt lat="44.35409" lon="6.86924">
        <ele>2702.1999511719</ele>
        <time>2021-05-09T09:12:44.000Z</time>
      </trkpt>
      <trkpt lat="44.35411" lon="6.86925">
        <ele>2702.6000976562</ele>
        <time>2021-05-09T09:12:45.000Z</time>
      </trkpt>
      <trkpt lat="44.35414" lon="6.86925">
        <ele>2703.3999023438</ele>
        <time>2021-05-09T09:12:49.000Z</time>
      </trkpt>
      <trkpt lat="44.35415" lon="6.86925">
        <ele>2703.6000976562</ele>
        <time>2021-05-09T09:12:50.000Z</time>
      </trkpt>
      <trkpt lat="44.3542" lon="6.86925">
        <ele>2704</ele>
        <time>2021-05-09T09:12:57.000Z</time>
      </trkpt>
      <trkpt lat="44.35422" lon="6.8693">
        <ele>2704.6000976562</ele>
        <time>2021-05-09T09:13:08.000Z</time>
      </trkpt>
      <trkpt lat="44.35419" lon="6.86921">
        <ele>2704.6000976562</ele>
        <time>2021-05-09T09:13:15.000Z</time>
      </trkpt>
      <trkpt lat="44.35417" lon="6.86913">
        <ele>2704.8000488281</ele>
        <time>2021-05-09T09:13:21.000Z</time>
      </trkpt>
      <trkpt lat="44.35422" lon="6.86918">
        <ele>2704.8000488281</ele>
        <time>2021-05-09T09:13:27.000Z</time>
      </trkpt>
      <trkpt lat="44.35423" lon="6.86919">
        <ele>2705</ele>
        <time>2021-05-09T09:13:32.000Z</time>
      </trkpt>
      <trkpt lat="44.35425" lon="6.86917">
        <ele>2705.8000488281</ele>
        <time>2021-05-09T09:13:38.000Z</time>
      </trkpt>
      <trkpt lat="44.35426" lon="6.86915">
        <ele>2706.8000488281</ele>
        <time>2021-05-09T09:13:43.000Z</time>
      </trkpt>
      <trkpt lat="44.3543" lon="6.86908">
        <ele>2707.8000488281</ele>
        <time>2021-05-09T09:13:52.000Z</time>
      </trkpt>
      <trkpt lat="44.3543" lon="6.86904">
        <ele>2708.3999023438</ele>
        <time>2021-05-09T09:13:55.000Z</time>
      </trkpt>
      <trkpt lat="44.3543" lon="6.86901">
        <ele>2708.8000488281</ele>
        <time>2021-05-09T09:13:59.000Z</time>
      </trkpt>
      <trkpt lat="44.3543" lon="6.86898">
        <ele>2709</ele>
        <time>2021-05-09T09:14:00.000Z</time>
      </trkpt>
      <trkpt lat="44.3543" lon="6.86897">
        <ele>2709.1999511719</ele>
        <time>2021-05-09T09:14:02.000Z</time>
      </trkpt>
      <trkpt lat="44.3543" lon="6.8689">
        <ele>2710</ele>
        <time>2021-05-09T09:14:08.000Z</time>
      </trkpt>
      <trkpt lat="44.35431" lon="6.8689">
        <ele>2710.1999511719</ele>
        <time>2021-05-09T09:14:09.000Z</time>
      </trkpt>
      <trkpt lat="44.35432" lon="6.86889">
        <ele>2710.1999511719</ele>
        <time>2021-05-09T09:14:10.000Z</time>
      </trkpt>
      <trkpt lat="44.35433" lon="6.86888">
        <ele>2710.3999023438</ele>
        <time>2021-05-09T09:14:13.000Z</time>
      </trkpt>
      <trkpt lat="44.35432" lon="6.86888">
        <ele>2710.8000488281</ele>
        <time>2021-05-09T09:14:16.000Z</time>
      </trkpt>
      <trkpt lat="44.35432" lon="6.86884">
        <ele>2711.1999511719</ele>
        <time>2021-05-09T09:14:28.000Z</time>
      </trkpt>
      <trkpt lat="44.35431" lon="6.8688">
        <ele>2712.3999023438</ele>
        <time>2021-05-09T09:14:34.000Z</time>
      </trkpt>
      <trkpt lat="44.35429" lon="6.86877">
        <ele>2712.3999023438</ele>
        <time>2021-05-09T09:14:37.000Z</time>
      </trkpt>
      <trkpt lat="44.35429" lon="6.86875">
        <ele>2712.6000976562</ele>
        <time>2021-05-09T09:14:38.000Z</time>
      </trkpt>
      <trkpt lat="44.35429" lon="6.86872">
        <ele>2713.3999023438</ele>
        <time>2021-05-09T09:14:41.000Z</time>
      </trkpt>
      <trkpt lat="44.35429" lon="6.86869">
        <ele>2714</ele>
        <time>2021-05-09T09:14:44.000Z</time>
      </trkpt>
      <trkpt lat="44.35429" lon="6.86863">
        <ele>2714</ele>
        <time>2021-05-09T09:14:51.000Z</time>
      </trkpt>
      <trkpt lat="44.35432" lon="6.86863">
        <ele>2714</ele>
        <time>2021-05-09T09:14:57.000Z</time>
      </trkpt>
      <trkpt lat="44.35437" lon="6.86868">
        <ele>2714.3999023438</ele>
        <time>2021-05-09T09:15:12.000Z</time>
      </trkpt>
      <trkpt lat="44.3544" lon="6.86874">
        <ele>2715.3999023438</ele>
        <time>2021-05-09T09:15:24.000Z</time>
      </trkpt>
      <trkpt lat="44.35442" lon="6.86881">
        <ele>2716.6000976562</ele>
        <time>2021-05-09T09:15:32.000Z</time>
      </trkpt>
      <trkpt lat="44.35445" lon="6.86885">
        <ele>2717.1999511719</ele>
        <time>2021-05-09T09:15:43.000Z</time>
      </trkpt>
      <trkpt lat="44.35446" lon="6.86885">
        <ele>2717.3999023438</ele>
        <time>2021-05-09T09:15:44.000Z</time>
      </trkpt>
      <trkpt lat="44.35447" lon="6.86886">
        <ele>2717.6000976562</ele>
        <time>2021-05-09T09:15:45.000Z</time>
      </trkpt>
      <trkpt lat="44.35447" lon="6.86886">
        <ele>2717.6000976562</ele>
        <time>2021-05-09T09:15:46.000Z</time>
      </trkpt>
      <trkpt lat="44.35448" lon="6.86887">
        <ele>2717.8000488281</ele>
        <time>2021-05-09T09:15:47.000Z</time>
      </trkpt>
      <trkpt lat="44.35449" lon="6.86888">
        <ele>2718</ele>
        <time>2021-05-09T09:15:48.000Z</time>
      </trkpt>
      <trkpt lat="44.3545" lon="6.8689">
        <ele>2718.3999023438</ele>
        <time>2021-05-09T09:15:50.000Z</time>
      </trkpt>
      <trkpt lat="44.3545" lon="6.86891">
        <ele>2718.8000488281</ele>
        <time>2021-05-09T09:15:52.000Z</time>
      </trkpt>
      <trkpt lat="44.35452" lon="6.86894">
        <ele>2720</ele>
        <time>2021-05-09T09:15:59.000Z</time>
      </trkpt>
      <trkpt lat="44.35454" lon="6.86896">
        <ele>2720.1999511719</ele>
        <time>2021-05-09T09:16:04.000Z</time>
      </trkpt>
      <trkpt lat="44.35454" lon="6.86898">
        <ele>2720.1999511719</ele>
        <time>2021-05-09T09:16:06.000Z</time>
      </trkpt>
      <trkpt lat="44.35455" lon="6.86899">
        <ele>2721</ele>
        <time>2021-05-09T09:16:12.000Z</time>
      </trkpt>
      <trkpt lat="44.35456" lon="6.86903">
        <ele>2721.1999511719</ele>
        <time>2021-05-09T09:16:16.000Z</time>
      </trkpt>
      <trkpt lat="44.35457" lon="6.86904">
        <ele>2721.3999023438</ele>
        <time>2021-05-09T09:16:18.000Z</time>
      </trkpt>
      <trkpt lat="44.35458" lon="6.86908">
        <ele>2722</ele>
        <time>2021-05-09T09:16:22.000Z</time>
      </trkpt>
      <trkpt lat="44.35458" lon="6.86911">
        <ele>2722.6000976562</ele>
        <time>2021-05-09T09:16:24.000Z</time>
      </trkpt>
      <trkpt lat="44.35458" lon="6.86913">
        <ele>2723</ele>
        <time>2021-05-09T09:16:26.000Z</time>
      </trkpt>
      <trkpt lat="44.35458" lon="6.86914">
        <ele>2723.1999511719</ele>
        <time>2021-05-09T09:16:27.000Z</time>
      </trkpt>
      <trkpt lat="44.35459" lon="6.8692">
        <ele>2723.8000488281</ele>
        <time>2021-05-09T09:16:33.000Z</time>
      </trkpt>
      <trkpt lat="44.35459" lon="6.86921">
        <ele>2724.1999511719</ele>
        <time>2021-05-09T09:16:34.000Z</time>
      </trkpt>
      <trkpt lat="44.35461" lon="6.86924">
        <ele>2725.1999511719</ele>
        <time>2021-05-09T09:16:43.000Z</time>
      </trkpt>
      <trkpt lat="44.35456" lon="6.86926">
        <ele>2725.8000488281</ele>
        <time>2021-05-09T09:16:58.000Z</time>
      </trkpt>
      <trkpt lat="44.35456" lon="6.86927">
        <ele>2725.8000488281</ele>
        <time>2021-05-09T09:17:05.000Z</time>
      </trkpt>
      <trkpt lat="44.35455" lon="6.86926">
        <ele>2725.8000488281</ele>
        <time>2021-05-09T09:17:11.000Z</time>
      </trkpt>
      <trkpt lat="44.35456" lon="6.86928">
        <ele>2726.3999023438</ele>
        <time>2021-05-09T09:17:19.000Z</time>
      </trkpt>
      <trkpt lat="44.35457" lon="6.86926">
        <ele>2726.6000976562</ele>
        <time>2021-05-09T09:17:26.000Z</time>
      </trkpt>
      <trkpt lat="44.35457" lon="6.86921">
        <ele>2727.3999023438</ele>
        <time>2021-05-09T09:17:47.000Z</time>
      </trkpt>
      <trkpt lat="44.35456" lon="6.86918">
        <ele>2727.6000976562</ele>
        <time>2021-05-09T09:17:50.000Z</time>
      </trkpt>
      <trkpt lat="44.35456" lon="6.86911">
        <ele>2728.3999023438</ele>
        <time>2021-05-09T09:17:57.000Z</time>
      </trkpt>
      <trkpt lat="44.35457" lon="6.86909">
        <ele>2728.8000488281</ele>
        <time>2021-05-09T09:18:09.000Z</time>
      </trkpt>
      <trkpt lat="44.35458" lon="6.8691">
        <ele>2728.6000976562</ele>
        <time>2021-05-09T09:18:13.000Z</time>
      </trkpt>
      <trkpt lat="44.35458" lon="6.86906">
        <ele>2728.3999023438</ele>
        <time>2021-05-09T09:18:21.000Z</time>
      </trkpt>
      <trkpt lat="44.35458" lon="6.86906">
        <ele>2728.6000976562</ele>
        <time>2021-05-09T09:18:23.000Z</time>
      </trkpt>
      <trkpt lat="44.35458" lon="6.86905">
        <ele>2728.8000488281</ele>
        <time>2021-05-09T09:18:27.000Z</time>
      </trkpt>
      <trkpt lat="44.35458" lon="6.86904">
        <ele>2729.1999511719</ele>
        <time>2021-05-09T09:18:30.000Z</time>
      </trkpt>
      <trkpt lat="44.35457" lon="6.86902">
        <ele>2729</ele>
        <time>2021-05-09T09:18:36.000Z</time>
      </trkpt>
      <trkpt lat="44.35457" lon="6.86902">
        <ele>2729</ele>
        <time>2021-05-09T09:18:40.000Z</time>
      </trkpt>
      <trkpt lat="44.35455" lon="6.86902">
        <ele>2729.3999023438</ele>
        <time>2021-05-09T09:18:45.000Z</time>
      </trkpt>
      <trkpt lat="44.35455" lon="6.86903">
        <ele>2729.3999023438</ele>
        <time>2021-05-09T09:18:54.000Z</time>
      </trkpt>
      <trkpt lat="44.35455" lon="6.86904">
        <ele>2729.3999023438</ele>
        <time>2021-05-09T09:18:58.000Z</time>
      </trkpt>
      <trkpt lat="44.35454" lon="6.86903">
        <ele>2728.6000976562</ele>
        <time>2021-05-09T09:19:03.000Z</time>
      </trkpt>
      <trkpt lat="44.35456" lon="6.869">
        <ele>2730.6000976562</ele>
        <time>2021-05-09T09:19:14.000Z</time>
      </trkpt>
      <trkpt lat="44.35452" lon="6.86904">
        <ele>2730.8000488281</ele>
        <time>2021-05-09T09:19:19.000Z</time>
      </trkpt>
      <trkpt lat="44.3545" lon="6.86904">
        <ele>2730.8000488281</ele>
        <time>2021-05-09T09:19:22.000Z</time>
      </trkpt>
      <trkpt lat="44.35444" lon="6.86904">
        <ele>2730.1999511719</ele>
        <time>2021-05-09T09:19:32.000Z</time>
      </trkpt>
      <trkpt lat="44.35449" lon="6.86896">
        <ele>2730</ele>
        <time>2021-05-09T09:19:39.000Z</time>
      </trkpt>
      <trkpt lat="44.35453" lon="6.86895">
        <ele>2730.1999511719</ele>
        <time>2021-05-09T09:19:46.000Z</time>
      </trkpt>
      <trkpt lat="44.35453" lon="6.86895">
        <ele>2730.3999023438</ele>
        <time>2021-05-09T09:19:48.000Z</time>
      </trkpt>
      <trkpt lat="44.35453" lon="6.86895">
        <ele>2730.8000488281</ele>
        <time>2021-05-09T09:19:50.000Z</time>
      </trkpt>
      <trkpt lat="44.35455" lon="6.86894">
        <ele>2731.1999511719</ele>
        <time>2021-05-09T09:19:55.000Z</time>
      </trkpt>
      <trkpt lat="44.35457" lon="6.86893">
        <ele>2731.3999023438</ele>
        <time>2021-05-09T09:19:59.000Z</time>
      </trkpt>
      <trkpt lat="44.35456" lon="6.86894">
        <ele>2731.6000976562</ele>
        <time>2021-05-09T09:20:02.000Z</time>
      </trkpt>
      <trkpt lat="44.35458" lon="6.86897">
        <ele>2732</ele>
        <time>2021-05-09T09:20:28.000Z</time>
      </trkpt>
      <trkpt lat="44.3546" lon="6.86897">
        <ele>2731.8000488281</ele>
        <time>2021-05-09T09:20:33.000Z</time>
      </trkpt>
      <trkpt lat="44.35462" lon="6.86895">
        <ele>2731.1999511719</ele>
        <time>2021-05-09T09:20:40.000Z</time>
      </trkpt>
      <trkpt lat="44.35461" lon="6.86894">
        <ele>2731.1999511719</ele>
        <time>2021-05-09T09:20:44.000Z</time>
      </trkpt>
      <trkpt lat="44.3546" lon="6.8689">
        <ele>2731.1999511719</ele>
        <time>2021-05-09T09:20:48.000Z</time>
      </trkpt>
      <trkpt lat="44.35461" lon="6.86895">
        <ele>2731.3999023438</ele>
        <time>2021-05-09T09:20:51.000Z</time>
      </trkpt>
      <trkpt lat="44.35461" lon="6.86891">
        <ele>2732.6000976562</ele>
        <time>2021-05-09T09:21:01.000Z</time>
      </trkpt>
      <trkpt lat="44.35459" lon="6.8689">
        <ele>2732.8000488281</ele>
        <time>2021-05-09T09:21:03.000Z</time>
      </trkpt>
      <trkpt lat="44.35459" lon="6.86887">
        <ele>2733.8000488281</ele>
        <time>2021-05-09T09:21:15.000Z</time>
      </trkpt>
      <trkpt lat="44.35459" lon="6.86887">
        <ele>2734.3999023438</ele>
        <time>2021-05-09T09:21:21.000Z</time>
      </trkpt>
      <trkpt lat="44.35458" lon="6.86886">
        <ele>2734.6000976562</ele>
        <time>2021-05-09T09:21:26.000Z</time>
      </trkpt>
      <trkpt lat="44.35458" lon="6.86885">
        <ele>2734.6000976562</ele>
        <time>2021-05-09T09:21:27.000Z</time>
      </trkpt>
      <trkpt lat="44.35459" lon="6.86885">
        <ele>2734.3999023438</ele>
        <time>2021-05-09T09:21:29.000Z</time>
      </trkpt>
      <trkpt lat="44.35459" lon="6.86885">
        <ele>2734.1999511719</ele>
        <time>2021-05-09T09:21:33.000Z</time>
      </trkpt>
      <trkpt lat="44.35462" lon="6.86887">
        <ele>2734.1999511719</ele>
        <time>2021-05-09T09:21:42.000Z</time>
      </trkpt>
      <trkpt lat="44.35463" lon="6.86887">
        <ele>2734.1999511719</ele>
        <time>2021-05-09T09:21:46.000Z</time>
      </trkpt>
      <trkpt lat="44.35463" lon="6.86886">
        <ele>2734.8000488281</ele>
        <time>2021-05-09T09:21:53.000Z</time>
      </trkpt>
      <trkpt lat="44.35462" lon="6.86885">
        <ele>2734.8000488281</ele>
        <time>2021-05-09T09:21:54.000Z</time>
      </trkpt>
      <trkpt lat="44.35462" lon="6.8688">
        <ele>2735.1999511719</ele>
        <time>2021-05-09T09:22:16.000Z</time>
      </trkpt>
      <trkpt lat="44.35465" lon="6.86877">
        <ele>2735.3999023438</ele>
        <time>2021-05-09T09:22:36.000Z</time>
      </trkpt>
      <trkpt lat="44.35466" lon="6.86876">
        <ele>2735.6000976562</ele>
        <time>2021-05-09T09:22:37.000Z</time>
      </trkpt>
      <trkpt lat="44.35468" lon="6.86875">
        <ele>2735.8000488281</ele>
        <time>2021-05-09T09:22:40.000Z</time>
      </trkpt>
      <trkpt lat="44.3547" lon="6.86875">
        <ele>2735.8000488281</ele>
        <time>2021-05-09T09:22:42.000Z</time>
      </trkpt>
      <trkpt lat="44.35469" lon="6.86875">
        <ele>2736.3999023438</ele>
        <time>2021-05-09T09:22:54.000Z</time>
      </trkpt>
      <trkpt lat="44.35471" lon="6.86875">
        <ele>2736</ele>
        <time>2021-05-09T09:23:03.000Z</time>
      </trkpt>
      <trkpt lat="44.35471" lon="6.8688">
        <ele>2735.6000976562</ele>
        <time>2021-05-09T09:23:08.000Z</time>
      </trkpt>
      <trkpt lat="44.35471" lon="6.86881">
        <ele>2735.3999023438</ele>
        <time>2021-05-09T09:23:09.000Z</time>
      </trkpt>
      <trkpt lat="44.3547" lon="6.86884">
        <ele>2734.8000488281</ele>
        <time>2021-05-09T09:23:18.000Z</time>
      </trkpt>
      <trkpt lat="44.3547" lon="6.86884">
        <ele>2734.6000976562</ele>
        <time>2021-05-09T09:23:23.000Z</time>
      </trkpt>
      <trkpt lat="44.3547" lon="6.86885">
        <ele>2734.6000976562</ele>
        <time>2021-05-09T09:23:34.000Z</time>
      </trkpt>
      <trkpt lat="44.3547" lon="6.86884">
        <ele>2734.6000976562</ele>
        <time>2021-05-09T09:23:40.000Z</time>
      </trkpt>
      <trkpt lat="44.3547" lon="6.86886">
        <ele>2734.3999023438</ele>
        <time>2021-05-09T09:23:51.000Z</time>
      </trkpt>
      <trkpt lat="44.3547" lon="6.86887">
        <ele>2734.3999023438</ele>
        <time>2021-05-09T09:23:54.000Z</time>
      </trkpt>
      <trkpt lat="44.3547" lon="6.86888">
        <ele>2734.3999023438</ele>
        <time>2021-05-09T09:24:00.000Z</time>
      </trkpt>
      <trkpt lat="44.3547" lon="6.86886">
        <ele>2734.6000976562</ele>
        <time>2021-05-09T09:24:10.000Z</time>
      </trkpt>
      <trkpt lat="44.3547" lon="6.86886">
        <ele>2734.6000976562</ele>
        <time>2021-05-09T09:24:14.000Z</time>
      </trkpt>
      <trkpt lat="44.35469" lon="6.8688">
        <ele>2735</ele>
        <time>2021-05-09T09:24:32.000Z</time>
      </trkpt>
      <trkpt lat="44.35469" lon="6.8688">
        <ele>2735</ele>
        <time>2021-05-09T09:24:34.000Z</time>
      </trkpt>
      <trkpt lat="44.35469" lon="6.8688">
        <ele>2735</ele>
        <time>2021-05-09T09:24:36.000Z</time>
      </trkpt>
      <trkpt lat="44.3547" lon="6.8688">
        <ele>2735</ele>
        <time>2021-05-09T09:24:39.000Z</time>
      </trkpt>
      <trkpt lat="44.3547" lon="6.8688">
        <ele>2735</ele>
        <time>2021-05-09T09:24:41.000Z</time>
      </trkpt>
      <trkpt lat="44.3547" lon="6.86881">
        <ele>2735</ele>
        <time>2021-05-09T09:24:47.000Z</time>
      </trkpt>
      <trkpt lat="44.3547" lon="6.86881">
        <ele>2735</ele>
        <time>2021-05-09T09:24:51.000Z</time>
      </trkpt>
      <trkpt lat="44.3547" lon="6.86881">
        <ele>2735</ele>
        <time>2021-05-09T09:24:53.000Z</time>
      </trkpt>
      <trkpt lat="44.3547" lon="6.86881">
        <ele>2735</ele>
        <time>2021-05-09T09:24:55.000Z</time>
      </trkpt>
      <trkpt lat="44.3547" lon="6.86882">
        <ele>2735</ele>
        <time>2021-05-09T09:25:05.000Z</time>
      </trkpt>
      <trkpt lat="44.3547" lon="6.86884">
        <ele>2735</ele>
        <time>2021-05-09T09:25:20.000Z</time>
      </trkpt>
      <trkpt lat="44.35471" lon="6.86884">
        <ele>2735</ele>
        <time>2021-05-09T09:25:23.000Z</time>
      </trkpt>
      <trkpt lat="44.35471" lon="6.86884">
        <ele>2735</ele>
        <time>2021-05-09T09:25:25.000Z</time>
      </trkpt>
      <trkpt lat="44.35471" lon="6.86884">
        <ele>2735</ele>
        <time>2021-05-09T09:25:28.000Z</time>
      </trkpt>
      <trkpt lat="44.35471" lon="6.86884">
        <ele>2735</ele>
        <time>2021-05-09T09:25:31.000Z</time>
      </trkpt>
      <trkpt lat="44.35471" lon="6.86885">
        <ele>2735</ele>
        <time>2021-05-09T09:25:38.000Z</time>
      </trkpt>
      <trkpt lat="44.35472" lon="6.86885">
        <ele>2735</ele>
        <time>2021-05-09T09:25:43.000Z</time>
      </trkpt>
      <trkpt lat="44.35472" lon="6.86884">
        <ele>2735</ele>
        <time>2021-05-09T09:25:44.000Z</time>
      </trkpt>
      <trkpt lat="44.35472" lon="6.86884">
        <ele>2735</ele>
        <time>2021-05-09T09:25:46.000Z</time>
      </trkpt>
      <trkpt lat="44.35472" lon="6.86884">
        <ele>2735</ele>
        <time>2021-05-09T09:25:48.000Z</time>
      </trkpt>
      <trkpt lat="44.35472" lon="6.86885">
        <ele>2735</ele>
        <time>2021-05-09T09:25:50.000Z</time>
      </trkpt>
      <trkpt lat="44.35472" lon="6.86884">
        <ele>2735</ele>
        <time>2021-05-09T09:25:58.000Z</time>
      </trkpt>
      <trkpt lat="44.35472" lon="6.86884">
        <ele>2735</ele>
        <time>2021-05-09T09:26:02.000Z</time>
      </trkpt>
      <trkpt lat="44.35472" lon="6.86884">
        <ele>2735</ele>
        <time>2021-05-09T09:26:03.000Z</time>
      </trkpt>
      <trkpt lat="44.35472" lon="6.86884">
        <ele>2735</ele>
        <time>2021-05-09T09:26:04.000Z</time>
      </trkpt>
      <trkpt lat="44.35471" lon="6.86884">
        <ele>2735</ele>
        <time>2021-05-09T09:26:05.000Z</time>
      </trkpt>
      <trkpt lat="44.35471" lon="6.86884">
        <ele>2735</ele>
        <time>2021-05-09T09:26:06.000Z</time>
      </trkpt>
      <trkpt lat="44.35472" lon="6.86884">
        <ele>2735</ele>
        <time>2021-05-09T09:26:12.000Z</time>
      </trkpt>
      <trkpt lat="44.35472" lon="6.86884">
        <ele>2735</ele>
        <time>2021-05-09T09:26:14.000Z</time>
      </trkpt>
      <trkpt lat="44.35472" lon="6.86884">
        <ele>2735</ele>
        <time>2021-05-09T09:26:19.000Z</time>
      </trkpt>
      <trkpt lat="44.35472" lon="6.86884">
        <ele>2735</ele>
        <time>2021-05-09T09:26:25.000Z</time>
      </trkpt>
      <trkpt lat="44.35472" lon="6.86883">
        <ele>2735</ele>
        <time>2021-05-09T09:26:34.000Z</time>
      </trkpt>
      <trkpt lat="44.35471" lon="6.86883">
        <ele>2735</ele>
        <time>2021-05-09T09:26:42.000Z</time>
      </trkpt>
      <trkpt lat="44.3547" lon="6.86882">
        <ele>2735</ele>
        <time>2021-05-09T09:26:46.000Z</time>
      </trkpt>
      <trkpt lat="44.3547" lon="6.86882">
        <ele>2735</ele>
        <time>2021-05-09T09:26:48.000Z</time>
      </trkpt>
      <trkpt lat="44.3547" lon="6.86882">
        <ele>2735</ele>
        <time>2021-05-09T09:26:51.000Z</time>
      </trkpt>
      <trkpt lat="44.3547" lon="6.86882">
        <ele>2735</ele>
        <time>2021-05-09T09:26:54.000Z</time>
      </trkpt>
      <trkpt lat="44.3547" lon="6.86883">
        <ele>2735</ele>
        <time>2021-05-09T09:26:58.000Z</time>
      </trkpt>
      <trkpt lat="44.35471" lon="6.86883">
        <ele>2735</ele>
        <time>2021-05-09T09:27:10.000Z</time>
      </trkpt>
      <trkpt lat="44.3547" lon="6.86884">
        <ele>2735</ele>
        <time>2021-05-09T09:27:14.000Z</time>
      </trkpt>
      <trkpt lat="44.35471" lon="6.86883">
        <ele>2735</ele>
        <time>2021-05-09T09:27:19.000Z</time>
      </trkpt>
      <trkpt lat="44.35469" lon="6.86882">
        <ele>2735</ele>
        <time>2021-05-09T09:27:30.000Z</time>
      </trkpt>
      <trkpt lat="44.35469" lon="6.8688">
        <ele>2735</ele>
        <time>2021-05-09T09:27:35.000Z</time>
      </trkpt>
      <trkpt lat="44.3547" lon="6.8688">
        <ele>2735</ele>
        <time>2021-05-09T09:27:40.000Z</time>
      </trkpt>
      <trkpt lat="44.3547" lon="6.86881">
        <ele>2735</ele>
        <time>2021-05-09T09:27:48.000Z</time>
      </trkpt>
      <trkpt lat="44.3547" lon="6.8688">
        <ele>2735</ele>
        <time>2021-05-09T09:27:58.000Z</time>
      </trkpt>
      <trkpt lat="44.3547" lon="6.86881">
        <ele>2735</ele>
        <time>2021-05-09T09:28:02.000Z</time>
      </trkpt>
      <trkpt lat="44.3547" lon="6.86881">
        <ele>2735</ele>
        <time>2021-05-09T09:28:29.000Z</time>
      </trkpt>
      <trkpt lat="44.3547" lon="6.86881">
        <ele>2735</ele>
        <time>2021-05-09T09:28:41.000Z</time>
      </trkpt>
      <trkpt lat="44.35471" lon="6.86881">
        <ele>2735</ele>
        <time>2021-05-09T09:28:50.000Z</time>
      </trkpt>
      <trkpt lat="44.35471" lon="6.86881">
        <ele>2735</ele>
        <time>2021-05-09T09:28:52.000Z</time>
      </trkpt>
      <trkpt lat="44.3547" lon="6.86881">
        <ele>2735</ele>
        <time>2021-05-09T09:28:54.000Z</time>
      </trkpt>
      <trkpt lat="44.3547" lon="6.86881">
        <ele>2735</ele>
        <time>2021-05-09T09:28:56.000Z</time>
      </trkpt>
      <trkpt lat="44.3547" lon="6.86881">
        <ele>2735</ele>
        <time>2021-05-09T09:29:03.000Z</time>
      </trkpt>
      <trkpt lat="44.3547" lon="6.86881">
        <ele>2735</ele>
        <time>2021-05-09T09:29:08.000Z</time>
      </trkpt>
      <trkpt lat="44.3547" lon="6.86881">
        <ele>2735</ele>
        <time>2021-05-09T09:29:11.000Z</time>
      </trkpt>
      <trkpt lat="44.3547" lon="6.86881">
        <ele>2735</ele>
        <time>2021-05-09T09:29:37.000Z</time>
      </trkpt>
      <trkpt lat="44.35469" lon="6.86883">
        <ele>2735</ele>
        <time>2021-05-09T09:29:55.000Z</time>
      </trkpt>
      <trkpt lat="44.3547" lon="6.86883">
        <ele>2735</ele>
        <time>2021-05-09T09:30:04.000Z</time>
      </trkpt>
      <trkpt lat="44.3547" lon="6.86883">
        <ele>2735</ele>
        <time>2021-05-09T09:30:13.000Z</time>
      </trkpt>
      <trkpt lat="44.3547" lon="6.86882">
        <ele>2735</ele>
        <time>2021-05-09T09:30:34.000Z</time>
      </trkpt>
      <trkpt lat="44.3547" lon="6.86882">
        <ele>2735</ele>
        <time>2021-05-09T09:30:37.000Z</time>
      </trkpt>
      <trkpt lat="44.3547" lon="6.86883">
        <ele>2735</ele>
        <time>2021-05-09T09:30:41.000Z</time>
      </trkpt>
      <trkpt lat="44.3547" lon="6.86883">
        <ele>2735</ele>
        <time>2021-05-09T09:31:13.000Z</time>
      </trkpt>
      <trkpt lat="44.3547" lon="6.86883">
        <ele>2735</ele>
        <time>2021-05-09T09:31:16.000Z</time>
      </trkpt>
      <trkpt lat="44.3547" lon="6.86883">
        <ele>2735</ele>
        <time>2021-05-09T09:31:20.000Z</time>
      </trkpt>
      <trkpt lat="44.3547" lon="6.86883">
        <ele>2735</ele>
        <time>2021-05-09T09:31:24.000Z</time>
      </trkpt>
      <trkpt lat="44.35469" lon="6.86881">
        <ele>2735</ele>
        <time>2021-05-09T09:31:57.000Z</time>
      </trkpt>
      <trkpt lat="44.3547" lon="6.86881">
        <ele>2735</ele>
        <time>2021-05-09T09:32:14.000Z</time>
      </trkpt>
      <trkpt lat="44.3547" lon="6.86881">
        <ele>2735</ele>
        <time>2021-05-09T09:32:19.000Z</time>
      </trkpt>
      <trkpt lat="44.3547" lon="6.86881">
        <ele>2735</ele>
        <time>2021-05-09T09:32:34.000Z</time>
      </trkpt>
      <trkpt lat="44.3547" lon="6.86881">
        <ele>2735</ele>
        <time>2021-05-09T09:32:40.000Z</time>
      </trkpt>
      <trkpt lat="44.3547" lon="6.86881">
        <ele>2735</ele>
        <time>2021-05-09T09:32:42.000Z</time>
      </trkpt>
      <trkpt lat="44.3547" lon="6.86881">
        <ele>2735</ele>
        <time>2021-05-09T09:32:48.000Z</time>
      </trkpt>
      <trkpt lat="44.35471" lon="6.86881">
        <ele>2735</ele>
        <time>2021-05-09T09:32:52.000Z</time>
      </trkpt>
      <trkpt lat="44.35471" lon="6.86881">
        <ele>2735</ele>
        <time>2021-05-09T09:32:53.000Z</time>
      </trkpt>
      <trkpt lat="44.35471" lon="6.86881">
        <ele>2735</ele>
        <time>2021-05-09T09:32:54.000Z</time>
      </trkpt>
      <trkpt lat="44.35471" lon="6.86881">
        <ele>2735</ele>
        <time>2021-05-09T09:32:56.000Z</time>
      </trkpt>
      <trkpt lat="44.35471" lon="6.86881">
        <ele>2735</ele>
        <time>2021-05-09T09:32:58.000Z</time>
      </trkpt>
      <trkpt lat="44.35471" lon="6.86881">
        <ele>2735</ele>
        <time>2021-05-09T09:32:59.000Z</time>
      </trkpt>
      <trkpt lat="44.35471" lon="6.86881">
        <ele>2735</ele>
        <time>2021-05-09T09:33:01.000Z</time>
      </trkpt>
      <trkpt lat="44.35471" lon="6.86882">
        <ele>2735</ele>
        <time>2021-05-09T09:33:04.000Z</time>
      </trkpt>
      <trkpt lat="44.35471" lon="6.86882">
        <ele>2735</ele>
        <time>2021-05-09T09:33:07.000Z</time>
      </trkpt>
      <trkpt lat="44.35471" lon="6.86882">
        <ele>2735</ele>
        <time>2021-05-09T09:33:10.000Z</time>
      </trkpt>
      <trkpt lat="44.35471" lon="6.86882">
        <ele>2735</ele>
        <time>2021-05-09T09:33:15.000Z</time>
      </trkpt>
      <trkpt lat="44.35471" lon="6.86883">
        <ele>2735</ele>
        <time>2021-05-09T09:33:17.000Z</time>
      </trkpt>
      <trkpt lat="44.3547" lon="6.86883">
        <ele>2735</ele>
        <time>2021-05-09T09:33:21.000Z</time>
      </trkpt>
      <trkpt lat="44.3547" lon="6.86883">
        <ele>2735</ele>
        <time>2021-05-09T09:33:26.000Z</time>
      </trkpt>
      <trkpt lat="44.3547" lon="6.86883">
        <ele>2735</ele>
        <time>2021-05-09T09:33:30.000Z</time>
      </trkpt>
      <trkpt lat="44.3547" lon="6.86883">
        <ele>2735</ele>
        <time>2021-05-09T09:33:32.000Z</time>
      </trkpt>
      <trkpt lat="44.3547" lon="6.86883">
        <ele>2735</ele>
        <time>2021-05-09T09:33:33.000Z</time>
      </trkpt>
      <trkpt lat="44.3547" lon="6.86883">
        <ele>2735</ele>
        <time>2021-05-09T09:33:34.000Z</time>
      </trkpt>
      <trkpt lat="44.3547" lon="6.86883">
        <ele>2735</ele>
        <time>2021-05-09T09:33:35.000Z</time>
      </trkpt>
      <trkpt lat="44.3547" lon="6.86883">
        <ele>2735</ele>
        <time>2021-05-09T09:33:37.000Z</time>
      </trkpt>
      <trkpt lat="44.3547" lon="6.86883">
        <ele>2735</ele>
        <time>2021-05-09T09:33:39.000Z</time>
      </trkpt>
      <trkpt lat="44.3547" lon="6.86883">
        <ele>2735</ele>
        <time>2021-05-09T09:33:44.000Z</time>
      </trkpt>
      <trkpt lat="44.3547" lon="6.86882">
        <ele>2735</ele>
        <time>2021-05-09T09:33:50.000Z</time>
      </trkpt>
      <trkpt lat="44.3547" lon="6.86883">
        <ele>2735</ele>
        <time>2021-05-09T09:33:56.000Z</time>
      </trkpt>
      <trkpt lat="44.3547" lon="6.86883">
        <ele>2735</ele>
        <time>2021-05-09T09:33:58.000Z</time>
      </trkpt>
      <trkpt lat="44.3547" lon="6.86883">
        <ele>2735</ele>
        <time>2021-05-09T09:34:03.000Z</time>
      </trkpt>
      <trkpt lat="44.35469" lon="6.86883">
        <ele>2735</ele>
        <time>2021-05-09T09:34:05.000Z</time>
      </trkpt>
      <trkpt lat="44.35469" lon="6.86883">
        <ele>2735</ele>
        <time>2021-05-09T09:34:07.000Z</time>
      </trkpt>
      <trkpt lat="44.3547" lon="6.86883">
        <ele>2735</ele>
        <time>2021-05-09T09:34:11.000Z</time>
      </trkpt>
      <trkpt lat="44.3547" lon="6.86883">
        <ele>2735</ele>
        <time>2021-05-09T09:34:12.000Z</time>
      </trkpt>
      <trkpt lat="44.3547" lon="6.86883">
        <ele>2735</ele>
        <time>2021-05-09T09:34:15.000Z</time>
      </trkpt>
      <trkpt lat="44.3547" lon="6.86883">
        <ele>2735</ele>
        <time>2021-05-09T09:34:16.000Z</time>
      </trkpt>
      <trkpt lat="44.3547" lon="6.86883">
        <ele>2735</ele>
        <time>2021-05-09T09:34:19.000Z</time>
      </trkpt>
      <trkpt lat="44.3547" lon="6.86883">
        <ele>2735</ele>
        <time>2021-05-09T09:34:22.000Z</time>
      </trkpt>
      <trkpt lat="44.3547" lon="6.86883">
        <ele>2735</ele>
        <time>2021-05-09T09:34:29.000Z</time>
      </trkpt>
      <trkpt lat="44.3547" lon="6.86883">
        <ele>2735</ele>
        <time>2021-05-09T09:34:34.000Z</time>
      </trkpt>
      <trkpt lat="44.3547" lon="6.86884">
        <ele>2735</ele>
        <time>2021-05-09T09:34:35.000Z</time>
      </trkpt>
      <trkpt lat="44.3547" lon="6.86883">
        <ele>2735</ele>
        <time>2021-05-09T09:34:38.000Z</time>
      </trkpt>
      <trkpt lat="44.3547" lon="6.86883">
        <ele>2735</ele>
        <time>2021-05-09T09:34:39.000Z</time>
      </trkpt>
      <trkpt lat="44.3547" lon="6.86883">
        <ele>2735</ele>
        <time>2021-05-09T09:34:41.000Z</time>
      </trkpt>
      <trkpt lat="44.3547" lon="6.86883">
        <ele>2735</ele>
        <time>2021-05-09T09:34:42.000Z</time>
      </trkpt>
      <trkpt lat="44.3547" lon="6.86883">
        <ele>2735</ele>
        <time>2021-05-09T09:34:45.000Z</time>
      </trkpt>
      <trkpt lat="44.3547" lon="6.86882">
        <ele>2735</ele>
        <time>2021-05-09T09:34:48.000Z</time>
      </trkpt>
      <trkpt lat="44.35469" lon="6.86881">
        <ele>2735</ele>
        <time>2021-05-09T09:34:51.000Z</time>
      </trkpt>
      <trkpt lat="44.35469" lon="6.86881">
        <ele>2735</ele>
        <time>2021-05-09T09:34:53.000Z</time>
      </trkpt>
      <trkpt lat="44.35469" lon="6.8688">
        <ele>2735</ele>
        <time>2021-05-09T09:34:59.000Z</time>
      </trkpt>
      <trkpt lat="44.35469" lon="6.8688">
        <ele>2735</ele>
        <time>2021-05-09T09:35:04.000Z</time>
      </trkpt>
      <trkpt lat="44.35469" lon="6.8688">
        <ele>2735</ele>
        <time>2021-05-09T09:35:07.000Z</time>
      </trkpt>
      <trkpt lat="44.35469" lon="6.86881">
        <ele>2735</ele>
        <time>2021-05-09T09:35:09.000Z</time>
      </trkpt>
      <trkpt lat="44.35469" lon="6.86881">
        <ele>2735</ele>
        <time>2021-05-09T09:35:12.000Z</time>
      </trkpt>
      <trkpt lat="44.35469" lon="6.8688">
        <ele>2735</ele>
        <time>2021-05-09T09:35:19.000Z</time>
      </trkpt>
      <trkpt lat="44.35469" lon="6.8688">
        <ele>2735</ele>
        <time>2021-05-09T09:35:22.000Z</time>
      </trkpt>
      <trkpt lat="44.35469" lon="6.8688">
        <ele>2735</ele>
        <time>2021-05-09T09:35:23.000Z</time>
      </trkpt>
      <trkpt lat="44.35469" lon="6.8688">
        <ele>2735</ele>
        <time>2021-05-09T09:35:24.000Z</time>
      </trkpt>
      <trkpt lat="44.35469" lon="6.8688">
        <ele>2735</ele>
        <time>2021-05-09T09:35:25.000Z</time>
      </trkpt>
      <trkpt lat="44.35469" lon="6.8688">
        <ele>2735</ele>
        <time>2021-05-09T09:35:26.000Z</time>
      </trkpt>
      <trkpt lat="44.35469" lon="6.8688">
        <ele>2735</ele>
        <time>2021-05-09T09:35:28.000Z</time>
      </trkpt>
      <trkpt lat="44.35469" lon="6.8688">
        <ele>2735</ele>
        <time>2021-05-09T09:35:30.000Z</time>
      </trkpt>
      <trkpt lat="44.35469" lon="6.8688">
        <ele>2735</ele>
        <time>2021-05-09T09:35:33.000Z</time>
      </trkpt>
      <trkpt lat="44.35469" lon="6.8688">
        <ele>2735</ele>
        <time>2021-05-09T09:35:38.000Z</time>
      </trkpt>
      <trkpt lat="44.35469" lon="6.8688">
        <ele>2735</ele>
        <time>2021-05-09T09:35:40.000Z</time>
      </trkpt>
      <trkpt lat="44.35469" lon="6.8688">
        <ele>2735</ele>
        <time>2021-05-09T09:35:42.000Z</time>
      </trkpt>
      <trkpt lat="44.35469" lon="6.86881">
        <ele>2735</ele>
        <time>2021-05-09T09:36:04.000Z</time>
      </trkpt>
      <trkpt lat="44.35469" lon="6.86881">
        <ele>2735</ele>
        <time>2021-05-09T09:36:09.000Z</time>
      </trkpt>
      <trkpt lat="44.35469" lon="6.86881">
        <ele>2735</ele>
        <time>2021-05-09T09:36:13.000Z</time>
      </trkpt>
      <trkpt lat="44.35469" lon="6.86881">
        <ele>2735</ele>
        <time>2021-05-09T09:36:15.000Z</time>
      </trkpt>
      <trkpt lat="44.35469" lon="6.86881">
        <ele>2735</ele>
        <time>2021-05-09T09:36:18.000Z</time>
      </trkpt>
      <trkpt lat="44.35469" lon="6.86881">
        <ele>2735</ele>
        <time>2021-05-09T09:36:19.000Z</time>
      </trkpt>
      <trkpt lat="44.35469" lon="6.86882">
        <ele>2735</ele>
        <time>2021-05-09T09:36:22.000Z</time>
      </trkpt>
      <trkpt lat="44.35469" lon="6.86882">
        <ele>2735</ele>
        <time>2021-05-09T09:36:26.000Z</time>
      </trkpt>
      <trkpt lat="44.35469" lon="6.86882">
        <ele>2735</ele>
        <time>2021-05-09T09:36:29.000Z</time>
      </trkpt>
      <trkpt lat="44.3547" lon="6.86882">
        <ele>2735</ele>
        <time>2021-05-09T09:36:44.000Z</time>
      </trkpt>
      <trkpt lat="44.3547" lon="6.86882">
        <ele>2735</ele>
        <time>2021-05-09T09:36:46.000Z</time>
      </trkpt>
      <trkpt lat="44.3547" lon="6.86881">
        <ele>2735</ele>
        <time>2021-05-09T09:36:50.000Z</time>
      </trkpt>
      <trkpt lat="44.3547" lon="6.86881">
        <ele>2735</ele>
        <time>2021-05-09T09:36:52.000Z</time>
      </trkpt>
      <trkpt lat="44.3547" lon="6.86881">
        <ele>2735</ele>
        <time>2021-05-09T09:36:57.000Z</time>
      </trkpt>
      <trkpt lat="44.3547" lon="6.86881">
        <ele>2735</ele>
        <time>2021-05-09T09:37:00.000Z</time>
      </trkpt>
      <trkpt lat="44.3547" lon="6.86881">
        <ele>2735</ele>
        <time>2021-05-09T09:37:07.000Z</time>
      </trkpt>
      <trkpt lat="44.35471" lon="6.86882">
        <ele>2735</ele>
        <time>2021-05-09T09:37:24.000Z</time>
      </trkpt>
      <trkpt lat="44.3547" lon="6.86883">
        <ele>2735</ele>
        <time>2021-05-09T09:37:37.000Z</time>
      </trkpt>
      <trkpt lat="44.3547" lon="6.86883">
        <ele>2735</ele>
        <time>2021-05-09T09:37:42.000Z</time>
      </trkpt>
      <trkpt lat="44.3547" lon="6.86883">
        <ele>2735</ele>
        <time>2021-05-09T09:37:46.000Z</time>
      </trkpt>
      <trkpt lat="44.3547" lon="6.86882">
        <ele>2735</ele>
        <time>2021-05-09T09:37:52.000Z</time>
      </trkpt>
      <trkpt lat="44.35471" lon="6.86882">
        <ele>2735</ele>
        <time>2021-05-09T09:38:03.000Z</time>
      </trkpt>
      <trkpt lat="44.3547" lon="6.86882">
        <ele>2735</ele>
        <time>2021-05-09T09:38:14.000Z</time>
      </trkpt>
      <trkpt lat="44.3547" lon="6.86881">
        <ele>2735</ele>
        <time>2021-05-09T09:38:21.000Z</time>
      </trkpt>
      <trkpt lat="44.3547" lon="6.8688">
        <ele>2735</ele>
        <time>2021-05-09T09:38:39.000Z</time>
      </trkpt>
      <trkpt lat="44.35471" lon="6.8688">
        <ele>2735</ele>
        <time>2021-05-09T09:38:48.000Z</time>
      </trkpt>
      <trkpt lat="44.35471" lon="6.86881">
        <ele>2735</ele>
        <time>2021-05-09T09:38:52.000Z</time>
      </trkpt>
      <trkpt lat="44.35471" lon="6.8688">
        <ele>2735</ele>
        <time>2021-05-09T09:38:55.000Z</time>
      </trkpt>
      <trkpt lat="44.3547" lon="6.86881">
        <ele>2735</ele>
        <time>2021-05-09T09:38:59.000Z</time>
      </trkpt>
      <trkpt lat="44.35471" lon="6.86881">
        <ele>2735</ele>
        <time>2021-05-09T09:39:01.000Z</time>
      </trkpt>
      <trkpt lat="44.35471" lon="6.86881">
        <ele>2735</ele>
        <time>2021-05-09T09:39:04.000Z</time>
      </trkpt>
      <trkpt lat="44.35471" lon="6.86882">
        <ele>2735</ele>
        <time>2021-05-09T09:39:10.000Z</time>
      </trkpt>
      <trkpt lat="44.35471" lon="6.86882">
        <ele>2735</ele>
        <time>2021-05-09T09:39:15.000Z</time>
      </trkpt>
      <trkpt lat="44.3547" lon="6.86882">
        <ele>2735</ele>
        <time>2021-05-09T09:39:19.000Z</time>
      </trkpt>
      <trkpt lat="44.3547" lon="6.86882">
        <ele>2735</ele>
        <time>2021-05-09T09:39:20.000Z</time>
      </trkpt>
      <trkpt lat="44.35471" lon="6.86882">
        <ele>2735</ele>
        <time>2021-05-09T09:39:24.000Z</time>
      </trkpt>
      <trkpt lat="44.3547" lon="6.86882">
        <ele>2735</ele>
        <time>2021-05-09T09:39:26.000Z</time>
      </trkpt>
      <trkpt lat="44.3547" lon="6.86882">
        <ele>2735</ele>
        <time>2021-05-09T09:39:33.000Z</time>
      </trkpt>
      <trkpt lat="44.35471" lon="6.86882">
        <ele>2735</ele>
        <time>2021-05-09T09:39:40.000Z</time>
      </trkpt>
      <trkpt lat="44.35471" lon="6.86883">
        <ele>2735</ele>
        <time>2021-05-09T09:39:53.000Z</time>
      </trkpt>
      <trkpt lat="44.35471" lon="6.86883">
        <ele>2735</ele>
        <time>2021-05-09T09:39:54.000Z</time>
      </trkpt>
      <trkpt lat="44.35471" lon="6.86883">
        <ele>2735</ele>
        <time>2021-05-09T09:39:55.000Z</time>
      </trkpt>
      <trkpt lat="44.3547" lon="6.86883">
        <ele>2735</ele>
        <time>2021-05-09T09:39:57.000Z</time>
      </trkpt>
      <trkpt lat="44.3547" lon="6.86883">
        <ele>2735</ele>
        <time>2021-05-09T09:39:59.000Z</time>
      </trkpt>
      <trkpt lat="44.3547" lon="6.86885">
        <ele>2735</ele>
        <time>2021-05-09T09:40:01.000Z</time>
      </trkpt>
      <trkpt lat="44.35471" lon="6.86885">
        <ele>2735</ele>
        <time>2021-05-09T09:40:02.000Z</time>
      </trkpt>
      <trkpt lat="44.35471" lon="6.86885">
        <ele>2735</ele>
        <time>2021-05-09T09:40:03.000Z</time>
      </trkpt>
      <trkpt lat="44.35471" lon="6.86885">
        <ele>2735</ele>
        <time>2021-05-09T09:40:04.000Z</time>
      </trkpt>
      <trkpt lat="44.3547" lon="6.86885">
        <ele>2735</ele>
        <time>2021-05-09T09:40:05.000Z</time>
      </trkpt>
      <trkpt lat="44.3547" lon="6.86882">
        <ele>2735</ele>
        <time>2021-05-09T09:40:08.000Z</time>
      </trkpt>
      <trkpt lat="44.3547" lon="6.86881">
        <ele>2735</ele>
        <time>2021-05-09T09:40:16.000Z</time>
      </trkpt>
      <trkpt lat="44.3547" lon="6.86881">
        <ele>2735</ele>
        <time>2021-05-09T09:40:26.000Z</time>
      </trkpt>
      <trkpt lat="44.3547" lon="6.86882">
        <ele>2735</ele>
        <time>2021-05-09T09:40:30.000Z</time>
      </trkpt>
      <trkpt lat="44.3547" lon="6.86883">
        <ele>2735</ele>
        <time>2021-05-09T09:40:32.000Z</time>
      </trkpt>
      <trkpt lat="44.35471" lon="6.86883">
        <ele>2735</ele>
        <time>2021-05-09T09:40:35.000Z</time>
      </trkpt>
      <trkpt lat="44.35471" lon="6.86883">
        <ele>2735</ele>
        <time>2021-05-09T09:40:45.000Z</time>
      </trkpt>
      <trkpt lat="44.35471" lon="6.86883">
        <ele>2735</ele>
        <time>2021-05-09T09:40:51.000Z</time>
      </trkpt>
      <trkpt lat="44.35471" lon="6.86884">
        <ele>2735</ele>
        <time>2021-05-09T09:40:55.000Z</time>
      </trkpt>
      <trkpt lat="44.35471" lon="6.86884">
        <ele>2735</ele>
        <time>2021-05-09T09:41:01.000Z</time>
      </trkpt>
      <trkpt lat="44.35471" lon="6.86884">
        <ele>2735</ele>
        <time>2021-05-09T09:41:02.000Z</time>
      </trkpt>
      <trkpt lat="44.35471" lon="6.86884">
        <ele>2735</ele>
        <time>2021-05-09T09:41:03.000Z</time>
      </trkpt>
      <trkpt lat="44.35471" lon="6.86884">
        <ele>2735</ele>
        <time>2021-05-09T09:41:05.000Z</time>
      </trkpt>
      <trkpt lat="44.35471" lon="6.86884">
        <ele>2735</ele>
        <time>2021-05-09T09:41:15.000Z</time>
      </trkpt>
      <trkpt lat="44.35471" lon="6.86884">
        <ele>2735</ele>
        <time>2021-05-09T09:41:17.000Z</time>
      </trkpt>
      <trkpt lat="44.35471" lon="6.86884">
        <ele>2735</ele>
        <time>2021-05-09T09:41:20.000Z</time>
      </trkpt>
      <trkpt lat="44.35471" lon="6.86884">
        <ele>2735</ele>
        <time>2021-05-09T09:41:23.000Z</time>
      </trkpt>
      <trkpt lat="44.35471" lon="6.86884">
        <ele>2735</ele>
        <time>2021-05-09T09:41:24.000Z</time>
      </trkpt>
      <trkpt lat="44.3547" lon="6.86884">
        <ele>2735</ele>
        <time>2021-05-09T09:41:25.000Z</time>
      </trkpt>
      <trkpt lat="44.3547" lon="6.86883">
        <ele>2735</ele>
        <time>2021-05-09T09:41:27.000Z</time>
      </trkpt>
      <trkpt lat="44.3547" lon="6.86883">
        <ele>2735</ele>
        <time>2021-05-09T09:41:29.000Z</time>
      </trkpt>
      <trkpt lat="44.3547" lon="6.86883">
        <ele>2735</ele>
        <time>2021-05-09T09:41:30.000Z</time>
      </trkpt>
      <trkpt lat="44.35471" lon="6.86883">
        <ele>2735</ele>
        <time>2021-05-09T09:41:31.000Z</time>
      </trkpt>
      <trkpt lat="44.35471" lon="6.86883">
        <ele>2735</ele>
        <time>2021-05-09T09:41:32.000Z</time>
      </trkpt>
      <trkpt lat="44.35471" lon="6.86884">
        <ele>2735</ele>
        <time>2021-05-09T09:41:33.000Z</time>
      </trkpt>
      <trkpt lat="44.35471" lon="6.86883">
        <ele>2735</ele>
        <time>2021-05-09T09:41:35.000Z</time>
      </trkpt>
      <trkpt lat="44.35471" lon="6.86883">
        <ele>2735</ele>
        <time>2021-05-09T09:41:38.000Z</time>
      </trkpt>
      <trkpt lat="44.35471" lon="6.86883">
        <ele>2735</ele>
        <time>2021-05-09T09:41:40.000Z</time>
      </trkpt>
      <trkpt lat="44.35471" lon="6.86883">
        <ele>2735</ele>
        <time>2021-05-09T09:41:42.000Z</time>
      </trkpt>
      <trkpt lat="44.35471" lon="6.86884">
        <ele>2735</ele>
        <time>2021-05-09T09:41:45.000Z</time>
      </trkpt>
      <trkpt lat="44.35471" lon="6.86884">
        <ele>2735</ele>
        <time>2021-05-09T09:41:47.000Z</time>
      </trkpt>
      <trkpt lat="44.35471" lon="6.86884">
        <ele>2735</ele>
        <time>2021-05-09T09:41:50.000Z</time>
      </trkpt>
      <trkpt lat="44.35471" lon="6.86884">
        <ele>2735</ele>
        <time>2021-05-09T09:41:51.000Z</time>
      </trkpt>
      <trkpt lat="44.35471" lon="6.86884">
        <ele>2735</ele>
        <time>2021-05-09T09:41:59.000Z</time>
      </trkpt>
      <trkpt lat="44.35471" lon="6.86884">
        <ele>2735</ele>
        <time>2021-05-09T09:42:00.000Z</time>
      </trkpt>
      <trkpt lat="44.35471" lon="6.86884">
        <ele>2735</ele>
        <time>2021-05-09T09:42:08.000Z</time>
      </trkpt>
      <trkpt lat="44.35471" lon="6.86884">
        <ele>2735</ele>
        <time>2021-05-09T09:42:12.000Z</time>
      </trkpt>
      <trkpt lat="44.35471" lon="6.86884">
        <ele>2735</ele>
        <time>2021-05-09T09:42:18.000Z</time>
      </trkpt>
      <trkpt lat="44.35471" lon="6.86884">
        <ele>2735</ele>
        <time>2021-05-09T09:42:21.000Z</time>
      </trkpt>
      <trkpt lat="44.35471" lon="6.86884">
        <ele>2735</ele>
        <time>2021-05-09T09:42:22.000Z</time>
      </trkpt>
      <trkpt lat="44.3547" lon="6.86884">
        <ele>2735</ele>
        <time>2021-05-09T09:42:23.000Z</time>
      </trkpt>
      <trkpt lat="44.3547" lon="6.86884">
        <ele>2735</ele>
        <time>2021-05-09T09:42:25.000Z</time>
      </trkpt>
      <trkpt lat="44.3547" lon="6.86884">
        <ele>2735</ele>
        <time>2021-05-09T09:42:27.000Z</time>
      </trkpt>
      <trkpt lat="44.3547" lon="6.86884">
        <ele>2735</ele>
        <time>2021-05-09T09:42:28.000Z</time>
      </trkpt>
      <trkpt lat="44.3547" lon="6.86884">
        <ele>2735</ele>
        <time>2021-05-09T09:42:30.000Z</time>
      </trkpt>
      <trkpt lat="44.3547" lon="6.86884">
        <ele>2735</ele>
        <time>2021-05-09T09:42:33.000Z</time>
      </trkpt>
      <trkpt lat="44.3547" lon="6.86884">
        <ele>2735</ele>
        <time>2021-05-09T09:42:34.000Z</time>
      </trkpt>
      <trkpt lat="44.3547" lon="6.86884">
        <ele>2735</ele>
        <time>2021-05-09T09:42:37.000Z</time>
      </trkpt>
      <trkpt lat="44.35469" lon="6.86884">
        <ele>2735</ele>
        <time>2021-05-09T09:42:39.000Z</time>
      </trkpt>
      <trkpt lat="44.3547" lon="6.86884">
        <ele>2735</ele>
        <time>2021-05-09T09:42:40.000Z</time>
      </trkpt>
      <trkpt lat="44.3547" lon="6.86884">
        <ele>2735</ele>
        <time>2021-05-09T09:42:42.000Z</time>
      </trkpt>
      <trkpt lat="44.3547" lon="6.86883">
        <ele>2735</ele>
        <time>2021-05-09T09:42:43.000Z</time>
      </trkpt>
      <trkpt lat="44.3547" lon="6.86883">
        <ele>2735</ele>
        <time>2021-05-09T09:42:44.000Z</time>
      </trkpt>
      <trkpt lat="44.3547" lon="6.86883">
        <ele>2735</ele>
        <time>2021-05-09T09:42:47.000Z</time>
      </trkpt>
      <trkpt lat="44.3547" lon="6.86883">
        <ele>2735</ele>
        <time>2021-05-09T09:42:48.000Z</time>
      </trkpt>
      <trkpt lat="44.35469" lon="6.86883">
        <ele>2735</ele>
        <time>2021-05-09T09:42:49.000Z</time>
      </trkpt>
      <trkpt lat="44.35469" lon="6.86882">
        <ele>2735</ele>
        <time>2021-05-09T09:42:51.000Z</time>
      </trkpt>
      <trkpt lat="44.35468" lon="6.86883">
        <ele>2735</ele>
        <time>2021-05-09T09:42:54.000Z</time>
      </trkpt>
      <trkpt lat="44.35468" lon="6.86882">
        <ele>2735</ele>
        <time>2021-05-09T09:42:55.000Z</time>
      </trkpt>
      <trkpt lat="44.35468" lon="6.86882">
        <ele>2735</ele>
        <time>2021-05-09T09:42:56.000Z</time>
      </trkpt>
      <trkpt lat="44.35468" lon="6.86882">
        <ele>2735</ele>
        <time>2021-05-09T09:42:57.000Z</time>
      </trkpt>
      <trkpt lat="44.35468" lon="6.86882">
        <ele>2735</ele>
        <time>2021-05-09T09:43:00.000Z</time>
      </trkpt>
      <trkpt lat="44.35468" lon="6.86883">
        <ele>2735</ele>
        <time>2021-05-09T09:43:04.000Z</time>
      </trkpt>
      <trkpt lat="44.35468" lon="6.86883">
        <ele>2735</ele>
        <time>2021-05-09T09:43:07.000Z</time>
      </trkpt>
      <trkpt lat="44.35468" lon="6.86883">
        <ele>2735</ele>
        <time>2021-05-09T09:43:11.000Z</time>
      </trkpt>
      <trkpt lat="44.35469" lon="6.86883">
        <ele>2735</ele>
        <time>2021-05-09T09:43:13.000Z</time>
      </trkpt>
      <trkpt lat="44.35469" lon="6.86883">
        <ele>2735</ele>
        <time>2021-05-09T09:43:14.000Z</time>
      </trkpt>
      <trkpt lat="44.35469" lon="6.86883">
        <ele>2735</ele>
        <time>2021-05-09T09:43:20.000Z</time>
      </trkpt>
      <trkpt lat="44.35469" lon="6.86883">
        <ele>2735</ele>
        <time>2021-05-09T09:43:24.000Z</time>
      </trkpt>
      <trkpt lat="44.35471" lon="6.86882">
        <ele>2735</ele>
        <time>2021-05-09T09:43:29.000Z</time>
      </trkpt>
      <trkpt lat="44.35471" lon="6.86881">
        <ele>2735</ele>
        <time>2021-05-09T09:43:30.000Z</time>
      </trkpt>
      <trkpt lat="44.35471" lon="6.86881">
        <ele>2735</ele>
        <time>2021-05-09T09:43:34.000Z</time>
      </trkpt>
      <trkpt lat="44.35472" lon="6.86881">
        <ele>2735</ele>
        <time>2021-05-09T09:43:36.000Z</time>
      </trkpt>
      <trkpt lat="44.35472" lon="6.86882">
        <ele>2735</ele>
        <time>2021-05-09T09:43:39.000Z</time>
      </trkpt>
      <trkpt lat="44.35472" lon="6.86882">
        <ele>2735</ele>
        <time>2021-05-09T09:43:40.000Z</time>
      </trkpt>
      <trkpt lat="44.35471" lon="6.86883">
        <ele>2735</ele>
        <time>2021-05-09T09:43:50.000Z</time>
      </trkpt>
      <trkpt lat="44.35471" lon="6.86883">
        <ele>2735</ele>
        <time>2021-05-09T09:43:53.000Z</time>
      </trkpt>
      <trkpt lat="44.35471" lon="6.86883">
        <ele>2735</ele>
        <time>2021-05-09T09:43:57.000Z</time>
      </trkpt>
      <trkpt lat="44.35471" lon="6.86883">
        <ele>2735</ele>
        <time>2021-05-09T09:43:58.000Z</time>
      </trkpt>
      <trkpt lat="44.35472" lon="6.86883">
        <ele>2735</ele>
        <time>2021-05-09T09:43:59.000Z</time>
      </trkpt>
      <trkpt lat="44.35472" lon="6.86883">
        <ele>2735</ele>
        <time>2021-05-09T09:44:01.000Z</time>
      </trkpt>
      <trkpt lat="44.35472" lon="6.86883">
        <ele>2735</ele>
        <time>2021-05-09T09:44:02.000Z</time>
      </trkpt>
      <trkpt lat="44.35472" lon="6.86883">
        <ele>2735</ele>
        <time>2021-05-09T09:44:04.000Z</time>
      </trkpt>
      <trkpt lat="44.35472" lon="6.86883">
        <ele>2735</ele>
        <time>2021-05-09T09:44:06.000Z</time>
      </trkpt>
      <trkpt lat="44.35472" lon="6.86883">
        <ele>2735</ele>
        <time>2021-05-09T09:44:09.000Z</time>
      </trkpt>
      <trkpt lat="44.35472" lon="6.86883">
        <ele>2735</ele>
        <time>2021-05-09T09:44:10.000Z</time>
      </trkpt>
      <trkpt lat="44.35472" lon="6.86883">
        <ele>2735</ele>
        <time>2021-05-09T09:44:12.000Z</time>
      </trkpt>
      <trkpt lat="44.35472" lon="6.86883">
        <ele>2735</ele>
        <time>2021-05-09T09:44:13.000Z</time>
      </trkpt>
      <trkpt lat="44.35472" lon="6.86883">
        <ele>2735</ele>
        <time>2021-05-09T09:44:15.000Z</time>
      </trkpt>
      <trkpt lat="44.35472" lon="6.86883">
        <ele>2735</ele>
        <time>2021-05-09T09:44:16.000Z</time>
      </trkpt>
      <trkpt lat="44.35472" lon="6.86883">
        <ele>2735</ele>
        <time>2021-05-09T09:44:17.000Z</time>
      </trkpt>
      <trkpt lat="44.35472" lon="6.86884">
        <ele>2735</ele>
        <time>2021-05-09T09:44:20.000Z</time>
      </trkpt>
      <trkpt lat="44.35472" lon="6.86884">
        <ele>2735</ele>
        <time>2021-05-09T09:44:24.000Z</time>
      </trkpt>
      <trkpt lat="44.35472" lon="6.86884">
        <ele>2735</ele>
        <time>2021-05-09T09:44:26.000Z</time>
      </trkpt>
      <trkpt lat="44.35472" lon="6.86883">
        <ele>2735</ele>
        <time>2021-05-09T09:44:30.000Z</time>
      </trkpt>
      <trkpt lat="44.35471" lon="6.86883">
        <ele>2735</ele>
        <time>2021-05-09T09:44:34.000Z</time>
      </trkpt>
      <trkpt lat="44.35471" lon="6.86883">
        <ele>2735</ele>
        <time>2021-05-09T09:44:37.000Z</time>
      </trkpt>
      <trkpt lat="44.35471" lon="6.86883">
        <ele>2735</ele>
        <time>2021-05-09T09:44:42.000Z</time>
      </trkpt>
      <trkpt lat="44.35471" lon="6.86883">
        <ele>2735</ele>
        <time>2021-05-09T09:44:43.000Z</time>
      </trkpt>
      <trkpt lat="44.35471" lon="6.86883">
        <ele>2735</ele>
        <time>2021-05-09T09:44:46.000Z</time>
      </trkpt>
      <trkpt lat="44.35472" lon="6.86883">
        <ele>2735</ele>
        <time>2021-05-09T09:44:50.000Z</time>
      </trkpt>
      <trkpt lat="44.35472" lon="6.86882">
        <ele>2735</ele>
        <time>2021-05-09T09:44:52.000Z</time>
      </trkpt>
      <trkpt lat="44.35471" lon="6.86882">
        <ele>2735</ele>
        <time>2021-05-09T09:44:55.000Z</time>
      </trkpt>
      <trkpt lat="44.35472" lon="6.86882">
        <ele>2735</ele>
        <time>2021-05-09T09:44:56.000Z</time>
      </trkpt>
      <trkpt lat="44.35472" lon="6.86881">
        <ele>2735</ele>
        <time>2021-05-09T09:44:57.000Z</time>
      </trkpt>
      <trkpt lat="44.35472" lon="6.86881">
        <ele>2735</ele>
        <time>2021-05-09T09:44:59.000Z</time>
      </trkpt>
      <trkpt lat="44.35472" lon="6.86881">
        <ele>2735</ele>
        <time>2021-05-09T09:45:00.000Z</time>
      </trkpt>
      <trkpt lat="44.35472" lon="6.86882">
        <ele>2735</ele>
        <time>2021-05-09T09:45:05.000Z</time>
      </trkpt>
      <trkpt lat="44.35471" lon="6.86883">
        <ele>2735</ele>
        <time>2021-05-09T09:45:09.000Z</time>
      </trkpt>
      <trkpt lat="44.3547" lon="6.86884">
        <ele>2735</ele>
        <time>2021-05-09T09:45:12.000Z</time>
      </trkpt>
      <trkpt lat="44.3547" lon="6.86884">
        <ele>2735</ele>
        <time>2021-05-09T09:45:14.000Z</time>
      </trkpt>
      <trkpt lat="44.3547" lon="6.86884">
        <ele>2735</ele>
        <time>2021-05-09T09:45:24.000Z</time>
      </trkpt>
      <trkpt lat="44.3547" lon="6.86884">
        <ele>2735</ele>
        <time>2021-05-09T09:45:25.000Z</time>
      </trkpt>
      <trkpt lat="44.3547" lon="6.86884">
        <ele>2735</ele>
        <time>2021-05-09T09:45:27.000Z</time>
      </trkpt>
      <trkpt lat="44.3547" lon="6.86883">
        <ele>2735</ele>
        <time>2021-05-09T09:45:29.000Z</time>
      </trkpt>
      <trkpt lat="44.3547" lon="6.86883">
        <ele>2735</ele>
        <time>2021-05-09T09:45:40.000Z</time>
      </trkpt>
      <trkpt lat="44.3547" lon="6.86883">
        <ele>2735</ele>
        <time>2021-05-09T09:45:41.000Z</time>
      </trkpt>
      <trkpt lat="44.3547" lon="6.86883">
        <ele>2735</ele>
        <time>2021-05-09T09:45:44.000Z</time>
      </trkpt>
      <trkpt lat="44.3547" lon="6.86883">
        <ele>2735</ele>
        <time>2021-05-09T09:45:50.000Z</time>
      </trkpt>
      <trkpt lat="44.3547" lon="6.86883">
        <ele>2735</ele>
        <time>2021-05-09T09:45:53.000Z</time>
      </trkpt>
      <trkpt lat="44.3547" lon="6.86883">
        <ele>2735</ele>
        <time>2021-05-09T09:45:55.000Z</time>
      </trkpt>
      <trkpt lat="44.3547" lon="6.86883">
        <ele>2735</ele>
        <time>2021-05-09T09:45:59.000Z</time>
      </trkpt>
      <trkpt lat="44.3547" lon="6.86883">
        <ele>2735</ele>
        <time>2021-05-09T09:46:01.000Z</time>
      </trkpt>
      <trkpt lat="44.3547" lon="6.86883">
        <ele>2735</ele>
        <time>2021-05-09T09:46:02.000Z</time>
      </trkpt>
      <trkpt lat="44.3547" lon="6.86883">
        <ele>2735</ele>
        <time>2021-05-09T09:46:07.000Z</time>
      </trkpt>
      <trkpt lat="44.3547" lon="6.86883">
        <ele>2735</ele>
        <time>2021-05-09T09:46:13.000Z</time>
      </trkpt>
      <trkpt lat="44.3547" lon="6.86884">
        <ele>2735</ele>
        <time>2021-05-09T09:46:15.000Z</time>
      </trkpt>
      <trkpt lat="44.3547" lon="6.86884">
        <ele>2735</ele>
        <time>2021-05-09T09:46:17.000Z</time>
      </trkpt>
      <trkpt lat="44.35471" lon="6.86883">
        <ele>2735</ele>
        <time>2021-05-09T09:46:26.000Z</time>
      </trkpt>
      <trkpt lat="44.35472" lon="6.86883">
        <ele>2735</ele>
        <time>2021-05-09T09:46:29.000Z</time>
      </trkpt>
      <trkpt lat="44.3547" lon="6.86885">
        <ele>2735</ele>
        <time>2021-05-09T09:46:36.000Z</time>
      </trkpt>
      <trkpt lat="44.35471" lon="6.86885">
        <ele>2735</ele>
        <time>2021-05-09T09:46:42.000Z</time>
      </trkpt>
      <trkpt lat="44.3547" lon="6.86884">
        <ele>2735</ele>
        <time>2021-05-09T09:46:49.000Z</time>
      </trkpt>
      <trkpt lat="44.35469" lon="6.86884">
        <ele>2735</ele>
        <time>2021-05-09T09:46:51.000Z</time>
      </trkpt>
      <trkpt lat="44.35469" lon="6.86884">
        <ele>2735</ele>
        <time>2021-05-09T09:46:52.000Z</time>
      </trkpt>
      <trkpt lat="44.3547" lon="6.86885">
        <ele>2735</ele>
        <time>2021-05-09T09:46:53.000Z</time>
      </trkpt>
      <trkpt lat="44.35469" lon="6.86885">
        <ele>2735</ele>
        <time>2021-05-09T09:46:54.000Z</time>
      </trkpt>
      <trkpt lat="44.3547" lon="6.86887">
        <ele>2735</ele>
        <time>2021-05-09T09:46:57.000Z</time>
      </trkpt>
      <trkpt lat="44.35471" lon="6.86885">
        <ele>2735</ele>
        <time>2021-05-09T09:47:11.000Z</time>
      </trkpt>
      <trkpt lat="44.35471" lon="6.86885">
        <ele>2735</ele>
        <time>2021-05-09T09:47:15.000Z</time>
      </trkpt>
      <trkpt lat="44.35471" lon="6.86885">
        <ele>2735</ele>
        <time>2021-05-09T09:47:21.000Z</time>
      </trkpt>
      <trkpt lat="44.35471" lon="6.86885">
        <ele>2735</ele>
        <time>2021-05-09T09:47:24.000Z</time>
      </trkpt>
      <trkpt lat="44.35471" lon="6.86885">
        <ele>2735</ele>
        <time>2021-05-09T09:47:25.000Z</time>
      </trkpt>
      <trkpt lat="44.35471" lon="6.86885">
        <ele>2735</ele>
        <time>2021-05-09T09:47:26.000Z</time>
      </trkpt>
      <trkpt lat="44.35471" lon="6.86885">
        <ele>2735</ele>
        <time>2021-05-09T09:47:28.000Z</time>
      </trkpt>
      <trkpt lat="44.35471" lon="6.86884">
        <ele>2735</ele>
        <time>2021-05-09T09:47:30.000Z</time>
      </trkpt>
      <trkpt lat="44.35471" lon="6.86883">
        <ele>2735</ele>
        <time>2021-05-09T09:47:32.000Z</time>
      </trkpt>
      <trkpt lat="44.35472" lon="6.8688">
        <ele>2735</ele>
        <time>2021-05-09T09:47:37.000Z</time>
      </trkpt>
      <trkpt lat="44.35472" lon="6.8688">
        <ele>2735</ele>
        <time>2021-05-09T09:47:38.000Z</time>
      </trkpt>
      <trkpt lat="44.35472" lon="6.8688">
        <ele>2735</ele>
        <time>2021-05-09T09:47:39.000Z</time>
      </trkpt>
      <trkpt lat="44.35472" lon="6.86881">
        <ele>2739</ele>
        <time>2021-05-09T09:47:40.000Z</time>
      </trkpt>
      <trkpt lat="44.35472" lon="6.86882">
        <ele>2737.8000488281</ele>
        <time>2021-05-09T09:47:42.000Z</time>
      </trkpt>
      <trkpt lat="44.35472" lon="6.86882">
        <ele>2737.8000488281</ele>
        <time>2021-05-09T09:47:46.000Z</time>
      </trkpt>
      <trkpt lat="44.35472" lon="6.86883">
        <ele>2738.1999511719</ele>
        <time>2021-05-09T09:47:54.000Z</time>
      </trkpt>
      <trkpt lat="44.35472" lon="6.86884">
        <ele>2738</ele>
        <time>2021-05-09T09:47:55.000Z</time>
      </trkpt>
      <trkpt lat="44.35471" lon="6.86886">
        <ele>2737.8000488281</ele>
        <time>2021-05-09T09:47:58.000Z</time>
      </trkpt>
      <trkpt lat="44.35472" lon="6.86886">
        <ele>2737.3999023438</ele>
        <time>2021-05-09T09:48:04.000Z</time>
      </trkpt>
      <trkpt lat="44.35472" lon="6.86885">
        <ele>2736.8000488281</ele>
        <time>2021-05-09T09:48:06.000Z</time>
      </trkpt>
      <trkpt lat="44.35472" lon="6.86884">
        <ele>2736.1999511719</ele>
        <time>2021-05-09T09:48:11.000Z</time>
      </trkpt>
      <trkpt lat="44.35472" lon="6.86884">
        <ele>2736</ele>
        <time>2021-05-09T09:48:17.000Z</time>
      </trkpt>
      <trkpt lat="44.35471" lon="6.86884">
        <ele>2734.8000488281</ele>
        <time>2021-05-09T09:48:18.000Z</time>
      </trkpt>
      <trkpt lat="44.35471" lon="6.86884">
        <ele>2734.1999511719</ele>
        <time>2021-05-09T09:48:20.000Z</time>
      </trkpt>
      <trkpt lat="44.35471" lon="6.86884">
        <ele>2733.3999023438</ele>
        <time>2021-05-09T09:48:22.000Z</time>
      </trkpt>
      <trkpt lat="44.35471" lon="6.86886">
        <ele>2733</ele>
        <time>2021-05-09T09:48:24.000Z</time>
      </trkpt>
      <trkpt lat="44.35471" lon="6.86886">
        <ele>2733</ele>
        <time>2021-05-09T09:48:25.000Z</time>
      </trkpt>
      <trkpt lat="44.35471" lon="6.86886">
        <ele>2733</ele>
        <time>2021-05-09T09:48:26.000Z</time>
      </trkpt>
      <trkpt lat="44.35471" lon="6.86886">
        <ele>2732.8000488281</ele>
        <time>2021-05-09T09:48:27.000Z</time>
      </trkpt>
      <trkpt lat="44.35471" lon="6.86886">
        <ele>2732.6000976562</ele>
        <time>2021-05-09T09:48:28.000Z</time>
      </trkpt>
      <trkpt lat="44.35471" lon="6.86887">
        <ele>2732.3999023438</ele>
        <time>2021-05-09T09:48:30.000Z</time>
      </trkpt>
      <trkpt lat="44.35471" lon="6.86888">
        <ele>2732.3999023438</ele>
        <time>2021-05-09T09:48:31.000Z</time>
      </trkpt>
      <trkpt lat="44.3547" lon="6.86889">
        <ele>2732.6000976562</ele>
        <time>2021-05-09T09:48:39.000Z</time>
      </trkpt>
      <trkpt lat="44.35471" lon="6.8689">
        <ele>2732.1999511719</ele>
        <time>2021-05-09T09:48:45.000Z</time>
      </trkpt>
      <trkpt lat="44.35471" lon="6.8689">
        <ele>2732.1999511719</ele>
        <time>2021-05-09T09:48:47.000Z</time>
      </trkpt>
      <trkpt lat="44.35471" lon="6.8689">
        <ele>2732.1999511719</ele>
        <time>2021-05-09T09:48:48.000Z</time>
      </trkpt>
      <trkpt lat="44.35471" lon="6.8689">
        <ele>2732.1999511719</ele>
        <time>2021-05-09T09:48:49.000Z</time>
      </trkpt>
      <trkpt lat="44.35471" lon="6.8689">
        <ele>2732.1999511719</ele>
        <time>2021-05-09T09:48:51.000Z</time>
      </trkpt>
      <trkpt lat="44.35471" lon="6.86889">
        <ele>2732</ele>
        <time>2021-05-09T09:48:53.000Z</time>
      </trkpt>
      <trkpt lat="44.3547" lon="6.86889">
        <ele>2732</ele>
        <time>2021-05-09T09:48:54.000Z</time>
      </trkpt>
      <trkpt lat="44.3547" lon="6.86888">
        <ele>2731.8000488281</ele>
        <time>2021-05-09T09:48:57.000Z</time>
      </trkpt>
      <trkpt lat="44.3547" lon="6.86888">
        <ele>2731.8000488281</ele>
        <time>2021-05-09T09:48:58.000Z</time>
      </trkpt>
      <trkpt lat="44.3547" lon="6.86888">
        <ele>2731.8000488281</ele>
        <time>2021-05-09T09:49:02.000Z</time>
      </trkpt>
      <trkpt lat="44.3547" lon="6.86887">
        <ele>2731.6000976562</ele>
        <time>2021-05-09T09:49:05.000Z</time>
      </trkpt>
      <trkpt lat="44.3547" lon="6.86887">
        <ele>2731.6000976562</ele>
        <time>2021-05-09T09:49:08.000Z</time>
      </trkpt>
      <trkpt lat="44.3547" lon="6.86887">
        <ele>2731.6000976562</ele>
        <time>2021-05-09T09:49:09.000Z</time>
      </trkpt>
      <trkpt lat="44.3547" lon="6.86887">
        <ele>2731.8000488281</ele>
        <time>2021-05-09T09:49:12.000Z</time>
      </trkpt>
      <trkpt lat="44.3547" lon="6.86887">
        <ele>2731.8000488281</ele>
        <time>2021-05-09T09:49:13.000Z</time>
      </trkpt>
      <trkpt lat="44.3547" lon="6.86886">
        <ele>2731.8000488281</ele>
        <time>2021-05-09T09:49:14.000Z</time>
      </trkpt>
      <trkpt lat="44.35471" lon="6.86886">
        <ele>2731.8000488281</ele>
        <time>2021-05-09T09:49:15.000Z</time>
      </trkpt>
      <trkpt lat="44.35471" lon="6.86885">
        <ele>2731.8000488281</ele>
        <time>2021-05-09T09:49:18.000Z</time>
      </trkpt>
      <trkpt lat="44.35471" lon="6.86884">
        <ele>2731.8000488281</ele>
        <time>2021-05-09T09:49:19.000Z</time>
      </trkpt>
      <trkpt lat="44.35471" lon="6.86884">
        <ele>2731.8000488281</ele>
        <time>2021-05-09T09:49:20.000Z</time>
      </trkpt>
      <trkpt lat="44.35471" lon="6.86884">
        <ele>2731.8000488281</ele>
        <time>2021-05-09T09:49:22.000Z</time>
      </trkpt>
      <trkpt lat="44.3547" lon="6.86885">
        <ele>2731.8000488281</ele>
        <time>2021-05-09T09:49:23.000Z</time>
      </trkpt>
      <trkpt lat="44.3547" lon="6.86885">
        <ele>2732</ele>
        <time>2021-05-09T09:49:24.000Z</time>
      </trkpt>
      <trkpt lat="44.3547" lon="6.86885">
        <ele>2732</ele>
        <time>2021-05-09T09:49:26.000Z</time>
      </trkpt>
      <trkpt lat="44.3547" lon="6.86886">
        <ele>2732</ele>
        <time>2021-05-09T09:49:28.000Z</time>
      </trkpt>
      <trkpt lat="44.3547" lon="6.86887">
        <ele>2732</ele>
        <time>2021-05-09T09:49:32.000Z</time>
      </trkpt>
      <trkpt lat="44.3547" lon="6.86887">
        <ele>2732</ele>
        <time>2021-05-09T09:49:33.000Z</time>
      </trkpt>
      <trkpt lat="44.3547" lon="6.86887">
        <ele>2732</ele>
        <time>2021-05-09T09:49:34.000Z</time>
      </trkpt>
      <trkpt lat="44.35469" lon="6.86888">
        <ele>2732</ele>
        <time>2021-05-09T09:49:39.000Z</time>
      </trkpt>
      <trkpt lat="44.35469" lon="6.86885">
        <ele>2732.1999511719</ele>
        <time>2021-05-09T09:49:41.000Z</time>
      </trkpt>
      <trkpt lat="44.3547" lon="6.8688">
        <ele>2732.8000488281</ele>
        <time>2021-05-09T09:49:46.000Z</time>
      </trkpt>
      <trkpt lat="44.35471" lon="6.86878">
        <ele>2732.8000488281</ele>
        <time>2021-05-09T09:49:55.000Z</time>
      </trkpt>
      <trkpt lat="44.35471" lon="6.86878">
        <ele>2732.8000488281</ele>
        <time>2021-05-09T09:49:57.000Z</time>
      </trkpt>
      <trkpt lat="44.35471" lon="6.86879">
        <ele>2732.8000488281</ele>
        <time>2021-05-09T09:49:59.000Z</time>
      </trkpt>
      <trkpt lat="44.35471" lon="6.86879">
        <ele>2732.8000488281</ele>
        <time>2021-05-09T09:50:01.000Z</time>
      </trkpt>
      <trkpt lat="44.35471" lon="6.86879">
        <ele>2732.8000488281</ele>
        <time>2021-05-09T09:50:04.000Z</time>
      </trkpt>
      <trkpt lat="44.3547" lon="6.86879">
        <ele>2732.8000488281</ele>
        <time>2021-05-09T09:50:05.000Z</time>
      </trkpt>
      <trkpt lat="44.3547" lon="6.86879">
        <ele>2732.8000488281</ele>
        <time>2021-05-09T09:50:06.000Z</time>
      </trkpt>
      <trkpt lat="44.3547" lon="6.8688">
        <ele>2732.8000488281</ele>
        <time>2021-05-09T09:50:08.000Z</time>
      </trkpt>
      <trkpt lat="44.3547" lon="6.8688">
        <ele>2732.8000488281</ele>
        <time>2021-05-09T09:50:12.000Z</time>
      </trkpt>
      <trkpt lat="44.3547" lon="6.8688">
        <ele>2732.8000488281</ele>
        <time>2021-05-09T09:50:14.000Z</time>
      </trkpt>
      <trkpt lat="44.3547" lon="6.8688">
        <ele>2732.8000488281</ele>
        <time>2021-05-09T09:50:16.000Z</time>
      </trkpt>
      <trkpt lat="44.3547" lon="6.8688">
        <ele>2732.8000488281</ele>
        <time>2021-05-09T09:50:17.000Z</time>
      </trkpt>
      <trkpt lat="44.3547" lon="6.86882">
        <ele>2732.8000488281</ele>
        <time>2021-05-09T09:50:22.000Z</time>
      </trkpt>
      <trkpt lat="44.3547" lon="6.86882">
        <ele>2732.8000488281</ele>
        <time>2021-05-09T09:50:23.000Z</time>
      </trkpt>
      <trkpt lat="44.3547" lon="6.86882">
        <ele>2732.8000488281</ele>
        <time>2021-05-09T09:50:26.000Z</time>
      </trkpt>
      <trkpt lat="44.3547" lon="6.86882">
        <ele>2732.8000488281</ele>
        <time>2021-05-09T09:50:28.000Z</time>
      </trkpt>
      <trkpt lat="44.3547" lon="6.86882">
        <ele>2732.8000488281</ele>
        <time>2021-05-09T09:50:32.000Z</time>
      </trkpt>
      <trkpt lat="44.3547" lon="6.86883">
        <ele>2732.8000488281</ele>
        <time>2021-05-09T09:50:37.000Z</time>
      </trkpt>
      <trkpt lat="44.3547" lon="6.86884">
        <ele>2732.8000488281</ele>
        <time>2021-05-09T09:50:39.000Z</time>
      </trkpt>
      <trkpt lat="44.3547" lon="6.86885">
        <ele>2732.8000488281</ele>
        <time>2021-05-09T09:50:48.000Z</time>
      </trkpt>
      <trkpt lat="44.35469" lon="6.86886">
        <ele>2732.8000488281</ele>
        <time>2021-05-09T09:50:51.000Z</time>
      </trkpt>
      <trkpt lat="44.35469" lon="6.86886">
        <ele>2732.8000488281</ele>
        <time>2021-05-09T09:50:55.000Z</time>
      </trkpt>
      <trkpt lat="44.3547" lon="6.86885">
        <ele>2732.8000488281</ele>
        <time>2021-05-09T09:51:01.000Z</time>
      </trkpt>
      <trkpt lat="44.3547" lon="6.86885">
        <ele>2732.8000488281</ele>
        <time>2021-05-09T09:51:02.000Z</time>
      </trkpt>
      <trkpt lat="44.3547" lon="6.86885">
        <ele>2732.8000488281</ele>
        <time>2021-05-09T09:51:03.000Z</time>
      </trkpt>
      <trkpt lat="44.3547" lon="6.86885">
        <ele>2732.8000488281</ele>
        <time>2021-05-09T09:51:05.000Z</time>
      </trkpt>
      <trkpt lat="44.3547" lon="6.86885">
        <ele>2732.8000488281</ele>
        <time>2021-05-09T09:51:06.000Z</time>
      </trkpt>
      <trkpt lat="44.3547" lon="6.86885">
        <ele>2732.8000488281</ele>
        <time>2021-05-09T09:51:12.000Z</time>
      </trkpt>
      <trkpt lat="44.3547" lon="6.86885">
        <ele>2732.8000488281</ele>
        <time>2021-05-09T09:51:16.000Z</time>
      </trkpt>
      <trkpt lat="44.3547" lon="6.86885">
        <ele>2732.8000488281</ele>
        <time>2021-05-09T09:51:17.000Z</time>
      </trkpt>
      <trkpt lat="44.35471" lon="6.86885">
        <ele>2732.8000488281</ele>
        <time>2021-05-09T09:51:20.000Z</time>
      </trkpt>
      <trkpt lat="44.35471" lon="6.86886">
        <ele>2732.8000488281</ele>
        <time>2021-05-09T09:51:21.000Z</time>
      </trkpt>
      <trkpt lat="44.35471" lon="6.86885">
        <ele>2732.8000488281</ele>
        <time>2021-05-09T09:51:26.000Z</time>
      </trkpt>
      <trkpt lat="44.35471" lon="6.86885">
        <ele>2732.8000488281</ele>
        <time>2021-05-09T09:51:34.000Z</time>
      </trkpt>
      <trkpt lat="44.35471" lon="6.86881">
        <ele>2732.8000488281</ele>
        <time>2021-05-09T09:51:40.000Z</time>
      </trkpt>
      <trkpt lat="44.3547" lon="6.8688">
        <ele>2732.8000488281</ele>
        <time>2021-05-09T09:51:44.000Z</time>
      </trkpt>
      <trkpt lat="44.3547" lon="6.86879">
        <ele>2732.8000488281</ele>
        <time>2021-05-09T09:51:47.000Z</time>
      </trkpt>
      <trkpt lat="44.3547" lon="6.86879">
        <ele>2732.8000488281</ele>
        <time>2021-05-09T09:51:49.000Z</time>
      </trkpt>
      <trkpt lat="44.3547" lon="6.86879">
        <ele>2732.8000488281</ele>
        <time>2021-05-09T09:51:53.000Z</time>
      </trkpt>
      <trkpt lat="44.3547" lon="6.86879">
        <ele>2732.8000488281</ele>
        <time>2021-05-09T09:51:55.000Z</time>
      </trkpt>
      <trkpt lat="44.3547" lon="6.8688">
        <ele>2732.8000488281</ele>
        <time>2021-05-09T09:52:01.000Z</time>
      </trkpt>
      <trkpt lat="44.3547" lon="6.8688">
        <ele>2732.8000488281</ele>
        <time>2021-05-09T09:52:05.000Z</time>
      </trkpt>
      <trkpt lat="44.35469" lon="6.86881">
        <ele>2732.8000488281</ele>
        <time>2021-05-09T09:52:08.000Z</time>
      </trkpt>
      <trkpt lat="44.35469" lon="6.86881">
        <ele>2732.8000488281</ele>
        <time>2021-05-09T09:52:10.000Z</time>
      </trkpt>
      <trkpt lat="44.35469" lon="6.86882">
        <ele>2732.8000488281</ele>
        <time>2021-05-09T09:52:13.000Z</time>
      </trkpt>
      <trkpt lat="44.35469" lon="6.86882">
        <ele>2732.8000488281</ele>
        <time>2021-05-09T09:52:14.000Z</time>
      </trkpt>
      <trkpt lat="44.35468" lon="6.86886">
        <ele>2732.8000488281</ele>
        <time>2021-05-09T09:52:19.000Z</time>
      </trkpt>
      <trkpt lat="44.35466" lon="6.86883">
        <ele>2732.8000488281</ele>
        <time>2021-05-09T09:52:26.000Z</time>
      </trkpt>
      <trkpt lat="44.35467" lon="6.86883">
        <ele>2732.8000488281</ele>
        <time>2021-05-09T09:52:30.000Z</time>
      </trkpt>
      <trkpt lat="44.35467" lon="6.86882">
        <ele>2732.8000488281</ele>
        <time>2021-05-09T09:52:35.000Z</time>
      </trkpt>
      <trkpt lat="44.35468" lon="6.86883">
        <ele>2732.8000488281</ele>
        <time>2021-05-09T09:52:41.000Z</time>
      </trkpt>
      <trkpt lat="44.35468" lon="6.86884">
        <ele>2732.8000488281</ele>
        <time>2021-05-09T09:52:44.000Z</time>
      </trkpt>
      <trkpt lat="44.35469" lon="6.86888">
        <ele>2732.8000488281</ele>
        <time>2021-05-09T09:52:50.000Z</time>
      </trkpt>
      <trkpt lat="44.35469" lon="6.86887">
        <ele>2732.8000488281</ele>
        <time>2021-05-09T09:52:52.000Z</time>
      </trkpt>
      <trkpt lat="44.35469" lon="6.86887">
        <ele>2732.8000488281</ele>
        <time>2021-05-09T09:52:53.000Z</time>
      </trkpt>
      <trkpt lat="44.35469" lon="6.86888">
        <ele>2732.8000488281</ele>
        <time>2021-05-09T09:52:54.000Z</time>
      </trkpt>
      <trkpt lat="44.35469" lon="6.86888">
        <ele>2732.8000488281</ele>
        <time>2021-05-09T09:52:55.000Z</time>
      </trkpt>
      <trkpt lat="44.35469" lon="6.8689">
        <ele>2732.8000488281</ele>
        <time>2021-05-09T09:52:57.000Z</time>
      </trkpt>
      <trkpt lat="44.3547" lon="6.86895">
        <ele>2732.8000488281</ele>
        <time>2021-05-09T09:53:00.000Z</time>
      </trkpt>
      <trkpt lat="44.35471" lon="6.869">
        <ele>2732.8000488281</ele>
        <time>2021-05-09T09:53:05.000Z</time>
      </trkpt>
      <trkpt lat="44.3547" lon="6.869">
        <ele>2732.8000488281</ele>
        <time>2021-05-09T09:53:09.000Z</time>
      </trkpt>
      <trkpt lat="44.3547" lon="6.869">
        <ele>2732.8000488281</ele>
        <time>2021-05-09T09:53:11.000Z</time>
      </trkpt>
      <trkpt lat="44.3547" lon="6.869">
        <ele>2732.8000488281</ele>
        <time>2021-05-09T09:53:12.000Z</time>
      </trkpt>
      <trkpt lat="44.3547" lon="6.869">
        <ele>2732.8000488281</ele>
        <time>2021-05-09T09:53:13.000Z</time>
      </trkpt>
      <trkpt lat="44.3547" lon="6.869">
        <ele>2732.8000488281</ele>
        <time>2021-05-09T09:53:17.000Z</time>
      </trkpt>
      <trkpt lat="44.3547" lon="6.86898">
        <ele>2732.8000488281</ele>
        <time>2021-05-09T09:53:19.000Z</time>
      </trkpt>
      <trkpt lat="44.3547" lon="6.86898">
        <ele>2732.8000488281</ele>
        <time>2021-05-09T09:53:21.000Z</time>
      </trkpt>
      <trkpt lat="44.3547" lon="6.86897">
        <ele>2732.8000488281</ele>
        <time>2021-05-09T09:53:24.000Z</time>
      </trkpt>
      <trkpt lat="44.3547" lon="6.86894">
        <ele>2732.8000488281</ele>
        <time>2021-05-09T09:53:27.000Z</time>
      </trkpt>
      <trkpt lat="44.3547" lon="6.86893">
        <ele>2732.8000488281</ele>
        <time>2021-05-09T09:53:34.000Z</time>
      </trkpt>
      <trkpt lat="44.3547" lon="6.86892">
        <ele>2732.8000488281</ele>
        <time>2021-05-09T09:53:36.000Z</time>
      </trkpt>
      <trkpt lat="44.3547" lon="6.86889">
        <ele>2732.8000488281</ele>
        <time>2021-05-09T09:53:38.000Z</time>
      </trkpt>
      <trkpt lat="44.3547" lon="6.86887">
        <ele>2732.8000488281</ele>
        <time>2021-05-09T09:53:42.000Z</time>
      </trkpt>
      <trkpt lat="44.35471" lon="6.86886">
        <ele>2732.8000488281</ele>
        <time>2021-05-09T09:53:50.000Z</time>
      </trkpt>
      <trkpt lat="44.3547" lon="6.86885">
        <ele>2732.8000488281</ele>
        <time>2021-05-09T09:53:52.000Z</time>
      </trkpt>
      <trkpt lat="44.3547" lon="6.86886">
        <ele>2732.8000488281</ele>
        <time>2021-05-09T09:53:56.000Z</time>
      </trkpt>
      <trkpt lat="44.35469" lon="6.86885">
        <ele>2732.8000488281</ele>
        <time>2021-05-09T09:53:57.000Z</time>
      </trkpt>
      <trkpt lat="44.35469" lon="6.86885">
        <ele>2732.8000488281</ele>
        <time>2021-05-09T09:54:01.000Z</time>
      </trkpt>
      <trkpt lat="44.35469" lon="6.86885">
        <ele>2732.8000488281</ele>
        <time>2021-05-09T09:54:04.000Z</time>
      </trkpt>
      <trkpt lat="44.35469" lon="6.86884">
        <ele>2732.8000488281</ele>
        <time>2021-05-09T09:54:08.000Z</time>
      </trkpt>
      <trkpt lat="44.35469" lon="6.86884">
        <ele>2732.8000488281</ele>
        <time>2021-05-09T09:54:11.000Z</time>
      </trkpt>
      <trkpt lat="44.35468" lon="6.86887">
        <ele>2732.8000488281</ele>
        <time>2021-05-09T09:54:15.000Z</time>
      </trkpt>
      <trkpt lat="44.35468" lon="6.86891">
        <ele>2732.8000488281</ele>
        <time>2021-05-09T09:54:17.000Z</time>
      </trkpt>
      <trkpt lat="44.35468" lon="6.86893">
        <ele>2730</ele>
        <time>2021-05-09T09:54:19.000Z</time>
      </trkpt>
      <trkpt lat="44.35468" lon="6.86893">
        <ele>2728.6000976562</ele>
        <time>2021-05-09T09:54:20.000Z</time>
      </trkpt>
      <trkpt lat="44.35468" lon="6.86893">
        <ele>2727.3999023438</ele>
        <time>2021-05-09T09:54:22.000Z</time>
      </trkpt>
      <trkpt lat="44.35466" lon="6.86902">
        <ele>2726.6000976562</ele>
        <time>2021-05-09T09:54:30.000Z</time>
      </trkpt>
      <trkpt lat="44.35465" lon="6.86906">
        <ele>2726</ele>
        <time>2021-05-09T09:54:31.000Z</time>
      </trkpt>
      <trkpt lat="44.35467" lon="6.86909">
        <ele>2724.8000488281</ele>
        <time>2021-05-09T09:54:33.000Z</time>
      </trkpt>
      <trkpt lat="44.35466" lon="6.8691">
        <ele>2724.1999511719</ele>
        <time>2021-05-09T09:54:34.000Z</time>
      </trkpt>
      <trkpt lat="44.35466" lon="6.86911">
        <ele>2723.8000488281</ele>
        <time>2021-05-09T09:54:35.000Z</time>
      </trkpt>
      <trkpt lat="44.35466" lon="6.86913">
        <ele>2723.3999023438</ele>
        <time>2021-05-09T09:54:37.000Z</time>
      </trkpt>
      <trkpt lat="44.35464" lon="6.86917">
        <ele>2723.1999511719</ele>
        <time>2021-05-09T09:54:39.000Z</time>
      </trkpt>
      <trkpt lat="44.35462" lon="6.8692">
        <ele>2723</ele>
        <time>2021-05-09T09:54:41.000Z</time>
      </trkpt>
      <trkpt lat="44.35462" lon="6.8692">
        <ele>2722.8000488281</ele>
        <time>2021-05-09T09:54:45.000Z</time>
      </trkpt>
      <trkpt lat="44.35458" lon="6.86916">
        <ele>2721</ele>
        <time>2021-05-09T09:55:05.000Z</time>
      </trkpt>
      <trkpt lat="44.35458" lon="6.86916">
        <ele>2719.8000488281</ele>
        <time>2021-05-09T09:55:06.000Z</time>
      </trkpt>
      <trkpt lat="44.35458" lon="6.86916">
        <ele>2718.6000976562</ele>
        <time>2021-05-09T09:55:08.000Z</time>
      </trkpt>
      <trkpt lat="44.35458" lon="6.86917">
        <ele>2718.1999511719</ele>
        <time>2021-05-09T09:55:14.000Z</time>
      </trkpt>
      <trkpt lat="44.35459" lon="6.86918">
        <ele>2718.6000976562</ele>
        <time>2021-05-09T09:55:21.000Z</time>
      </trkpt>
      <trkpt lat="44.35461" lon="6.86915">
        <ele>2718.8000488281</ele>
        <time>2021-05-09T09:55:27.000Z</time>
      </trkpt>
      <trkpt lat="44.3546" lon="6.86912">
        <ele>2718.6000976562</ele>
        <time>2021-05-09T09:55:30.000Z</time>
      </trkpt>
      <trkpt lat="44.35459" lon="6.86911">
        <ele>2718.3999023438</ele>
        <time>2021-05-09T09:55:32.000Z</time>
      </trkpt>
      <trkpt lat="44.35458" lon="6.86908">
        <ele>2718.3999023438</ele>
        <time>2021-05-09T09:55:36.000Z</time>
      </trkpt>
      <trkpt lat="44.35457" lon="6.86907">
        <ele>2718.1999511719</ele>
        <time>2021-05-09T09:55:43.000Z</time>
      </trkpt>
      <trkpt lat="44.35457" lon="6.86907">
        <ele>2718.1999511719</ele>
        <time>2021-05-09T09:55:48.000Z</time>
      </trkpt>
      <trkpt lat="44.35457" lon="6.86907">
        <ele>2718.1999511719</ele>
        <time>2021-05-09T09:55:51.000Z</time>
      </trkpt>
      <trkpt lat="44.35456" lon="6.86913">
        <ele>2718.1999511719</ele>
        <time>2021-05-09T09:56:12.000Z</time>
      </trkpt>
      <trkpt lat="44.35457" lon="6.86914">
        <ele>2718</ele>
        <time>2021-05-09T09:56:21.000Z</time>
      </trkpt>
      <trkpt lat="44.35457" lon="6.86913">
        <ele>2718</ele>
        <time>2021-05-09T09:56:22.000Z</time>
      </trkpt>
      <trkpt lat="44.35457" lon="6.86913">
        <ele>2718</ele>
        <time>2021-05-09T09:56:23.000Z</time>
      </trkpt>
      <trkpt lat="44.35456" lon="6.86913">
        <ele>2718</ele>
        <time>2021-05-09T09:56:24.000Z</time>
      </trkpt>
      <trkpt lat="44.35456" lon="6.86913">
        <ele>2718</ele>
        <time>2021-05-09T09:56:27.000Z</time>
      </trkpt>
      <trkpt lat="44.35457" lon="6.86914">
        <ele>2718</ele>
        <time>2021-05-09T09:56:34.000Z</time>
      </trkpt>
      <trkpt lat="44.35458" lon="6.86914">
        <ele>2718</ele>
        <time>2021-05-09T09:56:42.000Z</time>
      </trkpt>
      <trkpt lat="44.35458" lon="6.86914">
        <ele>2718</ele>
        <time>2021-05-09T09:56:44.000Z</time>
      </trkpt>
      <trkpt lat="44.35459" lon="6.86913">
        <ele>2718</ele>
        <time>2021-05-09T09:56:47.000Z</time>
      </trkpt>
      <trkpt lat="44.3546" lon="6.86913">
        <ele>2718</ele>
        <time>2021-05-09T09:56:49.000Z</time>
      </trkpt>
      <trkpt lat="44.35459" lon="6.86913">
        <ele>2718</ele>
        <time>2021-05-09T09:56:51.000Z</time>
      </trkpt>
      <trkpt lat="44.3546" lon="6.86913">
        <ele>2718</ele>
        <time>2021-05-09T09:56:52.000Z</time>
      </trkpt>
      <trkpt lat="44.35463" lon="6.86913">
        <ele>2718</ele>
        <time>2021-05-09T09:56:59.000Z</time>
      </trkpt>
      <trkpt lat="44.35466" lon="6.86913">
        <ele>2718</ele>
        <time>2021-05-09T09:57:07.000Z</time>
      </trkpt>
      <trkpt lat="44.35466" lon="6.86913">
        <ele>2718</ele>
        <time>2021-05-09T09:57:08.000Z</time>
      </trkpt>
      <trkpt lat="44.35463" lon="6.86913">
        <ele>2718</ele>
        <time>2021-05-09T09:57:11.000Z</time>
      </trkpt>
      <trkpt lat="44.35463" lon="6.86913">
        <ele>2718</ele>
        <time>2021-05-09T09:57:12.000Z</time>
      </trkpt>
      <trkpt lat="44.35461" lon="6.86914">
        <ele>2718</ele>
        <time>2021-05-09T09:57:18.000Z</time>
      </trkpt>
      <trkpt lat="44.35461" lon="6.86915">
        <ele>2718</ele>
        <time>2021-05-09T09:57:20.000Z</time>
      </trkpt>
      <trkpt lat="44.35461" lon="6.86915">
        <ele>2718</ele>
        <time>2021-05-09T09:57:22.000Z</time>
      </trkpt>
      <trkpt lat="44.3546" lon="6.86915">
        <ele>2718</ele>
        <time>2021-05-09T09:57:23.000Z</time>
      </trkpt>
      <trkpt lat="44.35459" lon="6.86916">
        <ele>2718</ele>
        <time>2021-05-09T09:57:24.000Z</time>
      </trkpt>
      <trkpt lat="44.35458" lon="6.86916">
        <ele>2718</ele>
        <time>2021-05-09T09:57:25.000Z</time>
      </trkpt>
      <trkpt lat="44.35458" lon="6.86918">
        <ele>2718</ele>
        <time>2021-05-09T09:57:31.000Z</time>
      </trkpt>
      <trkpt lat="44.35458" lon="6.86918">
        <ele>2718</ele>
        <time>2021-05-09T09:57:35.000Z</time>
      </trkpt>
      <trkpt lat="44.35456" lon="6.86917">
        <ele>2718</ele>
        <time>2021-05-09T09:57:39.000Z</time>
      </trkpt>
      <trkpt lat="44.35456" lon="6.86916">
        <ele>2718</ele>
        <time>2021-05-09T09:57:42.000Z</time>
      </trkpt>
      <trkpt lat="44.35456" lon="6.86916">
        <ele>2718</ele>
        <time>2021-05-09T09:57:48.000Z</time>
      </trkpt>
      <trkpt lat="44.35456" lon="6.86916">
        <ele>2718</ele>
        <time>2021-05-09T09:57:49.000Z</time>
      </trkpt>
      <trkpt lat="44.35458" lon="6.86915">
        <ele>2718</ele>
        <time>2021-05-09T09:57:56.000Z</time>
      </trkpt>
      <trkpt lat="44.35458" lon="6.86915">
        <ele>2718</ele>
        <time>2021-05-09T09:58:00.000Z</time>
      </trkpt>
      <trkpt lat="44.35458" lon="6.86915">
        <ele>2718</ele>
        <time>2021-05-09T09:58:09.000Z</time>
      </trkpt>
      <trkpt lat="44.35458" lon="6.86915">
        <ele>2718</ele>
        <time>2021-05-09T09:58:10.000Z</time>
      </trkpt>
      <trkpt lat="44.35458" lon="6.86915">
        <ele>2718</ele>
        <time>2021-05-09T09:58:13.000Z</time>
      </trkpt>
      <trkpt lat="44.35457" lon="6.86914">
        <ele>2718</ele>
        <time>2021-05-09T09:58:16.000Z</time>
      </trkpt>
      <trkpt lat="44.35456" lon="6.86913">
        <ele>2718</ele>
        <time>2021-05-09T09:58:23.000Z</time>
      </trkpt>
      <trkpt lat="44.35456" lon="6.86913">
        <ele>2718</ele>
        <time>2021-05-09T09:58:24.000Z</time>
      </trkpt>
      <trkpt lat="44.35456" lon="6.86913">
        <ele>2718</ele>
        <time>2021-05-09T09:58:25.000Z</time>
      </trkpt>
      <trkpt lat="44.35456" lon="6.86913">
        <ele>2718</ele>
        <time>2021-05-09T09:58:27.000Z</time>
      </trkpt>
      <trkpt lat="44.35457" lon="6.86912">
        <ele>2718</ele>
        <time>2021-05-09T09:58:29.000Z</time>
      </trkpt>
      <trkpt lat="44.35457" lon="6.8691">
        <ele>2718</ele>
        <time>2021-05-09T09:58:34.000Z</time>
      </trkpt>
      <trkpt lat="44.35458" lon="6.8691">
        <ele>2718</ele>
        <time>2021-05-09T09:58:37.000Z</time>
      </trkpt>
      <trkpt lat="44.35458" lon="6.8691">
        <ele>2718</ele>
        <time>2021-05-09T09:58:38.000Z</time>
      </trkpt>
      <trkpt lat="44.35458" lon="6.86907">
        <ele>2718</ele>
        <time>2021-05-09T09:58:42.000Z</time>
      </trkpt>
      <trkpt lat="44.35458" lon="6.86907">
        <ele>2718</ele>
        <time>2021-05-09T09:58:47.000Z</time>
      </trkpt>
      <trkpt lat="44.35458" lon="6.86907">
        <ele>2718</ele>
        <time>2021-05-09T09:58:48.000Z</time>
      </trkpt>
      <trkpt lat="44.35457" lon="6.86905">
        <ele>2718</ele>
        <time>2021-05-09T09:58:52.000Z</time>
      </trkpt>
      <trkpt lat="44.35457" lon="6.86905">
        <ele>2718</ele>
        <time>2021-05-09T09:58:55.000Z</time>
      </trkpt>
      <trkpt lat="44.35457" lon="6.86904">
        <ele>2718</ele>
        <time>2021-05-09T09:58:58.000Z</time>
      </trkpt>
      <trkpt lat="44.35457" lon="6.86904">
        <ele>2718</ele>
        <time>2021-05-09T09:59:04.000Z</time>
      </trkpt>
      <trkpt lat="44.35457" lon="6.86904">
        <ele>2718</ele>
        <time>2021-05-09T09:59:08.000Z</time>
      </trkpt>
      <trkpt lat="44.35457" lon="6.86904">
        <ele>2718</ele>
        <time>2021-05-09T09:59:12.000Z</time>
      </trkpt>
      <trkpt lat="44.35461" lon="6.86904">
        <ele>2718</ele>
        <time>2021-05-09T09:59:20.000Z</time>
      </trkpt>
      <trkpt lat="44.35463" lon="6.86904">
        <ele>2718</ele>
        <time>2021-05-09T09:59:22.000Z</time>
      </trkpt>
      <trkpt lat="44.35467" lon="6.86907">
        <ele>2718</ele>
        <time>2021-05-09T09:59:29.000Z</time>
      </trkpt>
      <trkpt lat="44.35467" lon="6.8691">
        <ele>2718</ele>
        <time>2021-05-09T09:59:31.000Z</time>
      </trkpt>
      <trkpt lat="44.35467" lon="6.86914">
        <ele>2718</ele>
        <time>2021-05-09T09:59:41.000Z</time>
      </trkpt>
      <trkpt lat="44.35467" lon="6.86914">
        <ele>2718</ele>
        <time>2021-05-09T09:59:43.000Z</time>
      </trkpt>
      <trkpt lat="44.35467" lon="6.86914">
        <ele>2718</ele>
        <time>2021-05-09T09:59:47.000Z</time>
      </trkpt>
      <trkpt lat="44.35466" lon="6.86913">
        <ele>2718</ele>
        <time>2021-05-09T09:59:51.000Z</time>
      </trkpt>
      <trkpt lat="44.35466" lon="6.86913">
        <ele>2718</ele>
        <time>2021-05-09T09:59:57.000Z</time>
      </trkpt>
      <trkpt lat="44.35466" lon="6.86912">
        <ele>2718</ele>
        <time>2021-05-09T10:00:00.000Z</time>
      </trkpt>
      <trkpt lat="44.35467" lon="6.86911">
        <ele>2718</ele>
        <time>2021-05-09T10:00:06.000Z</time>
      </trkpt>
      <trkpt lat="44.35466" lon="6.86909">
        <ele>2718</ele>
        <time>2021-05-09T10:00:12.000Z</time>
      </trkpt>
      <trkpt lat="44.35462" lon="6.86906">
        <ele>2718</ele>
        <time>2021-05-09T10:00:28.000Z</time>
      </trkpt>
      <trkpt lat="44.35462" lon="6.86905">
        <ele>2718</ele>
        <time>2021-05-09T10:00:30.000Z</time>
      </trkpt>
      <trkpt lat="44.35459" lon="6.86904">
        <ele>2718</ele>
        <time>2021-05-09T10:00:33.000Z</time>
      </trkpt>
      <trkpt lat="44.35457" lon="6.86901">
        <ele>2716.8000488281</ele>
        <time>2021-05-09T10:00:35.000Z</time>
      </trkpt>
      <trkpt lat="44.35457" lon="6.86899">
        <ele>2716.3999023438</ele>
        <time>2021-05-09T10:00:36.000Z</time>
      </trkpt>
      <trkpt lat="44.35456" lon="6.86898">
        <ele>2715.8000488281</ele>
        <time>2021-05-09T10:00:37.000Z</time>
      </trkpt>
      <trkpt lat="44.35455" lon="6.86897">
        <ele>2715</ele>
        <time>2021-05-09T10:00:40.000Z</time>
      </trkpt>
      <trkpt lat="44.35452" lon="6.869">
        <ele>2714.8000488281</ele>
        <time>2021-05-09T10:00:44.000Z</time>
      </trkpt>
      <trkpt lat="44.35449" lon="6.86903">
        <ele>2714.3999023438</ele>
        <time>2021-05-09T10:00:45.000Z</time>
      </trkpt>
      <trkpt lat="44.35449" lon="6.86904">
        <ele>2712.3999023438</ele>
        <time>2021-05-09T10:00:47.000Z</time>
      </trkpt>
      <trkpt lat="44.35449" lon="6.86905">
        <ele>2711.8000488281</ele>
        <time>2021-05-09T10:00:48.000Z</time>
      </trkpt>
      <trkpt lat="44.35449" lon="6.86905">
        <ele>2711.3999023438</ele>
        <time>2021-05-09T10:00:49.000Z</time>
      </trkpt>
      <trkpt lat="44.35441" lon="6.86903">
        <ele>2710.1999511719</ele>
        <time>2021-05-09T10:01:02.000Z</time>
      </trkpt>
      <trkpt lat="44.3544" lon="6.86901">
        <ele>2708.6000976562</ele>
        <time>2021-05-09T10:01:04.000Z</time>
      </trkpt>
      <trkpt lat="44.35438" lon="6.869">
        <ele>2708.1999511719</ele>
        <time>2021-05-09T10:01:05.000Z</time>
      </trkpt>
      <trkpt lat="44.35437" lon="6.86903">
        <ele>2707.6000976562</ele>
        <time>2021-05-09T10:01:06.000Z</time>
      </trkpt>
      <trkpt lat="44.35436" lon="6.86904">
        <ele>2706.8000488281</ele>
        <time>2021-05-09T10:01:07.000Z</time>
      </trkpt>
      <trkpt lat="44.35435" lon="6.86904">
        <ele>2706</ele>
        <time>2021-05-09T10:01:08.000Z</time>
      </trkpt>
      <trkpt lat="44.35435" lon="6.86904">
        <ele>2705.1999511719</ele>
        <time>2021-05-09T10:01:09.000Z</time>
      </trkpt>
      <trkpt lat="44.35435" lon="6.86904">
        <ele>2704.6000976562</ele>
        <time>2021-05-09T10:01:10.000Z</time>
      </trkpt>
      <trkpt lat="44.3543" lon="6.869">
        <ele>2703.3999023438</ele>
        <time>2021-05-09T10:01:14.000Z</time>
      </trkpt>
      <trkpt lat="44.35429" lon="6.86899">
        <ele>2702.8000488281</ele>
        <time>2021-05-09T10:01:15.000Z</time>
      </trkpt>
      <trkpt lat="44.35429" lon="6.86899">
        <ele>2701.8000488281</ele>
        <time>2021-05-09T10:01:16.000Z</time>
      </trkpt>
      <trkpt lat="44.35429" lon="6.86899">
        <ele>2700.8000488281</ele>
        <time>2021-05-09T10:01:17.000Z</time>
      </trkpt>
      <trkpt lat="44.3543" lon="6.869">
        <ele>2699.6000976562</ele>
        <time>2021-05-09T10:01:19.000Z</time>
      </trkpt>
      <trkpt lat="44.35427" lon="6.869">
        <ele>2699</ele>
        <time>2021-05-09T10:01:22.000Z</time>
      </trkpt>
      <trkpt lat="44.35425" lon="6.86902">
        <ele>2698.1999511719</ele>
        <time>2021-05-09T10:01:24.000Z</time>
      </trkpt>
      <trkpt lat="44.35424" lon="6.86902">
        <ele>2697.6000976562</ele>
        <time>2021-05-09T10:01:25.000Z</time>
      </trkpt>
      <trkpt lat="44.35422" lon="6.86903">
        <ele>2697</ele>
        <time>2021-05-09T10:01:26.000Z</time>
      </trkpt>
      <trkpt lat="44.35421" lon="6.86903">
        <ele>2696</ele>
        <time>2021-05-09T10:01:28.000Z</time>
      </trkpt>
      <trkpt lat="44.35419" lon="6.86907">
        <ele>2695.6000976562</ele>
        <time>2021-05-09T10:01:29.000Z</time>
      </trkpt>
      <trkpt lat="44.35414" lon="6.86906">
        <ele>2694.8000488281</ele>
        <time>2021-05-09T10:01:31.000Z</time>
      </trkpt>
      <trkpt lat="44.35412" lon="6.86903">
        <ele>2694.1999511719</ele>
        <time>2021-05-09T10:01:32.000Z</time>
      </trkpt>
      <trkpt lat="44.35412" lon="6.86901">
        <ele>2693.1999511719</ele>
        <time>2021-05-09T10:01:33.000Z</time>
      </trkpt>
      <trkpt lat="44.35412" lon="6.86901">
        <ele>2691.8000488281</ele>
        <time>2021-05-09T10:01:34.000Z</time>
      </trkpt>
      <trkpt lat="44.35412" lon="6.86902">
        <ele>2690.6000976562</ele>
        <time>2021-05-09T10:01:35.000Z</time>
      </trkpt>
      <trkpt lat="44.35412" lon="6.86903">
        <ele>2689</ele>
        <time>2021-05-09T10:01:37.000Z</time>
      </trkpt>
      <trkpt lat="44.3541" lon="6.86901">
        <ele>2687.8000488281</ele>
        <time>2021-05-09T10:01:42.000Z</time>
      </trkpt>
      <trkpt lat="44.3541" lon="6.86901">
        <ele>2687.6000976562</ele>
        <time>2021-05-09T10:01:43.000Z</time>
      </trkpt>
      <trkpt lat="44.35409" lon="6.86902">
        <ele>2686.8000488281</ele>
        <time>2021-05-09T10:01:46.000Z</time>
      </trkpt>
      <trkpt lat="44.35403" lon="6.86901">
        <ele>2685.6000976562</ele>
        <time>2021-05-09T10:01:51.000Z</time>
      </trkpt>
      <trkpt lat="44.35402" lon="6.869">
        <ele>2684</ele>
        <time>2021-05-09T10:01:53.000Z</time>
      </trkpt>
      <trkpt lat="44.35399" lon="6.86901">
        <ele>2682.8000488281</ele>
        <time>2021-05-09T10:01:56.000Z</time>
      </trkpt>
      <trkpt lat="44.35397" lon="6.86901">
        <ele>2682.6000976562</ele>
        <time>2021-05-09T10:01:57.000Z</time>
      </trkpt>
      <trkpt lat="44.35393" lon="6.86895">
        <ele>2681</ele>
        <time>2021-05-09T10:02:00.000Z</time>
      </trkpt>
      <trkpt lat="44.35393" lon="6.86895">
        <ele>2679.6000976562</ele>
        <time>2021-05-09T10:02:01.000Z</time>
      </trkpt>
      <trkpt lat="44.35394" lon="6.86897">
        <ele>2678.1999511719</ele>
        <time>2021-05-09T10:02:02.000Z</time>
      </trkpt>
      <trkpt lat="44.35394" lon="6.86898">
        <ele>2676.8000488281</ele>
        <time>2021-05-09T10:02:04.000Z</time>
      </trkpt>
      <trkpt lat="44.35394" lon="6.869">
        <ele>2675.8000488281</ele>
        <time>2021-05-09T10:02:09.000Z</time>
      </trkpt>
      <trkpt lat="44.3539" lon="6.86906">
        <ele>2674.1999511719</ele>
        <time>2021-05-09T10:02:15.000Z</time>
      </trkpt>
      <trkpt lat="44.35389" lon="6.86903">
        <ele>2672.3999023438</ele>
        <time>2021-05-09T10:02:17.000Z</time>
      </trkpt>
      <trkpt lat="44.35387" lon="6.86902">
        <ele>2671.3999023438</ele>
        <time>2021-05-09T10:02:20.000Z</time>
      </trkpt>
      <trkpt lat="44.35383" lon="6.86896">
        <ele>2671</ele>
        <time>2021-05-09T10:02:22.000Z</time>
      </trkpt>
      <trkpt lat="44.35382" lon="6.8689">
        <ele>2669.8000488281</ele>
        <time>2021-05-09T10:02:24.000Z</time>
      </trkpt>
      <trkpt lat="44.35382" lon="6.8689">
        <ele>2668.6000976562</ele>
        <time>2021-05-09T10:02:25.000Z</time>
      </trkpt>
      <trkpt lat="44.35381" lon="6.8689">
        <ele>2667.3999023438</ele>
        <time>2021-05-09T10:02:26.000Z</time>
      </trkpt>
      <trkpt lat="44.35379" lon="6.86886">
        <ele>2666.1999511719</ele>
        <time>2021-05-09T10:02:28.000Z</time>
      </trkpt>
      <trkpt lat="44.35377" lon="6.86884">
        <ele>2665.6000976562</ele>
        <time>2021-05-09T10:02:30.000Z</time>
      </trkpt>
      <trkpt lat="44.35378" lon="6.86884">
        <ele>2665</ele>
        <time>2021-05-09T10:02:31.000Z</time>
      </trkpt>
      <trkpt lat="44.35377" lon="6.86884">
        <ele>2663.8000488281</ele>
        <time>2021-05-09T10:02:33.000Z</time>
      </trkpt>
      <trkpt lat="44.35377" lon="6.86882">
        <ele>2663.1999511719</ele>
        <time>2021-05-09T10:02:36.000Z</time>
      </trkpt>
      <trkpt lat="44.35377" lon="6.86875">
        <ele>2662.8000488281</ele>
        <time>2021-05-09T10:02:51.000Z</time>
      </trkpt>
      <trkpt lat="44.35377" lon="6.86872">
        <ele>2662.6000976562</ele>
        <time>2021-05-09T10:02:54.000Z</time>
      </trkpt>
      <trkpt lat="44.35379" lon="6.86872">
        <ele>2662.3999023438</ele>
        <time>2021-05-09T10:03:09.000Z</time>
      </trkpt>
      <trkpt lat="44.35376" lon="6.86877">
        <ele>2662</ele>
        <time>2021-05-09T10:03:22.000Z</time>
      </trkpt>
      <trkpt lat="44.35375" lon="6.86875">
        <ele>2662</ele>
        <time>2021-05-09T10:03:25.000Z</time>
      </trkpt>
      <trkpt lat="44.35375" lon="6.86869">
        <ele>2662</ele>
        <time>2021-05-09T10:03:37.000Z</time>
      </trkpt>
      <trkpt lat="44.35375" lon="6.86871">
        <ele>2662</ele>
        <time>2021-05-09T10:03:38.000Z</time>
      </trkpt>
      <trkpt lat="44.35375" lon="6.86873">
        <ele>2661.8000488281</ele>
        <time>2021-05-09T10:03:45.000Z</time>
      </trkpt>
      <trkpt lat="44.35376" lon="6.86873">
        <ele>2662</ele>
        <time>2021-05-09T10:03:52.000Z</time>
      </trkpt>
      <trkpt lat="44.3537" lon="6.86868">
        <ele>2662.1999511719</ele>
        <time>2021-05-09T10:03:57.000Z</time>
      </trkpt>
      <trkpt lat="44.35372" lon="6.86872">
        <ele>2662.3999023438</ele>
        <time>2021-05-09T10:03:59.000Z</time>
      </trkpt>
      <trkpt lat="44.35375" lon="6.86873">
        <ele>2662.1999511719</ele>
        <time>2021-05-09T10:04:03.000Z</time>
      </trkpt>
      <trkpt lat="44.35376" lon="6.86875">
        <ele>2661.8000488281</ele>
        <time>2021-05-09T10:04:05.000Z</time>
      </trkpt>
      <trkpt lat="44.35382" lon="6.86885">
        <ele>2662</ele>
        <time>2021-05-09T10:04:19.000Z</time>
      </trkpt>
      <trkpt lat="44.35385" lon="6.86894">
        <ele>2662.1999511719</ele>
        <time>2021-05-09T10:04:28.000Z</time>
      </trkpt>
      <trkpt lat="44.35401" lon="6.86899">
        <ele>2662.1999511719</ele>
        <time>2021-05-09T10:04:38.000Z</time>
      </trkpt>
      <trkpt lat="44.35404" lon="6.86898">
        <ele>2662</ele>
        <time>2021-05-09T10:04:43.000Z</time>
      </trkpt>
      <trkpt lat="44.35431" lon="6.86887">
        <ele>2662</ele>
        <time>2021-05-09T10:04:54.000Z</time>
      </trkpt>
      <trkpt lat="44.35462" lon="6.86932">
        <ele>2662</ele>
        <time>2021-05-09T10:05:06.000Z</time>
      </trkpt>
      <trkpt lat="44.35457" lon="6.86934">
        <ele>2662</ele>
        <time>2021-05-09T10:05:07.000Z</time>
      </trkpt>
      <trkpt lat="44.35451" lon="6.8694">
        <ele>2662.1999511719</ele>
        <time>2021-05-09T10:05:10.000Z</time>
      </trkpt>
      <trkpt lat="44.35452" lon="6.86946">
        <ele>2662.1999511719</ele>
        <time>2021-05-09T10:05:11.000Z</time>
      </trkpt>
      <trkpt lat="44.35453" lon="6.86949">
        <ele>2662.3999023438</ele>
        <time>2021-05-09T10:05:13.000Z</time>
      </trkpt>
      <trkpt lat="44.35447" lon="6.86942">
        <ele>2662</ele>
        <time>2021-05-09T10:05:20.000Z</time>
      </trkpt>
      <trkpt lat="44.35412" lon="6.86915">
        <ele>2662</ele>
        <time>2021-05-09T10:05:33.000Z</time>
      </trkpt>
      <trkpt lat="44.35403" lon="6.86908">
        <ele>2661.8000488281</ele>
        <time>2021-05-09T10:05:36.000Z</time>
      </trkpt>
      <trkpt lat="44.35395" lon="6.86899">
        <ele>2661.8000488281</ele>
        <time>2021-05-09T10:05:45.000Z</time>
      </trkpt>
      <trkpt lat="44.35408" lon="6.869">
        <ele>2662</ele>
        <time>2021-05-09T10:05:48.000Z</time>
      </trkpt>
      <trkpt lat="44.35411" lon="6.86901">
        <ele>2662</ele>
        <time>2021-05-09T10:05:50.000Z</time>
      </trkpt>
      <trkpt lat="44.35411" lon="6.86902">
        <ele>2662</ele>
        <time>2021-05-09T10:05:52.000Z</time>
      </trkpt>
      <trkpt lat="44.35414" lon="6.86903">
        <ele>2662</ele>
        <time>2021-05-09T10:05:54.000Z</time>
      </trkpt>
      <trkpt lat="44.35413" lon="6.86918">
        <ele>2662</ele>
        <time>2021-05-09T10:06:03.000Z</time>
      </trkpt>
      <trkpt lat="44.35415" lon="6.8692">
        <ele>2662</ele>
        <time>2021-05-09T10:06:05.000Z</time>
      </trkpt>
      <trkpt lat="44.3542" lon="6.86921">
        <ele>2661.8000488281</ele>
        <time>2021-05-09T10:06:07.000Z</time>
      </trkpt>
      <trkpt lat="44.35432" lon="6.86927">
        <ele>2662</ele>
        <time>2021-05-09T10:06:11.000Z</time>
      </trkpt>
      <trkpt lat="44.3541" lon="6.86917">
        <ele>2661.8000488281</ele>
        <time>2021-05-09T10:06:18.000Z</time>
      </trkpt>
      <trkpt lat="44.35394" lon="6.86913">
        <ele>2661.6000976562</ele>
        <time>2021-05-09T10:06:19.000Z</time>
      </trkpt>
      <trkpt lat="44.35385" lon="6.86907">
        <ele>2661.6000976562</ele>
        <time>2021-05-09T10:06:21.000Z</time>
      </trkpt>
      <trkpt lat="44.35384" lon="6.86905">
        <ele>2661.6000976562</ele>
        <time>2021-05-09T10:06:22.000Z</time>
      </trkpt>
      <trkpt lat="44.35382" lon="6.86904">
        <ele>2661.3999023438</ele>
        <time>2021-05-09T10:06:23.000Z</time>
      </trkpt>
      <trkpt lat="44.35379" lon="6.86902">
        <ele>2661.3999023438</ele>
        <time>2021-05-09T10:06:25.000Z</time>
      </trkpt>
      <trkpt lat="44.35376" lon="6.86897">
        <ele>2661.1999511719</ele>
        <time>2021-05-09T10:06:28.000Z</time>
      </trkpt>
      <trkpt lat="44.35374" lon="6.86895">
        <ele>2661</ele>
        <time>2021-05-09T10:06:30.000Z</time>
      </trkpt>
      <trkpt lat="44.35372" lon="6.86892">
        <ele>2660.8000488281</ele>
        <time>2021-05-09T10:06:32.000Z</time>
      </trkpt>
      <trkpt lat="44.3537" lon="6.86894">
        <ele>2660.8000488281</ele>
        <time>2021-05-09T10:06:34.000Z</time>
      </trkpt>
      <trkpt lat="44.35369" lon="6.86898">
        <ele>2660.3999023438</ele>
        <time>2021-05-09T10:06:35.000Z</time>
      </trkpt>
      <trkpt lat="44.35367" lon="6.86899">
        <ele>2660</ele>
        <time>2021-05-09T10:06:36.000Z</time>
      </trkpt>
      <trkpt lat="44.35366" lon="6.86896">
        <ele>2659.1999511719</ele>
        <time>2021-05-09T10:06:37.000Z</time>
      </trkpt>
      <trkpt lat="44.35362" lon="6.86891">
        <ele>2657.1999511719</ele>
        <time>2021-05-09T10:06:39.000Z</time>
      </trkpt>
      <trkpt lat="44.35361" lon="6.86892">
        <ele>2656</ele>
        <time>2021-05-09T10:06:40.000Z</time>
      </trkpt>
      <trkpt lat="44.3536" lon="6.86894">
        <ele>2654.6000976562</ele>
        <time>2021-05-09T10:06:41.000Z</time>
      </trkpt>
      <trkpt lat="44.35359" lon="6.86896">
        <ele>2653</ele>
        <time>2021-05-09T10:06:42.000Z</time>
      </trkpt>
      <trkpt lat="44.35356" lon="6.86898">
        <ele>2651.6000976562</ele>
        <time>2021-05-09T10:06:43.000Z</time>
      </trkpt>
      <trkpt lat="44.35354" lon="6.86898">
        <ele>2650.1999511719</ele>
        <time>2021-05-09T10:06:44.000Z</time>
      </trkpt>
      <trkpt lat="44.35349" lon="6.8689">
        <ele>2648.3999023438</ele>
        <time>2021-05-09T10:06:46.000Z</time>
      </trkpt>
      <trkpt lat="44.35347" lon="6.86885">
        <ele>2647.3999023438</ele>
        <time>2021-05-09T10:06:47.000Z</time>
      </trkpt>
      <trkpt lat="44.35346" lon="6.86881">
        <ele>2645.8000488281</ele>
        <time>2021-05-09T10:06:48.000Z</time>
      </trkpt>
      <trkpt lat="44.35346" lon="6.86877">
        <ele>2644.1999511719</ele>
        <time>2021-05-09T10:06:49.000Z</time>
      </trkpt>
      <trkpt lat="44.35345" lon="6.86872">
        <ele>2642.8000488281</ele>
        <time>2021-05-09T10:06:50.000Z</time>
      </trkpt>
      <trkpt lat="44.35344" lon="6.86872">
        <ele>2641.8000488281</ele>
        <time>2021-05-09T10:06:51.000Z</time>
      </trkpt>
      <trkpt lat="44.35342" lon="6.86873">
        <ele>2640.8000488281</ele>
        <time>2021-05-09T10:06:52.000Z</time>
      </trkpt>
      <trkpt lat="44.35338" lon="6.86874">
        <ele>2639.6000976562</ele>
        <time>2021-05-09T10:06:53.000Z</time>
      </trkpt>
      <trkpt lat="44.35333" lon="6.86872">
        <ele>2638</ele>
        <time>2021-05-09T10:06:54.000Z</time>
      </trkpt>
      <trkpt lat="44.3533" lon="6.86867">
        <ele>2636.3999023438</ele>
        <time>2021-05-09T10:06:55.000Z</time>
      </trkpt>
      <trkpt lat="44.35326" lon="6.8686">
        <ele>2634.8000488281</ele>
        <time>2021-05-09T10:06:56.000Z</time>
      </trkpt>
      <trkpt lat="44.35325" lon="6.86854">
        <ele>2632.8000488281</ele>
        <time>2021-05-09T10:06:57.000Z</time>
      </trkpt>
      <trkpt lat="44.35325" lon="6.8685">
        <ele>2631.1999511719</ele>
        <time>2021-05-09T10:06:58.000Z</time>
      </trkpt>
      <trkpt lat="44.35325" lon="6.8685">
        <ele>2629.6000976562</ele>
        <time>2021-05-09T10:06:59.000Z</time>
      </trkpt>
      <trkpt lat="44.35325" lon="6.86849">
        <ele>2628.6000976562</ele>
        <time>2021-05-09T10:07:00.000Z</time>
      </trkpt>
      <trkpt lat="44.35325" lon="6.86849">
        <ele>2627.6000976562</ele>
        <time>2021-05-09T10:07:01.000Z</time>
      </trkpt>
      <trkpt lat="44.35325" lon="6.8685">
        <ele>2627</ele>
        <time>2021-05-09T10:07:02.000Z</time>
      </trkpt>
      <trkpt lat="44.35324" lon="6.8685">
        <ele>2626.6000976562</ele>
        <time>2021-05-09T10:07:04.000Z</time>
      </trkpt>
      <trkpt lat="44.35312" lon="6.86844">
        <ele>2625.3999023438</ele>
        <time>2021-05-09T10:07:09.000Z</time>
      </trkpt>
      <trkpt lat="44.35308" lon="6.86832">
        <ele>2623.6000976562</ele>
        <time>2021-05-09T10:07:11.000Z</time>
      </trkpt>
      <trkpt lat="44.35307" lon="6.86827">
        <ele>2622.3999023438</ele>
        <time>2021-05-09T10:07:12.000Z</time>
      </trkpt>
      <trkpt lat="44.35305" lon="6.86821">
        <ele>2621.3999023438</ele>
        <time>2021-05-09T10:07:13.000Z</time>
      </trkpt>
      <trkpt lat="44.35304" lon="6.86817">
        <ele>2620.3999023438</ele>
        <time>2021-05-09T10:07:14.000Z</time>
      </trkpt>
      <trkpt lat="44.35304" lon="6.86815">
        <ele>2619</ele>
        <time>2021-05-09T10:07:15.000Z</time>
      </trkpt>
      <trkpt lat="44.35303" lon="6.86814">
        <ele>2617.8000488281</ele>
        <time>2021-05-09T10:07:16.000Z</time>
      </trkpt>
      <trkpt lat="44.35303" lon="6.86813">
        <ele>2616</ele>
        <time>2021-05-09T10:07:18.000Z</time>
      </trkpt>
      <trkpt lat="44.35303" lon="6.86814">
        <ele>2615</ele>
        <time>2021-05-09T10:07:20.000Z</time>
      </trkpt>
      <trkpt lat="44.35303" lon="6.86815">
        <ele>2614.8000488281</ele>
        <time>2021-05-09T10:07:21.000Z</time>
      </trkpt>
      <trkpt lat="44.35307" lon="6.86818">
        <ele>2614.6000976562</ele>
        <time>2021-05-09T10:07:30.000Z</time>
      </trkpt>
      <trkpt lat="44.3531" lon="6.86817">
        <ele>2614.3999023438</ele>
        <time>2021-05-09T10:07:38.000Z</time>
      </trkpt>
      <trkpt lat="44.35313" lon="6.86835">
        <ele>2614.3999023438</ele>
        <time>2021-05-09T10:07:46.000Z</time>
      </trkpt>
      <trkpt lat="44.35308" lon="6.86836">
        <ele>2614.3999023438</ele>
        <time>2021-05-09T10:07:49.000Z</time>
      </trkpt>
      <trkpt lat="44.35303" lon="6.86825">
        <ele>2614</ele>
        <time>2021-05-09T10:07:55.000Z</time>
      </trkpt>
      <trkpt lat="44.35303" lon="6.86825">
        <ele>2613.8000488281</ele>
        <time>2021-05-09T10:07:56.000Z</time>
      </trkpt>
      <trkpt lat="44.35303" lon="6.86821">
        <ele>2613.6000976562</ele>
        <time>2021-05-09T10:08:01.000Z</time>
      </trkpt>
      <trkpt lat="44.35303" lon="6.86819">
        <ele>2613.3999023438</ele>
        <time>2021-05-09T10:08:02.000Z</time>
      </trkpt>
      <trkpt lat="44.35304" lon="6.86816">
        <ele>2613.3999023438</ele>
        <time>2021-05-09T10:08:10.000Z</time>
      </trkpt>
      <trkpt lat="44.35303" lon="6.86811">
        <ele>2613.1999511719</ele>
        <time>2021-05-09T10:08:12.000Z</time>
      </trkpt>
      <trkpt lat="44.35295" lon="6.86788">
        <ele>2613.1999511719</ele>
        <time>2021-05-09T10:08:19.000Z</time>
      </trkpt>
      <trkpt lat="44.35296" lon="6.86786">
        <ele>2613.1999511719</ele>
        <time>2021-05-09T10:08:22.000Z</time>
      </trkpt>
      <trkpt lat="44.35297" lon="6.86787">
        <ele>2613.1999511719</ele>
        <time>2021-05-09T10:08:27.000Z</time>
      </trkpt>
      <trkpt lat="44.35301" lon="6.86797">
        <ele>2613.1999511719</ele>
        <time>2021-05-09T10:08:29.000Z</time>
      </trkpt>
      <trkpt lat="44.35302" lon="6.868">
        <ele>2613.1999511719</ele>
        <time>2021-05-09T10:08:31.000Z</time>
      </trkpt>
      <trkpt lat="44.35317" lon="6.86833">
        <ele>2613.1999511719</ele>
        <time>2021-05-09T10:08:41.000Z</time>
      </trkpt>
      <trkpt lat="44.3532" lon="6.86835">
        <ele>2613.1999511719</ele>
        <time>2021-05-09T10:08:43.000Z</time>
      </trkpt>
      <trkpt lat="44.35318" lon="6.86846">
        <ele>2613.1999511719</ele>
        <time>2021-05-09T10:08:44.000Z</time>
      </trkpt>
      <trkpt lat="44.35305" lon="6.86837">
        <ele>2613.1999511719</ele>
        <time>2021-05-09T10:08:46.000Z</time>
      </trkpt>
      <trkpt lat="44.353" lon="6.86824">
        <ele>2613</ele>
        <time>2021-05-09T10:08:49.000Z</time>
      </trkpt>
      <trkpt lat="44.35297" lon="6.86816">
        <ele>2612.6000976562</ele>
        <time>2021-05-09T10:08:51.000Z</time>
      </trkpt>
      <trkpt lat="44.35293" lon="6.86804">
        <ele>2612</ele>
        <time>2021-05-09T10:08:53.000Z</time>
      </trkpt>
      <trkpt lat="44.35291" lon="6.86798">
        <ele>2611.3999023438</ele>
        <time>2021-05-09T10:08:54.000Z</time>
      </trkpt>
      <trkpt lat="44.35288" lon="6.86781">
        <ele>2610</ele>
        <time>2021-05-09T10:08:56.000Z</time>
      </trkpt>
      <trkpt lat="44.35287" lon="6.86774">
        <ele>2609.1999511719</ele>
        <time>2021-05-09T10:08:57.000Z</time>
      </trkpt>
      <trkpt lat="44.35287" lon="6.86768">
        <ele>2608.1999511719</ele>
        <time>2021-05-09T10:08:58.000Z</time>
      </trkpt>
      <trkpt lat="44.35286" lon="6.86761">
        <ele>2607.1999511719</ele>
        <time>2021-05-09T10:09:00.000Z</time>
      </trkpt>
      <trkpt lat="44.35284" lon="6.86758">
        <ele>2606</ele>
        <time>2021-05-09T10:09:03.000Z</time>
      </trkpt>
      <trkpt lat="44.35283" lon="6.86753">
        <ele>2604.8000488281</ele>
        <time>2021-05-09T10:09:06.000Z</time>
      </trkpt>
      <trkpt lat="44.35281" lon="6.86749">
        <ele>2604.3999023438</ele>
        <time>2021-05-09T10:09:08.000Z</time>
      </trkpt>
      <trkpt lat="44.35278" lon="6.86756">
        <ele>2603.8000488281</ele>
        <time>2021-05-09T10:09:10.000Z</time>
      </trkpt>
      <trkpt lat="44.35271" lon="6.86758">
        <ele>2604.6000976562</ele>
        <time>2021-05-09T10:09:11.000Z</time>
      </trkpt>
      <trkpt lat="44.35267" lon="6.86757">
        <ele>2603.1999511719</ele>
        <time>2021-05-09T10:09:12.000Z</time>
      </trkpt>
      <trkpt lat="44.35264" lon="6.86754">
        <ele>2602</ele>
        <time>2021-05-09T10:09:13.000Z</time>
      </trkpt>
      <trkpt lat="44.35262" lon="6.8675">
        <ele>2601.3999023438</ele>
        <time>2021-05-09T10:09:14.000Z</time>
      </trkpt>
      <trkpt lat="44.35259" lon="6.86739">
        <ele>2600</ele>
        <time>2021-05-09T10:09:17.000Z</time>
      </trkpt>
      <trkpt lat="44.3525" lon="6.86722">
        <ele>2599.8000488281</ele>
        <time>2021-05-09T10:09:20.000Z</time>
      </trkpt>
      <trkpt lat="44.35248" lon="6.86716">
        <ele>2599.1999511719</ele>
        <time>2021-05-09T10:09:21.000Z</time>
      </trkpt>
      <trkpt lat="44.35247" lon="6.86711">
        <ele>2598.6000976562</ele>
        <time>2021-05-09T10:09:22.000Z</time>
      </trkpt>
      <trkpt lat="44.35246" lon="6.86708">
        <ele>2597.8000488281</ele>
        <time>2021-05-09T10:09:23.000Z</time>
      </trkpt>
      <trkpt lat="44.35244" lon="6.86704">
        <ele>2597.1999511719</ele>
        <time>2021-05-09T10:09:24.000Z</time>
      </trkpt>
      <trkpt lat="44.35242" lon="6.86695">
        <ele>2596.1999511719</ele>
        <time>2021-05-09T10:09:27.000Z</time>
      </trkpt>
      <trkpt lat="44.35242" lon="6.86694">
        <ele>2596.1999511719</ele>
        <time>2021-05-09T10:09:29.000Z</time>
      </trkpt>
      <trkpt lat="44.35239" lon="6.86688">
        <ele>2595.1999511719</ele>
        <time>2021-05-09T10:09:36.000Z</time>
      </trkpt>
      <trkpt lat="44.35242" lon="6.86687">
        <ele>2595</ele>
        <time>2021-05-09T10:09:47.000Z</time>
      </trkpt>
      <trkpt lat="44.35242" lon="6.86689">
        <ele>2594.8000488281</ele>
        <time>2021-05-09T10:10:05.000Z</time>
      </trkpt>
      <trkpt lat="44.35242" lon="6.86689">
        <ele>2594.8000488281</ele>
        <time>2021-05-09T10:10:06.000Z</time>
      </trkpt>
      <trkpt lat="44.35242" lon="6.86689">
        <ele>2594.6000976562</ele>
        <time>2021-05-09T10:10:09.000Z</time>
      </trkpt>
      <trkpt lat="44.35241" lon="6.86689">
        <ele>2594.6000976562</ele>
        <time>2021-05-09T10:10:11.000Z</time>
      </trkpt>
      <trkpt lat="44.35241" lon="6.8669">
        <ele>2594.8000488281</ele>
        <time>2021-05-09T10:10:14.000Z</time>
      </trkpt>
      <trkpt lat="44.35241" lon="6.8669">
        <ele>2595</ele>
        <time>2021-05-09T10:10:24.000Z</time>
      </trkpt>
      <trkpt lat="44.3524" lon="6.86691">
        <ele>2595</ele>
        <time>2021-05-09T10:10:34.000Z</time>
      </trkpt>
      <trkpt lat="44.3524" lon="6.86691">
        <ele>2595.1999511719</ele>
        <time>2021-05-09T10:10:39.000Z</time>
      </trkpt>
      <trkpt lat="44.35239" lon="6.86691">
        <ele>2595.1999511719</ele>
        <time>2021-05-09T10:10:40.000Z</time>
      </trkpt>
      <trkpt lat="44.3524" lon="6.86692">
        <ele>2595.1999511719</ele>
        <time>2021-05-09T10:10:43.000Z</time>
      </trkpt>
      <trkpt lat="44.35241" lon="6.86692">
        <ele>2595.1999511719</ele>
        <time>2021-05-09T10:10:44.000Z</time>
      </trkpt>
      <trkpt lat="44.3524" lon="6.86692">
        <ele>2595.1999511719</ele>
        <time>2021-05-09T10:10:49.000Z</time>
      </trkpt>
      <trkpt lat="44.3524" lon="6.8669">
        <ele>2595.1999511719</ele>
        <time>2021-05-09T10:10:54.000Z</time>
      </trkpt>
      <trkpt lat="44.35241" lon="6.86689">
        <ele>2595.1999511719</ele>
        <time>2021-05-09T10:10:57.000Z</time>
      </trkpt>
      <trkpt lat="44.35241" lon="6.86689">
        <ele>2595.1999511719</ele>
        <time>2021-05-09T10:10:58.000Z</time>
      </trkpt>
      <trkpt lat="44.35241" lon="6.8669">
        <ele>2595.1999511719</ele>
        <time>2021-05-09T10:10:59.000Z</time>
      </trkpt>
      <trkpt lat="44.35241" lon="6.86689">
        <ele>2595.1999511719</ele>
        <time>2021-05-09T10:11:01.000Z</time>
      </trkpt>
      <trkpt lat="44.35241" lon="6.86689">
        <ele>2595.1999511719</ele>
        <time>2021-05-09T10:11:03.000Z</time>
      </trkpt>
      <trkpt lat="44.35241" lon="6.86689">
        <ele>2595.1999511719</ele>
        <time>2021-05-09T10:11:06.000Z</time>
      </trkpt>
      <trkpt lat="44.35241" lon="6.86689">
        <ele>2595.1999511719</ele>
        <time>2021-05-09T10:11:09.000Z</time>
      </trkpt>
      <trkpt lat="44.35235" lon="6.86678">
        <ele>2595.1999511719</ele>
        <time>2021-05-09T10:11:14.000Z</time>
      </trkpt>
      <trkpt lat="44.35234" lon="6.86672">
        <ele>2594.3999023438</ele>
        <time>2021-05-09T10:11:18.000Z</time>
      </trkpt>
      <trkpt lat="44.35232" lon="6.86671">
        <ele>2592.1999511719</ele>
        <time>2021-05-09T10:11:19.000Z</time>
      </trkpt>
      <trkpt lat="44.35229" lon="6.86672">
        <ele>2591.1999511719</ele>
        <time>2021-05-09T10:11:20.000Z</time>
      </trkpt>
      <trkpt lat="44.35227" lon="6.86673">
        <ele>2590.6000976562</ele>
        <time>2021-05-09T10:11:21.000Z</time>
      </trkpt>
      <trkpt lat="44.35224" lon="6.86674">
        <ele>2590</ele>
        <time>2021-05-09T10:11:22.000Z</time>
      </trkpt>
      <trkpt lat="44.35218" lon="6.86676">
        <ele>2590.1999511719</ele>
        <time>2021-05-09T10:11:23.000Z</time>
      </trkpt>
      <trkpt lat="44.35215" lon="6.86677">
        <ele>2590</ele>
        <time>2021-05-09T10:11:24.000Z</time>
      </trkpt>
      <trkpt lat="44.35206" lon="6.86675">
        <ele>2589</ele>
        <time>2021-05-09T10:11:26.000Z</time>
      </trkpt>
      <trkpt lat="44.35203" lon="6.86672">
        <ele>2588.3999023438</ele>
        <time>2021-05-09T10:11:27.000Z</time>
      </trkpt>
      <trkpt lat="44.35201" lon="6.86669">
        <ele>2587.8000488281</ele>
        <time>2021-05-09T10:11:28.000Z</time>
      </trkpt>
      <trkpt lat="44.35198" lon="6.86668">
        <ele>2587</ele>
        <time>2021-05-09T10:11:29.000Z</time>
      </trkpt>
      <trkpt lat="44.35198" lon="6.86667">
        <ele>2586</ele>
        <time>2021-05-09T10:11:30.000Z</time>
      </trkpt>
      <trkpt lat="44.35198" lon="6.86667">
        <ele>2585.1999511719</ele>
        <time>2021-05-09T10:11:31.000Z</time>
      </trkpt>
      <trkpt lat="44.35193" lon="6.86661">
        <ele>2584</ele>
        <time>2021-05-09T10:11:34.000Z</time>
      </trkpt>
      <trkpt lat="44.35192" lon="6.86647">
        <ele>2582.3999023438</ele>
        <time>2021-05-09T10:11:37.000Z</time>
      </trkpt>
      <trkpt lat="44.3519" lon="6.86643">
        <ele>2581.3999023438</ele>
        <time>2021-05-09T10:11:38.000Z</time>
      </trkpt>
      <trkpt lat="44.35188" lon="6.86641">
        <ele>2580</ele>
        <time>2021-05-09T10:11:39.000Z</time>
      </trkpt>
      <trkpt lat="44.35185" lon="6.86639">
        <ele>2579</ele>
        <time>2021-05-09T10:11:40.000Z</time>
      </trkpt>
      <trkpt lat="44.35177" lon="6.86633">
        <ele>2577.3999023438</ele>
        <time>2021-05-09T10:11:42.000Z</time>
      </trkpt>
      <trkpt lat="44.35175" lon="6.86626">
        <ele>2576.6000976562</ele>
        <time>2021-05-09T10:11:43.000Z</time>
      </trkpt>
      <trkpt lat="44.35175" lon="6.86626">
        <ele>2575.8000488281</ele>
        <time>2021-05-09T10:11:44.000Z</time>
      </trkpt>
      <trkpt lat="44.35174" lon="6.86619">
        <ele>2574.3999023438</ele>
        <time>2021-05-09T10:11:45.000Z</time>
      </trkpt>
      <trkpt lat="44.35176" lon="6.86611">
        <ele>2573.1999511719</ele>
        <time>2021-05-09T10:11:46.000Z</time>
      </trkpt>
      <trkpt lat="44.35176" lon="6.86611">
        <ele>2572</ele>
        <time>2021-05-09T10:11:47.000Z</time>
      </trkpt>
      <trkpt lat="44.35178" lon="6.86602">
        <ele>2570.8000488281</ele>
        <time>2021-05-09T10:11:49.000Z</time>
      </trkpt>
      <trkpt lat="44.35181" lon="6.8659">
        <ele>2570.3999023438</ele>
        <time>2021-05-09T10:11:51.000Z</time>
      </trkpt>
      <trkpt lat="44.35186" lon="6.86582">
        <ele>2569.6000976562</ele>
        <time>2021-05-09T10:11:53.000Z</time>
      </trkpt>
      <trkpt lat="44.35188" lon="6.86579">
        <ele>2568.6000976562</ele>
        <time>2021-05-09T10:11:55.000Z</time>
      </trkpt>
      <trkpt lat="44.35192" lon="6.86575">
        <ele>2567.8000488281</ele>
        <time>2021-05-09T10:11:57.000Z</time>
      </trkpt>
      <trkpt lat="44.35191" lon="6.86573">
        <ele>2566.8000488281</ele>
        <time>2021-05-09T10:11:58.000Z</time>
      </trkpt>
      <trkpt lat="44.3519" lon="6.86572">
        <ele>2565.8000488281</ele>
        <time>2021-05-09T10:11:59.000Z</time>
      </trkpt>
      <trkpt lat="44.35185" lon="6.86568">
        <ele>2564.1999511719</ele>
        <time>2021-05-09T10:12:01.000Z</time>
      </trkpt>
      <trkpt lat="44.35186" lon="6.86562">
        <ele>2563</ele>
        <time>2021-05-09T10:12:03.000Z</time>
      </trkpt>
      <trkpt lat="44.35188" lon="6.86561">
        <ele>2562</ele>
        <time>2021-05-09T10:12:04.000Z</time>
      </trkpt>
      <trkpt lat="44.35188" lon="6.8656">
        <ele>2560.8000488281</ele>
        <time>2021-05-09T10:12:05.000Z</time>
      </trkpt>
      <trkpt lat="44.35189" lon="6.8656">
        <ele>2559.8000488281</ele>
        <time>2021-05-09T10:12:06.000Z</time>
      </trkpt>
      <trkpt lat="44.35189" lon="6.86559">
        <ele>2558.8000488281</ele>
        <time>2021-05-09T10:12:09.000Z</time>
      </trkpt>
      <trkpt lat="44.35189" lon="6.86549">
        <ele>2558.8000488281</ele>
        <time>2021-05-09T10:12:15.000Z</time>
      </trkpt>
      <trkpt lat="44.3519" lon="6.86535">
        <ele>2557.6000976562</ele>
        <time>2021-05-09T10:12:17.000Z</time>
      </trkpt>
      <trkpt lat="44.35192" lon="6.86528">
        <ele>2556</ele>
        <time>2021-05-09T10:12:18.000Z</time>
      </trkpt>
      <trkpt lat="44.3519" lon="6.86522">
        <ele>2554.1999511719</ele>
        <time>2021-05-09T10:12:19.000Z</time>
      </trkpt>
      <trkpt lat="44.35189" lon="6.86508">
        <ele>2552.8000488281</ele>
        <time>2021-05-09T10:12:20.000Z</time>
      </trkpt>
      <trkpt lat="44.35189" lon="6.86508">
        <ele>2551.8000488281</ele>
        <time>2021-05-09T10:12:21.000Z</time>
      </trkpt>
      <trkpt lat="44.35191" lon="6.86504">
        <ele>2550.6000976562</ele>
        <time>2021-05-09T10:12:22.000Z</time>
      </trkpt>
      <trkpt lat="44.35192" lon="6.86499">
        <ele>2549.1999511719</ele>
        <time>2021-05-09T10:12:23.000Z</time>
      </trkpt>
      <trkpt lat="44.3519" lon="6.86495">
        <ele>2547.8000488281</ele>
        <time>2021-05-09T10:12:24.000Z</time>
      </trkpt>
      <trkpt lat="44.35189" lon="6.8649">
        <ele>2546.8000488281</ele>
        <time>2021-05-09T10:12:25.000Z</time>
      </trkpt>
      <trkpt lat="44.3519" lon="6.86486">
        <ele>2546.1999511719</ele>
        <time>2021-05-09T10:12:26.000Z</time>
      </trkpt>
      <trkpt lat="44.35192" lon="6.86485">
        <ele>2545</ele>
        <time>2021-05-09T10:12:27.000Z</time>
      </trkpt>
      <trkpt lat="44.35192" lon="6.86487">
        <ele>2544</ele>
        <time>2021-05-09T10:12:28.000Z</time>
      </trkpt>
      <trkpt lat="44.35194" lon="6.86488">
        <ele>2542.6000976562</ele>
        <time>2021-05-09T10:12:30.000Z</time>
      </trkpt>
      <trkpt lat="44.35195" lon="6.8649">
        <ele>2542.1999511719</ele>
        <time>2021-05-09T10:12:37.000Z</time>
      </trkpt>
      <trkpt lat="44.35195" lon="6.8649">
        <ele>2541.8000488281</ele>
        <time>2021-05-09T10:12:41.000Z</time>
      </trkpt>
      <trkpt lat="44.35195" lon="6.8649">
        <ele>2541.3999023438</ele>
        <time>2021-05-09T10:12:42.000Z</time>
      </trkpt>
      <trkpt lat="44.35196" lon="6.8649">
        <ele>2541.1999511719</ele>
        <time>2021-05-09T10:12:45.000Z</time>
      </trkpt>
      <trkpt lat="44.35193" lon="6.86488">
        <ele>2542.6000976562</ele>
        <time>2021-05-09T10:12:51.000Z</time>
      </trkpt>
      <trkpt lat="44.35198" lon="6.8648">
        <ele>2542.6000976562</ele>
        <time>2021-05-09T10:12:55.000Z</time>
      </trkpt>
      <trkpt lat="44.352" lon="6.86481">
        <ele>2541.6000976562</ele>
        <time>2021-05-09T10:12:57.000Z</time>
      </trkpt>
      <trkpt lat="44.35203" lon="6.86483">
        <ele>2540.3999023438</ele>
        <time>2021-05-09T10:12:59.000Z</time>
      </trkpt>
      <trkpt lat="44.35203" lon="6.86483">
        <ele>2540</ele>
        <time>2021-05-09T10:13:00.000Z</time>
      </trkpt>
      <trkpt lat="44.35205" lon="6.86478">
        <ele>2539.6000976562</ele>
        <time>2021-05-09T10:13:04.000Z</time>
      </trkpt>
      <trkpt lat="44.35205" lon="6.86476">
        <ele>2539.1999511719</ele>
        <time>2021-05-09T10:13:06.000Z</time>
      </trkpt>
      <trkpt lat="44.35205" lon="6.86475">
        <ele>2538.6000976562</ele>
        <time>2021-05-09T10:13:08.000Z</time>
      </trkpt>
      <trkpt lat="44.35203" lon="6.86474">
        <ele>2538.1999511719</ele>
        <time>2021-05-09T10:13:10.000Z</time>
      </trkpt>
      <trkpt lat="44.35199" lon="6.8647">
        <ele>2537</ele>
        <time>2021-05-09T10:13:19.000Z</time>
      </trkpt>
      <trkpt lat="44.35199" lon="6.86469">
        <ele>2536.3999023438</ele>
        <time>2021-05-09T10:13:24.000Z</time>
      </trkpt>
      <trkpt lat="44.35198" lon="6.86468">
        <ele>2536</ele>
        <time>2021-05-09T10:13:26.000Z</time>
      </trkpt>
      <trkpt lat="44.35199" lon="6.86467">
        <ele>2535</ele>
        <time>2021-05-09T10:13:31.000Z</time>
      </trkpt>
      <trkpt lat="44.35192" lon="6.86461">
        <ele>2534.1999511719</ele>
        <time>2021-05-09T10:13:37.000Z</time>
      </trkpt>
      <trkpt lat="44.35193" lon="6.86457">
        <ele>2534</ele>
        <time>2021-05-09T10:13:38.000Z</time>
      </trkpt>
      <trkpt lat="44.35195" lon="6.86449">
        <ele>2533.1999511719</ele>
        <time>2021-05-09T10:13:40.000Z</time>
      </trkpt>
      <trkpt lat="44.35198" lon="6.86446">
        <ele>2532</ele>
        <time>2021-05-09T10:13:41.000Z</time>
      </trkpt>
      <trkpt lat="44.35201" lon="6.86444">
        <ele>2530.6000976562</ele>
        <time>2021-05-09T10:13:42.000Z</time>
      </trkpt>
      <trkpt lat="44.35204" lon="6.8644">
        <ele>2529</ele>
        <time>2021-05-09T10:13:43.000Z</time>
      </trkpt>
      <trkpt lat="44.35208" lon="6.86438">
        <ele>2527.8000488281</ele>
        <time>2021-05-09T10:13:44.000Z</time>
      </trkpt>
      <trkpt lat="44.35217" lon="6.86435">
        <ele>2525.6000976562</ele>
        <time>2021-05-09T10:13:46.000Z</time>
      </trkpt>
      <trkpt lat="44.35218" lon="6.86431">
        <ele>2523.6000976562</ele>
        <time>2021-05-09T10:13:47.000Z</time>
      </trkpt>
      <trkpt lat="44.35217" lon="6.86426">
        <ele>2521.3999023438</ele>
        <time>2021-05-09T10:13:48.000Z</time>
      </trkpt>
      <trkpt lat="44.35216" lon="6.86421">
        <ele>2520</ele>
        <time>2021-05-09T10:13:49.000Z</time>
      </trkpt>
      <trkpt lat="44.35218" lon="6.86415">
        <ele>2519</ele>
        <time>2021-05-09T10:13:51.000Z</time>
      </trkpt>
      <trkpt lat="44.35223" lon="6.86407">
        <ele>2518.3999023438</ele>
        <time>2021-05-09T10:13:54.000Z</time>
      </trkpt>
      <trkpt lat="44.35231" lon="6.86406">
        <ele>2517.6000976562</ele>
        <time>2021-05-09T10:13:56.000Z</time>
      </trkpt>
      <trkpt lat="44.35234" lon="6.864">
        <ele>2515.3999023438</ele>
        <time>2021-05-09T10:13:58.000Z</time>
      </trkpt>
      <trkpt lat="44.35235" lon="6.86391">
        <ele>2514.3999023438</ele>
        <time>2021-05-09T10:14:00.000Z</time>
      </trkpt>
      <trkpt lat="44.35235" lon="6.86385">
        <ele>2513.8000488281</ele>
        <time>2021-05-09T10:14:02.000Z</time>
      </trkpt>
      <trkpt lat="44.35234" lon="6.86383">
        <ele>2513</ele>
        <time>2021-05-09T10:14:03.000Z</time>
      </trkpt>
      <trkpt lat="44.35233" lon="6.86383">
        <ele>2512</ele>
        <time>2021-05-09T10:14:04.000Z</time>
      </trkpt>
      <trkpt lat="44.35232" lon="6.86382">
        <ele>2511</ele>
        <time>2021-05-09T10:14:05.000Z</time>
      </trkpt>
      <trkpt lat="44.35231" lon="6.86382">
        <ele>2510.1999511719</ele>
        <time>2021-05-09T10:14:06.000Z</time>
      </trkpt>
      <trkpt lat="44.35231" lon="6.86382">
        <ele>2509.6000976562</ele>
        <time>2021-05-09T10:14:07.000Z</time>
      </trkpt>
      <trkpt lat="44.35225" lon="6.86385">
        <ele>2509.1999511719</ele>
        <time>2021-05-09T10:14:28.000Z</time>
      </trkpt>
      <trkpt lat="44.3522" lon="6.86384">
        <ele>2509.3999023438</ele>
        <time>2021-05-09T10:14:32.000Z</time>
      </trkpt>
      <trkpt lat="44.35218" lon="6.86385">
        <ele>2509.8000488281</ele>
        <time>2021-05-09T10:14:37.000Z</time>
      </trkpt>
      <trkpt lat="44.35219" lon="6.86386">
        <ele>2509.3999023438</ele>
        <time>2021-05-09T10:14:50.000Z</time>
      </trkpt>
      <trkpt lat="44.35222" lon="6.86387">
        <ele>2509.1999511719</ele>
        <time>2021-05-09T10:14:57.000Z</time>
      </trkpt>
      <trkpt lat="44.35229" lon="6.86384">
        <ele>2508.8000488281</ele>
        <time>2021-05-09T10:15:10.000Z</time>
      </trkpt>
      <trkpt lat="44.35229" lon="6.86384">
        <ele>2509</ele>
        <time>2021-05-09T10:15:28.000Z</time>
      </trkpt>
      <trkpt lat="44.35227" lon="6.86382">
        <ele>2509</ele>
        <time>2021-05-09T10:15:33.000Z</time>
      </trkpt>
      <trkpt lat="44.35224" lon="6.86382">
        <ele>2509</ele>
        <time>2021-05-09T10:15:36.000Z</time>
      </trkpt>
      <trkpt lat="44.35225" lon="6.86382">
        <ele>2509</ele>
        <time>2021-05-09T10:15:44.000Z</time>
      </trkpt>
      <trkpt lat="44.35226" lon="6.86382">
        <ele>2509</ele>
        <time>2021-05-09T10:15:52.000Z</time>
      </trkpt>
      <trkpt lat="44.35225" lon="6.86382">
        <ele>2509</ele>
        <time>2021-05-09T10:15:54.000Z</time>
      </trkpt>
      <trkpt lat="44.35224" lon="6.86381">
        <ele>2509</ele>
        <time>2021-05-09T10:15:56.000Z</time>
      </trkpt>
      <trkpt lat="44.35223" lon="6.86381">
        <ele>2509</ele>
        <time>2021-05-09T10:15:57.000Z</time>
      </trkpt>
      <trkpt lat="44.35219" lon="6.86379">
        <ele>2509</ele>
        <time>2021-05-09T10:15:59.000Z</time>
      </trkpt>
      <trkpt lat="44.35214" lon="6.86376">
        <ele>2509</ele>
        <time>2021-05-09T10:16:01.000Z</time>
      </trkpt>
      <trkpt lat="44.35208" lon="6.86376">
        <ele>2509</ele>
        <time>2021-05-09T10:16:02.000Z</time>
      </trkpt>
      <trkpt lat="44.35209" lon="6.86367">
        <ele>2509</ele>
        <time>2021-05-09T10:16:04.000Z</time>
      </trkpt>
      <trkpt lat="44.3521" lon="6.86363">
        <ele>2506.3999023438</ele>
        <time>2021-05-09T10:16:05.000Z</time>
      </trkpt>
      <trkpt lat="44.35211" lon="6.8636">
        <ele>2503.3999023438</ele>
        <time>2021-05-09T10:16:06.000Z</time>
      </trkpt>
      <trkpt lat="44.35209" lon="6.86356">
        <ele>2501.1999511719</ele>
        <time>2021-05-09T10:16:07.000Z</time>
      </trkpt>
      <trkpt lat="44.35207" lon="6.86351">
        <ele>2499.3999023438</ele>
        <time>2021-05-09T10:16:08.000Z</time>
      </trkpt>
      <trkpt lat="44.35207" lon="6.86345">
        <ele>2497.3999023438</ele>
        <time>2021-05-09T10:16:09.000Z</time>
      </trkpt>
      <trkpt lat="44.35208" lon="6.86341">
        <ele>2496.1999511719</ele>
        <time>2021-05-09T10:16:10.000Z</time>
      </trkpt>
      <trkpt lat="44.35204" lon="6.86335">
        <ele>2496.3999023438</ele>
        <time>2021-05-09T10:16:12.000Z</time>
      </trkpt>
      <trkpt lat="44.35198" lon="6.86335">
        <ele>2494</ele>
        <time>2021-05-09T10:16:14.000Z</time>
      </trkpt>
      <trkpt lat="44.35194" lon="6.86333">
        <ele>2492.6000976562</ele>
        <time>2021-05-09T10:16:15.000Z</time>
      </trkpt>
      <trkpt lat="44.35192" lon="6.86329">
        <ele>2491.3999023438</ele>
        <time>2021-05-09T10:16:16.000Z</time>
      </trkpt>
      <trkpt lat="44.35192" lon="6.86325">
        <ele>2490.1999511719</ele>
        <time>2021-05-09T10:16:17.000Z</time>
      </trkpt>
      <trkpt lat="44.35191" lon="6.86321">
        <ele>2489</ele>
        <time>2021-05-09T10:16:18.000Z</time>
      </trkpt>
      <trkpt lat="44.35189" lon="6.86319">
        <ele>2487.6000976562</ele>
        <time>2021-05-09T10:16:19.000Z</time>
      </trkpt>
      <trkpt lat="44.35185" lon="6.86315">
        <ele>2486</ele>
        <time>2021-05-09T10:16:20.000Z</time>
      </trkpt>
      <trkpt lat="44.35184" lon="6.86311">
        <ele>2484.8000488281</ele>
        <time>2021-05-09T10:16:21.000Z</time>
      </trkpt>
      <trkpt lat="44.35184" lon="6.86306">
        <ele>2483.3999023438</ele>
        <time>2021-05-09T10:16:22.000Z</time>
      </trkpt>
      <trkpt lat="44.35183" lon="6.86302">
        <ele>2482.3999023438</ele>
        <time>2021-05-09T10:16:23.000Z</time>
      </trkpt>
      <trkpt lat="44.35181" lon="6.863">
        <ele>2481.3999023438</ele>
        <time>2021-05-09T10:16:24.000Z</time>
      </trkpt>
      <trkpt lat="44.35176" lon="6.86299">
        <ele>2480.3999023438</ele>
        <time>2021-05-09T10:16:25.000Z</time>
      </trkpt>
      <trkpt lat="44.35173" lon="6.86296">
        <ele>2479</ele>
        <time>2021-05-09T10:16:26.000Z</time>
      </trkpt>
      <trkpt lat="44.35171" lon="6.86291">
        <ele>2477.6000976562</ele>
        <time>2021-05-09T10:16:27.000Z</time>
      </trkpt>
      <trkpt lat="44.3517" lon="6.86283">
        <ele>2476</ele>
        <time>2021-05-09T10:16:28.000Z</time>
      </trkpt>
      <trkpt lat="44.35169" lon="6.86276">
        <ele>2474.6000976562</ele>
        <time>2021-05-09T10:16:29.000Z</time>
      </trkpt>
      <trkpt lat="44.35168" lon="6.86271">
        <ele>2472.8000488281</ele>
        <time>2021-05-09T10:16:30.000Z</time>
      </trkpt>
      <trkpt lat="44.35165" lon="6.86269">
        <ele>2471.1999511719</ele>
        <time>2021-05-09T10:16:31.000Z</time>
      </trkpt>
      <trkpt lat="44.35162" lon="6.86267">
        <ele>2469.3999023438</ele>
        <time>2021-05-09T10:16:32.000Z</time>
      </trkpt>
      <trkpt lat="44.35159" lon="6.86265">
        <ele>2468.1999511719</ele>
        <time>2021-05-09T10:16:33.000Z</time>
      </trkpt>
      <trkpt lat="44.35156" lon="6.86262">
        <ele>2467</ele>
        <time>2021-05-09T10:16:34.000Z</time>
      </trkpt>
      <trkpt lat="44.35148" lon="6.86258">
        <ele>2465.8000488281</ele>
        <time>2021-05-09T10:16:36.000Z</time>
      </trkpt>
      <trkpt lat="44.35136" lon="6.86254">
        <ele>2465</ele>
        <time>2021-05-09T10:16:38.000Z</time>
      </trkpt>
      <trkpt lat="44.35133" lon="6.86251">
        <ele>2464.6000976562</ele>
        <time>2021-05-09T10:16:39.000Z</time>
      </trkpt>
      <trkpt lat="44.35131" lon="6.86248">
        <ele>2464</ele>
        <time>2021-05-09T10:16:40.000Z</time>
      </trkpt>
      <trkpt lat="44.35128" lon="6.86245">
        <ele>2463.1999511719</ele>
        <time>2021-05-09T10:16:42.000Z</time>
      </trkpt>
      <trkpt lat="44.35125" lon="6.86244">
        <ele>2462.8000488281</ele>
        <time>2021-05-09T10:16:44.000Z</time>
      </trkpt>
      <trkpt lat="44.35123" lon="6.86245">
        <ele>2463</ele>
        <time>2021-05-09T10:16:57.000Z</time>
      </trkpt>
      <trkpt lat="44.35124" lon="6.86243">
        <ele>2463.1999511719</ele>
        <time>2021-05-09T10:17:11.000Z</time>
      </trkpt>
      <trkpt lat="44.35124" lon="6.86243">
        <ele>2463.1999511719</ele>
        <time>2021-05-09T10:17:12.000Z</time>
      </trkpt>
      <trkpt lat="44.35124" lon="6.86244">
        <ele>2463</ele>
        <time>2021-05-09T10:17:14.000Z</time>
      </trkpt>
      <trkpt lat="44.35124" lon="6.86244">
        <ele>2462.1999511719</ele>
        <time>2021-05-09T10:17:21.000Z</time>
      </trkpt>
      <trkpt lat="44.35123" lon="6.86244">
        <ele>2463.3999023438</ele>
        <time>2021-05-09T10:17:33.000Z</time>
      </trkpt>
      <trkpt lat="44.35123" lon="6.86244">
        <ele>2463.6000976562</ele>
        <time>2021-05-09T10:17:35.000Z</time>
      </trkpt>
      <trkpt lat="44.35123" lon="6.86244">
        <ele>2463.8000488281</ele>
        <time>2021-05-09T10:17:37.000Z</time>
      </trkpt>
      <trkpt lat="44.35122" lon="6.86244">
        <ele>2463.1999511719</ele>
        <time>2021-05-09T10:17:43.000Z</time>
      </trkpt>
      <trkpt lat="44.35123" lon="6.86243">
        <ele>2462.6000976562</ele>
        <time>2021-05-09T10:17:48.000Z</time>
      </trkpt>
      <trkpt lat="44.35122" lon="6.86243">
        <ele>2462.6000976562</ele>
        <time>2021-05-09T10:17:49.000Z</time>
      </trkpt>
      <trkpt lat="44.35122" lon="6.86243">
        <ele>2462.6000976562</ele>
        <time>2021-05-09T10:17:50.000Z</time>
      </trkpt>
      <trkpt lat="44.35122" lon="6.86243">
        <ele>2462.8000488281</ele>
        <time>2021-05-09T10:17:52.000Z</time>
      </trkpt>
      <trkpt lat="44.35124" lon="6.86244">
        <ele>2463</ele>
        <time>2021-05-09T10:18:02.000Z</time>
      </trkpt>
      <trkpt lat="44.35123" lon="6.86244">
        <ele>2463</ele>
        <time>2021-05-09T10:18:09.000Z</time>
      </trkpt>
      <trkpt lat="44.35122" lon="6.86244">
        <ele>2463</ele>
        <time>2021-05-09T10:18:11.000Z</time>
      </trkpt>
      <trkpt lat="44.35122" lon="6.86243">
        <ele>2463</ele>
        <time>2021-05-09T10:18:14.000Z</time>
      </trkpt>
      <trkpt lat="44.35121" lon="6.86242">
        <ele>2463</ele>
        <time>2021-05-09T10:18:20.000Z</time>
      </trkpt>
      <trkpt lat="44.35121" lon="6.86244">
        <ele>2463</ele>
        <time>2021-05-09T10:18:23.000Z</time>
      </trkpt>
      <trkpt lat="44.35121" lon="6.86244">
        <ele>2463</ele>
        <time>2021-05-09T10:18:29.000Z</time>
      </trkpt>
      <trkpt lat="44.3512" lon="6.86243">
        <ele>2463</ele>
        <time>2021-05-09T10:18:35.000Z</time>
      </trkpt>
      <trkpt lat="44.3512" lon="6.86243">
        <ele>2463</ele>
        <time>2021-05-09T10:18:44.000Z</time>
      </trkpt>
      <trkpt lat="44.3512" lon="6.86243">
        <ele>2463</ele>
        <time>2021-05-09T10:18:51.000Z</time>
      </trkpt>
      <trkpt lat="44.35119" lon="6.86244">
        <ele>2463</ele>
        <time>2021-05-09T10:18:57.000Z</time>
      </trkpt>
      <trkpt lat="44.35118" lon="6.86246">
        <ele>2463</ele>
        <time>2021-05-09T10:19:05.000Z</time>
      </trkpt>
      <trkpt lat="44.35117" lon="6.86246">
        <ele>2463</ele>
        <time>2021-05-09T10:19:10.000Z</time>
      </trkpt>
      <trkpt lat="44.35117" lon="6.86246">
        <ele>2463</ele>
        <time>2021-05-09T10:19:12.000Z</time>
      </trkpt>
      <trkpt lat="44.35117" lon="6.86244">
        <ele>2463</ele>
        <time>2021-05-09T10:19:16.000Z</time>
      </trkpt>
      <trkpt lat="44.35118" lon="6.86242">
        <ele>2463</ele>
        <time>2021-05-09T10:19:33.000Z</time>
      </trkpt>
      <trkpt lat="44.35118" lon="6.86242">
        <ele>2463</ele>
        <time>2021-05-09T10:19:35.000Z</time>
      </trkpt>
      <trkpt lat="44.35119" lon="6.86243">
        <ele>2463</ele>
        <time>2021-05-09T10:19:44.000Z</time>
      </trkpt>
      <trkpt lat="44.35119" lon="6.86243">
        <ele>2463</ele>
        <time>2021-05-09T10:19:45.000Z</time>
      </trkpt>
      <trkpt lat="44.35119" lon="6.86244">
        <ele>2463</ele>
        <time>2021-05-09T10:19:48.000Z</time>
      </trkpt>
      <trkpt lat="44.35119" lon="6.86244">
        <ele>2463</ele>
        <time>2021-05-09T10:19:51.000Z</time>
      </trkpt>
      <trkpt lat="44.35118" lon="6.86244">
        <ele>2463</ele>
        <time>2021-05-09T10:19:54.000Z</time>
      </trkpt>
      <trkpt lat="44.35118" lon="6.86243">
        <ele>2463</ele>
        <time>2021-05-09T10:19:57.000Z</time>
      </trkpt>
      <trkpt lat="44.35118" lon="6.86241">
        <ele>2463</ele>
        <time>2021-05-09T10:20:03.000Z</time>
      </trkpt>
      <trkpt lat="44.35119" lon="6.86246">
        <ele>2463</ele>
        <time>2021-05-09T10:20:11.000Z</time>
      </trkpt>
      <trkpt lat="44.3512" lon="6.86245">
        <ele>2463</ele>
        <time>2021-05-09T10:20:17.000Z</time>
      </trkpt>
      <trkpt lat="44.3512" lon="6.86247">
        <ele>2463</ele>
        <time>2021-05-09T10:20:26.000Z</time>
      </trkpt>
      <trkpt lat="44.3512" lon="6.86247">
        <ele>2463</ele>
        <time>2021-05-09T10:20:27.000Z</time>
      </trkpt>
      <trkpt lat="44.3512" lon="6.86247">
        <ele>2463</ele>
        <time>2021-05-09T10:20:31.000Z</time>
      </trkpt>
      <trkpt lat="44.35121" lon="6.86248">
        <ele>2463</ele>
        <time>2021-05-09T10:20:35.000Z</time>
      </trkpt>
      <trkpt lat="44.3512" lon="6.86247">
        <ele>2463</ele>
        <time>2021-05-09T10:20:41.000Z</time>
      </trkpt>
      <trkpt lat="44.35121" lon="6.86245">
        <ele>2463</ele>
        <time>2021-05-09T10:20:48.000Z</time>
      </trkpt>
      <trkpt lat="44.35121" lon="6.86243">
        <ele>2463</ele>
        <time>2021-05-09T10:20:50.000Z</time>
      </trkpt>
      <trkpt lat="44.35121" lon="6.86243">
        <ele>2463</ele>
        <time>2021-05-09T10:20:53.000Z</time>
      </trkpt>
      <trkpt lat="44.3512" lon="6.86247">
        <ele>2463</ele>
        <time>2021-05-09T10:21:00.000Z</time>
      </trkpt>
      <trkpt lat="44.3512" lon="6.86247">
        <ele>2463</ele>
        <time>2021-05-09T10:21:03.000Z</time>
      </trkpt>
      <trkpt lat="44.3512" lon="6.86246">
        <ele>2463</ele>
        <time>2021-05-09T10:21:05.000Z</time>
      </trkpt>
      <trkpt lat="44.3512" lon="6.86247">
        <ele>2463</ele>
        <time>2021-05-09T10:21:06.000Z</time>
      </trkpt>
      <trkpt lat="44.35121" lon="6.86247">
        <ele>2463</ele>
        <time>2021-05-09T10:21:08.000Z</time>
      </trkpt>
      <trkpt lat="44.35119" lon="6.86248">
        <ele>2463</ele>
        <time>2021-05-09T10:21:12.000Z</time>
      </trkpt>
      <trkpt lat="44.3512" lon="6.86247">
        <ele>2463</ele>
        <time>2021-05-09T10:21:15.000Z</time>
      </trkpt>
      <trkpt lat="44.35119" lon="6.86245">
        <ele>2463</ele>
        <time>2021-05-09T10:21:19.000Z</time>
      </trkpt>
      <trkpt lat="44.35119" lon="6.86246">
        <ele>2463</ele>
        <time>2021-05-09T10:21:21.000Z</time>
      </trkpt>
      <trkpt lat="44.35119" lon="6.86248">
        <ele>2463.3999023438</ele>
        <time>2021-05-09T10:21:29.000Z</time>
      </trkpt>
      <trkpt lat="44.35119" lon="6.86247">
        <ele>2463.3999023438</ele>
        <time>2021-05-09T10:21:31.000Z</time>
      </trkpt>
      <trkpt lat="44.35119" lon="6.86245">
        <ele>2463.1999511719</ele>
        <time>2021-05-09T10:21:33.000Z</time>
      </trkpt>
      <trkpt lat="44.35119" lon="6.86245">
        <ele>2463.1999511719</ele>
        <time>2021-05-09T10:21:36.000Z</time>
      </trkpt>
      <trkpt lat="44.35119" lon="6.86245">
        <ele>2463.1999511719</ele>
        <time>2021-05-09T10:21:39.000Z</time>
      </trkpt>
      <trkpt lat="44.3512" lon="6.86246">
        <ele>2463.6000976562</ele>
        <time>2021-05-09T10:21:51.000Z</time>
      </trkpt>
      <trkpt lat="44.3512" lon="6.86246">
        <ele>2463.3999023438</ele>
        <time>2021-05-09T10:21:58.000Z</time>
      </trkpt>
      <trkpt lat="44.35119" lon="6.86246">
        <ele>2463.3999023438</ele>
        <time>2021-05-09T10:21:59.000Z</time>
      </trkpt>
      <trkpt lat="44.35119" lon="6.86246">
        <ele>2463.3999023438</ele>
        <time>2021-05-09T10:22:00.000Z</time>
      </trkpt>
      <trkpt lat="44.35119" lon="6.86246">
        <ele>2463.1999511719</ele>
        <time>2021-05-09T10:22:01.000Z</time>
      </trkpt>
      <trkpt lat="44.35119" lon="6.86246">
        <ele>2463.1999511719</ele>
        <time>2021-05-09T10:22:02.000Z</time>
      </trkpt>
      <trkpt lat="44.35118" lon="6.86246">
        <ele>2463.1999511719</ele>
        <time>2021-05-09T10:22:03.000Z</time>
      </trkpt>
      <trkpt lat="44.35118" lon="6.86243">
        <ele>2463.1999511719</ele>
        <time>2021-05-09T10:22:09.000Z</time>
      </trkpt>
      <trkpt lat="44.35118" lon="6.86243">
        <ele>2463</ele>
        <time>2021-05-09T10:22:14.000Z</time>
      </trkpt>
      <trkpt lat="44.35118" lon="6.86244">
        <ele>2463.1999511719</ele>
        <time>2021-05-09T10:22:18.000Z</time>
      </trkpt>
      <trkpt lat="44.35118" lon="6.86244">
        <ele>2463.1999511719</ele>
        <time>2021-05-09T10:22:20.000Z</time>
      </trkpt>
      <trkpt lat="44.35118" lon="6.86244">
        <ele>2463.1999511719</ele>
        <time>2021-05-09T10:22:22.000Z</time>
      </trkpt>
      <trkpt lat="44.35117" lon="6.86244">
        <ele>2463.1999511719</ele>
        <time>2021-05-09T10:22:24.000Z</time>
      </trkpt>
      <trkpt lat="44.35117" lon="6.86243">
        <ele>2463.1999511719</ele>
        <time>2021-05-09T10:22:29.000Z</time>
      </trkpt>
      <trkpt lat="44.35117" lon="6.86243">
        <ele>2463.1999511719</ele>
        <time>2021-05-09T10:22:30.000Z</time>
      </trkpt>
      <trkpt lat="44.35118" lon="6.86243">
        <ele>2463.1999511719</ele>
        <time>2021-05-09T10:22:32.000Z</time>
      </trkpt>
      <trkpt lat="44.35118" lon="6.86241">
        <ele>2463.1999511719</ele>
        <time>2021-05-09T10:22:42.000Z</time>
      </trkpt>
      <trkpt lat="44.35118" lon="6.86242">
        <ele>2463.1999511719</ele>
        <time>2021-05-09T10:22:44.000Z</time>
      </trkpt>
      <trkpt lat="44.35118" lon="6.86244">
        <ele>2463.1999511719</ele>
        <time>2021-05-09T10:22:46.000Z</time>
      </trkpt>
      <trkpt lat="44.35118" lon="6.86244">
        <ele>2463.1999511719</ele>
        <time>2021-05-09T10:22:48.000Z</time>
      </trkpt>
      <trkpt lat="44.35118" lon="6.86244">
        <ele>2463.6000976562</ele>
        <time>2021-05-09T10:22:59.000Z</time>
      </trkpt>
      <trkpt lat="44.35117" lon="6.86244">
        <ele>2463.6000976562</ele>
        <time>2021-05-09T10:23:10.000Z</time>
      </trkpt>
      <trkpt lat="44.35117" lon="6.86246">
        <ele>2463.6000976562</ele>
        <time>2021-05-09T10:23:16.000Z</time>
      </trkpt>
      <trkpt lat="44.35116" lon="6.86244">
        <ele>2463.6000976562</ele>
        <time>2021-05-09T10:23:23.000Z</time>
      </trkpt>
      <trkpt lat="44.35116" lon="6.86244">
        <ele>2463.6000976562</ele>
        <time>2021-05-09T10:23:25.000Z</time>
      </trkpt>
      <trkpt lat="44.35116" lon="6.86243">
        <ele>2463.6000976562</ele>
        <time>2021-05-09T10:23:27.000Z</time>
      </trkpt>
      <trkpt lat="44.35116" lon="6.86244">
        <ele>2463.6000976562</ele>
        <time>2021-05-09T10:23:29.000Z</time>
      </trkpt>
      <trkpt lat="44.35116" lon="6.86245">
        <ele>2463.6000976562</ele>
        <time>2021-05-09T10:23:32.000Z</time>
      </trkpt>
      <trkpt lat="44.35116" lon="6.86244">
        <ele>2463.6000976562</ele>
        <time>2021-05-09T10:23:34.000Z</time>
      </trkpt>
      <trkpt lat="44.35115" lon="6.86244">
        <ele>2463.6000976562</ele>
        <time>2021-05-09T10:23:38.000Z</time>
      </trkpt>
      <trkpt lat="44.35117" lon="6.86245">
        <ele>2463.6000976562</ele>
        <time>2021-05-09T10:23:42.000Z</time>
      </trkpt>
      <trkpt lat="44.35118" lon="6.86245">
        <ele>2463.6000976562</ele>
        <time>2021-05-09T10:23:47.000Z</time>
      </trkpt>
      <trkpt lat="44.35118" lon="6.86245">
        <ele>2463.6000976562</ele>
        <time>2021-05-09T10:23:48.000Z</time>
      </trkpt>
      <trkpt lat="44.35118" lon="6.86245">
        <ele>2463.6000976562</ele>
        <time>2021-05-09T10:23:49.000Z</time>
      </trkpt>
      <trkpt lat="44.35118" lon="6.86245">
        <ele>2463.6000976562</ele>
        <time>2021-05-09T10:23:50.000Z</time>
      </trkpt>
      <trkpt lat="44.35118" lon="6.86245">
        <ele>2463.6000976562</ele>
        <time>2021-05-09T10:23:52.000Z</time>
      </trkpt>
      <trkpt lat="44.35118" lon="6.86245">
        <ele>2463.6000976562</ele>
        <time>2021-05-09T10:23:54.000Z</time>
      </trkpt>
      <trkpt lat="44.35118" lon="6.86245">
        <ele>2463.6000976562</ele>
        <time>2021-05-09T10:23:55.000Z</time>
      </trkpt>
      <trkpt lat="44.35118" lon="6.86245">
        <ele>2463.6000976562</ele>
        <time>2021-05-09T10:23:56.000Z</time>
      </trkpt>
      <trkpt lat="44.35118" lon="6.86245">
        <ele>2463.6000976562</ele>
        <time>2021-05-09T10:23:57.000Z</time>
      </trkpt>
      <trkpt lat="44.35118" lon="6.86245">
        <ele>2463.6000976562</ele>
        <time>2021-05-09T10:23:58.000Z</time>
      </trkpt>
      <trkpt lat="44.35118" lon="6.86246">
        <ele>2463.3999023438</ele>
        <time>2021-05-09T10:24:04.000Z</time>
      </trkpt>
      <trkpt lat="44.35118" lon="6.86246">
        <ele>2463.3999023438</ele>
        <time>2021-05-09T10:24:08.000Z</time>
      </trkpt>
      <trkpt lat="44.35118" lon="6.86246">
        <ele>2463.3999023438</ele>
        <time>2021-05-09T10:24:12.000Z</time>
      </trkpt>
      <trkpt lat="44.35118" lon="6.86245">
        <ele>2463.3999023438</ele>
        <time>2021-05-09T10:24:17.000Z</time>
      </trkpt>
      <trkpt lat="44.35119" lon="6.86245">
        <ele>2463.3999023438</ele>
        <time>2021-05-09T10:24:26.000Z</time>
      </trkpt>
      <trkpt lat="44.35119" lon="6.86245">
        <ele>2463.3999023438</ele>
        <time>2021-05-09T10:24:27.000Z</time>
      </trkpt>
      <trkpt lat="44.35119" lon="6.86244">
        <ele>2463.3999023438</ele>
        <time>2021-05-09T10:24:33.000Z</time>
      </trkpt>
      <trkpt lat="44.35119" lon="6.86243">
        <ele>2463.3999023438</ele>
        <time>2021-05-09T10:24:35.000Z</time>
      </trkpt>
      <trkpt lat="44.35118" lon="6.86243">
        <ele>2463.3999023438</ele>
        <time>2021-05-09T10:24:39.000Z</time>
      </trkpt>
      <trkpt lat="44.35118" lon="6.86243">
        <ele>2463.6000976562</ele>
        <time>2021-05-09T10:24:40.000Z</time>
      </trkpt>
      <trkpt lat="44.35119" lon="6.86243">
        <ele>2463.6000976562</ele>
        <time>2021-05-09T10:24:41.000Z</time>
      </trkpt>
      <trkpt lat="44.3512" lon="6.86242">
        <ele>2463.6000976562</ele>
        <time>2021-05-09T10:24:45.000Z</time>
      </trkpt>
      <trkpt lat="44.3512" lon="6.86242">
        <ele>2463.6000976562</ele>
        <time>2021-05-09T10:24:49.000Z</time>
      </trkpt>
      <trkpt lat="44.3512" lon="6.86242">
        <ele>2463.6000976562</ele>
        <time>2021-05-09T10:24:51.000Z</time>
      </trkpt>
      <trkpt lat="44.3512" lon="6.86242">
        <ele>2463.6000976562</ele>
        <time>2021-05-09T10:24:53.000Z</time>
      </trkpt>
      <trkpt lat="44.35119" lon="6.86243">
        <ele>2463.6000976562</ele>
        <time>2021-05-09T10:24:59.000Z</time>
      </trkpt>
      <trkpt lat="44.35119" lon="6.86243">
        <ele>2463.6000976562</ele>
        <time>2021-05-09T10:25:12.000Z</time>
      </trkpt>
      <trkpt lat="44.35119" lon="6.86243">
        <ele>2463.6000976562</ele>
        <time>2021-05-09T10:25:14.000Z</time>
      </trkpt>
      <trkpt lat="44.35119" lon="6.86243">
        <ele>2463.6000976562</ele>
        <time>2021-05-09T10:25:15.000Z</time>
      </trkpt>
      <trkpt lat="44.35119" lon="6.86243">
        <ele>2463.8000488281</ele>
        <time>2021-05-09T10:25:16.000Z</time>
      </trkpt>
      <trkpt lat="44.35119" lon="6.86243">
        <ele>2463.8000488281</ele>
        <time>2021-05-09T10:25:18.000Z</time>
      </trkpt>
      <trkpt lat="44.35119" lon="6.86243">
        <ele>2463.8000488281</ele>
        <time>2021-05-09T10:25:22.000Z</time>
      </trkpt>
      <trkpt lat="44.35119" lon="6.86243">
        <ele>2463.8000488281</ele>
        <time>2021-05-09T10:25:27.000Z</time>
      </trkpt>
      <trkpt lat="44.35119" lon="6.86243">
        <ele>2463.8000488281</ele>
        <time>2021-05-09T10:25:29.000Z</time>
      </trkpt>
      <trkpt lat="44.35119" lon="6.86243">
        <ele>2463.8000488281</ele>
        <time>2021-05-09T10:25:32.000Z</time>
      </trkpt>
      <trkpt lat="44.35119" lon="6.86243">
        <ele>2463.8000488281</ele>
        <time>2021-05-09T10:25:34.000Z</time>
      </trkpt>
      <trkpt lat="44.35118" lon="6.86243">
        <ele>2463.6000976562</ele>
        <time>2021-05-09T10:25:37.000Z</time>
      </trkpt>
      <trkpt lat="44.35118" lon="6.86243">
        <ele>2463.6000976562</ele>
        <time>2021-05-09T10:25:38.000Z</time>
      </trkpt>
      <trkpt lat="44.35119" lon="6.86243">
        <ele>2463.6000976562</ele>
        <time>2021-05-09T10:25:42.000Z</time>
      </trkpt>
      <trkpt lat="44.35119" lon="6.86243">
        <ele>2463.3999023438</ele>
        <time>2021-05-09T10:25:46.000Z</time>
      </trkpt>
      <trkpt lat="44.35119" lon="6.86243">
        <ele>2463.3999023438</ele>
        <time>2021-05-09T10:25:47.000Z</time>
      </trkpt>
      <trkpt lat="44.35119" lon="6.86243">
        <ele>2463.3999023438</ele>
        <time>2021-05-09T10:25:48.000Z</time>
      </trkpt>
      <trkpt lat="44.35119" lon="6.86243">
        <ele>2463.3999023438</ele>
        <time>2021-05-09T10:25:49.000Z</time>
      </trkpt>
      <trkpt lat="44.35118" lon="6.86243">
        <ele>2463.1999511719</ele>
        <time>2021-05-09T10:25:51.000Z</time>
      </trkpt>
      <trkpt lat="44.35118" lon="6.86243">
        <ele>2463.1999511719</ele>
        <time>2021-05-09T10:25:53.000Z</time>
      </trkpt>
      <trkpt lat="44.35118" lon="6.86243">
        <ele>2463.1999511719</ele>
        <time>2021-05-09T10:25:54.000Z</time>
      </trkpt>
      <trkpt lat="44.35118" lon="6.86244">
        <ele>2463.1999511719</ele>
        <time>2021-05-09T10:26:03.000Z</time>
      </trkpt>
      <trkpt lat="44.35118" lon="6.86243">
        <ele>2463</ele>
        <time>2021-05-09T10:26:08.000Z</time>
      </trkpt>
      <trkpt lat="44.35118" lon="6.86242">
        <ele>2463.1999511719</ele>
        <time>2021-05-09T10:26:12.000Z</time>
      </trkpt>
      <trkpt lat="44.35118" lon="6.86241">
        <ele>2463.1999511719</ele>
        <time>2021-05-09T10:26:14.000Z</time>
      </trkpt>
      <trkpt lat="44.35118" lon="6.8624">
        <ele>2463.1999511719</ele>
        <time>2021-05-09T10:26:16.000Z</time>
      </trkpt>
      <trkpt lat="44.35118" lon="6.8624">
        <ele>2463.1999511719</ele>
        <time>2021-05-09T10:26:17.000Z</time>
      </trkpt>
      <trkpt lat="44.35118" lon="6.8624">
        <ele>2463.1999511719</ele>
        <time>2021-05-09T10:26:18.000Z</time>
      </trkpt>
      <trkpt lat="44.35118" lon="6.86239">
        <ele>2463.1999511719</ele>
        <time>2021-05-09T10:26:20.000Z</time>
      </trkpt>
      <trkpt lat="44.35117" lon="6.8624">
        <ele>2463.1999511719</ele>
        <time>2021-05-09T10:26:22.000Z</time>
      </trkpt>
      <trkpt lat="44.35117" lon="6.8624">
        <ele>2463.1999511719</ele>
        <time>2021-05-09T10:26:24.000Z</time>
      </trkpt>
      <trkpt lat="44.35117" lon="6.8624">
        <ele>2463.1999511719</ele>
        <time>2021-05-09T10:26:26.000Z</time>
      </trkpt>
      <trkpt lat="44.35117" lon="6.86241">
        <ele>2463</ele>
        <time>2021-05-09T10:26:30.000Z</time>
      </trkpt>
      <trkpt lat="44.35117" lon="6.86241">
        <ele>2463</ele>
        <time>2021-05-09T10:26:35.000Z</time>
      </trkpt>
      <trkpt lat="44.35117" lon="6.86241">
        <ele>2463</ele>
        <time>2021-05-09T10:26:37.000Z</time>
      </trkpt>
      <trkpt lat="44.35117" lon="6.86241">
        <ele>2463</ele>
        <time>2021-05-09T10:26:41.000Z</time>
      </trkpt>
      <trkpt lat="44.35117" lon="6.86242">
        <ele>2463</ele>
        <time>2021-05-09T10:26:42.000Z</time>
      </trkpt>
      <trkpt lat="44.35117" lon="6.86242">
        <ele>2463</ele>
        <time>2021-05-09T10:26:43.000Z</time>
      </trkpt>
      <trkpt lat="44.35117" lon="6.86242">
        <ele>2463</ele>
        <time>2021-05-09T10:26:47.000Z</time>
      </trkpt>
      <trkpt lat="44.35117" lon="6.86242">
        <ele>2463</ele>
        <time>2021-05-09T10:26:49.000Z</time>
      </trkpt>
      <trkpt lat="44.35117" lon="6.86241">
        <ele>2463</ele>
        <time>2021-05-09T10:26:51.000Z</time>
      </trkpt>
      <trkpt lat="44.35117" lon="6.86242">
        <ele>2462.8000488281</ele>
        <time>2021-05-09T10:26:52.000Z</time>
      </trkpt>
      <trkpt lat="44.35117" lon="6.86242">
        <ele>2463</ele>
        <time>2021-05-09T10:26:57.000Z</time>
      </trkpt>
      <trkpt lat="44.35117" lon="6.86242">
        <ele>2463</ele>
        <time>2021-05-09T10:27:03.000Z</time>
      </trkpt>
      <trkpt lat="44.35117" lon="6.86241">
        <ele>2462.8000488281</ele>
        <time>2021-05-09T10:27:06.000Z</time>
      </trkpt>
      <trkpt lat="44.35116" lon="6.8624">
        <ele>2462.8000488281</ele>
        <time>2021-05-09T10:27:07.000Z</time>
      </trkpt>
      <trkpt lat="44.35117" lon="6.8624">
        <ele>2462.8000488281</ele>
        <time>2021-05-09T10:27:12.000Z</time>
      </trkpt>
      <trkpt lat="44.35117" lon="6.86241">
        <ele>2462.8000488281</ele>
        <time>2021-05-09T10:27:13.000Z</time>
      </trkpt>
      <trkpt lat="44.35117" lon="6.86241">
        <ele>2462.8000488281</ele>
        <time>2021-05-09T10:27:14.000Z</time>
      </trkpt>
      <trkpt lat="44.35117" lon="6.86241">
        <ele>2462.8000488281</ele>
        <time>2021-05-09T10:27:15.000Z</time>
      </trkpt>
      <trkpt lat="44.35117" lon="6.86241">
        <ele>2462.8000488281</ele>
        <time>2021-05-09T10:27:16.000Z</time>
      </trkpt>
      <trkpt lat="44.35117" lon="6.86241">
        <ele>2462.8000488281</ele>
        <time>2021-05-09T10:27:17.000Z</time>
      </trkpt>
      <trkpt lat="44.35117" lon="6.86241">
        <ele>2462.8000488281</ele>
        <time>2021-05-09T10:27:18.000Z</time>
      </trkpt>
      <trkpt lat="44.35116" lon="6.86241">
        <ele>2462.8000488281</ele>
        <time>2021-05-09T10:27:28.000Z</time>
      </trkpt>
      <trkpt lat="44.35116" lon="6.86241">
        <ele>2462.8000488281</ele>
        <time>2021-05-09T10:27:31.000Z</time>
      </trkpt>
      <trkpt lat="44.35116" lon="6.86242">
        <ele>2462.8000488281</ele>
        <time>2021-05-09T10:27:32.000Z</time>
      </trkpt>
      <trkpt lat="44.35117" lon="6.86242">
        <ele>2462.8000488281</ele>
        <time>2021-05-09T10:27:48.000Z</time>
      </trkpt>
      <trkpt lat="44.35117" lon="6.86241">
        <ele>2462.8000488281</ele>
        <time>2021-05-09T10:27:50.000Z</time>
      </trkpt>
      <trkpt lat="44.35117" lon="6.86241">
        <ele>2462.8000488281</ele>
        <time>2021-05-09T10:27:52.000Z</time>
      </trkpt>
      <trkpt lat="44.35117" lon="6.86241">
        <ele>2462.8000488281</ele>
        <time>2021-05-09T10:27:53.000Z</time>
      </trkpt>
      <trkpt lat="44.35117" lon="6.86241">
        <ele>2462.8000488281</ele>
        <time>2021-05-09T10:27:54.000Z</time>
      </trkpt>
      <trkpt lat="44.35117" lon="6.86241">
        <ele>2462.8000488281</ele>
        <time>2021-05-09T10:27:55.000Z</time>
      </trkpt>
      <trkpt lat="44.35117" lon="6.86241">
        <ele>2462.8000488281</ele>
        <time>2021-05-09T10:27:57.000Z</time>
      </trkpt>
      <trkpt lat="44.35117" lon="6.86241">
        <ele>2462.8000488281</ele>
        <time>2021-05-09T10:27:58.000Z</time>
      </trkpt>
      <trkpt lat="44.35117" lon="6.86241">
        <ele>2462.8000488281</ele>
        <time>2021-05-09T10:27:59.000Z</time>
      </trkpt>
      <trkpt lat="44.35117" lon="6.86241">
        <ele>2462.8000488281</ele>
        <time>2021-05-09T10:28:04.000Z</time>
      </trkpt>
      <trkpt lat="44.35117" lon="6.86243">
        <ele>2462.8000488281</ele>
        <time>2021-05-09T10:28:06.000Z</time>
      </trkpt>
      <trkpt lat="44.35117" lon="6.86244">
        <ele>2462.8000488281</ele>
        <time>2021-05-09T10:28:09.000Z</time>
      </trkpt>
      <trkpt lat="44.35116" lon="6.86244">
        <ele>2462.8000488281</ele>
        <time>2021-05-09T10:28:10.000Z</time>
      </trkpt>
      <trkpt lat="44.35116" lon="6.86245">
        <ele>2462.8000488281</ele>
        <time>2021-05-09T10:28:11.000Z</time>
      </trkpt>
      <trkpt lat="44.35117" lon="6.86245">
        <ele>2462.8000488281</ele>
        <time>2021-05-09T10:28:17.000Z</time>
      </trkpt>
      <trkpt lat="44.35117" lon="6.86245">
        <ele>2462.8000488281</ele>
        <time>2021-05-09T10:28:19.000Z</time>
      </trkpt>
      <trkpt lat="44.35117" lon="6.86245">
        <ele>2462.8000488281</ele>
        <time>2021-05-09T10:28:23.000Z</time>
      </trkpt>
      <trkpt lat="44.35117" lon="6.86245">
        <ele>2462.8000488281</ele>
        <time>2021-05-09T10:28:26.000Z</time>
      </trkpt>
      <trkpt lat="44.35117" lon="6.86245">
        <ele>2462.8000488281</ele>
        <time>2021-05-09T10:28:27.000Z</time>
      </trkpt>
      <trkpt lat="44.35117" lon="6.86245">
        <ele>2462.8000488281</ele>
        <time>2021-05-09T10:28:30.000Z</time>
      </trkpt>
      <trkpt lat="44.35117" lon="6.86245">
        <ele>2462.8000488281</ele>
        <time>2021-05-09T10:28:31.000Z</time>
      </trkpt>
      <trkpt lat="44.35117" lon="6.86244">
        <ele>2462.8000488281</ele>
        <time>2021-05-09T10:28:33.000Z</time>
      </trkpt>
      <trkpt lat="44.35118" lon="6.86244">
        <ele>2462.8000488281</ele>
        <time>2021-05-09T10:28:37.000Z</time>
      </trkpt>
      <trkpt lat="44.35118" lon="6.86244">
        <ele>2462.8000488281</ele>
        <time>2021-05-09T10:28:38.000Z</time>
      </trkpt>
      <trkpt lat="44.35117" lon="6.86243">
        <ele>2462.8000488281</ele>
        <time>2021-05-09T10:28:47.000Z</time>
      </trkpt>
      <trkpt lat="44.35117" lon="6.86241">
        <ele>2462.8000488281</ele>
        <time>2021-05-09T10:28:50.000Z</time>
      </trkpt>
      <trkpt lat="44.35117" lon="6.86241">
        <ele>2462.8000488281</ele>
        <time>2021-05-09T10:28:57.000Z</time>
      </trkpt>
      <trkpt lat="44.35117" lon="6.86241">
        <ele>2462.8000488281</ele>
        <time>2021-05-09T10:28:59.000Z</time>
      </trkpt>
      <trkpt lat="44.35117" lon="6.86241">
        <ele>2462.8000488281</ele>
        <time>2021-05-09T10:29:00.000Z</time>
      </trkpt>
      <trkpt lat="44.35116" lon="6.86243">
        <ele>2462.8000488281</ele>
        <time>2021-05-09T10:29:03.000Z</time>
      </trkpt>
      <trkpt lat="44.35118" lon="6.86243">
        <ele>2462.8000488281</ele>
        <time>2021-05-09T10:29:10.000Z</time>
      </trkpt>
      <trkpt lat="44.35118" lon="6.86243">
        <ele>2462.8000488281</ele>
        <time>2021-05-09T10:29:16.000Z</time>
      </trkpt>
      <trkpt lat="44.35117" lon="6.86244">
        <ele>2462.8000488281</ele>
        <time>2021-05-09T10:29:19.000Z</time>
      </trkpt>
      <trkpt lat="44.35118" lon="6.86243">
        <ele>2462.8000488281</ele>
        <time>2021-05-09T10:29:24.000Z</time>
      </trkpt>
      <trkpt lat="44.35118" lon="6.86243">
        <ele>2462.8000488281</ele>
        <time>2021-05-09T10:29:25.000Z</time>
      </trkpt>
      <trkpt lat="44.3512" lon="6.86242">
        <ele>2462.8000488281</ele>
        <time>2021-05-09T10:29:33.000Z</time>
      </trkpt>
      <trkpt lat="44.3512" lon="6.86241">
        <ele>2462.8000488281</ele>
        <time>2021-05-09T10:29:35.000Z</time>
      </trkpt>
      <trkpt lat="44.35119" lon="6.86241">
        <ele>2462.8000488281</ele>
        <time>2021-05-09T10:29:38.000Z</time>
      </trkpt>
      <trkpt lat="44.35119" lon="6.8624">
        <ele>2462.8000488281</ele>
        <time>2021-05-09T10:29:41.000Z</time>
      </trkpt>
      <trkpt lat="44.35118" lon="6.86239">
        <ele>2462.8000488281</ele>
        <time>2021-05-09T10:29:45.000Z</time>
      </trkpt>
      <trkpt lat="44.35118" lon="6.86238">
        <ele>2462.8000488281</ele>
        <time>2021-05-09T10:29:46.000Z</time>
      </trkpt>
      <trkpt lat="44.35121" lon="6.86234">
        <ele>2462.8000488281</ele>
        <time>2021-05-09T10:29:54.000Z</time>
      </trkpt>
      <trkpt lat="44.35124" lon="6.86237">
        <ele>2462.8000488281</ele>
        <time>2021-05-09T10:30:02.000Z</time>
      </trkpt>
      <trkpt lat="44.35122" lon="6.86234">
        <ele>2462.8000488281</ele>
        <time>2021-05-09T10:30:07.000Z</time>
      </trkpt>
      <trkpt lat="44.35119" lon="6.86237">
        <ele>2462.8000488281</ele>
        <time>2021-05-09T10:30:19.000Z</time>
      </trkpt>
      <trkpt lat="44.35119" lon="6.86239">
        <ele>2462.8000488281</ele>
        <time>2021-05-09T10:30:27.000Z</time>
      </trkpt>
      <trkpt lat="44.35119" lon="6.86238">
        <ele>2462.8000488281</ele>
        <time>2021-05-09T10:30:42.000Z</time>
      </trkpt>
      <trkpt lat="44.35122" lon="6.86241">
        <ele>2462.8000488281</ele>
        <time>2021-05-09T10:30:48.000Z</time>
      </trkpt>
      <trkpt lat="44.35119" lon="6.8624">
        <ele>2463.8000488281</ele>
        <time>2021-05-09T10:30:52.000Z</time>
      </trkpt>
      <trkpt lat="44.35123" lon="6.86242">
        <ele>2464</ele>
        <time>2021-05-09T10:31:06.000Z</time>
      </trkpt>
      <trkpt lat="44.35123" lon="6.86241">
        <ele>2464.1999511719</ele>
        <time>2021-05-09T10:31:10.000Z</time>
      </trkpt>
      <trkpt lat="44.35123" lon="6.86241">
        <ele>2464.3999023438</ele>
        <time>2021-05-09T10:31:12.000Z</time>
      </trkpt>
      <trkpt lat="44.35123" lon="6.86242">
        <ele>2464.3999023438</ele>
        <time>2021-05-09T10:31:14.000Z</time>
      </trkpt>
      <trkpt lat="44.35124" lon="6.86242">
        <ele>2464.3999023438</ele>
        <time>2021-05-09T10:31:18.000Z</time>
      </trkpt>
      <trkpt lat="44.35125" lon="6.86242">
        <ele>2464.6000976562</ele>
        <time>2021-05-09T10:31:23.000Z</time>
      </trkpt>
      <trkpt lat="44.35126" lon="6.86241">
        <ele>2464.8000488281</ele>
        <time>2021-05-09T10:31:29.000Z</time>
      </trkpt>
      <trkpt lat="44.35126" lon="6.86241">
        <ele>2465</ele>
        <time>2021-05-09T10:31:31.000Z</time>
      </trkpt>
      <trkpt lat="44.35126" lon="6.86241">
        <ele>2465.3999023438</ele>
        <time>2021-05-09T10:31:33.000Z</time>
      </trkpt>
      <trkpt lat="44.35125" lon="6.86241">
        <ele>2465.6000976562</ele>
        <time>2021-05-09T10:31:42.000Z</time>
      </trkpt>
      <trkpt lat="44.35122" lon="6.86242">
        <ele>2465.1999511719</ele>
        <time>2021-05-09T10:31:45.000Z</time>
      </trkpt>
      <trkpt lat="44.35122" lon="6.86242">
        <ele>2465.1999511719</ele>
        <time>2021-05-09T10:31:46.000Z</time>
      </trkpt>
      <trkpt lat="44.35121" lon="6.86242">
        <ele>2465</ele>
        <time>2021-05-09T10:31:47.000Z</time>
      </trkpt>
      <trkpt lat="44.3512" lon="6.86243">
        <ele>2464.6000976562</ele>
        <time>2021-05-09T10:31:51.000Z</time>
      </trkpt>
      <trkpt lat="44.3512" lon="6.86243">
        <ele>2464.6000976562</ele>
        <time>2021-05-09T10:31:52.000Z</time>
      </trkpt>
      <trkpt lat="44.3512" lon="6.86243">
        <ele>2464.8000488281</ele>
        <time>2021-05-09T10:31:56.000Z</time>
      </trkpt>
      <trkpt lat="44.35121" lon="6.86242">
        <ele>2464.8000488281</ele>
        <time>2021-05-09T10:31:57.000Z</time>
      </trkpt>
      <trkpt lat="44.35121" lon="6.86241">
        <ele>2464.8000488281</ele>
        <time>2021-05-09T10:32:00.000Z</time>
      </trkpt>
      <trkpt lat="44.35122" lon="6.86241">
        <ele>2464.8000488281</ele>
        <time>2021-05-09T10:32:01.000Z</time>
      </trkpt>
      <trkpt lat="44.35123" lon="6.8624">
        <ele>2464.8000488281</ele>
        <time>2021-05-09T10:32:02.000Z</time>
      </trkpt>
      <trkpt lat="44.35123" lon="6.86239">
        <ele>2465</ele>
        <time>2021-05-09T10:32:03.000Z</time>
      </trkpt>
      <trkpt lat="44.3512" lon="6.8624">
        <ele>2465.3999023438</ele>
        <time>2021-05-09T10:32:08.000Z</time>
      </trkpt>
      <trkpt lat="44.35122" lon="6.86241">
        <ele>2465.1999511719</ele>
        <time>2021-05-09T10:32:14.000Z</time>
      </trkpt>
      <trkpt lat="44.3512" lon="6.86241">
        <ele>2465.1999511719</ele>
        <time>2021-05-09T10:32:22.000Z</time>
      </trkpt>
      <trkpt lat="44.3512" lon="6.86241">
        <ele>2465.1999511719</ele>
        <time>2021-05-09T10:32:23.000Z</time>
      </trkpt>
      <trkpt lat="44.35117" lon="6.86243">
        <ele>2465.1999511719</ele>
        <time>2021-05-09T10:32:29.000Z</time>
      </trkpt>
      <trkpt lat="44.35117" lon="6.86243">
        <ele>2465</ele>
        <time>2021-05-09T10:32:30.000Z</time>
      </trkpt>
      <trkpt lat="44.35118" lon="6.86242">
        <ele>2465</ele>
        <time>2021-05-09T10:32:33.000Z</time>
      </trkpt>
      <trkpt lat="44.35119" lon="6.86242">
        <ele>2465</ele>
        <time>2021-05-09T10:32:34.000Z</time>
      </trkpt>
      <trkpt lat="44.35123" lon="6.8624">
        <ele>2465.1999511719</ele>
        <time>2021-05-09T10:32:38.000Z</time>
      </trkpt>
      <trkpt lat="44.35124" lon="6.86238">
        <ele>2465.3999023438</ele>
        <time>2021-05-09T10:32:42.000Z</time>
      </trkpt>
      <trkpt lat="44.35124" lon="6.86238">
        <ele>2465.3999023438</ele>
        <time>2021-05-09T10:32:43.000Z</time>
      </trkpt>
      <trkpt lat="44.35124" lon="6.86238">
        <ele>2465.3999023438</ele>
        <time>2021-05-09T10:32:44.000Z</time>
      </trkpt>
      <trkpt lat="44.35123" lon="6.86236">
        <ele>2465</ele>
        <time>2021-05-09T10:32:48.000Z</time>
      </trkpt>
      <trkpt lat="44.35117" lon="6.86234">
        <ele>2464.6000976562</ele>
        <time>2021-05-09T10:32:53.000Z</time>
      </trkpt>
      <trkpt lat="44.35118" lon="6.86233">
        <ele>2464.6000976562</ele>
        <time>2021-05-09T10:32:56.000Z</time>
      </trkpt>
      <trkpt lat="44.35117" lon="6.86231">
        <ele>2464.6000976562</ele>
        <time>2021-05-09T10:33:00.000Z</time>
      </trkpt>
      <trkpt lat="44.35117" lon="6.86232">
        <ele>2464.6000976562</ele>
        <time>2021-05-09T10:33:01.000Z</time>
      </trkpt>
      <trkpt lat="44.35117" lon="6.86232">
        <ele>2464.6000976562</ele>
        <time>2021-05-09T10:33:05.000Z</time>
      </trkpt>
      <trkpt lat="44.35118" lon="6.86233">
        <ele>2464.6000976562</ele>
        <time>2021-05-09T10:33:07.000Z</time>
      </trkpt>
      <trkpt lat="44.3512" lon="6.86236">
        <ele>2464.6000976562</ele>
        <time>2021-05-09T10:33:12.000Z</time>
      </trkpt>
      <trkpt lat="44.3512" lon="6.86236">
        <ele>2464.6000976562</ele>
        <time>2021-05-09T10:33:13.000Z</time>
      </trkpt>
      <trkpt lat="44.35118" lon="6.86233">
        <ele>2464.6000976562</ele>
        <time>2021-05-09T10:33:17.000Z</time>
      </trkpt>
      <trkpt lat="44.35118" lon="6.86233">
        <ele>2464.6000976562</ele>
        <time>2021-05-09T10:33:18.000Z</time>
      </trkpt>
      <trkpt lat="44.35117" lon="6.86232">
        <ele>2464.6000976562</ele>
        <time>2021-05-09T10:33:23.000Z</time>
      </trkpt>
      <trkpt lat="44.35118" lon="6.86232">
        <ele>2464.6000976562</ele>
        <time>2021-05-09T10:33:25.000Z</time>
      </trkpt>
      <trkpt lat="44.35118" lon="6.86232">
        <ele>2464.6000976562</ele>
        <time>2021-05-09T10:33:27.000Z</time>
      </trkpt>
      <trkpt lat="44.35118" lon="6.86232">
        <ele>2464.6000976562</ele>
        <time>2021-05-09T10:33:28.000Z</time>
      </trkpt>
      <trkpt lat="44.35117" lon="6.86232">
        <ele>2464.6000976562</ele>
        <time>2021-05-09T10:33:30.000Z</time>
      </trkpt>
      <trkpt lat="44.35114" lon="6.86229">
        <ele>2464.6000976562</ele>
        <time>2021-05-09T10:33:36.000Z</time>
      </trkpt>
      <trkpt lat="44.35113" lon="6.86227">
        <ele>2464.6000976562</ele>
        <time>2021-05-09T10:33:38.000Z</time>
      </trkpt>
      <trkpt lat="44.35114" lon="6.86227">
        <ele>2464.6000976562</ele>
        <time>2021-05-09T10:33:41.000Z</time>
      </trkpt>
      <trkpt lat="44.35115" lon="6.86228">
        <ele>2464.6000976562</ele>
        <time>2021-05-09T10:33:43.000Z</time>
      </trkpt>
      <trkpt lat="44.35115" lon="6.86228">
        <ele>2464.6000976562</ele>
        <time>2021-05-09T10:33:45.000Z</time>
      </trkpt>
      <trkpt lat="44.35119" lon="6.86236">
        <ele>2464.6000976562</ele>
        <time>2021-05-09T10:33:47.000Z</time>
      </trkpt>
      <trkpt lat="44.35121" lon="6.86238">
        <ele>2464.6000976562</ele>
        <time>2021-05-09T10:33:49.000Z</time>
      </trkpt>
      <trkpt lat="44.35122" lon="6.8624">
        <ele>2464.6000976562</ele>
        <time>2021-05-09T10:33:51.000Z</time>
      </trkpt>
      <trkpt lat="44.35121" lon="6.86242">
        <ele>2464.6000976562</ele>
        <time>2021-05-09T10:33:56.000Z</time>
      </trkpt>
      <trkpt lat="44.35121" lon="6.86243">
        <ele>2464.6000976562</ele>
        <time>2021-05-09T10:34:00.000Z</time>
      </trkpt>
      <trkpt lat="44.35121" lon="6.86243">
        <ele>2464.8000488281</ele>
        <time>2021-05-09T10:34:04.000Z</time>
      </trkpt>
      <trkpt lat="44.35114" lon="6.86231">
        <ele>2464.8000488281</ele>
        <time>2021-05-09T10:34:17.000Z</time>
      </trkpt>
      <trkpt lat="44.35114" lon="6.8623">
        <ele>2464.8000488281</ele>
        <time>2021-05-09T10:34:19.000Z</time>
      </trkpt>
      <trkpt lat="44.35114" lon="6.8623">
        <ele>2465</ele>
        <time>2021-05-09T10:34:22.000Z</time>
      </trkpt>
      <trkpt lat="44.35113" lon="6.86231">
        <ele>2464.8000488281</ele>
        <time>2021-05-09T10:34:26.000Z</time>
      </trkpt>
      <trkpt lat="44.35112" lon="6.86228">
        <ele>2464.8000488281</ele>
        <time>2021-05-09T10:34:31.000Z</time>
      </trkpt>
      <trkpt lat="44.35112" lon="6.86228">
        <ele>2464.8000488281</ele>
        <time>2021-05-09T10:34:34.000Z</time>
      </trkpt>
      <trkpt lat="44.35112" lon="6.86228">
        <ele>2464.8000488281</ele>
        <time>2021-05-09T10:34:35.000Z</time>
      </trkpt>
      <trkpt lat="44.35112" lon="6.86229">
        <ele>2464.8000488281</ele>
        <time>2021-05-09T10:34:36.000Z</time>
      </trkpt>
      <trkpt lat="44.35112" lon="6.8623">
        <ele>2464.8000488281</ele>
        <time>2021-05-09T10:34:37.000Z</time>
      </trkpt>
      <trkpt lat="44.35114" lon="6.86236">
        <ele>2464.6000976562</ele>
        <time>2021-05-09T10:34:40.000Z</time>
      </trkpt>
      <trkpt lat="44.35115" lon="6.86237">
        <ele>2464.6000976562</ele>
        <time>2021-05-09T10:34:42.000Z</time>
      </trkpt>
      <trkpt lat="44.35115" lon="6.86236">
        <ele>2464.6000976562</ele>
        <time>2021-05-09T10:34:45.000Z</time>
      </trkpt>
      <trkpt lat="44.35116" lon="6.86239">
        <ele>2464.6000976562</ele>
        <time>2021-05-09T10:34:50.000Z</time>
      </trkpt>
      <trkpt lat="44.35115" lon="6.86237">
        <ele>2464.6000976562</ele>
        <time>2021-05-09T10:34:53.000Z</time>
      </trkpt>
      <trkpt lat="44.35115" lon="6.86237">
        <ele>2464.6000976562</ele>
        <time>2021-05-09T10:34:54.000Z</time>
      </trkpt>
      <trkpt lat="44.35115" lon="6.86237">
        <ele>2464.6000976562</ele>
        <time>2021-05-09T10:34:56.000Z</time>
      </trkpt>
      <trkpt lat="44.35114" lon="6.86236">
        <ele>2464.6000976562</ele>
        <time>2021-05-09T10:34:59.000Z</time>
      </trkpt>
      <trkpt lat="44.35114" lon="6.86235">
        <ele>2464.6000976562</ele>
        <time>2021-05-09T10:35:01.000Z</time>
      </trkpt>
      <trkpt lat="44.35114" lon="6.86233">
        <ele>2464.6000976562</ele>
        <time>2021-05-09T10:35:05.000Z</time>
      </trkpt>
      <trkpt lat="44.35114" lon="6.86233">
        <ele>2464.6000976562</ele>
        <time>2021-05-09T10:35:08.000Z</time>
      </trkpt>
      <trkpt lat="44.35115" lon="6.86232">
        <ele>2464.6000976562</ele>
        <time>2021-05-09T10:35:13.000Z</time>
      </trkpt>
      <trkpt lat="44.35114" lon="6.86231">
        <ele>2464.6000976562</ele>
        <time>2021-05-09T10:35:17.000Z</time>
      </trkpt>
      <trkpt lat="44.35114" lon="6.86231">
        <ele>2464.6000976562</ele>
        <time>2021-05-09T10:35:19.000Z</time>
      </trkpt>
      <trkpt lat="44.35114" lon="6.86231">
        <ele>2464.6000976562</ele>
        <time>2021-05-09T10:35:22.000Z</time>
      </trkpt>
      <trkpt lat="44.35115" lon="6.86236">
        <ele>2464.6000976562</ele>
        <time>2021-05-09T10:35:28.000Z</time>
      </trkpt>
      <trkpt lat="44.35114" lon="6.86236">
        <ele>2464.6000976562</ele>
        <time>2021-05-09T10:35:30.000Z</time>
      </trkpt>
      <trkpt lat="44.35114" lon="6.86231">
        <ele>2464.8000488281</ele>
        <time>2021-05-09T10:35:33.000Z</time>
      </trkpt>
      <trkpt lat="44.35113" lon="6.86227">
        <ele>2464.8000488281</ele>
        <time>2021-05-09T10:35:35.000Z</time>
      </trkpt>
      <trkpt lat="44.35112" lon="6.86224">
        <ele>2464.8000488281</ele>
        <time>2021-05-09T10:35:38.000Z</time>
      </trkpt>
      <trkpt lat="44.35113" lon="6.86233">
        <ele>2465</ele>
        <time>2021-05-09T10:35:56.000Z</time>
      </trkpt>
      <trkpt lat="44.35112" lon="6.86229">
        <ele>2465.1999511719</ele>
        <time>2021-05-09T10:36:03.000Z</time>
      </trkpt>
      <trkpt lat="44.35113" lon="6.8623">
        <ele>2465</ele>
        <time>2021-05-09T10:36:09.000Z</time>
      </trkpt>
      <trkpt lat="44.35111" lon="6.86229">
        <ele>2465.1999511719</ele>
        <time>2021-05-09T10:36:14.000Z</time>
      </trkpt>
      <trkpt lat="44.35111" lon="6.86229">
        <ele>2465.1999511719</ele>
        <time>2021-05-09T10:36:15.000Z</time>
      </trkpt>
      <trkpt lat="44.35112" lon="6.86229">
        <ele>2465.1999511719</ele>
        <time>2021-05-09T10:36:17.000Z</time>
      </trkpt>
      <trkpt lat="44.35113" lon="6.86229">
        <ele>2465</ele>
        <time>2021-05-09T10:36:24.000Z</time>
      </trkpt>
      <trkpt lat="44.35113" lon="6.86229">
        <ele>2465</ele>
        <time>2021-05-09T10:36:25.000Z</time>
      </trkpt>
      <trkpt lat="44.35114" lon="6.86232">
        <ele>2464.8000488281</ele>
        <time>2021-05-09T10:36:28.000Z</time>
      </trkpt>
      <trkpt lat="44.35116" lon="6.86234">
        <ele>2465</ele>
        <time>2021-05-09T10:36:34.000Z</time>
      </trkpt>
      <trkpt lat="44.35115" lon="6.86236">
        <ele>2465</ele>
        <time>2021-05-09T10:36:36.000Z</time>
      </trkpt>
      <trkpt lat="44.35114" lon="6.86236">
        <ele>2465</ele>
        <time>2021-05-09T10:36:39.000Z</time>
      </trkpt>
      <trkpt lat="44.35116" lon="6.86236">
        <ele>2465.3999023438</ele>
        <time>2021-05-09T10:36:43.000Z</time>
      </trkpt>
      <trkpt lat="44.35115" lon="6.86239">
        <ele>2466.1999511719</ele>
        <time>2021-05-09T10:36:47.000Z</time>
      </trkpt>
      <trkpt lat="44.35115" lon="6.86238">
        <ele>2466.1999511719</ele>
        <time>2021-05-09T10:36:50.000Z</time>
      </trkpt>
      <trkpt lat="44.35115" lon="6.86238">
        <ele>2466.3999023438</ele>
        <time>2021-05-09T10:36:54.000Z</time>
      </trkpt>
      <trkpt lat="44.35113" lon="6.86235">
        <ele>2466.1999511719</ele>
        <time>2021-05-09T10:37:05.000Z</time>
      </trkpt>
      <trkpt lat="44.35114" lon="6.86234">
        <ele>2466.1999511719</ele>
        <time>2021-05-09T10:37:16.000Z</time>
      </trkpt>
      <trkpt lat="44.35114" lon="6.86234">
        <ele>2466</ele>
        <time>2021-05-09T10:37:19.000Z</time>
      </trkpt>
      <trkpt lat="44.35114" lon="6.86234">
        <ele>2467.3999023438</ele>
        <time>2021-05-09T10:37:25.000Z</time>
      </trkpt>
      <trkpt lat="44.35115" lon="6.86232">
        <ele>2467.6000976562</ele>
        <time>2021-05-09T10:37:28.000Z</time>
      </trkpt>
      <trkpt lat="44.35115" lon="6.86232">
        <ele>2466.3999023438</ele>
        <time>2021-05-09T10:37:31.000Z</time>
      </trkpt>
      <trkpt lat="44.35115" lon="6.8623">
        <ele>2466</ele>
        <time>2021-05-09T10:37:34.000Z</time>
      </trkpt>
      <trkpt lat="44.35116" lon="6.86238">
        <ele>2467.6000976562</ele>
        <time>2021-05-09T10:37:40.000Z</time>
      </trkpt>
      <trkpt lat="44.35115" lon="6.86238">
        <ele>2468.3999023438</ele>
        <time>2021-05-09T10:37:46.000Z</time>
      </trkpt>
      <trkpt lat="44.35113" lon="6.86234">
        <ele>2467.8000488281</ele>
        <time>2021-05-09T10:37:53.000Z</time>
      </trkpt>
      <trkpt lat="44.35113" lon="6.86233">
        <ele>2468</ele>
        <time>2021-05-09T10:37:55.000Z</time>
      </trkpt>
      <trkpt lat="44.35109" lon="6.8623">
        <ele>2468.6000976562</ele>
        <time>2021-05-09T10:37:58.000Z</time>
      </trkpt>
      <trkpt lat="44.35106" lon="6.86226">
        <ele>2468.3999023438</ele>
        <time>2021-05-09T10:38:02.000Z</time>
      </trkpt>
      <trkpt lat="44.35106" lon="6.86225">
        <ele>2468.6000976562</ele>
        <time>2021-05-09T10:38:04.000Z</time>
      </trkpt>
      <trkpt lat="44.35105" lon="6.86225">
        <ele>2469</ele>
        <time>2021-05-09T10:38:10.000Z</time>
      </trkpt>
      <trkpt lat="44.35107" lon="6.86226">
        <ele>2469</ele>
        <time>2021-05-09T10:38:14.000Z</time>
      </trkpt>
      <trkpt lat="44.35099" lon="6.8622">
        <ele>2468.1999511719</ele>
        <time>2021-05-09T10:38:22.000Z</time>
      </trkpt>
      <trkpt lat="44.35104" lon="6.86232">
        <ele>2468.6000976562</ele>
        <time>2021-05-09T10:38:32.000Z</time>
      </trkpt>
      <trkpt lat="44.35104" lon="6.86229">
        <ele>2468.6000976562</ele>
        <time>2021-05-09T10:38:41.000Z</time>
      </trkpt>
      <trkpt lat="44.35105" lon="6.8623">
        <ele>2468.3999023438</ele>
        <time>2021-05-09T10:38:45.000Z</time>
      </trkpt>
      <trkpt lat="44.35107" lon="6.86232">
        <ele>2468.6000976562</ele>
        <time>2021-05-09T10:38:47.000Z</time>
      </trkpt>
      <trkpt lat="44.35109" lon="6.86232">
        <ele>2468.6000976562</ele>
        <time>2021-05-09T10:38:48.000Z</time>
      </trkpt>
      <trkpt lat="44.35109" lon="6.86233">
        <ele>2468.6000976562</ele>
        <time>2021-05-09T10:38:49.000Z</time>
      </trkpt>
      <trkpt lat="44.3511" lon="6.86233">
        <ele>2468.8000488281</ele>
        <time>2021-05-09T10:38:52.000Z</time>
      </trkpt>
      <trkpt lat="44.3511" lon="6.86233">
        <ele>2468.8000488281</ele>
        <time>2021-05-09T10:38:53.000Z</time>
      </trkpt>
      <trkpt lat="44.3511" lon="6.86233">
        <ele>2469</ele>
        <time>2021-05-09T10:38:54.000Z</time>
      </trkpt>
      <trkpt lat="44.3511" lon="6.86232">
        <ele>2469.1999511719</ele>
        <time>2021-05-09T10:39:02.000Z</time>
      </trkpt>
      <trkpt lat="44.3511" lon="6.86233">
        <ele>2469.1999511719</ele>
        <time>2021-05-09T10:39:07.000Z</time>
      </trkpt>
      <trkpt lat="44.35109" lon="6.86233">
        <ele>2469.3999023438</ele>
        <time>2021-05-09T10:39:13.000Z</time>
      </trkpt>
      <trkpt lat="44.3511" lon="6.86233">
        <ele>2469.3999023438</ele>
        <time>2021-05-09T10:39:15.000Z</time>
      </trkpt>
      <trkpt lat="44.35111" lon="6.86233">
        <ele>2469.6000976562</ele>
        <time>2021-05-09T10:39:16.000Z</time>
      </trkpt>
      <trkpt lat="44.35111" lon="6.86233">
        <ele>2470</ele>
        <time>2021-05-09T10:39:19.000Z</time>
      </trkpt>
      <trkpt lat="44.35111" lon="6.86234">
        <ele>2469.3999023438</ele>
        <time>2021-05-09T10:39:22.000Z</time>
      </trkpt>
      <trkpt lat="44.35111" lon="6.86233">
        <ele>2469</ele>
        <time>2021-05-09T10:39:24.000Z</time>
      </trkpt>
      <trkpt lat="44.3511" lon="6.86233">
        <ele>2468.8000488281</ele>
        <time>2021-05-09T10:39:26.000Z</time>
      </trkpt>
      <trkpt lat="44.35111" lon="6.86235">
        <ele>2468.6000976562</ele>
        <time>2021-05-09T10:39:30.000Z</time>
      </trkpt>
      <trkpt lat="44.35111" lon="6.86235">
        <ele>2468.6000976562</ele>
        <time>2021-05-09T10:39:31.000Z</time>
      </trkpt>
      <trkpt lat="44.35112" lon="6.86236">
        <ele>2468.6000976562</ele>
        <time>2021-05-09T10:39:32.000Z</time>
      </trkpt>
      <trkpt lat="44.35111" lon="6.86234">
        <ele>2468.6000976562</ele>
        <time>2021-05-09T10:39:37.000Z</time>
      </trkpt>
      <trkpt lat="44.35111" lon="6.86234">
        <ele>2468.6000976562</ele>
        <time>2021-05-09T10:39:42.000Z</time>
      </trkpt>
      <trkpt lat="44.35111" lon="6.86234">
        <ele>2468.6000976562</ele>
        <time>2021-05-09T10:39:44.000Z</time>
      </trkpt>
      <trkpt lat="44.35111" lon="6.86235">
        <ele>2468.6000976562</ele>
        <time>2021-05-09T10:39:46.000Z</time>
      </trkpt>
      <trkpt lat="44.35112" lon="6.86236">
        <ele>2468.6000976562</ele>
        <time>2021-05-09T10:39:47.000Z</time>
      </trkpt>
      <trkpt lat="44.35112" lon="6.86235">
        <ele>2468.6000976562</ele>
        <time>2021-05-09T10:39:48.000Z</time>
      </trkpt>
      <trkpt lat="44.35112" lon="6.86236">
        <ele>2468.6000976562</ele>
        <time>2021-05-09T10:39:51.000Z</time>
      </trkpt>
      <trkpt lat="44.35109" lon="6.86229">
        <ele>2468.6000976562</ele>
        <time>2021-05-09T10:39:55.000Z</time>
      </trkpt>
      <trkpt lat="44.35105" lon="6.86225">
        <ele>2468.6000976562</ele>
        <time>2021-05-09T10:40:05.000Z</time>
      </trkpt>
      <trkpt lat="44.35104" lon="6.86225">
        <ele>2468.6000976562</ele>
        <time>2021-05-09T10:40:09.000Z</time>
      </trkpt>
      <trkpt lat="44.35103" lon="6.86223">
        <ele>2468.6000976562</ele>
        <time>2021-05-09T10:40:13.000Z</time>
      </trkpt>
      <trkpt lat="44.35103" lon="6.86223">
        <ele>2468.6000976562</ele>
        <time>2021-05-09T10:40:20.000Z</time>
      </trkpt>
      <trkpt lat="44.35103" lon="6.86224">
        <ele>2468.6000976562</ele>
        <time>2021-05-09T10:40:23.000Z</time>
      </trkpt>
      <trkpt lat="44.35103" lon="6.86225">
        <ele>2468.6000976562</ele>
        <time>2021-05-09T10:40:24.000Z</time>
      </trkpt>
      <trkpt lat="44.35103" lon="6.86225">
        <ele>2468.6000976562</ele>
        <time>2021-05-09T10:40:25.000Z</time>
      </trkpt>
      <trkpt lat="44.35103" lon="6.86223">
        <ele>2468.6000976562</ele>
        <time>2021-05-09T10:40:26.000Z</time>
      </trkpt>
      <trkpt lat="44.35102" lon="6.86222">
        <ele>2468.6000976562</ele>
        <time>2021-05-09T10:40:28.000Z</time>
      </trkpt>
      <trkpt lat="44.35102" lon="6.86222">
        <ele>2468.6000976562</ele>
        <time>2021-05-09T10:40:34.000Z</time>
      </trkpt>
      <trkpt lat="44.35103" lon="6.86222">
        <ele>2468.6000976562</ele>
        <time>2021-05-09T10:40:35.000Z</time>
      </trkpt>
      <trkpt lat="44.35103" lon="6.86223">
        <ele>2468.6000976562</ele>
        <time>2021-05-09T10:40:37.000Z</time>
      </trkpt>
      <trkpt lat="44.35103" lon="6.86223">
        <ele>2468.6000976562</ele>
        <time>2021-05-09T10:40:38.000Z</time>
      </trkpt>
      <trkpt lat="44.35103" lon="6.86222">
        <ele>2468.6000976562</ele>
        <time>2021-05-09T10:40:40.000Z</time>
      </trkpt>
      <trkpt lat="44.35103" lon="6.86222">
        <ele>2468.6000976562</ele>
        <time>2021-05-09T10:40:42.000Z</time>
      </trkpt>
      <trkpt lat="44.35102" lon="6.86218">
        <ele>2468.6000976562</ele>
        <time>2021-05-09T10:40:48.000Z</time>
      </trkpt>
      <trkpt lat="44.35103" lon="6.8622">
        <ele>2468.6000976562</ele>
        <time>2021-05-09T10:40:51.000Z</time>
      </trkpt>
      <trkpt lat="44.35109" lon="6.86229">
        <ele>2468.6000976562</ele>
        <time>2021-05-09T10:40:59.000Z</time>
      </trkpt>
      <trkpt lat="44.35108" lon="6.86227">
        <ele>2468.6000976562</ele>
        <time>2021-05-09T10:41:02.000Z</time>
      </trkpt>
      <trkpt lat="44.35107" lon="6.86225">
        <ele>2468.6000976562</ele>
        <time>2021-05-09T10:41:03.000Z</time>
      </trkpt>
      <trkpt lat="44.35106" lon="6.86224">
        <ele>2468.6000976562</ele>
        <time>2021-05-09T10:41:04.000Z</time>
      </trkpt>
      <trkpt lat="44.35106" lon="6.86224">
        <ele>2468.6000976562</ele>
        <time>2021-05-09T10:41:06.000Z</time>
      </trkpt>
      <trkpt lat="44.35106" lon="6.86224">
        <ele>2468.6000976562</ele>
        <time>2021-05-09T10:41:07.000Z</time>
      </trkpt>
      <trkpt lat="44.35106" lon="6.86223">
        <ele>2468.6000976562</ele>
        <time>2021-05-09T10:41:09.000Z</time>
      </trkpt>
      <trkpt lat="44.35106" lon="6.86223">
        <ele>2468.6000976562</ele>
        <time>2021-05-09T10:41:10.000Z</time>
      </trkpt>
      <trkpt lat="44.35106" lon="6.86223">
        <ele>2468.6000976562</ele>
        <time>2021-05-09T10:41:11.000Z</time>
      </trkpt>
      <trkpt lat="44.35106" lon="6.86223">
        <ele>2468.6000976562</ele>
        <time>2021-05-09T10:41:12.000Z</time>
      </trkpt>
      <trkpt lat="44.35107" lon="6.86221">
        <ele>2468.6000976562</ele>
        <time>2021-05-09T10:41:17.000Z</time>
      </trkpt>
      <trkpt lat="44.35107" lon="6.86221">
        <ele>2468.6000976562</ele>
        <time>2021-05-09T10:41:18.000Z</time>
      </trkpt>
      <trkpt lat="44.35107" lon="6.86223">
        <ele>2468.6000976562</ele>
        <time>2021-05-09T10:41:19.000Z</time>
      </trkpt>
      <trkpt lat="44.35108" lon="6.86224">
        <ele>2468.6000976562</ele>
        <time>2021-05-09T10:41:20.000Z</time>
      </trkpt>
      <trkpt lat="44.35108" lon="6.86224">
        <ele>2468.6000976562</ele>
        <time>2021-05-09T10:41:22.000Z</time>
      </trkpt>
      <trkpt lat="44.35108" lon="6.86224">
        <ele>2468.6000976562</ele>
        <time>2021-05-09T10:41:23.000Z</time>
      </trkpt>
      <trkpt lat="44.35108" lon="6.86224">
        <ele>2468.6000976562</ele>
        <time>2021-05-09T10:41:24.000Z</time>
      </trkpt>
      <trkpt lat="44.35109" lon="6.86225">
        <ele>2468.6000976562</ele>
        <time>2021-05-09T10:41:25.000Z</time>
      </trkpt>
      <trkpt lat="44.35109" lon="6.86226">
        <ele>2468.6000976562</ele>
        <time>2021-05-09T10:41:26.000Z</time>
      </trkpt>
      <trkpt lat="44.35109" lon="6.86226">
        <ele>2468.6000976562</ele>
        <time>2021-05-09T10:41:27.000Z</time>
      </trkpt>
      <trkpt lat="44.35107" lon="6.86225">
        <ele>2468.6000976562</ele>
        <time>2021-05-09T10:41:31.000Z</time>
      </trkpt>
      <trkpt lat="44.35107" lon="6.86226">
        <ele>2468.6000976562</ele>
        <time>2021-05-09T10:41:36.000Z</time>
      </trkpt>
      <trkpt lat="44.35107" lon="6.86226">
        <ele>2468.6000976562</ele>
        <time>2021-05-09T10:41:37.000Z</time>
      </trkpt>
      <trkpt lat="44.35108" lon="6.86227">
        <ele>2468.6000976562</ele>
        <time>2021-05-09T10:41:42.000Z</time>
      </trkpt>
      <trkpt lat="44.35109" lon="6.86229">
        <ele>2468.6000976562</ele>
        <time>2021-05-09T10:41:51.000Z</time>
      </trkpt>
      <trkpt lat="44.35109" lon="6.8623">
        <ele>2468.6000976562</ele>
        <time>2021-05-09T10:41:53.000Z</time>
      </trkpt>
      <trkpt lat="44.35109" lon="6.86229">
        <ele>2468.6000976562</ele>
        <time>2021-05-09T10:41:55.000Z</time>
      </trkpt>
      <trkpt lat="44.35109" lon="6.86229">
        <ele>2468.6000976562</ele>
        <time>2021-05-09T10:41:56.000Z</time>
      </trkpt>
      <trkpt lat="44.35109" lon="6.86229">
        <ele>2468.6000976562</ele>
        <time>2021-05-09T10:41:57.000Z</time>
      </trkpt>
      <trkpt lat="44.35109" lon="6.86228">
        <ele>2468.6000976562</ele>
        <time>2021-05-09T10:42:01.000Z</time>
      </trkpt>
      <trkpt lat="44.35109" lon="6.86228">
        <ele>2468.6000976562</ele>
        <time>2021-05-09T10:42:02.000Z</time>
      </trkpt>
      <trkpt lat="44.35109" lon="6.86229">
        <ele>2468.6000976562</ele>
        <time>2021-05-09T10:42:03.000Z</time>
      </trkpt>
      <trkpt lat="44.3511" lon="6.8623">
        <ele>2468.6000976562</ele>
        <time>2021-05-09T10:42:05.000Z</time>
      </trkpt>
      <trkpt lat="44.35111" lon="6.86234">
        <ele>2468.6000976562</ele>
        <time>2021-05-09T10:42:06.000Z</time>
      </trkpt>
      <trkpt lat="44.35112" lon="6.86236">
        <ele>2468.6000976562</ele>
        <time>2021-05-09T10:42:08.000Z</time>
      </trkpt>
      <trkpt lat="44.35113" lon="6.86236">
        <ele>2468.6000976562</ele>
        <time>2021-05-09T10:42:11.000Z</time>
      </trkpt>
      <trkpt lat="44.35113" lon="6.86236">
        <ele>2468.6000976562</ele>
        <time>2021-05-09T10:42:13.000Z</time>
      </trkpt>
      <trkpt lat="44.35112" lon="6.86235">
        <ele>2468.6000976562</ele>
        <time>2021-05-09T10:42:15.000Z</time>
      </trkpt>
      <trkpt lat="44.35111" lon="6.86234">
        <ele>2468.6000976562</ele>
        <time>2021-05-09T10:42:19.000Z</time>
      </trkpt>
      <trkpt lat="44.3511" lon="6.86234">
        <ele>2468.6000976562</ele>
        <time>2021-05-09T10:42:26.000Z</time>
      </trkpt>
      <trkpt lat="44.35109" lon="6.86233">
        <ele>2468.6000976562</ele>
        <time>2021-05-09T10:42:31.000Z</time>
      </trkpt>
      <trkpt lat="44.35109" lon="6.86231">
        <ele>2468.6000976562</ele>
        <time>2021-05-09T10:42:34.000Z</time>
      </trkpt>
      <trkpt lat="44.35108" lon="6.8623">
        <ele>2468.6000976562</ele>
        <time>2021-05-09T10:42:38.000Z</time>
      </trkpt>
      <trkpt lat="44.35107" lon="6.8623">
        <ele>2468.6000976562</ele>
        <time>2021-05-09T10:42:39.000Z</time>
      </trkpt>
      <trkpt lat="44.35107" lon="6.86229">
        <ele>2468.6000976562</ele>
        <time>2021-05-09T10:42:40.000Z</time>
      </trkpt>
      <trkpt lat="44.35108" lon="6.8623">
        <ele>2468.6000976562</ele>
        <time>2021-05-09T10:42:42.000Z</time>
      </trkpt>
      <trkpt lat="44.35109" lon="6.86231">
        <ele>2468.6000976562</ele>
        <time>2021-05-09T10:42:44.000Z</time>
      </trkpt>
      <trkpt lat="44.3511" lon="6.86232">
        <ele>2468.6000976562</ele>
        <time>2021-05-09T10:42:47.000Z</time>
      </trkpt>
      <trkpt lat="44.35111" lon="6.86234">
        <ele>2468.6000976562</ele>
        <time>2021-05-09T10:42:52.000Z</time>
      </trkpt>
      <trkpt lat="44.35114" lon="6.86239">
        <ele>2468.6000976562</ele>
        <time>2021-05-09T10:42:58.000Z</time>
      </trkpt>
      <trkpt lat="44.35115" lon="6.86241">
        <ele>2468.6000976562</ele>
        <time>2021-05-09T10:43:01.000Z</time>
      </trkpt>
      <trkpt lat="44.35113" lon="6.86239">
        <ele>2468.6000976562</ele>
        <time>2021-05-09T10:43:12.000Z</time>
      </trkpt>
      <trkpt lat="44.35109" lon="6.86232">
        <ele>2468.6000976562</ele>
        <time>2021-05-09T10:43:19.000Z</time>
      </trkpt>
      <trkpt lat="44.35109" lon="6.86231">
        <ele>2468.6000976562</ele>
        <time>2021-05-09T10:43:21.000Z</time>
      </trkpt>
      <trkpt lat="44.35111" lon="6.86233">
        <ele>2468.6000976562</ele>
        <time>2021-05-09T10:43:24.000Z</time>
      </trkpt>
      <trkpt lat="44.35114" lon="6.86235">
        <ele>2468.6000976562</ele>
        <time>2021-05-09T10:43:28.000Z</time>
      </trkpt>
      <trkpt lat="44.35115" lon="6.86236">
        <ele>2468.6000976562</ele>
        <time>2021-05-09T10:43:29.000Z</time>
      </trkpt>
      <trkpt lat="44.35115" lon="6.86236">
        <ele>2468.6000976562</ele>
        <time>2021-05-09T10:43:31.000Z</time>
      </trkpt>
      <trkpt lat="44.35117" lon="6.86238">
        <ele>2468.6000976562</ele>
        <time>2021-05-09T10:43:37.000Z</time>
      </trkpt>
      <trkpt lat="44.35115" lon="6.86236">
        <ele>2468.6000976562</ele>
        <time>2021-05-09T10:43:43.000Z</time>
      </trkpt>
      <trkpt lat="44.35116" lon="6.86235">
        <ele>2468.6000976562</ele>
        <time>2021-05-09T10:43:49.000Z</time>
      </trkpt>
      <trkpt lat="44.35112" lon="6.86232">
        <ele>2468.6000976562</ele>
        <time>2021-05-09T10:43:58.000Z</time>
      </trkpt>
      <trkpt lat="44.3511" lon="6.86225">
        <ele>2468.6000976562</ele>
        <time>2021-05-09T10:44:22.000Z</time>
      </trkpt>
      <trkpt lat="44.35113" lon="6.86229">
        <ele>2468.6000976562</ele>
        <time>2021-05-09T10:44:38.000Z</time>
      </trkpt>
      <trkpt lat="44.35113" lon="6.86229">
        <ele>2468.6000976562</ele>
        <time>2021-05-09T10:44:39.000Z</time>
      </trkpt>
      <trkpt lat="44.35113" lon="6.86229">
        <ele>2468.8000488281</ele>
        <time>2021-05-09T10:44:42.000Z</time>
      </trkpt>
      <trkpt lat="44.35111" lon="6.86224">
        <ele>2469.1999511719</ele>
        <time>2021-05-09T10:44:58.000Z</time>
      </trkpt>
      <trkpt lat="44.3511" lon="6.86221">
        <ele>2469</ele>
        <time>2021-05-09T10:45:01.000Z</time>
      </trkpt>
      <trkpt lat="44.35107" lon="6.86219">
        <ele>2469.1999511719</ele>
        <time>2021-05-09T10:45:05.000Z</time>
      </trkpt>
      <trkpt lat="44.351" lon="6.86213">
        <ele>2469.6000976562</ele>
        <time>2021-05-09T10:45:13.000Z</time>
      </trkpt>
      <trkpt lat="44.35102" lon="6.86215">
        <ele>2469.6000976562</ele>
        <time>2021-05-09T10:45:18.000Z</time>
      </trkpt>
      <trkpt lat="44.35103" lon="6.86216">
        <ele>2469.6000976562</ele>
        <time>2021-05-09T10:45:20.000Z</time>
      </trkpt>
      <trkpt lat="44.35104" lon="6.86217">
        <ele>2469.6000976562</ele>
        <time>2021-05-09T10:45:21.000Z</time>
      </trkpt>
      <trkpt lat="44.35106" lon="6.86218">
        <ele>2469.6000976562</ele>
        <time>2021-05-09T10:45:23.000Z</time>
      </trkpt>
      <trkpt lat="44.35108" lon="6.86221">
        <ele>2469.8000488281</ele>
        <time>2021-05-09T10:45:26.000Z</time>
      </trkpt>
      <trkpt lat="44.35109" lon="6.86223">
        <ele>2469.8000488281</ele>
        <time>2021-05-09T10:45:35.000Z</time>
      </trkpt>
      <trkpt lat="44.3511" lon="6.86223">
        <ele>2469.8000488281</ele>
        <time>2021-05-09T10:45:42.000Z</time>
      </trkpt>
      <trkpt lat="44.3511" lon="6.86223">
        <ele>2470</ele>
        <time>2021-05-09T10:45:46.000Z</time>
      </trkpt>
      <trkpt lat="44.35111" lon="6.86224">
        <ele>2469.8000488281</ele>
        <time>2021-05-09T10:45:48.000Z</time>
      </trkpt>
      <trkpt lat="44.35112" lon="6.86225">
        <ele>2469.8000488281</ele>
        <time>2021-05-09T10:45:50.000Z</time>
      </trkpt>
      <trkpt lat="44.3511" lon="6.86223">
        <ele>2469.6000976562</ele>
        <time>2021-05-09T10:45:53.000Z</time>
      </trkpt>
      <trkpt lat="44.35111" lon="6.86224">
        <ele>2469.6000976562</ele>
        <time>2021-05-09T10:45:54.000Z</time>
      </trkpt>
      <trkpt lat="44.35111" lon="6.86224">
        <ele>2469.6000976562</ele>
        <time>2021-05-09T10:45:56.000Z</time>
      </trkpt>
      <trkpt lat="44.3511" lon="6.86223">
        <ele>2469.6000976562</ele>
        <time>2021-05-09T10:45:58.000Z</time>
      </trkpt>
      <trkpt lat="44.3511" lon="6.86224">
        <ele>2469.8000488281</ele>
        <time>2021-05-09T10:46:01.000Z</time>
      </trkpt>
      <trkpt lat="44.35112" lon="6.86228">
        <ele>2469.6000976562</ele>
        <time>2021-05-09T10:46:07.000Z</time>
      </trkpt>
      <trkpt lat="44.35111" lon="6.8623">
        <ele>2469.8000488281</ele>
        <time>2021-05-09T10:46:13.000Z</time>
      </trkpt>
      <trkpt lat="44.35112" lon="6.86229">
        <ele>2470</ele>
        <time>2021-05-09T10:46:15.000Z</time>
      </trkpt>
      <trkpt lat="44.3511" lon="6.86222">
        <ele>2470</ele>
        <time>2021-05-09T10:46:18.000Z</time>
      </trkpt>
      <trkpt lat="44.3511" lon="6.86221">
        <ele>2469.6000976562</ele>
        <time>2021-05-09T10:46:22.000Z</time>
      </trkpt>
      <trkpt lat="44.35114" lon="6.86233">
        <ele>2469.8000488281</ele>
        <time>2021-05-09T10:46:35.000Z</time>
      </trkpt>
      <trkpt lat="44.35114" lon="6.86233">
        <ele>2469.8000488281</ele>
        <time>2021-05-09T10:46:39.000Z</time>
      </trkpt>
      <trkpt lat="44.35113" lon="6.86232">
        <ele>2470.1999511719</ele>
        <time>2021-05-09T10:46:58.000Z</time>
      </trkpt>
      <trkpt lat="44.35112" lon="6.86228">
        <ele>2470.3999023438</ele>
        <time>2021-05-09T10:47:00.000Z</time>
      </trkpt>
      <trkpt lat="44.35112" lon="6.86227">
        <ele>2470.6000976562</ele>
        <time>2021-05-09T10:47:07.000Z</time>
      </trkpt>
      <trkpt lat="44.35111" lon="6.86227">
        <ele>2470.6000976562</ele>
        <time>2021-05-09T10:47:10.000Z</time>
      </trkpt>
      <trkpt lat="44.3511" lon="6.86225">
        <ele>2470.3999023438</ele>
        <time>2021-05-09T10:47:18.000Z</time>
      </trkpt>
      <trkpt lat="44.3511" lon="6.86224">
        <ele>2470.3999023438</ele>
        <time>2021-05-09T10:47:19.000Z</time>
      </trkpt>
      <trkpt lat="44.3511" lon="6.86224">
        <ele>2470.1999511719</ele>
        <time>2021-05-09T10:47:25.000Z</time>
      </trkpt>
      <trkpt lat="44.35109" lon="6.86221">
        <ele>2470.1999511719</ele>
        <time>2021-05-09T10:47:29.000Z</time>
      </trkpt>
      <trkpt lat="44.35108" lon="6.8622">
        <ele>2470.1999511719</ele>
        <time>2021-05-09T10:47:31.000Z</time>
      </trkpt>
      <trkpt lat="44.35109" lon="6.86222">
        <ele>2469.6000976562</ele>
        <time>2021-05-09T10:47:36.000Z</time>
      </trkpt>
      <trkpt lat="44.3511" lon="6.86223">
        <ele>2469.6000976562</ele>
        <time>2021-05-09T10:47:37.000Z</time>
      </trkpt>
      <trkpt lat="44.3511" lon="6.86224">
        <ele>2469.6000976562</ele>
        <time>2021-05-09T10:47:38.000Z</time>
      </trkpt>
      <trkpt lat="44.35111" lon="6.86225">
        <ele>2469.6000976562</ele>
        <time>2021-05-09T10:47:42.000Z</time>
      </trkpt>
      <trkpt lat="44.35111" lon="6.86226">
        <ele>2469.6000976562</ele>
        <time>2021-05-09T10:47:43.000Z</time>
      </trkpt>
      <trkpt lat="44.35111" lon="6.86227">
        <ele>2469.6000976562</ele>
        <time>2021-05-09T10:47:47.000Z</time>
      </trkpt>
      <trkpt lat="44.35113" lon="6.8623">
        <ele>2469.8000488281</ele>
        <time>2021-05-09T10:47:55.000Z</time>
      </trkpt>
      <trkpt lat="44.35116" lon="6.86236">
        <ele>2469.8000488281</ele>
        <time>2021-05-09T10:48:06.000Z</time>
      </trkpt>
      <trkpt lat="44.35116" lon="6.86237">
        <ele>2469.8000488281</ele>
        <time>2021-05-09T10:48:07.000Z</time>
      </trkpt>
      <trkpt lat="44.35116" lon="6.86236">
        <ele>2469.8000488281</ele>
        <time>2021-05-09T10:48:11.000Z</time>
      </trkpt>
      <trkpt lat="44.35115" lon="6.86232">
        <ele>2469.6000976562</ele>
        <time>2021-05-09T10:48:18.000Z</time>
      </trkpt>
      <trkpt lat="44.35111" lon="6.86221">
        <ele>2469.6000976562</ele>
        <time>2021-05-09T10:48:21.000Z</time>
      </trkpt>
      <trkpt lat="44.35106" lon="6.86212">
        <ele>2469.1999511719</ele>
        <time>2021-05-09T10:48:23.000Z</time>
      </trkpt>
      <trkpt lat="44.35101" lon="6.86203">
        <ele>2468.1999511719</ele>
        <time>2021-05-09T10:48:25.000Z</time>
      </trkpt>
      <trkpt lat="44.35093" lon="6.862">
        <ele>2466.8000488281</ele>
        <time>2021-05-09T10:48:27.000Z</time>
      </trkpt>
      <trkpt lat="44.35089" lon="6.86196">
        <ele>2465.8000488281</ele>
        <time>2021-05-09T10:48:28.000Z</time>
      </trkpt>
      <trkpt lat="44.35088" lon="6.86194">
        <ele>2465</ele>
        <time>2021-05-09T10:48:29.000Z</time>
      </trkpt>
      <trkpt lat="44.35088" lon="6.86192">
        <ele>2464.1999511719</ele>
        <time>2021-05-09T10:48:30.000Z</time>
      </trkpt>
      <trkpt lat="44.35085" lon="6.86191">
        <ele>2463.1999511719</ele>
        <time>2021-05-09T10:48:31.000Z</time>
      </trkpt>
      <trkpt lat="44.35079" lon="6.8619">
        <ele>2461.6000976562</ele>
        <time>2021-05-09T10:48:33.000Z</time>
      </trkpt>
      <trkpt lat="44.35071" lon="6.86189">
        <ele>2460.1999511719</ele>
        <time>2021-05-09T10:48:35.000Z</time>
      </trkpt>
      <trkpt lat="44.35067" lon="6.86181">
        <ele>2458.8000488281</ele>
        <time>2021-05-09T10:48:37.000Z</time>
      </trkpt>
      <trkpt lat="44.35063" lon="6.86174">
        <ele>2457.3999023438</ele>
        <time>2021-05-09T10:48:39.000Z</time>
      </trkpt>
      <trkpt lat="44.35056" lon="6.8617">
        <ele>2455.8000488281</ele>
        <time>2021-05-09T10:48:41.000Z</time>
      </trkpt>
      <trkpt lat="44.35048" lon="6.86169">
        <ele>2454.1999511719</ele>
        <time>2021-05-09T10:48:43.000Z</time>
      </trkpt>
      <trkpt lat="44.3504" lon="6.86164">
        <ele>2452.3999023438</ele>
        <time>2021-05-09T10:48:45.000Z</time>
      </trkpt>
      <trkpt lat="44.35034" lon="6.86161">
        <ele>2451</ele>
        <time>2021-05-09T10:48:47.000Z</time>
      </trkpt>
      <trkpt lat="44.3503" lon="6.86158">
        <ele>2450.3999023438</ele>
        <time>2021-05-09T10:48:49.000Z</time>
      </trkpt>
      <trkpt lat="44.35026" lon="6.86157">
        <ele>2450</ele>
        <time>2021-05-09T10:48:50.000Z</time>
      </trkpt>
      <trkpt lat="44.35013" lon="6.86144">
        <ele>2448.8000488281</ele>
        <time>2021-05-09T10:48:56.000Z</time>
      </trkpt>
      <trkpt lat="44.35008" lon="6.86135">
        <ele>2447.6000976562</ele>
        <time>2021-05-09T10:48:59.000Z</time>
      </trkpt>
      <trkpt lat="44.35001" lon="6.86123">
        <ele>2446.6000976562</ele>
        <time>2021-05-09T10:49:03.000Z</time>
      </trkpt>
      <trkpt lat="44.3499" lon="6.86102">
        <ele>2445.1999511719</ele>
        <time>2021-05-09T10:49:08.000Z</time>
      </trkpt>
      <trkpt lat="44.34984" lon="6.86093">
        <ele>2444</ele>
        <time>2021-05-09T10:49:10.000Z</time>
      </trkpt>
      <trkpt lat="44.34979" lon="6.86085">
        <ele>2442.8000488281</ele>
        <time>2021-05-09T10:49:13.000Z</time>
      </trkpt>
      <trkpt lat="44.34982" lon="6.86081">
        <ele>2441.8000488281</ele>
        <time>2021-05-09T10:49:18.000Z</time>
      </trkpt>
      <trkpt lat="44.3497" lon="6.86075">
        <ele>2441.6000976562</ele>
        <time>2021-05-09T10:49:24.000Z</time>
      </trkpt>
      <trkpt lat="44.34967" lon="6.86073">
        <ele>2441.6000976562</ele>
        <time>2021-05-09T10:49:26.000Z</time>
      </trkpt>
      <trkpt lat="44.34963" lon="6.86071">
        <ele>2441.8000488281</ele>
        <time>2021-05-09T10:49:32.000Z</time>
      </trkpt>
      <trkpt lat="44.34944" lon="6.8605">
        <ele>2441.6000976562</ele>
        <time>2021-05-09T10:49:45.000Z</time>
      </trkpt>
      <trkpt lat="44.34948" lon="6.86045">
        <ele>2440.6000976562</ele>
        <time>2021-05-09T10:49:48.000Z</time>
      </trkpt>
      <trkpt lat="44.34951" lon="6.86043">
        <ele>2440.3999023438</ele>
        <time>2021-05-09T10:49:50.000Z</time>
      </trkpt>
      <trkpt lat="44.34948" lon="6.86038">
        <ele>2439.6000976562</ele>
        <time>2021-05-09T10:49:55.000Z</time>
      </trkpt>
      <trkpt lat="44.34944" lon="6.86038">
        <ele>2439</ele>
        <time>2021-05-09T10:50:02.000Z</time>
      </trkpt>
      <trkpt lat="44.34948" lon="6.86038">
        <ele>2438.6000976562</ele>
        <time>2021-05-09T10:50:05.000Z</time>
      </trkpt>
      <trkpt lat="44.34996" lon="6.86053">
        <ele>2439.6000976562</ele>
        <time>2021-05-09T10:50:29.000Z</time>
      </trkpt>
      <trkpt lat="44.34995" lon="6.86052">
        <ele>2439.6000976562</ele>
        <time>2021-05-09T10:50:41.000Z</time>
      </trkpt>
      <trkpt lat="44.34994" lon="6.86052">
        <ele>2439.6000976562</ele>
        <time>2021-05-09T10:50:42.000Z</time>
      </trkpt>
      <trkpt lat="44.34994" lon="6.86051">
        <ele>2439.6000976562</ele>
        <time>2021-05-09T10:50:43.000Z</time>
      </trkpt>
      <trkpt lat="44.3499" lon="6.86051">
        <ele>2439.6000976562</ele>
        <time>2021-05-09T10:50:44.000Z</time>
      </trkpt>
      <trkpt lat="44.34984" lon="6.86051">
        <ele>2439.6000976562</ele>
        <time>2021-05-09T10:50:46.000Z</time>
      </trkpt>
      <trkpt lat="44.34978" lon="6.8605">
        <ele>2439.6000976562</ele>
        <time>2021-05-09T10:50:48.000Z</time>
      </trkpt>
      <trkpt lat="44.34976" lon="6.8605">
        <ele>2439.6000976562</ele>
        <time>2021-05-09T10:50:52.000Z</time>
      </trkpt>
      <trkpt lat="44.34951" lon="6.86041">
        <ele>2439.3999023438</ele>
        <time>2021-05-09T10:51:06.000Z</time>
      </trkpt>
      <trkpt lat="44.34983" lon="6.8605">
        <ele>2439.6000976562</ele>
        <time>2021-05-09T10:51:15.000Z</time>
      </trkpt>
      <trkpt lat="44.34979" lon="6.86047">
        <ele>2439.6000976562</ele>
        <time>2021-05-09T10:51:19.000Z</time>
      </trkpt>
      <trkpt lat="44.34953" lon="6.8604">
        <ele>2439.6000976562</ele>
        <time>2021-05-09T10:51:32.000Z</time>
      </trkpt>
      <trkpt lat="44.34934" lon="6.86033">
        <ele>2439.6000976562</ele>
        <time>2021-05-09T10:51:42.000Z</time>
      </trkpt>
      <trkpt lat="44.3493" lon="6.86032">
        <ele>2439.6000976562</ele>
        <time>2021-05-09T10:51:47.000Z</time>
      </trkpt>
      <trkpt lat="44.3494" lon="6.86035">
        <ele>2439.6000976562</ele>
        <time>2021-05-09T10:51:50.000Z</time>
      </trkpt>
      <trkpt lat="44.34951" lon="6.86039">
        <ele>2439.6000976562</ele>
        <time>2021-05-09T10:51:59.000Z</time>
      </trkpt>
      <trkpt lat="44.34989" lon="6.86044">
        <ele>2439.6000976562</ele>
        <time>2021-05-09T10:52:04.000Z</time>
      </trkpt>
      <trkpt lat="44.35005" lon="6.86048">
        <ele>2439.6000976562</ele>
        <time>2021-05-09T10:52:08.000Z</time>
      </trkpt>
      <trkpt lat="44.35017" lon="6.86053">
        <ele>2439.6000976562</ele>
        <time>2021-05-09T10:52:13.000Z</time>
      </trkpt>
      <trkpt lat="44.35017" lon="6.86053">
        <ele>2439.6000976562</ele>
        <time>2021-05-09T10:52:16.000Z</time>
      </trkpt>
      <trkpt lat="44.35004" lon="6.86052">
        <ele>2439.6000976562</ele>
        <time>2021-05-09T10:52:21.000Z</time>
      </trkpt>
      <trkpt lat="44.35004" lon="6.86052">
        <ele>2439.6000976562</ele>
        <time>2021-05-09T10:52:22.000Z</time>
      </trkpt>
      <trkpt lat="44.34999" lon="6.86053">
        <ele>2439.6000976562</ele>
        <time>2021-05-09T10:52:24.000Z</time>
      </trkpt>
      <trkpt lat="44.34975" lon="6.86048">
        <ele>2439.6000976562</ele>
        <time>2021-05-09T10:52:28.000Z</time>
      </trkpt>
      <trkpt lat="44.34961" lon="6.86045">
        <ele>2439.6000976562</ele>
        <time>2021-05-09T10:52:32.000Z</time>
      </trkpt>
      <trkpt lat="44.34944" lon="6.86038">
        <ele>2439.6000976562</ele>
        <time>2021-05-09T10:52:47.000Z</time>
      </trkpt>
      <trkpt lat="44.3495" lon="6.86041">
        <ele>2439.6000976562</ele>
        <time>2021-05-09T10:52:50.000Z</time>
      </trkpt>
      <trkpt lat="44.34953" lon="6.86041">
        <ele>2439.6000976562</ele>
        <time>2021-05-09T10:52:51.000Z</time>
      </trkpt>
      <trkpt lat="44.34959" lon="6.86044">
        <ele>2439.6000976562</ele>
        <time>2021-05-09T10:52:52.000Z</time>
      </trkpt>
      <trkpt lat="44.34963" lon="6.86046">
        <ele>2439.6000976562</ele>
        <time>2021-05-09T10:52:54.000Z</time>
      </trkpt>
      <trkpt lat="44.34959" lon="6.86044">
        <ele>2439.6000976562</ele>
        <time>2021-05-09T10:52:57.000Z</time>
      </trkpt>
      <trkpt lat="44.34956" lon="6.86043">
        <ele>2439.6000976562</ele>
        <time>2021-05-09T10:52:59.000Z</time>
      </trkpt>
      <trkpt lat="44.34953" lon="6.86041">
        <ele>2439.6000976562</ele>
        <time>2021-05-09T10:53:05.000Z</time>
      </trkpt>
      <trkpt lat="44.34948" lon="6.86039">
        <ele>2439.6000976562</ele>
        <time>2021-05-09T10:53:09.000Z</time>
      </trkpt>
      <trkpt lat="44.34951" lon="6.8604">
        <ele>2439.6000976562</ele>
        <time>2021-05-09T10:53:11.000Z</time>
      </trkpt>
      <trkpt lat="44.34955" lon="6.8604">
        <ele>2439.6000976562</ele>
        <time>2021-05-09T10:53:13.000Z</time>
      </trkpt>
      <trkpt lat="44.34967" lon="6.86043">
        <ele>2439.6000976562</ele>
        <time>2021-05-09T10:53:16.000Z</time>
      </trkpt>
      <trkpt lat="44.34967" lon="6.86043">
        <ele>2439.6000976562</ele>
        <time>2021-05-09T10:53:19.000Z</time>
      </trkpt>
      <trkpt lat="44.34953" lon="6.8604">
        <ele>2439.6000976562</ele>
        <time>2021-05-09T10:53:23.000Z</time>
      </trkpt>
      <trkpt lat="44.34951" lon="6.8604">
        <ele>2439.6000976562</ele>
        <time>2021-05-09T10:53:24.000Z</time>
      </trkpt>
      <trkpt lat="44.34948" lon="6.86039">
        <ele>2439.6000976562</ele>
        <time>2021-05-09T10:53:28.000Z</time>
      </trkpt>
      <trkpt lat="44.34972" lon="6.86045">
        <ele>2439.6000976562</ele>
        <time>2021-05-09T10:53:44.000Z</time>
      </trkpt>
      <trkpt lat="44.34948" lon="6.86038">
        <ele>2439.6000976562</ele>
        <time>2021-05-09T10:53:53.000Z</time>
      </trkpt>
      <trkpt lat="44.34948" lon="6.8604">
        <ele>2439.6000976562</ele>
        <time>2021-05-09T10:54:04.000Z</time>
      </trkpt>
      <trkpt lat="44.34962" lon="6.86045">
        <ele>2439.6000976562</ele>
        <time>2021-05-09T10:54:07.000Z</time>
      </trkpt>
      <trkpt lat="44.34969" lon="6.86046">
        <ele>2439.6000976562</ele>
        <time>2021-05-09T10:54:14.000Z</time>
      </trkpt>
      <trkpt lat="44.34972" lon="6.86046">
        <ele>2439.6000976562</ele>
        <time>2021-05-09T10:54:19.000Z</time>
      </trkpt>
      <trkpt lat="44.34985" lon="6.86047">
        <ele>2439.6000976562</ele>
        <time>2021-05-09T10:54:27.000Z</time>
      </trkpt>
      <trkpt lat="44.34974" lon="6.86043">
        <ele>2439.6000976562</ele>
        <time>2021-05-09T10:54:33.000Z</time>
      </trkpt>
      <trkpt lat="44.34969" lon="6.86042">
        <ele>2439.6000976562</ele>
        <time>2021-05-09T10:54:36.000Z</time>
      </trkpt>
      <trkpt lat="44.34968" lon="6.86043">
        <ele>2439.6000976562</ele>
        <time>2021-05-09T10:54:44.000Z</time>
      </trkpt>
      <trkpt lat="44.3495" lon="6.86041">
        <ele>2439.6000976562</ele>
        <time>2021-05-09T10:54:49.000Z</time>
      </trkpt>
      <trkpt lat="44.34943" lon="6.86039">
        <ele>2439.6000976562</ele>
        <time>2021-05-09T10:54:54.000Z</time>
      </trkpt>
      <trkpt lat="44.34948" lon="6.86037">
        <ele>2439.6000976562</ele>
        <time>2021-05-09T10:55:14.000Z</time>
      </trkpt>
      <trkpt lat="44.34948" lon="6.86037">
        <ele>2439.6000976562</ele>
        <time>2021-05-09T10:55:15.000Z</time>
      </trkpt>
      <trkpt lat="44.34947" lon="6.86036">
        <ele>2439.6000976562</ele>
        <time>2021-05-09T10:55:16.000Z</time>
      </trkpt>
      <trkpt lat="44.34947" lon="6.86037">
        <ele>2439.6000976562</ele>
        <time>2021-05-09T10:55:19.000Z</time>
      </trkpt>
      <trkpt lat="44.34939" lon="6.86036">
        <ele>2439.6000976562</ele>
        <time>2021-05-09T10:55:34.000Z</time>
      </trkpt>
      <trkpt lat="44.34937" lon="6.86034">
        <ele>2439.6000976562</ele>
        <time>2021-05-09T10:55:37.000Z</time>
      </trkpt>
      <trkpt lat="44.3494" lon="6.86035">
        <ele>2439.6000976562</ele>
        <time>2021-05-09T10:55:40.000Z</time>
      </trkpt>
      <trkpt lat="44.34942" lon="6.86036">
        <ele>2439.6000976562</ele>
        <time>2021-05-09T10:55:41.000Z</time>
      </trkpt>
      <trkpt lat="44.34944" lon="6.86036">
        <ele>2439.6000976562</ele>
        <time>2021-05-09T10:55:42.000Z</time>
      </trkpt>
      <trkpt lat="44.34949" lon="6.86039">
        <ele>2439.6000976562</ele>
        <time>2021-05-09T10:55:46.000Z</time>
      </trkpt>
      <trkpt lat="44.3495" lon="6.86039">
        <ele>2439.6000976562</ele>
        <time>2021-05-09T10:55:47.000Z</time>
      </trkpt>
      <trkpt lat="44.34952" lon="6.86038">
        <ele>2439.6000976562</ele>
        <time>2021-05-09T10:55:52.000Z</time>
      </trkpt>
      <trkpt lat="44.3495" lon="6.86038">
        <ele>2439.6000976562</ele>
        <time>2021-05-09T10:56:00.000Z</time>
      </trkpt>
      <trkpt lat="44.3495" lon="6.86038">
        <ele>2439.6000976562</ele>
        <time>2021-05-09T10:56:03.000Z</time>
      </trkpt>
      <trkpt lat="44.34949" lon="6.86038">
        <ele>2439.6000976562</ele>
        <time>2021-05-09T10:56:04.000Z</time>
      </trkpt>
      <trkpt lat="44.34951" lon="6.8604">
        <ele>2439.6000976562</ele>
        <time>2021-05-09T10:56:15.000Z</time>
      </trkpt>
      <trkpt lat="44.34945" lon="6.86039">
        <ele>2439.6000976562</ele>
        <time>2021-05-09T10:56:20.000Z</time>
      </trkpt>
      <trkpt lat="44.34944" lon="6.86039">
        <ele>2439.6000976562</ele>
        <time>2021-05-09T10:56:23.000Z</time>
      </trkpt>
      <trkpt lat="44.3496" lon="6.86039">
        <ele>2439.6000976562</ele>
        <time>2021-05-09T10:56:36.000Z</time>
      </trkpt>
      <trkpt lat="44.34953" lon="6.86041">
        <ele>2439.6000976562</ele>
        <time>2021-05-09T10:57:04.000Z</time>
      </trkpt>
      <trkpt lat="44.34952" lon="6.86041">
        <ele>2439.6000976562</ele>
        <time>2021-05-09T10:57:05.000Z</time>
      </trkpt>
      <trkpt lat="44.34953" lon="6.86041">
        <ele>2439.6000976562</ele>
        <time>2021-05-09T10:57:06.000Z</time>
      </trkpt>
      <trkpt lat="44.34953" lon="6.86041">
        <ele>2439.6000976562</ele>
        <time>2021-05-09T10:57:10.000Z</time>
      </trkpt>
      <trkpt lat="44.34953" lon="6.8604">
        <ele>2439.6000976562</ele>
        <time>2021-05-09T10:57:12.000Z</time>
      </trkpt>
      <trkpt lat="44.34954" lon="6.86039">
        <ele>2439.6000976562</ele>
        <time>2021-05-09T10:57:16.000Z</time>
      </trkpt>
      <trkpt lat="44.34953" lon="6.86039">
        <ele>2439.6000976562</ele>
        <time>2021-05-09T10:57:17.000Z</time>
      </trkpt>
      <trkpt lat="44.34951" lon="6.86039">
        <ele>2439.6000976562</ele>
        <time>2021-05-09T10:57:20.000Z</time>
      </trkpt>
      <trkpt lat="44.34951" lon="6.86039">
        <ele>2439.6000976562</ele>
        <time>2021-05-09T10:57:22.000Z</time>
      </trkpt>
      <trkpt lat="44.34951" lon="6.8604">
        <ele>2439.6000976562</ele>
        <time>2021-05-09T10:57:27.000Z</time>
      </trkpt>
      <trkpt lat="44.34951" lon="6.86039">
        <ele>2439.6000976562</ele>
        <time>2021-05-09T10:57:31.000Z</time>
      </trkpt>
      <trkpt lat="44.34952" lon="6.8604">
        <ele>2439.6000976562</ele>
        <time>2021-05-09T10:57:32.000Z</time>
      </trkpt>
      <trkpt lat="44.34953" lon="6.8604">
        <ele>2439.6000976562</ele>
        <time>2021-05-09T10:57:34.000Z</time>
      </trkpt>
      <trkpt lat="44.34957" lon="6.86042">
        <ele>2439.6000976562</ele>
        <time>2021-05-09T10:57:37.000Z</time>
      </trkpt>
      <trkpt lat="44.34958" lon="6.86043">
        <ele>2439.6000976562</ele>
        <time>2021-05-09T10:57:39.000Z</time>
      </trkpt>
      <trkpt lat="44.34959" lon="6.86042">
        <ele>2439.6000976562</ele>
        <time>2021-05-09T10:57:45.000Z</time>
      </trkpt>
      <trkpt lat="44.34957" lon="6.86041">
        <ele>2439.6000976562</ele>
        <time>2021-05-09T10:57:46.000Z</time>
      </trkpt>
      <trkpt lat="44.34962" lon="6.86043">
        <ele>2439.6000976562</ele>
        <time>2021-05-09T10:57:54.000Z</time>
      </trkpt>
      <trkpt lat="44.34964" lon="6.86044">
        <ele>2439.6000976562</ele>
        <time>2021-05-09T10:57:55.000Z</time>
      </trkpt>
      <trkpt lat="44.3496" lon="6.86043">
        <ele>2439.6000976562</ele>
        <time>2021-05-09T10:58:03.000Z</time>
      </trkpt>
      <trkpt lat="44.34957" lon="6.86042">
        <ele>2439.6000976562</ele>
        <time>2021-05-09T10:58:07.000Z</time>
      </trkpt>
      <trkpt lat="44.34958" lon="6.86042">
        <ele>2439.6000976562</ele>
        <time>2021-05-09T10:58:09.000Z</time>
      </trkpt>
      <trkpt lat="44.34957" lon="6.86042">
        <ele>2439.6000976562</ele>
        <time>2021-05-09T10:58:10.000Z</time>
      </trkpt>
      <trkpt lat="44.34957" lon="6.86041">
        <ele>2439.6000976562</ele>
        <time>2021-05-09T10:58:11.000Z</time>
      </trkpt>
      <trkpt lat="44.34953" lon="6.8604">
        <ele>2439.6000976562</ele>
        <time>2021-05-09T10:58:14.000Z</time>
      </trkpt>
      <trkpt lat="44.34953" lon="6.8604">
        <ele>2439.6000976562</ele>
        <time>2021-05-09T10:58:15.000Z</time>
      </trkpt>
      <trkpt lat="44.34953" lon="6.86041">
        <ele>2439.6000976562</ele>
        <time>2021-05-09T10:58:16.000Z</time>
      </trkpt>
      <trkpt lat="44.34962" lon="6.86043">
        <ele>2439.6000976562</ele>
        <time>2021-05-09T10:58:22.000Z</time>
      </trkpt>
      <trkpt lat="44.34962" lon="6.86043">
        <ele>2439.6000976562</ele>
        <time>2021-05-09T10:58:25.000Z</time>
      </trkpt>
      <trkpt lat="44.34955" lon="6.86041">
        <ele>2439.6000976562</ele>
        <time>2021-05-09T10:58:37.000Z</time>
      </trkpt>
      <trkpt lat="44.34957" lon="6.86043">
        <ele>2439.6000976562</ele>
        <time>2021-05-09T10:58:42.000Z</time>
      </trkpt>
      <trkpt lat="44.34956" lon="6.86043">
        <ele>2439.6000976562</ele>
        <time>2021-05-09T10:58:46.000Z</time>
      </trkpt>
      <trkpt lat="44.34956" lon="6.86042">
        <ele>2439.6000976562</ele>
        <time>2021-05-09T10:58:52.000Z</time>
      </trkpt>
      <trkpt lat="44.3496" lon="6.86043">
        <ele>2439.6000976562</ele>
        <time>2021-05-09T10:58:57.000Z</time>
      </trkpt>
      <trkpt lat="44.34953" lon="6.8604">
        <ele>2439.6000976562</ele>
        <time>2021-05-09T10:59:04.000Z</time>
      </trkpt>
      <trkpt lat="44.34954" lon="6.8604">
        <ele>2439.6000976562</ele>
        <time>2021-05-09T10:59:05.000Z</time>
      </trkpt>
      <trkpt lat="44.34954" lon="6.8604">
        <ele>2439.6000976562</ele>
        <time>2021-05-09T10:59:06.000Z</time>
      </trkpt>
      <trkpt lat="44.34946" lon="6.86037">
        <ele>2439.6000976562</ele>
        <time>2021-05-09T10:59:10.000Z</time>
      </trkpt>
      <trkpt lat="44.34946" lon="6.86042">
        <ele>2439.6000976562</ele>
        <time>2021-05-09T10:59:19.000Z</time>
      </trkpt>
      <trkpt lat="44.3494" lon="6.86038">
        <ele>2439.6000976562</ele>
        <time>2021-05-09T10:59:26.000Z</time>
      </trkpt>
      <trkpt lat="44.34952" lon="6.8604">
        <ele>2439.6000976562</ele>
        <time>2021-05-09T10:59:53.000Z</time>
      </trkpt>
      <trkpt lat="44.34946" lon="6.86035">
        <ele>2439.6000976562</ele>
        <time>2021-05-09T11:00:06.000Z</time>
      </trkpt>
      <trkpt lat="44.3499" lon="6.86052">
        <ele>2439.6000976562</ele>
        <time>2021-05-09T11:00:26.000Z</time>
      </trkpt>
      <trkpt lat="44.34963" lon="6.86045">
        <ele>2439.6000976562</ele>
        <time>2021-05-09T11:00:43.000Z</time>
      </trkpt>
      <trkpt lat="44.34954" lon="6.86041">
        <ele>2439.6000976562</ele>
        <time>2021-05-09T11:01:13.000Z</time>
      </trkpt>
      <trkpt lat="44.34956" lon="6.86042">
        <ele>2439.6000976562</ele>
        <time>2021-05-09T11:01:19.000Z</time>
      </trkpt>
      <trkpt lat="44.34956" lon="6.86042">
        <ele>2439.6000976562</ele>
        <time>2021-05-09T11:01:37.000Z</time>
      </trkpt>
      <trkpt lat="44.34951" lon="6.86043">
        <ele>2439.6000976562</ele>
        <time>2021-05-09T11:02:00.000Z</time>
      </trkpt>
      <trkpt lat="44.34948" lon="6.86038">
        <ele>2439.6000976562</ele>
        <time>2021-05-09T11:02:20.000Z</time>
      </trkpt>
      <trkpt lat="44.34949" lon="6.86039">
        <ele>2439.6000976562</ele>
        <time>2021-05-09T11:02:21.000Z</time>
      </trkpt>
      <trkpt lat="44.34947" lon="6.86038">
        <ele>2443.3999023438</ele>
        <time>2021-05-09T11:02:23.000Z</time>
      </trkpt>
      <trkpt lat="44.34946" lon="6.86037">
        <ele>2442.1999511719</ele>
        <time>2021-05-09T11:02:24.000Z</time>
      </trkpt>
      <trkpt lat="44.34945" lon="6.86038">
        <ele>2441.1999511719</ele>
        <time>2021-05-09T11:02:31.000Z</time>
      </trkpt>
      <trkpt lat="44.34956" lon="6.86043">
        <ele>2440.1999511719</ele>
        <time>2021-05-09T11:02:42.000Z</time>
      </trkpt>
      <trkpt lat="44.34948" lon="6.86042">
        <ele>2440</ele>
        <time>2021-05-09T11:02:46.000Z</time>
      </trkpt>
      <trkpt lat="44.34948" lon="6.86041">
        <ele>2439.1999511719</ele>
        <time>2021-05-09T11:03:09.000Z</time>
      </trkpt>
      <trkpt lat="44.34952" lon="6.86043">
        <ele>2439</ele>
        <time>2021-05-09T11:03:28.000Z</time>
      </trkpt>
      <trkpt lat="44.3496" lon="6.86042">
        <ele>2439.8000488281</ele>
        <time>2021-05-09T11:03:40.000Z</time>
      </trkpt>
      <trkpt lat="44.34959" lon="6.86041">
        <ele>2439.8000488281</ele>
        <time>2021-05-09T11:03:41.000Z</time>
      </trkpt>
      <trkpt lat="44.34956" lon="6.86039">
        <ele>2439.8000488281</ele>
        <time>2021-05-09T11:03:43.000Z</time>
      </trkpt>
      <trkpt lat="44.34955" lon="6.86038">
        <ele>2439.8000488281</ele>
        <time>2021-05-09T11:03:44.000Z</time>
      </trkpt>
      <trkpt lat="44.3495" lon="6.86034">
        <ele>2440.1999511719</ele>
        <time>2021-05-09T11:03:47.000Z</time>
      </trkpt>
      <trkpt lat="44.3495" lon="6.86033">
        <ele>2440.1999511719</ele>
        <time>2021-05-09T11:03:48.000Z</time>
      </trkpt>
      <trkpt lat="44.34948" lon="6.86031">
        <ele>2440.3999023438</ele>
        <time>2021-05-09T11:03:49.000Z</time>
      </trkpt>
      <trkpt lat="44.34947" lon="6.86029">
        <ele>2440.6000976562</ele>
        <time>2021-05-09T11:03:51.000Z</time>
      </trkpt>
      <trkpt lat="44.34947" lon="6.86028">
        <ele>2440.8000488281</ele>
        <time>2021-05-09T11:03:55.000Z</time>
      </trkpt>
      <trkpt lat="44.34945" lon="6.86028">
        <ele>2440.6000976562</ele>
        <time>2021-05-09T11:03:57.000Z</time>
      </trkpt>
      <trkpt lat="44.34945" lon="6.86029">
        <ele>2440.6000976562</ele>
        <time>2021-05-09T11:03:59.000Z</time>
      </trkpt>
      <trkpt lat="44.34945" lon="6.8603">
        <ele>2440.1999511719</ele>
        <time>2021-05-09T11:04:03.000Z</time>
      </trkpt>
      <trkpt lat="44.34947" lon="6.86031">
        <ele>2440.1999511719</ele>
        <time>2021-05-09T11:04:08.000Z</time>
      </trkpt>
      <trkpt lat="44.34949" lon="6.8603">
        <ele>2440.1999511719</ele>
        <time>2021-05-09T11:04:13.000Z</time>
      </trkpt>
      <trkpt lat="44.34946" lon="6.86024">
        <ele>2440.8000488281</ele>
        <time>2021-05-09T11:04:20.000Z</time>
      </trkpt>
      <trkpt lat="44.34946" lon="6.86021">
        <ele>2441.1999511719</ele>
        <time>2021-05-09T11:04:23.000Z</time>
      </trkpt>
      <trkpt lat="44.34945" lon="6.86017">
        <ele>2442.3999023438</ele>
        <time>2021-05-09T11:04:27.000Z</time>
      </trkpt>
      <trkpt lat="44.34939" lon="6.86012">
        <ele>2443.3999023438</ele>
        <time>2021-05-09T11:04:33.000Z</time>
      </trkpt>
      <trkpt lat="44.34932" lon="6.86006">
        <ele>2444.6000976562</ele>
        <time>2021-05-09T11:04:41.000Z</time>
      </trkpt>
      <trkpt lat="44.34928" lon="6.86001">
        <ele>2445.6000976562</ele>
        <time>2021-05-09T11:04:50.000Z</time>
      </trkpt>
      <trkpt lat="44.34926" lon="6.85999">
        <ele>2446.1999511719</ele>
        <time>2021-05-09T11:04:53.000Z</time>
      </trkpt>
      <trkpt lat="44.34925" lon="6.85997">
        <ele>2446.8000488281</ele>
        <time>2021-05-09T11:04:55.000Z</time>
      </trkpt>
      <trkpt lat="44.34924" lon="6.85995">
        <ele>2447</ele>
        <time>2021-05-09T11:04:57.000Z</time>
      </trkpt>
      <trkpt lat="44.34924" lon="6.85995">
        <ele>2447</ele>
        <time>2021-05-09T11:04:58.000Z</time>
      </trkpt>
      <trkpt lat="44.34922" lon="6.8599">
        <ele>2447.1999511719</ele>
        <time>2021-05-09T11:05:04.000Z</time>
      </trkpt>
      <trkpt lat="44.34921" lon="6.85988">
        <ele>2447.1999511719</ele>
        <time>2021-05-09T11:05:06.000Z</time>
      </trkpt>
      <trkpt lat="44.34921" lon="6.85987">
        <ele>2447.1999511719</ele>
        <time>2021-05-09T11:05:08.000Z</time>
      </trkpt>
      <trkpt lat="44.3492" lon="6.85983">
        <ele>2447.8000488281</ele>
        <time>2021-05-09T11:05:14.000Z</time>
      </trkpt>
      <trkpt lat="44.34917" lon="6.8598">
        <ele>2448</ele>
        <time>2021-05-09T11:05:17.000Z</time>
      </trkpt>
      <trkpt lat="44.34915" lon="6.85978">
        <ele>2448.1999511719</ele>
        <time>2021-05-09T11:05:20.000Z</time>
      </trkpt>
      <trkpt lat="44.34915" lon="6.85975">
        <ele>2448.6000976562</ele>
        <time>2021-05-09T11:05:24.000Z</time>
      </trkpt>
      <trkpt lat="44.34918" lon="6.85975">
        <ele>2449</ele>
        <time>2021-05-09T11:05:26.000Z</time>
      </trkpt>
      <trkpt lat="44.34921" lon="6.85976">
        <ele>2449.6000976562</ele>
        <time>2021-05-09T11:05:42.000Z</time>
      </trkpt>
      <trkpt lat="44.34924" lon="6.85977">
        <ele>2449.8000488281</ele>
        <time>2021-05-09T11:05:46.000Z</time>
      </trkpt>
      <trkpt lat="44.34926" lon="6.85976">
        <ele>2449.8000488281</ele>
        <time>2021-05-09T11:05:54.000Z</time>
      </trkpt>
      <trkpt lat="44.34924" lon="6.85974">
        <ele>2449.8000488281</ele>
        <time>2021-05-09T11:05:57.000Z</time>
      </trkpt>
      <trkpt lat="44.34923" lon="6.85974">
        <ele>2449.8000488281</ele>
        <time>2021-05-09T11:05:58.000Z</time>
      </trkpt>
      <trkpt lat="44.34924" lon="6.85975">
        <ele>2449.8000488281</ele>
        <time>2021-05-09T11:06:02.000Z</time>
      </trkpt>
      <trkpt lat="44.34924" lon="6.85975">
        <ele>2449.8000488281</ele>
        <time>2021-05-09T11:06:03.000Z</time>
      </trkpt>
      <trkpt lat="44.34923" lon="6.85973">
        <ele>2449.8000488281</ele>
        <time>2021-05-09T11:06:07.000Z</time>
      </trkpt>
      <trkpt lat="44.34925" lon="6.85974">
        <ele>2449.8000488281</ele>
        <time>2021-05-09T11:06:09.000Z</time>
      </trkpt>
      <trkpt lat="44.34929" lon="6.85976">
        <ele>2449.6000976562</ele>
        <time>2021-05-09T11:06:12.000Z</time>
      </trkpt>
      <trkpt lat="44.34929" lon="6.85976">
        <ele>2449.6000976562</ele>
        <time>2021-05-09T11:06:14.000Z</time>
      </trkpt>
      <trkpt lat="44.34925" lon="6.85974">
        <ele>2449.6000976562</ele>
        <time>2021-05-09T11:06:17.000Z</time>
      </trkpt>
      <trkpt lat="44.34927" lon="6.85975">
        <ele>2449.8000488281</ele>
        <time>2021-05-09T11:06:20.000Z</time>
      </trkpt>
      <trkpt lat="44.3493" lon="6.85979">
        <ele>2449.8000488281</ele>
        <time>2021-05-09T11:06:23.000Z</time>
      </trkpt>
      <trkpt lat="44.3493" lon="6.85981">
        <ele>2449.8000488281</ele>
        <time>2021-05-09T11:06:26.000Z</time>
      </trkpt>
      <trkpt lat="44.34925" lon="6.85978">
        <ele>2449.6000976562</ele>
        <time>2021-05-09T11:06:30.000Z</time>
      </trkpt>
      <trkpt lat="44.34924" lon="6.85977">
        <ele>2449.6000976562</ele>
        <time>2021-05-09T11:06:31.000Z</time>
      </trkpt>
      <trkpt lat="44.34921" lon="6.85977">
        <ele>2449.3999023438</ele>
        <time>2021-05-09T11:06:38.000Z</time>
      </trkpt>
      <trkpt lat="44.34923" lon="6.85979">
        <ele>2449.1999511719</ele>
        <time>2021-05-09T11:06:42.000Z</time>
      </trkpt>
      <trkpt lat="44.34926" lon="6.8598">
        <ele>2449.1999511719</ele>
        <time>2021-05-09T11:06:45.000Z</time>
      </trkpt>
      <trkpt lat="44.34922" lon="6.85979">
        <ele>2449</ele>
        <time>2021-05-09T11:06:51.000Z</time>
      </trkpt>
      <trkpt lat="44.34919" lon="6.85978">
        <ele>2449</ele>
        <time>2021-05-09T11:06:54.000Z</time>
      </trkpt>
      <trkpt lat="44.34916" lon="6.85976">
        <ele>2449</ele>
        <time>2021-05-09T11:06:56.000Z</time>
      </trkpt>
      <trkpt lat="44.34914" lon="6.85974">
        <ele>2449</ele>
        <time>2021-05-09T11:06:58.000Z</time>
      </trkpt>
      <trkpt lat="44.34913" lon="6.85973">
        <ele>2449</ele>
        <time>2021-05-09T11:06:59.000Z</time>
      </trkpt>
      <trkpt lat="44.34912" lon="6.85972">
        <ele>2449.1999511719</ele>
        <time>2021-05-09T11:07:00.000Z</time>
      </trkpt>
      <trkpt lat="44.34911" lon="6.85971">
        <ele>2449.1999511719</ele>
        <time>2021-05-09T11:07:01.000Z</time>
      </trkpt>
      <trkpt lat="44.34912" lon="6.8597">
        <ele>2449.1999511719</ele>
        <time>2021-05-09T11:07:02.000Z</time>
      </trkpt>
      <trkpt lat="44.34904" lon="6.85965">
        <ele>2449.6000976562</ele>
        <time>2021-05-09T11:07:10.000Z</time>
      </trkpt>
      <trkpt lat="44.349" lon="6.85965">
        <ele>2449.3999023438</ele>
        <time>2021-05-09T11:07:12.000Z</time>
      </trkpt>
      <trkpt lat="44.34896" lon="6.85964">
        <ele>2449.1999511719</ele>
        <time>2021-05-09T11:07:14.000Z</time>
      </trkpt>
      <trkpt lat="44.34895" lon="6.85964">
        <ele>2449</ele>
        <time>2021-05-09T11:07:16.000Z</time>
      </trkpt>
      <trkpt lat="44.34899" lon="6.85966">
        <ele>2448.8000488281</ele>
        <time>2021-05-09T11:07:21.000Z</time>
      </trkpt>
      <trkpt lat="44.34905" lon="6.85971">
        <ele>2448.8000488281</ele>
        <time>2021-05-09T11:07:25.000Z</time>
      </trkpt>
      <trkpt lat="44.3491" lon="6.85975">
        <ele>2448.8000488281</ele>
        <time>2021-05-09T11:07:27.000Z</time>
      </trkpt>
      <trkpt lat="44.34917" lon="6.85979">
        <ele>2448.6000976562</ele>
        <time>2021-05-09T11:07:30.000Z</time>
      </trkpt>
      <trkpt lat="44.34918" lon="6.8598">
        <ele>2448.6000976562</ele>
        <time>2021-05-09T11:07:34.000Z</time>
      </trkpt>
      <trkpt lat="44.34919" lon="6.8598">
        <ele>2448.6000976562</ele>
        <time>2021-05-09T11:07:37.000Z</time>
      </trkpt>
      <trkpt lat="44.3492" lon="6.8598">
        <ele>2448.6000976562</ele>
        <time>2021-05-09T11:07:38.000Z</time>
      </trkpt>
      <trkpt lat="44.34919" lon="6.85978">
        <ele>2448.6000976562</ele>
        <time>2021-05-09T11:07:43.000Z</time>
      </trkpt>
      <trkpt lat="44.34918" lon="6.85977">
        <ele>2448.6000976562</ele>
        <time>2021-05-09T11:07:45.000Z</time>
      </trkpt>
      <trkpt lat="44.3492" lon="6.85977">
        <ele>2448.8000488281</ele>
        <time>2021-05-09T11:07:48.000Z</time>
      </trkpt>
      <trkpt lat="44.3492" lon="6.85976">
        <ele>2448.8000488281</ele>
        <time>2021-05-09T11:07:49.000Z</time>
      </trkpt>
      <trkpt lat="44.34921" lon="6.85978">
        <ele>2448.8000488281</ele>
        <time>2021-05-09T11:07:58.000Z</time>
      </trkpt>
      <trkpt lat="44.34917" lon="6.85974">
        <ele>2448.8000488281</ele>
        <time>2021-05-09T11:08:03.000Z</time>
      </trkpt>
      <trkpt lat="44.34917" lon="6.85975">
        <ele>2448.8000488281</ele>
        <time>2021-05-09T11:08:05.000Z</time>
      </trkpt>
      <trkpt lat="44.3492" lon="6.85974">
        <ele>2448.6000976562</ele>
        <time>2021-05-09T11:08:16.000Z</time>
      </trkpt>
      <trkpt lat="44.34926" lon="6.85979">
        <ele>2448.6000976562</ele>
        <time>2021-05-09T11:08:23.000Z</time>
      </trkpt>
      <trkpt lat="44.34926" lon="6.85978">
        <ele>2448.3999023438</ele>
        <time>2021-05-09T11:08:25.000Z</time>
      </trkpt>
      <trkpt lat="44.34924" lon="6.85977">
        <ele>2448.3999023438</ele>
        <time>2021-05-09T11:08:29.000Z</time>
      </trkpt>
      <trkpt lat="44.34923" lon="6.85976">
        <ele>2448.3999023438</ele>
        <time>2021-05-09T11:08:30.000Z</time>
      </trkpt>
      <trkpt lat="44.34919" lon="6.85974">
        <ele>2448.3999023438</ele>
        <time>2021-05-09T11:08:33.000Z</time>
      </trkpt>
      <trkpt lat="44.34916" lon="6.85973">
        <ele>2448.3999023438</ele>
        <time>2021-05-09T11:08:34.000Z</time>
      </trkpt>
      <trkpt lat="44.34915" lon="6.85975">
        <ele>2448.3999023438</ele>
        <time>2021-05-09T11:08:36.000Z</time>
      </trkpt>
      <trkpt lat="44.34913" lon="6.85974">
        <ele>2448.3999023438</ele>
        <time>2021-05-09T11:08:38.000Z</time>
      </trkpt>
      <trkpt lat="44.34912" lon="6.85974">
        <ele>2448.3999023438</ele>
        <time>2021-05-09T11:08:40.000Z</time>
      </trkpt>
      <trkpt lat="44.34912" lon="6.85973">
        <ele>2448.3999023438</ele>
        <time>2021-05-09T11:08:41.000Z</time>
      </trkpt>
      <trkpt lat="44.34913" lon="6.85974">
        <ele>2448.3999023438</ele>
        <time>2021-05-09T11:08:42.000Z</time>
      </trkpt>
      <trkpt lat="44.34915" lon="6.85974">
        <ele>2448.1999511719</ele>
        <time>2021-05-09T11:08:50.000Z</time>
      </trkpt>
      <trkpt lat="44.34912" lon="6.85977">
        <ele>2448.1999511719</ele>
        <time>2021-05-09T11:08:54.000Z</time>
      </trkpt>
      <trkpt lat="44.34911" lon="6.85977">
        <ele>2448.1999511719</ele>
        <time>2021-05-09T11:08:55.000Z</time>
      </trkpt>
      <trkpt lat="44.34911" lon="6.85977">
        <ele>2448.1999511719</ele>
        <time>2021-05-09T11:08:56.000Z</time>
      </trkpt>
      <trkpt lat="44.3491" lon="6.85976">
        <ele>2448.3999023438</ele>
        <time>2021-05-09T11:09:00.000Z</time>
      </trkpt>
      <trkpt lat="44.34912" lon="6.85975">
        <ele>2448.6000976562</ele>
        <time>2021-05-09T11:09:03.000Z</time>
      </trkpt>
      <trkpt lat="44.34916" lon="6.85975">
        <ele>2448.6000976562</ele>
        <time>2021-05-09T11:09:05.000Z</time>
      </trkpt>
      <trkpt lat="44.34917" lon="6.85975">
        <ele>2448.6000976562</ele>
        <time>2021-05-09T11:09:06.000Z</time>
      </trkpt>
      <trkpt lat="44.34924" lon="6.85971">
        <ele>2448.3999023438</ele>
        <time>2021-05-09T11:09:12.000Z</time>
      </trkpt>
      <trkpt lat="44.34926" lon="6.85971">
        <ele>2448.3999023438</ele>
        <time>2021-05-09T11:09:14.000Z</time>
      </trkpt>
      <trkpt lat="44.34928" lon="6.85972">
        <ele>2448.3999023438</ele>
        <time>2021-05-09T11:09:16.000Z</time>
      </trkpt>
      <trkpt lat="44.34929" lon="6.85972">
        <ele>2448.3999023438</ele>
        <time>2021-05-09T11:09:17.000Z</time>
      </trkpt>
      <trkpt lat="44.3493" lon="6.85973">
        <ele>2448.6000976562</ele>
        <time>2021-05-09T11:09:18.000Z</time>
      </trkpt>
      <trkpt lat="44.34933" lon="6.85973">
        <ele>2448.6000976562</ele>
        <time>2021-05-09T11:09:20.000Z</time>
      </trkpt>
      <trkpt lat="44.34932" lon="6.85973">
        <ele>2448.6000976562</ele>
        <time>2021-05-09T11:09:21.000Z</time>
      </trkpt>
      <trkpt lat="44.3493" lon="6.85973">
        <ele>2448.3999023438</ele>
        <time>2021-05-09T11:09:23.000Z</time>
      </trkpt>
      <trkpt lat="44.3493" lon="6.85974">
        <ele>2448.3999023438</ele>
        <time>2021-05-09T11:09:24.000Z</time>
      </trkpt>
      <trkpt lat="44.3493" lon="6.85974">
        <ele>2448.3999023438</ele>
        <time>2021-05-09T11:09:25.000Z</time>
      </trkpt>
      <trkpt lat="44.34928" lon="6.85974">
        <ele>2448.3999023438</ele>
        <time>2021-05-09T11:09:26.000Z</time>
      </trkpt>
      <trkpt lat="44.34925" lon="6.85976">
        <ele>2448.3999023438</ele>
        <time>2021-05-09T11:09:27.000Z</time>
      </trkpt>
      <trkpt lat="44.34925" lon="6.85977">
        <ele>2448.3999023438</ele>
        <time>2021-05-09T11:09:28.000Z</time>
      </trkpt>
      <trkpt lat="44.34925" lon="6.85977">
        <ele>2448.3999023438</ele>
        <time>2021-05-09T11:09:29.000Z</time>
      </trkpt>
      <trkpt lat="44.34924" lon="6.85976">
        <ele>2448.3999023438</ele>
        <time>2021-05-09T11:09:30.000Z</time>
      </trkpt>
      <trkpt lat="44.34924" lon="6.85977">
        <ele>2448.3999023438</ele>
        <time>2021-05-09T11:09:34.000Z</time>
      </trkpt>
      <trkpt lat="44.34925" lon="6.85976">
        <ele>2448.3999023438</ele>
        <time>2021-05-09T11:09:37.000Z</time>
      </trkpt>
      <trkpt lat="44.34926" lon="6.85976">
        <ele>2448.1999511719</ele>
        <time>2021-05-09T11:09:38.000Z</time>
      </trkpt>
      <trkpt lat="44.34928" lon="6.85976">
        <ele>2448.1999511719</ele>
        <time>2021-05-09T11:09:40.000Z</time>
      </trkpt>
      <trkpt lat="44.34929" lon="6.85976">
        <ele>2448.1999511719</ele>
        <time>2021-05-09T11:09:43.000Z</time>
      </trkpt>
      <trkpt lat="44.3493" lon="6.85976">
        <ele>2448.1999511719</ele>
        <time>2021-05-09T11:09:44.000Z</time>
      </trkpt>
      <trkpt lat="44.34929" lon="6.85976">
        <ele>2448.1999511719</ele>
        <time>2021-05-09T11:09:47.000Z</time>
      </trkpt>
      <trkpt lat="44.34926" lon="6.85975">
        <ele>2448.1999511719</ele>
        <time>2021-05-09T11:09:50.000Z</time>
      </trkpt>
      <trkpt lat="44.3492" lon="6.85976">
        <ele>2448.1999511719</ele>
        <time>2021-05-09T11:09:58.000Z</time>
      </trkpt>
      <trkpt lat="44.3492" lon="6.85976">
        <ele>2448.1999511719</ele>
        <time>2021-05-09T11:09:59.000Z</time>
      </trkpt>
      <trkpt lat="44.3492" lon="6.85976">
        <ele>2448.1999511719</ele>
        <time>2021-05-09T11:10:00.000Z</time>
      </trkpt>
      <trkpt lat="44.34921" lon="6.85977">
        <ele>2448.1999511719</ele>
        <time>2021-05-09T11:10:01.000Z</time>
      </trkpt>
      <trkpt lat="44.34922" lon="6.85977">
        <ele>2448.1999511719</ele>
        <time>2021-05-09T11:10:04.000Z</time>
      </trkpt>
      <trkpt lat="44.34922" lon="6.85978">
        <ele>2448.1999511719</ele>
        <time>2021-05-09T11:10:11.000Z</time>
      </trkpt>
      <trkpt lat="44.34921" lon="6.85979">
        <ele>2448.1999511719</ele>
        <time>2021-05-09T11:10:14.000Z</time>
      </trkpt>
      <trkpt lat="44.34922" lon="6.85979">
        <ele>2448.1999511719</ele>
        <time>2021-05-09T11:10:15.000Z</time>
      </trkpt>
      <trkpt lat="44.34923" lon="6.85979">
        <ele>2448.1999511719</ele>
        <time>2021-05-09T11:10:18.000Z</time>
      </trkpt>
      <trkpt lat="44.34924" lon="6.85978">
        <ele>2448.1999511719</ele>
        <time>2021-05-09T11:10:19.000Z</time>
      </trkpt>
      <trkpt lat="44.34926" lon="6.85975">
        <ele>2448.1999511719</ele>
        <time>2021-05-09T11:10:24.000Z</time>
      </trkpt>
      <trkpt lat="44.34926" lon="6.85974">
        <ele>2448.1999511719</ele>
        <time>2021-05-09T11:10:39.000Z</time>
      </trkpt>
      <trkpt lat="44.34926" lon="6.85974">
        <ele>2448.1999511719</ele>
        <time>2021-05-09T11:10:40.000Z</time>
      </trkpt>
      <trkpt lat="44.34926" lon="6.85974">
        <ele>2448.1999511719</ele>
        <time>2021-05-09T11:10:43.000Z</time>
      </trkpt>
      <trkpt lat="44.34925" lon="6.85974">
        <ele>2448.1999511719</ele>
        <time>2021-05-09T11:10:46.000Z</time>
      </trkpt>
      <trkpt lat="44.34928" lon="6.85972">
        <ele>2448.1999511719</ele>
        <time>2021-05-09T11:10:51.000Z</time>
      </trkpt>
      <trkpt lat="44.34928" lon="6.85972">
        <ele>2448.1999511719</ele>
        <time>2021-05-09T11:10:52.000Z</time>
      </trkpt>
      <trkpt lat="44.34928" lon="6.85973">
        <ele>2448.1999511719</ele>
        <time>2021-05-09T11:10:53.000Z</time>
      </trkpt>
      <trkpt lat="44.34927" lon="6.85973">
        <ele>2448.1999511719</ele>
        <time>2021-05-09T11:10:56.000Z</time>
      </trkpt>
      <trkpt lat="44.34928" lon="6.85973">
        <ele>2448.1999511719</ele>
        <time>2021-05-09T11:10:57.000Z</time>
      </trkpt>
      <trkpt lat="44.34928" lon="6.85974">
        <ele>2448.1999511719</ele>
        <time>2021-05-09T11:11:00.000Z</time>
      </trkpt>
      <trkpt lat="44.34927" lon="6.85974">
        <ele>2448.1999511719</ele>
        <time>2021-05-09T11:11:02.000Z</time>
      </trkpt>
      <trkpt lat="44.34926" lon="6.85974">
        <ele>2448.1999511719</ele>
        <time>2021-05-09T11:11:03.000Z</time>
      </trkpt>
      <trkpt lat="44.34926" lon="6.85974">
        <ele>2448.1999511719</ele>
        <time>2021-05-09T11:11:05.000Z</time>
      </trkpt>
      <trkpt lat="44.34926" lon="6.85974">
        <ele>2448.1999511719</ele>
        <time>2021-05-09T11:11:07.000Z</time>
      </trkpt>
      <trkpt lat="44.34925" lon="6.85974">
        <ele>2448.1999511719</ele>
        <time>2021-05-09T11:11:09.000Z</time>
      </trkpt>
      <trkpt lat="44.34924" lon="6.85974">
        <ele>2448.1999511719</ele>
        <time>2021-05-09T11:11:11.000Z</time>
      </trkpt>
      <trkpt lat="44.34921" lon="6.85976">
        <ele>2448.1999511719</ele>
        <time>2021-05-09T11:11:15.000Z</time>
      </trkpt>
      <trkpt lat="44.3492" lon="6.85976">
        <ele>2448.1999511719</ele>
        <time>2021-05-09T11:11:18.000Z</time>
      </trkpt>
      <trkpt lat="44.34919" lon="6.85975">
        <ele>2448.1999511719</ele>
        <time>2021-05-09T11:11:20.000Z</time>
      </trkpt>
      <trkpt lat="44.3492" lon="6.85976">
        <ele>2448.1999511719</ele>
        <time>2021-05-09T11:11:22.000Z</time>
      </trkpt>
      <trkpt lat="44.3492" lon="6.85975">
        <ele>2448.1999511719</ele>
        <time>2021-05-09T11:11:26.000Z</time>
      </trkpt>
      <trkpt lat="44.3492" lon="6.85975">
        <ele>2448.1999511719</ele>
        <time>2021-05-09T11:11:28.000Z</time>
      </trkpt>
      <trkpt lat="44.34921" lon="6.85976">
        <ele>2448.1999511719</ele>
        <time>2021-05-09T11:11:29.000Z</time>
      </trkpt>
      <trkpt lat="44.34921" lon="6.85976">
        <ele>2448.1999511719</ele>
        <time>2021-05-09T11:11:30.000Z</time>
      </trkpt>
      <trkpt lat="44.3492" lon="6.85975">
        <ele>2448.1999511719</ele>
        <time>2021-05-09T11:11:31.000Z</time>
      </trkpt>
      <trkpt lat="44.3492" lon="6.85975">
        <ele>2448.1999511719</ele>
        <time>2021-05-09T11:11:32.000Z</time>
      </trkpt>
      <trkpt lat="44.3492" lon="6.85975">
        <ele>2448.1999511719</ele>
        <time>2021-05-09T11:11:35.000Z</time>
      </trkpt>
      <trkpt lat="44.34919" lon="6.85975">
        <ele>2448.1999511719</ele>
        <time>2021-05-09T11:11:37.000Z</time>
      </trkpt>
      <trkpt lat="44.34918" lon="6.85974">
        <ele>2448.1999511719</ele>
        <time>2021-05-09T11:11:46.000Z</time>
      </trkpt>
      <trkpt lat="44.3492" lon="6.85974">
        <ele>2448.1999511719</ele>
        <time>2021-05-09T11:11:49.000Z</time>
      </trkpt>
      <trkpt lat="44.3492" lon="6.85974">
        <ele>2448.1999511719</ele>
        <time>2021-05-09T11:11:51.000Z</time>
      </trkpt>
      <trkpt lat="44.34923" lon="6.85972">
        <ele>2448.1999511719</ele>
        <time>2021-05-09T11:11:55.000Z</time>
      </trkpt>
      <trkpt lat="44.34925" lon="6.85971">
        <ele>2448.1999511719</ele>
        <time>2021-05-09T11:11:56.000Z</time>
      </trkpt>
      <trkpt lat="44.34925" lon="6.8597">
        <ele>2448.1999511719</ele>
        <time>2021-05-09T11:11:59.000Z</time>
      </trkpt>
      <trkpt lat="44.34925" lon="6.8597">
        <ele>2448.1999511719</ele>
        <time>2021-05-09T11:12:01.000Z</time>
      </trkpt>
      <trkpt lat="44.34929" lon="6.85973">
        <ele>2448.1999511719</ele>
        <time>2021-05-09T11:12:15.000Z</time>
      </trkpt>
      <trkpt lat="44.34928" lon="6.85974">
        <ele>2448.1999511719</ele>
        <time>2021-05-09T11:12:18.000Z</time>
      </trkpt>
      <trkpt lat="44.34927" lon="6.85975">
        <ele>2448.1999511719</ele>
        <time>2021-05-09T11:12:29.000Z</time>
      </trkpt>
      <trkpt lat="44.34927" lon="6.85975">
        <ele>2448.1999511719</ele>
        <time>2021-05-09T11:12:30.000Z</time>
      </trkpt>
      <trkpt lat="44.34927" lon="6.85976">
        <ele>2448.1999511719</ele>
        <time>2021-05-09T11:12:31.000Z</time>
      </trkpt>
      <trkpt lat="44.34927" lon="6.85976">
        <ele>2448.1999511719</ele>
        <time>2021-05-09T11:12:33.000Z</time>
      </trkpt>
      <trkpt lat="44.34927" lon="6.85976">
        <ele>2448.1999511719</ele>
        <time>2021-05-09T11:12:34.000Z</time>
      </trkpt>
      <trkpt lat="44.34926" lon="6.85976">
        <ele>2448.1999511719</ele>
        <time>2021-05-09T11:12:40.000Z</time>
      </trkpt>
      <trkpt lat="44.34925" lon="6.85975">
        <ele>2448.1999511719</ele>
        <time>2021-05-09T11:12:43.000Z</time>
      </trkpt>
      <trkpt lat="44.34922" lon="6.85974">
        <ele>2448.1999511719</ele>
        <time>2021-05-09T11:12:47.000Z</time>
      </trkpt>
      <trkpt lat="44.34922" lon="6.85975">
        <ele>2448.1999511719</ele>
        <time>2021-05-09T11:12:49.000Z</time>
      </trkpt>
      <trkpt lat="44.34922" lon="6.85973">
        <ele>2448.1999511719</ele>
        <time>2021-05-09T11:12:54.000Z</time>
      </trkpt>
      <trkpt lat="44.34922" lon="6.8597">
        <ele>2448.1999511719</ele>
        <time>2021-05-09T11:12:59.000Z</time>
      </trkpt>
      <trkpt lat="44.3492" lon="6.85966">
        <ele>2449.1999511719</ele>
        <time>2021-05-09T11:13:04.000Z</time>
      </trkpt>
      <trkpt lat="44.34921" lon="6.85964">
        <ele>2450.1999511719</ele>
        <time>2021-05-09T11:13:06.000Z</time>
      </trkpt>
      <trkpt lat="44.34921" lon="6.85961">
        <ele>2450.8000488281</ele>
        <time>2021-05-09T11:13:10.000Z</time>
      </trkpt>
      <trkpt lat="44.3492" lon="6.8596">
        <ele>2451</ele>
        <time>2021-05-09T11:13:13.000Z</time>
      </trkpt>
      <trkpt lat="44.3492" lon="6.85959">
        <ele>2451.1999511719</ele>
        <time>2021-05-09T11:13:14.000Z</time>
      </trkpt>
      <trkpt lat="44.34918" lon="6.85957">
        <ele>2451.8000488281</ele>
        <time>2021-05-09T11:13:17.000Z</time>
      </trkpt>
      <trkpt lat="44.34916" lon="6.85956">
        <ele>2452.1999511719</ele>
        <time>2021-05-09T11:13:20.000Z</time>
      </trkpt>
      <trkpt lat="44.34911" lon="6.85952">
        <ele>2453.1999511719</ele>
        <time>2021-05-09T11:13:28.000Z</time>
      </trkpt>
      <trkpt lat="44.34911" lon="6.85952">
        <ele>2453.1999511719</ele>
        <time>2021-05-09T11:13:29.000Z</time>
      </trkpt>
      <trkpt lat="44.3491" lon="6.85951">
        <ele>2453.3999023438</ele>
        <time>2021-05-09T11:13:30.000Z</time>
      </trkpt>
      <trkpt lat="44.34909" lon="6.8595">
        <ele>2453.6000976562</ele>
        <time>2021-05-09T11:13:33.000Z</time>
      </trkpt>
      <trkpt lat="44.34907" lon="6.8595">
        <ele>2454.3999023438</ele>
        <time>2021-05-09T11:13:40.000Z</time>
      </trkpt>
      <trkpt lat="44.34908" lon="6.85951">
        <ele>2454.3999023438</ele>
        <time>2021-05-09T11:13:58.000Z</time>
      </trkpt>
      <trkpt lat="44.34907" lon="6.85947">
        <ele>2454.3999023438</ele>
        <time>2021-05-09T11:14:11.000Z</time>
      </trkpt>
      <trkpt lat="44.34908" lon="6.85948">
        <ele>2454.3999023438</ele>
        <time>2021-05-09T11:14:14.000Z</time>
      </trkpt>
      <trkpt lat="44.34908" lon="6.85948">
        <ele>2454.1999511719</ele>
        <time>2021-05-09T11:14:19.000Z</time>
      </trkpt>
      <trkpt lat="44.34908" lon="6.85945">
        <ele>2454.1999511719</ele>
        <time>2021-05-09T11:14:21.000Z</time>
      </trkpt>
      <trkpt lat="44.34903" lon="6.85942">
        <ele>2454.6000976562</ele>
        <time>2021-05-09T11:14:30.000Z</time>
      </trkpt>
      <trkpt lat="44.34903" lon="6.85942">
        <ele>2454.6000976562</ele>
        <time>2021-05-09T11:14:31.000Z</time>
      </trkpt>
      <trkpt lat="44.34904" lon="6.8595">
        <ele>2454.8000488281</ele>
        <time>2021-05-09T11:14:39.000Z</time>
      </trkpt>
      <trkpt lat="44.34904" lon="6.8595">
        <ele>2454.8000488281</ele>
        <time>2021-05-09T11:14:43.000Z</time>
      </trkpt>
      <trkpt lat="44.34904" lon="6.8595">
        <ele>2454.8000488281</ele>
        <time>2021-05-09T11:14:46.000Z</time>
      </trkpt>
      <trkpt lat="44.34904" lon="6.8595">
        <ele>2454.8000488281</ele>
        <time>2021-05-09T11:14:51.000Z</time>
      </trkpt>
      <trkpt lat="44.34904" lon="6.8595">
        <ele>2454.8000488281</ele>
        <time>2021-05-09T11:14:52.000Z</time>
      </trkpt>
      <trkpt lat="44.34904" lon="6.8595">
        <ele>2454.8000488281</ele>
        <time>2021-05-09T11:14:54.000Z</time>
      </trkpt>
      <trkpt lat="44.34904" lon="6.8595">
        <ele>2454.8000488281</ele>
        <time>2021-05-09T11:15:00.000Z</time>
      </trkpt>
      <trkpt lat="44.34905" lon="6.8595">
        <ele>2454.8000488281</ele>
        <time>2021-05-09T11:15:17.000Z</time>
      </trkpt>
      <trkpt lat="44.34905" lon="6.85952">
        <ele>2454.8000488281</ele>
        <time>2021-05-09T11:15:26.000Z</time>
      </trkpt>
      <trkpt lat="44.34905" lon="6.85952">
        <ele>2454.8000488281</ele>
        <time>2021-05-09T11:15:29.000Z</time>
      </trkpt>
      <trkpt lat="44.34905" lon="6.85952">
        <ele>2454.8000488281</ele>
        <time>2021-05-09T11:15:31.000Z</time>
      </trkpt>
      <trkpt lat="44.34905" lon="6.85952">
        <ele>2454.8000488281</ele>
        <time>2021-05-09T11:15:34.000Z</time>
      </trkpt>
      <trkpt lat="44.34905" lon="6.85952">
        <ele>2454.8000488281</ele>
        <time>2021-05-09T11:15:39.000Z</time>
      </trkpt>
      <trkpt lat="44.34902" lon="6.8595">
        <ele>2454.8000488281</ele>
        <time>2021-05-09T11:15:47.000Z</time>
      </trkpt>
      <trkpt lat="44.34902" lon="6.8595">
        <ele>2454.8000488281</ele>
        <time>2021-05-09T11:15:48.000Z</time>
      </trkpt>
      <trkpt lat="44.34901" lon="6.85949">
        <ele>2454.8000488281</ele>
        <time>2021-05-09T11:15:50.000Z</time>
      </trkpt>
      <trkpt lat="44.34901" lon="6.85947">
        <ele>2454.8000488281</ele>
        <time>2021-05-09T11:15:55.000Z</time>
      </trkpt>
      <trkpt lat="44.349" lon="6.85946">
        <ele>2454.8000488281</ele>
        <time>2021-05-09T11:16:02.000Z</time>
      </trkpt>
      <trkpt lat="44.349" lon="6.85945">
        <ele>2454.8000488281</ele>
        <time>2021-05-09T11:16:04.000Z</time>
      </trkpt>
      <trkpt lat="44.34901" lon="6.85944">
        <ele>2454.8000488281</ele>
        <time>2021-05-09T11:16:09.000Z</time>
      </trkpt>
      <trkpt lat="44.34903" lon="6.85945">
        <ele>2454.8000488281</ele>
        <time>2021-05-09T11:16:12.000Z</time>
      </trkpt>
      <trkpt lat="44.349" lon="6.85943">
        <ele>2454.8000488281</ele>
        <time>2021-05-09T11:16:27.000Z</time>
      </trkpt>
      <trkpt lat="44.34901" lon="6.85943">
        <ele>2454.8000488281</ele>
        <time>2021-05-09T11:16:29.000Z</time>
      </trkpt>
      <trkpt lat="44.34896" lon="6.85941">
        <ele>2454.8000488281</ele>
        <time>2021-05-09T11:16:41.000Z</time>
      </trkpt>
      <trkpt lat="44.34894" lon="6.85939">
        <ele>2455.1999511719</ele>
        <time>2021-05-09T11:16:44.000Z</time>
      </trkpt>
      <trkpt lat="44.34893" lon="6.85938">
        <ele>2455.3999023438</ele>
        <time>2021-05-09T11:16:45.000Z</time>
      </trkpt>
      <trkpt lat="44.34888" lon="6.85936">
        <ele>2456.3999023438</ele>
        <time>2021-05-09T11:16:54.000Z</time>
      </trkpt>
      <trkpt lat="44.34887" lon="6.85936">
        <ele>2456.6000976562</ele>
        <time>2021-05-09T11:16:55.000Z</time>
      </trkpt>
      <trkpt lat="44.34884" lon="6.85933">
        <ele>2456.8000488281</ele>
        <time>2021-05-09T11:17:02.000Z</time>
      </trkpt>
      <trkpt lat="44.34883" lon="6.85932">
        <ele>2456.8000488281</ele>
        <time>2021-05-09T11:17:03.000Z</time>
      </trkpt>
      <trkpt lat="44.34882" lon="6.85931">
        <ele>2457</ele>
        <time>2021-05-09T11:17:05.000Z</time>
      </trkpt>
      <trkpt lat="44.34882" lon="6.8593">
        <ele>2457.6000976562</ele>
        <time>2021-05-09T11:17:08.000Z</time>
      </trkpt>
      <trkpt lat="44.3488" lon="6.85927">
        <ele>2457.8000488281</ele>
        <time>2021-05-09T11:17:16.000Z</time>
      </trkpt>
      <trkpt lat="44.34878" lon="6.85925">
        <ele>2458</ele>
        <time>2021-05-09T11:17:21.000Z</time>
      </trkpt>
      <trkpt lat="44.34877" lon="6.85923">
        <ele>2458.1999511719</ele>
        <time>2021-05-09T11:17:23.000Z</time>
      </trkpt>
      <trkpt lat="44.34876" lon="6.85923">
        <ele>2458.1999511719</ele>
        <time>2021-05-09T11:17:24.000Z</time>
      </trkpt>
      <trkpt lat="44.34875" lon="6.85922">
        <ele>2458.3999023438</ele>
        <time>2021-05-09T11:17:26.000Z</time>
      </trkpt>
      <trkpt lat="44.34874" lon="6.85921">
        <ele>2458.6000976562</ele>
        <time>2021-05-09T11:17:27.000Z</time>
      </trkpt>
      <trkpt lat="44.3487" lon="6.8592">
        <ele>2459.1999511719</ele>
        <time>2021-05-09T11:17:31.000Z</time>
      </trkpt>
      <trkpt lat="44.34865" lon="6.85915">
        <ele>2459.6000976562</ele>
        <time>2021-05-09T11:17:40.000Z</time>
      </trkpt>
      <trkpt lat="44.34865" lon="6.85915">
        <ele>2459.8000488281</ele>
        <time>2021-05-09T11:17:42.000Z</time>
      </trkpt>
      <trkpt lat="44.34864" lon="6.85914">
        <ele>2459.8000488281</ele>
        <time>2021-05-09T11:17:43.000Z</time>
      </trkpt>
      <trkpt lat="44.34862" lon="6.85912">
        <ele>2459.8000488281</ele>
        <time>2021-05-09T11:17:46.000Z</time>
      </trkpt>
      <trkpt lat="44.34862" lon="6.85912">
        <ele>2459.8000488281</ele>
        <time>2021-05-09T11:17:47.000Z</time>
      </trkpt>
      <trkpt lat="44.34862" lon="6.85911">
        <ele>2460</ele>
        <time>2021-05-09T11:17:50.000Z</time>
      </trkpt>
      <trkpt lat="44.34858" lon="6.85908">
        <ele>2460.6000976562</ele>
        <time>2021-05-09T11:18:00.000Z</time>
      </trkpt>
      <trkpt lat="44.34858" lon="6.85908">
        <ele>2460.6000976562</ele>
        <time>2021-05-09T11:18:01.000Z</time>
      </trkpt>
      <trkpt lat="44.34855" lon="6.85905">
        <ele>2460.6000976562</ele>
        <time>2021-05-09T11:18:06.000Z</time>
      </trkpt>
      <trkpt lat="44.34851" lon="6.85901">
        <ele>2461.8000488281</ele>
        <time>2021-05-09T11:18:13.000Z</time>
      </trkpt>
      <trkpt lat="44.34849" lon="6.85898">
        <ele>2462.8000488281</ele>
        <time>2021-05-09T11:18:18.000Z</time>
      </trkpt>
      <trkpt lat="44.34848" lon="6.85898">
        <ele>2464</ele>
        <time>2021-05-09T11:18:24.000Z</time>
      </trkpt>
      <trkpt lat="44.34849" lon="6.85897">
        <ele>2464</ele>
        <time>2021-05-09T11:18:50.000Z</time>
      </trkpt>
      <trkpt lat="44.34849" lon="6.85897">
        <ele>2463.8000488281</ele>
        <time>2021-05-09T11:18:56.000Z</time>
      </trkpt>
      <trkpt lat="44.34849" lon="6.85897">
        <ele>2463.6000976562</ele>
        <time>2021-05-09T11:18:59.000Z</time>
      </trkpt>
      <trkpt lat="44.34847" lon="6.85896">
        <ele>2463.8000488281</ele>
        <time>2021-05-09T11:19:06.000Z</time>
      </trkpt>
      <trkpt lat="44.34847" lon="6.85896">
        <ele>2463.8000488281</ele>
        <time>2021-05-09T11:19:07.000Z</time>
      </trkpt>
      <trkpt lat="44.3484" lon="6.8589">
        <ele>2464.6000976562</ele>
        <time>2021-05-09T11:19:16.000Z</time>
      </trkpt>
      <trkpt lat="44.3484" lon="6.8589">
        <ele>2464.8000488281</ele>
        <time>2021-05-09T11:19:17.000Z</time>
      </trkpt>
      <trkpt lat="44.34839" lon="6.85888">
        <ele>2464.8000488281</ele>
        <time>2021-05-09T11:19:18.000Z</time>
      </trkpt>
      <trkpt lat="44.34839" lon="6.85888">
        <ele>2465</ele>
        <time>2021-05-09T11:19:19.000Z</time>
      </trkpt>
      <trkpt lat="44.34838" lon="6.85887">
        <ele>2465.1999511719</ele>
        <time>2021-05-09T11:19:21.000Z</time>
      </trkpt>
      <trkpt lat="44.34836" lon="6.85885">
        <ele>2465.6000976562</ele>
        <time>2021-05-09T11:19:24.000Z</time>
      </trkpt>
      <trkpt lat="44.34836" lon="6.85885">
        <ele>2465.8000488281</ele>
        <time>2021-05-09T11:19:25.000Z</time>
      </trkpt>
      <trkpt lat="44.34836" lon="6.85884">
        <ele>2466</ele>
        <time>2021-05-09T11:19:26.000Z</time>
      </trkpt>
      <trkpt lat="44.34833" lon="6.85883">
        <ele>2466.6000976562</ele>
        <time>2021-05-09T11:19:29.000Z</time>
      </trkpt>
      <trkpt lat="44.34832" lon="6.85882">
        <ele>2467</ele>
        <time>2021-05-09T11:19:31.000Z</time>
      </trkpt>
      <trkpt lat="44.34831" lon="6.85881">
        <ele>2467</ele>
        <time>2021-05-09T11:19:32.000Z</time>
      </trkpt>
      <trkpt lat="44.34828" lon="6.85879">
        <ele>2467.6000976562</ele>
        <time>2021-05-09T11:19:36.000Z</time>
      </trkpt>
      <trkpt lat="44.34826" lon="6.85878">
        <ele>2467.8000488281</ele>
        <time>2021-05-09T11:19:38.000Z</time>
      </trkpt>
      <trkpt lat="44.34825" lon="6.85877">
        <ele>2468</ele>
        <time>2021-05-09T11:19:39.000Z</time>
      </trkpt>
      <trkpt lat="44.34825" lon="6.85877">
        <ele>2468</ele>
        <time>2021-05-09T11:19:40.000Z</time>
      </trkpt>
      <trkpt lat="44.34823" lon="6.85876">
        <ele>2468.3999023438</ele>
        <time>2021-05-09T11:19:42.000Z</time>
      </trkpt>
      <trkpt lat="44.34822" lon="6.85876">
        <ele>2468.8000488281</ele>
        <time>2021-05-09T11:19:43.000Z</time>
      </trkpt>
      <trkpt lat="44.34821" lon="6.85875">
        <ele>2469.1999511719</ele>
        <time>2021-05-09T11:19:45.000Z</time>
      </trkpt>
      <trkpt lat="44.3482" lon="6.85874">
        <ele>2469.3999023438</ele>
        <time>2021-05-09T11:19:47.000Z</time>
      </trkpt>
      <trkpt lat="44.34816" lon="6.85872">
        <ele>2470</ele>
        <time>2021-05-09T11:19:53.000Z</time>
      </trkpt>
      <trkpt lat="44.34815" lon="6.85871">
        <ele>2470.1999511719</ele>
        <time>2021-05-09T11:19:55.000Z</time>
      </trkpt>
      <trkpt lat="44.34815" lon="6.85871">
        <ele>2471</ele>
        <time>2021-05-09T11:20:07.000Z</time>
      </trkpt>
      <trkpt lat="44.34815" lon="6.8587">
        <ele>2471.3999023438</ele>
        <time>2021-05-09T11:20:14.000Z</time>
      </trkpt>
      <trkpt lat="44.34816" lon="6.85872">
        <ele>2471.3999023438</ele>
        <time>2021-05-09T11:20:24.000Z</time>
      </trkpt>
      <trkpt lat="44.34816" lon="6.8587">
        <ele>2471.1999511719</ele>
        <time>2021-05-09T11:20:30.000Z</time>
      </trkpt>
      <trkpt lat="44.34817" lon="6.8587">
        <ele>2471.1999511719</ele>
        <time>2021-05-09T11:20:35.000Z</time>
      </trkpt>
      <trkpt lat="44.34817" lon="6.85869">
        <ele>2471.1999511719</ele>
        <time>2021-05-09T11:20:39.000Z</time>
      </trkpt>
      <trkpt lat="44.34817" lon="6.85869">
        <ele>2471.1999511719</ele>
        <time>2021-05-09T11:20:41.000Z</time>
      </trkpt>
      <trkpt lat="44.34817" lon="6.85869">
        <ele>2471.1999511719</ele>
        <time>2021-05-09T11:20:42.000Z</time>
      </trkpt>
      <trkpt lat="44.34817" lon="6.85869">
        <ele>2471.1999511719</ele>
        <time>2021-05-09T11:20:43.000Z</time>
      </trkpt>
      <trkpt lat="44.34817" lon="6.85869">
        <ele>2471.1999511719</ele>
        <time>2021-05-09T11:20:44.000Z</time>
      </trkpt>
      <trkpt lat="44.34817" lon="6.85869">
        <ele>2471.1999511719</ele>
        <time>2021-05-09T11:20:46.000Z</time>
      </trkpt>
      <trkpt lat="44.34817" lon="6.8587">
        <ele>2471.1999511719</ele>
        <time>2021-05-09T11:20:52.000Z</time>
      </trkpt>
      <trkpt lat="44.34817" lon="6.85871">
        <ele>2471.1999511719</ele>
        <time>2021-05-09T11:20:54.000Z</time>
      </trkpt>
      <trkpt lat="44.34817" lon="6.85871">
        <ele>2471.1999511719</ele>
        <time>2021-05-09T11:20:55.000Z</time>
      </trkpt>
      <trkpt lat="44.34817" lon="6.85871">
        <ele>2471.1999511719</ele>
        <time>2021-05-09T11:20:56.000Z</time>
      </trkpt>
      <trkpt lat="44.34816" lon="6.85871">
        <ele>2471.3999023438</ele>
        <time>2021-05-09T11:20:58.000Z</time>
      </trkpt>
      <trkpt lat="44.34816" lon="6.85871">
        <ele>2471.3999023438</ele>
        <time>2021-05-09T11:21:01.000Z</time>
      </trkpt>
      <trkpt lat="44.34817" lon="6.85871">
        <ele>2471.3999023438</ele>
        <time>2021-05-09T11:21:07.000Z</time>
      </trkpt>
      <trkpt lat="44.34817" lon="6.85871">
        <ele>2471.3999023438</ele>
        <time>2021-05-09T11:21:09.000Z</time>
      </trkpt>
      <trkpt lat="44.34817" lon="6.85872">
        <ele>2471.3999023438</ele>
        <time>2021-05-09T11:21:11.000Z</time>
      </trkpt>
      <trkpt lat="44.34816" lon="6.85872">
        <ele>2471.3999023438</ele>
        <time>2021-05-09T11:21:12.000Z</time>
      </trkpt>
      <trkpt lat="44.34816" lon="6.85872">
        <ele>2471.3999023438</ele>
        <time>2021-05-09T11:21:13.000Z</time>
      </trkpt>
      <trkpt lat="44.34815" lon="6.85872">
        <ele>2471.6000976562</ele>
        <time>2021-05-09T11:21:23.000Z</time>
      </trkpt>
      <trkpt lat="44.34815" lon="6.85872">
        <ele>2471.3999023438</ele>
        <time>2021-05-09T11:21:26.000Z</time>
      </trkpt>
      <trkpt lat="44.34815" lon="6.85872">
        <ele>2471.3999023438</ele>
        <time>2021-05-09T11:21:27.000Z</time>
      </trkpt>
      <trkpt lat="44.34816" lon="6.85873">
        <ele>2471.6000976562</ele>
        <time>2021-05-09T11:21:32.000Z</time>
      </trkpt>
      <trkpt lat="44.34815" lon="6.85873">
        <ele>2471.8000488281</ele>
        <time>2021-05-09T11:21:40.000Z</time>
      </trkpt>
      <trkpt lat="44.34814" lon="6.85873">
        <ele>2471.8000488281</ele>
        <time>2021-05-09T11:21:42.000Z</time>
      </trkpt>
      <trkpt lat="44.34812" lon="6.85872">
        <ele>2471.8000488281</ele>
        <time>2021-05-09T11:21:44.000Z</time>
      </trkpt>
      <trkpt lat="44.34811" lon="6.85871">
        <ele>2472.1999511719</ele>
        <time>2021-05-09T11:21:46.000Z</time>
      </trkpt>
      <trkpt lat="44.34809" lon="6.85871">
        <ele>2472.3999023438</ele>
        <time>2021-05-09T11:21:48.000Z</time>
      </trkpt>
      <trkpt lat="44.34806" lon="6.85869">
        <ele>2473.3999023438</ele>
        <time>2021-05-09T11:21:53.000Z</time>
      </trkpt>
      <trkpt lat="44.34803" lon="6.85867">
        <ele>2474</ele>
        <time>2021-05-09T11:21:57.000Z</time>
      </trkpt>
      <trkpt lat="44.34801" lon="6.85866">
        <ele>2474.6000976562</ele>
        <time>2021-05-09T11:22:01.000Z</time>
      </trkpt>
      <trkpt lat="44.34799" lon="6.85864">
        <ele>2475</ele>
        <time>2021-05-09T11:22:04.000Z</time>
      </trkpt>
      <trkpt lat="44.34798" lon="6.85863">
        <ele>2475.3999023438</ele>
        <time>2021-05-09T11:22:06.000Z</time>
      </trkpt>
      <trkpt lat="44.34797" lon="6.85862">
        <ele>2475.6000976562</ele>
        <time>2021-05-09T11:22:07.000Z</time>
      </trkpt>
      <trkpt lat="44.34795" lon="6.85862">
        <ele>2475.8000488281</ele>
        <time>2021-05-09T11:22:10.000Z</time>
      </trkpt>
      <trkpt lat="44.34793" lon="6.85859">
        <ele>2476.6000976562</ele>
        <time>2021-05-09T11:22:19.000Z</time>
      </trkpt>
      <trkpt lat="44.34793" lon="6.85858">
        <ele>2476.6000976562</ele>
        <time>2021-05-09T11:22:22.000Z</time>
      </trkpt>
      <trkpt lat="44.34785" lon="6.85856">
        <ele>2477.6000976562</ele>
        <time>2021-05-09T11:22:42.000Z</time>
      </trkpt>
      <trkpt lat="44.34784" lon="6.85855">
        <ele>2477.8000488281</ele>
        <time>2021-05-09T11:22:44.000Z</time>
      </trkpt>
      <trkpt lat="44.3478" lon="6.85853">
        <ele>2478</ele>
        <time>2021-05-09T11:22:47.000Z</time>
      </trkpt>
      <trkpt lat="44.34779" lon="6.85852">
        <ele>2478.1999511719</ele>
        <time>2021-05-09T11:22:49.000Z</time>
      </trkpt>
      <trkpt lat="44.34778" lon="6.85851">
        <ele>2478.6000976562</ele>
        <time>2021-05-09T11:22:51.000Z</time>
      </trkpt>
      <trkpt lat="44.34777" lon="6.85851">
        <ele>2478.8000488281</ele>
        <time>2021-05-09T11:22:52.000Z</time>
      </trkpt>
      <trkpt lat="44.34776" lon="6.8585">
        <ele>2479.1999511719</ele>
        <time>2021-05-09T11:22:53.000Z</time>
      </trkpt>
      <trkpt lat="44.34774" lon="6.85849">
        <ele>2479.8000488281</ele>
        <time>2021-05-09T11:23:02.000Z</time>
      </trkpt>
      <trkpt lat="44.34771" lon="6.85846">
        <ele>2480.8000488281</ele>
        <time>2021-05-09T11:23:09.000Z</time>
      </trkpt>
      <trkpt lat="44.34769" lon="6.85844">
        <ele>2481</ele>
        <time>2021-05-09T11:23:16.000Z</time>
      </trkpt>
      <trkpt lat="44.34768" lon="6.85842">
        <ele>2481.3999023438</ele>
        <time>2021-05-09T11:23:19.000Z</time>
      </trkpt>
      <trkpt lat="44.34767" lon="6.85841">
        <ele>2481.6000976562</ele>
        <time>2021-05-09T11:23:20.000Z</time>
      </trkpt>
      <trkpt lat="44.34766" lon="6.8584">
        <ele>2482</ele>
        <time>2021-05-09T11:23:21.000Z</time>
      </trkpt>
      <trkpt lat="44.34765" lon="6.8584">
        <ele>2482.1999511719</ele>
        <time>2021-05-09T11:23:22.000Z</time>
      </trkpt>
      <trkpt lat="44.34765" lon="6.85839">
        <ele>2482.1999511719</ele>
        <time>2021-05-09T11:23:23.000Z</time>
      </trkpt>
      <trkpt lat="44.34765" lon="6.85839">
        <ele>2482.3999023438</ele>
        <time>2021-05-09T11:23:24.000Z</time>
      </trkpt>
      <trkpt lat="44.34762" lon="6.85836">
        <ele>2482.6000976562</ele>
        <time>2021-05-09T11:23:27.000Z</time>
      </trkpt>
      <trkpt lat="44.34762" lon="6.85834">
        <ele>2483</ele>
        <time>2021-05-09T11:23:29.000Z</time>
      </trkpt>
      <trkpt lat="44.34759" lon="6.8583">
        <ele>2484</ele>
        <time>2021-05-09T11:23:35.000Z</time>
      </trkpt>
      <trkpt lat="44.34758" lon="6.85829">
        <ele>2484.1999511719</ele>
        <time>2021-05-09T11:23:36.000Z</time>
      </trkpt>
      <trkpt lat="44.34756" lon="6.85827">
        <ele>2485.3999023438</ele>
        <time>2021-05-09T11:23:40.000Z</time>
      </trkpt>
      <trkpt lat="44.34756" lon="6.85827">
        <ele>2485.6000976562</ele>
        <time>2021-05-09T11:23:41.000Z</time>
      </trkpt>
      <trkpt lat="44.34754" lon="6.85825">
        <ele>2486.1999511719</ele>
        <time>2021-05-09T11:23:43.000Z</time>
      </trkpt>
      <trkpt lat="44.34754" lon="6.85824">
        <ele>2486.3999023438</ele>
        <time>2021-05-09T11:23:45.000Z</time>
      </trkpt>
      <trkpt lat="44.34753" lon="6.85825">
        <ele>2486.6000976562</ele>
        <time>2021-05-09T11:23:54.000Z</time>
      </trkpt>
      <trkpt lat="44.34751" lon="6.85824">
        <ele>2486.8000488281</ele>
        <time>2021-05-09T11:24:14.000Z</time>
      </trkpt>
      <trkpt lat="44.34748" lon="6.85821">
        <ele>2487.6000976562</ele>
        <time>2021-05-09T11:24:19.000Z</time>
      </trkpt>
      <trkpt lat="44.34747" lon="6.85819">
        <ele>2488</ele>
        <time>2021-05-09T11:24:21.000Z</time>
      </trkpt>
      <trkpt lat="44.34745" lon="6.85818">
        <ele>2488.8000488281</ele>
        <time>2021-05-09T11:24:25.000Z</time>
      </trkpt>
      <trkpt lat="44.34741" lon="6.85815">
        <ele>2490</ele>
        <time>2021-05-09T11:24:30.000Z</time>
      </trkpt>
      <trkpt lat="44.34736" lon="6.85812">
        <ele>2491</ele>
        <time>2021-05-09T11:24:38.000Z</time>
      </trkpt>
      <trkpt lat="44.34734" lon="6.85811">
        <ele>2491.6000976562</ele>
        <time>2021-05-09T11:24:42.000Z</time>
      </trkpt>
      <trkpt lat="44.34733" lon="6.85809">
        <ele>2492</ele>
        <time>2021-05-09T11:24:46.000Z</time>
      </trkpt>
      <trkpt lat="44.34733" lon="6.85809">
        <ele>2492</ele>
        <time>2021-05-09T11:24:47.000Z</time>
      </trkpt>
      <trkpt lat="44.34733" lon="6.85809">
        <ele>2492.1999511719</ele>
        <time>2021-05-09T11:24:48.000Z</time>
      </trkpt>
      <trkpt lat="44.34732" lon="6.8581">
        <ele>2492.3999023438</ele>
        <time>2021-05-09T11:24:49.000Z</time>
      </trkpt>
      <trkpt lat="44.34732" lon="6.8581">
        <ele>2493</ele>
        <time>2021-05-09T11:24:52.000Z</time>
      </trkpt>
      <trkpt lat="44.34733" lon="6.85811">
        <ele>2493.1999511719</ele>
        <time>2021-05-09T11:24:53.000Z</time>
      </trkpt>
      <trkpt lat="44.34733" lon="6.85814">
        <ele>2494.1999511719</ele>
        <time>2021-05-09T11:25:00.000Z</time>
      </trkpt>
      <trkpt lat="44.34734" lon="6.85818">
        <ele>2495</ele>
        <time>2021-05-09T11:25:26.000Z</time>
      </trkpt>
      <trkpt lat="44.34733" lon="6.85816">
        <ele>2495.1999511719</ele>
        <time>2021-05-09T11:25:31.000Z</time>
      </trkpt>
      <trkpt lat="44.34733" lon="6.85816">
        <ele>2495.3999023438</ele>
        <time>2021-05-09T11:25:33.000Z</time>
      </trkpt>
      <trkpt lat="44.34733" lon="6.85816">
        <ele>2495.6000976562</ele>
        <time>2021-05-09T11:25:37.000Z</time>
      </trkpt>
      <trkpt lat="44.34733" lon="6.85816">
        <ele>2495.6000976562</ele>
        <time>2021-05-09T11:25:39.000Z</time>
      </trkpt>
      <trkpt lat="44.34733" lon="6.85816">
        <ele>2495.6000976562</ele>
        <time>2021-05-09T11:25:40.000Z</time>
      </trkpt>
      <trkpt lat="44.34733" lon="6.85816">
        <ele>2495.6000976562</ele>
        <time>2021-05-09T11:25:41.000Z</time>
      </trkpt>
      <trkpt lat="44.34733" lon="6.85816">
        <ele>2495.8000488281</ele>
        <time>2021-05-09T11:25:43.000Z</time>
      </trkpt>
      <trkpt lat="44.34732" lon="6.8582">
        <ele>2496.1999511719</ele>
        <time>2021-05-09T11:25:52.000Z</time>
      </trkpt>
      <trkpt lat="44.34732" lon="6.85822">
        <ele>2496.1999511719</ele>
        <time>2021-05-09T11:25:53.000Z</time>
      </trkpt>
      <trkpt lat="44.34731" lon="6.85826">
        <ele>2496.3999023438</ele>
        <time>2021-05-09T11:25:56.000Z</time>
      </trkpt>
      <trkpt lat="44.34731" lon="6.85828">
        <ele>2496.6000976562</ele>
        <time>2021-05-09T11:25:58.000Z</time>
      </trkpt>
      <trkpt lat="44.34732" lon="6.8583">
        <ele>2497</ele>
        <time>2021-05-09T11:26:00.000Z</time>
      </trkpt>
      <trkpt lat="44.34733" lon="6.85834">
        <ele>2497.6000976562</ele>
        <time>2021-05-09T11:26:02.000Z</time>
      </trkpt>
      <trkpt lat="44.34734" lon="6.85839">
        <ele>2498.6000976562</ele>
        <time>2021-05-09T11:26:07.000Z</time>
      </trkpt>
      <trkpt lat="44.34733" lon="6.85839">
        <ele>2498.6000976562</ele>
        <time>2021-05-09T11:26:08.000Z</time>
      </trkpt>
      <trkpt lat="44.34732" lon="6.85838">
        <ele>2498.8000488281</ele>
        <time>2021-05-09T11:26:14.000Z</time>
      </trkpt>
      <trkpt lat="44.34728" lon="6.85833">
        <ele>2499.1999511719</ele>
        <time>2021-05-09T11:26:22.000Z</time>
      </trkpt>
      <trkpt lat="44.34727" lon="6.85831">
        <ele>2499.3999023438</ele>
        <time>2021-05-09T11:26:24.000Z</time>
      </trkpt>
      <trkpt lat="44.34725" lon="6.85829">
        <ele>2499.8000488281</ele>
        <time>2021-05-09T11:26:27.000Z</time>
      </trkpt>
      <trkpt lat="44.34724" lon="6.85827">
        <ele>2500.1999511719</ele>
        <time>2021-05-09T11:26:28.000Z</time>
      </trkpt>
      <trkpt lat="44.34724" lon="6.85827">
        <ele>2500.3999023438</ele>
        <time>2021-05-09T11:26:29.000Z</time>
      </trkpt>
      <trkpt lat="44.34723" lon="6.85826">
        <ele>2500.6000976562</ele>
        <time>2021-05-09T11:26:30.000Z</time>
      </trkpt>
      <trkpt lat="44.34722" lon="6.85825">
        <ele>2501</ele>
        <time>2021-05-09T11:26:32.000Z</time>
      </trkpt>
      <trkpt lat="44.34717" lon="6.85817">
        <ele>2502</ele>
        <time>2021-05-09T11:26:38.000Z</time>
      </trkpt>
      <trkpt lat="44.34716" lon="6.85817">
        <ele>2502.1999511719</ele>
        <time>2021-05-09T11:26:39.000Z</time>
      </trkpt>
      <trkpt lat="44.34716" lon="6.85817">
        <ele>2502.3999023438</ele>
        <time>2021-05-09T11:26:40.000Z</time>
      </trkpt>
      <trkpt lat="44.34716" lon="6.85815">
        <ele>2502.6000976562</ele>
        <time>2021-05-09T11:26:41.000Z</time>
      </trkpt>
      <trkpt lat="44.34716" lon="6.85814">
        <ele>2502.8000488281</ele>
        <time>2021-05-09T11:26:43.000Z</time>
      </trkpt>
      <trkpt lat="44.34714" lon="6.85811">
        <ele>2503.3999023438</ele>
        <time>2021-05-09T11:26:56.000Z</time>
      </trkpt>
      <trkpt lat="44.34712" lon="6.8581">
        <ele>2504</ele>
        <time>2021-05-09T11:27:00.000Z</time>
      </trkpt>
      <trkpt lat="44.34712" lon="6.8581">
        <ele>2504.1999511719</ele>
        <time>2021-05-09T11:27:01.000Z</time>
      </trkpt>
      <trkpt lat="44.34712" lon="6.8581">
        <ele>2504.3999023438</ele>
        <time>2021-05-09T11:27:02.000Z</time>
      </trkpt>
      <trkpt lat="44.34709" lon="6.85807">
        <ele>2505.3999023438</ele>
        <time>2021-05-09T11:27:08.000Z</time>
      </trkpt>
      <trkpt lat="44.34706" lon="6.85803">
        <ele>2506.8000488281</ele>
        <time>2021-05-09T11:27:12.000Z</time>
      </trkpt>
      <trkpt lat="44.34705" lon="6.85801">
        <ele>2507.8000488281</ele>
        <time>2021-05-09T11:27:15.000Z</time>
      </trkpt>
      <trkpt lat="44.34702" lon="6.85795">
        <ele>2508.6000976562</ele>
        <time>2021-05-09T11:27:29.000Z</time>
      </trkpt>
      <trkpt lat="44.34701" lon="6.85797">
        <ele>2508.8000488281</ele>
        <time>2021-05-09T11:27:30.000Z</time>
      </trkpt>
      <trkpt lat="44.34697" lon="6.858">
        <ele>2509.3999023438</ele>
        <time>2021-05-09T11:27:35.000Z</time>
      </trkpt>
      <trkpt lat="44.34697" lon="6.85796">
        <ele>2509.1999511719</ele>
        <time>2021-05-09T11:27:54.000Z</time>
      </trkpt>
      <trkpt lat="44.34697" lon="6.85794">
        <ele>2509.1999511719</ele>
        <time>2021-05-09T11:27:56.000Z</time>
      </trkpt>
      <trkpt lat="44.34694" lon="6.85788">
        <ele>2509</ele>
        <time>2021-05-09T11:27:59.000Z</time>
      </trkpt>
      <trkpt lat="44.34691" lon="6.8579">
        <ele>2509.3999023438</ele>
        <time>2021-05-09T11:28:04.000Z</time>
      </trkpt>
      <trkpt lat="44.3469" lon="6.8579">
        <ele>2509.3999023438</ele>
        <time>2021-05-09T11:28:07.000Z</time>
      </trkpt>
      <trkpt lat="44.34689" lon="6.85791">
        <ele>2509.6000976562</ele>
        <time>2021-05-09T11:28:08.000Z</time>
      </trkpt>
      <trkpt lat="44.34688" lon="6.85793">
        <ele>2510.1999511719</ele>
        <time>2021-05-09T11:28:10.000Z</time>
      </trkpt>
      <trkpt lat="44.34687" lon="6.85795">
        <ele>2510.1999511719</ele>
        <time>2021-05-09T11:28:11.000Z</time>
      </trkpt>
      <trkpt lat="44.34685" lon="6.85798">
        <ele>2510.6000976562</ele>
        <time>2021-05-09T11:28:14.000Z</time>
      </trkpt>
      <trkpt lat="44.34684" lon="6.858">
        <ele>2511.1999511719</ele>
        <time>2021-05-09T11:28:16.000Z</time>
      </trkpt>
      <trkpt lat="44.34682" lon="6.858">
        <ele>2511.8000488281</ele>
        <time>2021-05-09T11:28:18.000Z</time>
      </trkpt>
      <trkpt lat="44.34681" lon="6.858">
        <ele>2512.3999023438</ele>
        <time>2021-05-09T11:28:20.000Z</time>
      </trkpt>
      <trkpt lat="44.3468" lon="6.85799">
        <ele>2512.6000976562</ele>
        <time>2021-05-09T11:28:22.000Z</time>
      </trkpt>
      <trkpt lat="44.34679" lon="6.85799">
        <ele>2513.1999511719</ele>
        <time>2021-05-09T11:28:25.000Z</time>
      </trkpt>
      <trkpt lat="44.34678" lon="6.85799">
        <ele>2513.3999023438</ele>
        <time>2021-05-09T11:28:26.000Z</time>
      </trkpt>
      <trkpt lat="44.34677" lon="6.85798">
        <ele>2513.8000488281</ele>
        <time>2021-05-09T11:28:29.000Z</time>
      </trkpt>
      <trkpt lat="44.34676" lon="6.85795">
        <ele>2514.3999023438</ele>
        <time>2021-05-09T11:28:32.000Z</time>
      </trkpt>
      <trkpt lat="44.34674" lon="6.85793">
        <ele>2515.6000976562</ele>
        <time>2021-05-09T11:28:36.000Z</time>
      </trkpt>
      <trkpt lat="44.34671" lon="6.85792">
        <ele>2516.8000488281</ele>
        <time>2021-05-09T11:28:43.000Z</time>
      </trkpt>
      <trkpt lat="44.34666" lon="6.8579">
        <ele>2518</ele>
        <time>2021-05-09T11:28:49.000Z</time>
      </trkpt>
      <trkpt lat="44.34665" lon="6.8579">
        <ele>2518.8000488281</ele>
        <time>2021-05-09T11:28:53.000Z</time>
      </trkpt>
      <trkpt lat="44.34666" lon="6.8579">
        <ele>2519</ele>
        <time>2021-05-09T11:28:55.000Z</time>
      </trkpt>
      <trkpt lat="44.34662" lon="6.8579">
        <ele>2518.8000488281</ele>
        <time>2021-05-09T11:29:15.000Z</time>
      </trkpt>
      <trkpt lat="44.3466" lon="6.8579">
        <ele>2519.1999511719</ele>
        <time>2021-05-09T11:29:18.000Z</time>
      </trkpt>
      <trkpt lat="44.34658" lon="6.85791">
        <ele>2519.1999511719</ele>
        <time>2021-05-09T11:29:19.000Z</time>
      </trkpt>
      <trkpt lat="44.34652" lon="6.85789">
        <ele>2520.1999511719</ele>
        <time>2021-05-09T11:29:25.000Z</time>
      </trkpt>
      <trkpt lat="44.34651" lon="6.85789">
        <ele>2520.3999023438</ele>
        <time>2021-05-09T11:29:26.000Z</time>
      </trkpt>
      <trkpt lat="44.34649" lon="6.85788">
        <ele>2520.8000488281</ele>
        <time>2021-05-09T11:29:29.000Z</time>
      </trkpt>
      <trkpt lat="44.34648" lon="6.85787">
        <ele>2521.1999511719</ele>
        <time>2021-05-09T11:29:32.000Z</time>
      </trkpt>
      <trkpt lat="44.34645" lon="6.85787">
        <ele>2522.1999511719</ele>
        <time>2021-05-09T11:29:37.000Z</time>
      </trkpt>
      <trkpt lat="44.34643" lon="6.85786">
        <ele>2523.1999511719</ele>
        <time>2021-05-09T11:29:42.000Z</time>
      </trkpt>
      <trkpt lat="44.34643" lon="6.85786">
        <ele>2523.3999023438</ele>
        <time>2021-05-09T11:29:43.000Z</time>
      </trkpt>
      <trkpt lat="44.34643" lon="6.85788">
        <ele>2523.3999023438</ele>
        <time>2021-05-09T11:29:49.000Z</time>
      </trkpt>
      <trkpt lat="44.34639" lon="6.85785">
        <ele>2524.3999023438</ele>
        <time>2021-05-09T11:29:57.000Z</time>
      </trkpt>
      <trkpt lat="44.34636" lon="6.85784">
        <ele>2525.3999023438</ele>
        <time>2021-05-09T11:30:02.000Z</time>
      </trkpt>
      <trkpt lat="44.3463" lon="6.8578">
        <ele>2526.3999023438</ele>
        <time>2021-05-09T11:30:22.000Z</time>
      </trkpt>
      <trkpt lat="44.34628" lon="6.85779">
        <ele>2527</ele>
        <time>2021-05-09T11:30:30.000Z</time>
      </trkpt>
      <trkpt lat="44.34626" lon="6.85778">
        <ele>2527.6000976562</ele>
        <time>2021-05-09T11:30:33.000Z</time>
      </trkpt>
      <trkpt lat="44.34623" lon="6.85778">
        <ele>2528.6000976562</ele>
        <time>2021-05-09T11:30:38.000Z</time>
      </trkpt>
      <trkpt lat="44.34621" lon="6.85779">
        <ele>2529</ele>
        <time>2021-05-09T11:30:40.000Z</time>
      </trkpt>
      <trkpt lat="44.3462" lon="6.85779">
        <ele>2529.6000976562</ele>
        <time>2021-05-09T11:30:42.000Z</time>
      </trkpt>
      <trkpt lat="44.34619" lon="6.8578">
        <ele>2530.8000488281</ele>
        <time>2021-05-09T11:30:48.000Z</time>
      </trkpt>
      <trkpt lat="44.34618" lon="6.85778">
        <ele>2531</ele>
        <time>2021-05-09T11:31:07.000Z</time>
      </trkpt>
      <trkpt lat="44.34615" lon="6.85779">
        <ele>2531.3999023438</ele>
        <time>2021-05-09T11:31:13.000Z</time>
      </trkpt>
      <trkpt lat="44.34614" lon="6.85779">
        <ele>2532</ele>
        <time>2021-05-09T11:31:15.000Z</time>
      </trkpt>
      <trkpt lat="44.34611" lon="6.8578">
        <ele>2532.3999023438</ele>
        <time>2021-05-09T11:31:18.000Z</time>
      </trkpt>
      <trkpt lat="44.34609" lon="6.85782">
        <ele>2533.3999023438</ele>
        <time>2021-05-09T11:31:22.000Z</time>
      </trkpt>
      <trkpt lat="44.34607" lon="6.85783">
        <ele>2534</ele>
        <time>2021-05-09T11:31:25.000Z</time>
      </trkpt>
      <trkpt lat="44.34602" lon="6.85784">
        <ele>2534.3999023438</ele>
        <time>2021-05-09T11:31:30.000Z</time>
      </trkpt>
      <trkpt lat="44.34595" lon="6.85784">
        <ele>2535.6000976562</ele>
        <time>2021-05-09T11:31:36.000Z</time>
      </trkpt>
      <trkpt lat="44.34595" lon="6.85784">
        <ele>2536</ele>
        <time>2021-05-09T11:31:37.000Z</time>
      </trkpt>
      <trkpt lat="44.34595" lon="6.85784">
        <ele>2536.1999511719</ele>
        <time>2021-05-09T11:31:39.000Z</time>
      </trkpt>
      <trkpt lat="44.34597" lon="6.85783">
        <ele>2536.6000976562</ele>
        <time>2021-05-09T11:31:48.000Z</time>
      </trkpt>
      <trkpt lat="44.346" lon="6.85783">
        <ele>2537</ele>
        <time>2021-05-09T11:32:05.000Z</time>
      </trkpt>
      <trkpt lat="44.34594" lon="6.85779">
        <ele>2537.6000976562</ele>
        <time>2021-05-09T11:32:13.000Z</time>
      </trkpt>
      <trkpt lat="44.34592" lon="6.85777">
        <ele>2537.8000488281</ele>
        <time>2021-05-09T11:32:15.000Z</time>
      </trkpt>
      <trkpt lat="44.3459" lon="6.85775">
        <ele>2538</ele>
        <time>2021-05-09T11:32:17.000Z</time>
      </trkpt>
      <trkpt lat="44.34588" lon="6.85773">
        <ele>2538.6000976562</ele>
        <time>2021-05-09T11:32:20.000Z</time>
      </trkpt>
      <trkpt lat="44.34588" lon="6.85773">
        <ele>2538.8000488281</ele>
        <time>2021-05-09T11:32:21.000Z</time>
      </trkpt>
      <trkpt lat="44.34586" lon="6.85772">
        <ele>2539.1999511719</ele>
        <time>2021-05-09T11:32:23.000Z</time>
      </trkpt>
      <trkpt lat="44.34585" lon="6.85772">
        <ele>2539.3999023438</ele>
        <time>2021-05-09T11:32:25.000Z</time>
      </trkpt>
      <trkpt lat="44.34584" lon="6.8577">
        <ele>2539.6000976562</ele>
        <time>2021-05-09T11:32:28.000Z</time>
      </trkpt>
      <trkpt lat="44.34582" lon="6.85768">
        <ele>2540</ele>
        <time>2021-05-09T11:32:30.000Z</time>
      </trkpt>
      <trkpt lat="44.3458" lon="6.85766">
        <ele>2540.8000488281</ele>
        <time>2021-05-09T11:32:34.000Z</time>
      </trkpt>
      <trkpt lat="44.34578" lon="6.85764">
        <ele>2541.3999023438</ele>
        <time>2021-05-09T11:32:38.000Z</time>
      </trkpt>
      <trkpt lat="44.34575" lon="6.85762">
        <ele>2541.8000488281</ele>
        <time>2021-05-09T11:32:43.000Z</time>
      </trkpt>
      <trkpt lat="44.34572" lon="6.85759">
        <ele>2542.8000488281</ele>
        <time>2021-05-09T11:32:50.000Z</time>
      </trkpt>
      <trkpt lat="44.34569" lon="6.85757">
        <ele>2543.3999023438</ele>
        <time>2021-05-09T11:32:53.000Z</time>
      </trkpt>
      <trkpt lat="44.34569" lon="6.85757">
        <ele>2543.6000976562</ele>
        <time>2021-05-09T11:32:54.000Z</time>
      </trkpt>
      <trkpt lat="44.34569" lon="6.85756">
        <ele>2543.8000488281</ele>
        <time>2021-05-09T11:32:55.000Z</time>
      </trkpt>
      <trkpt lat="44.34568" lon="6.85752">
        <ele>2543.8000488281</ele>
        <time>2021-05-09T11:33:28.000Z</time>
      </trkpt>
      <trkpt lat="44.34567" lon="6.85751">
        <ele>2544.1999511719</ele>
        <time>2021-05-09T11:33:30.000Z</time>
      </trkpt>
      <trkpt lat="44.34565" lon="6.85751">
        <ele>2544.3999023438</ele>
        <time>2021-05-09T11:33:31.000Z</time>
      </trkpt>
      <trkpt lat="44.34565" lon="6.8575">
        <ele>2544.6000976562</ele>
        <time>2021-05-09T11:33:32.000Z</time>
      </trkpt>
      <trkpt lat="44.34564" lon="6.85749">
        <ele>2544.8000488281</ele>
        <time>2021-05-09T11:33:33.000Z</time>
      </trkpt>
      <trkpt lat="44.34561" lon="6.85746">
        <ele>2546</ele>
        <time>2021-05-09T11:33:38.000Z</time>
      </trkpt>
      <trkpt lat="44.34558" lon="6.85743">
        <ele>2547</ele>
        <time>2021-05-09T11:33:44.000Z</time>
      </trkpt>
      <trkpt lat="44.34557" lon="6.85741">
        <ele>2547.1999511719</ele>
        <time>2021-05-09T11:33:46.000Z</time>
      </trkpt>
      <trkpt lat="44.34558" lon="6.85739">
        <ele>2547.6000976562</ele>
        <time>2021-05-09T11:33:54.000Z</time>
      </trkpt>
      <trkpt lat="44.3456" lon="6.85744">
        <ele>2547.3999023438</ele>
        <time>2021-05-09T11:34:11.000Z</time>
      </trkpt>
      <trkpt lat="44.34558" lon="6.85743">
        <ele>2547.3999023438</ele>
        <time>2021-05-09T11:34:21.000Z</time>
      </trkpt>
      <trkpt lat="44.34557" lon="6.85744">
        <ele>2547.3999023438</ele>
        <time>2021-05-09T11:34:24.000Z</time>
      </trkpt>
      <trkpt lat="44.34557" lon="6.85744">
        <ele>2547.3999023438</ele>
        <time>2021-05-09T11:34:25.000Z</time>
      </trkpt>
      <trkpt lat="44.34556" lon="6.85744">
        <ele>2547.3999023438</ele>
        <time>2021-05-09T11:34:27.000Z</time>
      </trkpt>
      <trkpt lat="44.34556" lon="6.85745">
        <ele>2547.1999511719</ele>
        <time>2021-05-09T11:34:30.000Z</time>
      </trkpt>
      <trkpt lat="44.34557" lon="6.85745">
        <ele>2547.3999023438</ele>
        <time>2021-05-09T11:34:32.000Z</time>
      </trkpt>
      <trkpt lat="44.34557" lon="6.85745">
        <ele>2547.3999023438</ele>
        <time>2021-05-09T11:34:33.000Z</time>
      </trkpt>
      <trkpt lat="44.34557" lon="6.85745">
        <ele>2547.3999023438</ele>
        <time>2021-05-09T11:34:34.000Z</time>
      </trkpt>
      <trkpt lat="44.34556" lon="6.85744">
        <ele>2547.6000976562</ele>
        <time>2021-05-09T11:34:40.000Z</time>
      </trkpt>
      <trkpt lat="44.34556" lon="6.85744">
        <ele>2547.8000488281</ele>
        <time>2021-05-09T11:34:43.000Z</time>
      </trkpt>
      <trkpt lat="44.34556" lon="6.85745">
        <ele>2547.8000488281</ele>
        <time>2021-05-09T11:34:45.000Z</time>
      </trkpt>
      <trkpt lat="44.34555" lon="6.85745">
        <ele>2548</ele>
        <time>2021-05-09T11:34:46.000Z</time>
      </trkpt>
      <trkpt lat="44.34555" lon="6.85745">
        <ele>2548</ele>
        <time>2021-05-09T11:34:47.000Z</time>
      </trkpt>
      <trkpt lat="44.34555" lon="6.85745">
        <ele>2548</ele>
        <time>2021-05-09T11:34:50.000Z</time>
      </trkpt>
      <trkpt lat="44.34555" lon="6.85745">
        <ele>2548.1999511719</ele>
        <time>2021-05-09T11:34:52.000Z</time>
      </trkpt>
      <trkpt lat="44.34553" lon="6.85742">
        <ele>2548.3999023438</ele>
        <time>2021-05-09T11:34:56.000Z</time>
      </trkpt>
      <trkpt lat="44.34553" lon="6.85742">
        <ele>2548.6000976562</ele>
        <time>2021-05-09T11:34:57.000Z</time>
      </trkpt>
      <trkpt lat="44.34553" lon="6.85742">
        <ele>2548.6000976562</ele>
        <time>2021-05-09T11:34:58.000Z</time>
      </trkpt>
      <trkpt lat="44.34553" lon="6.85741">
        <ele>2548.8000488281</ele>
        <time>2021-05-09T11:34:59.000Z</time>
      </trkpt>
      <trkpt lat="44.34552" lon="6.85739">
        <ele>2549.3999023438</ele>
        <time>2021-05-09T11:35:01.000Z</time>
      </trkpt>
      <trkpt lat="44.34552" lon="6.85739">
        <ele>2549.6000976562</ele>
        <time>2021-05-09T11:35:02.000Z</time>
      </trkpt>
      <trkpt lat="44.34552" lon="6.85738">
        <ele>2549.8000488281</ele>
        <time>2021-05-09T11:35:03.000Z</time>
      </trkpt>
      <trkpt lat="44.34551" lon="6.85737">
        <ele>2549.8000488281</ele>
        <time>2021-05-09T11:35:04.000Z</time>
      </trkpt>
      <trkpt lat="44.3455" lon="6.85736">
        <ele>2550</ele>
        <time>2021-05-09T11:35:06.000Z</time>
      </trkpt>
      <trkpt lat="44.34549" lon="6.85734">
        <ele>2550.3999023438</ele>
        <time>2021-05-09T11:35:08.000Z</time>
      </trkpt>
      <trkpt lat="44.34546" lon="6.85732">
        <ele>2551.1999511719</ele>
        <time>2021-05-09T11:35:13.000Z</time>
      </trkpt>
      <trkpt lat="44.34546" lon="6.85732">
        <ele>2551.3999023438</ele>
        <time>2021-05-09T11:35:14.000Z</time>
      </trkpt>
      <trkpt lat="44.34547" lon="6.85732">
        <ele>2551.6000976562</ele>
        <time>2021-05-09T11:35:15.000Z</time>
      </trkpt>
      <trkpt lat="44.34547" lon="6.85733">
        <ele>2552</ele>
        <time>2021-05-09T11:35:18.000Z</time>
      </trkpt>
      <trkpt lat="44.34548" lon="6.85739">
        <ele>2552.6000976562</ele>
        <time>2021-05-09T11:35:25.000Z</time>
      </trkpt>
      <trkpt lat="44.34549" lon="6.85744">
        <ele>2553.3999023438</ele>
        <time>2021-05-09T11:35:30.000Z</time>
      </trkpt>
      <trkpt lat="44.34548" lon="6.85745">
        <ele>2553.6000976562</ele>
        <time>2021-05-09T11:35:32.000Z</time>
      </trkpt>
      <trkpt lat="44.34547" lon="6.85749">
        <ele>2554</ele>
        <time>2021-05-09T11:35:35.000Z</time>
      </trkpt>
      <trkpt lat="44.34546" lon="6.85749">
        <ele>2554.1999511719</ele>
        <time>2021-05-09T11:35:38.000Z</time>
      </trkpt>
      <trkpt lat="44.34545" lon="6.85753">
        <ele>2554.8000488281</ele>
        <time>2021-05-09T11:35:41.000Z</time>
      </trkpt>
      <trkpt lat="44.34546" lon="6.85756">
        <ele>2555.3999023438</ele>
        <time>2021-05-09T11:35:44.000Z</time>
      </trkpt>
      <trkpt lat="44.34545" lon="6.85759">
        <ele>2555.8000488281</ele>
        <time>2021-05-09T11:35:47.000Z</time>
      </trkpt>
      <trkpt lat="44.34545" lon="6.85765">
        <ele>2556.8000488281</ele>
        <time>2021-05-09T11:35:58.000Z</time>
      </trkpt>
      <trkpt lat="44.34545" lon="6.85768">
        <ele>2556.8000488281</ele>
        <time>2021-05-09T11:36:00.000Z</time>
      </trkpt>
      <trkpt lat="44.34545" lon="6.85769">
        <ele>2557</ele>
        <time>2021-05-09T11:36:02.000Z</time>
      </trkpt>
      <trkpt lat="44.34545" lon="6.85772">
        <ele>2557.6000976562</ele>
        <time>2021-05-09T11:36:06.000Z</time>
      </trkpt>
      <trkpt lat="44.34545" lon="6.85772">
        <ele>2558</ele>
        <time>2021-05-09T11:36:07.000Z</time>
      </trkpt>
      <trkpt lat="44.34545" lon="6.85779">
        <ele>2558.8000488281</ele>
        <time>2021-05-09T11:36:12.000Z</time>
      </trkpt>
      <trkpt lat="44.34545" lon="6.85779">
        <ele>2559</ele>
        <time>2021-05-09T11:36:13.000Z</time>
      </trkpt>
      <trkpt lat="44.34544" lon="6.85788">
        <ele>2559.8000488281</ele>
        <time>2021-05-09T11:36:22.000Z</time>
      </trkpt>
      <trkpt lat="44.34544" lon="6.85793">
        <ele>2560</ele>
        <time>2021-05-09T11:36:24.000Z</time>
      </trkpt>
      <trkpt lat="44.34543" lon="6.85795">
        <ele>2561.1999511719</ele>
        <time>2021-05-09T11:36:31.000Z</time>
      </trkpt>
      <trkpt lat="44.34541" lon="6.85793">
        <ele>2562</ele>
        <time>2021-05-09T11:36:55.000Z</time>
      </trkpt>
      <trkpt lat="44.34541" lon="6.85793">
        <ele>2561.8000488281</ele>
        <time>2021-05-09T11:36:59.000Z</time>
      </trkpt>
      <trkpt lat="44.34541" lon="6.85793">
        <ele>2561.8000488281</ele>
        <time>2021-05-09T11:37:06.000Z</time>
      </trkpt>
      <trkpt lat="44.34539" lon="6.85793">
        <ele>2562</ele>
        <time>2021-05-09T11:37:10.000Z</time>
      </trkpt>
      <trkpt lat="44.34538" lon="6.85793">
        <ele>2562</ele>
        <time>2021-05-09T11:37:13.000Z</time>
      </trkpt>
      <trkpt lat="44.34538" lon="6.85793">
        <ele>2562.1999511719</ele>
        <time>2021-05-09T11:37:15.000Z</time>
      </trkpt>
      <trkpt lat="44.34539" lon="6.85792">
        <ele>2562.6000976562</ele>
        <time>2021-05-09T11:37:21.000Z</time>
      </trkpt>
      <trkpt lat="44.34539" lon="6.85792">
        <ele>2562.6000976562</ele>
        <time>2021-05-09T11:37:22.000Z</time>
      </trkpt>
      <trkpt lat="44.34538" lon="6.85792">
        <ele>2563</ele>
        <time>2021-05-09T11:37:24.000Z</time>
      </trkpt>
      <trkpt lat="44.34537" lon="6.85792">
        <ele>2563.1999511719</ele>
        <time>2021-05-09T11:37:26.000Z</time>
      </trkpt>
      <trkpt lat="44.34537" lon="6.85793">
        <ele>2564</ele>
        <time>2021-05-09T11:37:32.000Z</time>
      </trkpt>
      <trkpt lat="44.34538" lon="6.85792">
        <ele>2564</ele>
        <time>2021-05-09T11:37:35.000Z</time>
      </trkpt>
      <trkpt lat="44.34537" lon="6.85792">
        <ele>2563.8000488281</ele>
        <time>2021-05-09T11:37:38.000Z</time>
      </trkpt>
      <trkpt lat="44.34536" lon="6.85791">
        <ele>2563.3999023438</ele>
        <time>2021-05-09T11:37:40.000Z</time>
      </trkpt>
      <trkpt lat="44.34535" lon="6.8579">
        <ele>2563.1999511719</ele>
        <time>2021-05-09T11:37:42.000Z</time>
      </trkpt>
      <trkpt lat="44.34534" lon="6.85789">
        <ele>2563.1999511719</ele>
        <time>2021-05-09T11:37:43.000Z</time>
      </trkpt>
      <trkpt lat="44.34533" lon="6.85788">
        <ele>2563.3999023438</ele>
        <time>2021-05-09T11:37:46.000Z</time>
      </trkpt>
      <trkpt lat="44.34531" lon="6.85785">
        <ele>2564</ele>
        <time>2021-05-09T11:37:48.000Z</time>
      </trkpt>
      <trkpt lat="44.3453" lon="6.85784">
        <ele>2564.3999023438</ele>
        <time>2021-05-09T11:37:50.000Z</time>
      </trkpt>
      <trkpt lat="44.34528" lon="6.8578">
        <ele>2565.3999023438</ele>
        <time>2021-05-09T11:37:54.000Z</time>
      </trkpt>
      <trkpt lat="44.34526" lon="6.85777">
        <ele>2566.1999511719</ele>
        <time>2021-05-09T11:37:58.000Z</time>
      </trkpt>
      <trkpt lat="44.34525" lon="6.85776">
        <ele>2566.3999023438</ele>
        <time>2021-05-09T11:38:00.000Z</time>
      </trkpt>
      <trkpt lat="44.34522" lon="6.85773">
        <ele>2567.6000976562</ele>
        <time>2021-05-09T11:38:04.000Z</time>
      </trkpt>
      <trkpt lat="44.34519" lon="6.85769">
        <ele>2568.6000976562</ele>
        <time>2021-05-09T11:38:09.000Z</time>
      </trkpt>
      <trkpt lat="44.3452" lon="6.85768">
        <ele>2569</ele>
        <time>2021-05-09T11:38:13.000Z</time>
      </trkpt>
      <trkpt lat="44.34518" lon="6.85765">
        <ele>2569.6000976562</ele>
        <time>2021-05-09T11:38:18.000Z</time>
      </trkpt>
      <trkpt lat="44.34517" lon="6.85762">
        <ele>2570.1999511719</ele>
        <time>2021-05-09T11:38:22.000Z</time>
      </trkpt>
      <trkpt lat="44.34516" lon="6.85761">
        <ele>2570.3999023438</ele>
        <time>2021-05-09T11:38:24.000Z</time>
      </trkpt>
      <trkpt lat="44.34515" lon="6.85759">
        <ele>2570.8000488281</ele>
        <time>2021-05-09T11:38:26.000Z</time>
      </trkpt>
      <trkpt lat="44.34511" lon="6.85754">
        <ele>2571.8000488281</ele>
        <time>2021-05-09T11:38:35.000Z</time>
      </trkpt>
      <trkpt lat="44.34509" lon="6.85751">
        <ele>2572.8000488281</ele>
        <time>2021-05-09T11:38:40.000Z</time>
      </trkpt>
      <trkpt lat="44.34507" lon="6.85748">
        <ele>2573.3999023438</ele>
        <time>2021-05-09T11:38:45.000Z</time>
      </trkpt>
      <trkpt lat="44.34507" lon="6.85748">
        <ele>2573.8000488281</ele>
        <time>2021-05-09T11:38:58.000Z</time>
      </trkpt>
      <trkpt lat="44.34507" lon="6.85748">
        <ele>2574</ele>
        <time>2021-05-09T11:38:59.000Z</time>
      </trkpt>
      <trkpt lat="44.34503" lon="6.85742">
        <ele>2575.1999511719</ele>
        <time>2021-05-09T11:39:05.000Z</time>
      </trkpt>
      <trkpt lat="44.34502" lon="6.85741">
        <ele>2575.6000976562</ele>
        <time>2021-05-09T11:39:07.000Z</time>
      </trkpt>
      <trkpt lat="44.345" lon="6.85737">
        <ele>2576.1999511719</ele>
        <time>2021-05-09T11:39:12.000Z</time>
      </trkpt>
      <trkpt lat="44.34499" lon="6.85736">
        <ele>2576.3999023438</ele>
        <time>2021-05-09T11:39:13.000Z</time>
      </trkpt>
      <trkpt lat="44.34497" lon="6.85732">
        <ele>2577.3999023438</ele>
        <time>2021-05-09T11:39:17.000Z</time>
      </trkpt>
      <trkpt lat="44.34494" lon="6.85727">
        <ele>2578.6000976562</ele>
        <time>2021-05-09T11:39:24.000Z</time>
      </trkpt>
      <trkpt lat="44.34494" lon="6.85727">
        <ele>2579</ele>
        <time>2021-05-09T11:39:26.000Z</time>
      </trkpt>
      <trkpt lat="44.34496" lon="6.85738">
        <ele>2579.6000976562</ele>
        <time>2021-05-09T11:39:44.000Z</time>
      </trkpt>
      <trkpt lat="44.34496" lon="6.85744">
        <ele>2580.8000488281</ele>
        <time>2021-05-09T11:39:51.000Z</time>
      </trkpt>
      <trkpt lat="44.34494" lon="6.8575">
        <ele>2582</ele>
        <time>2021-05-09T11:39:58.000Z</time>
      </trkpt>
      <trkpt lat="44.34493" lon="6.85755">
        <ele>2583</ele>
        <time>2021-05-09T11:40:05.000Z</time>
      </trkpt>
      <trkpt lat="44.34492" lon="6.85761">
        <ele>2584</ele>
        <time>2021-05-09T11:40:12.000Z</time>
      </trkpt>
      <trkpt lat="44.34493" lon="6.85761">
        <ele>2584.8000488281</ele>
        <time>2021-05-09T11:40:38.000Z</time>
      </trkpt>
      <trkpt lat="44.34493" lon="6.85761">
        <ele>2584.6000976562</ele>
        <time>2021-05-09T11:40:42.000Z</time>
      </trkpt>
      <trkpt lat="44.34493" lon="6.85764">
        <ele>2584.8000488281</ele>
        <time>2021-05-09T11:40:48.000Z</time>
      </trkpt>
      <trkpt lat="44.34491" lon="6.85769">
        <ele>2585.1999511719</ele>
        <time>2021-05-09T11:40:54.000Z</time>
      </trkpt>
      <trkpt lat="44.3449" lon="6.85775">
        <ele>2586.1999511719</ele>
        <time>2021-05-09T11:41:00.000Z</time>
      </trkpt>
      <trkpt lat="44.3449" lon="6.85782">
        <ele>2587.1999511719</ele>
        <time>2021-05-09T11:41:08.000Z</time>
      </trkpt>
      <trkpt lat="44.3449" lon="6.8579">
        <ele>2588.3999023438</ele>
        <time>2021-05-09T11:41:16.000Z</time>
      </trkpt>
      <trkpt lat="44.34492" lon="6.85794">
        <ele>2589.3999023438</ele>
        <time>2021-05-09T11:41:34.000Z</time>
      </trkpt>
      <trkpt lat="44.34491" lon="6.85799">
        <ele>2589.8000488281</ele>
        <time>2021-05-09T11:41:42.000Z</time>
      </trkpt>
      <trkpt lat="44.34491" lon="6.85801">
        <ele>2590</ele>
        <time>2021-05-09T11:41:43.000Z</time>
      </trkpt>
      <trkpt lat="44.34489" lon="6.85803">
        <ele>2590.3999023438</ele>
        <time>2021-05-09T11:41:47.000Z</time>
      </trkpt>
      <trkpt lat="44.34487" lon="6.85809">
        <ele>2591.6000976562</ele>
        <time>2021-05-09T11:41:54.000Z</time>
      </trkpt>
      <trkpt lat="44.34485" lon="6.85811">
        <ele>2592.6000976562</ele>
        <time>2021-05-09T11:41:57.000Z</time>
      </trkpt>
      <trkpt lat="44.34483" lon="6.85809">
        <ele>2593.1999511719</ele>
        <time>2021-05-09T11:42:05.000Z</time>
      </trkpt>
      <trkpt lat="44.34479" lon="6.85806">
        <ele>2592.8000488281</ele>
        <time>2021-05-09T11:42:26.000Z</time>
      </trkpt>
      <trkpt lat="44.34478" lon="6.85808">
        <ele>2593</ele>
        <time>2021-05-09T11:42:30.000Z</time>
      </trkpt>
      <trkpt lat="44.34478" lon="6.85808">
        <ele>2593</ele>
        <time>2021-05-09T11:42:32.000Z</time>
      </trkpt>
      <trkpt lat="44.34477" lon="6.85808">
        <ele>2593</ele>
        <time>2021-05-09T11:42:45.000Z</time>
      </trkpt>
      <trkpt lat="44.34478" lon="6.85809">
        <ele>2593</ele>
        <time>2021-05-09T11:42:49.000Z</time>
      </trkpt>
      <trkpt lat="44.34477" lon="6.85806">
        <ele>2593.1999511719</ele>
        <time>2021-05-09T11:42:53.000Z</time>
      </trkpt>
      <trkpt lat="44.34477" lon="6.85806">
        <ele>2593.3999023438</ele>
        <time>2021-05-09T11:42:54.000Z</time>
      </trkpt>
      <trkpt lat="44.34476" lon="6.85805">
        <ele>2593.8000488281</ele>
        <time>2021-05-09T11:42:56.000Z</time>
      </trkpt>
      <trkpt lat="44.34475" lon="6.858">
        <ele>2594.1999511719</ele>
        <time>2021-05-09T11:43:00.000Z</time>
      </trkpt>
      <trkpt lat="44.34474" lon="6.85799">
        <ele>2594.3999023438</ele>
        <time>2021-05-09T11:43:02.000Z</time>
      </trkpt>
      <trkpt lat="44.34473" lon="6.85796">
        <ele>2594.8000488281</ele>
        <time>2021-05-09T11:43:04.000Z</time>
      </trkpt>
      <trkpt lat="44.34472" lon="6.85795">
        <ele>2595.3999023438</ele>
        <time>2021-05-09T11:43:07.000Z</time>
      </trkpt>
      <trkpt lat="44.34472" lon="6.85794">
        <ele>2595.6000976562</ele>
        <time>2021-05-09T11:43:08.000Z</time>
      </trkpt>
      <trkpt lat="44.34472" lon="6.85794">
        <ele>2596</ele>
        <time>2021-05-09T11:43:10.000Z</time>
      </trkpt>
      <trkpt lat="44.34473" lon="6.85794">
        <ele>2597.1999511719</ele>
        <time>2021-05-09T11:43:20.000Z</time>
      </trkpt>
      <trkpt lat="44.34473" lon="6.85795">
        <ele>2597.3999023438</ele>
        <time>2021-05-09T11:43:22.000Z</time>
      </trkpt>
      <trkpt lat="44.34473" lon="6.85799">
        <ele>2597.6000976562</ele>
        <time>2021-05-09T11:43:28.000Z</time>
      </trkpt>
      <trkpt lat="44.34472" lon="6.85804">
        <ele>2598.1999511719</ele>
        <time>2021-05-09T11:43:33.000Z</time>
      </trkpt>
      <trkpt lat="44.3447" lon="6.85807">
        <ele>2599.3999023438</ele>
        <time>2021-05-09T11:43:37.000Z</time>
      </trkpt>
      <trkpt lat="44.34473" lon="6.85805">
        <ele>2599.3999023438</ele>
        <time>2021-05-09T11:44:04.000Z</time>
      </trkpt>
      <trkpt lat="44.34472" lon="6.85804">
        <ele>2599.3999023438</ele>
        <time>2021-05-09T11:44:09.000Z</time>
      </trkpt>
      <trkpt lat="44.34473" lon="6.85805">
        <ele>2599.3999023438</ele>
        <time>2021-05-09T11:44:11.000Z</time>
      </trkpt>
      <trkpt lat="44.34473" lon="6.85804">
        <ele>2599.1999511719</ele>
        <time>2021-05-09T11:44:14.000Z</time>
      </trkpt>
      <trkpt lat="44.34471" lon="6.85801">
        <ele>2599</ele>
        <time>2021-05-09T11:44:19.000Z</time>
      </trkpt>
      <trkpt lat="44.34471" lon="6.85802">
        <ele>2598.6000976562</ele>
        <time>2021-05-09T11:44:25.000Z</time>
      </trkpt>
      <trkpt lat="44.34471" lon="6.85802">
        <ele>2598.6000976562</ele>
        <time>2021-05-09T11:44:31.000Z</time>
      </trkpt>
      <trkpt lat="44.3447" lon="6.85802">
        <ele>2598.8000488281</ele>
        <time>2021-05-09T11:44:37.000Z</time>
      </trkpt>
      <trkpt lat="44.3447" lon="6.85803">
        <ele>2599</ele>
        <time>2021-05-09T11:44:42.000Z</time>
      </trkpt>
      <trkpt lat="44.34471" lon="6.85801">
        <ele>2599</ele>
        <time>2021-05-09T11:44:50.000Z</time>
      </trkpt>
      <trkpt lat="44.34471" lon="6.85801">
        <ele>2599</ele>
        <time>2021-05-09T11:44:51.000Z</time>
      </trkpt>
      <trkpt lat="44.3447" lon="6.85801">
        <ele>2599</ele>
        <time>2021-05-09T11:44:53.000Z</time>
      </trkpt>
      <trkpt lat="44.3447" lon="6.85801">
        <ele>2599</ele>
        <time>2021-05-09T11:44:54.000Z</time>
      </trkpt>
      <trkpt lat="44.34468" lon="6.85801">
        <ele>2599</ele>
        <time>2021-05-09T11:44:56.000Z</time>
      </trkpt>
      <trkpt lat="44.34468" lon="6.85802">
        <ele>2599</ele>
        <time>2021-05-09T11:44:59.000Z</time>
      </trkpt>
      <trkpt lat="44.34468" lon="6.85804">
        <ele>2599</ele>
        <time>2021-05-09T11:45:00.000Z</time>
      </trkpt>
      <trkpt lat="44.34468" lon="6.85804">
        <ele>2599</ele>
        <time>2021-05-09T11:45:01.000Z</time>
      </trkpt>
      <trkpt lat="44.34468" lon="6.85808">
        <ele>2599.1999511719</ele>
        <time>2021-05-09T11:45:03.000Z</time>
      </trkpt>
      <trkpt lat="44.34468" lon="6.85813">
        <ele>2599.6000976562</ele>
        <time>2021-05-09T11:45:06.000Z</time>
      </trkpt>
      <trkpt lat="44.34468" lon="6.85816">
        <ele>2600.1999511719</ele>
        <time>2021-05-09T11:45:08.000Z</time>
      </trkpt>
      <trkpt lat="44.34468" lon="6.85816">
        <ele>2600.6000976562</ele>
        <time>2021-05-09T11:45:09.000Z</time>
      </trkpt>
      <trkpt lat="44.34467" lon="6.85821">
        <ele>2601.1999511719</ele>
        <time>2021-05-09T11:45:11.000Z</time>
      </trkpt>
      <trkpt lat="44.34466" lon="6.85822">
        <ele>2601.8000488281</ele>
        <time>2021-05-09T11:45:13.000Z</time>
      </trkpt>
      <trkpt lat="44.34466" lon="6.85824">
        <ele>2602</ele>
        <time>2021-05-09T11:45:15.000Z</time>
      </trkpt>
      <trkpt lat="44.34466" lon="6.85824">
        <ele>2602.1999511719</ele>
        <time>2021-05-09T11:45:20.000Z</time>
      </trkpt>
      <trkpt lat="44.34462" lon="6.8582">
        <ele>2602</ele>
        <time>2021-05-09T11:45:32.000Z</time>
      </trkpt>
      <trkpt lat="44.3446" lon="6.85816">
        <ele>2602.6000976562</ele>
        <time>2021-05-09T11:45:36.000Z</time>
      </trkpt>
      <trkpt lat="44.3446" lon="6.85816">
        <ele>2602.8000488281</ele>
        <time>2021-05-09T11:45:37.000Z</time>
      </trkpt>
      <trkpt lat="44.3446" lon="6.85816">
        <ele>2602.8000488281</ele>
        <time>2021-05-09T11:45:38.000Z</time>
      </trkpt>
      <trkpt lat="44.3446" lon="6.85813">
        <ele>2603.3999023438</ele>
        <time>2021-05-09T11:45:47.000Z</time>
      </trkpt>
      <trkpt lat="44.34459" lon="6.85811">
        <ele>2603.8000488281</ele>
        <time>2021-05-09T11:45:50.000Z</time>
      </trkpt>
      <trkpt lat="44.34458" lon="6.8581">
        <ele>2604</ele>
        <time>2021-05-09T11:45:51.000Z</time>
      </trkpt>
      <trkpt lat="44.34457" lon="6.85808">
        <ele>2604.8000488281</ele>
        <time>2021-05-09T11:45:55.000Z</time>
      </trkpt>
      <trkpt lat="44.34457" lon="6.85808">
        <ele>2605.3999023438</ele>
        <time>2021-05-09T11:46:02.000Z</time>
      </trkpt>
      <trkpt lat="44.34456" lon="6.85805">
        <ele>2606.1999511719</ele>
        <time>2021-05-09T11:46:18.000Z</time>
      </trkpt>
      <trkpt lat="44.34455" lon="6.85803">
        <ele>2607.1999511719</ele>
        <time>2021-05-09T11:46:29.000Z</time>
      </trkpt>
      <trkpt lat="44.34453" lon="6.85799">
        <ele>2608.3999023438</ele>
        <time>2021-05-09T11:46:34.000Z</time>
      </trkpt>
      <trkpt lat="44.34451" lon="6.85797">
        <ele>2609.1999511719</ele>
        <time>2021-05-09T11:46:39.000Z</time>
      </trkpt>
      <trkpt lat="44.3445" lon="6.85796">
        <ele>2609.6000976562</ele>
        <time>2021-05-09T11:46:42.000Z</time>
      </trkpt>
      <trkpt lat="44.3445" lon="6.85795">
        <ele>2610.3999023438</ele>
        <time>2021-05-09T11:46:51.000Z</time>
      </trkpt>
      <trkpt lat="44.3445" lon="6.85796">
        <ele>2609.8000488281</ele>
        <time>2021-05-09T11:46:56.000Z</time>
      </trkpt>
      <trkpt lat="44.3445" lon="6.85795">
        <ele>2609.8000488281</ele>
        <time>2021-05-09T11:47:02.000Z</time>
      </trkpt>
      <trkpt lat="44.3445" lon="6.85796">
        <ele>2610</ele>
        <time>2021-05-09T11:47:07.000Z</time>
      </trkpt>
      <trkpt lat="44.34452" lon="6.85801">
        <ele>2610.1999511719</ele>
        <time>2021-05-09T11:47:19.000Z</time>
      </trkpt>
      <trkpt lat="44.34452" lon="6.85805">
        <ele>2610.6000976562</ele>
        <time>2021-05-09T11:47:29.000Z</time>
      </trkpt>
      <trkpt lat="44.34451" lon="6.8581">
        <ele>2611.6000976562</ele>
        <time>2021-05-09T11:47:35.000Z</time>
      </trkpt>
      <trkpt lat="44.3445" lon="6.85812">
        <ele>2612.1999511719</ele>
        <time>2021-05-09T11:47:38.000Z</time>
      </trkpt>
      <trkpt lat="44.3445" lon="6.85813">
        <ele>2612.8000488281</ele>
        <time>2021-05-09T11:47:40.000Z</time>
      </trkpt>
      <trkpt lat="44.34449" lon="6.85816">
        <ele>2613.3999023438</ele>
        <time>2021-05-09T11:47:44.000Z</time>
      </trkpt>
      <trkpt lat="44.34449" lon="6.85817">
        <ele>2613.8000488281</ele>
        <time>2021-05-09T11:47:47.000Z</time>
      </trkpt>
      <trkpt lat="44.34449" lon="6.85826">
        <ele>2614.8000488281</ele>
        <time>2021-05-09T11:47:55.000Z</time>
      </trkpt>
      <trkpt lat="44.34447" lon="6.85829">
        <ele>2615.1999511719</ele>
        <time>2021-05-09T11:48:08.000Z</time>
      </trkpt>
      <trkpt lat="44.34446" lon="6.85832">
        <ele>2616</ele>
        <time>2021-05-09T11:48:13.000Z</time>
      </trkpt>
      <trkpt lat="44.34446" lon="6.85838">
        <ele>2617.1999511719</ele>
        <time>2021-05-09T11:48:19.000Z</time>
      </trkpt>
      <trkpt lat="44.34446" lon="6.85843">
        <ele>2618.3999023438</ele>
        <time>2021-05-09T11:48:24.000Z</time>
      </trkpt>
      <trkpt lat="44.34445" lon="6.85851">
        <ele>2619.1999511719</ele>
        <time>2021-05-09T11:48:31.000Z</time>
      </trkpt>
      <trkpt lat="44.34445" lon="6.85851">
        <ele>2619.3999023438</ele>
        <time>2021-05-09T11:48:32.000Z</time>
      </trkpt>
      <trkpt lat="44.34445" lon="6.85856">
        <ele>2620.6000976562</ele>
        <time>2021-05-09T11:48:37.000Z</time>
      </trkpt>
      <trkpt lat="44.34445" lon="6.85858">
        <ele>2621.6000976562</ele>
        <time>2021-05-09T11:48:42.000Z</time>
      </trkpt>
      <trkpt lat="44.34445" lon="6.85866">
        <ele>2622.6000976562</ele>
        <time>2021-05-09T11:49:03.000Z</time>
      </trkpt>
      <trkpt lat="44.34444" lon="6.85862">
        <ele>2623</ele>
        <time>2021-05-09T11:49:27.000Z</time>
      </trkpt>
      <trkpt lat="44.34441" lon="6.8586">
        <ele>2623.3999023438</ele>
        <time>2021-05-09T11:49:38.000Z</time>
      </trkpt>
      <trkpt lat="44.34441" lon="6.8586">
        <ele>2623.6000976562</ele>
        <time>2021-05-09T11:49:39.000Z</time>
      </trkpt>
      <trkpt lat="44.3444" lon="6.85859">
        <ele>2623.6000976562</ele>
        <time>2021-05-09T11:49:40.000Z</time>
      </trkpt>
      <trkpt lat="44.3444" lon="6.85861">
        <ele>2624.3999023438</ele>
        <time>2021-05-09T11:49:56.000Z</time>
      </trkpt>
      <trkpt lat="44.3444" lon="6.85861">
        <ele>2624.8000488281</ele>
        <time>2021-05-09T11:49:58.000Z</time>
      </trkpt>
      <trkpt lat="44.3444" lon="6.85861">
        <ele>2624.6000976562</ele>
        <time>2021-05-09T11:50:04.000Z</time>
      </trkpt>
      <trkpt lat="44.34439" lon="6.8586">
        <ele>2624.3999023438</ele>
        <time>2021-05-09T11:50:08.000Z</time>
      </trkpt>
      <trkpt lat="44.34439" lon="6.85861">
        <ele>2624.6000976562</ele>
        <time>2021-05-09T11:50:16.000Z</time>
      </trkpt>
      <trkpt lat="44.34439" lon="6.85861">
        <ele>2624.6000976562</ele>
        <time>2021-05-09T11:50:20.000Z</time>
      </trkpt>
      <trkpt lat="44.34437" lon="6.85859">
        <ele>2624.3999023438</ele>
        <time>2021-05-09T11:50:33.000Z</time>
      </trkpt>
      <trkpt lat="44.34434" lon="6.85857">
        <ele>2624.6000976562</ele>
        <time>2021-05-09T11:50:37.000Z</time>
      </trkpt>
      <trkpt lat="44.34433" lon="6.85856">
        <ele>2624.8000488281</ele>
        <time>2021-05-09T11:50:39.000Z</time>
      </trkpt>
      <trkpt lat="44.34431" lon="6.85854">
        <ele>2625.1999511719</ele>
        <time>2021-05-09T11:50:43.000Z</time>
      </trkpt>
      <trkpt lat="44.3443" lon="6.85851">
        <ele>2625.6000976562</ele>
        <time>2021-05-09T11:50:45.000Z</time>
      </trkpt>
      <trkpt lat="44.3443" lon="6.85851">
        <ele>2625.8000488281</ele>
        <time>2021-05-09T11:50:46.000Z</time>
      </trkpt>
      <trkpt lat="44.34429" lon="6.85848">
        <ele>2626.3999023438</ele>
        <time>2021-05-09T11:50:49.000Z</time>
      </trkpt>
      <trkpt lat="44.34429" lon="6.85844">
        <ele>2627</ele>
        <time>2021-05-09T11:50:51.000Z</time>
      </trkpt>
      <trkpt lat="44.34427" lon="6.85837">
        <ele>2628</ele>
        <time>2021-05-09T11:50:58.000Z</time>
      </trkpt>
      <trkpt lat="44.34426" lon="6.85835">
        <ele>2628.3999023438</ele>
        <time>2021-05-09T11:51:00.000Z</time>
      </trkpt>
      <trkpt lat="44.34426" lon="6.85833">
        <ele>2629</ele>
        <time>2021-05-09T11:51:05.000Z</time>
      </trkpt>
      <trkpt lat="44.34427" lon="6.85835">
        <ele>2628.8000488281</ele>
        <time>2021-05-09T11:51:12.000Z</time>
      </trkpt>
      <trkpt lat="44.34428" lon="6.85835">
        <ele>2629</ele>
        <time>2021-05-09T11:51:16.000Z</time>
      </trkpt>
      <trkpt lat="44.34429" lon="6.85835">
        <ele>2629</ele>
        <time>2021-05-09T11:51:27.000Z</time>
      </trkpt>
      <trkpt lat="44.34434" lon="6.8584">
        <ele>2629.6000976562</ele>
        <time>2021-05-09T11:51:37.000Z</time>
      </trkpt>
      <trkpt lat="44.34431" lon="6.85839">
        <ele>2629.6000976562</ele>
        <time>2021-05-09T11:51:50.000Z</time>
      </trkpt>
      <trkpt lat="44.34431" lon="6.85838">
        <ele>2629.8000488281</ele>
        <time>2021-05-09T11:51:57.000Z</time>
      </trkpt>
      <trkpt lat="44.34431" lon="6.8584">
        <ele>2629.8000488281</ele>
        <time>2021-05-09T11:52:02.000Z</time>
      </trkpt>
      <trkpt lat="44.34432" lon="6.8584">
        <ele>2630</ele>
        <time>2021-05-09T11:52:11.000Z</time>
      </trkpt>
      <trkpt lat="44.34431" lon="6.85841">
        <ele>2630.1999511719</ele>
        <time>2021-05-09T11:52:14.000Z</time>
      </trkpt>
      <trkpt lat="44.3443" lon="6.85842">
        <ele>2630.6000976562</ele>
        <time>2021-05-09T11:52:17.000Z</time>
      </trkpt>
      <trkpt lat="44.3443" lon="6.85846">
        <ele>2631.1999511719</ele>
        <time>2021-05-09T11:52:24.000Z</time>
      </trkpt>
      <trkpt lat="44.34432" lon="6.85853">
        <ele>2632</ele>
        <time>2021-05-09T11:52:27.000Z</time>
      </trkpt>
      <trkpt lat="44.34432" lon="6.85855">
        <ele>2632.3999023438</ele>
        <time>2021-05-09T11:52:29.000Z</time>
      </trkpt>
      <trkpt lat="44.34432" lon="6.85859">
        <ele>2633.6000976562</ele>
        <time>2021-05-09T11:52:34.000Z</time>
      </trkpt>
      <trkpt lat="44.34431" lon="6.85862">
        <ele>2634.1999511719</ele>
        <time>2021-05-09T11:52:41.000Z</time>
      </trkpt>
      <trkpt lat="44.34431" lon="6.85862">
        <ele>2634.1999511719</ele>
        <time>2021-05-09T11:52:45.000Z</time>
      </trkpt>
      <trkpt lat="44.3443" lon="6.85865">
        <ele>2634.6000976562</ele>
        <time>2021-05-09T11:52:51.000Z</time>
      </trkpt>
      <trkpt lat="44.34429" lon="6.85869">
        <ele>2635.8000488281</ele>
        <time>2021-05-09T11:52:57.000Z</time>
      </trkpt>
      <trkpt lat="44.34429" lon="6.85876">
        <ele>2637</ele>
        <time>2021-05-09T11:53:03.000Z</time>
      </trkpt>
      <trkpt lat="44.34427" lon="6.85883">
        <ele>2637.8000488281</ele>
        <time>2021-05-09T11:53:10.000Z</time>
      </trkpt>
      <trkpt lat="44.34427" lon="6.85883">
        <ele>2638</ele>
        <time>2021-05-09T11:53:11.000Z</time>
      </trkpt>
      <trkpt lat="44.34425" lon="6.85891">
        <ele>2639</ele>
        <time>2021-05-09T11:53:24.000Z</time>
      </trkpt>
      <trkpt lat="44.34424" lon="6.85891">
        <ele>2639.3999023438</ele>
        <time>2021-05-09T11:53:26.000Z</time>
      </trkpt>
      <trkpt lat="44.34424" lon="6.85891">
        <ele>2639.8000488281</ele>
        <time>2021-05-09T11:53:28.000Z</time>
      </trkpt>
      <trkpt lat="44.34424" lon="6.85891">
        <ele>2640.1999511719</ele>
        <time>2021-05-09T11:53:36.000Z</time>
      </trkpt>
      <trkpt lat="44.34426" lon="6.8589">
        <ele>2640.3999023438</ele>
        <time>2021-05-09T11:53:41.000Z</time>
      </trkpt>
      <trkpt lat="44.34427" lon="6.85889">
        <ele>2640.3999023438</ele>
        <time>2021-05-09T11:53:42.000Z</time>
      </trkpt>
      <trkpt lat="44.34427" lon="6.85888">
        <ele>2640.3999023438</ele>
        <time>2021-05-09T11:53:43.000Z</time>
      </trkpt>
      <trkpt lat="44.34427" lon="6.85887">
        <ele>2640.3999023438</ele>
        <time>2021-05-09T11:53:45.000Z</time>
      </trkpt>
      <trkpt lat="44.34426" lon="6.85886">
        <ele>2640</ele>
        <time>2021-05-09T11:53:56.000Z</time>
      </trkpt>
      <trkpt lat="44.34426" lon="6.85886">
        <ele>2640</ele>
        <time>2021-05-09T11:54:03.000Z</time>
      </trkpt>
      <trkpt lat="44.34426" lon="6.85884">
        <ele>2640.1999511719</ele>
        <time>2021-05-09T11:54:18.000Z</time>
      </trkpt>
      <trkpt lat="44.34426" lon="6.85884">
        <ele>2640</ele>
        <time>2021-05-09T11:54:25.000Z</time>
      </trkpt>
      <trkpt lat="44.3442" lon="6.85883">
        <ele>2641.1999511719</ele>
        <time>2021-05-09T11:54:37.000Z</time>
      </trkpt>
      <trkpt lat="44.3442" lon="6.85883">
        <ele>2641.1999511719</ele>
        <time>2021-05-09T11:54:38.000Z</time>
      </trkpt>
      <trkpt lat="44.34419" lon="6.85884">
        <ele>2642</ele>
        <time>2021-05-09T11:54:45.000Z</time>
      </trkpt>
      <trkpt lat="44.34418" lon="6.85882">
        <ele>2642</ele>
        <time>2021-05-09T11:54:51.000Z</time>
      </trkpt>
      <trkpt lat="44.34416" lon="6.85882">
        <ele>2642.3999023438</ele>
        <time>2021-05-09T11:54:53.000Z</time>
      </trkpt>
      <trkpt lat="44.34415" lon="6.85881">
        <ele>2643</ele>
        <time>2021-05-09T11:54:55.000Z</time>
      </trkpt>
      <trkpt lat="44.34414" lon="6.85879">
        <ele>2643.1999511719</ele>
        <time>2021-05-09T11:54:57.000Z</time>
      </trkpt>
      <trkpt lat="44.34414" lon="6.85879">
        <ele>2643.3999023438</ele>
        <time>2021-05-09T11:54:58.000Z</time>
      </trkpt>
      <trkpt lat="44.34412" lon="6.85878">
        <ele>2644.1999511719</ele>
        <time>2021-05-09T11:55:02.000Z</time>
      </trkpt>
      <trkpt lat="44.34411" lon="6.85878">
        <ele>2644.6000976562</ele>
        <time>2021-05-09T11:55:03.000Z</time>
      </trkpt>
      <trkpt lat="44.3441" lon="6.85877">
        <ele>2644.8000488281</ele>
        <time>2021-05-09T11:55:04.000Z</time>
      </trkpt>
      <trkpt lat="44.34409" lon="6.85876">
        <ele>2645.3999023438</ele>
        <time>2021-05-09T11:55:06.000Z</time>
      </trkpt>
      <trkpt lat="44.34409" lon="6.85875">
        <ele>2645.6000976562</ele>
        <time>2021-05-09T11:55:07.000Z</time>
      </trkpt>
      <trkpt lat="44.34408" lon="6.85872">
        <ele>2646.3999023438</ele>
        <time>2021-05-09T11:55:12.000Z</time>
      </trkpt>
      <trkpt lat="44.34408" lon="6.85872">
        <ele>2646.6000976562</ele>
        <time>2021-05-09T11:55:19.000Z</time>
      </trkpt>
      <trkpt lat="44.34409" lon="6.85874">
        <ele>2646.3999023438</ele>
        <time>2021-05-09T11:55:26.000Z</time>
      </trkpt>
      <trkpt lat="44.34409" lon="6.85875">
        <ele>2646.3999023438</ele>
        <time>2021-05-09T11:55:33.000Z</time>
      </trkpt>
      <trkpt lat="44.34409" lon="6.85876">
        <ele>2646.6000976562</ele>
        <time>2021-05-09T11:55:38.000Z</time>
      </trkpt>
      <trkpt lat="44.34409" lon="6.85877">
        <ele>2647.1999511719</ele>
        <time>2021-05-09T11:55:47.000Z</time>
      </trkpt>
      <trkpt lat="44.34409" lon="6.85877">
        <ele>2647.3999023438</ele>
        <time>2021-05-09T11:55:48.000Z</time>
      </trkpt>
      <trkpt lat="44.34409" lon="6.8588">
        <ele>2647.8000488281</ele>
        <time>2021-05-09T11:55:50.000Z</time>
      </trkpt>
      <trkpt lat="44.3441" lon="6.85883">
        <ele>2648.6000976562</ele>
        <time>2021-05-09T11:55:57.000Z</time>
      </trkpt>
      <trkpt lat="44.3441" lon="6.85884">
        <ele>2648.8000488281</ele>
        <time>2021-05-09T11:55:59.000Z</time>
      </trkpt>
      <trkpt lat="44.34408" lon="6.85888">
        <ele>2649.8000488281</ele>
        <time>2021-05-09T11:56:09.000Z</time>
      </trkpt>
      <trkpt lat="44.34408" lon="6.85892">
        <ele>2651</ele>
        <time>2021-05-09T11:56:19.000Z</time>
      </trkpt>
      <trkpt lat="44.34407" lon="6.85897">
        <ele>2652</ele>
        <time>2021-05-09T11:56:37.000Z</time>
      </trkpt>
      <trkpt lat="44.34408" lon="6.85899">
        <ele>2653</ele>
        <time>2021-05-09T11:56:45.000Z</time>
      </trkpt>
      <trkpt lat="44.34407" lon="6.859">
        <ele>2653.8000488281</ele>
        <time>2021-05-09T11:57:15.000Z</time>
      </trkpt>
      <trkpt lat="44.34407" lon="6.859">
        <ele>2654.1999511719</ele>
        <time>2021-05-09T11:57:20.000Z</time>
      </trkpt>
      <trkpt lat="44.34403" lon="6.859">
        <ele>2655.1999511719</ele>
        <time>2021-05-09T11:57:32.000Z</time>
      </trkpt>
      <trkpt lat="44.34402" lon="6.85899">
        <ele>2656.1999511719</ele>
        <time>2021-05-09T11:57:39.000Z</time>
      </trkpt>
      <trkpt lat="44.34398" lon="6.85898">
        <ele>2657.3999023438</ele>
        <time>2021-05-09T11:57:48.000Z</time>
      </trkpt>
      <trkpt lat="44.34396" lon="6.85897">
        <ele>2658.6000976562</ele>
        <time>2021-05-09T11:57:54.000Z</time>
      </trkpt>
      <trkpt lat="44.34393" lon="6.85897">
        <ele>2659</ele>
        <time>2021-05-09T11:58:02.000Z</time>
      </trkpt>
      <trkpt lat="44.34392" lon="6.85896">
        <ele>2659.1999511719</ele>
        <time>2021-05-09T11:58:03.000Z</time>
      </trkpt>
      <trkpt lat="44.3439" lon="6.85894">
        <ele>2659.3999023438</ele>
        <time>2021-05-09T11:58:05.000Z</time>
      </trkpt>
      <trkpt lat="44.3439" lon="6.85893">
        <ele>2659.6000976562</ele>
        <time>2021-05-09T11:58:06.000Z</time>
      </trkpt>
      <trkpt lat="44.3439" lon="6.85893">
        <ele>2660</ele>
        <time>2021-05-09T11:58:07.000Z</time>
      </trkpt>
      <trkpt lat="44.3439" lon="6.85893">
        <ele>2660.8000488281</ele>
        <time>2021-05-09T11:58:11.000Z</time>
      </trkpt>
      <trkpt lat="44.34386" lon="6.8589">
        <ele>2660.6000976562</ele>
        <time>2021-05-09T11:58:17.000Z</time>
      </trkpt>
      <trkpt lat="44.34385" lon="6.85888">
        <ele>2660.6000976562</ele>
        <time>2021-05-09T11:58:19.000Z</time>
      </trkpt>
      <trkpt lat="44.34384" lon="6.85886">
        <ele>2660.8000488281</ele>
        <time>2021-05-09T11:58:22.000Z</time>
      </trkpt>
      <trkpt lat="44.34383" lon="6.85885">
        <ele>2661</ele>
        <time>2021-05-09T11:58:23.000Z</time>
      </trkpt>
      <trkpt lat="44.34383" lon="6.85884">
        <ele>2662</ele>
        <time>2021-05-09T11:58:26.000Z</time>
      </trkpt>
      <trkpt lat="44.34383" lon="6.85884">
        <ele>2662.3999023438</ele>
        <time>2021-05-09T11:58:27.000Z</time>
      </trkpt>
      <trkpt lat="44.34386" lon="6.85887">
        <ele>2663</ele>
        <time>2021-05-09T11:58:43.000Z</time>
      </trkpt>
      <trkpt lat="44.34385" lon="6.85894">
        <ele>2664.1999511719</ele>
        <time>2021-05-09T11:58:49.000Z</time>
      </trkpt>
      <trkpt lat="44.34382" lon="6.85898">
        <ele>2665.1999511719</ele>
        <time>2021-05-09T11:58:57.000Z</time>
      </trkpt>
      <trkpt lat="44.34377" lon="6.85894">
        <ele>2666.3999023438</ele>
        <time>2021-05-09T11:59:09.000Z</time>
      </trkpt>
      <trkpt lat="44.34377" lon="6.85894">
        <ele>2666.3999023438</ele>
        <time>2021-05-09T11:59:18.000Z</time>
      </trkpt>
      <trkpt lat="44.34376" lon="6.85895">
        <ele>2666.3999023438</ele>
        <time>2021-05-09T11:59:30.000Z</time>
      </trkpt>
      <trkpt lat="44.34376" lon="6.85895">
        <ele>2666</ele>
        <time>2021-05-09T11:59:40.000Z</time>
      </trkpt>
      <trkpt lat="44.34376" lon="6.85894">
        <ele>2666</ele>
        <time>2021-05-09T11:59:42.000Z</time>
      </trkpt>
      <trkpt lat="44.34377" lon="6.85894">
        <ele>2665.6000976562</ele>
        <time>2021-05-09T11:59:46.000Z</time>
      </trkpt>
      <trkpt lat="44.34377" lon="6.85893">
        <ele>2665.3999023438</ele>
        <time>2021-05-09T11:59:50.000Z</time>
      </trkpt>
      <trkpt lat="44.34377" lon="6.85892">
        <ele>2665.3999023438</ele>
        <time>2021-05-09T11:59:55.000Z</time>
      </trkpt>
      <trkpt lat="44.34375" lon="6.85893">
        <ele>2665.3999023438</ele>
        <time>2021-05-09T12:00:11.000Z</time>
      </trkpt>
      <trkpt lat="44.34376" lon="6.85894">
        <ele>2666.1999511719</ele>
        <time>2021-05-09T12:00:21.000Z</time>
      </trkpt>
      <trkpt lat="44.34376" lon="6.85894">
        <ele>2666.3999023438</ele>
        <time>2021-05-09T12:00:24.000Z</time>
      </trkpt>
      <trkpt lat="44.34376" lon="6.85895">
        <ele>2666.1999511719</ele>
        <time>2021-05-09T12:00:26.000Z</time>
      </trkpt>
      <trkpt lat="44.34377" lon="6.85892">
        <ele>2666</ele>
        <time>2021-05-09T12:00:33.000Z</time>
      </trkpt>
      <trkpt lat="44.34375" lon="6.85896">
        <ele>2666.1999511719</ele>
        <time>2021-05-09T12:00:55.000Z</time>
      </trkpt>
      <trkpt lat="44.34375" lon="6.85896">
        <ele>2666.3999023438</ele>
        <time>2021-05-09T12:00:56.000Z</time>
      </trkpt>
      <trkpt lat="44.34376" lon="6.85896">
        <ele>2666.8000488281</ele>
        <time>2021-05-09T12:01:02.000Z</time>
      </trkpt>
      <trkpt lat="44.34378" lon="6.85895">
        <ele>2667.6000976562</ele>
        <time>2021-05-09T12:01:11.000Z</time>
      </trkpt>
      <trkpt lat="44.34377" lon="6.85895">
        <ele>2667.3999023438</ele>
        <time>2021-05-09T12:01:26.000Z</time>
      </trkpt>
      <trkpt lat="44.34376" lon="6.85896">
        <ele>2668.6000976562</ele>
        <time>2021-05-09T12:01:39.000Z</time>
      </trkpt>
      <trkpt lat="44.34377" lon="6.85896">
        <ele>2668.1999511719</ele>
        <time>2021-05-09T12:01:48.000Z</time>
      </trkpt>
      <trkpt lat="44.34376" lon="6.85897">
        <ele>2668.1999511719</ele>
        <time>2021-05-09T12:01:50.000Z</time>
      </trkpt>
      <trkpt lat="44.34377" lon="6.85897">
        <ele>2667.6000976562</ele>
        <time>2021-05-09T12:01:54.000Z</time>
      </trkpt>
      <trkpt lat="44.34378" lon="6.85897">
        <ele>2667.3999023438</ele>
        <time>2021-05-09T12:01:56.000Z</time>
      </trkpt>
      <trkpt lat="44.34378" lon="6.85897">
        <ele>2667.3999023438</ele>
        <time>2021-05-09T12:01:57.000Z</time>
      </trkpt>
      <trkpt lat="44.34378" lon="6.85896">
        <ele>2667.6000976562</ele>
        <time>2021-05-09T12:01:58.000Z</time>
      </trkpt>
      <trkpt lat="44.34377" lon="6.85897">
        <ele>2667.3999023438</ele>
        <time>2021-05-09T12:02:01.000Z</time>
      </trkpt>
      <trkpt lat="44.34378" lon="6.85897">
        <ele>2667.3999023438</ele>
        <time>2021-05-09T12:02:04.000Z</time>
      </trkpt>
      <trkpt lat="44.34378" lon="6.85897">
        <ele>2667.3999023438</ele>
        <time>2021-05-09T12:02:06.000Z</time>
      </trkpt>
      <trkpt lat="44.34378" lon="6.85895">
        <ele>2667.3999023438</ele>
        <time>2021-05-09T12:02:08.000Z</time>
      </trkpt>
      <trkpt lat="44.34377" lon="6.85895">
        <ele>2667.3999023438</ele>
        <time>2021-05-09T12:02:10.000Z</time>
      </trkpt>
      <trkpt lat="44.34377" lon="6.85895">
        <ele>2667.1999511719</ele>
        <time>2021-05-09T12:02:22.000Z</time>
      </trkpt>
      <trkpt lat="44.34378" lon="6.85895">
        <ele>2667.8000488281</ele>
        <time>2021-05-09T12:02:31.000Z</time>
      </trkpt>
      <trkpt lat="44.34377" lon="6.85895">
        <ele>2668.3999023438</ele>
        <time>2021-05-09T12:02:34.000Z</time>
      </trkpt>
      <trkpt lat="44.34378" lon="6.85895">
        <ele>2668.3999023438</ele>
        <time>2021-05-09T12:02:38.000Z</time>
      </trkpt>
      <trkpt lat="44.34378" lon="6.85894">
        <ele>2667.3999023438</ele>
        <time>2021-05-09T12:02:46.000Z</time>
      </trkpt>
      <trkpt lat="44.34378" lon="6.85896">
        <ele>2667</ele>
        <time>2021-05-09T12:02:53.000Z</time>
      </trkpt>
      <trkpt lat="44.34378" lon="6.85897">
        <ele>2667.1999511719</ele>
        <time>2021-05-09T12:02:55.000Z</time>
      </trkpt>
      <trkpt lat="44.34378" lon="6.85897">
        <ele>2667</ele>
        <time>2021-05-09T12:02:56.000Z</time>
      </trkpt>
      <trkpt lat="44.34377" lon="6.85895">
        <ele>2667.1999511719</ele>
        <time>2021-05-09T12:03:08.000Z</time>
      </trkpt>
      <trkpt lat="44.34377" lon="6.85894">
        <ele>2666.6000976562</ele>
        <time>2021-05-09T12:03:14.000Z</time>
      </trkpt>
      <trkpt lat="44.34377" lon="6.85894">
        <ele>2666.1999511719</ele>
        <time>2021-05-09T12:03:18.000Z</time>
      </trkpt>
      <trkpt lat="44.34375" lon="6.85895">
        <ele>2666.3999023438</ele>
        <time>2021-05-09T12:03:25.000Z</time>
      </trkpt>
      <trkpt lat="44.34377" lon="6.85895">
        <ele>2665.8000488281</ele>
        <time>2021-05-09T12:03:36.000Z</time>
      </trkpt>
      <trkpt lat="44.34377" lon="6.85895">
        <ele>2665.8000488281</ele>
        <time>2021-05-09T12:03:37.000Z</time>
      </trkpt>
      <trkpt lat="44.34377" lon="6.85895">
        <ele>2665.6000976562</ele>
        <time>2021-05-09T12:03:46.000Z</time>
      </trkpt>
      <trkpt lat="44.34377" lon="6.85895">
        <ele>2666</ele>
        <time>2021-05-09T12:04:05.000Z</time>
      </trkpt>
      <trkpt lat="44.34377" lon="6.85896">
        <ele>2665.8000488281</ele>
        <time>2021-05-09T12:04:16.000Z</time>
      </trkpt>
      <trkpt lat="44.34377" lon="6.85896">
        <ele>2665.8000488281</ele>
        <time>2021-05-09T12:04:20.000Z</time>
      </trkpt>
      <trkpt lat="44.34377" lon="6.85896">
        <ele>2666</ele>
        <time>2021-05-09T12:04:22.000Z</time>
      </trkpt>
      <trkpt lat="44.34377" lon="6.85895">
        <ele>2666</ele>
        <time>2021-05-09T12:04:28.000Z</time>
      </trkpt>
      <trkpt lat="44.34378" lon="6.85896">
        <ele>2666.1999511719</ele>
        <time>2021-05-09T12:04:33.000Z</time>
      </trkpt>
      <trkpt lat="44.34377" lon="6.85895">
        <ele>2666.3999023438</ele>
        <time>2021-05-09T12:04:38.000Z</time>
      </trkpt>
      <trkpt lat="44.34376" lon="6.85895">
        <ele>2666.6000976562</ele>
        <time>2021-05-09T12:04:52.000Z</time>
      </trkpt>
      <trkpt lat="44.34376" lon="6.85895">
        <ele>2667.1999511719</ele>
        <time>2021-05-09T12:04:57.000Z</time>
      </trkpt>
      <trkpt lat="44.34377" lon="6.85896">
        <ele>2667.1999511719</ele>
        <time>2021-05-09T12:05:03.000Z</time>
      </trkpt>
      <trkpt lat="44.34378" lon="6.85897">
        <ele>2667.1999511719</ele>
        <time>2021-05-09T12:05:04.000Z</time>
      </trkpt>
      <trkpt lat="44.34378" lon="6.85897">
        <ele>2667.1999511719</ele>
        <time>2021-05-09T12:05:06.000Z</time>
      </trkpt>
      <trkpt lat="44.34379" lon="6.85897">
        <ele>2667</ele>
        <time>2021-05-09T12:05:08.000Z</time>
      </trkpt>
      <trkpt lat="44.3438" lon="6.85897">
        <ele>2666.8000488281</ele>
        <time>2021-05-09T12:05:12.000Z</time>
      </trkpt>
      <trkpt lat="44.34381" lon="6.85897">
        <ele>2666.8000488281</ele>
        <time>2021-05-09T12:05:15.000Z</time>
      </trkpt>
      <trkpt lat="44.3438" lon="6.85897">
        <ele>2667.1999511719</ele>
        <time>2021-05-09T12:05:22.000Z</time>
      </trkpt>
      <trkpt lat="44.3438" lon="6.85897">
        <ele>2667.6000976562</ele>
        <time>2021-05-09T12:05:25.000Z</time>
      </trkpt>
      <trkpt lat="44.3438" lon="6.85897">
        <ele>2667.6000976562</ele>
        <time>2021-05-09T12:05:26.000Z</time>
      </trkpt>
      <trkpt lat="44.3438" lon="6.85896">
        <ele>2666.3999023438</ele>
        <time>2021-05-09T12:05:45.000Z</time>
      </trkpt>
      <trkpt lat="44.3438" lon="6.85895">
        <ele>2666.3999023438</ele>
        <time>2021-05-09T12:05:52.000Z</time>
      </trkpt>
      <trkpt lat="44.34379" lon="6.85896">
        <ele>2666.3999023438</ele>
        <time>2021-05-09T12:06:02.000Z</time>
      </trkpt>
      <trkpt lat="44.34378" lon="6.85896">
        <ele>2666.3999023438</ele>
        <time>2021-05-09T12:06:16.000Z</time>
      </trkpt>
      <trkpt lat="44.34377" lon="6.85894">
        <ele>2666.3999023438</ele>
        <time>2021-05-09T12:06:23.000Z</time>
      </trkpt>
      <trkpt lat="44.34373" lon="6.85888">
        <ele>2666.8000488281</ele>
        <time>2021-05-09T12:06:28.000Z</time>
      </trkpt>
      <trkpt lat="44.34372" lon="6.85886">
        <ele>2667.6000976562</ele>
        <time>2021-05-09T12:06:31.000Z</time>
      </trkpt>
      <trkpt lat="44.34372" lon="6.85886">
        <ele>2668.8000488281</ele>
        <time>2021-05-09T12:06:33.000Z</time>
      </trkpt>
      <trkpt lat="44.34372" lon="6.85886">
        <ele>2668</ele>
        <time>2021-05-09T12:06:42.000Z</time>
      </trkpt>
      <trkpt lat="44.34372" lon="6.85886">
        <ele>2667.8000488281</ele>
        <time>2021-05-09T12:06:59.000Z</time>
      </trkpt>
      <trkpt lat="44.34372" lon="6.85886">
        <ele>2667.6000976562</ele>
        <time>2021-05-09T12:07:04.000Z</time>
      </trkpt>
      <trkpt lat="44.34372" lon="6.85885">
        <ele>2669</ele>
        <time>2021-05-09T12:07:08.000Z</time>
      </trkpt>
      <trkpt lat="44.34372" lon="6.85882">
        <ele>2670.1999511719</ele>
        <time>2021-05-09T12:07:11.000Z</time>
      </trkpt>
      <trkpt lat="44.34373" lon="6.85874">
        <ele>2669.3999023438</ele>
        <time>2021-05-09T12:07:18.000Z</time>
      </trkpt>
      <trkpt lat="44.34373" lon="6.85873">
        <ele>2669.3999023438</ele>
        <time>2021-05-09T12:07:19.000Z</time>
      </trkpt>
      <trkpt lat="44.34373" lon="6.85869">
        <ele>2669.8000488281</ele>
        <time>2021-05-09T12:07:22.000Z</time>
      </trkpt>
      <trkpt lat="44.34374" lon="6.85866">
        <ele>2670.6000976562</ele>
        <time>2021-05-09T12:07:25.000Z</time>
      </trkpt>
      <trkpt lat="44.34374" lon="6.85864">
        <ele>2670.8000488281</ele>
        <time>2021-05-09T12:07:27.000Z</time>
      </trkpt>
      <trkpt lat="44.34375" lon="6.85861">
        <ele>2671.1999511719</ele>
        <time>2021-05-09T12:07:30.000Z</time>
      </trkpt>
      <trkpt lat="44.34375" lon="6.85857">
        <ele>2672.3999023438</ele>
        <time>2021-05-09T12:07:34.000Z</time>
      </trkpt>
      <trkpt lat="44.34376" lon="6.85853">
        <ele>2673.8000488281</ele>
        <time>2021-05-09T12:07:40.000Z</time>
      </trkpt>
      <trkpt lat="44.34374" lon="6.85852">
        <ele>2674.8000488281</ele>
        <time>2021-05-09T12:07:45.000Z</time>
      </trkpt>
      <trkpt lat="44.34374" lon="6.85852">
        <ele>2675</ele>
        <time>2021-05-09T12:07:47.000Z</time>
      </trkpt>
      <trkpt lat="44.34372" lon="6.85851">
        <ele>2676.1999511719</ele>
        <time>2021-05-09T12:07:51.000Z</time>
      </trkpt>
      <trkpt lat="44.34374" lon="6.85852">
        <ele>2676</ele>
        <time>2021-05-09T12:08:03.000Z</time>
      </trkpt>
      <trkpt lat="44.34375" lon="6.85851">
        <ele>2675.1999511719</ele>
        <time>2021-05-09T12:08:07.000Z</time>
      </trkpt>
      <trkpt lat="44.34375" lon="6.85845">
        <ele>2676.1999511719</ele>
        <time>2021-05-09T12:08:16.000Z</time>
      </trkpt>
      <trkpt lat="44.34375" lon="6.85842">
        <ele>2676.6000976562</ele>
        <time>2021-05-09T12:08:21.000Z</time>
      </trkpt>
      <trkpt lat="44.34375" lon="6.85841">
        <ele>2676.6000976562</ele>
        <time>2021-05-09T12:08:22.000Z</time>
      </trkpt>
      <trkpt lat="44.34375" lon="6.8584">
        <ele>2676.6000976562</ele>
        <time>2021-05-09T12:08:23.000Z</time>
      </trkpt>
      <trkpt lat="44.34374" lon="6.85839">
        <ele>2676.8000488281</ele>
        <time>2021-05-09T12:08:24.000Z</time>
      </trkpt>
      <trkpt lat="44.34374" lon="6.85836">
        <ele>2677.1999511719</ele>
        <time>2021-05-09T12:08:28.000Z</time>
      </trkpt>
      <trkpt lat="44.34374" lon="6.85835">
        <ele>2677.3999023438</ele>
        <time>2021-05-09T12:08:29.000Z</time>
      </trkpt>
      <trkpt lat="44.34371" lon="6.85834">
        <ele>2678.3999023438</ele>
        <time>2021-05-09T12:08:34.000Z</time>
      </trkpt>
      <trkpt lat="44.34371" lon="6.85833">
        <ele>2679.1999511719</ele>
        <time>2021-05-09T12:08:36.000Z</time>
      </trkpt>
      <trkpt lat="44.3437" lon="6.85832">
        <ele>2679.8000488281</ele>
        <time>2021-05-09T12:08:38.000Z</time>
      </trkpt>
      <trkpt lat="44.34367" lon="6.85828">
        <ele>2678.3999023438</ele>
        <time>2021-05-09T12:08:45.000Z</time>
      </trkpt>
      <trkpt lat="44.34363" lon="6.85818">
        <ele>2679.1999511719</ele>
        <time>2021-05-09T12:08:59.000Z</time>
      </trkpt>
      <trkpt lat="44.34362" lon="6.85816">
        <ele>2679.3999023438</ele>
        <time>2021-05-09T12:09:14.000Z</time>
      </trkpt>
      <trkpt lat="44.3436" lon="6.85816">
        <ele>2679.8000488281</ele>
        <time>2021-05-09T12:09:26.000Z</time>
      </trkpt>
      <trkpt lat="44.34362" lon="6.85816">
        <ele>2680</ele>
        <time>2021-05-09T12:09:33.000Z</time>
      </trkpt>
      <trkpt lat="44.34361" lon="6.85816">
        <ele>2680</ele>
        <time>2021-05-09T12:09:37.000Z</time>
      </trkpt>
      <trkpt lat="44.34362" lon="6.85814">
        <ele>2680</ele>
        <time>2021-05-09T12:09:48.000Z</time>
      </trkpt>
      <trkpt lat="44.34363" lon="6.85815">
        <ele>2680</ele>
        <time>2021-05-09T12:09:50.000Z</time>
      </trkpt>
      <trkpt lat="44.34361" lon="6.85815">
        <ele>2679.8000488281</ele>
        <time>2021-05-09T12:09:55.000Z</time>
      </trkpt>
      <trkpt lat="44.34361" lon="6.85815">
        <ele>2679.8000488281</ele>
        <time>2021-05-09T12:09:57.000Z</time>
      </trkpt>
      <trkpt lat="44.34362" lon="6.85815">
        <ele>2680</ele>
        <time>2021-05-09T12:10:05.000Z</time>
      </trkpt>
      <trkpt lat="44.34362" lon="6.85816">
        <ele>2680.6000976562</ele>
        <time>2021-05-09T12:10:08.000Z</time>
      </trkpt>
      <trkpt lat="44.34365" lon="6.85816">
        <ele>2680.8000488281</ele>
        <time>2021-05-09T12:10:19.000Z</time>
      </trkpt>
      <trkpt lat="44.34365" lon="6.85815">
        <ele>2680.8000488281</ele>
        <time>2021-05-09T12:10:20.000Z</time>
      </trkpt>
      <trkpt lat="44.34365" lon="6.85815">
        <ele>2681</ele>
        <time>2021-05-09T12:10:21.000Z</time>
      </trkpt>
      <trkpt lat="44.34365" lon="6.85815">
        <ele>2680.8000488281</ele>
        <time>2021-05-09T12:10:24.000Z</time>
      </trkpt>
      <trkpt lat="44.34364" lon="6.85815">
        <ele>2679.8000488281</ele>
        <time>2021-05-09T12:10:33.000Z</time>
      </trkpt>
      <trkpt lat="44.34364" lon="6.85815">
        <ele>2679.8000488281</ele>
        <time>2021-05-09T12:10:36.000Z</time>
      </trkpt>
      <trkpt lat="44.34364" lon="6.85815">
        <ele>2679.8000488281</ele>
        <time>2021-05-09T12:10:42.000Z</time>
      </trkpt>
      <trkpt lat="44.34363" lon="6.85815">
        <ele>2679.8000488281</ele>
        <time>2021-05-09T12:10:44.000Z</time>
      </trkpt>
      <trkpt lat="44.34363" lon="6.85815">
        <ele>2680</ele>
        <time>2021-05-09T12:10:46.000Z</time>
      </trkpt>
      <trkpt lat="44.34364" lon="6.85815">
        <ele>2680</ele>
        <time>2021-05-09T12:10:54.000Z</time>
      </trkpt>
      <trkpt lat="44.34365" lon="6.85814">
        <ele>2680</ele>
        <time>2021-05-09T12:11:03.000Z</time>
      </trkpt>
      <trkpt lat="44.34363" lon="6.85815">
        <ele>2680.3999023438</ele>
        <time>2021-05-09T12:11:16.000Z</time>
      </trkpt>
      <trkpt lat="44.34364" lon="6.85815">
        <ele>2680.3999023438</ele>
        <time>2021-05-09T12:11:20.000Z</time>
      </trkpt>
      <trkpt lat="44.34364" lon="6.85815">
        <ele>2680.8000488281</ele>
        <time>2021-05-09T12:11:52.000Z</time>
      </trkpt>
      <trkpt lat="44.34363" lon="6.85814">
        <ele>2680.8000488281</ele>
        <time>2021-05-09T12:12:20.000Z</time>
      </trkpt>
      <trkpt lat="44.34363" lon="6.85814">
        <ele>2680.8000488281</ele>
        <time>2021-05-09T12:12:23.000Z</time>
      </trkpt>
      <trkpt lat="44.34366" lon="6.85814">
        <ele>2680.8000488281</ele>
        <time>2021-05-09T12:12:48.000Z</time>
      </trkpt>
      <trkpt lat="44.34367" lon="6.85813">
        <ele>2680.8000488281</ele>
        <time>2021-05-09T12:12:53.000Z</time>
      </trkpt>
      <trkpt lat="44.34365" lon="6.85814">
        <ele>2680.8000488281</ele>
        <time>2021-05-09T12:13:03.000Z</time>
      </trkpt>
      <trkpt lat="44.34363" lon="6.85814">
        <ele>2680.8000488281</ele>
        <time>2021-05-09T12:13:11.000Z</time>
      </trkpt>
      <trkpt lat="44.34363" lon="6.85814">
        <ele>2680.8000488281</ele>
        <time>2021-05-09T12:13:16.000Z</time>
      </trkpt>
      <trkpt lat="44.34363" lon="6.85815">
        <ele>2680.8000488281</ele>
        <time>2021-05-09T12:13:19.000Z</time>
      </trkpt>
      <trkpt lat="44.34363" lon="6.85815">
        <ele>2680.8000488281</ele>
        <time>2021-05-09T12:13:22.000Z</time>
      </trkpt>
      <trkpt lat="44.34362" lon="6.85816">
        <ele>2680.8000488281</ele>
        <time>2021-05-09T12:13:38.000Z</time>
      </trkpt>
      <trkpt lat="44.34362" lon="6.85816">
        <ele>2680.8000488281</ele>
        <time>2021-05-09T12:14:04.000Z</time>
      </trkpt>
      <trkpt lat="44.34363" lon="6.85816">
        <ele>2680.8000488281</ele>
        <time>2021-05-09T12:14:07.000Z</time>
      </trkpt>
      <trkpt lat="44.34363" lon="6.85816">
        <ele>2680.8000488281</ele>
        <time>2021-05-09T12:14:40.000Z</time>
      </trkpt>
      <trkpt lat="44.34363" lon="6.85816">
        <ele>2680.8000488281</ele>
        <time>2021-05-09T12:14:55.000Z</time>
      </trkpt>
      <trkpt lat="44.34363" lon="6.85816">
        <ele>2680.8000488281</ele>
        <time>2021-05-09T12:15:13.000Z</time>
      </trkpt>
      <trkpt lat="44.34364" lon="6.85816">
        <ele>2680.8000488281</ele>
        <time>2021-05-09T12:15:31.000Z</time>
      </trkpt>
      <trkpt lat="44.34364" lon="6.85814">
        <ele>2680.8000488281</ele>
        <time>2021-05-09T12:16:05.000Z</time>
      </trkpt>
      <trkpt lat="44.34363" lon="6.85815">
        <ele>2680.8000488281</ele>
        <time>2021-05-09T12:16:08.000Z</time>
      </trkpt>
      <trkpt lat="44.34362" lon="6.85815">
        <ele>2680.8000488281</ele>
        <time>2021-05-09T12:16:24.000Z</time>
      </trkpt>
      <trkpt lat="44.34363" lon="6.85815">
        <ele>2680.8000488281</ele>
        <time>2021-05-09T12:16:29.000Z</time>
      </trkpt>
      <trkpt lat="44.34365" lon="6.85815">
        <ele>2680.8000488281</ele>
        <time>2021-05-09T12:16:33.000Z</time>
      </trkpt>
      <trkpt lat="44.34365" lon="6.85816">
        <ele>2680.8000488281</ele>
        <time>2021-05-09T12:16:41.000Z</time>
      </trkpt>
      <trkpt lat="44.34365" lon="6.85817">
        <ele>2680.8000488281</ele>
        <time>2021-05-09T12:16:46.000Z</time>
      </trkpt>
      <trkpt lat="44.34366" lon="6.85818">
        <ele>2680.8000488281</ele>
        <time>2021-05-09T12:17:52.000Z</time>
      </trkpt>
      <trkpt lat="44.34366" lon="6.85815">
        <ele>2680.8000488281</ele>
        <time>2021-05-09T12:18:30.000Z</time>
      </trkpt>
      <trkpt lat="44.34367" lon="6.85815">
        <ele>2680.8000488281</ele>
        <time>2021-05-09T12:18:34.000Z</time>
      </trkpt>
      <trkpt lat="44.34367" lon="6.85814">
        <ele>2680.8000488281</ele>
        <time>2021-05-09T12:18:38.000Z</time>
      </trkpt>
      <trkpt lat="44.34368" lon="6.85814">
        <ele>2680.8000488281</ele>
        <time>2021-05-09T12:18:47.000Z</time>
      </trkpt>
      <trkpt lat="44.34364" lon="6.85815">
        <ele>2680.8000488281</ele>
        <time>2021-05-09T12:19:17.000Z</time>
      </trkpt>
      <trkpt lat="44.34364" lon="6.85815">
        <ele>2680.8000488281</ele>
        <time>2021-05-09T12:19:29.000Z</time>
      </trkpt>
      <trkpt lat="44.34364" lon="6.85815">
        <ele>2680.8000488281</ele>
        <time>2021-05-09T12:19:39.000Z</time>
      </trkpt>
      <trkpt lat="44.34368" lon="6.85817">
        <ele>2680.8000488281</ele>
        <time>2021-05-09T12:20:31.000Z</time>
      </trkpt>
      <trkpt lat="44.34366" lon="6.85816">
        <ele>2680.8000488281</ele>
        <time>2021-05-09T12:20:49.000Z</time>
      </trkpt>
      <trkpt lat="44.34365" lon="6.85816">
        <ele>2680.8000488281</ele>
        <time>2021-05-09T12:21:07.000Z</time>
      </trkpt>
      <trkpt lat="44.34363" lon="6.85815">
        <ele>2680.8000488281</ele>
        <time>2021-05-09T12:21:15.000Z</time>
      </trkpt>
      <trkpt lat="44.34363" lon="6.85815">
        <ele>2680.8000488281</ele>
        <time>2021-05-09T12:21:19.000Z</time>
      </trkpt>
      <trkpt lat="44.34363" lon="6.85815">
        <ele>2680.8000488281</ele>
        <time>2021-05-09T12:21:34.000Z</time>
      </trkpt>
      <trkpt lat="44.34362" lon="6.85817">
        <ele>2680.8000488281</ele>
        <time>2021-05-09T12:21:43.000Z</time>
      </trkpt>
      <trkpt lat="44.34364" lon="6.85818">
        <ele>2680.8000488281</ele>
        <time>2021-05-09T12:21:48.000Z</time>
      </trkpt>
      <trkpt lat="44.34364" lon="6.85819">
        <ele>2680.8000488281</ele>
        <time>2021-05-09T12:21:50.000Z</time>
      </trkpt>
      <trkpt lat="44.34363" lon="6.85817">
        <ele>2680.8000488281</ele>
        <time>2021-05-09T12:21:59.000Z</time>
      </trkpt>
      <trkpt lat="44.34364" lon="6.85816">
        <ele>2680.8000488281</ele>
        <time>2021-05-09T12:22:08.000Z</time>
      </trkpt>
      <trkpt lat="44.34364" lon="6.85817">
        <ele>2680.8000488281</ele>
        <time>2021-05-09T12:22:18.000Z</time>
      </trkpt>
      <trkpt lat="44.34362" lon="6.85817">
        <ele>2680.8000488281</ele>
        <time>2021-05-09T12:22:24.000Z</time>
      </trkpt>
      <trkpt lat="44.34362" lon="6.85818">
        <ele>2684.6000976562</ele>
        <time>2021-05-09T12:22:32.000Z</time>
      </trkpt>
      <trkpt lat="44.34362" lon="6.85818">
        <ele>2683.6000976562</ele>
        <time>2021-05-09T12:22:33.000Z</time>
      </trkpt>
      <trkpt lat="44.34361" lon="6.85818">
        <ele>2680.8000488281</ele>
        <time>2021-05-09T12:22:36.000Z</time>
      </trkpt>
      <trkpt lat="44.34362" lon="6.85818">
        <ele>2681.8000488281</ele>
        <time>2021-05-09T12:22:38.000Z</time>
      </trkpt>
      <trkpt lat="44.34362" lon="6.85817">
        <ele>2681.8000488281</ele>
        <time>2021-05-09T12:22:49.000Z</time>
      </trkpt>
      <trkpt lat="44.34362" lon="6.85816">
        <ele>2682.3999023438</ele>
        <time>2021-05-09T12:23:02.000Z</time>
      </trkpt>
      <trkpt lat="44.34362" lon="6.85816">
        <ele>2682.3999023438</ele>
        <time>2021-05-09T12:23:03.000Z</time>
      </trkpt>
      <trkpt lat="44.34362" lon="6.85816">
        <ele>2682.1999511719</ele>
        <time>2021-05-09T12:23:22.000Z</time>
      </trkpt>
      <trkpt lat="44.34362" lon="6.85814">
        <ele>2682.8000488281</ele>
        <time>2021-05-09T12:23:27.000Z</time>
      </trkpt>
      <trkpt lat="44.34362" lon="6.85815">
        <ele>2682.8000488281</ele>
        <time>2021-05-09T12:23:37.000Z</time>
      </trkpt>
      <trkpt lat="44.34362" lon="6.85815">
        <ele>2682.8000488281</ele>
        <time>2021-05-09T12:23:55.000Z</time>
      </trkpt>
      <trkpt lat="44.34361" lon="6.85813">
        <ele>2682.6000976562</ele>
        <time>2021-05-09T12:24:04.000Z</time>
      </trkpt>
      <trkpt lat="44.3436" lon="6.85811">
        <ele>2682.6000976562</ele>
        <time>2021-05-09T12:24:09.000Z</time>
      </trkpt>
      <trkpt lat="44.3436" lon="6.85811">
        <ele>2682.3999023438</ele>
        <time>2021-05-09T12:24:10.000Z</time>
      </trkpt>
      <trkpt lat="44.34359" lon="6.85807">
        <ele>2682.6000976562</ele>
        <time>2021-05-09T12:24:15.000Z</time>
      </trkpt>
      <trkpt lat="44.34358" lon="6.85806">
        <ele>2682.6000976562</ele>
        <time>2021-05-09T12:24:18.000Z</time>
      </trkpt>
      <trkpt lat="44.34358" lon="6.85802">
        <ele>2682.6000976562</ele>
        <time>2021-05-09T12:24:29.000Z</time>
      </trkpt>
      <trkpt lat="44.34358" lon="6.85801">
        <ele>2683</ele>
        <time>2021-05-09T12:24:37.000Z</time>
      </trkpt>
      <trkpt lat="44.34358" lon="6.85797">
        <ele>2682.3999023438</ele>
        <time>2021-05-09T12:24:44.000Z</time>
      </trkpt>
      <trkpt lat="44.34357" lon="6.85793">
        <ele>2683</ele>
        <time>2021-05-09T12:24:53.000Z</time>
      </trkpt>
      <trkpt lat="44.34357" lon="6.85787">
        <ele>2684.1999511719</ele>
        <time>2021-05-09T12:25:01.000Z</time>
      </trkpt>
      <trkpt lat="44.34357" lon="6.85784">
        <ele>2685.1999511719</ele>
        <time>2021-05-09T12:25:07.000Z</time>
      </trkpt>
      <trkpt lat="44.34358" lon="6.8578">
        <ele>2684.8000488281</ele>
        <time>2021-05-09T12:25:18.000Z</time>
      </trkpt>
      <trkpt lat="44.34357" lon="6.85777">
        <ele>2686.1999511719</ele>
        <time>2021-05-09T12:25:29.000Z</time>
      </trkpt>
      <trkpt lat="44.34357" lon="6.85776">
        <ele>2686.3999023438</ele>
        <time>2021-05-09T12:25:30.000Z</time>
      </trkpt>
      <trkpt lat="44.34356" lon="6.85765">
        <ele>2687.1999511719</ele>
        <time>2021-05-09T12:25:45.000Z</time>
      </trkpt>
      <trkpt lat="44.34356" lon="6.85764">
        <ele>2687.3999023438</ele>
        <time>2021-05-09T12:25:46.000Z</time>
      </trkpt>
      <trkpt lat="44.34356" lon="6.85762">
        <ele>2688.3999023438</ele>
        <time>2021-05-09T12:25:54.000Z</time>
      </trkpt>
      <trkpt lat="44.34355" lon="6.85761">
        <ele>2688.6000976562</ele>
        <time>2021-05-09T12:25:55.000Z</time>
      </trkpt>
      <trkpt lat="44.34355" lon="6.8576">
        <ele>2688.8000488281</ele>
        <time>2021-05-09T12:25:56.000Z</time>
      </trkpt>
      <trkpt lat="44.34355" lon="6.85759">
        <ele>2689</ele>
        <time>2021-05-09T12:26:04.000Z</time>
      </trkpt>
      <trkpt lat="44.34355" lon="6.85759">
        <ele>2689.6000976562</ele>
        <time>2021-05-09T12:26:07.000Z</time>
      </trkpt>
      <trkpt lat="44.34354" lon="6.85758">
        <ele>2690</ele>
        <time>2021-05-09T12:26:09.000Z</time>
      </trkpt>
      <trkpt lat="44.34353" lon="6.85758">
        <ele>2690.6000976562</ele>
        <time>2021-05-09T12:26:11.000Z</time>
      </trkpt>
      <trkpt lat="44.34353" lon="6.85751">
        <ele>2691.3999023438</ele>
        <time>2021-05-09T12:26:35.000Z</time>
      </trkpt>
      <trkpt lat="44.34353" lon="6.8575">
        <ele>2691.3999023438</ele>
        <time>2021-05-09T12:26:36.000Z</time>
      </trkpt>
      <trkpt lat="44.34353" lon="6.85747">
        <ele>2691.8000488281</ele>
        <time>2021-05-09T12:26:40.000Z</time>
      </trkpt>
      <trkpt lat="44.34352" lon="6.85745">
        <ele>2693</ele>
        <time>2021-05-09T12:26:50.000Z</time>
      </trkpt>
      <trkpt lat="44.34353" lon="6.85743">
        <ele>2692.6000976562</ele>
        <time>2021-05-09T12:27:05.000Z</time>
      </trkpt>
      <trkpt lat="44.34353" lon="6.85743">
        <ele>2694</ele>
        <time>2021-05-09T12:27:11.000Z</time>
      </trkpt>
      <trkpt lat="44.34353" lon="6.85743">
        <ele>2694.6000976562</ele>
        <time>2021-05-09T12:27:17.000Z</time>
      </trkpt>
      <trkpt lat="44.34353" lon="6.85744">
        <ele>2694.8000488281</ele>
        <time>2021-05-09T12:27:20.000Z</time>
      </trkpt>
      <trkpt lat="44.34352" lon="6.85744">
        <ele>2694.6000976562</ele>
        <time>2021-05-09T12:27:24.000Z</time>
      </trkpt>
      <trkpt lat="44.34352" lon="6.85744">
        <ele>2695.1999511719</ele>
        <time>2021-05-09T12:27:33.000Z</time>
      </trkpt>
      <trkpt lat="44.34351" lon="6.85744">
        <ele>2696.3999023438</ele>
        <time>2021-05-09T12:27:38.000Z</time>
      </trkpt>
      <trkpt lat="44.34351" lon="6.85743">
        <ele>2696.6000976562</ele>
        <time>2021-05-09T12:27:40.000Z</time>
      </trkpt>
      <trkpt lat="44.34351" lon="6.8574">
        <ele>2697.6000976562</ele>
        <time>2021-05-09T12:27:44.000Z</time>
      </trkpt>
      <trkpt lat="44.34351" lon="6.85739">
        <ele>2698.6000976562</ele>
        <time>2021-05-09T12:27:50.000Z</time>
      </trkpt>
      <trkpt lat="44.34352" lon="6.85738">
        <ele>2698.8000488281</ele>
        <time>2021-05-09T12:27:53.000Z</time>
      </trkpt>
      <trkpt lat="44.34352" lon="6.85738">
        <ele>2699</ele>
        <time>2021-05-09T12:27:54.000Z</time>
      </trkpt>
      <trkpt lat="44.34351" lon="6.85736">
        <ele>2699</ele>
        <time>2021-05-09T12:28:00.000Z</time>
      </trkpt>
      <trkpt lat="44.34349" lon="6.85736">
        <ele>2699.1999511719</ele>
        <time>2021-05-09T12:28:05.000Z</time>
      </trkpt>
      <trkpt lat="44.34346" lon="6.85734">
        <ele>2697.1999511719</ele>
        <time>2021-05-09T12:28:11.000Z</time>
      </trkpt>
      <trkpt lat="44.34344" lon="6.85731">
        <ele>2698.3999023438</ele>
        <time>2021-05-09T12:28:21.000Z</time>
      </trkpt>
      <trkpt lat="44.34342" lon="6.85729">
        <ele>2699.3999023438</ele>
        <time>2021-05-09T12:28:27.000Z</time>
      </trkpt>
      <trkpt lat="44.34343" lon="6.85728">
        <ele>2699.8000488281</ele>
        <time>2021-05-09T12:28:28.000Z</time>
      </trkpt>
      <trkpt lat="44.34341" lon="6.85725">
        <ele>2700.1999511719</ele>
        <time>2021-05-09T12:28:33.000Z</time>
      </trkpt>
      <trkpt lat="44.34339" lon="6.85722">
        <ele>2700.1999511719</ele>
        <time>2021-05-09T12:29:11.000Z</time>
      </trkpt>
      <trkpt lat="44.34339" lon="6.85722">
        <ele>2700.1999511719</ele>
        <time>2021-05-09T12:29:14.000Z</time>
      </trkpt>
      <trkpt lat="44.34339" lon="6.85722">
        <ele>2700.1999511719</ele>
        <time>2021-05-09T12:29:18.000Z</time>
      </trkpt>
      <trkpt lat="44.34339" lon="6.85721">
        <ele>2700.1999511719</ele>
        <time>2021-05-09T12:29:20.000Z</time>
      </trkpt>
      <trkpt lat="44.34339" lon="6.85721">
        <ele>2700</ele>
        <time>2021-05-09T12:29:25.000Z</time>
      </trkpt>
      <trkpt lat="44.34338" lon="6.85721">
        <ele>2700</ele>
        <time>2021-05-09T12:29:27.000Z</time>
      </trkpt>
      <trkpt lat="44.34337" lon="6.8572">
        <ele>2700.1999511719</ele>
        <time>2021-05-09T12:29:30.000Z</time>
      </trkpt>
      <trkpt lat="44.34337" lon="6.85719">
        <ele>2700.3999023438</ele>
        <time>2021-05-09T12:29:32.000Z</time>
      </trkpt>
      <trkpt lat="44.34335" lon="6.85718">
        <ele>2700.8000488281</ele>
        <time>2021-05-09T12:29:38.000Z</time>
      </trkpt>
      <trkpt lat="44.34334" lon="6.85714">
        <ele>2702</ele>
        <time>2021-05-09T12:29:44.000Z</time>
      </trkpt>
      <trkpt lat="44.34333" lon="6.85712">
        <ele>2702.3999023438</ele>
        <time>2021-05-09T12:29:48.000Z</time>
      </trkpt>
      <trkpt lat="44.34332" lon="6.85711">
        <ele>2702.8000488281</ele>
        <time>2021-05-09T12:29:50.000Z</time>
      </trkpt>
      <trkpt lat="44.34332" lon="6.8571">
        <ele>2703</ele>
        <time>2021-05-09T12:29:51.000Z</time>
      </trkpt>
      <trkpt lat="44.3433" lon="6.85708">
        <ele>2703.6000976562</ele>
        <time>2021-05-09T12:29:54.000Z</time>
      </trkpt>
      <trkpt lat="44.34329" lon="6.85707">
        <ele>2704</ele>
        <time>2021-05-09T12:29:56.000Z</time>
      </trkpt>
      <trkpt lat="44.34328" lon="6.85703">
        <ele>2705</ele>
        <time>2021-05-09T12:30:02.000Z</time>
      </trkpt>
      <trkpt lat="44.34328" lon="6.857">
        <ele>2705.6000976562</ele>
        <time>2021-05-09T12:30:07.000Z</time>
      </trkpt>
      <trkpt lat="44.34327" lon="6.85699">
        <ele>2705.6000976562</ele>
        <time>2021-05-09T12:30:13.000Z</time>
      </trkpt>
      <trkpt lat="44.34327" lon="6.85699">
        <ele>2706.1999511719</ele>
        <time>2021-05-09T12:30:20.000Z</time>
      </trkpt>
      <trkpt lat="44.34327" lon="6.85695">
        <ele>2707</ele>
        <time>2021-05-09T12:30:26.000Z</time>
      </trkpt>
      <trkpt lat="44.34326" lon="6.85694">
        <ele>2707.1999511719</ele>
        <time>2021-05-09T12:30:28.000Z</time>
      </trkpt>
      <trkpt lat="44.34326" lon="6.85693">
        <ele>2707.3999023438</ele>
        <time>2021-05-09T12:30:29.000Z</time>
      </trkpt>
      <trkpt lat="44.34325" lon="6.85689">
        <ele>2708.1999511719</ele>
        <time>2021-05-09T12:30:36.000Z</time>
      </trkpt>
      <trkpt lat="44.34325" lon="6.85684">
        <ele>2709.1999511719</ele>
        <time>2021-05-09T12:30:44.000Z</time>
      </trkpt>
      <trkpt lat="44.34325" lon="6.85682">
        <ele>2710.1999511719</ele>
        <time>2021-05-09T12:30:48.000Z</time>
      </trkpt>
      <trkpt lat="44.34323" lon="6.85678">
        <ele>2711.6000976562</ele>
        <time>2021-05-09T12:30:54.000Z</time>
      </trkpt>
      <trkpt lat="44.34323" lon="6.85677">
        <ele>2712</ele>
        <time>2021-05-09T12:30:55.000Z</time>
      </trkpt>
      <trkpt lat="44.34323" lon="6.85676">
        <ele>2712</ele>
        <time>2021-05-09T12:30:56.000Z</time>
      </trkpt>
      <trkpt lat="44.34321" lon="6.8567">
        <ele>2712.8000488281</ele>
        <time>2021-05-09T12:31:06.000Z</time>
      </trkpt>
      <trkpt lat="44.3432" lon="6.85669">
        <ele>2714.1999511719</ele>
        <time>2021-05-09T12:31:09.000Z</time>
      </trkpt>
      <trkpt lat="44.34318" lon="6.85662">
        <ele>2715.1999511719</ele>
        <time>2021-05-09T12:31:27.000Z</time>
      </trkpt>
      <trkpt lat="44.34317" lon="6.85661">
        <ele>2715.1999511719</ele>
        <time>2021-05-09T12:31:28.000Z</time>
      </trkpt>
      <trkpt lat="44.34317" lon="6.85659">
        <ele>2715.1999511719</ele>
        <time>2021-05-09T12:31:30.000Z</time>
      </trkpt>
      <trkpt lat="44.34316" lon="6.85656">
        <ele>2716.3999023438</ele>
        <time>2021-05-09T12:31:34.000Z</time>
      </trkpt>
      <trkpt lat="44.34315" lon="6.85654">
        <ele>2717.6000976562</ele>
        <time>2021-05-09T12:31:37.000Z</time>
      </trkpt>
      <trkpt lat="44.34315" lon="6.8565">
        <ele>2717.8000488281</ele>
        <time>2021-05-09T12:31:43.000Z</time>
      </trkpt>
      <trkpt lat="44.34315" lon="6.85648">
        <ele>2718.8000488281</ele>
        <time>2021-05-09T12:31:49.000Z</time>
      </trkpt>
      <trkpt lat="44.34314" lon="6.85641">
        <ele>2719.8000488281</ele>
        <time>2021-05-09T12:32:03.000Z</time>
      </trkpt>
      <trkpt lat="44.34313" lon="6.85634">
        <ele>2720.8000488281</ele>
        <time>2021-05-09T12:32:16.000Z</time>
      </trkpt>
      <trkpt lat="44.34313" lon="6.85633">
        <ele>2721</ele>
        <time>2021-05-09T12:32:17.000Z</time>
      </trkpt>
      <trkpt lat="44.34312" lon="6.85632">
        <ele>2720.8000488281</ele>
        <time>2021-05-09T12:32:18.000Z</time>
      </trkpt>
      <trkpt lat="44.34312" lon="6.85631">
        <ele>2720.8000488281</ele>
        <time>2021-05-09T12:32:19.000Z</time>
      </trkpt>
      <trkpt lat="44.34312" lon="6.8563">
        <ele>2720.8000488281</ele>
        <time>2021-05-09T12:32:22.000Z</time>
      </trkpt>
      <trkpt lat="44.34312" lon="6.85629">
        <ele>2718.6000976562</ele>
        <time>2021-05-09T12:32:25.000Z</time>
      </trkpt>
      <trkpt lat="44.34312" lon="6.85629">
        <ele>2717.1999511719</ele>
        <time>2021-05-09T12:32:26.000Z</time>
      </trkpt>
      <trkpt lat="44.34312" lon="6.85629">
        <ele>2716</ele>
        <time>2021-05-09T12:32:27.000Z</time>
      </trkpt>
      <trkpt lat="44.34311" lon="6.85629">
        <ele>2715</ele>
        <time>2021-05-09T12:32:30.000Z</time>
      </trkpt>
      <trkpt lat="44.34311" lon="6.85629">
        <ele>2716</ele>
        <time>2021-05-09T12:32:31.000Z</time>
      </trkpt>
      <trkpt lat="44.34311" lon="6.85629">
        <ele>2717.8000488281</ele>
        <time>2021-05-09T12:32:32.000Z</time>
      </trkpt>
      <trkpt lat="44.34312" lon="6.8563">
        <ele>2719.3999023438</ele>
        <time>2021-05-09T12:32:33.000Z</time>
      </trkpt>
      <trkpt lat="44.34312" lon="6.8563">
        <ele>2720.6000976562</ele>
        <time>2021-05-09T12:32:34.000Z</time>
      </trkpt>
      <trkpt lat="44.34312" lon="6.85631">
        <ele>2720.6000976562</ele>
        <time>2021-05-09T12:32:39.000Z</time>
      </trkpt>
      <trkpt lat="44.34313" lon="6.85631">
        <ele>2719.3999023438</ele>
        <time>2021-05-09T12:32:44.000Z</time>
      </trkpt>
      <trkpt lat="44.34313" lon="6.85631">
        <ele>2718.6000976562</ele>
        <time>2021-05-09T12:32:49.000Z</time>
      </trkpt>
      <trkpt lat="44.34313" lon="6.85631">
        <ele>2719.6000976562</ele>
        <time>2021-05-09T12:32:51.000Z</time>
      </trkpt>
      <trkpt lat="44.34313" lon="6.85632">
        <ele>2720.8000488281</ele>
        <time>2021-05-09T12:32:53.000Z</time>
      </trkpt>
      <trkpt lat="44.34313" lon="6.85633">
        <ele>2721.8000488281</ele>
        <time>2021-05-09T12:32:55.000Z</time>
      </trkpt>
      <trkpt lat="44.34312" lon="6.85629">
        <ele>2720.8000488281</ele>
        <time>2021-05-09T12:33:03.000Z</time>
      </trkpt>
      <trkpt lat="44.34312" lon="6.85624">
        <ele>2722</ele>
        <time>2021-05-09T12:33:09.000Z</time>
      </trkpt>
      <trkpt lat="44.34312" lon="6.85621">
        <ele>2722</ele>
        <time>2021-05-09T12:33:11.000Z</time>
      </trkpt>
      <trkpt lat="44.34313" lon="6.85619">
        <ele>2722.3999023438</ele>
        <time>2021-05-09T12:33:14.000Z</time>
      </trkpt>
      <trkpt lat="44.34313" lon="6.85616">
        <ele>2722.8000488281</ele>
        <time>2021-05-09T12:33:16.000Z</time>
      </trkpt>
      <trkpt lat="44.34313" lon="6.85613">
        <ele>2723.8000488281</ele>
        <time>2021-05-09T12:33:20.000Z</time>
      </trkpt>
      <trkpt lat="44.34312" lon="6.8561">
        <ele>2725.3999023438</ele>
        <time>2021-05-09T12:33:24.000Z</time>
      </trkpt>
      <trkpt lat="44.34312" lon="6.85607">
        <ele>2726.3999023438</ele>
        <time>2021-05-09T12:33:27.000Z</time>
      </trkpt>
      <trkpt lat="44.34311" lon="6.85602">
        <ele>2727.6000976562</ele>
        <time>2021-05-09T12:33:32.000Z</time>
      </trkpt>
      <trkpt lat="44.34311" lon="6.85598">
        <ele>2729</ele>
        <time>2021-05-09T12:33:36.000Z</time>
      </trkpt>
      <trkpt lat="44.34311" lon="6.85594">
        <ele>2729.3999023438</ele>
        <time>2021-05-09T12:33:42.000Z</time>
      </trkpt>
      <trkpt lat="44.34311" lon="6.85592">
        <ele>2729.1999511719</ele>
        <time>2021-05-09T12:33:45.000Z</time>
      </trkpt>
      <trkpt lat="44.3431" lon="6.8559">
        <ele>2729.1999511719</ele>
        <time>2021-05-09T12:33:49.000Z</time>
      </trkpt>
      <trkpt lat="44.3431" lon="6.85588">
        <ele>2728</ele>
        <time>2021-05-09T12:33:53.000Z</time>
      </trkpt>
      <trkpt lat="44.3431" lon="6.85588">
        <ele>2727.8000488281</ele>
        <time>2021-05-09T12:33:54.000Z</time>
      </trkpt>
      <trkpt lat="44.34309" lon="6.85586">
        <ele>2726.8000488281</ele>
        <time>2021-05-09T12:33:59.000Z</time>
      </trkpt>
      <trkpt lat="44.34309" lon="6.85582">
        <ele>2728</ele>
        <time>2021-05-09T12:34:04.000Z</time>
      </trkpt>
      <trkpt lat="44.34308" lon="6.85581">
        <ele>2729</ele>
        <time>2021-05-09T12:34:07.000Z</time>
      </trkpt>
      <trkpt lat="44.34306" lon="6.85577">
        <ele>2729.6000976562</ele>
        <time>2021-05-09T12:34:14.000Z</time>
      </trkpt>
      <trkpt lat="44.34307" lon="6.85576">
        <ele>2729.1999511719</ele>
        <time>2021-05-09T12:34:16.000Z</time>
      </trkpt>
      <trkpt lat="44.34306" lon="6.85575">
        <ele>2729</ele>
        <time>2021-05-09T12:34:17.000Z</time>
      </trkpt>
      <trkpt lat="44.34305" lon="6.85574">
        <ele>2728.3999023438</ele>
        <time>2021-05-09T12:34:20.000Z</time>
      </trkpt>
      <trkpt lat="44.34304" lon="6.85573">
        <ele>2728.1999511719</ele>
        <time>2021-05-09T12:34:22.000Z</time>
      </trkpt>
      <trkpt lat="44.34303" lon="6.85572">
        <ele>2728.1999511719</ele>
        <time>2021-05-09T12:34:27.000Z</time>
      </trkpt>
      <trkpt lat="44.34303" lon="6.85572">
        <ele>2728</ele>
        <time>2021-05-09T12:34:28.000Z</time>
      </trkpt>
      <trkpt lat="44.343" lon="6.85572">
        <ele>2727</ele>
        <time>2021-05-09T12:34:34.000Z</time>
      </trkpt>
      <trkpt lat="44.34299" lon="6.85573">
        <ele>2727</ele>
        <time>2021-05-09T12:34:38.000Z</time>
      </trkpt>
      <trkpt lat="44.34304" lon="6.85571">
        <ele>2727.3999023438</ele>
        <time>2021-05-09T12:34:57.000Z</time>
      </trkpt>
      <trkpt lat="44.34304" lon="6.85572">
        <ele>2727.6000976562</ele>
        <time>2021-05-09T12:34:59.000Z</time>
      </trkpt>
      <trkpt lat="44.34303" lon="6.85572">
        <ele>2728</ele>
        <time>2021-05-09T12:35:01.000Z</time>
      </trkpt>
      <trkpt lat="44.34303" lon="6.85572">
        <ele>2728</ele>
        <time>2021-05-09T12:35:02.000Z</time>
      </trkpt>
      <trkpt lat="44.34303" lon="6.85571">
        <ele>2728.6000976562</ele>
        <time>2021-05-09T12:35:06.000Z</time>
      </trkpt>
      <trkpt lat="44.343" lon="6.85567">
        <ele>2728.6000976562</ele>
        <time>2021-05-09T12:35:11.000Z</time>
      </trkpt>
      <trkpt lat="44.34298" lon="6.85567">
        <ele>2729.1999511719</ele>
        <time>2021-05-09T12:35:15.000Z</time>
      </trkpt>
      <trkpt lat="44.34298" lon="6.85565">
        <ele>2728</ele>
        <time>2021-05-09T12:35:19.000Z</time>
      </trkpt>
      <trkpt lat="44.34298" lon="6.85563">
        <ele>2726.6000976562</ele>
        <time>2021-05-09T12:35:21.000Z</time>
      </trkpt>
      <trkpt lat="44.34298" lon="6.85561">
        <ele>2725.1999511719</ele>
        <time>2021-05-09T12:35:24.000Z</time>
      </trkpt>
      <trkpt lat="44.34298" lon="6.85555">
        <ele>2726.8000488281</ele>
        <time>2021-05-09T12:35:33.000Z</time>
      </trkpt>
      <trkpt lat="44.34297" lon="6.85554">
        <ele>2727.8000488281</ele>
        <time>2021-05-09T12:35:36.000Z</time>
      </trkpt>
      <trkpt lat="44.34298" lon="6.85554">
        <ele>2726.1999511719</ele>
        <time>2021-05-09T12:35:40.000Z</time>
      </trkpt>
      <trkpt lat="44.34298" lon="6.85554">
        <ele>2725</ele>
        <time>2021-05-09T12:35:42.000Z</time>
      </trkpt>
      <trkpt lat="44.34297" lon="6.85554">
        <ele>2724</ele>
        <time>2021-05-09T12:35:45.000Z</time>
      </trkpt>
      <trkpt lat="44.34297" lon="6.85554">
        <ele>2722.8000488281</ele>
        <time>2021-05-09T12:35:50.000Z</time>
      </trkpt>
      <trkpt lat="44.34297" lon="6.85554">
        <ele>2721.6000976562</ele>
        <time>2021-05-09T12:35:54.000Z</time>
      </trkpt>
      <trkpt lat="44.34296" lon="6.85553">
        <ele>2722.8000488281</ele>
        <time>2021-05-09T12:36:01.000Z</time>
      </trkpt>
      <trkpt lat="44.34296" lon="6.85553">
        <ele>2723.8000488281</ele>
        <time>2021-05-09T12:36:04.000Z</time>
      </trkpt>
      <trkpt lat="44.34296" lon="6.85553">
        <ele>2724</ele>
        <time>2021-05-09T12:36:06.000Z</time>
      </trkpt>
      <trkpt lat="44.34296" lon="6.85553">
        <ele>2724</ele>
        <time>2021-05-09T12:36:11.000Z</time>
      </trkpt>
      <trkpt lat="44.34296" lon="6.85554">
        <ele>2724</ele>
        <time>2021-05-09T12:36:15.000Z</time>
      </trkpt>
      <trkpt lat="44.34296" lon="6.85554">
        <ele>2723.8000488281</ele>
        <time>2021-05-09T12:36:16.000Z</time>
      </trkpt>
      <trkpt lat="44.34296" lon="6.85553">
        <ele>2723.1999511719</ele>
        <time>2021-05-09T12:36:23.000Z</time>
      </trkpt>
      <trkpt lat="44.34296" lon="6.85553">
        <ele>2723</ele>
        <time>2021-05-09T12:36:26.000Z</time>
      </trkpt>
      <trkpt lat="44.34296" lon="6.85553">
        <ele>2722.8000488281</ele>
        <time>2021-05-09T12:36:28.000Z</time>
      </trkpt>
      <trkpt lat="44.34296" lon="6.85553">
        <ele>2722.8000488281</ele>
        <time>2021-05-09T12:36:30.000Z</time>
      </trkpt>
      <trkpt lat="44.34297" lon="6.85554">
        <ele>2723.1999511719</ele>
        <time>2021-05-09T12:36:33.000Z</time>
      </trkpt>
      <trkpt lat="44.34296" lon="6.85553">
        <ele>2723.3999023438</ele>
        <time>2021-05-09T12:36:35.000Z</time>
      </trkpt>
      <trkpt lat="44.34296" lon="6.85553">
        <ele>2723.3999023438</ele>
        <time>2021-05-09T12:36:38.000Z</time>
      </trkpt>
      <trkpt lat="44.34296" lon="6.85553">
        <ele>2723.3999023438</ele>
        <time>2021-05-09T12:36:46.000Z</time>
      </trkpt>
      <trkpt lat="44.34295" lon="6.85554">
        <ele>2723.6000976562</ele>
        <time>2021-05-09T12:36:52.000Z</time>
      </trkpt>
      <trkpt lat="44.34295" lon="6.85554">
        <ele>2723.8000488281</ele>
        <time>2021-05-09T12:36:55.000Z</time>
      </trkpt>
      <trkpt lat="44.34294" lon="6.85553">
        <ele>2723.6000976562</ele>
        <time>2021-05-09T12:36:58.000Z</time>
      </trkpt>
      <trkpt lat="44.34294" lon="6.85553">
        <ele>2724</ele>
        <time>2021-05-09T12:37:05.000Z</time>
      </trkpt>
      <trkpt lat="44.34294" lon="6.85553">
        <ele>2723.6000976562</ele>
        <time>2021-05-09T12:37:18.000Z</time>
      </trkpt>
      <trkpt lat="44.34294" lon="6.85553">
        <ele>2723.3999023438</ele>
        <time>2021-05-09T12:37:19.000Z</time>
      </trkpt>
      <trkpt lat="44.34297" lon="6.85554">
        <ele>2723.3999023438</ele>
        <time>2021-05-09T12:37:30.000Z</time>
      </trkpt>
      <trkpt lat="44.34297" lon="6.85555">
        <ele>2723.6000976562</ele>
        <time>2021-05-09T12:37:39.000Z</time>
      </trkpt>
      <trkpt lat="44.34297" lon="6.85555">
        <ele>2722.8000488281</ele>
        <time>2021-05-09T12:37:44.000Z</time>
      </trkpt>
      <trkpt lat="44.34297" lon="6.85555">
        <ele>2722.8000488281</ele>
        <time>2021-05-09T12:37:45.000Z</time>
      </trkpt>
      <trkpt lat="44.34297" lon="6.85554">
        <ele>2723.1999511719</ele>
        <time>2021-05-09T12:37:53.000Z</time>
      </trkpt>
      <trkpt lat="44.34296" lon="6.85554">
        <ele>2723.1999511719</ele>
        <time>2021-05-09T12:37:54.000Z</time>
      </trkpt>
      <trkpt lat="44.34297" lon="6.85554">
        <ele>2723</ele>
        <time>2021-05-09T12:37:58.000Z</time>
      </trkpt>
      <trkpt lat="44.34298" lon="6.85554">
        <ele>2722.6000976562</ele>
        <time>2021-05-09T12:38:01.000Z</time>
      </trkpt>
      <trkpt lat="44.34299" lon="6.85554">
        <ele>2723.1999511719</ele>
        <time>2021-05-09T12:38:05.000Z</time>
      </trkpt>
      <trkpt lat="44.34298" lon="6.85554">
        <ele>2723.3999023438</ele>
        <time>2021-05-09T12:38:07.000Z</time>
      </trkpt>
      <trkpt lat="44.34298" lon="6.85554">
        <ele>2723.3999023438</ele>
        <time>2021-05-09T12:38:08.000Z</time>
      </trkpt>
      <trkpt lat="44.34297" lon="6.85554">
        <ele>2723.8000488281</ele>
        <time>2021-05-09T12:38:10.000Z</time>
      </trkpt>
      <trkpt lat="44.34296" lon="6.85554">
        <ele>2724</ele>
        <time>2021-05-09T12:38:11.000Z</time>
      </trkpt>
      <trkpt lat="44.34295" lon="6.85554">
        <ele>2724.1999511719</ele>
        <time>2021-05-09T12:38:12.000Z</time>
      </trkpt>
      <trkpt lat="44.34295" lon="6.85554">
        <ele>2724.3999023438</ele>
        <time>2021-05-09T12:38:13.000Z</time>
      </trkpt>
      <trkpt lat="44.34298" lon="6.85556">
        <ele>2724.3999023438</ele>
        <time>2021-05-09T12:38:18.000Z</time>
      </trkpt>
      <trkpt lat="44.34297" lon="6.85555">
        <ele>2724.3999023438</ele>
        <time>2021-05-09T12:38:20.000Z</time>
      </trkpt>
      <trkpt lat="44.34297" lon="6.85555">
        <ele>2724.6000976562</ele>
        <time>2021-05-09T12:38:23.000Z</time>
      </trkpt>
      <trkpt lat="44.34298" lon="6.85555">
        <ele>2724.6000976562</ele>
        <time>2021-05-09T12:38:25.000Z</time>
      </trkpt>
      <trkpt lat="44.34298" lon="6.85555">
        <ele>2724.3999023438</ele>
        <time>2021-05-09T12:38:28.000Z</time>
      </trkpt>
      <trkpt lat="44.34298" lon="6.85555">
        <ele>2724</ele>
        <time>2021-05-09T12:38:31.000Z</time>
      </trkpt>
      <trkpt lat="44.34298" lon="6.85555">
        <ele>2723</ele>
        <time>2021-05-09T12:38:35.000Z</time>
      </trkpt>
      <trkpt lat="44.34298" lon="6.85554">
        <ele>2724.8000488281</ele>
        <time>2021-05-09T12:38:51.000Z</time>
      </trkpt>
      <trkpt lat="44.34298" lon="6.85554">
        <ele>2725</ele>
        <time>2021-05-09T12:38:53.000Z</time>
      </trkpt>
      <trkpt lat="44.34298" lon="6.85554">
        <ele>2725</ele>
        <time>2021-05-09T12:39:00.000Z</time>
      </trkpt>
      <trkpt lat="44.34299" lon="6.85554">
        <ele>2725.1999511719</ele>
        <time>2021-05-09T12:39:02.000Z</time>
      </trkpt>
      <trkpt lat="44.34299" lon="6.85553">
        <ele>2725.3999023438</ele>
        <time>2021-05-09T12:39:06.000Z</time>
      </trkpt>
      <trkpt lat="44.343" lon="6.85554">
        <ele>2725.6000976562</ele>
        <time>2021-05-09T12:39:10.000Z</time>
      </trkpt>
      <trkpt lat="44.343" lon="6.85552">
        <ele>2724.6000976562</ele>
        <time>2021-05-09T12:39:26.000Z</time>
      </trkpt>
      <trkpt lat="44.343" lon="6.85551">
        <ele>2724.6000976562</ele>
        <time>2021-05-09T12:39:33.000Z</time>
      </trkpt>
      <trkpt lat="44.34299" lon="6.85551">
        <ele>2724.6000976562</ele>
        <time>2021-05-09T12:39:40.000Z</time>
      </trkpt>
      <trkpt lat="44.343" lon="6.85551">
        <ele>2724.6000976562</ele>
        <time>2021-05-09T12:39:43.000Z</time>
      </trkpt>
      <trkpt lat="44.343" lon="6.85552">
        <ele>2724.6000976562</ele>
        <time>2021-05-09T12:39:44.000Z</time>
      </trkpt>
      <trkpt lat="44.34301" lon="6.85551">
        <ele>2724.6000976562</ele>
        <time>2021-05-09T12:39:47.000Z</time>
      </trkpt>
      <trkpt lat="44.34301" lon="6.85552">
        <ele>2724.6000976562</ele>
        <time>2021-05-09T12:39:54.000Z</time>
      </trkpt>
      <trkpt lat="44.34301" lon="6.85552">
        <ele>2724.6000976562</ele>
        <time>2021-05-09T12:39:56.000Z</time>
      </trkpt>
      <trkpt lat="44.34301" lon="6.85552">
        <ele>2724.6000976562</ele>
        <time>2021-05-09T12:40:00.000Z</time>
      </trkpt>
      <trkpt lat="44.34301" lon="6.85552">
        <ele>2724.6000976562</ele>
        <time>2021-05-09T12:40:03.000Z</time>
      </trkpt>
      <trkpt lat="44.343" lon="6.85552">
        <ele>2724.6000976562</ele>
        <time>2021-05-09T12:40:12.000Z</time>
      </trkpt>
      <trkpt lat="44.34301" lon="6.85552">
        <ele>2724.6000976562</ele>
        <time>2021-05-09T12:40:13.000Z</time>
      </trkpt>
      <trkpt lat="44.34301" lon="6.85552">
        <ele>2724.6000976562</ele>
        <time>2021-05-09T12:40:15.000Z</time>
      </trkpt>
      <trkpt lat="44.34301" lon="6.85552">
        <ele>2724.6000976562</ele>
        <time>2021-05-09T12:40:16.000Z</time>
      </trkpt>
      <trkpt lat="44.34301" lon="6.85552">
        <ele>2724.6000976562</ele>
        <time>2021-05-09T12:40:17.000Z</time>
      </trkpt>
      <trkpt lat="44.34301" lon="6.85552">
        <ele>2724.6000976562</ele>
        <time>2021-05-09T12:40:21.000Z</time>
      </trkpt>
      <trkpt lat="44.34301" lon="6.85551">
        <ele>2724.6000976562</ele>
        <time>2021-05-09T12:40:25.000Z</time>
      </trkpt>
      <trkpt lat="44.34301" lon="6.85551">
        <ele>2724.6000976562</ele>
        <time>2021-05-09T12:40:27.000Z</time>
      </trkpt>
      <trkpt lat="44.34301" lon="6.85551">
        <ele>2724.6000976562</ele>
        <time>2021-05-09T12:40:30.000Z</time>
      </trkpt>
      <trkpt lat="44.34301" lon="6.85551">
        <ele>2724.6000976562</ele>
        <time>2021-05-09T12:40:36.000Z</time>
      </trkpt>
      <trkpt lat="44.34301" lon="6.85551">
        <ele>2724.6000976562</ele>
        <time>2021-05-09T12:40:49.000Z</time>
      </trkpt>
      <trkpt lat="44.34301" lon="6.85552">
        <ele>2724.6000976562</ele>
        <time>2021-05-09T12:40:52.000Z</time>
      </trkpt>
      <trkpt lat="44.34301" lon="6.85552">
        <ele>2724.6000976562</ele>
        <time>2021-05-09T12:40:54.000Z</time>
      </trkpt>
      <trkpt lat="44.34302" lon="6.85552">
        <ele>2724.6000976562</ele>
        <time>2021-05-09T12:40:56.000Z</time>
      </trkpt>
      <trkpt lat="44.34302" lon="6.85553">
        <ele>2724.6000976562</ele>
        <time>2021-05-09T12:41:00.000Z</time>
      </trkpt>
      <trkpt lat="44.34302" lon="6.85555">
        <ele>2724.6000976562</ele>
        <time>2021-05-09T12:41:08.000Z</time>
      </trkpt>
      <trkpt lat="44.34301" lon="6.85555">
        <ele>2724.6000976562</ele>
        <time>2021-05-09T12:41:12.000Z</time>
      </trkpt>
      <trkpt lat="44.34301" lon="6.85555">
        <ele>2724.6000976562</ele>
        <time>2021-05-09T12:41:14.000Z</time>
      </trkpt>
      <trkpt lat="44.343" lon="6.85554">
        <ele>2724.6000976562</ele>
        <time>2021-05-09T12:41:18.000Z</time>
      </trkpt>
      <trkpt lat="44.34297" lon="6.85554">
        <ele>2724.6000976562</ele>
        <time>2021-05-09T12:41:26.000Z</time>
      </trkpt>
      <trkpt lat="44.34298" lon="6.85555">
        <ele>2724.6000976562</ele>
        <time>2021-05-09T12:41:39.000Z</time>
      </trkpt>
      <trkpt lat="44.34298" lon="6.85555">
        <ele>2724.6000976562</ele>
        <time>2021-05-09T12:41:41.000Z</time>
      </trkpt>
      <trkpt lat="44.34296" lon="6.85555">
        <ele>2724.6000976562</ele>
        <time>2021-05-09T12:41:48.000Z</time>
      </trkpt>
      <trkpt lat="44.34295" lon="6.85553">
        <ele>2724.6000976562</ele>
        <time>2021-05-09T12:41:55.000Z</time>
      </trkpt>
      <trkpt lat="44.34295" lon="6.85553">
        <ele>2724.6000976562</ele>
        <time>2021-05-09T12:42:07.000Z</time>
      </trkpt>
      <trkpt lat="44.34296" lon="6.85553">
        <ele>2724.6000976562</ele>
        <time>2021-05-09T12:42:24.000Z</time>
      </trkpt>
      <trkpt lat="44.34296" lon="6.85553">
        <ele>2724.6000976562</ele>
        <time>2021-05-09T12:42:41.000Z</time>
      </trkpt>
      <trkpt lat="44.34296" lon="6.85553">
        <ele>2724.6000976562</ele>
        <time>2021-05-09T12:42:46.000Z</time>
      </trkpt>
      <trkpt lat="44.34297" lon="6.85553">
        <ele>2724.6000976562</ele>
        <time>2021-05-09T12:42:51.000Z</time>
      </trkpt>
      <trkpt lat="44.34297" lon="6.85553">
        <ele>2724.6000976562</ele>
        <time>2021-05-09T12:42:55.000Z</time>
      </trkpt>
      <trkpt lat="44.34297" lon="6.85553">
        <ele>2724.6000976562</ele>
        <time>2021-05-09T12:42:56.000Z</time>
      </trkpt>
      <trkpt lat="44.34297" lon="6.85553">
        <ele>2724.6000976562</ele>
        <time>2021-05-09T12:42:57.000Z</time>
      </trkpt>
      <trkpt lat="44.34297" lon="6.85554">
        <ele>2724.6000976562</ele>
        <time>2021-05-09T12:43:06.000Z</time>
      </trkpt>
      <trkpt lat="44.34297" lon="6.85553">
        <ele>2724.6000976562</ele>
        <time>2021-05-09T12:43:14.000Z</time>
      </trkpt>
      <trkpt lat="44.34297" lon="6.85552">
        <ele>2724.6000976562</ele>
        <time>2021-05-09T12:43:23.000Z</time>
      </trkpt>
      <trkpt lat="44.34296" lon="6.85553">
        <ele>2724.6000976562</ele>
        <time>2021-05-09T12:43:30.000Z</time>
      </trkpt>
      <trkpt lat="44.34297" lon="6.85556">
        <ele>2724.6000976562</ele>
        <time>2021-05-09T12:43:37.000Z</time>
      </trkpt>
      <trkpt lat="44.34292" lon="6.85554">
        <ele>2724.6000976562</ele>
        <time>2021-05-09T12:43:55.000Z</time>
      </trkpt>
      <trkpt lat="44.34293" lon="6.85553">
        <ele>2724.6000976562</ele>
        <time>2021-05-09T12:43:58.000Z</time>
      </trkpt>
      <trkpt lat="44.34294" lon="6.85552">
        <ele>2724.6000976562</ele>
        <time>2021-05-09T12:44:02.000Z</time>
      </trkpt>
      <trkpt lat="44.34295" lon="6.85553">
        <ele>2724.6000976562</ele>
        <time>2021-05-09T12:44:05.000Z</time>
      </trkpt>
      <trkpt lat="44.34295" lon="6.85553">
        <ele>2724.6000976562</ele>
        <time>2021-05-09T12:44:07.000Z</time>
      </trkpt>
      <trkpt lat="44.34295" lon="6.85553">
        <ele>2724.6000976562</ele>
        <time>2021-05-09T12:44:09.000Z</time>
      </trkpt>
      <trkpt lat="44.34295" lon="6.85552">
        <ele>2724.6000976562</ele>
        <time>2021-05-09T12:44:21.000Z</time>
      </trkpt>
      <trkpt lat="44.34294" lon="6.85552">
        <ele>2722.3999023438</ele>
        <time>2021-05-09T12:44:23.000Z</time>
      </trkpt>
      <trkpt lat="44.34295" lon="6.85552">
        <ele>2721.1999511719</ele>
        <time>2021-05-09T12:44:27.000Z</time>
      </trkpt>
      <trkpt lat="44.34294" lon="6.85552">
        <ele>2722</ele>
        <time>2021-05-09T12:44:29.000Z</time>
      </trkpt>
      <trkpt lat="44.34293" lon="6.85551">
        <ele>2722.3999023438</ele>
        <time>2021-05-09T12:44:31.000Z</time>
      </trkpt>
      <trkpt lat="44.34293" lon="6.85553">
        <ele>2723.6000976562</ele>
        <time>2021-05-09T12:44:38.000Z</time>
      </trkpt>
      <trkpt lat="44.34294" lon="6.85553">
        <ele>2723.1999511719</ele>
        <time>2021-05-09T12:44:51.000Z</time>
      </trkpt>
      <trkpt lat="44.34295" lon="6.85554">
        <ele>2723.6000976562</ele>
        <time>2021-05-09T12:45:03.000Z</time>
      </trkpt>
      <trkpt lat="44.34295" lon="6.85554">
        <ele>2724</ele>
        <time>2021-05-09T12:45:05.000Z</time>
      </trkpt>
      <trkpt lat="44.34295" lon="6.85555">
        <ele>2724.1999511719</ele>
        <time>2021-05-09T12:45:09.000Z</time>
      </trkpt>
      <trkpt lat="44.34296" lon="6.85555">
        <ele>2724.1999511719</ele>
        <time>2021-05-09T12:45:12.000Z</time>
      </trkpt>
      <trkpt lat="44.34295" lon="6.85555">
        <ele>2724</ele>
        <time>2021-05-09T12:45:14.000Z</time>
      </trkpt>
      <trkpt lat="44.34295" lon="6.85555">
        <ele>2723.8000488281</ele>
        <time>2021-05-09T12:45:16.000Z</time>
      </trkpt>
      <trkpt lat="44.34295" lon="6.85555">
        <ele>2723.8000488281</ele>
        <time>2021-05-09T12:45:19.000Z</time>
      </trkpt>
      <trkpt lat="44.34295" lon="6.85556">
        <ele>2723.1999511719</ele>
        <time>2021-05-09T12:45:25.000Z</time>
      </trkpt>
      <trkpt lat="44.34296" lon="6.85555">
        <ele>2724</ele>
        <time>2021-05-09T12:45:34.000Z</time>
      </trkpt>
      <trkpt lat="44.34294" lon="6.85555">
        <ele>2724.6000976562</ele>
        <time>2021-05-09T12:45:51.000Z</time>
      </trkpt>
      <trkpt lat="44.34296" lon="6.85556">
        <ele>2724.1999511719</ele>
        <time>2021-05-09T12:46:00.000Z</time>
      </trkpt>
      <trkpt lat="44.34297" lon="6.85556">
        <ele>2724</ele>
        <time>2021-05-09T12:46:03.000Z</time>
      </trkpt>
      <trkpt lat="44.34297" lon="6.85555">
        <ele>2723.6000976562</ele>
        <time>2021-05-09T12:46:08.000Z</time>
      </trkpt>
      <trkpt lat="44.34296" lon="6.85554">
        <ele>2723.3999023438</ele>
        <time>2021-05-09T12:46:31.000Z</time>
      </trkpt>
      <trkpt lat="44.34297" lon="6.85553">
        <ele>2723.3999023438</ele>
        <time>2021-05-09T12:46:43.000Z</time>
      </trkpt>
      <trkpt lat="44.34297" lon="6.85554">
        <ele>2723.3999023438</ele>
        <time>2021-05-09T12:46:48.000Z</time>
      </trkpt>
      <trkpt lat="44.34297" lon="6.85554">
        <ele>2723.3999023438</ele>
        <time>2021-05-09T12:46:50.000Z</time>
      </trkpt>
      <trkpt lat="44.34297" lon="6.85554">
        <ele>2723.3999023438</ele>
        <time>2021-05-09T12:47:00.000Z</time>
      </trkpt>
      <trkpt lat="44.34297" lon="6.85554">
        <ele>2723.3999023438</ele>
        <time>2021-05-09T12:47:06.000Z</time>
      </trkpt>
      <trkpt lat="44.34296" lon="6.85553">
        <ele>2723.3999023438</ele>
        <time>2021-05-09T12:47:12.000Z</time>
      </trkpt>
      <trkpt lat="44.34292" lon="6.85553">
        <ele>2723.3999023438</ele>
        <time>2021-05-09T12:47:20.000Z</time>
      </trkpt>
      <trkpt lat="44.34296" lon="6.85551">
        <ele>2723.3999023438</ele>
        <time>2021-05-09T12:47:47.000Z</time>
      </trkpt>
      <trkpt lat="44.34294" lon="6.85554">
        <ele>2723.3999023438</ele>
        <time>2021-05-09T12:48:20.000Z</time>
      </trkpt>
      <trkpt lat="44.34294" lon="6.85554">
        <ele>2723.3999023438</ele>
        <time>2021-05-09T12:48:30.000Z</time>
      </trkpt>
      <trkpt lat="44.34295" lon="6.85557">
        <ele>2723.3999023438</ele>
        <time>2021-05-09T12:48:38.000Z</time>
      </trkpt>
      <trkpt lat="44.34299" lon="6.85556">
        <ele>2723.3999023438</ele>
        <time>2021-05-09T12:49:38.000Z</time>
      </trkpt>
      <trkpt lat="44.343" lon="6.85556">
        <ele>2723.3999023438</ele>
        <time>2021-05-09T12:49:47.000Z</time>
      </trkpt>
      <trkpt lat="44.34298" lon="6.85547">
        <ele>2724</ele>
        <time>2021-05-09T12:50:09.000Z</time>
      </trkpt>
      <trkpt lat="44.34298" lon="6.85545">
        <ele>2724.6000976562</ele>
        <time>2021-05-09T12:50:18.000Z</time>
      </trkpt>
      <trkpt lat="44.343" lon="6.85546">
        <ele>2724</ele>
        <time>2021-05-09T12:50:35.000Z</time>
      </trkpt>
      <trkpt lat="44.34306" lon="6.8554">
        <ele>2725.1999511719</ele>
        <time>2021-05-09T12:50:48.000Z</time>
      </trkpt>
      <trkpt lat="44.34306" lon="6.8554">
        <ele>2725.1999511719</ele>
        <time>2021-05-09T12:50:49.000Z</time>
      </trkpt>
      <trkpt lat="44.34307" lon="6.85539">
        <ele>2725</ele>
        <time>2021-05-09T12:50:50.000Z</time>
      </trkpt>
      <trkpt lat="44.34308" lon="6.85535">
        <ele>2724</ele>
        <time>2021-05-09T12:50:53.000Z</time>
      </trkpt>
      <trkpt lat="44.34309" lon="6.85533">
        <ele>2723.6000976562</ele>
        <time>2021-05-09T12:50:56.000Z</time>
      </trkpt>
      <trkpt lat="44.34312" lon="6.85525">
        <ele>2724</ele>
        <time>2021-05-09T12:51:03.000Z</time>
      </trkpt>
      <trkpt lat="44.34313" lon="6.85525">
        <ele>2724</ele>
        <time>2021-05-09T12:51:04.000Z</time>
      </trkpt>
      <trkpt lat="44.34314" lon="6.85525">
        <ele>2725.3999023438</ele>
        <time>2021-05-09T12:51:06.000Z</time>
      </trkpt>
      <trkpt lat="44.34316" lon="6.85527">
        <ele>2726.8000488281</ele>
        <time>2021-05-09T12:51:08.000Z</time>
      </trkpt>
      <trkpt lat="44.34317" lon="6.85529">
        <ele>2727.8000488281</ele>
        <time>2021-05-09T12:51:10.000Z</time>
      </trkpt>
      <trkpt lat="44.34318" lon="6.8553">
        <ele>2728</ele>
        <time>2021-05-09T12:51:11.000Z</time>
      </trkpt>
      <trkpt lat="44.34319" lon="6.8553">
        <ele>2728.8000488281</ele>
        <time>2021-05-09T12:51:15.000Z</time>
      </trkpt>
      <trkpt lat="44.34321" lon="6.85531">
        <ele>2729</ele>
        <time>2021-05-09T12:51:19.000Z</time>
      </trkpt>
      <trkpt lat="44.34323" lon="6.8553">
        <ele>2729</ele>
        <time>2021-05-09T12:51:22.000Z</time>
      </trkpt>
      <trkpt lat="44.34324" lon="6.8553">
        <ele>2728.8000488281</ele>
        <time>2021-05-09T12:51:25.000Z</time>
      </trkpt>
      <trkpt lat="44.34324" lon="6.8553">
        <ele>2729.1999511719</ele>
        <time>2021-05-09T12:51:31.000Z</time>
      </trkpt>
      <trkpt lat="44.34323" lon="6.85531">
        <ele>2730</ele>
        <time>2021-05-09T12:51:48.000Z</time>
      </trkpt>
      <trkpt lat="44.34323" lon="6.85531">
        <ele>2729.1999511719</ele>
        <time>2021-05-09T12:51:52.000Z</time>
      </trkpt>
      <trkpt lat="44.34324" lon="6.8553">
        <ele>2728.8000488281</ele>
        <time>2021-05-09T12:51:58.000Z</time>
      </trkpt>
      <trkpt lat="44.34323" lon="6.85529">
        <ele>2729.1999511719</ele>
        <time>2021-05-09T12:52:07.000Z</time>
      </trkpt>
      <trkpt lat="44.34322" lon="6.85529">
        <ele>2728.1999511719</ele>
        <time>2021-05-09T12:52:15.000Z</time>
      </trkpt>
      <trkpt lat="44.34322" lon="6.85529">
        <ele>2728</ele>
        <time>2021-05-09T12:52:16.000Z</time>
      </trkpt>
      <trkpt lat="44.34322" lon="6.8553">
        <ele>2727.8000488281</ele>
        <time>2021-05-09T12:52:17.000Z</time>
      </trkpt>
      <trkpt lat="44.34322" lon="6.8553">
        <ele>2727.8000488281</ele>
        <time>2021-05-09T12:52:18.000Z</time>
      </trkpt>
      <trkpt lat="44.34322" lon="6.8553">
        <ele>2727.8000488281</ele>
        <time>2021-05-09T12:52:25.000Z</time>
      </trkpt>
      <trkpt lat="44.34323" lon="6.8553">
        <ele>2728</ele>
        <time>2021-05-09T12:52:27.000Z</time>
      </trkpt>
      <trkpt lat="44.34323" lon="6.8553">
        <ele>2729.1999511719</ele>
        <time>2021-05-09T12:52:30.000Z</time>
      </trkpt>
      <trkpt lat="44.34322" lon="6.8553">
        <ele>2729.6000976562</ele>
        <time>2021-05-09T12:52:32.000Z</time>
      </trkpt>
      <trkpt lat="44.34323" lon="6.8553">
        <ele>2730</ele>
        <time>2021-05-09T12:52:35.000Z</time>
      </trkpt>
      <trkpt lat="44.34324" lon="6.85531">
        <ele>2729.6000976562</ele>
        <time>2021-05-09T12:52:57.000Z</time>
      </trkpt>
      <trkpt lat="44.34324" lon="6.85529">
        <ele>2729</ele>
        <time>2021-05-09T12:53:13.000Z</time>
      </trkpt>
      <trkpt lat="44.34324" lon="6.85529">
        <ele>2728.3999023438</ele>
        <time>2021-05-09T12:53:34.000Z</time>
      </trkpt>
      <trkpt lat="44.34323" lon="6.85529">
        <ele>2728.8000488281</ele>
        <time>2021-05-09T12:53:48.000Z</time>
      </trkpt>
      <trkpt lat="44.34321" lon="6.8553">
        <ele>2728.8000488281</ele>
        <time>2021-05-09T12:53:57.000Z</time>
      </trkpt>
      <trkpt lat="44.34321" lon="6.8553">
        <ele>2728.8000488281</ele>
        <time>2021-05-09T12:54:02.000Z</time>
      </trkpt>
      <trkpt lat="44.34322" lon="6.85529">
        <ele>2728.8000488281</ele>
        <time>2021-05-09T12:54:05.000Z</time>
      </trkpt>
      <trkpt lat="44.34325" lon="6.85528">
        <ele>2728.8000488281</ele>
        <time>2021-05-09T12:54:21.000Z</time>
      </trkpt>
      <trkpt lat="44.34325" lon="6.85528">
        <ele>2728.8000488281</ele>
        <time>2021-05-09T12:54:22.000Z</time>
      </trkpt>
      <trkpt lat="44.34326" lon="6.85528">
        <ele>2728.8000488281</ele>
        <time>2021-05-09T12:54:34.000Z</time>
      </trkpt>
      <trkpt lat="44.34326" lon="6.85528">
        <ele>2728.8000488281</ele>
        <time>2021-05-09T12:54:38.000Z</time>
      </trkpt>
      <trkpt lat="44.34326" lon="6.85528">
        <ele>2728.8000488281</ele>
        <time>2021-05-09T12:54:41.000Z</time>
      </trkpt>
      <trkpt lat="44.34327" lon="6.85528">
        <ele>2728.8000488281</ele>
        <time>2021-05-09T12:54:49.000Z</time>
      </trkpt>
      <trkpt lat="44.34327" lon="6.85528">
        <ele>2728.8000488281</ele>
        <time>2021-05-09T12:54:54.000Z</time>
      </trkpt>
      <trkpt lat="44.34327" lon="6.85528">
        <ele>2728.8000488281</ele>
        <time>2021-05-09T12:54:56.000Z</time>
      </trkpt>
      <trkpt lat="44.34327" lon="6.85528">
        <ele>2728.8000488281</ele>
        <time>2021-05-09T12:54:57.000Z</time>
      </trkpt>
      <trkpt lat="44.34327" lon="6.85528">
        <ele>2728.8000488281</ele>
        <time>2021-05-09T12:54:59.000Z</time>
      </trkpt>
      <trkpt lat="44.34327" lon="6.85528">
        <ele>2728.8000488281</ele>
        <time>2021-05-09T12:55:02.000Z</time>
      </trkpt>
      <trkpt lat="44.34327" lon="6.85529">
        <ele>2728.8000488281</ele>
        <time>2021-05-09T12:55:11.000Z</time>
      </trkpt>
      <trkpt lat="44.34327" lon="6.85529">
        <ele>2728.8000488281</ele>
        <time>2021-05-09T12:55:24.000Z</time>
      </trkpt>
      <trkpt lat="44.34327" lon="6.85528">
        <ele>2728.8000488281</ele>
        <time>2021-05-09T12:55:27.000Z</time>
      </trkpt>
      <trkpt lat="44.34327" lon="6.85528">
        <ele>2728.8000488281</ele>
        <time>2021-05-09T12:55:28.000Z</time>
      </trkpt>
      <trkpt lat="44.34327" lon="6.85528">
        <ele>2728.8000488281</ele>
        <time>2021-05-09T12:55:29.000Z</time>
      </trkpt>
      <trkpt lat="44.34328" lon="6.85528">
        <ele>2728.8000488281</ele>
        <time>2021-05-09T12:55:33.000Z</time>
      </trkpt>
      <trkpt lat="44.34328" lon="6.85528">
        <ele>2728.8000488281</ele>
        <time>2021-05-09T12:55:35.000Z</time>
      </trkpt>
      <trkpt lat="44.34327" lon="6.85529">
        <ele>2728.8000488281</ele>
        <time>2021-05-09T12:55:39.000Z</time>
      </trkpt>
      <trkpt lat="44.34327" lon="6.8553">
        <ele>2728.8000488281</ele>
        <time>2021-05-09T12:55:42.000Z</time>
      </trkpt>
      <trkpt lat="44.34327" lon="6.85531">
        <ele>2728.8000488281</ele>
        <time>2021-05-09T12:55:45.000Z</time>
      </trkpt>
      <trkpt lat="44.34328" lon="6.8553">
        <ele>2728.8000488281</ele>
        <time>2021-05-09T12:55:56.000Z</time>
      </trkpt>
      <trkpt lat="44.34327" lon="6.85531">
        <ele>2728.8000488281</ele>
        <time>2021-05-09T12:56:01.000Z</time>
      </trkpt>
      <trkpt lat="44.34327" lon="6.85529">
        <ele>2728.8000488281</ele>
        <time>2021-05-09T12:56:18.000Z</time>
      </trkpt>
      <trkpt lat="44.34327" lon="6.85529">
        <ele>2728.8000488281</ele>
        <time>2021-05-09T12:56:21.000Z</time>
      </trkpt>
      <trkpt lat="44.34328" lon="6.8553">
        <ele>2728.8000488281</ele>
        <time>2021-05-09T12:56:31.000Z</time>
      </trkpt>
      <trkpt lat="44.34328" lon="6.85529">
        <ele>2728.8000488281</ele>
        <time>2021-05-09T12:56:33.000Z</time>
      </trkpt>
      <trkpt lat="44.34328" lon="6.85529">
        <ele>2728.8000488281</ele>
        <time>2021-05-09T12:56:37.000Z</time>
      </trkpt>
      <trkpt lat="44.34327" lon="6.8553">
        <ele>2725.6000976562</ele>
        <time>2021-05-09T12:56:45.000Z</time>
      </trkpt>
      <trkpt lat="44.34327" lon="6.8553">
        <ele>2726.3999023438</ele>
        <time>2021-05-09T12:56:47.000Z</time>
      </trkpt>
      <trkpt lat="44.34328" lon="6.85529">
        <ele>2726.6000976562</ele>
        <time>2021-05-09T12:57:22.000Z</time>
      </trkpt>
      <trkpt lat="44.34328" lon="6.85529">
        <ele>2726.8000488281</ele>
        <time>2021-05-09T12:57:32.000Z</time>
      </trkpt>
      <trkpt lat="44.34326" lon="6.85527">
        <ele>2726.6000976562</ele>
        <time>2021-05-09T12:57:43.000Z</time>
      </trkpt>
      <trkpt lat="44.34326" lon="6.85527">
        <ele>2726.6000976562</ele>
        <time>2021-05-09T12:57:46.000Z</time>
      </trkpt>
      <trkpt lat="44.34326" lon="6.85527">
        <ele>2726.1999511719</ele>
        <time>2021-05-09T12:57:51.000Z</time>
      </trkpt>
      <trkpt lat="44.34327" lon="6.85529">
        <ele>2726.3999023438</ele>
        <time>2021-05-09T12:58:01.000Z</time>
      </trkpt>
      <trkpt lat="44.34326" lon="6.85529">
        <ele>2726.8000488281</ele>
        <time>2021-05-09T12:58:06.000Z</time>
      </trkpt>
      <trkpt lat="44.34326" lon="6.85528">
        <ele>2726.6000976562</ele>
        <time>2021-05-09T12:58:14.000Z</time>
      </trkpt>
      <trkpt lat="44.34326" lon="6.85527">
        <ele>2726.6000976562</ele>
        <time>2021-05-09T12:58:21.000Z</time>
      </trkpt>
      <trkpt lat="44.34329" lon="6.85525">
        <ele>2726.8000488281</ele>
        <time>2021-05-09T12:58:35.000Z</time>
      </trkpt>
      <trkpt lat="44.34332" lon="6.85525">
        <ele>2725.6000976562</ele>
        <time>2021-05-09T12:58:48.000Z</time>
      </trkpt>
      <trkpt lat="44.34332" lon="6.85523">
        <ele>2725.8000488281</ele>
        <time>2021-05-09T12:59:07.000Z</time>
      </trkpt>
      <trkpt lat="44.34337" lon="6.85514">
        <ele>2725.1999511719</ele>
        <time>2021-05-09T12:59:24.000Z</time>
      </trkpt>
      <trkpt lat="44.3434" lon="6.85513">
        <ele>2724.3999023438</ele>
        <time>2021-05-09T12:59:26.000Z</time>
      </trkpt>
      <trkpt lat="44.34342" lon="6.85511">
        <ele>2723.1999511719</ele>
        <time>2021-05-09T12:59:28.000Z</time>
      </trkpt>
      <trkpt lat="44.34344" lon="6.85509">
        <ele>2722.1999511719</ele>
        <time>2021-05-09T12:59:30.000Z</time>
      </trkpt>
      <trkpt lat="44.34345" lon="6.85508">
        <ele>2721</ele>
        <time>2021-05-09T12:59:34.000Z</time>
      </trkpt>
      <trkpt lat="44.34345" lon="6.85506">
        <ele>2720</ele>
        <time>2021-05-09T12:59:47.000Z</time>
      </trkpt>
      <trkpt lat="44.34347" lon="6.85503">
        <ele>2718.8000488281</ele>
        <time>2021-05-09T12:59:52.000Z</time>
      </trkpt>
      <trkpt lat="44.34349" lon="6.85502">
        <ele>2718.6000976562</ele>
        <time>2021-05-09T12:59:54.000Z</time>
      </trkpt>
      <trkpt lat="44.3435" lon="6.855">
        <ele>2718</ele>
        <time>2021-05-09T12:59:58.000Z</time>
      </trkpt>
      <trkpt lat="44.34351" lon="6.855">
        <ele>2718.6000976562</ele>
        <time>2021-05-09T13:00:16.000Z</time>
      </trkpt>
      <trkpt lat="44.34352" lon="6.85497">
        <ele>2717.6000976562</ele>
        <time>2021-05-09T13:00:23.000Z</time>
      </trkpt>
      <trkpt lat="44.34353" lon="6.85496">
        <ele>2716.1999511719</ele>
        <time>2021-05-09T13:00:32.000Z</time>
      </trkpt>
      <trkpt lat="44.34353" lon="6.85494">
        <ele>2715.3999023438</ele>
        <time>2021-05-09T13:00:38.000Z</time>
      </trkpt>
      <trkpt lat="44.34354" lon="6.85495">
        <ele>2715.1999511719</ele>
        <time>2021-05-09T13:00:41.000Z</time>
      </trkpt>
      <trkpt lat="44.34356" lon="6.8549">
        <ele>2714.1999511719</ele>
        <time>2021-05-09T13:01:04.000Z</time>
      </trkpt>
      <trkpt lat="44.34356" lon="6.85489">
        <ele>2713</ele>
        <time>2021-05-09T13:01:12.000Z</time>
      </trkpt>
      <trkpt lat="44.34358" lon="6.8549">
        <ele>2712</ele>
        <time>2021-05-09T13:01:19.000Z</time>
      </trkpt>
      <trkpt lat="44.34356" lon="6.85486">
        <ele>2711</ele>
        <time>2021-05-09T13:01:23.000Z</time>
      </trkpt>
      <trkpt lat="44.34357" lon="6.85485">
        <ele>2710.6000976562</ele>
        <time>2021-05-09T13:01:24.000Z</time>
      </trkpt>
      <trkpt lat="44.34357" lon="6.85482">
        <ele>2709.6000976562</ele>
        <time>2021-05-09T13:01:41.000Z</time>
      </trkpt>
      <trkpt lat="44.3436" lon="6.85478">
        <ele>2708.8000488281</ele>
        <time>2021-05-09T13:01:44.000Z</time>
      </trkpt>
      <trkpt lat="44.3436" lon="6.85478">
        <ele>2708.3999023438</ele>
        <time>2021-05-09T13:01:45.000Z</time>
      </trkpt>
      <trkpt lat="44.34363" lon="6.8547">
        <ele>2707.1999511719</ele>
        <time>2021-05-09T13:02:00.000Z</time>
      </trkpt>
      <trkpt lat="44.34363" lon="6.8547">
        <ele>2706</ele>
        <time>2021-05-09T13:02:05.000Z</time>
      </trkpt>
      <trkpt lat="44.34363" lon="6.8547">
        <ele>2704.8000488281</ele>
        <time>2021-05-09T13:02:11.000Z</time>
      </trkpt>
      <trkpt lat="44.34362" lon="6.8547">
        <ele>2705.6000976562</ele>
        <time>2021-05-09T13:02:26.000Z</time>
      </trkpt>
      <trkpt lat="44.34361" lon="6.85468">
        <ele>2705.8000488281</ele>
        <time>2021-05-09T13:02:29.000Z</time>
      </trkpt>
      <trkpt lat="44.34362" lon="6.85464">
        <ele>2705.1999511719</ele>
        <time>2021-05-09T13:02:31.000Z</time>
      </trkpt>
      <trkpt lat="44.34365" lon="6.85463">
        <ele>2704.3999023438</ele>
        <time>2021-05-09T13:02:33.000Z</time>
      </trkpt>
      <trkpt lat="44.34366" lon="6.85456">
        <ele>2703</ele>
        <time>2021-05-09T13:02:36.000Z</time>
      </trkpt>
      <trkpt lat="44.34367" lon="6.85455">
        <ele>2702.1999511719</ele>
        <time>2021-05-09T13:02:37.000Z</time>
      </trkpt>
      <trkpt lat="44.34367" lon="6.85455">
        <ele>2702</ele>
        <time>2021-05-09T13:02:38.000Z</time>
      </trkpt>
      <trkpt lat="44.34368" lon="6.85455">
        <ele>2700.8000488281</ele>
        <time>2021-05-09T13:02:43.000Z</time>
      </trkpt>
      <trkpt lat="44.34368" lon="6.85455">
        <ele>2702.1999511719</ele>
        <time>2021-05-09T13:02:50.000Z</time>
      </trkpt>
      <trkpt lat="44.34368" lon="6.85455">
        <ele>2703.6000976562</ele>
        <time>2021-05-09T13:02:53.000Z</time>
      </trkpt>
      <trkpt lat="44.34369" lon="6.85454">
        <ele>2704.6000976562</ele>
        <time>2021-05-09T13:02:56.000Z</time>
      </trkpt>
      <trkpt lat="44.34369" lon="6.85446">
        <ele>2704.1999511719</ele>
        <time>2021-05-09T13:02:59.000Z</time>
      </trkpt>
      <trkpt lat="44.34373" lon="6.85444">
        <ele>2703</ele>
        <time>2021-05-09T13:03:01.000Z</time>
      </trkpt>
      <trkpt lat="44.34375" lon="6.85444">
        <ele>2701.8000488281</ele>
        <time>2021-05-09T13:03:02.000Z</time>
      </trkpt>
      <trkpt lat="44.34376" lon="6.85442">
        <ele>2699.8000488281</ele>
        <time>2021-05-09T13:03:03.000Z</time>
      </trkpt>
      <trkpt lat="44.34376" lon="6.85438">
        <ele>2698</ele>
        <time>2021-05-09T13:03:04.000Z</time>
      </trkpt>
      <trkpt lat="44.34377" lon="6.85434">
        <ele>2696.1999511719</ele>
        <time>2021-05-09T13:03:05.000Z</time>
      </trkpt>
      <trkpt lat="44.34379" lon="6.85431">
        <ele>2695</ele>
        <time>2021-05-09T13:03:06.000Z</time>
      </trkpt>
      <trkpt lat="44.34382" lon="6.8543">
        <ele>2693.8000488281</ele>
        <time>2021-05-09T13:03:07.000Z</time>
      </trkpt>
      <trkpt lat="44.34384" lon="6.8543">
        <ele>2692.6000976562</ele>
        <time>2021-05-09T13:03:08.000Z</time>
      </trkpt>
      <trkpt lat="44.34386" lon="6.85431">
        <ele>2691</ele>
        <time>2021-05-09T13:03:10.000Z</time>
      </trkpt>
      <trkpt lat="44.34386" lon="6.8543">
        <ele>2689.8000488281</ele>
        <time>2021-05-09T13:03:13.000Z</time>
      </trkpt>
      <trkpt lat="44.34386" lon="6.85431">
        <ele>2691</ele>
        <time>2021-05-09T13:03:23.000Z</time>
      </trkpt>
      <trkpt lat="44.34387" lon="6.85431">
        <ele>2692.6000976562</ele>
        <time>2021-05-09T13:03:25.000Z</time>
      </trkpt>
      <trkpt lat="44.34386" lon="6.85431">
        <ele>2693.6000976562</ele>
        <time>2021-05-09T13:03:27.000Z</time>
      </trkpt>
      <trkpt lat="44.34386" lon="6.85431">
        <ele>2693.6000976562</ele>
        <time>2021-05-09T13:03:28.000Z</time>
      </trkpt>
      <trkpt lat="44.34386" lon="6.8543">
        <ele>2693.8000488281</ele>
        <time>2021-05-09T13:03:33.000Z</time>
      </trkpt>
      <trkpt lat="44.34389" lon="6.85433">
        <ele>2694.8000488281</ele>
        <time>2021-05-09T13:03:37.000Z</time>
      </trkpt>
      <trkpt lat="44.34391" lon="6.85434">
        <ele>2694.8000488281</ele>
        <time>2021-05-09T13:03:38.000Z</time>
      </trkpt>
      <trkpt lat="44.34393" lon="6.85432">
        <ele>2693.3999023438</ele>
        <time>2021-05-09T13:03:40.000Z</time>
      </trkpt>
      <trkpt lat="44.34394" lon="6.85428">
        <ele>2691.6000976562</ele>
        <time>2021-05-09T13:03:41.000Z</time>
      </trkpt>
      <trkpt lat="44.34398" lon="6.85425">
        <ele>2689.8000488281</ele>
        <time>2021-05-09T13:03:42.000Z</time>
      </trkpt>
      <trkpt lat="44.34401" lon="6.85425">
        <ele>2688.3999023438</ele>
        <time>2021-05-09T13:03:43.000Z</time>
      </trkpt>
      <trkpt lat="44.34404" lon="6.85425">
        <ele>2686.6000976562</ele>
        <time>2021-05-09T13:03:44.000Z</time>
      </trkpt>
      <trkpt lat="44.34406" lon="6.85423">
        <ele>2684.8000488281</ele>
        <time>2021-05-09T13:03:45.000Z</time>
      </trkpt>
      <trkpt lat="44.34407" lon="6.8542">
        <ele>2682.3999023438</ele>
        <time>2021-05-09T13:03:46.000Z</time>
      </trkpt>
      <trkpt lat="44.34407" lon="6.85417">
        <ele>2680.6000976562</ele>
        <time>2021-05-09T13:03:47.000Z</time>
      </trkpt>
      <trkpt lat="44.34405" lon="6.85414">
        <ele>2679</ele>
        <time>2021-05-09T13:03:48.000Z</time>
      </trkpt>
      <trkpt lat="44.34404" lon="6.8541">
        <ele>2677.8000488281</ele>
        <time>2021-05-09T13:03:49.000Z</time>
      </trkpt>
      <trkpt lat="44.34406" lon="6.85402">
        <ele>2676.3999023438</ele>
        <time>2021-05-09T13:03:51.000Z</time>
      </trkpt>
      <trkpt lat="44.34413" lon="6.85401">
        <ele>2675</ele>
        <time>2021-05-09T13:03:53.000Z</time>
      </trkpt>
      <trkpt lat="44.34419" lon="6.85398">
        <ele>2673.1999511719</ele>
        <time>2021-05-09T13:03:55.000Z</time>
      </trkpt>
      <trkpt lat="44.34422" lon="6.85397">
        <ele>2671.8000488281</ele>
        <time>2021-05-09T13:03:56.000Z</time>
      </trkpt>
      <trkpt lat="44.34428" lon="6.85393">
        <ele>2670</ele>
        <time>2021-05-09T13:03:58.000Z</time>
      </trkpt>
      <trkpt lat="44.3443" lon="6.85387">
        <ele>2668.6000976562</ele>
        <time>2021-05-09T13:04:00.000Z</time>
      </trkpt>
      <trkpt lat="44.34428" lon="6.85382">
        <ele>2667.3999023438</ele>
        <time>2021-05-09T13:04:01.000Z</time>
      </trkpt>
      <trkpt lat="44.34428" lon="6.85377">
        <ele>2666</ele>
        <time>2021-05-09T13:04:02.000Z</time>
      </trkpt>
      <trkpt lat="44.34428" lon="6.85371">
        <ele>2664.6000976562</ele>
        <time>2021-05-09T13:04:03.000Z</time>
      </trkpt>
      <trkpt lat="44.34431" lon="6.85368">
        <ele>2663.1999511719</ele>
        <time>2021-05-09T13:04:04.000Z</time>
      </trkpt>
      <trkpt lat="44.34435" lon="6.85366">
        <ele>2661.8000488281</ele>
        <time>2021-05-09T13:04:06.000Z</time>
      </trkpt>
      <trkpt lat="44.34437" lon="6.85364">
        <ele>2661.1999511719</ele>
        <time>2021-05-09T13:04:07.000Z</time>
      </trkpt>
      <trkpt lat="44.34437" lon="6.85362">
        <ele>2660.6000976562</ele>
        <time>2021-05-09T13:04:08.000Z</time>
      </trkpt>
      <trkpt lat="44.34436" lon="6.85354">
        <ele>2659.8000488281</ele>
        <time>2021-05-09T13:04:10.000Z</time>
      </trkpt>
      <trkpt lat="44.34437" lon="6.85352">
        <ele>2659.1999511719</ele>
        <time>2021-05-09T13:04:11.000Z</time>
      </trkpt>
      <trkpt lat="44.34439" lon="6.85353">
        <ele>2658.1999511719</ele>
        <time>2021-05-09T13:04:14.000Z</time>
      </trkpt>
      <trkpt lat="44.34439" lon="6.85353">
        <ele>2657.1999511719</ele>
        <time>2021-05-09T13:04:21.000Z</time>
      </trkpt>
      <trkpt lat="44.3444" lon="6.85355">
        <ele>2657.3999023438</ele>
        <time>2021-05-09T13:04:35.000Z</time>
      </trkpt>
      <trkpt lat="44.34445" lon="6.85352">
        <ele>2656.8000488281</ele>
        <time>2021-05-09T13:04:47.000Z</time>
      </trkpt>
      <trkpt lat="44.34448" lon="6.85352">
        <ele>2656.3999023438</ele>
        <time>2021-05-09T13:04:48.000Z</time>
      </trkpt>
      <trkpt lat="44.3445" lon="6.8535">
        <ele>2656</ele>
        <time>2021-05-09T13:04:49.000Z</time>
      </trkpt>
      <trkpt lat="44.34451" lon="6.85348">
        <ele>2655.3999023438</ele>
        <time>2021-05-09T13:04:50.000Z</time>
      </trkpt>
      <trkpt lat="44.34452" lon="6.85344">
        <ele>2654.6000976562</ele>
        <time>2021-05-09T13:04:51.000Z</time>
      </trkpt>
      <trkpt lat="44.34454" lon="6.85338">
        <ele>2653.1999511719</ele>
        <time>2021-05-09T13:04:53.000Z</time>
      </trkpt>
      <trkpt lat="44.34459" lon="6.8533">
        <ele>2651.8000488281</ele>
        <time>2021-05-09T13:04:56.000Z</time>
      </trkpt>
      <trkpt lat="44.34463" lon="6.85322">
        <ele>2650.1999511719</ele>
        <time>2021-05-09T13:04:58.000Z</time>
      </trkpt>
      <trkpt lat="44.34465" lon="6.85321">
        <ele>2649.1999511719</ele>
        <time>2021-05-09T13:04:59.000Z</time>
      </trkpt>
      <trkpt lat="44.34468" lon="6.85318">
        <ele>2648</ele>
        <time>2021-05-09T13:05:00.000Z</time>
      </trkpt>
      <trkpt lat="44.34469" lon="6.85315">
        <ele>2647</ele>
        <time>2021-05-09T13:05:01.000Z</time>
      </trkpt>
      <trkpt lat="44.34469" lon="6.8531">
        <ele>2645.8000488281</ele>
        <time>2021-05-09T13:05:02.000Z</time>
      </trkpt>
      <trkpt lat="44.3447" lon="6.85305">
        <ele>2644.6000976562</ele>
        <time>2021-05-09T13:05:03.000Z</time>
      </trkpt>
      <trkpt lat="44.34473" lon="6.85302">
        <ele>2643.3999023438</ele>
        <time>2021-05-09T13:05:04.000Z</time>
      </trkpt>
      <trkpt lat="44.34475" lon="6.85301">
        <ele>2642.1999511719</ele>
        <time>2021-05-09T13:05:05.000Z</time>
      </trkpt>
      <trkpt lat="44.34479" lon="6.85303">
        <ele>2640.3999023438</ele>
        <time>2021-05-09T13:05:07.000Z</time>
      </trkpt>
      <trkpt lat="44.34486" lon="6.85303">
        <ele>2639.3999023438</ele>
        <time>2021-05-09T13:05:12.000Z</time>
      </trkpt>
      <trkpt lat="44.34487" lon="6.85301">
        <ele>2638.8000488281</ele>
        <time>2021-05-09T13:05:14.000Z</time>
      </trkpt>
      <trkpt lat="44.34487" lon="6.853">
        <ele>2638.3999023438</ele>
        <time>2021-05-09T13:05:15.000Z</time>
      </trkpt>
      <trkpt lat="44.34487" lon="6.853">
        <ele>2638</ele>
        <time>2021-05-09T13:05:16.000Z</time>
      </trkpt>
      <trkpt lat="44.34486" lon="6.85299">
        <ele>2637</ele>
        <time>2021-05-09T13:05:18.000Z</time>
      </trkpt>
      <trkpt lat="44.34487" lon="6.85299">
        <ele>2635.8000488281</ele>
        <time>2021-05-09T13:05:23.000Z</time>
      </trkpt>
      <trkpt lat="44.34487" lon="6.85299">
        <ele>2637</ele>
        <time>2021-05-09T13:05:33.000Z</time>
      </trkpt>
      <trkpt lat="44.34486" lon="6.85299">
        <ele>2635.8000488281</ele>
        <time>2021-05-09T13:05:45.000Z</time>
      </trkpt>
      <trkpt lat="44.34485" lon="6.85299">
        <ele>2636.1999511719</ele>
        <time>2021-05-09T13:05:56.000Z</time>
      </trkpt>
      <trkpt lat="44.34485" lon="6.853">
        <ele>2636.3999023438</ele>
        <time>2021-05-09T13:05:59.000Z</time>
      </trkpt>
      <trkpt lat="44.34485" lon="6.853">
        <ele>2637</ele>
        <time>2021-05-09T13:06:01.000Z</time>
      </trkpt>
      <trkpt lat="44.34486" lon="6.853">
        <ele>2637</ele>
        <time>2021-05-09T13:06:03.000Z</time>
      </trkpt>
      <trkpt lat="44.34485" lon="6.853">
        <ele>2637.1999511719</ele>
        <time>2021-05-09T13:06:06.000Z</time>
      </trkpt>
      <trkpt lat="44.34485" lon="6.85299">
        <ele>2637</ele>
        <time>2021-05-09T13:06:07.000Z</time>
      </trkpt>
      <trkpt lat="44.34485" lon="6.85299">
        <ele>2637</ele>
        <time>2021-05-09T13:06:08.000Z</time>
      </trkpt>
      <trkpt lat="44.34485" lon="6.85298">
        <ele>2636.8000488281</ele>
        <time>2021-05-09T13:06:12.000Z</time>
      </trkpt>
      <trkpt lat="44.34481" lon="6.85293">
        <ele>2636.3999023438</ele>
        <time>2021-05-09T13:06:17.000Z</time>
      </trkpt>
      <trkpt lat="44.34477" lon="6.85289">
        <ele>2636.8000488281</ele>
        <time>2021-05-09T13:06:21.000Z</time>
      </trkpt>
      <trkpt lat="44.34476" lon="6.85288">
        <ele>2637.1999511719</ele>
        <time>2021-05-09T13:06:22.000Z</time>
      </trkpt>
      <trkpt lat="44.34474" lon="6.85287">
        <ele>2637.3999023438</ele>
        <time>2021-05-09T13:06:24.000Z</time>
      </trkpt>
      <trkpt lat="44.34472" lon="6.85286">
        <ele>2637.3999023438</ele>
        <time>2021-05-09T13:06:25.000Z</time>
      </trkpt>
      <trkpt lat="44.34471" lon="6.85285">
        <ele>2637.3999023438</ele>
        <time>2021-05-09T13:06:26.000Z</time>
      </trkpt>
      <trkpt lat="44.3447" lon="6.85284">
        <ele>2637.3999023438</ele>
        <time>2021-05-09T13:06:27.000Z</time>
      </trkpt>
      <trkpt lat="44.34468" lon="6.85282">
        <ele>2635.3999023438</ele>
        <time>2021-05-09T13:06:30.000Z</time>
      </trkpt>
      <trkpt lat="44.34468" lon="6.85281">
        <ele>2635</ele>
        <time>2021-05-09T13:06:31.000Z</time>
      </trkpt>
      <trkpt lat="44.34467" lon="6.8528">
        <ele>2634.6000976562</ele>
        <time>2021-05-09T13:06:33.000Z</time>
      </trkpt>
      <trkpt lat="44.34466" lon="6.85279">
        <ele>2634.1999511719</ele>
        <time>2021-05-09T13:06:35.000Z</time>
      </trkpt>
      <trkpt lat="44.34466" lon="6.85278">
        <ele>2633.3999023438</ele>
        <time>2021-05-09T13:06:42.000Z</time>
      </trkpt>
      <trkpt lat="44.34463" lon="6.85274">
        <ele>2633.1999511719</ele>
        <time>2021-05-09T13:06:58.000Z</time>
      </trkpt>
      <trkpt lat="44.34463" lon="6.85274">
        <ele>2633.1999511719</ele>
        <time>2021-05-09T13:06:59.000Z</time>
      </trkpt>
      <trkpt lat="44.34461" lon="6.85273">
        <ele>2633.3999023438</ele>
        <time>2021-05-09T13:07:03.000Z</time>
      </trkpt>
      <trkpt lat="44.34458" lon="6.85274">
        <ele>2634.1999511719</ele>
        <time>2021-05-09T13:07:08.000Z</time>
      </trkpt>
      <trkpt lat="44.34452" lon="6.85274">
        <ele>2634.1999511719</ele>
        <time>2021-05-09T13:07:20.000Z</time>
      </trkpt>
      <trkpt lat="44.3445" lon="6.85274">
        <ele>2634.1999511719</ele>
        <time>2021-05-09T13:07:31.000Z</time>
      </trkpt>
      <trkpt lat="44.34448" lon="6.85273">
        <ele>2633.8000488281</ele>
        <time>2021-05-09T13:07:51.000Z</time>
      </trkpt>
      <trkpt lat="44.34447" lon="6.85274">
        <ele>2634.1999511719</ele>
        <time>2021-05-09T13:08:00.000Z</time>
      </trkpt>
      <trkpt lat="44.34441" lon="6.85276">
        <ele>2633.8000488281</ele>
        <time>2021-05-09T13:08:08.000Z</time>
      </trkpt>
      <trkpt lat="44.3444" lon="6.85276">
        <ele>2635.6000976562</ele>
        <time>2021-05-09T13:08:15.000Z</time>
      </trkpt>
      <trkpt lat="44.34438" lon="6.85276">
        <ele>2635</ele>
        <time>2021-05-09T13:08:21.000Z</time>
      </trkpt>
      <trkpt lat="44.34437" lon="6.85276">
        <ele>2634.3999023438</ele>
        <time>2021-05-09T13:08:22.000Z</time>
      </trkpt>
      <trkpt lat="44.34435" lon="6.85277">
        <ele>2634</ele>
        <time>2021-05-09T13:08:24.000Z</time>
      </trkpt>
      <trkpt lat="44.34433" lon="6.85277">
        <ele>2633</ele>
        <time>2021-05-09T13:08:26.000Z</time>
      </trkpt>
      <trkpt lat="44.34429" lon="6.85278">
        <ele>2631.3999023438</ele>
        <time>2021-05-09T13:08:28.000Z</time>
      </trkpt>
      <trkpt lat="44.34427" lon="6.85278">
        <ele>2629.6000976562</ele>
        <time>2021-05-09T13:08:30.000Z</time>
      </trkpt>
      <trkpt lat="44.34424" lon="6.85278">
        <ele>2628.1999511719</ele>
        <time>2021-05-09T13:08:32.000Z</time>
      </trkpt>
      <trkpt lat="44.34424" lon="6.85279">
        <ele>2627</ele>
        <time>2021-05-09T13:08:34.000Z</time>
      </trkpt>
      <trkpt lat="44.34421" lon="6.85278">
        <ele>2625.8000488281</ele>
        <time>2021-05-09T13:08:37.000Z</time>
      </trkpt>
      <trkpt lat="44.3442" lon="6.85277">
        <ele>2625.6000976562</ele>
        <time>2021-05-09T13:08:39.000Z</time>
      </trkpt>
      <trkpt lat="44.34422" lon="6.85271">
        <ele>2624.3999023438</ele>
        <time>2021-05-09T13:08:43.000Z</time>
      </trkpt>
      <trkpt lat="44.34423" lon="6.85271">
        <ele>2623.3999023438</ele>
        <time>2021-05-09T13:08:44.000Z</time>
      </trkpt>
      <trkpt lat="44.34423" lon="6.85271">
        <ele>2622.3999023438</ele>
        <time>2021-05-09T13:08:45.000Z</time>
      </trkpt>
      <trkpt lat="44.34424" lon="6.85271">
        <ele>2621.3999023438</ele>
        <time>2021-05-09T13:08:46.000Z</time>
      </trkpt>
      <trkpt lat="44.34424" lon="6.85272">
        <ele>2620.8000488281</ele>
        <time>2021-05-09T13:08:47.000Z</time>
      </trkpt>
      <trkpt lat="44.34431" lon="6.85269">
        <ele>2619.3999023438</ele>
        <time>2021-05-09T13:08:51.000Z</time>
      </trkpt>
      <trkpt lat="44.34429" lon="6.85267">
        <ele>2617.8000488281</ele>
        <time>2021-05-09T13:08:53.000Z</time>
      </trkpt>
      <trkpt lat="44.3443" lon="6.85268">
        <ele>2616.8000488281</ele>
        <time>2021-05-09T13:08:55.000Z</time>
      </trkpt>
      <trkpt lat="44.3443" lon="6.85269">
        <ele>2616.1999511719</ele>
        <time>2021-05-09T13:09:15.000Z</time>
      </trkpt>
      <trkpt lat="44.34427" lon="6.85265">
        <ele>2615.8000488281</ele>
        <time>2021-05-09T13:09:24.000Z</time>
      </trkpt>
      <trkpt lat="44.34431" lon="6.85261">
        <ele>2614.6000976562</ele>
        <time>2021-05-09T13:09:37.000Z</time>
      </trkpt>
      <trkpt lat="44.34432" lon="6.8526">
        <ele>2613.6000976562</ele>
        <time>2021-05-09T13:09:39.000Z</time>
      </trkpt>
      <trkpt lat="44.34433" lon="6.85261">
        <ele>2612.3999023438</ele>
        <time>2021-05-09T13:09:43.000Z</time>
      </trkpt>
      <trkpt lat="44.34436" lon="6.85256">
        <ele>2611.3999023438</ele>
        <time>2021-05-09T13:09:51.000Z</time>
      </trkpt>
      <trkpt lat="44.34435" lon="6.85255">
        <ele>2610.3999023438</ele>
        <time>2021-05-09T13:09:53.000Z</time>
      </trkpt>
      <trkpt lat="44.34438" lon="6.85254">
        <ele>2610</ele>
        <time>2021-05-09T13:10:01.000Z</time>
      </trkpt>
      <trkpt lat="44.34431" lon="6.85247">
        <ele>2609.1999511719</ele>
        <time>2021-05-09T13:10:08.000Z</time>
      </trkpt>
      <trkpt lat="44.3443" lon="6.85247">
        <ele>2608.8000488281</ele>
        <time>2021-05-09T13:10:09.000Z</time>
      </trkpt>
      <trkpt lat="44.3443" lon="6.85247">
        <ele>2607.8000488281</ele>
        <time>2021-05-09T13:10:11.000Z</time>
      </trkpt>
      <trkpt lat="44.34431" lon="6.85246">
        <ele>2607</ele>
        <time>2021-05-09T13:10:19.000Z</time>
      </trkpt>
      <trkpt lat="44.3444" lon="6.85252">
        <ele>2607.6000976562</ele>
        <time>2021-05-09T13:10:34.000Z</time>
      </trkpt>
      <trkpt lat="44.34448" lon="6.85259">
        <ele>2607.3999023438</ele>
        <time>2021-05-09T13:10:38.000Z</time>
      </trkpt>
      <trkpt lat="44.34443" lon="6.85257">
        <ele>2607.1999511719</ele>
        <time>2021-05-09T13:10:41.000Z</time>
      </trkpt>
      <trkpt lat="44.34438" lon="6.85256">
        <ele>2607</ele>
        <time>2021-05-09T13:10:51.000Z</time>
      </trkpt>
      <trkpt lat="44.34438" lon="6.85256">
        <ele>2607</ele>
        <time>2021-05-09T13:10:53.000Z</time>
      </trkpt>
      <trkpt lat="44.34439" lon="6.85258">
        <ele>2607.1999511719</ele>
        <time>2021-05-09T13:10:59.000Z</time>
      </trkpt>
      <trkpt lat="44.34437" lon="6.85254">
        <ele>2607</ele>
        <time>2021-05-09T13:11:05.000Z</time>
      </trkpt>
      <trkpt lat="44.3443" lon="6.85246">
        <ele>2606.8000488281</ele>
        <time>2021-05-09T13:11:08.000Z</time>
      </trkpt>
      <trkpt lat="44.34427" lon="6.85244">
        <ele>2606.8000488281</ele>
        <time>2021-05-09T13:11:09.000Z</time>
      </trkpt>
      <trkpt lat="44.34421" lon="6.85239">
        <ele>2606.6000976562</ele>
        <time>2021-05-09T13:11:11.000Z</time>
      </trkpt>
      <trkpt lat="44.34418" lon="6.85236">
        <ele>2605.6000976562</ele>
        <time>2021-05-09T13:11:13.000Z</time>
      </trkpt>
      <trkpt lat="44.34418" lon="6.85236">
        <ele>2605.1999511719</ele>
        <time>2021-05-09T13:11:14.000Z</time>
      </trkpt>
      <trkpt lat="44.34418" lon="6.85236">
        <ele>2604.6000976562</ele>
        <time>2021-05-09T13:11:17.000Z</time>
      </trkpt>
      <trkpt lat="44.34416" lon="6.85232">
        <ele>2603.8000488281</ele>
        <time>2021-05-09T13:11:20.000Z</time>
      </trkpt>
      <trkpt lat="44.34417" lon="6.85227">
        <ele>2603.1999511719</ele>
        <time>2021-05-09T13:11:22.000Z</time>
      </trkpt>
      <trkpt lat="44.34419" lon="6.85226">
        <ele>2601.8000488281</ele>
        <time>2021-05-09T13:11:24.000Z</time>
      </trkpt>
      <trkpt lat="44.3442" lon="6.85226">
        <ele>2600.6000976562</ele>
        <time>2021-05-09T13:11:26.000Z</time>
      </trkpt>
      <trkpt lat="44.34429" lon="6.85231">
        <ele>2599.3999023438</ele>
        <time>2021-05-09T13:11:40.000Z</time>
      </trkpt>
      <trkpt lat="44.34424" lon="6.85224">
        <ele>2599</ele>
        <time>2021-05-09T13:11:42.000Z</time>
      </trkpt>
      <trkpt lat="44.34421" lon="6.85222">
        <ele>2598.3999023438</ele>
        <time>2021-05-09T13:11:44.000Z</time>
      </trkpt>
      <trkpt lat="44.34418" lon="6.8522">
        <ele>2597.3999023438</ele>
        <time>2021-05-09T13:11:48.000Z</time>
      </trkpt>
      <trkpt lat="44.34418" lon="6.85214">
        <ele>2596.1999511719</ele>
        <time>2021-05-09T13:11:54.000Z</time>
      </trkpt>
      <trkpt lat="44.34424" lon="6.8521">
        <ele>2594</ele>
        <time>2021-05-09T13:11:56.000Z</time>
      </trkpt>
      <trkpt lat="44.34426" lon="6.8521">
        <ele>2592.8000488281</ele>
        <time>2021-05-09T13:11:57.000Z</time>
      </trkpt>
      <trkpt lat="44.34426" lon="6.85211">
        <ele>2592</ele>
        <time>2021-05-09T13:11:58.000Z</time>
      </trkpt>
      <trkpt lat="44.34426" lon="6.85211">
        <ele>2591.6000976562</ele>
        <time>2021-05-09T13:11:59.000Z</time>
      </trkpt>
      <trkpt lat="44.34426" lon="6.85222">
        <ele>2590.8000488281</ele>
        <time>2021-05-09T13:12:13.000Z</time>
      </trkpt>
      <trkpt lat="44.34425" lon="6.85222">
        <ele>2590.6000976562</ele>
        <time>2021-05-09T13:12:15.000Z</time>
      </trkpt>
      <trkpt lat="44.34424" lon="6.85217">
        <ele>2589.6000976562</ele>
        <time>2021-05-09T13:13:05.000Z</time>
      </trkpt>
      <trkpt lat="44.34425" lon="6.85201">
        <ele>2588.3999023438</ele>
        <time>2021-05-09T13:13:11.000Z</time>
      </trkpt>
      <trkpt lat="44.34426" lon="6.852">
        <ele>2587.1999511719</ele>
        <time>2021-05-09T13:13:14.000Z</time>
      </trkpt>
      <trkpt lat="44.34424" lon="6.85198">
        <ele>2586.1999511719</ele>
        <time>2021-05-09T13:13:17.000Z</time>
      </trkpt>
      <trkpt lat="44.34424" lon="6.85199">
        <ele>2586.1999511719</ele>
        <time>2021-05-09T13:13:18.000Z</time>
      </trkpt>
      <trkpt lat="44.34425" lon="6.85199">
        <ele>2586</ele>
        <time>2021-05-09T13:13:19.000Z</time>
      </trkpt>
      <trkpt lat="44.3442" lon="6.85202">
        <ele>2585.3999023438</ele>
        <time>2021-05-09T13:13:41.000Z</time>
      </trkpt>
      <trkpt lat="44.34417" lon="6.85199">
        <ele>2585</ele>
        <time>2021-05-09T13:13:42.000Z</time>
      </trkpt>
      <trkpt lat="44.34416" lon="6.85198">
        <ele>2584.8000488281</ele>
        <time>2021-05-09T13:13:43.000Z</time>
      </trkpt>
      <trkpt lat="44.34417" lon="6.85197">
        <ele>2583.1999511719</ele>
        <time>2021-05-09T13:13:45.000Z</time>
      </trkpt>
      <trkpt lat="44.34414" lon="6.85195">
        <ele>2581.8000488281</ele>
        <time>2021-05-09T13:13:47.000Z</time>
      </trkpt>
      <trkpt lat="44.34416" lon="6.85187">
        <ele>2581</ele>
        <time>2021-05-09T13:13:49.000Z</time>
      </trkpt>
      <trkpt lat="44.34418" lon="6.85183">
        <ele>2580.1999511719</ele>
        <time>2021-05-09T13:13:50.000Z</time>
      </trkpt>
      <trkpt lat="44.34421" lon="6.85182">
        <ele>2579.1999511719</ele>
        <time>2021-05-09T13:13:51.000Z</time>
      </trkpt>
      <trkpt lat="44.34422" lon="6.85182">
        <ele>2578</ele>
        <time>2021-05-09T13:13:52.000Z</time>
      </trkpt>
      <trkpt lat="44.34424" lon="6.85183">
        <ele>2576.8000488281</ele>
        <time>2021-05-09T13:13:54.000Z</time>
      </trkpt>
      <trkpt lat="44.34424" lon="6.85184">
        <ele>2576.3999023438</ele>
        <time>2021-05-09T13:13:55.000Z</time>
      </trkpt>
      <trkpt lat="44.34426" lon="6.85185">
        <ele>2575.6000976562</ele>
        <time>2021-05-09T13:13:57.000Z</time>
      </trkpt>
      <trkpt lat="44.34425" lon="6.85184">
        <ele>2575.3999023438</ele>
        <time>2021-05-09T13:14:05.000Z</time>
      </trkpt>
      <trkpt lat="44.34422" lon="6.85193">
        <ele>2576</ele>
        <time>2021-05-09T13:14:36.000Z</time>
      </trkpt>
      <trkpt lat="44.34422" lon="6.85189">
        <ele>2576.1999511719</ele>
        <time>2021-05-09T13:14:41.000Z</time>
      </trkpt>
      <trkpt lat="44.34422" lon="6.85183">
        <ele>2575.6000976562</ele>
        <time>2021-05-09T13:14:48.000Z</time>
      </trkpt>
      <trkpt lat="44.34422" lon="6.85183">
        <ele>2575.6000976562</ele>
        <time>2021-05-09T13:14:49.000Z</time>
      </trkpt>
      <trkpt lat="44.34418" lon="6.85173">
        <ele>2574.8000488281</ele>
        <time>2021-05-09T13:14:57.000Z</time>
      </trkpt>
      <trkpt lat="44.34419" lon="6.85174">
        <ele>2574</ele>
        <time>2021-05-09T13:14:58.000Z</time>
      </trkpt>
      <trkpt lat="44.34419" lon="6.85174">
        <ele>2572.8000488281</ele>
        <time>2021-05-09T13:15:00.000Z</time>
      </trkpt>
      <trkpt lat="44.3442" lon="6.85174">
        <ele>2571.8000488281</ele>
        <time>2021-05-09T13:15:07.000Z</time>
      </trkpt>
      <trkpt lat="44.34423" lon="6.85161">
        <ele>2570.8000488281</ele>
        <time>2021-05-09T13:15:11.000Z</time>
      </trkpt>
      <trkpt lat="44.34426" lon="6.8516">
        <ele>2570</ele>
        <time>2021-05-09T13:15:12.000Z</time>
      </trkpt>
      <trkpt lat="44.34428" lon="6.8516">
        <ele>2568.3999023438</ele>
        <time>2021-05-09T13:15:14.000Z</time>
      </trkpt>
      <trkpt lat="44.34429" lon="6.8516">
        <ele>2567.1999511719</ele>
        <time>2021-05-09T13:15:16.000Z</time>
      </trkpt>
      <trkpt lat="44.34426" lon="6.85157">
        <ele>2566.1999511719</ele>
        <time>2021-05-09T13:15:21.000Z</time>
      </trkpt>
      <trkpt lat="44.34426" lon="6.85157">
        <ele>2566</ele>
        <time>2021-05-09T13:15:22.000Z</time>
      </trkpt>
      <trkpt lat="44.34426" lon="6.85155">
        <ele>2564.8000488281</ele>
        <time>2021-05-09T13:15:24.000Z</time>
      </trkpt>
      <trkpt lat="44.3443" lon="6.8515">
        <ele>2563.8000488281</ele>
        <time>2021-05-09T13:15:26.000Z</time>
      </trkpt>
      <trkpt lat="44.34432" lon="6.8515">
        <ele>2563</ele>
        <time>2021-05-09T13:15:27.000Z</time>
      </trkpt>
      <trkpt lat="44.34434" lon="6.85151">
        <ele>2562</ele>
        <time>2021-05-09T13:15:28.000Z</time>
      </trkpt>
      <trkpt lat="44.34435" lon="6.85151">
        <ele>2560.8000488281</ele>
        <time>2021-05-09T13:15:29.000Z</time>
      </trkpt>
      <trkpt lat="44.34436" lon="6.85152">
        <ele>2559.6000976562</ele>
        <time>2021-05-09T13:15:31.000Z</time>
      </trkpt>
      <trkpt lat="44.34436" lon="6.85155">
        <ele>2559</ele>
        <time>2021-05-09T13:15:49.000Z</time>
      </trkpt>
      <trkpt lat="44.34435" lon="6.85157">
        <ele>2560.8000488281</ele>
        <time>2021-05-09T13:15:59.000Z</time>
      </trkpt>
      <trkpt lat="44.34435" lon="6.85155">
        <ele>2561</ele>
        <time>2021-05-09T13:16:04.000Z</time>
      </trkpt>
      <trkpt lat="44.34435" lon="6.85154">
        <ele>2560.8000488281</ele>
        <time>2021-05-09T13:16:07.000Z</time>
      </trkpt>
      <trkpt lat="44.34432" lon="6.85153">
        <ele>2561</ele>
        <time>2021-05-09T13:16:12.000Z</time>
      </trkpt>
      <trkpt lat="44.34414" lon="6.85161">
        <ele>2560.1999511719</ele>
        <time>2021-05-09T13:16:25.000Z</time>
      </trkpt>
      <trkpt lat="44.34411" lon="6.85164">
        <ele>2560.1999511719</ele>
        <time>2021-05-09T13:16:26.000Z</time>
      </trkpt>
      <trkpt lat="44.34407" lon="6.85166">
        <ele>2560.1999511719</ele>
        <time>2021-05-09T13:16:27.000Z</time>
      </trkpt>
      <trkpt lat="44.34404" lon="6.85166">
        <ele>2560.1999511719</ele>
        <time>2021-05-09T13:16:28.000Z</time>
      </trkpt>
      <trkpt lat="44.34402" lon="6.85166">
        <ele>2560.3999023438</ele>
        <time>2021-05-09T13:16:30.000Z</time>
      </trkpt>
      <trkpt lat="44.34402" lon="6.85164">
        <ele>2560.3999023438</ele>
        <time>2021-05-09T13:16:36.000Z</time>
      </trkpt>
      <trkpt lat="44.34404" lon="6.85163">
        <ele>2560.3999023438</ele>
        <time>2021-05-09T13:16:37.000Z</time>
      </trkpt>
      <trkpt lat="44.34417" lon="6.85165">
        <ele>2560.6000976562</ele>
        <time>2021-05-09T13:16:41.000Z</time>
      </trkpt>
      <trkpt lat="44.34419" lon="6.85165">
        <ele>2560.3999023438</ele>
        <time>2021-05-09T13:16:42.000Z</time>
      </trkpt>
      <trkpt lat="44.34422" lon="6.85163">
        <ele>2560.3999023438</ele>
        <time>2021-05-09T13:16:44.000Z</time>
      </trkpt>
      <trkpt lat="44.34426" lon="6.85161">
        <ele>2560.1999511719</ele>
        <time>2021-05-09T13:16:47.000Z</time>
      </trkpt>
      <trkpt lat="44.34428" lon="6.85161">
        <ele>2560.1999511719</ele>
        <time>2021-05-09T13:16:48.000Z</time>
      </trkpt>
      <trkpt lat="44.34433" lon="6.85159">
        <ele>2560.1999511719</ele>
        <time>2021-05-09T13:16:50.000Z</time>
      </trkpt>
      <trkpt lat="44.34435" lon="6.85159">
        <ele>2560</ele>
        <time>2021-05-09T13:16:51.000Z</time>
      </trkpt>
      <trkpt lat="44.34438" lon="6.85158">
        <ele>2559.6000976562</ele>
        <time>2021-05-09T13:16:52.000Z</time>
      </trkpt>
      <trkpt lat="44.34445" lon="6.85157">
        <ele>2558</ele>
        <time>2021-05-09T13:16:55.000Z</time>
      </trkpt>
      <trkpt lat="44.34449" lon="6.85154">
        <ele>2557</ele>
        <time>2021-05-09T13:16:57.000Z</time>
      </trkpt>
      <trkpt lat="44.3445" lon="6.85153">
        <ele>2555.3999023438</ele>
        <time>2021-05-09T13:16:59.000Z</time>
      </trkpt>
      <trkpt lat="44.34449" lon="6.85146">
        <ele>2554</ele>
        <time>2021-05-09T13:17:01.000Z</time>
      </trkpt>
      <trkpt lat="44.34445" lon="6.85137">
        <ele>2552.6000976562</ele>
        <time>2021-05-09T13:17:04.000Z</time>
      </trkpt>
      <trkpt lat="44.34447" lon="6.85134">
        <ele>2552</ele>
        <time>2021-05-09T13:17:05.000Z</time>
      </trkpt>
      <trkpt lat="44.34453" lon="6.85132">
        <ele>2551</ele>
        <time>2021-05-09T13:17:07.000Z</time>
      </trkpt>
      <trkpt lat="44.34456" lon="6.85133">
        <ele>2549.3999023438</ele>
        <time>2021-05-09T13:17:10.000Z</time>
      </trkpt>
      <trkpt lat="44.34457" lon="6.85133">
        <ele>2547.8000488281</ele>
        <time>2021-05-09T13:17:12.000Z</time>
      </trkpt>
      <trkpt lat="44.34461" lon="6.85132">
        <ele>2546.6000976562</ele>
        <time>2021-05-09T13:17:14.000Z</time>
      </trkpt>
      <trkpt lat="44.34463" lon="6.85131">
        <ele>2546.1999511719</ele>
        <time>2021-05-09T13:17:15.000Z</time>
      </trkpt>
      <trkpt lat="44.34464" lon="6.85131">
        <ele>2545.1999511719</ele>
        <time>2021-05-09T13:17:17.000Z</time>
      </trkpt>
      <trkpt lat="44.34468" lon="6.85129">
        <ele>2544</ele>
        <time>2021-05-09T13:17:20.000Z</time>
      </trkpt>
      <trkpt lat="44.34475" lon="6.85124">
        <ele>2543</ele>
        <time>2021-05-09T13:17:23.000Z</time>
      </trkpt>
      <trkpt lat="44.34477" lon="6.85122">
        <ele>2541.3999023438</ele>
        <time>2021-05-09T13:17:25.000Z</time>
      </trkpt>
      <trkpt lat="44.34478" lon="6.85122">
        <ele>2540.6000976562</ele>
        <time>2021-05-09T13:17:26.000Z</time>
      </trkpt>
      <trkpt lat="44.34478" lon="6.85122">
        <ele>2539.8000488281</ele>
        <time>2021-05-09T13:17:27.000Z</time>
      </trkpt>
      <trkpt lat="44.34482" lon="6.85119">
        <ele>2538.8000488281</ele>
        <time>2021-05-09T13:17:30.000Z</time>
      </trkpt>
      <trkpt lat="44.34482" lon="6.85119">
        <ele>2538.8000488281</ele>
        <time>2021-05-09T13:17:31.000Z</time>
      </trkpt>
      <trkpt lat="44.34484" lon="6.85118">
        <ele>2538</ele>
        <time>2021-05-09T13:17:33.000Z</time>
      </trkpt>
      <trkpt lat="44.34485" lon="6.85118">
        <ele>2537.6000976562</ele>
        <time>2021-05-09T13:17:34.000Z</time>
      </trkpt>
      <trkpt lat="44.34482" lon="6.85115">
        <ele>2537.3999023438</ele>
        <time>2021-05-09T13:17:35.000Z</time>
      </trkpt>
      <trkpt lat="44.34477" lon="6.85111">
        <ele>2536.3999023438</ele>
        <time>2021-05-09T13:17:38.000Z</time>
      </trkpt>
      <trkpt lat="44.34476" lon="6.8511">
        <ele>2534.6000976562</ele>
        <time>2021-05-09T13:17:40.000Z</time>
      </trkpt>
      <trkpt lat="44.34476" lon="6.85109">
        <ele>2533.1999511719</ele>
        <time>2021-05-09T13:17:42.000Z</time>
      </trkpt>
      <trkpt lat="44.34475" lon="6.85108">
        <ele>2534</ele>
        <time>2021-05-09T13:17:48.000Z</time>
      </trkpt>
      <trkpt lat="44.34475" lon="6.85108">
        <ele>2534.1999511719</ele>
        <time>2021-05-09T13:17:49.000Z</time>
      </trkpt>
      <trkpt lat="44.34475" lon="6.85107">
        <ele>2533.1999511719</ele>
        <time>2021-05-09T13:17:55.000Z</time>
      </trkpt>
      <trkpt lat="44.34471" lon="6.85106">
        <ele>2533.3999023438</ele>
        <time>2021-05-09T13:18:03.000Z</time>
      </trkpt>
      <trkpt lat="44.34472" lon="6.85108">
        <ele>2533.1999511719</ele>
        <time>2021-05-09T13:18:14.000Z</time>
      </trkpt>
      <trkpt lat="44.34472" lon="6.85109">
        <ele>2533.3999023438</ele>
        <time>2021-05-09T13:18:23.000Z</time>
      </trkpt>
      <trkpt lat="44.34472" lon="6.85109">
        <ele>2533.8000488281</ele>
        <time>2021-05-09T13:18:26.000Z</time>
      </trkpt>
      <trkpt lat="44.34471" lon="6.85109">
        <ele>2534</ele>
        <time>2021-05-09T13:18:28.000Z</time>
      </trkpt>
      <trkpt lat="44.34472" lon="6.85108">
        <ele>2534</ele>
        <time>2021-05-09T13:18:31.000Z</time>
      </trkpt>
      <trkpt lat="44.34472" lon="6.85108">
        <ele>2534</ele>
        <time>2021-05-09T13:18:32.000Z</time>
      </trkpt>
      <trkpt lat="44.34472" lon="6.85107">
        <ele>2533.1999511719</ele>
        <time>2021-05-09T13:18:35.000Z</time>
      </trkpt>
      <trkpt lat="44.34472" lon="6.85107">
        <ele>2532.6000976562</ele>
        <time>2021-05-09T13:18:37.000Z</time>
      </trkpt>
      <trkpt lat="44.34471" lon="6.85105">
        <ele>2532.3999023438</ele>
        <time>2021-05-09T13:18:41.000Z</time>
      </trkpt>
      <trkpt lat="44.3447" lon="6.85104">
        <ele>2532.3999023438</ele>
        <time>2021-05-09T13:18:42.000Z</time>
      </trkpt>
      <trkpt lat="44.34467" lon="6.851">
        <ele>2532.3999023438</ele>
        <time>2021-05-09T13:18:44.000Z</time>
      </trkpt>
      <trkpt lat="44.34472" lon="6.85093">
        <ele>2531.6000976562</ele>
        <time>2021-05-09T13:18:46.000Z</time>
      </trkpt>
      <trkpt lat="44.3448" lon="6.85088">
        <ele>2529.8000488281</ele>
        <time>2021-05-09T13:18:48.000Z</time>
      </trkpt>
      <trkpt lat="44.34483" lon="6.85087">
        <ele>2528.6000976562</ele>
        <time>2021-05-09T13:18:49.000Z</time>
      </trkpt>
      <trkpt lat="44.34485" lon="6.85084">
        <ele>2527.3999023438</ele>
        <time>2021-05-09T13:18:50.000Z</time>
      </trkpt>
      <trkpt lat="44.34489" lon="6.85079">
        <ele>2525.6000976562</ele>
        <time>2021-05-09T13:18:52.000Z</time>
      </trkpt>
      <trkpt lat="44.34489" lon="6.85075">
        <ele>2524.8000488281</ele>
        <time>2021-05-09T13:18:53.000Z</time>
      </trkpt>
      <trkpt lat="44.34487" lon="6.85074">
        <ele>2524.1999511719</ele>
        <time>2021-05-09T13:18:54.000Z</time>
      </trkpt>
      <trkpt lat="44.3448" lon="6.85069">
        <ele>2522.3999023438</ele>
        <time>2021-05-09T13:18:56.000Z</time>
      </trkpt>
      <trkpt lat="44.34477" lon="6.85065">
        <ele>2521.3999023438</ele>
        <time>2021-05-09T13:18:57.000Z</time>
      </trkpt>
      <trkpt lat="44.34473" lon="6.85061">
        <ele>2520.6000976562</ele>
        <time>2021-05-09T13:18:58.000Z</time>
      </trkpt>
      <trkpt lat="44.3447" lon="6.8506">
        <ele>2519.8000488281</ele>
        <time>2021-05-09T13:18:59.000Z</time>
      </trkpt>
      <trkpt lat="44.34467" lon="6.85059">
        <ele>2518.8000488281</ele>
        <time>2021-05-09T13:19:00.000Z</time>
      </trkpt>
      <trkpt lat="44.34465" lon="6.85057">
        <ele>2517.8000488281</ele>
        <time>2021-05-09T13:19:01.000Z</time>
      </trkpt>
      <trkpt lat="44.34463" lon="6.85055">
        <ele>2516.3999023438</ele>
        <time>2021-05-09T13:19:03.000Z</time>
      </trkpt>
      <trkpt lat="44.34462" lon="6.85056">
        <ele>2516</ele>
        <time>2021-05-09T13:19:04.000Z</time>
      </trkpt>
      <trkpt lat="44.3446" lon="6.85055">
        <ele>2515.6000976562</ele>
        <time>2021-05-09T13:19:06.000Z</time>
      </trkpt>
      <trkpt lat="44.34456" lon="6.85053">
        <ele>2515.3999023438</ele>
        <time>2021-05-09T13:19:10.000Z</time>
      </trkpt>
      <trkpt lat="44.34446" lon="6.85049">
        <ele>2514</ele>
        <time>2021-05-09T13:19:16.000Z</time>
      </trkpt>
      <trkpt lat="44.34438" lon="6.85044">
        <ele>2512.8000488281</ele>
        <time>2021-05-09T13:19:19.000Z</time>
      </trkpt>
      <trkpt lat="44.34434" lon="6.8504">
        <ele>2511.3999023438</ele>
        <time>2021-05-09T13:19:22.000Z</time>
      </trkpt>
      <trkpt lat="44.34429" lon="6.85034">
        <ele>2510.3999023438</ele>
        <time>2021-05-09T13:19:24.000Z</time>
      </trkpt>
      <trkpt lat="44.34432" lon="6.85028">
        <ele>2509.3999023438</ele>
        <time>2021-05-09T13:19:25.000Z</time>
      </trkpt>
      <trkpt lat="44.34433" lon="6.85025">
        <ele>2507.8000488281</ele>
        <time>2021-05-09T13:19:27.000Z</time>
      </trkpt>
      <trkpt lat="44.34434" lon="6.85019">
        <ele>2507.1999511719</ele>
        <time>2021-05-09T13:19:28.000Z</time>
      </trkpt>
      <trkpt lat="44.34429" lon="6.85007">
        <ele>2506.3999023438</ele>
        <time>2021-05-09T13:19:29.000Z</time>
      </trkpt>
      <trkpt lat="44.34424" lon="6.85002">
        <ele>2504.8000488281</ele>
        <time>2021-05-09T13:19:31.000Z</time>
      </trkpt>
      <trkpt lat="44.34415" lon="6.84996">
        <ele>2503.3999023438</ele>
        <time>2021-05-09T13:19:33.000Z</time>
      </trkpt>
      <trkpt lat="44.34406" lon="6.84988">
        <ele>2502.1999511719</ele>
        <time>2021-05-09T13:19:36.000Z</time>
      </trkpt>
      <trkpt lat="44.34403" lon="6.84986">
        <ele>2501.1999511719</ele>
        <time>2021-05-09T13:19:38.000Z</time>
      </trkpt>
      <trkpt lat="44.34401" lon="6.84987">
        <ele>2500.8000488281</ele>
        <time>2021-05-09T13:19:39.000Z</time>
      </trkpt>
      <trkpt lat="44.34395" lon="6.84994">
        <ele>2499.8000488281</ele>
        <time>2021-05-09T13:19:47.000Z</time>
      </trkpt>
      <trkpt lat="44.34395" lon="6.84996">
        <ele>2499.1999511719</ele>
        <time>2021-05-09T13:19:51.000Z</time>
      </trkpt>
      <trkpt lat="44.34397" lon="6.84999">
        <ele>2500.1999511719</ele>
        <time>2021-05-09T13:20:03.000Z</time>
      </trkpt>
      <trkpt lat="44.34394" lon="6.85">
        <ele>2499.8000488281</ele>
        <time>2021-05-09T13:20:13.000Z</time>
      </trkpt>
      <trkpt lat="44.34393" lon="6.84999">
        <ele>2499.6000976562</ele>
        <time>2021-05-09T13:20:18.000Z</time>
      </trkpt>
      <trkpt lat="44.34393" lon="6.84999">
        <ele>2499.3999023438</ele>
        <time>2021-05-09T13:20:19.000Z</time>
      </trkpt>
      <trkpt lat="44.34383" lon="6.85003">
        <ele>2498.6000976562</ele>
        <time>2021-05-09T13:20:25.000Z</time>
      </trkpt>
      <trkpt lat="44.34375" lon="6.84996">
        <ele>2496.8000488281</ele>
        <time>2021-05-09T13:20:27.000Z</time>
      </trkpt>
      <trkpt lat="44.34375" lon="6.84996">
        <ele>2495.3999023438</ele>
        <time>2021-05-09T13:20:28.000Z</time>
      </trkpt>
      <trkpt lat="44.34369" lon="6.84997">
        <ele>2494.3999023438</ele>
        <time>2021-05-09T13:20:29.000Z</time>
      </trkpt>
      <trkpt lat="44.34366" lon="6.84996">
        <ele>2492.1999511719</ele>
        <time>2021-05-09T13:20:31.000Z</time>
      </trkpt>
      <trkpt lat="44.34362" lon="6.84994">
        <ele>2490.8000488281</ele>
        <time>2021-05-09T13:20:32.000Z</time>
      </trkpt>
      <trkpt lat="44.34358" lon="6.84991">
        <ele>2488.8000488281</ele>
        <time>2021-05-09T13:20:33.000Z</time>
      </trkpt>
      <trkpt lat="44.34356" lon="6.84987">
        <ele>2487.1999511719</ele>
        <time>2021-05-09T13:20:34.000Z</time>
      </trkpt>
      <trkpt lat="44.34353" lon="6.84985">
        <ele>2485.8000488281</ele>
        <time>2021-05-09T13:20:35.000Z</time>
      </trkpt>
      <trkpt lat="44.3435" lon="6.84982">
        <ele>2484.8000488281</ele>
        <time>2021-05-09T13:20:36.000Z</time>
      </trkpt>
      <trkpt lat="44.34348" lon="6.84979">
        <ele>2483.6000976562</ele>
        <time>2021-05-09T13:20:37.000Z</time>
      </trkpt>
      <trkpt lat="44.34346" lon="6.84975">
        <ele>2482.6000976562</ele>
        <time>2021-05-09T13:20:38.000Z</time>
      </trkpt>
      <trkpt lat="44.34344" lon="6.84974">
        <ele>2481.6000976562</ele>
        <time>2021-05-09T13:20:39.000Z</time>
      </trkpt>
      <trkpt lat="44.34342" lon="6.84975">
        <ele>2481</ele>
        <time>2021-05-09T13:20:40.000Z</time>
      </trkpt>
      <trkpt lat="44.34335" lon="6.8498">
        <ele>2479.1999511719</ele>
        <time>2021-05-09T13:20:42.000Z</time>
      </trkpt>
      <trkpt lat="44.34331" lon="6.84978">
        <ele>2477.1999511719</ele>
        <time>2021-05-09T13:20:43.000Z</time>
      </trkpt>
      <trkpt lat="44.34328" lon="6.84976">
        <ele>2474.8000488281</ele>
        <time>2021-05-09T13:20:44.000Z</time>
      </trkpt>
      <trkpt lat="44.34323" lon="6.84979">
        <ele>2472.6000976562</ele>
        <time>2021-05-09T13:20:45.000Z</time>
      </trkpt>
      <trkpt lat="44.34319" lon="6.84983">
        <ele>2470.8000488281</ele>
        <time>2021-05-09T13:20:46.000Z</time>
      </trkpt>
      <trkpt lat="44.34314" lon="6.84987">
        <ele>2469</ele>
        <time>2021-05-09T13:20:47.000Z</time>
      </trkpt>
      <trkpt lat="44.3431" lon="6.8499">
        <ele>2467.3999023438</ele>
        <time>2021-05-09T13:20:48.000Z</time>
      </trkpt>
      <trkpt lat="44.34303" lon="6.84994">
        <ele>2465.6000976562</ele>
        <time>2021-05-09T13:20:50.000Z</time>
      </trkpt>
      <trkpt lat="44.34298" lon="6.84996">
        <ele>2464.3999023438</ele>
        <time>2021-05-09T13:20:52.000Z</time>
      </trkpt>
      <trkpt lat="44.34295" lon="6.84998">
        <ele>2464</ele>
        <time>2021-05-09T13:20:53.000Z</time>
      </trkpt>
      <trkpt lat="44.34292" lon="6.84998">
        <ele>2463.3999023438</ele>
        <time>2021-05-09T13:20:56.000Z</time>
      </trkpt>
      <trkpt lat="44.34278" lon="6.84995">
        <ele>2462.3999023438</ele>
        <time>2021-05-09T13:21:00.000Z</time>
      </trkpt>
      <trkpt lat="44.34262" lon="6.84994">
        <ele>2461</ele>
        <time>2021-05-09T13:21:04.000Z</time>
      </trkpt>
      <trkpt lat="44.34247" lon="6.84991">
        <ele>2459.6000976562</ele>
        <time>2021-05-09T13:21:07.000Z</time>
      </trkpt>
      <trkpt lat="44.34233" lon="6.84986">
        <ele>2458.1999511719</ele>
        <time>2021-05-09T13:21:10.000Z</time>
      </trkpt>
      <trkpt lat="44.34225" lon="6.84983">
        <ele>2456.6000976562</ele>
        <time>2021-05-09T13:21:12.000Z</time>
      </trkpt>
      <trkpt lat="44.34217" lon="6.84979">
        <ele>2455</ele>
        <time>2021-05-09T13:21:14.000Z</time>
      </trkpt>
      <trkpt lat="44.34213" lon="6.84978">
        <ele>2453.8000488281</ele>
        <time>2021-05-09T13:21:16.000Z</time>
      </trkpt>
      <trkpt lat="44.34206" lon="6.84975">
        <ele>2452.1999511719</ele>
        <time>2021-05-09T13:21:18.000Z</time>
      </trkpt>
      <trkpt lat="44.34204" lon="6.84974">
        <ele>2450.8000488281</ele>
        <time>2021-05-09T13:21:20.000Z</time>
      </trkpt>
      <trkpt lat="44.34201" lon="6.84974">
        <ele>2449.3999023438</ele>
        <time>2021-05-09T13:21:22.000Z</time>
      </trkpt>
      <trkpt lat="44.342" lon="6.84974">
        <ele>2448.6000976562</ele>
        <time>2021-05-09T13:21:26.000Z</time>
      </trkpt>
      <trkpt lat="44.34192" lon="6.84969">
        <ele>2449</ele>
        <time>2021-05-09T13:21:35.000Z</time>
      </trkpt>
      <trkpt lat="44.34187" lon="6.84964">
        <ele>2448</ele>
        <time>2021-05-09T13:21:38.000Z</time>
      </trkpt>
      <trkpt lat="44.34175" lon="6.84957">
        <ele>2446.8000488281</ele>
        <time>2021-05-09T13:21:41.000Z</time>
      </trkpt>
      <trkpt lat="44.34168" lon="6.84952">
        <ele>2445.8000488281</ele>
        <time>2021-05-09T13:21:42.000Z</time>
      </trkpt>
      <trkpt lat="44.34168" lon="6.84952">
        <ele>2444.6000976562</ele>
        <time>2021-05-09T13:21:43.000Z</time>
      </trkpt>
      <trkpt lat="44.3416" lon="6.84947">
        <ele>2443</ele>
        <time>2021-05-09T13:21:45.000Z</time>
      </trkpt>
      <trkpt lat="44.34156" lon="6.84945">
        <ele>2441.8000488281</ele>
        <time>2021-05-09T13:21:46.000Z</time>
      </trkpt>
      <trkpt lat="44.34152" lon="6.84944">
        <ele>2440.8000488281</ele>
        <time>2021-05-09T13:21:47.000Z</time>
      </trkpt>
      <trkpt lat="44.34147" lon="6.84946">
        <ele>2439.1999511719</ele>
        <time>2021-05-09T13:21:49.000Z</time>
      </trkpt>
      <trkpt lat="44.34147" lon="6.84947">
        <ele>2438.6000976562</ele>
        <time>2021-05-09T13:21:51.000Z</time>
      </trkpt>
      <trkpt lat="44.34147" lon="6.84944">
        <ele>2438.1999511719</ele>
        <time>2021-05-09T13:21:56.000Z</time>
      </trkpt>
      <trkpt lat="44.34144" lon="6.84943">
        <ele>2437.8000488281</ele>
        <time>2021-05-09T13:21:58.000Z</time>
      </trkpt>
      <trkpt lat="44.34139" lon="6.84939">
        <ele>2437.1999511719</ele>
        <time>2021-05-09T13:22:00.000Z</time>
      </trkpt>
      <trkpt lat="44.34135" lon="6.84935">
        <ele>2436.3999023438</ele>
        <time>2021-05-09T13:22:01.000Z</time>
      </trkpt>
      <trkpt lat="44.34132" lon="6.84929">
        <ele>2435.3999023438</ele>
        <time>2021-05-09T13:22:02.000Z</time>
      </trkpt>
      <trkpt lat="44.34129" lon="6.84923">
        <ele>2434.3999023438</ele>
        <time>2021-05-09T13:22:03.000Z</time>
      </trkpt>
      <trkpt lat="44.34126" lon="6.84918">
        <ele>2433.3999023438</ele>
        <time>2021-05-09T13:22:04.000Z</time>
      </trkpt>
      <trkpt lat="44.34122" lon="6.84914">
        <ele>2432.8000488281</ele>
        <time>2021-05-09T13:22:05.000Z</time>
      </trkpt>
      <trkpt lat="44.34115" lon="6.84911">
        <ele>2431.6000976562</ele>
        <time>2021-05-09T13:22:07.000Z</time>
      </trkpt>
      <trkpt lat="44.34109" lon="6.84916">
        <ele>2430.1999511719</ele>
        <time>2021-05-09T13:22:09.000Z</time>
      </trkpt>
      <trkpt lat="44.34105" lon="6.8492">
        <ele>2429</ele>
        <time>2021-05-09T13:22:11.000Z</time>
      </trkpt>
      <trkpt lat="44.34103" lon="6.84921">
        <ele>2428.6000976562</ele>
        <time>2021-05-09T13:22:12.000Z</time>
      </trkpt>
      <trkpt lat="44.34098" lon="6.84924">
        <ele>2427.3999023438</ele>
        <time>2021-05-09T13:22:14.000Z</time>
      </trkpt>
      <trkpt lat="44.34095" lon="6.84929">
        <ele>2425.8000488281</ele>
        <time>2021-05-09T13:22:16.000Z</time>
      </trkpt>
      <trkpt lat="44.3409" lon="6.84936">
        <ele>2424.8000488281</ele>
        <time>2021-05-09T13:22:19.000Z</time>
      </trkpt>
      <trkpt lat="44.34087" lon="6.84942">
        <ele>2423.6000976562</ele>
        <time>2021-05-09T13:22:22.000Z</time>
      </trkpt>
      <trkpt lat="44.34087" lon="6.84943">
        <ele>2423.1999511719</ele>
        <time>2021-05-09T13:22:23.000Z</time>
      </trkpt>
      <trkpt lat="44.34087" lon="6.84943">
        <ele>2422.6000976562</ele>
        <time>2021-05-09T13:22:25.000Z</time>
      </trkpt>
      <trkpt lat="44.34085" lon="6.84938">
        <ele>2421.3999023438</ele>
        <time>2021-05-09T13:22:35.000Z</time>
      </trkpt>
      <trkpt lat="44.34083" lon="6.84938">
        <ele>2421.1999511719</ele>
        <time>2021-05-09T13:22:36.000Z</time>
      </trkpt>
      <trkpt lat="44.34074" lon="6.84938">
        <ele>2419.8000488281</ele>
        <time>2021-05-09T13:22:39.000Z</time>
      </trkpt>
      <trkpt lat="44.34067" lon="6.8494">
        <ele>2418.3999023438</ele>
        <time>2021-05-09T13:22:41.000Z</time>
      </trkpt>
      <trkpt lat="44.34065" lon="6.84939">
        <ele>2416.8000488281</ele>
        <time>2021-05-09T13:22:43.000Z</time>
      </trkpt>
      <trkpt lat="44.34064" lon="6.84938">
        <ele>2415.6000976562</ele>
        <time>2021-05-09T13:22:46.000Z</time>
      </trkpt>
      <trkpt lat="44.34063" lon="6.84937">
        <ele>2415.3999023438</ele>
        <time>2021-05-09T13:22:47.000Z</time>
      </trkpt>
      <trkpt lat="44.34053" lon="6.84939">
        <ele>2413.6000976562</ele>
        <time>2021-05-09T13:22:51.000Z</time>
      </trkpt>
      <trkpt lat="44.3405" lon="6.84937">
        <ele>2412.3999023438</ele>
        <time>2021-05-09T13:22:52.000Z</time>
      </trkpt>
      <trkpt lat="44.34049" lon="6.84935">
        <ele>2411.3999023438</ele>
        <time>2021-05-09T13:22:53.000Z</time>
      </trkpt>
      <trkpt lat="44.34049" lon="6.84934">
        <ele>2410.6000976562</ele>
        <time>2021-05-09T13:22:54.000Z</time>
      </trkpt>
      <trkpt lat="44.34049" lon="6.84934">
        <ele>2410.1999511719</ele>
        <time>2021-05-09T13:22:55.000Z</time>
      </trkpt>
      <trkpt lat="44.34046" lon="6.84942">
        <ele>2409.1999511719</ele>
        <time>2021-05-09T13:22:59.000Z</time>
      </trkpt>
      <trkpt lat="44.34045" lon="6.8495">
        <ele>2408</ele>
        <time>2021-05-09T13:23:01.000Z</time>
      </trkpt>
      <trkpt lat="44.34044" lon="6.8496">
        <ele>2407</ele>
        <time>2021-05-09T13:23:04.000Z</time>
      </trkpt>
      <trkpt lat="44.34043" lon="6.84962">
        <ele>2406</ele>
        <time>2021-05-09T13:23:08.000Z</time>
      </trkpt>
      <trkpt lat="44.34037" lon="6.84963">
        <ele>2405.6000976562</ele>
        <time>2021-05-09T13:23:16.000Z</time>
      </trkpt>
      <trkpt lat="44.34034" lon="6.8496">
        <ele>2405.1999511719</ele>
        <time>2021-05-09T13:23:22.000Z</time>
      </trkpt>
      <trkpt lat="44.34033" lon="6.84958">
        <ele>2405</ele>
        <time>2021-05-09T13:23:25.000Z</time>
      </trkpt>
      <trkpt lat="44.34034" lon="6.84955">
        <ele>2404.3999023438</ele>
        <time>2021-05-09T13:23:39.000Z</time>
      </trkpt>
      <trkpt lat="44.34034" lon="6.84954">
        <ele>2403.8000488281</ele>
        <time>2021-05-09T13:23:44.000Z</time>
      </trkpt>
      <trkpt lat="44.34035" lon="6.84954">
        <ele>2403.6000976562</ele>
        <time>2021-05-09T13:23:56.000Z</time>
      </trkpt>
      <trkpt lat="44.34035" lon="6.84956">
        <ele>2402.8000488281</ele>
        <time>2021-05-09T13:24:04.000Z</time>
      </trkpt>
      <trkpt lat="44.34035" lon="6.84955">
        <ele>2402.1999511719</ele>
        <time>2021-05-09T13:24:07.000Z</time>
      </trkpt>
      <trkpt lat="44.34034" lon="6.84954">
        <ele>2402.1999511719</ele>
        <time>2021-05-09T13:24:12.000Z</time>
      </trkpt>
      <trkpt lat="44.34034" lon="6.84954">
        <ele>2402.8000488281</ele>
        <time>2021-05-09T13:24:15.000Z</time>
      </trkpt>
      <trkpt lat="44.34033" lon="6.84954">
        <ele>2403.6000976562</ele>
        <time>2021-05-09T13:24:25.000Z</time>
      </trkpt>
      <trkpt lat="44.3403" lon="6.84957">
        <ele>2403.1999511719</ele>
        <time>2021-05-09T13:24:32.000Z</time>
      </trkpt>
      <trkpt lat="44.34028" lon="6.84957">
        <ele>2403.1999511719</ele>
        <time>2021-05-09T13:24:34.000Z</time>
      </trkpt>
      <trkpt lat="44.34027" lon="6.84955">
        <ele>2403.1999511719</ele>
        <time>2021-05-09T13:24:36.000Z</time>
      </trkpt>
      <trkpt lat="44.34025" lon="6.84955">
        <ele>2403.1999511719</ele>
        <time>2021-05-09T13:24:44.000Z</time>
      </trkpt>
      <trkpt lat="44.34025" lon="6.84955">
        <ele>2403.6000976562</ele>
        <time>2021-05-09T13:24:50.000Z</time>
      </trkpt>
      <trkpt lat="44.34023" lon="6.84955">
        <ele>2403.3999023438</ele>
        <time>2021-05-09T13:25:04.000Z</time>
      </trkpt>
      <trkpt lat="44.34022" lon="6.84953">
        <ele>2403.1999511719</ele>
        <time>2021-05-09T13:25:07.000Z</time>
      </trkpt>
      <trkpt lat="44.34021" lon="6.84952">
        <ele>2402.8000488281</ele>
        <time>2021-05-09T13:25:09.000Z</time>
      </trkpt>
      <trkpt lat="44.3402" lon="6.84953">
        <ele>2403</ele>
        <time>2021-05-09T13:25:17.000Z</time>
      </trkpt>
      <trkpt lat="44.3402" lon="6.84954">
        <ele>2403</ele>
        <time>2021-05-09T13:25:20.000Z</time>
      </trkpt>
      <trkpt lat="44.34023" lon="6.84955">
        <ele>2403</ele>
        <time>2021-05-09T13:25:24.000Z</time>
      </trkpt>
      <trkpt lat="44.34023" lon="6.84955">
        <ele>2402.8000488281</ele>
        <time>2021-05-09T13:25:26.000Z</time>
      </trkpt>
      <trkpt lat="44.34023" lon="6.84955">
        <ele>2402.6000976562</ele>
        <time>2021-05-09T13:25:27.000Z</time>
      </trkpt>
      <trkpt lat="44.34023" lon="6.84956">
        <ele>2401.6000976562</ele>
        <time>2021-05-09T13:25:31.000Z</time>
      </trkpt>
      <trkpt lat="44.34025" lon="6.84956">
        <ele>2403</ele>
        <time>2021-05-09T13:25:35.000Z</time>
      </trkpt>
      <trkpt lat="44.34025" lon="6.84956">
        <ele>2403.3999023438</ele>
        <time>2021-05-09T13:25:37.000Z</time>
      </trkpt>
      <trkpt lat="44.34026" lon="6.84956">
        <ele>2403.1999511719</ele>
        <time>2021-05-09T13:25:43.000Z</time>
      </trkpt>
      <trkpt lat="44.34027" lon="6.84959">
        <ele>2403.6000976562</ele>
        <time>2021-05-09T13:25:52.000Z</time>
      </trkpt>
      <trkpt lat="44.34028" lon="6.8496">
        <ele>2403.6000976562</ele>
        <time>2021-05-09T13:25:57.000Z</time>
      </trkpt>
      <trkpt lat="44.34029" lon="6.8496">
        <ele>2403.6000976562</ele>
        <time>2021-05-09T13:26:08.000Z</time>
      </trkpt>
      <trkpt lat="44.34027" lon="6.84962">
        <ele>2403.8000488281</ele>
        <time>2021-05-09T13:26:15.000Z</time>
      </trkpt>
      <trkpt lat="44.34027" lon="6.84961">
        <ele>2403.8000488281</ele>
        <time>2021-05-09T13:26:18.000Z</time>
      </trkpt>
      <trkpt lat="44.34026" lon="6.84962">
        <ele>2404</ele>
        <time>2021-05-09T13:26:20.000Z</time>
      </trkpt>
      <trkpt lat="44.34026" lon="6.84962">
        <ele>2404</ele>
        <time>2021-05-09T13:26:21.000Z</time>
      </trkpt>
      <trkpt lat="44.34026" lon="6.84962">
        <ele>2404</ele>
        <time>2021-05-09T13:26:22.000Z</time>
      </trkpt>
      <trkpt lat="44.34025" lon="6.84962">
        <ele>2404.6000976562</ele>
        <time>2021-05-09T13:26:48.000Z</time>
      </trkpt>
      <trkpt lat="44.34025" lon="6.84961">
        <ele>2404.3999023438</ele>
        <time>2021-05-09T13:26:53.000Z</time>
      </trkpt>
      <trkpt lat="44.34025" lon="6.8496">
        <ele>2404.1999511719</ele>
        <time>2021-05-09T13:26:58.000Z</time>
      </trkpt>
      <trkpt lat="44.34026" lon="6.8496">
        <ele>2404.6000976562</ele>
        <time>2021-05-09T13:27:05.000Z</time>
      </trkpt>
      <trkpt lat="44.34026" lon="6.8496">
        <ele>2404.6000976562</ele>
        <time>2021-05-09T13:27:07.000Z</time>
      </trkpt>
      <trkpt lat="44.34026" lon="6.8496">
        <ele>2404.8000488281</ele>
        <time>2021-05-09T13:27:08.000Z</time>
      </trkpt>
      <trkpt lat="44.34025" lon="6.84961">
        <ele>2404.6000976562</ele>
        <time>2021-05-09T13:27:16.000Z</time>
      </trkpt>
      <trkpt lat="44.34028" lon="6.8496">
        <ele>2404.1999511719</ele>
        <time>2021-05-09T13:27:23.000Z</time>
      </trkpt>
      <trkpt lat="44.34032" lon="6.84957">
        <ele>2404.1999511719</ele>
        <time>2021-05-09T13:27:33.000Z</time>
      </trkpt>
      <trkpt lat="44.34028" lon="6.84955">
        <ele>2404.1999511719</ele>
        <time>2021-05-09T13:27:44.000Z</time>
      </trkpt>
      <trkpt lat="44.34027" lon="6.84955">
        <ele>2404</ele>
        <time>2021-05-09T13:27:48.000Z</time>
      </trkpt>
      <trkpt lat="44.34027" lon="6.84956">
        <ele>2404</ele>
        <time>2021-05-09T13:27:50.000Z</time>
      </trkpt>
      <trkpt lat="44.34022" lon="6.84958">
        <ele>2404.1999511719</ele>
        <time>2021-05-09T13:27:56.000Z</time>
      </trkpt>
      <trkpt lat="44.34021" lon="6.84959">
        <ele>2404</ele>
        <time>2021-05-09T13:27:59.000Z</time>
      </trkpt>
      <trkpt lat="44.34022" lon="6.8496">
        <ele>2403.8000488281</ele>
        <time>2021-05-09T13:28:02.000Z</time>
      </trkpt>
      <trkpt lat="44.3402" lon="6.84958">
        <ele>2403.8000488281</ele>
        <time>2021-05-09T13:28:03.000Z</time>
      </trkpt>
      <trkpt lat="44.34019" lon="6.84957">
        <ele>2404</ele>
        <time>2021-05-09T13:28:08.000Z</time>
      </trkpt>
      <trkpt lat="44.3402" lon="6.84958">
        <ele>2405</ele>
        <time>2021-05-09T13:28:17.000Z</time>
      </trkpt>
      <trkpt lat="44.34019" lon="6.84958">
        <ele>2404.1999511719</ele>
        <time>2021-05-09T13:28:27.000Z</time>
      </trkpt>
      <trkpt lat="44.34019" lon="6.84959">
        <ele>2404</ele>
        <time>2021-05-09T13:28:29.000Z</time>
      </trkpt>
      <trkpt lat="44.34019" lon="6.84959">
        <ele>2403.8000488281</ele>
        <time>2021-05-09T13:28:30.000Z</time>
      </trkpt>
      <trkpt lat="44.34019" lon="6.84959">
        <ele>2403.8000488281</ele>
        <time>2021-05-09T13:28:31.000Z</time>
      </trkpt>
      <trkpt lat="44.34018" lon="6.84959">
        <ele>2403.8000488281</ele>
        <time>2021-05-09T13:28:33.000Z</time>
      </trkpt>
      <trkpt lat="44.34016" lon="6.84958">
        <ele>2403.8000488281</ele>
        <time>2021-05-09T13:28:35.000Z</time>
      </trkpt>
      <trkpt lat="44.34014" lon="6.84956">
        <ele>2403.8000488281</ele>
        <time>2021-05-09T13:28:38.000Z</time>
      </trkpt>
      <trkpt lat="44.34012" lon="6.84955">
        <ele>2403.6000976562</ele>
        <time>2021-05-09T13:28:41.000Z</time>
      </trkpt>
      <trkpt lat="44.34011" lon="6.84956">
        <ele>2403.8000488281</ele>
        <time>2021-05-09T13:28:48.000Z</time>
      </trkpt>
      <trkpt lat="44.34008" lon="6.84954">
        <ele>2404.1999511719</ele>
        <time>2021-05-09T13:29:01.000Z</time>
      </trkpt>
      <trkpt lat="44.34008" lon="6.84954">
        <ele>2404.1999511719</ele>
        <time>2021-05-09T13:29:02.000Z</time>
      </trkpt>
      <trkpt lat="44.3401" lon="6.84955">
        <ele>2404</ele>
        <time>2021-05-09T13:29:06.000Z</time>
      </trkpt>
      <trkpt lat="44.34011" lon="6.84955">
        <ele>2403.8000488281</ele>
        <time>2021-05-09T13:29:08.000Z</time>
      </trkpt>
      <trkpt lat="44.3402" lon="6.84959">
        <ele>2403</ele>
        <time>2021-05-09T13:29:20.000Z</time>
      </trkpt>
      <trkpt lat="44.34027" lon="6.84958">
        <ele>2403.3999023438</ele>
        <time>2021-05-09T13:29:26.000Z</time>
      </trkpt>
      <trkpt lat="44.34024" lon="6.84959">
        <ele>2403.8000488281</ele>
        <time>2021-05-09T13:29:36.000Z</time>
      </trkpt>
      <trkpt lat="44.34023" lon="6.84959">
        <ele>2403.8000488281</ele>
        <time>2021-05-09T13:29:38.000Z</time>
      </trkpt>
      <trkpt lat="44.34022" lon="6.84959">
        <ele>2403.8000488281</ele>
        <time>2021-05-09T13:29:40.000Z</time>
      </trkpt>
      <trkpt lat="44.34021" lon="6.84958">
        <ele>2404</ele>
        <time>2021-05-09T13:29:44.000Z</time>
      </trkpt>
      <trkpt lat="44.34021" lon="6.84958">
        <ele>2404.3999023438</ele>
        <time>2021-05-09T13:29:46.000Z</time>
      </trkpt>
      <trkpt lat="44.34026" lon="6.84955">
        <ele>2404.8000488281</ele>
        <time>2021-05-09T13:29:54.000Z</time>
      </trkpt>
      <trkpt lat="44.34022" lon="6.8495">
        <ele>2404.8000488281</ele>
        <time>2021-05-09T13:30:00.000Z</time>
      </trkpt>
      <trkpt lat="44.34027" lon="6.84956">
        <ele>2405</ele>
        <time>2021-05-09T13:30:14.000Z</time>
      </trkpt>
      <trkpt lat="44.34027" lon="6.84956">
        <ele>2404.1999511719</ele>
        <time>2021-05-09T13:30:20.000Z</time>
      </trkpt>
      <trkpt lat="44.34027" lon="6.84956">
        <ele>2404</ele>
        <time>2021-05-09T13:30:22.000Z</time>
      </trkpt>
      <trkpt lat="44.34027" lon="6.84957">
        <ele>2404</ele>
        <time>2021-05-09T13:30:24.000Z</time>
      </trkpt>
      <trkpt lat="44.34028" lon="6.84959">
        <ele>2404</ele>
        <time>2021-05-09T13:30:32.000Z</time>
      </trkpt>
      <trkpt lat="44.34028" lon="6.84958">
        <ele>2403.8000488281</ele>
        <time>2021-05-09T13:30:36.000Z</time>
      </trkpt>
      <trkpt lat="44.34027" lon="6.84956">
        <ele>2403.6000976562</ele>
        <time>2021-05-09T13:30:44.000Z</time>
      </trkpt>
      <trkpt lat="44.34027" lon="6.84956">
        <ele>2403.3999023438</ele>
        <time>2021-05-09T13:30:48.000Z</time>
      </trkpt>
      <trkpt lat="44.34026" lon="6.84954">
        <ele>2403.6000976562</ele>
        <time>2021-05-09T13:31:02.000Z</time>
      </trkpt>
      <trkpt lat="44.34026" lon="6.84954">
        <ele>2403.8000488281</ele>
        <time>2021-05-09T13:31:07.000Z</time>
      </trkpt>
      <trkpt lat="44.34026" lon="6.84954">
        <ele>2403.8000488281</ele>
        <time>2021-05-09T13:31:09.000Z</time>
      </trkpt>
      <trkpt lat="44.34026" lon="6.84954">
        <ele>2404</ele>
        <time>2021-05-09T13:31:16.000Z</time>
      </trkpt>
      <trkpt lat="44.34027" lon="6.84954">
        <ele>2403.8000488281</ele>
        <time>2021-05-09T13:31:21.000Z</time>
      </trkpt>
      <trkpt lat="44.34027" lon="6.84954">
        <ele>2403.6000976562</ele>
        <time>2021-05-09T13:31:23.000Z</time>
      </trkpt>
      <trkpt lat="44.34027" lon="6.84954">
        <ele>2403.3999023438</ele>
        <time>2021-05-09T13:31:26.000Z</time>
      </trkpt>
      <trkpt lat="44.34027" lon="6.84954">
        <ele>2404</ele>
        <time>2021-05-09T13:31:30.000Z</time>
      </trkpt>
      <trkpt lat="44.34027" lon="6.84954">
        <ele>2404.3999023438</ele>
        <time>2021-05-09T13:31:33.000Z</time>
      </trkpt>
      <trkpt lat="44.34027" lon="6.84954">
        <ele>2404.3999023438</ele>
        <time>2021-05-09T13:31:34.000Z</time>
      </trkpt>
      <trkpt lat="44.34027" lon="6.84954">
        <ele>2404.1999511719</ele>
        <time>2021-05-09T13:31:36.000Z</time>
      </trkpt>
      <trkpt lat="44.34025" lon="6.84954">
        <ele>2404.1999511719</ele>
        <time>2021-05-09T13:31:48.000Z</time>
      </trkpt>
      <trkpt lat="44.34024" lon="6.84954">
        <ele>2404.1999511719</ele>
        <time>2021-05-09T13:31:51.000Z</time>
      </trkpt>
      <trkpt lat="44.34022" lon="6.84953">
        <ele>2404.3999023438</ele>
        <time>2021-05-09T13:31:56.000Z</time>
      </trkpt>
      <trkpt lat="44.34024" lon="6.84953">
        <ele>2404.3999023438</ele>
        <time>2021-05-09T13:32:00.000Z</time>
      </trkpt>
      <trkpt lat="44.34023" lon="6.84951">
        <ele>2404.1999511719</ele>
        <time>2021-05-09T13:32:04.000Z</time>
      </trkpt>
      <trkpt lat="44.34023" lon="6.84951">
        <ele>2404</ele>
        <time>2021-05-09T13:32:05.000Z</time>
      </trkpt>
      <trkpt lat="44.34025" lon="6.84954">
        <ele>2405.1999511719</ele>
        <time>2021-05-09T13:32:18.000Z</time>
      </trkpt>
      <trkpt lat="44.34025" lon="6.84955">
        <ele>2405.6000976562</ele>
        <time>2021-05-09T13:32:20.000Z</time>
      </trkpt>
      <trkpt lat="44.34027" lon="6.84956">
        <ele>2405.1999511719</ele>
        <time>2021-05-09T13:32:23.000Z</time>
      </trkpt>
      <trkpt lat="44.34028" lon="6.84957">
        <ele>2404</ele>
        <time>2021-05-09T13:32:25.000Z</time>
      </trkpt>
      <trkpt lat="44.34028" lon="6.84957">
        <ele>2402.8000488281</ele>
        <time>2021-05-09T13:32:27.000Z</time>
      </trkpt>
      <trkpt lat="44.34029" lon="6.84956">
        <ele>2403.1999511719</ele>
        <time>2021-05-09T13:32:37.000Z</time>
      </trkpt>
      <trkpt lat="44.34028" lon="6.84956">
        <ele>2404</ele>
        <time>2021-05-09T13:32:39.000Z</time>
      </trkpt>
      <trkpt lat="44.34028" lon="6.84955">
        <ele>2404</ele>
        <time>2021-05-09T13:32:41.000Z</time>
      </trkpt>
      <trkpt lat="44.34027" lon="6.84955">
        <ele>2404.1999511719</ele>
        <time>2021-05-09T13:32:43.000Z</time>
      </trkpt>
      <trkpt lat="44.34025" lon="6.84953">
        <ele>2404.8000488281</ele>
        <time>2021-05-09T13:32:53.000Z</time>
      </trkpt>
      <trkpt lat="44.34026" lon="6.84954">
        <ele>2404.1999511719</ele>
        <time>2021-05-09T13:32:56.000Z</time>
      </trkpt>
      <trkpt lat="44.34027" lon="6.84954">
        <ele>2404.3999023438</ele>
        <time>2021-05-09T13:33:06.000Z</time>
      </trkpt>
      <trkpt lat="44.34027" lon="6.84954">
        <ele>2404.3999023438</ele>
        <time>2021-05-09T13:33:07.000Z</time>
      </trkpt>
      <trkpt lat="44.34026" lon="6.84954">
        <ele>2404.3999023438</ele>
        <time>2021-05-09T13:33:08.000Z</time>
      </trkpt>
      <trkpt lat="44.34026" lon="6.84954">
        <ele>2404</ele>
        <time>2021-05-09T13:33:10.000Z</time>
      </trkpt>
      <trkpt lat="44.34026" lon="6.84955">
        <ele>2403.8000488281</ele>
        <time>2021-05-09T13:33:11.000Z</time>
      </trkpt>
      <trkpt lat="44.34027" lon="6.84955">
        <ele>2403.6000976562</ele>
        <time>2021-05-09T13:33:13.000Z</time>
      </trkpt>
      <trkpt lat="44.34029" lon="6.84958">
        <ele>2404</ele>
        <time>2021-05-09T13:33:24.000Z</time>
      </trkpt>
      <trkpt lat="44.34027" lon="6.84955">
        <ele>2404</ele>
        <time>2021-05-09T13:33:32.000Z</time>
      </trkpt>
      <trkpt lat="44.34028" lon="6.84955">
        <ele>2404</ele>
        <time>2021-05-09T13:33:35.000Z</time>
      </trkpt>
      <trkpt lat="44.34027" lon="6.84955">
        <ele>2404.1999511719</ele>
        <time>2021-05-09T13:33:37.000Z</time>
      </trkpt>
      <trkpt lat="44.34027" lon="6.84955">
        <ele>2404.3999023438</ele>
        <time>2021-05-09T13:33:39.000Z</time>
      </trkpt>
      <trkpt lat="44.34028" lon="6.84955">
        <ele>2404.1999511719</ele>
        <time>2021-05-09T13:33:42.000Z</time>
      </trkpt>
      <trkpt lat="44.34025" lon="6.84954">
        <ele>2405</ele>
        <time>2021-05-09T13:34:01.000Z</time>
      </trkpt>
      <trkpt lat="44.34027" lon="6.84955">
        <ele>2405</ele>
        <time>2021-05-09T13:34:08.000Z</time>
      </trkpt>
      <trkpt lat="44.34027" lon="6.84955">
        <ele>2405</ele>
        <time>2021-05-09T13:34:10.000Z</time>
      </trkpt>
      <trkpt lat="44.34027" lon="6.84954">
        <ele>2404.8000488281</ele>
        <time>2021-05-09T13:34:16.000Z</time>
      </trkpt>
      <trkpt lat="44.34025" lon="6.84953">
        <ele>2404.3999023438</ele>
        <time>2021-05-09T13:34:25.000Z</time>
      </trkpt>
      <trkpt lat="44.34027" lon="6.84954">
        <ele>2405.3999023438</ele>
        <time>2021-05-09T13:34:33.000Z</time>
      </trkpt>
      <trkpt lat="44.34026" lon="6.84954">
        <ele>2405.8000488281</ele>
        <time>2021-05-09T13:34:37.000Z</time>
      </trkpt>
      <trkpt lat="44.34025" lon="6.84953">
        <ele>2405.1999511719</ele>
        <time>2021-05-09T13:34:49.000Z</time>
      </trkpt>
      <trkpt lat="44.34026" lon="6.84952">
        <ele>2404.8000488281</ele>
        <time>2021-05-09T13:35:01.000Z</time>
      </trkpt>
      <trkpt lat="44.34026" lon="6.84953">
        <ele>2404.6000976562</ele>
        <time>2021-05-09T13:35:08.000Z</time>
      </trkpt>
      <trkpt lat="44.34025" lon="6.84953">
        <ele>2405</ele>
        <time>2021-05-09T13:35:14.000Z</time>
      </trkpt>
      <trkpt lat="44.34025" lon="6.84956">
        <ele>2404.1999511719</ele>
        <time>2021-05-09T13:35:46.000Z</time>
      </trkpt>
      <trkpt lat="44.34026" lon="6.84958">
        <ele>2404</ele>
        <time>2021-05-09T13:35:48.000Z</time>
      </trkpt>
      <trkpt lat="44.34026" lon="6.84959">
        <ele>2403.6000976562</ele>
        <time>2021-05-09T13:35:49.000Z</time>
      </trkpt>
      <trkpt lat="44.34027" lon="6.8496">
        <ele>2404</ele>
        <time>2021-05-09T13:35:54.000Z</time>
      </trkpt>
      <trkpt lat="44.34026" lon="6.84955">
        <ele>2404.8000488281</ele>
        <time>2021-05-09T13:36:03.000Z</time>
      </trkpt>
      <trkpt lat="44.34025" lon="6.84954">
        <ele>2404.8000488281</ele>
        <time>2021-05-09T13:36:07.000Z</time>
      </trkpt>
      <trkpt lat="44.34027" lon="6.84955">
        <ele>2405</ele>
        <time>2021-05-09T13:36:15.000Z</time>
      </trkpt>
      <trkpt lat="44.34027" lon="6.84954">
        <ele>2405</ele>
        <time>2021-05-09T13:36:17.000Z</time>
      </trkpt>
      <trkpt lat="44.34027" lon="6.84955">
        <ele>2405</ele>
        <time>2021-05-09T13:36:20.000Z</time>
      </trkpt>
      <trkpt lat="44.34027" lon="6.84956">
        <ele>2405</ele>
        <time>2021-05-09T13:36:22.000Z</time>
      </trkpt>
      <trkpt lat="44.34026" lon="6.84956">
        <ele>2405.3999023438</ele>
        <time>2021-05-09T13:36:33.000Z</time>
      </trkpt>
      <trkpt lat="44.34026" lon="6.84956">
        <ele>2405.3999023438</ele>
        <time>2021-05-09T13:36:35.000Z</time>
      </trkpt>
      <trkpt lat="44.34025" lon="6.84953">
        <ele>2405.6000976562</ele>
        <time>2021-05-09T13:36:48.000Z</time>
      </trkpt>
      <trkpt lat="44.34025" lon="6.84954">
        <ele>2405.8000488281</ele>
        <time>2021-05-09T13:36:50.000Z</time>
      </trkpt>
      <trkpt lat="44.34027" lon="6.84957">
        <ele>2405.3999023438</ele>
        <time>2021-05-09T13:36:59.000Z</time>
      </trkpt>
      <trkpt lat="44.34026" lon="6.84956">
        <ele>2406</ele>
        <time>2021-05-09T13:37:05.000Z</time>
      </trkpt>
      <trkpt lat="44.34026" lon="6.84956">
        <ele>2406</ele>
        <time>2021-05-09T13:37:07.000Z</time>
      </trkpt>
      <trkpt lat="44.34027" lon="6.84956">
        <ele>2406</ele>
        <time>2021-05-09T13:37:09.000Z</time>
      </trkpt>
      <trkpt lat="44.34027" lon="6.84956">
        <ele>2406.1999511719</ele>
        <time>2021-05-09T13:37:10.000Z</time>
      </trkpt>
      <trkpt lat="44.34027" lon="6.84955">
        <ele>2406.3999023438</ele>
        <time>2021-05-09T13:37:12.000Z</time>
      </trkpt>
      <trkpt lat="44.34027" lon="6.84956">
        <ele>2406.3999023438</ele>
        <time>2021-05-09T13:37:16.000Z</time>
      </trkpt>
      <trkpt lat="44.34027" lon="6.84956">
        <ele>2406.3999023438</ele>
        <time>2021-05-09T13:37:19.000Z</time>
      </trkpt>
      <trkpt lat="44.34027" lon="6.84956">
        <ele>2406.3999023438</ele>
        <time>2021-05-09T13:37:21.000Z</time>
      </trkpt>
      <trkpt lat="44.34027" lon="6.84958">
        <ele>2406</ele>
        <time>2021-05-09T13:37:28.000Z</time>
      </trkpt>
      <trkpt lat="44.34029" lon="6.84961">
        <ele>2406</ele>
        <time>2021-05-09T13:37:34.000Z</time>
      </trkpt>
      <trkpt lat="44.34029" lon="6.84961">
        <ele>2406</ele>
        <time>2021-05-09T13:37:35.000Z</time>
      </trkpt>
      <trkpt lat="44.3403" lon="6.84962">
        <ele>2405.6000976562</ele>
        <time>2021-05-09T13:37:45.000Z</time>
      </trkpt>
      <trkpt lat="44.3403" lon="6.84961">
        <ele>2405.6000976562</ele>
        <time>2021-05-09T13:37:46.000Z</time>
      </trkpt>
      <trkpt lat="44.34029" lon="6.84961">
        <ele>2405.6000976562</ele>
        <time>2021-05-09T13:37:47.000Z</time>
      </trkpt>
      <trkpt lat="44.34027" lon="6.84956">
        <ele>2405.6000976562</ele>
        <time>2021-05-09T13:37:54.000Z</time>
      </trkpt>
      <trkpt lat="44.34026" lon="6.84956">
        <ele>2405.6000976562</ele>
        <time>2021-05-09T13:37:55.000Z</time>
      </trkpt>
      <trkpt lat="44.34024" lon="6.84954">
        <ele>2405.6000976562</ele>
        <time>2021-05-09T13:37:57.000Z</time>
      </trkpt>
      <trkpt lat="44.34024" lon="6.84954">
        <ele>2405.6000976562</ele>
        <time>2021-05-09T13:38:01.000Z</time>
      </trkpt>
      <trkpt lat="44.34024" lon="6.84954">
        <ele>2405.6000976562</ele>
        <time>2021-05-09T13:38:03.000Z</time>
      </trkpt>
      <trkpt lat="44.34024" lon="6.84954">
        <ele>2405.6000976562</ele>
        <time>2021-05-09T13:38:05.000Z</time>
      </trkpt>
      <trkpt lat="44.34024" lon="6.84954">
        <ele>2405.6000976562</ele>
        <time>2021-05-09T13:38:06.000Z</time>
      </trkpt>
      <trkpt lat="44.34023" lon="6.84953">
        <ele>2405.6000976562</ele>
        <time>2021-05-09T13:38:11.000Z</time>
      </trkpt>
      <trkpt lat="44.34023" lon="6.84952">
        <ele>2405.6000976562</ele>
        <time>2021-05-09T13:38:13.000Z</time>
      </trkpt>
      <trkpt lat="44.34024" lon="6.84952">
        <ele>2405.6000976562</ele>
        <time>2021-05-09T13:38:15.000Z</time>
      </trkpt>
      <trkpt lat="44.34026" lon="6.84952">
        <ele>2405.6000976562</ele>
        <time>2021-05-09T13:38:23.000Z</time>
      </trkpt>
      <trkpt lat="44.34023" lon="6.84953">
        <ele>2405.6000976562</ele>
        <time>2021-05-09T13:38:35.000Z</time>
      </trkpt>
      <trkpt lat="44.34023" lon="6.84953">
        <ele>2405.6000976562</ele>
        <time>2021-05-09T13:38:43.000Z</time>
      </trkpt>
      <trkpt lat="44.34025" lon="6.84955">
        <ele>2405.6000976562</ele>
        <time>2021-05-09T13:38:48.000Z</time>
      </trkpt>
      <trkpt lat="44.34027" lon="6.84956">
        <ele>2405.6000976562</ele>
        <time>2021-05-09T13:38:57.000Z</time>
      </trkpt>
      <trkpt lat="44.34027" lon="6.84956">
        <ele>2405.6000976562</ele>
        <time>2021-05-09T13:39:03.000Z</time>
      </trkpt>
      <trkpt lat="44.34027" lon="6.84956">
        <ele>2405.6000976562</ele>
        <time>2021-05-09T13:39:04.000Z</time>
      </trkpt>
      <trkpt lat="44.34027" lon="6.84955">
        <ele>2405.6000976562</ele>
        <time>2021-05-09T13:39:05.000Z</time>
      </trkpt>
      <trkpt lat="44.34027" lon="6.84955">
        <ele>2405.6000976562</ele>
        <time>2021-05-09T13:39:06.000Z</time>
      </trkpt>
      <trkpt lat="44.34027" lon="6.84955">
        <ele>2405.6000976562</ele>
        <time>2021-05-09T13:39:14.000Z</time>
      </trkpt>
      <trkpt lat="44.34027" lon="6.84955">
        <ele>2405.6000976562</ele>
        <time>2021-05-09T13:39:17.000Z</time>
      </trkpt>
      <trkpt lat="44.34029" lon="6.84956">
        <ele>2405.6000976562</ele>
        <time>2021-05-09T13:39:22.000Z</time>
      </trkpt>
      <trkpt lat="44.3403" lon="6.84958">
        <ele>2405.6000976562</ele>
        <time>2021-05-09T13:39:28.000Z</time>
      </trkpt>
      <trkpt lat="44.3403" lon="6.84959">
        <ele>2405.6000976562</ele>
        <time>2021-05-09T13:39:30.000Z</time>
      </trkpt>
      <trkpt lat="44.34031" lon="6.84959">
        <ele>2405.6000976562</ele>
        <time>2021-05-09T13:39:33.000Z</time>
      </trkpt>
      <trkpt lat="44.34029" lon="6.84959">
        <ele>2405.6000976562</ele>
        <time>2021-05-09T13:39:42.000Z</time>
      </trkpt>
      <trkpt lat="44.34028" lon="6.84956">
        <ele>2405.6000976562</ele>
        <time>2021-05-09T13:39:50.000Z</time>
      </trkpt>
      <trkpt lat="44.34028" lon="6.84955">
        <ele>2405.6000976562</ele>
        <time>2021-05-09T13:39:51.000Z</time>
      </trkpt>
      <trkpt lat="44.34029" lon="6.84955">
        <ele>2405.6000976562</ele>
        <time>2021-05-09T13:39:52.000Z</time>
      </trkpt>
      <trkpt lat="44.34029" lon="6.84955">
        <ele>2405.6000976562</ele>
        <time>2021-05-09T13:39:53.000Z</time>
      </trkpt>
      <trkpt lat="44.34029" lon="6.84955">
        <ele>2405.6000976562</ele>
        <time>2021-05-09T13:39:55.000Z</time>
      </trkpt>
      <trkpt lat="44.3403" lon="6.84957">
        <ele>2405.6000976562</ele>
        <time>2021-05-09T13:39:58.000Z</time>
      </trkpt>
      <trkpt lat="44.34029" lon="6.84957">
        <ele>2405.6000976562</ele>
        <time>2021-05-09T13:39:59.000Z</time>
      </trkpt>
      <trkpt lat="44.34029" lon="6.84958">
        <ele>2405.6000976562</ele>
        <time>2021-05-09T13:40:02.000Z</time>
      </trkpt>
      <trkpt lat="44.34026" lon="6.84957">
        <ele>2405.6000976562</ele>
        <time>2021-05-09T13:40:09.000Z</time>
      </trkpt>
      <trkpt lat="44.34024" lon="6.84956">
        <ele>2405.6000976562</ele>
        <time>2021-05-09T13:40:11.000Z</time>
      </trkpt>
      <trkpt lat="44.34023" lon="6.84956">
        <ele>2405.6000976562</ele>
        <time>2021-05-09T13:40:14.000Z</time>
      </trkpt>
      <trkpt lat="44.34023" lon="6.84956">
        <ele>2405.6000976562</ele>
        <time>2021-05-09T13:40:17.000Z</time>
      </trkpt>
      <trkpt lat="44.34025" lon="6.84956">
        <ele>2405.6000976562</ele>
        <time>2021-05-09T13:40:24.000Z</time>
      </trkpt>
      <trkpt lat="44.34026" lon="6.84959">
        <ele>2405.6000976562</ele>
        <time>2021-05-09T13:40:44.000Z</time>
      </trkpt>
      <trkpt lat="44.34027" lon="6.84958">
        <ele>2405.6000976562</ele>
        <time>2021-05-09T13:40:51.000Z</time>
      </trkpt>
      <trkpt lat="44.34027" lon="6.84958">
        <ele>2405.6000976562</ele>
        <time>2021-05-09T13:40:55.000Z</time>
      </trkpt>
      <trkpt lat="44.34027" lon="6.84958">
        <ele>2405.6000976562</ele>
        <time>2021-05-09T13:41:06.000Z</time>
      </trkpt>
      <trkpt lat="44.34027" lon="6.84956">
        <ele>2405.6000976562</ele>
        <time>2021-05-09T13:41:10.000Z</time>
      </trkpt>
      <trkpt lat="44.34028" lon="6.84956">
        <ele>2405.6000976562</ele>
        <time>2021-05-09T13:41:18.000Z</time>
      </trkpt>
      <trkpt lat="44.34028" lon="6.84957">
        <ele>2405.6000976562</ele>
        <time>2021-05-09T13:41:20.000Z</time>
      </trkpt>
      <trkpt lat="44.34029" lon="6.84957">
        <ele>2405.6000976562</ele>
        <time>2021-05-09T13:41:31.000Z</time>
      </trkpt>
      <trkpt lat="44.34029" lon="6.84959">
        <ele>2405.6000976562</ele>
        <time>2021-05-09T13:41:33.000Z</time>
      </trkpt>
      <trkpt lat="44.34029" lon="6.84959">
        <ele>2405.6000976562</ele>
        <time>2021-05-09T13:41:38.000Z</time>
      </trkpt>
      <trkpt lat="44.34028" lon="6.84957">
        <ele>2405.6000976562</ele>
        <time>2021-05-09T13:41:45.000Z</time>
      </trkpt>
      <trkpt lat="44.34027" lon="6.84957">
        <ele>2405.6000976562</ele>
        <time>2021-05-09T13:41:47.000Z</time>
      </trkpt>
      <trkpt lat="44.34022" lon="6.84955">
        <ele>2405.6000976562</ele>
        <time>2021-05-09T13:42:02.000Z</time>
      </trkpt>
      <trkpt lat="44.34025" lon="6.84955">
        <ele>2405.6000976562</ele>
        <time>2021-05-09T13:42:08.000Z</time>
      </trkpt>
      <trkpt lat="44.34025" lon="6.84955">
        <ele>2405.8000488281</ele>
        <time>2021-05-09T13:42:11.000Z</time>
      </trkpt>
      <trkpt lat="44.34034" lon="6.8496">
        <ele>2406.3999023438</ele>
        <time>2021-05-09T13:42:25.000Z</time>
      </trkpt>
      <trkpt lat="44.34035" lon="6.84961">
        <ele>2406.3999023438</ele>
        <time>2021-05-09T13:42:26.000Z</time>
      </trkpt>
      <trkpt lat="44.34035" lon="6.84961">
        <ele>2406.6000976562</ele>
        <time>2021-05-09T13:42:30.000Z</time>
      </trkpt>
      <trkpt lat="44.34035" lon="6.84961">
        <ele>2406.6000976562</ele>
        <time>2021-05-09T13:42:35.000Z</time>
      </trkpt>
      <trkpt lat="44.34034" lon="6.84961">
        <ele>2406.6000976562</ele>
        <time>2021-05-09T13:42:50.000Z</time>
      </trkpt>
      <trkpt lat="44.34033" lon="6.84961">
        <ele>2406.3999023438</ele>
        <time>2021-05-09T13:42:54.000Z</time>
      </trkpt>
      <trkpt lat="44.34034" lon="6.84961">
        <ele>2406.1999511719</ele>
        <time>2021-05-09T13:42:57.000Z</time>
      </trkpt>
      <trkpt lat="44.34034" lon="6.84961">
        <ele>2406.1999511719</ele>
        <time>2021-05-09T13:42:58.000Z</time>
      </trkpt>
      <trkpt lat="44.34032" lon="6.84959">
        <ele>2406.1999511719</ele>
        <time>2021-05-09T13:43:03.000Z</time>
      </trkpt>
      <trkpt lat="44.34031" lon="6.84958">
        <ele>2406.1999511719</ele>
        <time>2021-05-09T13:43:05.000Z</time>
      </trkpt>
      <trkpt lat="44.34028" lon="6.84956">
        <ele>2406.1999511719</ele>
        <time>2021-05-09T13:43:09.000Z</time>
      </trkpt>
      <trkpt lat="44.34024" lon="6.84952">
        <ele>2406.1999511719</ele>
        <time>2021-05-09T13:43:16.000Z</time>
      </trkpt>
      <trkpt lat="44.34025" lon="6.84954">
        <ele>2406.1999511719</ele>
        <time>2021-05-09T13:43:19.000Z</time>
      </trkpt>
      <trkpt lat="44.34025" lon="6.84957">
        <ele>2406.1999511719</ele>
        <time>2021-05-09T13:43:24.000Z</time>
      </trkpt>
      <trkpt lat="44.34025" lon="6.84958">
        <ele>2406.1999511719</ele>
        <time>2021-05-09T13:43:27.000Z</time>
      </trkpt>
      <trkpt lat="44.34026" lon="6.84965">
        <ele>2405.8000488281</ele>
        <time>2021-05-09T13:43:36.000Z</time>
      </trkpt>
      <trkpt lat="44.34025" lon="6.84966">
        <ele>2405.6000976562</ele>
        <time>2021-05-09T13:43:40.000Z</time>
      </trkpt>
      <trkpt lat="44.34025" lon="6.84966">
        <ele>2405.1999511719</ele>
        <time>2021-05-09T13:43:49.000Z</time>
      </trkpt>
      <trkpt lat="44.34024" lon="6.84966">
        <ele>2405.6000976562</ele>
        <time>2021-05-09T13:43:55.000Z</time>
      </trkpt>
      <trkpt lat="44.34025" lon="6.84963">
        <ele>2405.1999511719</ele>
        <time>2021-05-09T13:44:01.000Z</time>
      </trkpt>
      <trkpt lat="44.34024" lon="6.84963">
        <ele>2405</ele>
        <time>2021-05-09T13:44:06.000Z</time>
      </trkpt>
      <trkpt lat="44.34023" lon="6.84963">
        <ele>2405</ele>
        <time>2021-05-09T13:44:08.000Z</time>
      </trkpt>
      <trkpt lat="44.34023" lon="6.84962">
        <ele>2404.8000488281</ele>
        <time>2021-05-09T13:44:14.000Z</time>
      </trkpt>
      <trkpt lat="44.34023" lon="6.84962">
        <ele>2405</ele>
        <time>2021-05-09T13:44:15.000Z</time>
      </trkpt>
      <trkpt lat="44.34023" lon="6.84962">
        <ele>2405</ele>
        <time>2021-05-09T13:44:17.000Z</time>
      </trkpt>
      <trkpt lat="44.34024" lon="6.84962">
        <ele>2405</ele>
        <time>2021-05-09T13:44:20.000Z</time>
      </trkpt>
      <trkpt lat="44.34024" lon="6.84962">
        <ele>2405.1999511719</ele>
        <time>2021-05-09T13:44:24.000Z</time>
      </trkpt>
      <trkpt lat="44.34024" lon="6.84962">
        <ele>2404.8000488281</ele>
        <time>2021-05-09T13:44:29.000Z</time>
      </trkpt>
      <trkpt lat="44.34024" lon="6.84962">
        <ele>2404.8000488281</ele>
        <time>2021-05-09T13:44:31.000Z</time>
      </trkpt>
      <trkpt lat="44.34023" lon="6.84962">
        <ele>2405</ele>
        <time>2021-05-09T13:44:33.000Z</time>
      </trkpt>
      <trkpt lat="44.34024" lon="6.84962">
        <ele>2405</ele>
        <time>2021-05-09T13:44:34.000Z</time>
      </trkpt>
      <trkpt lat="44.34024" lon="6.84962">
        <ele>2405</ele>
        <time>2021-05-09T13:44:35.000Z</time>
      </trkpt>
      <trkpt lat="44.34023" lon="6.84962">
        <ele>2405</ele>
        <time>2021-05-09T13:44:39.000Z</time>
      </trkpt>
      <trkpt lat="44.34023" lon="6.84962">
        <ele>2405</ele>
        <time>2021-05-09T13:44:40.000Z</time>
      </trkpt>
      <trkpt lat="44.34023" lon="6.84962">
        <ele>2405</ele>
        <time>2021-05-09T13:44:41.000Z</time>
      </trkpt>
      <trkpt lat="44.34022" lon="6.84962">
        <ele>2405</ele>
        <time>2021-05-09T13:44:44.000Z</time>
      </trkpt>
      <trkpt lat="44.34021" lon="6.84962">
        <ele>2405.1999511719</ele>
        <time>2021-05-09T13:44:45.000Z</time>
      </trkpt>
      <trkpt lat="44.34022" lon="6.84964">
        <ele>2405.1999511719</ele>
        <time>2021-05-09T13:44:49.000Z</time>
      </trkpt>
      <trkpt lat="44.34023" lon="6.84964">
        <ele>2405.1999511719</ele>
        <time>2021-05-09T13:44:50.000Z</time>
      </trkpt>
      <trkpt lat="44.34024" lon="6.84965">
        <ele>2405.1999511719</ele>
        <time>2021-05-09T13:44:53.000Z</time>
      </trkpt>
      <trkpt lat="44.34023" lon="6.84964">
        <ele>2405.1999511719</ele>
        <time>2021-05-09T13:44:55.000Z</time>
      </trkpt>
      <trkpt lat="44.34026" lon="6.84962">
        <ele>2405.1999511719</ele>
        <time>2021-05-09T13:45:01.000Z</time>
      </trkpt>
      <trkpt lat="44.34026" lon="6.84962">
        <ele>2405.1999511719</ele>
        <time>2021-05-09T13:45:02.000Z</time>
      </trkpt>
      <trkpt lat="44.34027" lon="6.84965">
        <ele>2405.1999511719</ele>
        <time>2021-05-09T13:45:05.000Z</time>
      </trkpt>
      <trkpt lat="44.34026" lon="6.84963">
        <ele>2405.1999511719</ele>
        <time>2021-05-09T13:45:07.000Z</time>
      </trkpt>
      <trkpt lat="44.34026" lon="6.84964">
        <ele>2403.6000976562</ele>
        <time>2021-05-09T13:45:09.000Z</time>
      </trkpt>
      <trkpt lat="44.34025" lon="6.84964">
        <ele>2403.8000488281</ele>
        <time>2021-05-09T13:45:11.000Z</time>
      </trkpt>
      <trkpt lat="44.34025" lon="6.84964">
        <ele>2404</ele>
        <time>2021-05-09T13:45:14.000Z</time>
      </trkpt>
      <trkpt lat="44.34025" lon="6.84964">
        <ele>2404</ele>
        <time>2021-05-09T13:45:15.000Z</time>
      </trkpt>
      <trkpt lat="44.34025" lon="6.84964">
        <ele>2404</ele>
        <time>2021-05-09T13:45:17.000Z</time>
      </trkpt>
      <trkpt lat="44.34025" lon="6.84963">
        <ele>2404</ele>
        <time>2021-05-09T13:45:20.000Z</time>
      </trkpt>
      <trkpt lat="44.34024" lon="6.84963">
        <ele>2403.8000488281</ele>
        <time>2021-05-09T13:45:28.000Z</time>
      </trkpt>
      <trkpt lat="44.34024" lon="6.84963">
        <ele>2403.6000976562</ele>
        <time>2021-05-09T13:45:29.000Z</time>
      </trkpt>
      <trkpt lat="44.34024" lon="6.84963">
        <ele>2403.6000976562</ele>
        <time>2021-05-09T13:45:31.000Z</time>
      </trkpt>
      <trkpt lat="44.34024" lon="6.84963">
        <ele>2403.6000976562</ele>
        <time>2021-05-09T13:45:32.000Z</time>
      </trkpt>
      <trkpt lat="44.34024" lon="6.84963">
        <ele>2403.6000976562</ele>
        <time>2021-05-09T13:45:35.000Z</time>
      </trkpt>
      <trkpt lat="44.34024" lon="6.84962">
        <ele>2403.8000488281</ele>
        <time>2021-05-09T13:45:36.000Z</time>
      </trkpt>
      <trkpt lat="44.34023" lon="6.84961">
        <ele>2404.8000488281</ele>
        <time>2021-05-09T13:45:41.000Z</time>
      </trkpt>
      <trkpt lat="44.34022" lon="6.8496">
        <ele>2404.8000488281</ele>
        <time>2021-05-09T13:45:42.000Z</time>
      </trkpt>
      <trkpt lat="44.34022" lon="6.84959">
        <ele>2404.8000488281</ele>
        <time>2021-05-09T13:45:47.000Z</time>
      </trkpt>
      <trkpt lat="44.34022" lon="6.8496">
        <ele>2404.8000488281</ele>
        <time>2021-05-09T13:45:52.000Z</time>
      </trkpt>
      <trkpt lat="44.34021" lon="6.84962">
        <ele>2405.6000976562</ele>
        <time>2021-05-09T13:45:57.000Z</time>
      </trkpt>
      <trkpt lat="44.34021" lon="6.84962">
        <ele>2405.6000976562</ele>
        <time>2021-05-09T13:46:00.000Z</time>
      </trkpt>
      <trkpt lat="44.34021" lon="6.84962">
        <ele>2405.6000976562</ele>
        <time>2021-05-09T13:46:04.000Z</time>
      </trkpt>
      <trkpt lat="44.34021" lon="6.84962">
        <ele>2406</ele>
        <time>2021-05-09T13:46:06.000Z</time>
      </trkpt>
      <trkpt lat="44.3402" lon="6.84962">
        <ele>2406.1999511719</ele>
        <time>2021-05-09T13:46:08.000Z</time>
      </trkpt>
      <trkpt lat="44.3402" lon="6.84963">
        <ele>2406</ele>
        <time>2021-05-09T13:46:10.000Z</time>
      </trkpt>
      <trkpt lat="44.3402" lon="6.84964">
        <ele>2405.1999511719</ele>
        <time>2021-05-09T13:46:13.000Z</time>
      </trkpt>
      <trkpt lat="44.34021" lon="6.84964">
        <ele>2404.6000976562</ele>
        <time>2021-05-09T13:46:14.000Z</time>
      </trkpt>
      <trkpt lat="44.34021" lon="6.84963">
        <ele>2404.6000976562</ele>
        <time>2021-05-09T13:46:16.000Z</time>
      </trkpt>
      <trkpt lat="44.34022" lon="6.84962">
        <ele>2404.6000976562</ele>
        <time>2021-05-09T13:46:17.000Z</time>
      </trkpt>
      <trkpt lat="44.34022" lon="6.84962">
        <ele>2404.6000976562</ele>
        <time>2021-05-09T13:46:18.000Z</time>
      </trkpt>
      <trkpt lat="44.34022" lon="6.84962">
        <ele>2404.6000976562</ele>
        <time>2021-05-09T13:46:20.000Z</time>
      </trkpt>
      <trkpt lat="44.34023" lon="6.84962">
        <ele>2404.6000976562</ele>
        <time>2021-05-09T13:46:25.000Z</time>
      </trkpt>
      <trkpt lat="44.34024" lon="6.84963">
        <ele>2404.6000976562</ele>
        <time>2021-05-09T13:46:27.000Z</time>
      </trkpt>
      <trkpt lat="44.34024" lon="6.84964">
        <ele>2404.6000976562</ele>
        <time>2021-05-09T13:46:29.000Z</time>
      </trkpt>
      <trkpt lat="44.34024" lon="6.84964">
        <ele>2404.6000976562</ele>
        <time>2021-05-09T13:46:31.000Z</time>
      </trkpt>
      <trkpt lat="44.34024" lon="6.84964">
        <ele>2404.6000976562</ele>
        <time>2021-05-09T13:46:32.000Z</time>
      </trkpt>
      <trkpt lat="44.34023" lon="6.84964">
        <ele>2404.6000976562</ele>
        <time>2021-05-09T13:46:36.000Z</time>
      </trkpt>
      <trkpt lat="44.34024" lon="6.84964">
        <ele>2404.6000976562</ele>
        <time>2021-05-09T13:46:38.000Z</time>
      </trkpt>
      <trkpt lat="44.34025" lon="6.84964">
        <ele>2404.6000976562</ele>
        <time>2021-05-09T13:46:39.000Z</time>
      </trkpt>
      <trkpt lat="44.34025" lon="6.84964">
        <ele>2404.6000976562</ele>
        <time>2021-05-09T13:46:41.000Z</time>
      </trkpt>
      <trkpt lat="44.34025" lon="6.84964">
        <ele>2404.6000976562</ele>
        <time>2021-05-09T13:46:43.000Z</time>
      </trkpt>
      <trkpt lat="44.34025" lon="6.84964">
        <ele>2404.6000976562</ele>
        <time>2021-05-09T13:46:49.000Z</time>
      </trkpt>
      <trkpt lat="44.34023" lon="6.84966">
        <ele>2404.6000976562</ele>
        <time>2021-05-09T13:46:57.000Z</time>
      </trkpt>
      <trkpt lat="44.34022" lon="6.84965">
        <ele>2404.6000976562</ele>
        <time>2021-05-09T13:46:59.000Z</time>
      </trkpt>
      <trkpt lat="44.34023" lon="6.84965">
        <ele>2404.6000976562</ele>
        <time>2021-05-09T13:47:03.000Z</time>
      </trkpt>
      <trkpt lat="44.34023" lon="6.84963">
        <ele>2404.6000976562</ele>
        <time>2021-05-09T13:47:13.000Z</time>
      </trkpt>
      <trkpt lat="44.34023" lon="6.84963">
        <ele>2404.6000976562</ele>
        <time>2021-05-09T13:47:14.000Z</time>
      </trkpt>
      <trkpt lat="44.34023" lon="6.84963">
        <ele>2404.6000976562</ele>
        <time>2021-05-09T13:47:16.000Z</time>
      </trkpt>
      <trkpt lat="44.34023" lon="6.84963">
        <ele>2404.6000976562</ele>
        <time>2021-05-09T13:47:17.000Z</time>
      </trkpt>
      <trkpt lat="44.34023" lon="6.84964">
        <ele>2404.6000976562</ele>
        <time>2021-05-09T13:47:19.000Z</time>
      </trkpt>
      <trkpt lat="44.34024" lon="6.84963">
        <ele>2404.6000976562</ele>
        <time>2021-05-09T13:47:26.000Z</time>
      </trkpt>
      <trkpt lat="44.34024" lon="6.84963">
        <ele>2404.6000976562</ele>
        <time>2021-05-09T13:47:28.000Z</time>
      </trkpt>
      <trkpt lat="44.34022" lon="6.84962">
        <ele>2404.6000976562</ele>
        <time>2021-05-09T13:47:30.000Z</time>
      </trkpt>
      <trkpt lat="44.34023" lon="6.84962">
        <ele>2404.6000976562</ele>
        <time>2021-05-09T13:47:31.000Z</time>
      </trkpt>
      <trkpt lat="44.34023" lon="6.84963">
        <ele>2404.6000976562</ele>
        <time>2021-05-09T13:47:33.000Z</time>
      </trkpt>
      <trkpt lat="44.34023" lon="6.84963">
        <ele>2404.6000976562</ele>
        <time>2021-05-09T13:47:35.000Z</time>
      </trkpt>
      <trkpt lat="44.34023" lon="6.84963">
        <ele>2404.6000976562</ele>
        <time>2021-05-09T13:47:36.000Z</time>
      </trkpt>
      <trkpt lat="44.34023" lon="6.84962">
        <ele>2404.6000976562</ele>
        <time>2021-05-09T13:47:38.000Z</time>
      </trkpt>
      <trkpt lat="44.34022" lon="6.84961">
        <ele>2404.6000976562</ele>
        <time>2021-05-09T13:47:42.000Z</time>
      </trkpt>
      <trkpt lat="44.34022" lon="6.84962">
        <ele>2404.6000976562</ele>
        <time>2021-05-09T13:47:44.000Z</time>
      </trkpt>
      <trkpt lat="44.34022" lon="6.84963">
        <ele>2404.6000976562</ele>
        <time>2021-05-09T13:47:49.000Z</time>
      </trkpt>
      <trkpt lat="44.34022" lon="6.84963">
        <ele>2404.6000976562</ele>
        <time>2021-05-09T13:47:52.000Z</time>
      </trkpt>
      <trkpt lat="44.34022" lon="6.84963">
        <ele>2404.6000976562</ele>
        <time>2021-05-09T13:47:53.000Z</time>
      </trkpt>
      <trkpt lat="44.34022" lon="6.84964">
        <ele>2404.6000976562</ele>
        <time>2021-05-09T13:47:58.000Z</time>
      </trkpt>
      <trkpt lat="44.34021" lon="6.84964">
        <ele>2404.6000976562</ele>
        <time>2021-05-09T13:47:59.000Z</time>
      </trkpt>
      <trkpt lat="44.34021" lon="6.84964">
        <ele>2404.6000976562</ele>
        <time>2021-05-09T13:48:02.000Z</time>
      </trkpt>
      <trkpt lat="44.34021" lon="6.84964">
        <ele>2404.6000976562</ele>
        <time>2021-05-09T13:48:07.000Z</time>
      </trkpt>
      <trkpt lat="44.34021" lon="6.84964">
        <ele>2404.6000976562</ele>
        <time>2021-05-09T13:48:08.000Z</time>
      </trkpt>
      <trkpt lat="44.34021" lon="6.84962">
        <ele>2404.6000976562</ele>
        <time>2021-05-09T13:48:12.000Z</time>
      </trkpt>
      <trkpt lat="44.34021" lon="6.84962">
        <ele>2404.6000976562</ele>
        <time>2021-05-09T13:48:17.000Z</time>
      </trkpt>
      <trkpt lat="44.34021" lon="6.84962">
        <ele>2404.6000976562</ele>
        <time>2021-05-09T13:48:18.000Z</time>
      </trkpt>
      <trkpt lat="44.3402" lon="6.84961">
        <ele>2404.6000976562</ele>
        <time>2021-05-09T13:48:22.000Z</time>
      </trkpt>
      <trkpt lat="44.3402" lon="6.84961">
        <ele>2404.6000976562</ele>
        <time>2021-05-09T13:48:28.000Z</time>
      </trkpt>
      <trkpt lat="44.34022" lon="6.84963">
        <ele>2404.6000976562</ele>
        <time>2021-05-09T13:48:34.000Z</time>
      </trkpt>
      <trkpt lat="44.34021" lon="6.84963">
        <ele>2404.6000976562</ele>
        <time>2021-05-09T13:48:39.000Z</time>
      </trkpt>
      <trkpt lat="44.34019" lon="6.84962">
        <ele>2404.6000976562</ele>
        <time>2021-05-09T13:48:46.000Z</time>
      </trkpt>
      <trkpt lat="44.34019" lon="6.84962">
        <ele>2404.6000976562</ele>
        <time>2021-05-09T13:48:48.000Z</time>
      </trkpt>
      <trkpt lat="44.34019" lon="6.84961">
        <ele>2404.6000976562</ele>
        <time>2021-05-09T13:48:49.000Z</time>
      </trkpt>
      <trkpt lat="44.34018" lon="6.8496">
        <ele>2404.6000976562</ele>
        <time>2021-05-09T13:48:51.000Z</time>
      </trkpt>
      <trkpt lat="44.34018" lon="6.84959">
        <ele>2404.6000976562</ele>
        <time>2021-05-09T13:48:52.000Z</time>
      </trkpt>
      <trkpt lat="44.34018" lon="6.84958">
        <ele>2404.6000976562</ele>
        <time>2021-05-09T13:48:53.000Z</time>
      </trkpt>
      <trkpt lat="44.34018" lon="6.84958">
        <ele>2404.6000976562</ele>
        <time>2021-05-09T13:48:54.000Z</time>
      </trkpt>
      <trkpt lat="44.34019" lon="6.84959">
        <ele>2404.6000976562</ele>
        <time>2021-05-09T13:48:57.000Z</time>
      </trkpt>
      <trkpt lat="44.34023" lon="6.8496">
        <ele>2404.6000976562</ele>
        <time>2021-05-09T13:49:11.000Z</time>
      </trkpt>
      <trkpt lat="44.34022" lon="6.84961">
        <ele>2404.6000976562</ele>
        <time>2021-05-09T13:49:15.000Z</time>
      </trkpt>
      <trkpt lat="44.34022" lon="6.84961">
        <ele>2404.6000976562</ele>
        <time>2021-05-09T13:49:17.000Z</time>
      </trkpt>
      <trkpt lat="44.34022" lon="6.84962">
        <ele>2404.6000976562</ele>
        <time>2021-05-09T13:49:27.000Z</time>
      </trkpt>
      <trkpt lat="44.34021" lon="6.84963">
        <ele>2404.6000976562</ele>
        <time>2021-05-09T13:49:29.000Z</time>
      </trkpt>
      <trkpt lat="44.34021" lon="6.84963">
        <ele>2404.6000976562</ele>
        <time>2021-05-09T13:49:32.000Z</time>
      </trkpt>
      <trkpt lat="44.34021" lon="6.84962">
        <ele>2404.6000976562</ele>
        <time>2021-05-09T13:49:35.000Z</time>
      </trkpt>
      <trkpt lat="44.34021" lon="6.84962">
        <ele>2404.6000976562</ele>
        <time>2021-05-09T13:49:36.000Z</time>
      </trkpt>
    </trkseg>
  </trk>
</gpx>